<?xml version="1.0" encoding="UTF-8" standalone="no" ?>
<gpx xmlns="http://www.topografix.com/GPX/1/1" xmlns:xsi="http://www.w3.org/2001/XMLSchema-instance" xsi:schemaLocation="http://www.topografix.com/GPX/1/1 http://www.topografix.com/GPX/1/1/gpx.xsd" version="1.1" creator="VisuGPX - https://www.visugpx.com">
  <metadata>
    <name>BOISDE ROCHEFORT 3</name>
  </metadata>
  <trk>
    <name><![CDATA[BOISDE ROCHEFORT 3]]></name>
    <trkseg>
      <trkpt lat="48.59142" lon="1.96605">
        <ele>131.84</ele>
        <time>2019-12-19T08:15:35Z</time>
      </trkpt>
      <trkpt lat="48.59168" lon="1.9661">
        <ele>132.8</ele>
        <time>2019-12-19T08:16:05Z</time>
      </trkpt>
      <trkpt lat="48.59171" lon="1.96611">
        <ele>132.8</ele>
        <time>2019-12-19T08:16:06Z</time>
      </trkpt>
      <trkpt lat="48.59178" lon="1.96604">
        <ele>127.99</ele>
        <time>2019-12-19T08:22:38Z</time>
      </trkpt>
      <trkpt lat="48.59179" lon="1.96604">
        <ele>127.99</ele>
        <time>2019-12-19T08:22:39Z</time>
      </trkpt>
      <trkpt lat="48.59179" lon="1.96604">
        <ele>127.99</ele>
        <time>2019-12-19T08:22:43Z</time>
      </trkpt>
      <trkpt lat="48.59179" lon="1.96604">
        <ele>128.47</ele>
        <time>2019-12-19T08:22:44Z</time>
      </trkpt>
      <trkpt lat="48.59179" lon="1.96604">
        <ele>128.47</ele>
        <time>2019-12-19T08:22:45Z</time>
      </trkpt>
      <trkpt lat="48.59179" lon="1.96604">
        <ele>128.47</ele>
        <time>2019-12-19T08:22:46Z</time>
      </trkpt>
      <trkpt lat="48.59179" lon="1.96604">
        <ele>128.47</ele>
        <time>2019-12-19T08:22:47Z</time>
      </trkpt>
      <trkpt lat="48.59179" lon="1.96604">
        <ele>128.47</ele>
        <time>2019-12-19T08:22:50Z</time>
      </trkpt>
      <trkpt lat="48.59179" lon="1.96604">
        <ele>128.47</ele>
        <time>2019-12-19T08:22:51Z</time>
      </trkpt>
      <trkpt lat="48.5918" lon="1.96605">
        <ele>128.47</ele>
        <time>2019-12-19T08:23:06Z</time>
      </trkpt>
      <trkpt lat="48.5918" lon="1.96605">
        <ele>128.47</ele>
        <time>2019-12-19T08:23:07Z</time>
      </trkpt>
      <trkpt lat="48.5918" lon="1.96605">
        <ele>128.95</ele>
        <time>2019-12-19T08:23:08Z</time>
      </trkpt>
      <trkpt lat="48.5918" lon="1.96605">
        <ele>128.47</ele>
        <time>2019-12-19T08:23:09Z</time>
      </trkpt>
      <trkpt lat="48.5918" lon="1.96605">
        <ele>128.95</ele>
        <time>2019-12-19T08:23:10Z</time>
      </trkpt>
      <trkpt lat="48.5918" lon="1.96605">
        <ele>128.95</ele>
        <time>2019-12-19T08:23:11Z</time>
      </trkpt>
      <trkpt lat="48.5918" lon="1.96605">
        <ele>128.95</ele>
        <time>2019-12-19T08:23:12Z</time>
      </trkpt>
      <trkpt lat="48.5918" lon="1.96605">
        <ele>128.95</ele>
        <time>2019-12-19T08:23:13Z</time>
      </trkpt>
      <trkpt lat="48.5918" lon="1.96604">
        <ele>128.47</ele>
        <time>2019-12-19T08:23:14Z</time>
      </trkpt>
      <trkpt lat="48.5918" lon="1.96603">
        <ele>128.95</ele>
        <time>2019-12-19T08:23:15Z</time>
      </trkpt>
      <trkpt lat="48.5918" lon="1.96603">
        <ele>128.95</ele>
        <time>2019-12-19T08:23:16Z</time>
      </trkpt>
      <trkpt lat="48.5918" lon="1.96603">
        <ele>128.95</ele>
        <time>2019-12-19T08:23:19Z</time>
      </trkpt>
      <trkpt lat="48.59181" lon="1.96604">
        <ele>129.43</ele>
        <time>2019-12-19T08:23:20Z</time>
      </trkpt>
      <trkpt lat="48.59182" lon="1.96604">
        <ele>129.43</ele>
        <time>2019-12-19T08:23:45Z</time>
      </trkpt>
      <trkpt lat="48.59182" lon="1.96602">
        <ele>129.43</ele>
        <time>2019-12-19T08:23:46Z</time>
      </trkpt>
      <trkpt lat="48.59182" lon="1.96602">
        <ele>129.43</ele>
        <time>2019-12-19T08:23:47Z</time>
      </trkpt>
      <trkpt lat="48.59182" lon="1.96602">
        <ele>128.95</ele>
        <time>2019-12-19T08:23:48Z</time>
      </trkpt>
      <trkpt lat="48.59182" lon="1.96602">
        <ele>128.95</ele>
        <time>2019-12-19T08:23:49Z</time>
      </trkpt>
      <trkpt lat="48.59182" lon="1.96602">
        <ele>128.95</ele>
        <time>2019-12-19T08:23:50Z</time>
      </trkpt>
      <trkpt lat="48.59181" lon="1.96602">
        <ele>128.95</ele>
        <time>2019-12-19T08:23:51Z</time>
      </trkpt>
      <trkpt lat="48.59181" lon="1.96603">
        <ele>128.95</ele>
        <time>2019-12-19T08:23:52Z</time>
      </trkpt>
      <trkpt lat="48.59181" lon="1.96603">
        <ele>128.95</ele>
        <time>2019-12-19T08:23:53Z</time>
      </trkpt>
      <trkpt lat="48.59181" lon="1.96603">
        <ele>128.95</ele>
        <time>2019-12-19T08:23:54Z</time>
      </trkpt>
      <trkpt lat="48.59181" lon="1.96603">
        <ele>128.95</ele>
        <time>2019-12-19T08:23:56Z</time>
      </trkpt>
      <trkpt lat="48.59181" lon="1.96603">
        <ele>128.95</ele>
        <time>2019-12-19T08:23:57Z</time>
      </trkpt>
      <trkpt lat="48.59181" lon="1.96603">
        <ele>128.47</ele>
        <time>2019-12-19T08:23:58Z</time>
      </trkpt>
      <trkpt lat="48.59181" lon="1.96603">
        <ele>128.47</ele>
        <time>2019-12-19T08:23:59Z</time>
      </trkpt>
      <trkpt lat="48.59181" lon="1.96603">
        <ele>128.95</ele>
        <time>2019-12-19T08:24:00Z</time>
      </trkpt>
      <trkpt lat="48.59181" lon="1.96603">
        <ele>128.95</ele>
        <time>2019-12-19T08:24:01Z</time>
      </trkpt>
      <trkpt lat="48.59181" lon="1.96603">
        <ele>128.95</ele>
        <time>2019-12-19T08:24:02Z</time>
      </trkpt>
      <trkpt lat="48.59181" lon="1.96603">
        <ele>128.47</ele>
        <time>2019-12-19T08:24:03Z</time>
      </trkpt>
      <trkpt lat="48.59181" lon="1.96603">
        <ele>128.95</ele>
        <time>2019-12-19T08:24:04Z</time>
      </trkpt>
      <trkpt lat="48.59182" lon="1.96602">
        <ele>128.95</ele>
        <time>2019-12-19T08:24:05Z</time>
      </trkpt>
      <trkpt lat="48.59183" lon="1.96602">
        <ele>128.95</ele>
        <time>2019-12-19T08:24:06Z</time>
      </trkpt>
      <trkpt lat="48.59183" lon="1.96601">
        <ele>128.95</ele>
        <time>2019-12-19T08:24:07Z</time>
      </trkpt>
      <trkpt lat="48.59184" lon="1.96601">
        <ele>128.47</ele>
        <time>2019-12-19T08:24:08Z</time>
      </trkpt>
      <trkpt lat="48.59184" lon="1.96601">
        <ele>128.47</ele>
        <time>2019-12-19T08:24:09Z</time>
      </trkpt>
      <trkpt lat="48.59184" lon="1.96602">
        <ele>128.47</ele>
        <time>2019-12-19T08:24:10Z</time>
      </trkpt>
      <trkpt lat="48.59184" lon="1.96602">
        <ele>128.47</ele>
        <time>2019-12-19T08:24:11Z</time>
      </trkpt>
      <trkpt lat="48.59184" lon="1.96605">
        <ele>128.47</ele>
        <time>2019-12-19T08:24:28Z</time>
      </trkpt>
      <trkpt lat="48.59184" lon="1.96605">
        <ele>128.47</ele>
        <time>2019-12-19T08:24:29Z</time>
      </trkpt>
      <trkpt lat="48.59184" lon="1.96605">
        <ele>127.99</ele>
        <time>2019-12-19T08:24:30Z</time>
      </trkpt>
      <trkpt lat="48.59184" lon="1.96605">
        <ele>127.99</ele>
        <time>2019-12-19T08:24:31Z</time>
      </trkpt>
      <trkpt lat="48.59184" lon="1.96605">
        <ele>128.47</ele>
        <time>2019-12-19T08:24:32Z</time>
      </trkpt>
      <trkpt lat="48.59182" lon="1.96606">
        <ele>128.47</ele>
        <time>2019-12-19T08:24:57Z</time>
      </trkpt>
      <trkpt lat="48.59182" lon="1.96606">
        <ele>128.47</ele>
        <time>2019-12-19T08:24:58Z</time>
      </trkpt>
      <trkpt lat="48.59182" lon="1.96606">
        <ele>128.47</ele>
        <time>2019-12-19T08:24:59Z</time>
      </trkpt>
      <trkpt lat="48.59182" lon="1.96606">
        <ele>127.99</ele>
        <time>2019-12-19T08:25:00Z</time>
      </trkpt>
      <trkpt lat="48.59182" lon="1.96606">
        <ele>128.47</ele>
        <time>2019-12-19T08:25:01Z</time>
      </trkpt>
      <trkpt lat="48.59182" lon="1.96606">
        <ele>128.47</ele>
        <time>2019-12-19T08:25:02Z</time>
      </trkpt>
      <trkpt lat="48.59183" lon="1.96607">
        <ele>128.47</ele>
        <time>2019-12-19T08:25:12Z</time>
      </trkpt>
      <trkpt lat="48.59183" lon="1.96607">
        <ele>128.47</ele>
        <time>2019-12-19T08:25:13Z</time>
      </trkpt>
      <trkpt lat="48.59183" lon="1.96607">
        <ele>128.47</ele>
        <time>2019-12-19T08:25:14Z</time>
      </trkpt>
      <trkpt lat="48.59183" lon="1.96607">
        <ele>128.47</ele>
        <time>2019-12-19T08:25:16Z</time>
      </trkpt>
      <trkpt lat="48.59183" lon="1.96607">
        <ele>128.47</ele>
        <time>2019-12-19T08:25:17Z</time>
      </trkpt>
      <trkpt lat="48.59183" lon="1.96607">
        <ele>128.47</ele>
        <time>2019-12-19T08:25:18Z</time>
      </trkpt>
      <trkpt lat="48.59183" lon="1.96606">
        <ele>128.47</ele>
        <time>2019-12-19T08:25:19Z</time>
      </trkpt>
      <trkpt lat="48.59184" lon="1.96606">
        <ele>128.47</ele>
        <time>2019-12-19T08:25:20Z</time>
      </trkpt>
      <trkpt lat="48.59185" lon="1.96606">
        <ele>128.47</ele>
        <time>2019-12-19T08:25:21Z</time>
      </trkpt>
      <trkpt lat="48.59185" lon="1.96605">
        <ele>128.47</ele>
        <time>2019-12-19T08:25:22Z</time>
      </trkpt>
      <trkpt lat="48.59186" lon="1.96604">
        <ele>128.47</ele>
        <time>2019-12-19T08:25:23Z</time>
      </trkpt>
      <trkpt lat="48.59186" lon="1.96602">
        <ele>128.95</ele>
        <time>2019-12-19T08:25:24Z</time>
      </trkpt>
      <trkpt lat="48.59187" lon="1.96601">
        <ele>128.95</ele>
        <time>2019-12-19T08:25:25Z</time>
      </trkpt>
      <trkpt lat="48.59187" lon="1.966">
        <ele>128.95</ele>
        <time>2019-12-19T08:25:26Z</time>
      </trkpt>
      <trkpt lat="48.59187" lon="1.96599">
        <ele>128.47</ele>
        <time>2019-12-19T08:25:27Z</time>
      </trkpt>
      <trkpt lat="48.59186" lon="1.96598">
        <ele>128.95</ele>
        <time>2019-12-19T08:25:28Z</time>
      </trkpt>
      <trkpt lat="48.59186" lon="1.96598">
        <ele>128.47</ele>
        <time>2019-12-19T08:25:29Z</time>
      </trkpt>
      <trkpt lat="48.59186" lon="1.96596">
        <ele>128.95</ele>
        <time>2019-12-19T08:25:30Z</time>
      </trkpt>
      <trkpt lat="48.59187" lon="1.96594">
        <ele>128.95</ele>
        <time>2019-12-19T08:25:31Z</time>
      </trkpt>
      <trkpt lat="48.59187" lon="1.96592">
        <ele>128.95</ele>
        <time>2019-12-19T08:25:32Z</time>
      </trkpt>
      <trkpt lat="48.59187" lon="1.9659">
        <ele>128.95</ele>
        <time>2019-12-19T08:25:33Z</time>
      </trkpt>
      <trkpt lat="48.59188" lon="1.96588">
        <ele>128.47</ele>
        <time>2019-12-19T08:25:34Z</time>
      </trkpt>
      <trkpt lat="48.59189" lon="1.96586">
        <ele>128.47</ele>
        <time>2019-12-19T08:25:35Z</time>
      </trkpt>
      <trkpt lat="48.5919" lon="1.96585">
        <ele>128.95</ele>
        <time>2019-12-19T08:25:36Z</time>
      </trkpt>
      <trkpt lat="48.59191" lon="1.96584">
        <ele>128.95</ele>
        <time>2019-12-19T08:25:37Z</time>
      </trkpt>
      <trkpt lat="48.59193" lon="1.96582">
        <ele>128.95</ele>
        <time>2019-12-19T08:25:38Z</time>
      </trkpt>
      <trkpt lat="48.59193" lon="1.96581">
        <ele>128.95</ele>
        <time>2019-12-19T08:25:39Z</time>
      </trkpt>
      <trkpt lat="48.59194" lon="1.96579">
        <ele>128.95</ele>
        <time>2019-12-19T08:25:40Z</time>
      </trkpt>
      <trkpt lat="48.59196" lon="1.96578">
        <ele>128.95</ele>
        <time>2019-12-19T08:25:41Z</time>
      </trkpt>
      <trkpt lat="48.59197" lon="1.96577">
        <ele>128.95</ele>
        <time>2019-12-19T08:25:42Z</time>
      </trkpt>
      <trkpt lat="48.59197" lon="1.96576">
        <ele>128.95</ele>
        <time>2019-12-19T08:25:43Z</time>
      </trkpt>
      <trkpt lat="48.59198" lon="1.96575">
        <ele>128.95</ele>
        <time>2019-12-19T08:25:44Z</time>
      </trkpt>
      <trkpt lat="48.59198" lon="1.96574">
        <ele>128.95</ele>
        <time>2019-12-19T08:25:45Z</time>
      </trkpt>
      <trkpt lat="48.59198" lon="1.96574">
        <ele>128.95</ele>
        <time>2019-12-19T08:25:46Z</time>
      </trkpt>
      <trkpt lat="48.59199" lon="1.96571">
        <ele>128.95</ele>
        <time>2019-12-19T08:25:47Z</time>
      </trkpt>
      <trkpt lat="48.59199" lon="1.96568">
        <ele>128.95</ele>
        <time>2019-12-19T08:25:48Z</time>
      </trkpt>
      <trkpt lat="48.59199" lon="1.96565">
        <ele>128.95</ele>
        <time>2019-12-19T08:25:49Z</time>
      </trkpt>
      <trkpt lat="48.59199" lon="1.96562">
        <ele>128.95</ele>
        <time>2019-12-19T08:25:50Z</time>
      </trkpt>
      <trkpt lat="48.592" lon="1.96559">
        <ele>128.95</ele>
        <time>2019-12-19T08:25:51Z</time>
      </trkpt>
      <trkpt lat="48.59201" lon="1.96556">
        <ele>128.95</ele>
        <time>2019-12-19T08:25:52Z</time>
      </trkpt>
      <trkpt lat="48.59202" lon="1.96554">
        <ele>128.95</ele>
        <time>2019-12-19T08:25:53Z</time>
      </trkpt>
      <trkpt lat="48.59204" lon="1.96551">
        <ele>129.43</ele>
        <time>2019-12-19T08:25:54Z</time>
      </trkpt>
      <trkpt lat="48.59204" lon="1.9655">
        <ele>129.43</ele>
        <time>2019-12-19T08:25:55Z</time>
      </trkpt>
      <trkpt lat="48.59205" lon="1.96549">
        <ele>129.43</ele>
        <time>2019-12-19T08:25:56Z</time>
      </trkpt>
      <trkpt lat="48.59206" lon="1.96547">
        <ele>129.43</ele>
        <time>2019-12-19T08:25:57Z</time>
      </trkpt>
      <trkpt lat="48.59207" lon="1.96545">
        <ele>129.43</ele>
        <time>2019-12-19T08:25:58Z</time>
      </trkpt>
      <trkpt lat="48.59208" lon="1.96544">
        <ele>129.43</ele>
        <time>2019-12-19T08:25:59Z</time>
      </trkpt>
      <trkpt lat="48.59209" lon="1.96542">
        <ele>129.43</ele>
        <time>2019-12-19T08:26:00Z</time>
      </trkpt>
      <trkpt lat="48.5921" lon="1.96541">
        <ele>129.43</ele>
        <time>2019-12-19T08:26:01Z</time>
      </trkpt>
      <trkpt lat="48.5921" lon="1.9654">
        <ele>129.43</ele>
        <time>2019-12-19T08:26:02Z</time>
      </trkpt>
      <trkpt lat="48.59211" lon="1.96539">
        <ele>129.43</ele>
        <time>2019-12-19T08:26:03Z</time>
      </trkpt>
      <trkpt lat="48.59212" lon="1.96538">
        <ele>129.92</ele>
        <time>2019-12-19T08:26:04Z</time>
      </trkpt>
      <trkpt lat="48.59213" lon="1.96537">
        <ele>129.43</ele>
        <time>2019-12-19T08:26:05Z</time>
      </trkpt>
      <trkpt lat="48.59214" lon="1.96537">
        <ele>129.92</ele>
        <time>2019-12-19T08:26:06Z</time>
      </trkpt>
      <trkpt lat="48.59215" lon="1.96536">
        <ele>129.43</ele>
        <time>2019-12-19T08:26:07Z</time>
      </trkpt>
      <trkpt lat="48.59216" lon="1.96535">
        <ele>129.92</ele>
        <time>2019-12-19T08:26:08Z</time>
      </trkpt>
      <trkpt lat="48.59218" lon="1.96534">
        <ele>129.92</ele>
        <time>2019-12-19T08:26:09Z</time>
      </trkpt>
      <trkpt lat="48.59219" lon="1.96533">
        <ele>130.4</ele>
        <time>2019-12-19T08:26:10Z</time>
      </trkpt>
      <trkpt lat="48.59221" lon="1.96533">
        <ele>130.4</ele>
        <time>2019-12-19T08:26:11Z</time>
      </trkpt>
      <trkpt lat="48.59221" lon="1.96532">
        <ele>130.4</ele>
        <time>2019-12-19T08:26:12Z</time>
      </trkpt>
      <trkpt lat="48.59222" lon="1.96532">
        <ele>130.4</ele>
        <time>2019-12-19T08:26:13Z</time>
      </trkpt>
      <trkpt lat="48.59223" lon="1.96531">
        <ele>130.88</ele>
        <time>2019-12-19T08:26:14Z</time>
      </trkpt>
      <trkpt lat="48.59224" lon="1.9653">
        <ele>130.88</ele>
        <time>2019-12-19T08:26:15Z</time>
      </trkpt>
      <trkpt lat="48.59225" lon="1.96529">
        <ele>130.88</ele>
        <time>2019-12-19T08:26:16Z</time>
      </trkpt>
      <trkpt lat="48.59226" lon="1.96528">
        <ele>131.36</ele>
        <time>2019-12-19T08:26:17Z</time>
      </trkpt>
      <trkpt lat="48.59227" lon="1.96527">
        <ele>131.36</ele>
        <time>2019-12-19T08:26:18Z</time>
      </trkpt>
      <trkpt lat="48.59228" lon="1.96525">
        <ele>131.36</ele>
        <time>2019-12-19T08:26:19Z</time>
      </trkpt>
      <trkpt lat="48.59229" lon="1.96524">
        <ele>131.36</ele>
        <time>2019-12-19T08:26:20Z</time>
      </trkpt>
      <trkpt lat="48.59231" lon="1.96523">
        <ele>131.36</ele>
        <time>2019-12-19T08:26:21Z</time>
      </trkpt>
      <trkpt lat="48.59233" lon="1.96522">
        <ele>132.32</ele>
        <time>2019-12-19T08:26:22Z</time>
      </trkpt>
      <trkpt lat="48.59234" lon="1.96522">
        <ele>131.84</ele>
        <time>2019-12-19T08:26:23Z</time>
      </trkpt>
      <trkpt lat="48.59235" lon="1.96521">
        <ele>131.84</ele>
        <time>2019-12-19T08:26:24Z</time>
      </trkpt>
      <trkpt lat="48.59237" lon="1.96521">
        <ele>131.84</ele>
        <time>2019-12-19T08:26:25Z</time>
      </trkpt>
      <trkpt lat="48.59238" lon="1.9652">
        <ele>131.84</ele>
        <time>2019-12-19T08:26:26Z</time>
      </trkpt>
      <trkpt lat="48.59239" lon="1.96519">
        <ele>132.32</ele>
        <time>2019-12-19T08:26:27Z</time>
      </trkpt>
      <trkpt lat="48.5924" lon="1.96519">
        <ele>132.32</ele>
        <time>2019-12-19T08:26:28Z</time>
      </trkpt>
      <trkpt lat="48.59242" lon="1.96518">
        <ele>132.32</ele>
        <time>2019-12-19T08:26:29Z</time>
      </trkpt>
      <trkpt lat="48.59242" lon="1.96517">
        <ele>133.28</ele>
        <time>2019-12-19T08:26:30Z</time>
      </trkpt>
      <trkpt lat="48.59243" lon="1.96516">
        <ele>133.28</ele>
        <time>2019-12-19T08:26:31Z</time>
      </trkpt>
      <trkpt lat="48.59244" lon="1.96514">
        <ele>132.8</ele>
        <time>2019-12-19T08:26:32Z</time>
      </trkpt>
      <trkpt lat="48.59245" lon="1.96513">
        <ele>133.28</ele>
        <time>2019-12-19T08:26:33Z</time>
      </trkpt>
      <trkpt lat="48.59247" lon="1.96511">
        <ele>133.28</ele>
        <time>2019-12-19T08:26:34Z</time>
      </trkpt>
      <trkpt lat="48.59248" lon="1.96509">
        <ele>133.28</ele>
        <time>2019-12-19T08:26:35Z</time>
      </trkpt>
      <trkpt lat="48.59249" lon="1.96508">
        <ele>133.76</ele>
        <time>2019-12-19T08:26:36Z</time>
      </trkpt>
      <trkpt lat="48.5925" lon="1.96507">
        <ele>133.76</ele>
        <time>2019-12-19T08:26:37Z</time>
      </trkpt>
      <trkpt lat="48.59251" lon="1.96506">
        <ele>133.76</ele>
        <time>2019-12-19T08:26:38Z</time>
      </trkpt>
      <trkpt lat="48.59252" lon="1.96505">
        <ele>133.76</ele>
        <time>2019-12-19T08:26:39Z</time>
      </trkpt>
      <trkpt lat="48.59253" lon="1.96503">
        <ele>133.76</ele>
        <time>2019-12-19T08:26:40Z</time>
      </trkpt>
      <trkpt lat="48.59254" lon="1.96501">
        <ele>134.24</ele>
        <time>2019-12-19T08:26:41Z</time>
      </trkpt>
      <trkpt lat="48.59256" lon="1.96499">
        <ele>134.24</ele>
        <time>2019-12-19T08:26:42Z</time>
      </trkpt>
      <trkpt lat="48.59258" lon="1.96498">
        <ele>134.24</ele>
        <time>2019-12-19T08:26:43Z</time>
      </trkpt>
      <trkpt lat="48.59258" lon="1.96496">
        <ele>134.24</ele>
        <time>2019-12-19T08:26:44Z</time>
      </trkpt>
      <trkpt lat="48.59259" lon="1.96495">
        <ele>134.72</ele>
        <time>2019-12-19T08:26:45Z</time>
      </trkpt>
      <trkpt lat="48.59261" lon="1.96493">
        <ele>134.72</ele>
        <time>2019-12-19T08:26:46Z</time>
      </trkpt>
      <trkpt lat="48.59262" lon="1.96492">
        <ele>134.72</ele>
        <time>2019-12-19T08:26:47Z</time>
      </trkpt>
      <trkpt lat="48.59264" lon="1.96491">
        <ele>134.72</ele>
        <time>2019-12-19T08:26:48Z</time>
      </trkpt>
      <trkpt lat="48.59265" lon="1.9649">
        <ele>134.72</ele>
        <time>2019-12-19T08:26:49Z</time>
      </trkpt>
      <trkpt lat="48.59267" lon="1.96489">
        <ele>134.72</ele>
        <time>2019-12-19T08:26:50Z</time>
      </trkpt>
      <trkpt lat="48.59268" lon="1.96488">
        <ele>135.2</ele>
        <time>2019-12-19T08:26:51Z</time>
      </trkpt>
      <trkpt lat="48.59268" lon="1.96488">
        <ele>135.68</ele>
        <time>2019-12-19T08:26:52Z</time>
      </trkpt>
      <trkpt lat="48.5927" lon="1.96487">
        <ele>135.68</ele>
        <time>2019-12-19T08:26:53Z</time>
      </trkpt>
      <trkpt lat="48.59271" lon="1.96487">
        <ele>135.68</ele>
        <time>2019-12-19T08:26:54Z</time>
      </trkpt>
      <trkpt lat="48.59272" lon="1.96486">
        <ele>135.2</ele>
        <time>2019-12-19T08:26:55Z</time>
      </trkpt>
      <trkpt lat="48.59273" lon="1.96486">
        <ele>135.68</ele>
        <time>2019-12-19T08:26:56Z</time>
      </trkpt>
      <trkpt lat="48.59275" lon="1.96486">
        <ele>136.16</ele>
        <time>2019-12-19T08:26:57Z</time>
      </trkpt>
      <trkpt lat="48.59276" lon="1.96486">
        <ele>135.68</ele>
        <time>2019-12-19T08:26:58Z</time>
      </trkpt>
      <trkpt lat="48.59277" lon="1.96486">
        <ele>136.16</ele>
        <time>2019-12-19T08:26:59Z</time>
      </trkpt>
      <trkpt lat="48.59277" lon="1.96486">
        <ele>136.16</ele>
        <time>2019-12-19T08:27:00Z</time>
      </trkpt>
      <trkpt lat="48.59279" lon="1.96485">
        <ele>136.16</ele>
        <time>2019-12-19T08:27:01Z</time>
      </trkpt>
      <trkpt lat="48.5928" lon="1.96485">
        <ele>137.13</ele>
        <time>2019-12-19T08:27:02Z</time>
      </trkpt>
      <trkpt lat="48.59281" lon="1.96484">
        <ele>136.64</ele>
        <time>2019-12-19T08:27:03Z</time>
      </trkpt>
      <trkpt lat="48.59282" lon="1.96484">
        <ele>137.13</ele>
        <time>2019-12-19T08:27:04Z</time>
      </trkpt>
      <trkpt lat="48.59283" lon="1.96484">
        <ele>137.13</ele>
        <time>2019-12-19T08:27:05Z</time>
      </trkpt>
      <trkpt lat="48.59284" lon="1.96484">
        <ele>137.13</ele>
        <time>2019-12-19T08:27:06Z</time>
      </trkpt>
      <trkpt lat="48.59285" lon="1.96483">
        <ele>137.13</ele>
        <time>2019-12-19T08:27:07Z</time>
      </trkpt>
      <trkpt lat="48.59287" lon="1.96483">
        <ele>138.09</ele>
        <time>2019-12-19T08:27:08Z</time>
      </trkpt>
      <trkpt lat="48.59288" lon="1.96482">
        <ele>138.09</ele>
        <time>2019-12-19T08:27:09Z</time>
      </trkpt>
      <trkpt lat="48.59289" lon="1.96482">
        <ele>137.61</ele>
        <time>2019-12-19T08:27:10Z</time>
      </trkpt>
      <trkpt lat="48.5929" lon="1.96482">
        <ele>137.61</ele>
        <time>2019-12-19T08:27:11Z</time>
      </trkpt>
      <trkpt lat="48.59292" lon="1.96482">
        <ele>138.57</ele>
        <time>2019-12-19T08:27:12Z</time>
      </trkpt>
      <trkpt lat="48.59294" lon="1.96483">
        <ele>138.09</ele>
        <time>2019-12-19T08:27:13Z</time>
      </trkpt>
      <trkpt lat="48.59295" lon="1.96483">
        <ele>138.09</ele>
        <time>2019-12-19T08:27:14Z</time>
      </trkpt>
      <trkpt lat="48.59296" lon="1.96484">
        <ele>138.09</ele>
        <time>2019-12-19T08:27:15Z</time>
      </trkpt>
      <trkpt lat="48.59298" lon="1.96485">
        <ele>139.05</ele>
        <time>2019-12-19T08:27:16Z</time>
      </trkpt>
      <trkpt lat="48.59299" lon="1.96485">
        <ele>139.05</ele>
        <time>2019-12-19T08:27:17Z</time>
      </trkpt>
      <trkpt lat="48.593" lon="1.96486">
        <ele>139.05</ele>
        <time>2019-12-19T08:27:18Z</time>
      </trkpt>
      <trkpt lat="48.59302" lon="1.96487">
        <ele>139.05</ele>
        <time>2019-12-19T08:27:19Z</time>
      </trkpt>
      <trkpt lat="48.59303" lon="1.96487">
        <ele>139.53</ele>
        <time>2019-12-19T08:27:20Z</time>
      </trkpt>
      <trkpt lat="48.59305" lon="1.96488">
        <ele>139.53</ele>
        <time>2019-12-19T08:27:21Z</time>
      </trkpt>
      <trkpt lat="48.59306" lon="1.96488">
        <ele>139.05</ele>
        <time>2019-12-19T08:27:22Z</time>
      </trkpt>
      <trkpt lat="48.59308" lon="1.96489">
        <ele>140.01</ele>
        <time>2019-12-19T08:27:23Z</time>
      </trkpt>
      <trkpt lat="48.59308" lon="1.9649">
        <ele>140.01</ele>
        <time>2019-12-19T08:27:24Z</time>
      </trkpt>
      <trkpt lat="48.59309" lon="1.9649">
        <ele>140.01</ele>
        <time>2019-12-19T08:27:25Z</time>
      </trkpt>
      <trkpt lat="48.5931" lon="1.96492">
        <ele>140.01</ele>
        <time>2019-12-19T08:27:26Z</time>
      </trkpt>
      <trkpt lat="48.59311" lon="1.96493">
        <ele>140.97</ele>
        <time>2019-12-19T08:27:27Z</time>
      </trkpt>
      <trkpt lat="48.59312" lon="1.96494">
        <ele>140.49</ele>
        <time>2019-12-19T08:27:28Z</time>
      </trkpt>
      <trkpt lat="48.59314" lon="1.96496">
        <ele>140.49</ele>
        <time>2019-12-19T08:27:29Z</time>
      </trkpt>
      <trkpt lat="48.59315" lon="1.96497">
        <ele>140.49</ele>
        <time>2019-12-19T08:27:30Z</time>
      </trkpt>
      <trkpt lat="48.59316" lon="1.96498">
        <ele>140.01</ele>
        <time>2019-12-19T08:27:31Z</time>
      </trkpt>
      <trkpt lat="48.59318" lon="1.96498">
        <ele>140.97</ele>
        <time>2019-12-19T08:27:32Z</time>
      </trkpt>
      <trkpt lat="48.59319" lon="1.965">
        <ele>140.97</ele>
        <time>2019-12-19T08:27:33Z</time>
      </trkpt>
      <trkpt lat="48.5932" lon="1.96501">
        <ele>140.97</ele>
        <time>2019-12-19T08:27:34Z</time>
      </trkpt>
      <trkpt lat="48.5932" lon="1.96501">
        <ele>140.97</ele>
        <time>2019-12-19T08:27:35Z</time>
      </trkpt>
      <trkpt lat="48.59321" lon="1.96501">
        <ele>140.97</ele>
        <time>2019-12-19T08:27:36Z</time>
      </trkpt>
      <trkpt lat="48.59322" lon="1.96501">
        <ele>140.97</ele>
        <time>2019-12-19T08:27:37Z</time>
      </trkpt>
      <trkpt lat="48.59323" lon="1.96502">
        <ele>140.97</ele>
        <time>2019-12-19T08:27:38Z</time>
      </trkpt>
      <trkpt lat="48.59324" lon="1.96502">
        <ele>140.97</ele>
        <time>2019-12-19T08:27:39Z</time>
      </trkpt>
      <trkpt lat="48.59325" lon="1.96503">
        <ele>141.45</ele>
        <time>2019-12-19T08:27:40Z</time>
      </trkpt>
      <trkpt lat="48.59326" lon="1.96504">
        <ele>140.97</ele>
        <time>2019-12-19T08:27:41Z</time>
      </trkpt>
      <trkpt lat="48.59327" lon="1.96506">
        <ele>140.97</ele>
        <time>2019-12-19T08:27:42Z</time>
      </trkpt>
      <trkpt lat="48.59328" lon="1.96507">
        <ele>140.97</ele>
        <time>2019-12-19T08:27:43Z</time>
      </trkpt>
      <trkpt lat="48.59329" lon="1.96508">
        <ele>140.97</ele>
        <time>2019-12-19T08:27:44Z</time>
      </trkpt>
      <trkpt lat="48.59329" lon="1.96509">
        <ele>141.45</ele>
        <time>2019-12-19T08:27:45Z</time>
      </trkpt>
      <trkpt lat="48.5933" lon="1.9651">
        <ele>140.97</ele>
        <time>2019-12-19T08:27:46Z</time>
      </trkpt>
      <trkpt lat="48.59331" lon="1.9651">
        <ele>140.97</ele>
        <time>2019-12-19T08:27:47Z</time>
      </trkpt>
      <trkpt lat="48.59332" lon="1.96511">
        <ele>141.45</ele>
        <time>2019-12-19T08:27:48Z</time>
      </trkpt>
      <trkpt lat="48.59333" lon="1.96512">
        <ele>141.45</ele>
        <time>2019-12-19T08:27:49Z</time>
      </trkpt>
      <trkpt lat="48.59334" lon="1.96513">
        <ele>141.45</ele>
        <time>2019-12-19T08:27:50Z</time>
      </trkpt>
      <trkpt lat="48.59335" lon="1.96514">
        <ele>141.45</ele>
        <time>2019-12-19T08:27:51Z</time>
      </trkpt>
      <trkpt lat="48.59336" lon="1.96515">
        <ele>141.45</ele>
        <time>2019-12-19T08:27:52Z</time>
      </trkpt>
      <trkpt lat="48.59337" lon="1.96516">
        <ele>140.97</ele>
        <time>2019-12-19T08:27:53Z</time>
      </trkpt>
      <trkpt lat="48.59338" lon="1.96518">
        <ele>140.97</ele>
        <time>2019-12-19T08:27:54Z</time>
      </trkpt>
      <trkpt lat="48.59339" lon="1.96519">
        <ele>141.93</ele>
        <time>2019-12-19T08:27:55Z</time>
      </trkpt>
      <trkpt lat="48.5934" lon="1.96521">
        <ele>141.93</ele>
        <time>2019-12-19T08:27:56Z</time>
      </trkpt>
      <trkpt lat="48.59342" lon="1.96522">
        <ele>141.93</ele>
        <time>2019-12-19T08:27:57Z</time>
      </trkpt>
      <trkpt lat="48.59343" lon="1.96524">
        <ele>141.93</ele>
        <time>2019-12-19T08:27:58Z</time>
      </trkpt>
      <trkpt lat="48.59344" lon="1.96526">
        <ele>142.41</ele>
        <time>2019-12-19T08:27:59Z</time>
      </trkpt>
      <trkpt lat="48.59345" lon="1.96527">
        <ele>141.93</ele>
        <time>2019-12-19T08:28:00Z</time>
      </trkpt>
      <trkpt lat="48.59346" lon="1.96527">
        <ele>141.93</ele>
        <time>2019-12-19T08:28:01Z</time>
      </trkpt>
      <trkpt lat="48.59348" lon="1.96528">
        <ele>141.93</ele>
        <time>2019-12-19T08:28:02Z</time>
      </trkpt>
      <trkpt lat="48.59349" lon="1.96529">
        <ele>141.93</ele>
        <time>2019-12-19T08:28:03Z</time>
      </trkpt>
      <trkpt lat="48.59351" lon="1.9653">
        <ele>142.41</ele>
        <time>2019-12-19T08:28:04Z</time>
      </trkpt>
      <trkpt lat="48.59352" lon="1.96531">
        <ele>142.89</ele>
        <time>2019-12-19T08:28:05Z</time>
      </trkpt>
      <trkpt lat="48.59353" lon="1.96532">
        <ele>142.41</ele>
        <time>2019-12-19T08:28:06Z</time>
      </trkpt>
      <trkpt lat="48.59354" lon="1.96533">
        <ele>142.41</ele>
        <time>2019-12-19T08:28:07Z</time>
      </trkpt>
      <trkpt lat="48.59356" lon="1.96534">
        <ele>142.89</ele>
        <time>2019-12-19T08:28:08Z</time>
      </trkpt>
      <trkpt lat="48.59358" lon="1.96535">
        <ele>142.89</ele>
        <time>2019-12-19T08:28:09Z</time>
      </trkpt>
      <trkpt lat="48.59359" lon="1.96536">
        <ele>142.41</ele>
        <time>2019-12-19T08:28:10Z</time>
      </trkpt>
      <trkpt lat="48.5936" lon="1.96537">
        <ele>142.89</ele>
        <time>2019-12-19T08:28:11Z</time>
      </trkpt>
      <trkpt lat="48.59362" lon="1.96538">
        <ele>142.89</ele>
        <time>2019-12-19T08:28:12Z</time>
      </trkpt>
      <trkpt lat="48.59362" lon="1.96539">
        <ele>143.37</ele>
        <time>2019-12-19T08:28:13Z</time>
      </trkpt>
      <trkpt lat="48.59363" lon="1.9654">
        <ele>143.37</ele>
        <time>2019-12-19T08:28:14Z</time>
      </trkpt>
      <trkpt lat="48.59365" lon="1.96541">
        <ele>143.37</ele>
        <time>2019-12-19T08:28:15Z</time>
      </trkpt>
      <trkpt lat="48.59366" lon="1.96542">
        <ele>143.37</ele>
        <time>2019-12-19T08:28:16Z</time>
      </trkpt>
      <trkpt lat="48.59367" lon="1.96543">
        <ele>143.37</ele>
        <time>2019-12-19T08:28:17Z</time>
      </trkpt>
      <trkpt lat="48.59368" lon="1.96544">
        <ele>143.37</ele>
        <time>2019-12-19T08:28:18Z</time>
      </trkpt>
      <trkpt lat="48.5937" lon="1.96545">
        <ele>143.37</ele>
        <time>2019-12-19T08:28:19Z</time>
      </trkpt>
      <trkpt lat="48.59371" lon="1.96547">
        <ele>143.85</ele>
        <time>2019-12-19T08:28:20Z</time>
      </trkpt>
      <trkpt lat="48.59373" lon="1.96548">
        <ele>143.85</ele>
        <time>2019-12-19T08:28:21Z</time>
      </trkpt>
      <trkpt lat="48.59374" lon="1.96549">
        <ele>144.34</ele>
        <time>2019-12-19T08:28:22Z</time>
      </trkpt>
      <trkpt lat="48.59375" lon="1.9655">
        <ele>144.34</ele>
        <time>2019-12-19T08:28:23Z</time>
      </trkpt>
      <trkpt lat="48.59376" lon="1.9655">
        <ele>144.82</ele>
        <time>2019-12-19T08:28:24Z</time>
      </trkpt>
      <trkpt lat="48.59377" lon="1.96551">
        <ele>144.34</ele>
        <time>2019-12-19T08:28:25Z</time>
      </trkpt>
      <trkpt lat="48.59378" lon="1.96552">
        <ele>144.34</ele>
        <time>2019-12-19T08:28:26Z</time>
      </trkpt>
      <trkpt lat="48.59379" lon="1.96553">
        <ele>144.82</ele>
        <time>2019-12-19T08:28:27Z</time>
      </trkpt>
      <trkpt lat="48.59381" lon="1.96554">
        <ele>145.3</ele>
        <time>2019-12-19T08:28:28Z</time>
      </trkpt>
      <trkpt lat="48.59382" lon="1.96555">
        <ele>145.3</ele>
        <time>2019-12-19T08:28:29Z</time>
      </trkpt>
      <trkpt lat="48.59383" lon="1.96557">
        <ele>145.3</ele>
        <time>2019-12-19T08:28:30Z</time>
      </trkpt>
      <trkpt lat="48.59385" lon="1.96558">
        <ele>145.3</ele>
        <time>2019-12-19T08:28:31Z</time>
      </trkpt>
      <trkpt lat="48.59386" lon="1.9656">
        <ele>145.3</ele>
        <time>2019-12-19T08:28:32Z</time>
      </trkpt>
      <trkpt lat="48.59387" lon="1.96561">
        <ele>145.78</ele>
        <time>2019-12-19T08:28:33Z</time>
      </trkpt>
      <trkpt lat="48.59388" lon="1.96563">
        <ele>146.26</ele>
        <time>2019-12-19T08:28:34Z</time>
      </trkpt>
      <trkpt lat="48.5939" lon="1.96564">
        <ele>146.26</ele>
        <time>2019-12-19T08:28:35Z</time>
      </trkpt>
      <trkpt lat="48.59391" lon="1.96565">
        <ele>145.78</ele>
        <time>2019-12-19T08:28:36Z</time>
      </trkpt>
      <trkpt lat="48.59392" lon="1.96566">
        <ele>146.74</ele>
        <time>2019-12-19T08:28:37Z</time>
      </trkpt>
      <trkpt lat="48.59394" lon="1.96567">
        <ele>146.74</ele>
        <time>2019-12-19T08:28:38Z</time>
      </trkpt>
      <trkpt lat="48.59395" lon="1.96567">
        <ele>146.26</ele>
        <time>2019-12-19T08:28:39Z</time>
      </trkpt>
      <trkpt lat="48.59397" lon="1.96567">
        <ele>146.74</ele>
        <time>2019-12-19T08:28:40Z</time>
      </trkpt>
      <trkpt lat="48.59398" lon="1.96568">
        <ele>146.74</ele>
        <time>2019-12-19T08:28:41Z</time>
      </trkpt>
      <trkpt lat="48.59399" lon="1.96568">
        <ele>146.74</ele>
        <time>2019-12-19T08:28:42Z</time>
      </trkpt>
      <trkpt lat="48.594" lon="1.96569">
        <ele>147.7</ele>
        <time>2019-12-19T08:28:43Z</time>
      </trkpt>
      <trkpt lat="48.59401" lon="1.96569">
        <ele>147.22</ele>
        <time>2019-12-19T08:28:44Z</time>
      </trkpt>
      <trkpt lat="48.59402" lon="1.9657">
        <ele>147.22</ele>
        <time>2019-12-19T08:28:45Z</time>
      </trkpt>
      <trkpt lat="48.59403" lon="1.96571">
        <ele>147.7</ele>
        <time>2019-12-19T08:28:46Z</time>
      </trkpt>
      <trkpt lat="48.59403" lon="1.96572">
        <ele>148.18</ele>
        <time>2019-12-19T08:28:47Z</time>
      </trkpt>
      <trkpt lat="48.59404" lon="1.96573">
        <ele>147.7</ele>
        <time>2019-12-19T08:28:48Z</time>
      </trkpt>
      <trkpt lat="48.59406" lon="1.96574">
        <ele>147.7</ele>
        <time>2019-12-19T08:28:49Z</time>
      </trkpt>
      <trkpt lat="48.59407" lon="1.96575">
        <ele>148.18</ele>
        <time>2019-12-19T08:28:50Z</time>
      </trkpt>
      <trkpt lat="48.59408" lon="1.96577">
        <ele>148.66</ele>
        <time>2019-12-19T08:28:51Z</time>
      </trkpt>
      <trkpt lat="48.59409" lon="1.96578">
        <ele>148.66</ele>
        <time>2019-12-19T08:28:52Z</time>
      </trkpt>
      <trkpt lat="48.5941" lon="1.96579">
        <ele>148.66</ele>
        <time>2019-12-19T08:28:53Z</time>
      </trkpt>
      <trkpt lat="48.59411" lon="1.96581">
        <ele>149.14</ele>
        <time>2019-12-19T08:28:54Z</time>
      </trkpt>
      <trkpt lat="48.59413" lon="1.96582">
        <ele>148.66</ele>
        <time>2019-12-19T08:28:55Z</time>
      </trkpt>
      <trkpt lat="48.59414" lon="1.96583">
        <ele>149.14</ele>
        <time>2019-12-19T08:28:56Z</time>
      </trkpt>
      <trkpt lat="48.59415" lon="1.96584">
        <ele>149.14</ele>
        <time>2019-12-19T08:28:57Z</time>
      </trkpt>
      <trkpt lat="48.59416" lon="1.96585">
        <ele>149.62</ele>
        <time>2019-12-19T08:28:58Z</time>
      </trkpt>
      <trkpt lat="48.59417" lon="1.96586">
        <ele>149.62</ele>
        <time>2019-12-19T08:28:59Z</time>
      </trkpt>
      <trkpt lat="48.59419" lon="1.96587">
        <ele>149.62</ele>
        <time>2019-12-19T08:29:00Z</time>
      </trkpt>
      <trkpt lat="48.5942" lon="1.96588">
        <ele>149.62</ele>
        <time>2019-12-19T08:29:01Z</time>
      </trkpt>
      <trkpt lat="48.59421" lon="1.96589">
        <ele>150.1</ele>
        <time>2019-12-19T08:29:02Z</time>
      </trkpt>
      <trkpt lat="48.59421" lon="1.96591">
        <ele>150.1</ele>
        <time>2019-12-19T08:29:03Z</time>
      </trkpt>
      <trkpt lat="48.59423" lon="1.96592">
        <ele>149.62</ele>
        <time>2019-12-19T08:29:04Z</time>
      </trkpt>
      <trkpt lat="48.59424" lon="1.96593">
        <ele>150.58</ele>
        <time>2019-12-19T08:29:05Z</time>
      </trkpt>
      <trkpt lat="48.59426" lon="1.96593">
        <ele>150.58</ele>
        <time>2019-12-19T08:29:06Z</time>
      </trkpt>
      <trkpt lat="48.59427" lon="1.96594">
        <ele>150.58</ele>
        <time>2019-12-19T08:29:07Z</time>
      </trkpt>
      <trkpt lat="48.59427" lon="1.96594">
        <ele>150.58</ele>
        <time>2019-12-19T08:29:08Z</time>
      </trkpt>
      <trkpt lat="48.59428" lon="1.96594">
        <ele>150.58</ele>
        <time>2019-12-19T08:29:09Z</time>
      </trkpt>
      <trkpt lat="48.5943" lon="1.96594">
        <ele>151.06</ele>
        <time>2019-12-19T08:29:10Z</time>
      </trkpt>
      <trkpt lat="48.5943" lon="1.96594">
        <ele>151.06</ele>
        <time>2019-12-19T08:29:11Z</time>
      </trkpt>
      <trkpt lat="48.5943" lon="1.96595">
        <ele>150.58</ele>
        <time>2019-12-19T08:29:12Z</time>
      </trkpt>
      <trkpt lat="48.59431" lon="1.96595">
        <ele>151.06</ele>
        <time>2019-12-19T08:29:13Z</time>
      </trkpt>
      <trkpt lat="48.59432" lon="1.96596">
        <ele>151.06</ele>
        <time>2019-12-19T08:29:14Z</time>
      </trkpt>
      <trkpt lat="48.59433" lon="1.96597">
        <ele>151.06</ele>
        <time>2019-12-19T08:29:15Z</time>
      </trkpt>
      <trkpt lat="48.59433" lon="1.96597">
        <ele>151.06</ele>
        <time>2019-12-19T08:29:16Z</time>
      </trkpt>
      <trkpt lat="48.59434" lon="1.96597">
        <ele>151.06</ele>
        <time>2019-12-19T08:29:17Z</time>
      </trkpt>
      <trkpt lat="48.59435" lon="1.96598">
        <ele>151.06</ele>
        <time>2019-12-19T08:29:18Z</time>
      </trkpt>
      <trkpt lat="48.59435" lon="1.96598">
        <ele>151.06</ele>
        <time>2019-12-19T08:29:19Z</time>
      </trkpt>
      <trkpt lat="48.59436" lon="1.96599">
        <ele>151.06</ele>
        <time>2019-12-19T08:29:20Z</time>
      </trkpt>
      <trkpt lat="48.59436" lon="1.966">
        <ele>151.06</ele>
        <time>2019-12-19T08:29:21Z</time>
      </trkpt>
      <trkpt lat="48.59436" lon="1.96601">
        <ele>151.06</ele>
        <time>2019-12-19T08:29:25Z</time>
      </trkpt>
      <trkpt lat="48.59436" lon="1.96601">
        <ele>151.54</ele>
        <time>2019-12-19T08:29:26Z</time>
      </trkpt>
      <trkpt lat="48.59436" lon="1.96601">
        <ele>152.51</ele>
        <time>2019-12-19T08:29:27Z</time>
      </trkpt>
      <trkpt lat="48.59436" lon="1.96601">
        <ele>151.06</ele>
        <time>2019-12-19T08:29:31Z</time>
      </trkpt>
      <trkpt lat="48.59436" lon="1.96601">
        <ele>151.06</ele>
        <time>2019-12-19T08:29:32Z</time>
      </trkpt>
      <trkpt lat="48.59436" lon="1.96601">
        <ele>151.54</ele>
        <time>2019-12-19T08:29:33Z</time>
      </trkpt>
      <trkpt lat="48.59437" lon="1.966">
        <ele>151.54</ele>
        <time>2019-12-19T08:29:34Z</time>
      </trkpt>
      <trkpt lat="48.59437" lon="1.96599">
        <ele>151.54</ele>
        <time>2019-12-19T08:29:35Z</time>
      </trkpt>
      <trkpt lat="48.59438" lon="1.96598">
        <ele>151.54</ele>
        <time>2019-12-19T08:29:36Z</time>
      </trkpt>
      <trkpt lat="48.59438" lon="1.96598">
        <ele>151.54</ele>
        <time>2019-12-19T08:29:37Z</time>
      </trkpt>
      <trkpt lat="48.59439" lon="1.96597">
        <ele>151.54</ele>
        <time>2019-12-19T08:29:38Z</time>
      </trkpt>
      <trkpt lat="48.5944" lon="1.96595">
        <ele>151.54</ele>
        <time>2019-12-19T08:29:39Z</time>
      </trkpt>
      <trkpt lat="48.59441" lon="1.96594">
        <ele>151.06</ele>
        <time>2019-12-19T08:29:40Z</time>
      </trkpt>
      <trkpt lat="48.59442" lon="1.96592">
        <ele>151.06</ele>
        <time>2019-12-19T08:29:41Z</time>
      </trkpt>
      <trkpt lat="48.59443" lon="1.96591">
        <ele>150.58</ele>
        <time>2019-12-19T08:29:42Z</time>
      </trkpt>
      <trkpt lat="48.59443" lon="1.96589">
        <ele>150.58</ele>
        <time>2019-12-19T08:29:43Z</time>
      </trkpt>
      <trkpt lat="48.59444" lon="1.96588">
        <ele>150.58</ele>
        <time>2019-12-19T08:29:44Z</time>
      </trkpt>
      <trkpt lat="48.59444" lon="1.96587">
        <ele>151.06</ele>
        <time>2019-12-19T08:29:45Z</time>
      </trkpt>
      <trkpt lat="48.59444" lon="1.96586">
        <ele>151.06</ele>
        <time>2019-12-19T08:29:46Z</time>
      </trkpt>
      <trkpt lat="48.59444" lon="1.96584">
        <ele>151.06</ele>
        <time>2019-12-19T08:29:47Z</time>
      </trkpt>
      <trkpt lat="48.59445" lon="1.96583">
        <ele>151.06</ele>
        <time>2019-12-19T08:29:48Z</time>
      </trkpt>
      <trkpt lat="48.59446" lon="1.96581">
        <ele>150.58</ele>
        <time>2019-12-19T08:29:49Z</time>
      </trkpt>
      <trkpt lat="48.59447" lon="1.96578">
        <ele>151.06</ele>
        <time>2019-12-19T08:29:50Z</time>
      </trkpt>
      <trkpt lat="48.59447" lon="1.96577">
        <ele>151.06</ele>
        <time>2019-12-19T08:29:51Z</time>
      </trkpt>
      <trkpt lat="48.59448" lon="1.96575">
        <ele>150.58</ele>
        <time>2019-12-19T08:29:52Z</time>
      </trkpt>
      <trkpt lat="48.59449" lon="1.96573">
        <ele>150.58</ele>
        <time>2019-12-19T08:29:53Z</time>
      </trkpt>
      <trkpt lat="48.5945" lon="1.96571">
        <ele>150.58</ele>
        <time>2019-12-19T08:29:54Z</time>
      </trkpt>
      <trkpt lat="48.59452" lon="1.96569">
        <ele>150.58</ele>
        <time>2019-12-19T08:29:55Z</time>
      </trkpt>
      <trkpt lat="48.59453" lon="1.96567">
        <ele>151.06</ele>
        <time>2019-12-19T08:29:56Z</time>
      </trkpt>
      <trkpt lat="48.59455" lon="1.96566">
        <ele>151.06</ele>
        <time>2019-12-19T08:29:57Z</time>
      </trkpt>
      <trkpt lat="48.59456" lon="1.96564">
        <ele>151.06</ele>
        <time>2019-12-19T08:29:58Z</time>
      </trkpt>
      <trkpt lat="48.59457" lon="1.96562">
        <ele>151.06</ele>
        <time>2019-12-19T08:29:59Z</time>
      </trkpt>
      <trkpt lat="48.59458" lon="1.9656">
        <ele>151.06</ele>
        <time>2019-12-19T08:30:00Z</time>
      </trkpt>
      <trkpt lat="48.59459" lon="1.96558">
        <ele>151.06</ele>
        <time>2019-12-19T08:30:01Z</time>
      </trkpt>
      <trkpt lat="48.5946" lon="1.96557">
        <ele>151.06</ele>
        <time>2019-12-19T08:30:02Z</time>
      </trkpt>
      <trkpt lat="48.59461" lon="1.96555">
        <ele>151.06</ele>
        <time>2019-12-19T08:30:03Z</time>
      </trkpt>
      <trkpt lat="48.59462" lon="1.96552">
        <ele>151.06</ele>
        <time>2019-12-19T08:30:04Z</time>
      </trkpt>
      <trkpt lat="48.59463" lon="1.9655">
        <ele>151.06</ele>
        <time>2019-12-19T08:30:05Z</time>
      </trkpt>
      <trkpt lat="48.59464" lon="1.96548">
        <ele>151.06</ele>
        <time>2019-12-19T08:30:06Z</time>
      </trkpt>
      <trkpt lat="48.59465" lon="1.96546">
        <ele>151.06</ele>
        <time>2019-12-19T08:30:07Z</time>
      </trkpt>
      <trkpt lat="48.59466" lon="1.96545">
        <ele>151.06</ele>
        <time>2019-12-19T08:30:08Z</time>
      </trkpt>
      <trkpt lat="48.59467" lon="1.96543">
        <ele>151.54</ele>
        <time>2019-12-19T08:30:09Z</time>
      </trkpt>
      <trkpt lat="48.59468" lon="1.9654">
        <ele>151.54</ele>
        <time>2019-12-19T08:30:10Z</time>
      </trkpt>
      <trkpt lat="48.59469" lon="1.96538">
        <ele>151.54</ele>
        <time>2019-12-19T08:30:11Z</time>
      </trkpt>
      <trkpt lat="48.5947" lon="1.96537">
        <ele>151.54</ele>
        <time>2019-12-19T08:30:12Z</time>
      </trkpt>
      <trkpt lat="48.59471" lon="1.96534">
        <ele>151.54</ele>
        <time>2019-12-19T08:30:13Z</time>
      </trkpt>
      <trkpt lat="48.59472" lon="1.96532">
        <ele>151.54</ele>
        <time>2019-12-19T08:30:14Z</time>
      </trkpt>
      <trkpt lat="48.59473" lon="1.9653">
        <ele>151.54</ele>
        <time>2019-12-19T08:30:15Z</time>
      </trkpt>
      <trkpt lat="48.59474" lon="1.96528">
        <ele>152.03</ele>
        <time>2019-12-19T08:30:16Z</time>
      </trkpt>
      <trkpt lat="48.59475" lon="1.96527">
        <ele>152.03</ele>
        <time>2019-12-19T08:30:17Z</time>
      </trkpt>
      <trkpt lat="48.59476" lon="1.96525">
        <ele>151.54</ele>
        <time>2019-12-19T08:30:18Z</time>
      </trkpt>
      <trkpt lat="48.59477" lon="1.96523">
        <ele>152.51</ele>
        <time>2019-12-19T08:30:19Z</time>
      </trkpt>
      <trkpt lat="48.59478" lon="1.96521">
        <ele>152.51</ele>
        <time>2019-12-19T08:30:20Z</time>
      </trkpt>
      <trkpt lat="48.59479" lon="1.96519">
        <ele>152.51</ele>
        <time>2019-12-19T08:30:21Z</time>
      </trkpt>
      <trkpt lat="48.5948" lon="1.96517">
        <ele>152.51</ele>
        <time>2019-12-19T08:30:22Z</time>
      </trkpt>
      <trkpt lat="48.59481" lon="1.96514">
        <ele>152.99</ele>
        <time>2019-12-19T08:30:23Z</time>
      </trkpt>
      <trkpt lat="48.59482" lon="1.96512">
        <ele>152.51</ele>
        <time>2019-12-19T08:30:24Z</time>
      </trkpt>
      <trkpt lat="48.59483" lon="1.9651">
        <ele>152.99</ele>
        <time>2019-12-19T08:30:25Z</time>
      </trkpt>
      <trkpt lat="48.59485" lon="1.96508">
        <ele>152.99</ele>
        <time>2019-12-19T08:30:26Z</time>
      </trkpt>
      <trkpt lat="48.59486" lon="1.96505">
        <ele>153.47</ele>
        <time>2019-12-19T08:30:27Z</time>
      </trkpt>
      <trkpt lat="48.59487" lon="1.96503">
        <ele>153.95</ele>
        <time>2019-12-19T08:30:28Z</time>
      </trkpt>
      <trkpt lat="48.59488" lon="1.96502">
        <ele>153.95</ele>
        <time>2019-12-19T08:30:29Z</time>
      </trkpt>
      <trkpt lat="48.59489" lon="1.965">
        <ele>153.95</ele>
        <time>2019-12-19T08:30:30Z</time>
      </trkpt>
      <trkpt lat="48.5949" lon="1.96498">
        <ele>153.95</ele>
        <time>2019-12-19T08:30:31Z</time>
      </trkpt>
      <trkpt lat="48.59491" lon="1.96496">
        <ele>154.43</ele>
        <time>2019-12-19T08:30:32Z</time>
      </trkpt>
      <trkpt lat="48.59492" lon="1.96494">
        <ele>154.43</ele>
        <time>2019-12-19T08:30:33Z</time>
      </trkpt>
      <trkpt lat="48.59493" lon="1.96492">
        <ele>154.43</ele>
        <time>2019-12-19T08:30:34Z</time>
      </trkpt>
      <trkpt lat="48.59493" lon="1.9649">
        <ele>154.43</ele>
        <time>2019-12-19T08:30:35Z</time>
      </trkpt>
      <trkpt lat="48.59493" lon="1.96488">
        <ele>154.91</ele>
        <time>2019-12-19T08:30:36Z</time>
      </trkpt>
      <trkpt lat="48.59493" lon="1.96487">
        <ele>154.91</ele>
        <time>2019-12-19T08:30:37Z</time>
      </trkpt>
      <trkpt lat="48.59493" lon="1.96487">
        <ele>154.91</ele>
        <time>2019-12-19T08:30:39Z</time>
      </trkpt>
      <trkpt lat="48.59492" lon="1.96487">
        <ele>154.91</ele>
        <time>2019-12-19T08:30:40Z</time>
      </trkpt>
      <trkpt lat="48.59492" lon="1.96487">
        <ele>154.91</ele>
        <time>2019-12-19T08:30:41Z</time>
      </trkpt>
      <trkpt lat="48.59492" lon="1.96487">
        <ele>154.91</ele>
        <time>2019-12-19T08:30:43Z</time>
      </trkpt>
      <trkpt lat="48.59492" lon="1.96487">
        <ele>154.43</ele>
        <time>2019-12-19T08:30:44Z</time>
      </trkpt>
      <trkpt lat="48.59492" lon="1.96487">
        <ele>154.91</ele>
        <time>2019-12-19T08:30:45Z</time>
      </trkpt>
      <trkpt lat="48.59492" lon="1.96487">
        <ele>154.91</ele>
        <time>2019-12-19T08:30:46Z</time>
      </trkpt>
      <trkpt lat="48.59492" lon="1.96487">
        <ele>154.91</ele>
        <time>2019-12-19T08:30:47Z</time>
      </trkpt>
      <trkpt lat="48.59493" lon="1.96485">
        <ele>154.91</ele>
        <time>2019-12-19T08:30:48Z</time>
      </trkpt>
      <trkpt lat="48.59494" lon="1.96484">
        <ele>154.91</ele>
        <time>2019-12-19T08:30:49Z</time>
      </trkpt>
      <trkpt lat="48.59495" lon="1.96482">
        <ele>154.91</ele>
        <time>2019-12-19T08:30:50Z</time>
      </trkpt>
      <trkpt lat="48.59496" lon="1.96481">
        <ele>155.39</ele>
        <time>2019-12-19T08:30:51Z</time>
      </trkpt>
      <trkpt lat="48.59497" lon="1.9648">
        <ele>154.91</ele>
        <time>2019-12-19T08:30:52Z</time>
      </trkpt>
      <trkpt lat="48.59497" lon="1.96479">
        <ele>155.39</ele>
        <time>2019-12-19T08:30:53Z</time>
      </trkpt>
      <trkpt lat="48.59497" lon="1.96477">
        <ele>154.91</ele>
        <time>2019-12-19T08:30:54Z</time>
      </trkpt>
      <trkpt lat="48.59498" lon="1.96477">
        <ele>155.39</ele>
        <time>2019-12-19T08:30:55Z</time>
      </trkpt>
      <trkpt lat="48.59499" lon="1.96476">
        <ele>154.91</ele>
        <time>2019-12-19T08:30:56Z</time>
      </trkpt>
      <trkpt lat="48.595" lon="1.96474">
        <ele>155.39</ele>
        <time>2019-12-19T08:30:57Z</time>
      </trkpt>
      <trkpt lat="48.595" lon="1.96473">
        <ele>155.39</ele>
        <time>2019-12-19T08:30:58Z</time>
      </trkpt>
      <trkpt lat="48.59501" lon="1.96471">
        <ele>155.39</ele>
        <time>2019-12-19T08:30:59Z</time>
      </trkpt>
      <trkpt lat="48.59502" lon="1.9647">
        <ele>154.91</ele>
        <time>2019-12-19T08:31:00Z</time>
      </trkpt>
      <trkpt lat="48.59502" lon="1.96468">
        <ele>155.39</ele>
        <time>2019-12-19T08:31:01Z</time>
      </trkpt>
      <trkpt lat="48.59503" lon="1.96467">
        <ele>155.39</ele>
        <time>2019-12-19T08:31:02Z</time>
      </trkpt>
      <trkpt lat="48.59503" lon="1.96465">
        <ele>155.87</ele>
        <time>2019-12-19T08:31:03Z</time>
      </trkpt>
      <trkpt lat="48.59504" lon="1.96464">
        <ele>155.39</ele>
        <time>2019-12-19T08:31:04Z</time>
      </trkpt>
      <trkpt lat="48.59505" lon="1.96462">
        <ele>155.39</ele>
        <time>2019-12-19T08:31:05Z</time>
      </trkpt>
      <trkpt lat="48.59506" lon="1.96461">
        <ele>155.87</ele>
        <time>2019-12-19T08:31:06Z</time>
      </trkpt>
      <trkpt lat="48.59506" lon="1.96459">
        <ele>155.87</ele>
        <time>2019-12-19T08:31:07Z</time>
      </trkpt>
      <trkpt lat="48.59507" lon="1.96458">
        <ele>155.87</ele>
        <time>2019-12-19T08:31:08Z</time>
      </trkpt>
      <trkpt lat="48.59507" lon="1.96456">
        <ele>155.87</ele>
        <time>2019-12-19T08:31:09Z</time>
      </trkpt>
      <trkpt lat="48.59508" lon="1.96454">
        <ele>155.87</ele>
        <time>2019-12-19T08:31:10Z</time>
      </trkpt>
      <trkpt lat="48.59508" lon="1.96452">
        <ele>156.35</ele>
        <time>2019-12-19T08:31:11Z</time>
      </trkpt>
      <trkpt lat="48.59509" lon="1.9645">
        <ele>156.35</ele>
        <time>2019-12-19T08:31:12Z</time>
      </trkpt>
      <trkpt lat="48.5951" lon="1.96448">
        <ele>156.35</ele>
        <time>2019-12-19T08:31:13Z</time>
      </trkpt>
      <trkpt lat="48.59511" lon="1.96446">
        <ele>156.35</ele>
        <time>2019-12-19T08:31:14Z</time>
      </trkpt>
      <trkpt lat="48.59512" lon="1.96444">
        <ele>156.83</ele>
        <time>2019-12-19T08:31:15Z</time>
      </trkpt>
      <trkpt lat="48.59513" lon="1.96442">
        <ele>157.31</ele>
        <time>2019-12-19T08:31:16Z</time>
      </trkpt>
      <trkpt lat="48.59514" lon="1.9644">
        <ele>157.31</ele>
        <time>2019-12-19T08:31:17Z</time>
      </trkpt>
      <trkpt lat="48.59516" lon="1.96438">
        <ele>157.31</ele>
        <time>2019-12-19T08:31:18Z</time>
      </trkpt>
      <trkpt lat="48.59517" lon="1.96437">
        <ele>158.27</ele>
        <time>2019-12-19T08:31:19Z</time>
      </trkpt>
      <trkpt lat="48.59518" lon="1.96436">
        <ele>157.79</ele>
        <time>2019-12-19T08:31:20Z</time>
      </trkpt>
      <trkpt lat="48.5952" lon="1.96434">
        <ele>157.79</ele>
        <time>2019-12-19T08:31:21Z</time>
      </trkpt>
      <trkpt lat="48.5952" lon="1.96432">
        <ele>157.79</ele>
        <time>2019-12-19T08:31:22Z</time>
      </trkpt>
      <trkpt lat="48.59521" lon="1.96431">
        <ele>157.31</ele>
        <time>2019-12-19T08:31:23Z</time>
      </trkpt>
      <trkpt lat="48.59522" lon="1.96429">
        <ele>158.27</ele>
        <time>2019-12-19T08:31:24Z</time>
      </trkpt>
      <trkpt lat="48.59523" lon="1.96428">
        <ele>158.75</ele>
        <time>2019-12-19T08:31:25Z</time>
      </trkpt>
      <trkpt lat="48.59523" lon="1.96427">
        <ele>158.27</ele>
        <time>2019-12-19T08:31:26Z</time>
      </trkpt>
      <trkpt lat="48.59524" lon="1.96426">
        <ele>159.24</ele>
        <time>2019-12-19T08:31:27Z</time>
      </trkpt>
      <trkpt lat="48.59524" lon="1.96424">
        <ele>158.27</ele>
        <time>2019-12-19T08:31:28Z</time>
      </trkpt>
      <trkpt lat="48.59525" lon="1.96423">
        <ele>158.27</ele>
        <time>2019-12-19T08:31:29Z</time>
      </trkpt>
      <trkpt lat="48.59526" lon="1.96421">
        <ele>158.27</ele>
        <time>2019-12-19T08:31:30Z</time>
      </trkpt>
      <trkpt lat="48.59526" lon="1.9642">
        <ele>158.27</ele>
        <time>2019-12-19T08:31:31Z</time>
      </trkpt>
      <trkpt lat="48.59527" lon="1.96418">
        <ele>158.75</ele>
        <time>2019-12-19T08:31:32Z</time>
      </trkpt>
      <trkpt lat="48.59528" lon="1.96416">
        <ele>158.75</ele>
        <time>2019-12-19T08:31:33Z</time>
      </trkpt>
      <trkpt lat="48.59529" lon="1.96415">
        <ele>158.75</ele>
        <time>2019-12-19T08:31:34Z</time>
      </trkpt>
      <trkpt lat="48.59531" lon="1.96413">
        <ele>158.75</ele>
        <time>2019-12-19T08:31:35Z</time>
      </trkpt>
      <trkpt lat="48.59532" lon="1.96412">
        <ele>158.75</ele>
        <time>2019-12-19T08:31:36Z</time>
      </trkpt>
      <trkpt lat="48.59533" lon="1.9641">
        <ele>158.75</ele>
        <time>2019-12-19T08:31:37Z</time>
      </trkpt>
      <trkpt lat="48.59534" lon="1.96409">
        <ele>159.24</ele>
        <time>2019-12-19T08:31:38Z</time>
      </trkpt>
      <trkpt lat="48.59535" lon="1.96408">
        <ele>159.24</ele>
        <time>2019-12-19T08:31:39Z</time>
      </trkpt>
      <trkpt lat="48.59536" lon="1.96406">
        <ele>159.24</ele>
        <time>2019-12-19T08:31:40Z</time>
      </trkpt>
      <trkpt lat="48.59536" lon="1.96405">
        <ele>159.24</ele>
        <time>2019-12-19T08:31:41Z</time>
      </trkpt>
      <trkpt lat="48.59537" lon="1.96403">
        <ele>159.24</ele>
        <time>2019-12-19T08:31:42Z</time>
      </trkpt>
      <trkpt lat="48.59538" lon="1.96401">
        <ele>159.72</ele>
        <time>2019-12-19T08:31:43Z</time>
      </trkpt>
      <trkpt lat="48.59539" lon="1.96399">
        <ele>159.72</ele>
        <time>2019-12-19T08:31:44Z</time>
      </trkpt>
      <trkpt lat="48.5954" lon="1.96397">
        <ele>159.72</ele>
        <time>2019-12-19T08:31:45Z</time>
      </trkpt>
      <trkpt lat="48.59541" lon="1.96395">
        <ele>159.72</ele>
        <time>2019-12-19T08:31:46Z</time>
      </trkpt>
      <trkpt lat="48.59542" lon="1.96393">
        <ele>160.2</ele>
        <time>2019-12-19T08:31:47Z</time>
      </trkpt>
      <trkpt lat="48.59542" lon="1.96391">
        <ele>160.2</ele>
        <time>2019-12-19T08:31:48Z</time>
      </trkpt>
      <trkpt lat="48.59543" lon="1.96388">
        <ele>160.2</ele>
        <time>2019-12-19T08:31:49Z</time>
      </trkpt>
      <trkpt lat="48.59544" lon="1.96386">
        <ele>160.2</ele>
        <time>2019-12-19T08:31:50Z</time>
      </trkpt>
      <trkpt lat="48.59545" lon="1.96384">
        <ele>160.2</ele>
        <time>2019-12-19T08:31:51Z</time>
      </trkpt>
      <trkpt lat="48.59546" lon="1.96382">
        <ele>160.2</ele>
        <time>2019-12-19T08:31:52Z</time>
      </trkpt>
      <trkpt lat="48.59547" lon="1.9638">
        <ele>160.68</ele>
        <time>2019-12-19T08:31:53Z</time>
      </trkpt>
      <trkpt lat="48.59548" lon="1.96378">
        <ele>160.68</ele>
        <time>2019-12-19T08:31:54Z</time>
      </trkpt>
      <trkpt lat="48.59549" lon="1.96376">
        <ele>160.2</ele>
        <time>2019-12-19T08:31:55Z</time>
      </trkpt>
      <trkpt lat="48.59551" lon="1.96373">
        <ele>160.2</ele>
        <time>2019-12-19T08:31:56Z</time>
      </trkpt>
      <trkpt lat="48.59552" lon="1.96371">
        <ele>160.68</ele>
        <time>2019-12-19T08:31:57Z</time>
      </trkpt>
      <trkpt lat="48.59553" lon="1.96369">
        <ele>160.2</ele>
        <time>2019-12-19T08:31:58Z</time>
      </trkpt>
      <trkpt lat="48.59554" lon="1.96367">
        <ele>160.68</ele>
        <time>2019-12-19T08:31:59Z</time>
      </trkpt>
      <trkpt lat="48.59555" lon="1.96366">
        <ele>160.68</ele>
        <time>2019-12-19T08:32:00Z</time>
      </trkpt>
      <trkpt lat="48.59556" lon="1.96364">
        <ele>160.68</ele>
        <time>2019-12-19T08:32:01Z</time>
      </trkpt>
      <trkpt lat="48.59557" lon="1.96362">
        <ele>160.68</ele>
        <time>2019-12-19T08:32:02Z</time>
      </trkpt>
      <trkpt lat="48.59558" lon="1.96361">
        <ele>160.68</ele>
        <time>2019-12-19T08:32:03Z</time>
      </trkpt>
      <trkpt lat="48.59559" lon="1.96359">
        <ele>161.16</ele>
        <time>2019-12-19T08:32:04Z</time>
      </trkpt>
      <trkpt lat="48.59559" lon="1.96359">
        <ele>160.68</ele>
        <time>2019-12-19T08:32:05Z</time>
      </trkpt>
      <trkpt lat="48.5956" lon="1.96357">
        <ele>161.16</ele>
        <time>2019-12-19T08:32:06Z</time>
      </trkpt>
      <trkpt lat="48.5956" lon="1.96356">
        <ele>161.16</ele>
        <time>2019-12-19T08:32:07Z</time>
      </trkpt>
      <trkpt lat="48.59561" lon="1.96354">
        <ele>161.16</ele>
        <time>2019-12-19T08:32:08Z</time>
      </trkpt>
      <trkpt lat="48.59562" lon="1.96352">
        <ele>161.16</ele>
        <time>2019-12-19T08:32:09Z</time>
      </trkpt>
      <trkpt lat="48.59563" lon="1.9635">
        <ele>161.16</ele>
        <time>2019-12-19T08:32:10Z</time>
      </trkpt>
      <trkpt lat="48.59564" lon="1.96348">
        <ele>161.16</ele>
        <time>2019-12-19T08:32:11Z</time>
      </trkpt>
      <trkpt lat="48.59564" lon="1.96346">
        <ele>161.16</ele>
        <time>2019-12-19T08:32:12Z</time>
      </trkpt>
      <trkpt lat="48.59565" lon="1.96344">
        <ele>161.16</ele>
        <time>2019-12-19T08:32:13Z</time>
      </trkpt>
      <trkpt lat="48.59566" lon="1.96342">
        <ele>161.16</ele>
        <time>2019-12-19T08:32:14Z</time>
      </trkpt>
      <trkpt lat="48.59566" lon="1.9634">
        <ele>161.16</ele>
        <time>2019-12-19T08:32:15Z</time>
      </trkpt>
      <trkpt lat="48.59567" lon="1.96338">
        <ele>161.16</ele>
        <time>2019-12-19T08:32:16Z</time>
      </trkpt>
      <trkpt lat="48.59568" lon="1.96336">
        <ele>161.16</ele>
        <time>2019-12-19T08:32:17Z</time>
      </trkpt>
      <trkpt lat="48.59569" lon="1.96333">
        <ele>160.68</ele>
        <time>2019-12-19T08:32:18Z</time>
      </trkpt>
      <trkpt lat="48.5957" lon="1.96331">
        <ele>160.68</ele>
        <time>2019-12-19T08:32:19Z</time>
      </trkpt>
      <trkpt lat="48.59571" lon="1.96329">
        <ele>160.68</ele>
        <time>2019-12-19T08:32:20Z</time>
      </trkpt>
      <trkpt lat="48.59572" lon="1.96327">
        <ele>160.68</ele>
        <time>2019-12-19T08:32:21Z</time>
      </trkpt>
      <trkpt lat="48.59573" lon="1.96325">
        <ele>160.68</ele>
        <time>2019-12-19T08:32:22Z</time>
      </trkpt>
      <trkpt lat="48.59575" lon="1.96323">
        <ele>160.68</ele>
        <time>2019-12-19T08:32:23Z</time>
      </trkpt>
      <trkpt lat="48.59576" lon="1.96321">
        <ele>160.68</ele>
        <time>2019-12-19T08:32:24Z</time>
      </trkpt>
      <trkpt lat="48.59577" lon="1.96319">
        <ele>160.68</ele>
        <time>2019-12-19T08:32:25Z</time>
      </trkpt>
      <trkpt lat="48.59578" lon="1.96317">
        <ele>160.68</ele>
        <time>2019-12-19T08:32:26Z</time>
      </trkpt>
      <trkpt lat="48.59579" lon="1.96316">
        <ele>161.16</ele>
        <time>2019-12-19T08:32:27Z</time>
      </trkpt>
      <trkpt lat="48.5958" lon="1.96314">
        <ele>161.16</ele>
        <time>2019-12-19T08:32:28Z</time>
      </trkpt>
      <trkpt lat="48.59581" lon="1.96313">
        <ele>161.16</ele>
        <time>2019-12-19T08:32:29Z</time>
      </trkpt>
      <trkpt lat="48.59582" lon="1.96312">
        <ele>161.16</ele>
        <time>2019-12-19T08:32:30Z</time>
      </trkpt>
      <trkpt lat="48.59582" lon="1.96311">
        <ele>161.16</ele>
        <time>2019-12-19T08:32:31Z</time>
      </trkpt>
      <trkpt lat="48.59583" lon="1.9631">
        <ele>161.16</ele>
        <time>2019-12-19T08:32:32Z</time>
      </trkpt>
      <trkpt lat="48.59584" lon="1.96309">
        <ele>161.16</ele>
        <time>2019-12-19T08:32:33Z</time>
      </trkpt>
      <trkpt lat="48.59585" lon="1.96307">
        <ele>161.16</ele>
        <time>2019-12-19T08:32:34Z</time>
      </trkpt>
      <trkpt lat="48.59586" lon="1.96305">
        <ele>161.16</ele>
        <time>2019-12-19T08:32:35Z</time>
      </trkpt>
      <trkpt lat="48.59587" lon="1.96304">
        <ele>160.68</ele>
        <time>2019-12-19T08:32:36Z</time>
      </trkpt>
      <trkpt lat="48.59587" lon="1.96302">
        <ele>160.68</ele>
        <time>2019-12-19T08:32:37Z</time>
      </trkpt>
      <trkpt lat="48.59588" lon="1.963">
        <ele>160.68</ele>
        <time>2019-12-19T08:32:38Z</time>
      </trkpt>
      <trkpt lat="48.59589" lon="1.96298">
        <ele>160.2</ele>
        <time>2019-12-19T08:32:39Z</time>
      </trkpt>
      <trkpt lat="48.59589" lon="1.96296">
        <ele>160.68</ele>
        <time>2019-12-19T08:32:40Z</time>
      </trkpt>
      <trkpt lat="48.5959" lon="1.96294">
        <ele>160.2</ele>
        <time>2019-12-19T08:32:41Z</time>
      </trkpt>
      <trkpt lat="48.5959" lon="1.96292">
        <ele>160.2</ele>
        <time>2019-12-19T08:32:42Z</time>
      </trkpt>
      <trkpt lat="48.59591" lon="1.9629">
        <ele>160.2</ele>
        <time>2019-12-19T08:32:43Z</time>
      </trkpt>
      <trkpt lat="48.59592" lon="1.96288">
        <ele>159.72</ele>
        <time>2019-12-19T08:32:44Z</time>
      </trkpt>
      <trkpt lat="48.59592" lon="1.96286">
        <ele>159.72</ele>
        <time>2019-12-19T08:32:45Z</time>
      </trkpt>
      <trkpt lat="48.59593" lon="1.96284">
        <ele>159.72</ele>
        <time>2019-12-19T08:32:46Z</time>
      </trkpt>
      <trkpt lat="48.59595" lon="1.96282">
        <ele>159.72</ele>
        <time>2019-12-19T08:32:47Z</time>
      </trkpt>
      <trkpt lat="48.59596" lon="1.9628">
        <ele>159.24</ele>
        <time>2019-12-19T08:32:48Z</time>
      </trkpt>
      <trkpt lat="48.59597" lon="1.96278">
        <ele>159.24</ele>
        <time>2019-12-19T08:32:49Z</time>
      </trkpt>
      <trkpt lat="48.59599" lon="1.96276">
        <ele>159.24</ele>
        <time>2019-12-19T08:32:50Z</time>
      </trkpt>
      <trkpt lat="48.596" lon="1.96274">
        <ele>158.75</ele>
        <time>2019-12-19T08:32:51Z</time>
      </trkpt>
      <trkpt lat="48.59601" lon="1.96272">
        <ele>158.75</ele>
        <time>2019-12-19T08:32:52Z</time>
      </trkpt>
      <trkpt lat="48.59602" lon="1.9627">
        <ele>158.75</ele>
        <time>2019-12-19T08:32:53Z</time>
      </trkpt>
      <trkpt lat="48.59603" lon="1.96268">
        <ele>158.75</ele>
        <time>2019-12-19T08:32:54Z</time>
      </trkpt>
      <trkpt lat="48.59603" lon="1.96267">
        <ele>158.75</ele>
        <time>2019-12-19T08:32:55Z</time>
      </trkpt>
      <trkpt lat="48.59604" lon="1.96265">
        <ele>158.27</ele>
        <time>2019-12-19T08:32:56Z</time>
      </trkpt>
      <trkpt lat="48.59605" lon="1.96263">
        <ele>157.79</ele>
        <time>2019-12-19T08:32:57Z</time>
      </trkpt>
      <trkpt lat="48.59606" lon="1.96262">
        <ele>157.79</ele>
        <time>2019-12-19T08:32:58Z</time>
      </trkpt>
      <trkpt lat="48.59606" lon="1.96261">
        <ele>157.79</ele>
        <time>2019-12-19T08:32:59Z</time>
      </trkpt>
      <trkpt lat="48.59607" lon="1.9626">
        <ele>157.79</ele>
        <time>2019-12-19T08:33:00Z</time>
      </trkpt>
      <trkpt lat="48.59607" lon="1.96259">
        <ele>157.31</ele>
        <time>2019-12-19T08:33:01Z</time>
      </trkpt>
      <trkpt lat="48.59608" lon="1.96257">
        <ele>157.31</ele>
        <time>2019-12-19T08:33:02Z</time>
      </trkpt>
      <trkpt lat="48.59608" lon="1.96255">
        <ele>157.31</ele>
        <time>2019-12-19T08:33:03Z</time>
      </trkpt>
      <trkpt lat="48.59608" lon="1.96253">
        <ele>156.83</ele>
        <time>2019-12-19T08:33:04Z</time>
      </trkpt>
      <trkpt lat="48.59608" lon="1.96252">
        <ele>156.83</ele>
        <time>2019-12-19T08:33:05Z</time>
      </trkpt>
      <trkpt lat="48.59609" lon="1.96251">
        <ele>156.83</ele>
        <time>2019-12-19T08:33:06Z</time>
      </trkpt>
      <trkpt lat="48.5961" lon="1.9625">
        <ele>156.35</ele>
        <time>2019-12-19T08:33:07Z</time>
      </trkpt>
      <trkpt lat="48.59611" lon="1.96249">
        <ele>156.35</ele>
        <time>2019-12-19T08:33:08Z</time>
      </trkpt>
      <trkpt lat="48.59612" lon="1.96247">
        <ele>156.35</ele>
        <time>2019-12-19T08:33:09Z</time>
      </trkpt>
      <trkpt lat="48.59612" lon="1.96244">
        <ele>156.35</ele>
        <time>2019-12-19T08:33:10Z</time>
      </trkpt>
      <trkpt lat="48.59613" lon="1.96242">
        <ele>155.87</ele>
        <time>2019-12-19T08:33:11Z</time>
      </trkpt>
      <trkpt lat="48.59613" lon="1.9624">
        <ele>155.87</ele>
        <time>2019-12-19T08:33:12Z</time>
      </trkpt>
      <trkpt lat="48.59614" lon="1.96239">
        <ele>155.39</ele>
        <time>2019-12-19T08:33:13Z</time>
      </trkpt>
      <trkpt lat="48.59614" lon="1.96237">
        <ele>155.39</ele>
        <time>2019-12-19T08:33:14Z</time>
      </trkpt>
      <trkpt lat="48.59615" lon="1.96236">
        <ele>155.39</ele>
        <time>2019-12-19T08:33:15Z</time>
      </trkpt>
      <trkpt lat="48.59615" lon="1.96234">
        <ele>154.91</ele>
        <time>2019-12-19T08:33:16Z</time>
      </trkpt>
      <trkpt lat="48.59616" lon="1.96232">
        <ele>154.43</ele>
        <time>2019-12-19T08:33:17Z</time>
      </trkpt>
      <trkpt lat="48.59617" lon="1.9623">
        <ele>154.43</ele>
        <time>2019-12-19T08:33:18Z</time>
      </trkpt>
      <trkpt lat="48.59618" lon="1.96229">
        <ele>153.95</ele>
        <time>2019-12-19T08:33:19Z</time>
      </trkpt>
      <trkpt lat="48.59619" lon="1.96227">
        <ele>153.95</ele>
        <time>2019-12-19T08:33:20Z</time>
      </trkpt>
      <trkpt lat="48.5962" lon="1.96225">
        <ele>153.47</ele>
        <time>2019-12-19T08:33:21Z</time>
      </trkpt>
      <trkpt lat="48.59621" lon="1.96223">
        <ele>152.99</ele>
        <time>2019-12-19T08:33:22Z</time>
      </trkpt>
      <trkpt lat="48.59622" lon="1.96222">
        <ele>152.99</ele>
        <time>2019-12-19T08:33:23Z</time>
      </trkpt>
      <trkpt lat="48.59623" lon="1.96221">
        <ele>152.51</ele>
        <time>2019-12-19T08:33:24Z</time>
      </trkpt>
      <trkpt lat="48.59624" lon="1.96219">
        <ele>152.03</ele>
        <time>2019-12-19T08:33:25Z</time>
      </trkpt>
      <trkpt lat="48.59625" lon="1.96218">
        <ele>152.03</ele>
        <time>2019-12-19T08:33:26Z</time>
      </trkpt>
      <trkpt lat="48.59626" lon="1.96217">
        <ele>152.51</ele>
        <time>2019-12-19T08:33:27Z</time>
      </trkpt>
      <trkpt lat="48.59626" lon="1.96215">
        <ele>151.06</ele>
        <time>2019-12-19T08:33:28Z</time>
      </trkpt>
      <trkpt lat="48.59627" lon="1.96213">
        <ele>151.06</ele>
        <time>2019-12-19T08:33:29Z</time>
      </trkpt>
      <trkpt lat="48.59628" lon="1.96212">
        <ele>151.06</ele>
        <time>2019-12-19T08:33:30Z</time>
      </trkpt>
      <trkpt lat="48.59629" lon="1.96211">
        <ele>150.58</ele>
        <time>2019-12-19T08:33:31Z</time>
      </trkpt>
      <trkpt lat="48.5963" lon="1.96209">
        <ele>150.58</ele>
        <time>2019-12-19T08:33:32Z</time>
      </trkpt>
      <trkpt lat="48.59631" lon="1.96207">
        <ele>150.1</ele>
        <time>2019-12-19T08:33:33Z</time>
      </trkpt>
      <trkpt lat="48.59632" lon="1.96206">
        <ele>150.1</ele>
        <time>2019-12-19T08:33:34Z</time>
      </trkpt>
      <trkpt lat="48.59633" lon="1.96205">
        <ele>149.62</ele>
        <time>2019-12-19T08:33:35Z</time>
      </trkpt>
      <trkpt lat="48.59633" lon="1.96204">
        <ele>149.62</ele>
        <time>2019-12-19T08:33:36Z</time>
      </trkpt>
      <trkpt lat="48.59634" lon="1.96204">
        <ele>149.14</ele>
        <time>2019-12-19T08:33:37Z</time>
      </trkpt>
      <trkpt lat="48.59635" lon="1.96203">
        <ele>149.14</ele>
        <time>2019-12-19T08:33:38Z</time>
      </trkpt>
      <trkpt lat="48.59636" lon="1.96202">
        <ele>148.66</ele>
        <time>2019-12-19T08:33:39Z</time>
      </trkpt>
      <trkpt lat="48.59636" lon="1.96201">
        <ele>149.14</ele>
        <time>2019-12-19T08:33:40Z</time>
      </trkpt>
      <trkpt lat="48.59636" lon="1.96201">
        <ele>148.66</ele>
        <time>2019-12-19T08:33:41Z</time>
      </trkpt>
      <trkpt lat="48.59636" lon="1.962">
        <ele>148.66</ele>
        <time>2019-12-19T08:33:42Z</time>
      </trkpt>
      <trkpt lat="48.59636" lon="1.96198">
        <ele>148.18</ele>
        <time>2019-12-19T08:33:43Z</time>
      </trkpt>
      <trkpt lat="48.59637" lon="1.96197">
        <ele>148.18</ele>
        <time>2019-12-19T08:33:44Z</time>
      </trkpt>
      <trkpt lat="48.59637" lon="1.96195">
        <ele>147.7</ele>
        <time>2019-12-19T08:33:45Z</time>
      </trkpt>
      <trkpt lat="48.59637" lon="1.96194">
        <ele>147.7</ele>
        <time>2019-12-19T08:33:46Z</time>
      </trkpt>
      <trkpt lat="48.59638" lon="1.96192">
        <ele>147.22</ele>
        <time>2019-12-19T08:33:47Z</time>
      </trkpt>
      <trkpt lat="48.59638" lon="1.96191">
        <ele>147.22</ele>
        <time>2019-12-19T08:33:48Z</time>
      </trkpt>
      <trkpt lat="48.59638" lon="1.9619">
        <ele>146.74</ele>
        <time>2019-12-19T08:33:49Z</time>
      </trkpt>
      <trkpt lat="48.59639" lon="1.96188">
        <ele>146.26</ele>
        <time>2019-12-19T08:33:50Z</time>
      </trkpt>
      <trkpt lat="48.5964" lon="1.96186">
        <ele>146.26</ele>
        <time>2019-12-19T08:33:51Z</time>
      </trkpt>
      <trkpt lat="48.5964" lon="1.96185">
        <ele>146.26</ele>
        <time>2019-12-19T08:33:52Z</time>
      </trkpt>
      <trkpt lat="48.5964" lon="1.96183">
        <ele>145.78</ele>
        <time>2019-12-19T08:33:53Z</time>
      </trkpt>
      <trkpt lat="48.59641" lon="1.96182">
        <ele>145.78</ele>
        <time>2019-12-19T08:33:54Z</time>
      </trkpt>
      <trkpt lat="48.59642" lon="1.9618">
        <ele>145.3</ele>
        <time>2019-12-19T08:33:55Z</time>
      </trkpt>
      <trkpt lat="48.59642" lon="1.9618">
        <ele>145.3</ele>
        <time>2019-12-19T08:33:56Z</time>
      </trkpt>
      <trkpt lat="48.59643" lon="1.96178">
        <ele>144.82</ele>
        <time>2019-12-19T08:33:57Z</time>
      </trkpt>
      <trkpt lat="48.59644" lon="1.96176">
        <ele>144.82</ele>
        <time>2019-12-19T08:33:58Z</time>
      </trkpt>
      <trkpt lat="48.59644" lon="1.96174">
        <ele>144.34</ele>
        <time>2019-12-19T08:33:59Z</time>
      </trkpt>
      <trkpt lat="48.59645" lon="1.96172">
        <ele>144.34</ele>
        <time>2019-12-19T08:34:00Z</time>
      </trkpt>
      <trkpt lat="48.59646" lon="1.9617">
        <ele>143.85</ele>
        <time>2019-12-19T08:34:01Z</time>
      </trkpt>
      <trkpt lat="48.59646" lon="1.96169">
        <ele>143.85</ele>
        <time>2019-12-19T08:34:02Z</time>
      </trkpt>
      <trkpt lat="48.59648" lon="1.96167">
        <ele>143.85</ele>
        <time>2019-12-19T08:34:03Z</time>
      </trkpt>
      <trkpt lat="48.59649" lon="1.96165">
        <ele>143.37</ele>
        <time>2019-12-19T08:34:04Z</time>
      </trkpt>
      <trkpt lat="48.5965" lon="1.96163">
        <ele>143.37</ele>
        <time>2019-12-19T08:34:05Z</time>
      </trkpt>
      <trkpt lat="48.59651" lon="1.96161">
        <ele>142.89</ele>
        <time>2019-12-19T08:34:06Z</time>
      </trkpt>
      <trkpt lat="48.59652" lon="1.96159">
        <ele>142.89</ele>
        <time>2019-12-19T08:34:07Z</time>
      </trkpt>
      <trkpt lat="48.59652" lon="1.96157">
        <ele>142.41</ele>
        <time>2019-12-19T08:34:08Z</time>
      </trkpt>
      <trkpt lat="48.59653" lon="1.96155">
        <ele>142.41</ele>
        <time>2019-12-19T08:34:09Z</time>
      </trkpt>
      <trkpt lat="48.59654" lon="1.96153">
        <ele>141.93</ele>
        <time>2019-12-19T08:34:10Z</time>
      </trkpt>
      <trkpt lat="48.59656" lon="1.96151">
        <ele>141.93</ele>
        <time>2019-12-19T08:34:11Z</time>
      </trkpt>
      <trkpt lat="48.59657" lon="1.96149">
        <ele>141.93</ele>
        <time>2019-12-19T08:34:12Z</time>
      </trkpt>
      <trkpt lat="48.59658" lon="1.96147">
        <ele>141.93</ele>
        <time>2019-12-19T08:34:13Z</time>
      </trkpt>
      <trkpt lat="48.59659" lon="1.96145">
        <ele>141.45</ele>
        <time>2019-12-19T08:34:14Z</time>
      </trkpt>
      <trkpt lat="48.59661" lon="1.96143">
        <ele>141.45</ele>
        <time>2019-12-19T08:34:15Z</time>
      </trkpt>
      <trkpt lat="48.59663" lon="1.96141">
        <ele>140.97</ele>
        <time>2019-12-19T08:34:16Z</time>
      </trkpt>
      <trkpt lat="48.59664" lon="1.96139">
        <ele>140.97</ele>
        <time>2019-12-19T08:34:17Z</time>
      </trkpt>
      <trkpt lat="48.59666" lon="1.96136">
        <ele>140.97</ele>
        <time>2019-12-19T08:34:18Z</time>
      </trkpt>
      <trkpt lat="48.59667" lon="1.96134">
        <ele>140.97</ele>
        <time>2019-12-19T08:34:19Z</time>
      </trkpt>
      <trkpt lat="48.59669" lon="1.96132">
        <ele>140.97</ele>
        <time>2019-12-19T08:34:20Z</time>
      </trkpt>
      <trkpt lat="48.5967" lon="1.9613">
        <ele>140.49</ele>
        <time>2019-12-19T08:34:21Z</time>
      </trkpt>
      <trkpt lat="48.59672" lon="1.96127">
        <ele>140.49</ele>
        <time>2019-12-19T08:34:22Z</time>
      </trkpt>
      <trkpt lat="48.59673" lon="1.96126">
        <ele>140.49</ele>
        <time>2019-12-19T08:34:23Z</time>
      </trkpt>
      <trkpt lat="48.59674" lon="1.96123">
        <ele>140.49</ele>
        <time>2019-12-19T08:34:24Z</time>
      </trkpt>
      <trkpt lat="48.59676" lon="1.96122">
        <ele>140.49</ele>
        <time>2019-12-19T08:34:25Z</time>
      </trkpt>
      <trkpt lat="48.59678" lon="1.9612">
        <ele>140.01</ele>
        <time>2019-12-19T08:34:26Z</time>
      </trkpt>
      <trkpt lat="48.59679" lon="1.96118">
        <ele>140.01</ele>
        <time>2019-12-19T08:34:27Z</time>
      </trkpt>
      <trkpt lat="48.5968" lon="1.96116">
        <ele>140.01</ele>
        <time>2019-12-19T08:34:28Z</time>
      </trkpt>
      <trkpt lat="48.59681" lon="1.96114">
        <ele>140.01</ele>
        <time>2019-12-19T08:34:29Z</time>
      </trkpt>
      <trkpt lat="48.59682" lon="1.96112">
        <ele>139.53</ele>
        <time>2019-12-19T08:34:30Z</time>
      </trkpt>
      <trkpt lat="48.59683" lon="1.9611">
        <ele>139.53</ele>
        <time>2019-12-19T08:34:31Z</time>
      </trkpt>
      <trkpt lat="48.59684" lon="1.96109">
        <ele>139.53</ele>
        <time>2019-12-19T08:34:32Z</time>
      </trkpt>
      <trkpt lat="48.59685" lon="1.96107">
        <ele>139.05</ele>
        <time>2019-12-19T08:34:33Z</time>
      </trkpt>
      <trkpt lat="48.59686" lon="1.96105">
        <ele>139.05</ele>
        <time>2019-12-19T08:34:34Z</time>
      </trkpt>
      <trkpt lat="48.59687" lon="1.96103">
        <ele>139.05</ele>
        <time>2019-12-19T08:34:35Z</time>
      </trkpt>
      <trkpt lat="48.59687" lon="1.96101">
        <ele>138.57</ele>
        <time>2019-12-19T08:34:36Z</time>
      </trkpt>
      <trkpt lat="48.59688" lon="1.96098">
        <ele>138.57</ele>
        <time>2019-12-19T08:34:37Z</time>
      </trkpt>
      <trkpt lat="48.59689" lon="1.96096">
        <ele>138.09</ele>
        <time>2019-12-19T08:34:38Z</time>
      </trkpt>
      <trkpt lat="48.59689" lon="1.96094">
        <ele>138.09</ele>
        <time>2019-12-19T08:34:39Z</time>
      </trkpt>
      <trkpt lat="48.59689" lon="1.96091">
        <ele>137.61</ele>
        <time>2019-12-19T08:34:40Z</time>
      </trkpt>
      <trkpt lat="48.5969" lon="1.96089">
        <ele>137.61</ele>
        <time>2019-12-19T08:34:41Z</time>
      </trkpt>
      <trkpt lat="48.59691" lon="1.96087">
        <ele>137.61</ele>
        <time>2019-12-19T08:34:42Z</time>
      </trkpt>
      <trkpt lat="48.59691" lon="1.96085">
        <ele>137.13</ele>
        <time>2019-12-19T08:34:43Z</time>
      </trkpt>
      <trkpt lat="48.59692" lon="1.96083">
        <ele>137.13</ele>
        <time>2019-12-19T08:34:44Z</time>
      </trkpt>
      <trkpt lat="48.59692" lon="1.96081">
        <ele>137.13</ele>
        <time>2019-12-19T08:34:45Z</time>
      </trkpt>
      <trkpt lat="48.59693" lon="1.9608">
        <ele>136.64</ele>
        <time>2019-12-19T08:34:46Z</time>
      </trkpt>
      <trkpt lat="48.59693" lon="1.96077">
        <ele>136.16</ele>
        <time>2019-12-19T08:34:47Z</time>
      </trkpt>
      <trkpt lat="48.59693" lon="1.96075">
        <ele>136.16</ele>
        <time>2019-12-19T08:34:48Z</time>
      </trkpt>
      <trkpt lat="48.59694" lon="1.96074">
        <ele>136.16</ele>
        <time>2019-12-19T08:34:49Z</time>
      </trkpt>
      <trkpt lat="48.59694" lon="1.96073">
        <ele>136.16</ele>
        <time>2019-12-19T08:34:50Z</time>
      </trkpt>
      <trkpt lat="48.59695" lon="1.96072">
        <ele>135.68</ele>
        <time>2019-12-19T08:34:51Z</time>
      </trkpt>
      <trkpt lat="48.59696" lon="1.96071">
        <ele>135.68</ele>
        <time>2019-12-19T08:34:52Z</time>
      </trkpt>
      <trkpt lat="48.59696" lon="1.9607">
        <ele>135.68</ele>
        <time>2019-12-19T08:34:53Z</time>
      </trkpt>
      <trkpt lat="48.59697" lon="1.9607">
        <ele>135.68</ele>
        <time>2019-12-19T08:34:54Z</time>
      </trkpt>
      <trkpt lat="48.59697" lon="1.96067">
        <ele>135.2</ele>
        <time>2019-12-19T08:34:55Z</time>
      </trkpt>
      <trkpt lat="48.59697" lon="1.96065">
        <ele>134.72</ele>
        <time>2019-12-19T08:34:56Z</time>
      </trkpt>
      <trkpt lat="48.59698" lon="1.96063">
        <ele>134.72</ele>
        <time>2019-12-19T08:34:57Z</time>
      </trkpt>
      <trkpt lat="48.59699" lon="1.96061">
        <ele>134.24</ele>
        <time>2019-12-19T08:34:58Z</time>
      </trkpt>
      <trkpt lat="48.597" lon="1.96059">
        <ele>134.24</ele>
        <time>2019-12-19T08:34:59Z</time>
      </trkpt>
      <trkpt lat="48.597" lon="1.96057">
        <ele>134.24</ele>
        <time>2019-12-19T08:35:00Z</time>
      </trkpt>
      <trkpt lat="48.59701" lon="1.96056">
        <ele>134.24</ele>
        <time>2019-12-19T08:35:01Z</time>
      </trkpt>
      <trkpt lat="48.59702" lon="1.96053">
        <ele>134.24</ele>
        <time>2019-12-19T08:35:02Z</time>
      </trkpt>
      <trkpt lat="48.59703" lon="1.96051">
        <ele>133.76</ele>
        <time>2019-12-19T08:35:03Z</time>
      </trkpt>
      <trkpt lat="48.59704" lon="1.96049">
        <ele>133.76</ele>
        <time>2019-12-19T08:35:04Z</time>
      </trkpt>
      <trkpt lat="48.59705" lon="1.96048">
        <ele>133.76</ele>
        <time>2019-12-19T08:35:05Z</time>
      </trkpt>
      <trkpt lat="48.59705" lon="1.96046">
        <ele>133.76</ele>
        <time>2019-12-19T08:35:06Z</time>
      </trkpt>
      <trkpt lat="48.59706" lon="1.96044">
        <ele>133.76</ele>
        <time>2019-12-19T08:35:07Z</time>
      </trkpt>
      <trkpt lat="48.59707" lon="1.96042">
        <ele>133.76</ele>
        <time>2019-12-19T08:35:08Z</time>
      </trkpt>
      <trkpt lat="48.59708" lon="1.9604">
        <ele>133.76</ele>
        <time>2019-12-19T08:35:09Z</time>
      </trkpt>
      <trkpt lat="48.59709" lon="1.96038">
        <ele>133.76</ele>
        <time>2019-12-19T08:35:10Z</time>
      </trkpt>
      <trkpt lat="48.5971" lon="1.96036">
        <ele>133.76</ele>
        <time>2019-12-19T08:35:11Z</time>
      </trkpt>
      <trkpt lat="48.5971" lon="1.96034">
        <ele>133.28</ele>
        <time>2019-12-19T08:35:12Z</time>
      </trkpt>
      <trkpt lat="48.59711" lon="1.96033">
        <ele>133.76</ele>
        <time>2019-12-19T08:35:13Z</time>
      </trkpt>
      <trkpt lat="48.59712" lon="1.9603">
        <ele>133.76</ele>
        <time>2019-12-19T08:35:14Z</time>
      </trkpt>
      <trkpt lat="48.59713" lon="1.96028">
        <ele>133.28</ele>
        <time>2019-12-19T08:35:15Z</time>
      </trkpt>
      <trkpt lat="48.59715" lon="1.96026">
        <ele>133.28</ele>
        <time>2019-12-19T08:35:16Z</time>
      </trkpt>
      <trkpt lat="48.59715" lon="1.96024">
        <ele>133.28</ele>
        <time>2019-12-19T08:35:17Z</time>
      </trkpt>
      <trkpt lat="48.59716" lon="1.96022">
        <ele>133.28</ele>
        <time>2019-12-19T08:35:18Z</time>
      </trkpt>
      <trkpt lat="48.59717" lon="1.96021">
        <ele>133.28</ele>
        <time>2019-12-19T08:35:19Z</time>
      </trkpt>
      <trkpt lat="48.59718" lon="1.9602">
        <ele>133.28</ele>
        <time>2019-12-19T08:35:20Z</time>
      </trkpt>
      <trkpt lat="48.59719" lon="1.96019">
        <ele>132.8</ele>
        <time>2019-12-19T08:35:21Z</time>
      </trkpt>
      <trkpt lat="48.5972" lon="1.96017">
        <ele>132.8</ele>
        <time>2019-12-19T08:35:22Z</time>
      </trkpt>
      <trkpt lat="48.5972" lon="1.96016">
        <ele>132.8</ele>
        <time>2019-12-19T08:35:23Z</time>
      </trkpt>
      <trkpt lat="48.59721" lon="1.96014">
        <ele>132.8</ele>
        <time>2019-12-19T08:35:24Z</time>
      </trkpt>
      <trkpt lat="48.59722" lon="1.96011">
        <ele>132.8</ele>
        <time>2019-12-19T08:35:25Z</time>
      </trkpt>
      <trkpt lat="48.59723" lon="1.96009">
        <ele>132.8</ele>
        <time>2019-12-19T08:35:26Z</time>
      </trkpt>
      <trkpt lat="48.59723" lon="1.96007">
        <ele>132.8</ele>
        <time>2019-12-19T08:35:27Z</time>
      </trkpt>
      <trkpt lat="48.59724" lon="1.96004">
        <ele>133.76</ele>
        <time>2019-12-19T08:35:28Z</time>
      </trkpt>
      <trkpt lat="48.59724" lon="1.96003">
        <ele>132.8</ele>
        <time>2019-12-19T08:35:29Z</time>
      </trkpt>
      <trkpt lat="48.59725" lon="1.96002">
        <ele>132.8</ele>
        <time>2019-12-19T08:35:30Z</time>
      </trkpt>
      <trkpt lat="48.59726" lon="1.96">
        <ele>132.8</ele>
        <time>2019-12-19T08:35:31Z</time>
      </trkpt>
      <trkpt lat="48.59726" lon="1.95999">
        <ele>132.32</ele>
        <time>2019-12-19T08:35:32Z</time>
      </trkpt>
      <trkpt lat="48.59727" lon="1.95997">
        <ele>132.32</ele>
        <time>2019-12-19T08:35:33Z</time>
      </trkpt>
      <trkpt lat="48.59728" lon="1.95996">
        <ele>132.32</ele>
        <time>2019-12-19T08:35:34Z</time>
      </trkpt>
      <trkpt lat="48.59728" lon="1.95994">
        <ele>132.32</ele>
        <time>2019-12-19T08:35:35Z</time>
      </trkpt>
      <trkpt lat="48.59729" lon="1.95993">
        <ele>132.32</ele>
        <time>2019-12-19T08:35:36Z</time>
      </trkpt>
      <trkpt lat="48.5973" lon="1.95992">
        <ele>132.32</ele>
        <time>2019-12-19T08:35:37Z</time>
      </trkpt>
      <trkpt lat="48.59731" lon="1.95991">
        <ele>131.84</ele>
        <time>2019-12-19T08:35:38Z</time>
      </trkpt>
      <trkpt lat="48.59731" lon="1.95989">
        <ele>131.84</ele>
        <time>2019-12-19T08:35:39Z</time>
      </trkpt>
      <trkpt lat="48.59732" lon="1.95987">
        <ele>131.84</ele>
        <time>2019-12-19T08:35:40Z</time>
      </trkpt>
      <trkpt lat="48.59733" lon="1.95985">
        <ele>131.84</ele>
        <time>2019-12-19T08:35:41Z</time>
      </trkpt>
      <trkpt lat="48.59734" lon="1.95983">
        <ele>131.84</ele>
        <time>2019-12-19T08:35:42Z</time>
      </trkpt>
      <trkpt lat="48.59736" lon="1.95981">
        <ele>131.36</ele>
        <time>2019-12-19T08:35:43Z</time>
      </trkpt>
      <trkpt lat="48.59737" lon="1.95977">
        <ele>131.36</ele>
        <time>2019-12-19T08:35:44Z</time>
      </trkpt>
      <trkpt lat="48.59738" lon="1.95973">
        <ele>131.36</ele>
        <time>2019-12-19T08:35:45Z</time>
      </trkpt>
      <trkpt lat="48.59739" lon="1.9597">
        <ele>131.84</ele>
        <time>2019-12-19T08:35:46Z</time>
      </trkpt>
      <trkpt lat="48.59741" lon="1.95966">
        <ele>131.36</ele>
        <time>2019-12-19T08:35:47Z</time>
      </trkpt>
      <trkpt lat="48.59742" lon="1.95963">
        <ele>131.36</ele>
        <time>2019-12-19T08:35:48Z</time>
      </trkpt>
      <trkpt lat="48.59744" lon="1.9596">
        <ele>131.36</ele>
        <time>2019-12-19T08:35:49Z</time>
      </trkpt>
      <trkpt lat="48.59746" lon="1.95958">
        <ele>131.36</ele>
        <time>2019-12-19T08:35:50Z</time>
      </trkpt>
      <trkpt lat="48.59747" lon="1.95956">
        <ele>131.36</ele>
        <time>2019-12-19T08:35:51Z</time>
      </trkpt>
      <trkpt lat="48.59749" lon="1.95954">
        <ele>131.36</ele>
        <time>2019-12-19T08:35:52Z</time>
      </trkpt>
      <trkpt lat="48.5975" lon="1.95952">
        <ele>130.88</ele>
        <time>2019-12-19T08:35:53Z</time>
      </trkpt>
      <trkpt lat="48.59751" lon="1.9595">
        <ele>130.88</ele>
        <time>2019-12-19T08:35:54Z</time>
      </trkpt>
      <trkpt lat="48.59752" lon="1.95948">
        <ele>130.88</ele>
        <time>2019-12-19T08:35:55Z</time>
      </trkpt>
      <trkpt lat="48.59754" lon="1.95946">
        <ele>130.4</ele>
        <time>2019-12-19T08:35:56Z</time>
      </trkpt>
      <trkpt lat="48.59755" lon="1.95944">
        <ele>130.4</ele>
        <time>2019-12-19T08:35:57Z</time>
      </trkpt>
      <trkpt lat="48.59756" lon="1.95941">
        <ele>130.4</ele>
        <time>2019-12-19T08:35:58Z</time>
      </trkpt>
      <trkpt lat="48.59758" lon="1.95939">
        <ele>130.4</ele>
        <time>2019-12-19T08:35:59Z</time>
      </trkpt>
      <trkpt lat="48.59759" lon="1.95936">
        <ele>130.4</ele>
        <time>2019-12-19T08:36:00Z</time>
      </trkpt>
      <trkpt lat="48.5976" lon="1.95934">
        <ele>130.4</ele>
        <time>2019-12-19T08:36:01Z</time>
      </trkpt>
      <trkpt lat="48.59761" lon="1.95931">
        <ele>130.4</ele>
        <time>2019-12-19T08:36:02Z</time>
      </trkpt>
      <trkpt lat="48.59762" lon="1.95929">
        <ele>130.4</ele>
        <time>2019-12-19T08:36:03Z</time>
      </trkpt>
      <trkpt lat="48.59764" lon="1.95927">
        <ele>129.92</ele>
        <time>2019-12-19T08:36:04Z</time>
      </trkpt>
      <trkpt lat="48.59765" lon="1.95924">
        <ele>129.92</ele>
        <time>2019-12-19T08:36:05Z</time>
      </trkpt>
      <trkpt lat="48.59766" lon="1.95921">
        <ele>129.92</ele>
        <time>2019-12-19T08:36:06Z</time>
      </trkpt>
      <trkpt lat="48.59768" lon="1.95919">
        <ele>129.43</ele>
        <time>2019-12-19T08:36:07Z</time>
      </trkpt>
      <trkpt lat="48.59769" lon="1.95917">
        <ele>129.43</ele>
        <time>2019-12-19T08:36:08Z</time>
      </trkpt>
      <trkpt lat="48.59771" lon="1.95914">
        <ele>129.43</ele>
        <time>2019-12-19T08:36:09Z</time>
      </trkpt>
      <trkpt lat="48.59772" lon="1.95911">
        <ele>129.43</ele>
        <time>2019-12-19T08:36:10Z</time>
      </trkpt>
      <trkpt lat="48.59773" lon="1.95908">
        <ele>129.43</ele>
        <time>2019-12-19T08:36:11Z</time>
      </trkpt>
      <trkpt lat="48.59775" lon="1.95906">
        <ele>129.43</ele>
        <time>2019-12-19T08:36:12Z</time>
      </trkpt>
      <trkpt lat="48.59776" lon="1.95903">
        <ele>128.95</ele>
        <time>2019-12-19T08:36:13Z</time>
      </trkpt>
      <trkpt lat="48.59777" lon="1.95901">
        <ele>128.95</ele>
        <time>2019-12-19T08:36:14Z</time>
      </trkpt>
      <trkpt lat="48.59778" lon="1.95899">
        <ele>129.43</ele>
        <time>2019-12-19T08:36:15Z</time>
      </trkpt>
      <trkpt lat="48.59778" lon="1.95898">
        <ele>128.95</ele>
        <time>2019-12-19T08:36:16Z</time>
      </trkpt>
      <trkpt lat="48.59779" lon="1.95896">
        <ele>128.95</ele>
        <time>2019-12-19T08:36:17Z</time>
      </trkpt>
      <trkpt lat="48.5978" lon="1.95893">
        <ele>128.95</ele>
        <time>2019-12-19T08:36:18Z</time>
      </trkpt>
      <trkpt lat="48.59781" lon="1.95891">
        <ele>128.95</ele>
        <time>2019-12-19T08:36:19Z</time>
      </trkpt>
      <trkpt lat="48.59782" lon="1.95888">
        <ele>128.95</ele>
        <time>2019-12-19T08:36:20Z</time>
      </trkpt>
      <trkpt lat="48.59782" lon="1.95885">
        <ele>128.95</ele>
        <time>2019-12-19T08:36:21Z</time>
      </trkpt>
      <trkpt lat="48.59783" lon="1.95883">
        <ele>128.47</ele>
        <time>2019-12-19T08:36:22Z</time>
      </trkpt>
      <trkpt lat="48.59784" lon="1.95881">
        <ele>128.47</ele>
        <time>2019-12-19T08:36:23Z</time>
      </trkpt>
      <trkpt lat="48.59786" lon="1.95879">
        <ele>128.47</ele>
        <time>2019-12-19T08:36:24Z</time>
      </trkpt>
      <trkpt lat="48.59786" lon="1.95877">
        <ele>128.47</ele>
        <time>2019-12-19T08:36:25Z</time>
      </trkpt>
      <trkpt lat="48.59787" lon="1.95875">
        <ele>128.47</ele>
        <time>2019-12-19T08:36:26Z</time>
      </trkpt>
      <trkpt lat="48.59789" lon="1.95873">
        <ele>128.47</ele>
        <time>2019-12-19T08:36:27Z</time>
      </trkpt>
      <trkpt lat="48.5979" lon="1.95871">
        <ele>128.47</ele>
        <time>2019-12-19T08:36:28Z</time>
      </trkpt>
      <trkpt lat="48.59791" lon="1.95869">
        <ele>128.47</ele>
        <time>2019-12-19T08:36:29Z</time>
      </trkpt>
      <trkpt lat="48.59793" lon="1.95867">
        <ele>128.47</ele>
        <time>2019-12-19T08:36:30Z</time>
      </trkpt>
      <trkpt lat="48.59794" lon="1.95866">
        <ele>128.47</ele>
        <time>2019-12-19T08:36:31Z</time>
      </trkpt>
      <trkpt lat="48.59795" lon="1.95864">
        <ele>128.47</ele>
        <time>2019-12-19T08:36:32Z</time>
      </trkpt>
      <trkpt lat="48.59796" lon="1.95863">
        <ele>127.99</ele>
        <time>2019-12-19T08:36:33Z</time>
      </trkpt>
      <trkpt lat="48.59797" lon="1.95861">
        <ele>127.99</ele>
        <time>2019-12-19T08:36:34Z</time>
      </trkpt>
      <trkpt lat="48.59798" lon="1.95859">
        <ele>127.99</ele>
        <time>2019-12-19T08:36:35Z</time>
      </trkpt>
      <trkpt lat="48.59799" lon="1.95857">
        <ele>127.99</ele>
        <time>2019-12-19T08:36:36Z</time>
      </trkpt>
      <trkpt lat="48.59799" lon="1.95855">
        <ele>127.99</ele>
        <time>2019-12-19T08:36:37Z</time>
      </trkpt>
      <trkpt lat="48.59799" lon="1.95853">
        <ele>127.99</ele>
        <time>2019-12-19T08:36:38Z</time>
      </trkpt>
      <trkpt lat="48.598" lon="1.95852">
        <ele>127.99</ele>
        <time>2019-12-19T08:36:39Z</time>
      </trkpt>
      <trkpt lat="48.598" lon="1.9585">
        <ele>127.99</ele>
        <time>2019-12-19T08:36:40Z</time>
      </trkpt>
      <trkpt lat="48.598" lon="1.95849">
        <ele>127.99</ele>
        <time>2019-12-19T08:36:41Z</time>
      </trkpt>
      <trkpt lat="48.59801" lon="1.95846">
        <ele>127.99</ele>
        <time>2019-12-19T08:36:42Z</time>
      </trkpt>
      <trkpt lat="48.59801" lon="1.95844">
        <ele>127.99</ele>
        <time>2019-12-19T08:36:43Z</time>
      </trkpt>
      <trkpt lat="48.59801" lon="1.95843">
        <ele>127.99</ele>
        <time>2019-12-19T08:36:44Z</time>
      </trkpt>
      <trkpt lat="48.59802" lon="1.95841">
        <ele>127.99</ele>
        <time>2019-12-19T08:36:45Z</time>
      </trkpt>
      <trkpt lat="48.59802" lon="1.95839">
        <ele>127.99</ele>
        <time>2019-12-19T08:36:46Z</time>
      </trkpt>
      <trkpt lat="48.59803" lon="1.95838">
        <ele>127.99</ele>
        <time>2019-12-19T08:36:47Z</time>
      </trkpt>
      <trkpt lat="48.59804" lon="1.95837">
        <ele>127.99</ele>
        <time>2019-12-19T08:36:48Z</time>
      </trkpt>
      <trkpt lat="48.59805" lon="1.95835">
        <ele>127.99</ele>
        <time>2019-12-19T08:36:49Z</time>
      </trkpt>
      <trkpt lat="48.59806" lon="1.95833">
        <ele>127.51</ele>
        <time>2019-12-19T08:36:50Z</time>
      </trkpt>
      <trkpt lat="48.59806" lon="1.95831">
        <ele>127.51</ele>
        <time>2019-12-19T08:36:51Z</time>
      </trkpt>
      <trkpt lat="48.59807" lon="1.9583">
        <ele>127.51</ele>
        <time>2019-12-19T08:36:52Z</time>
      </trkpt>
      <trkpt lat="48.59808" lon="1.95828">
        <ele>127.99</ele>
        <time>2019-12-19T08:36:53Z</time>
      </trkpt>
      <trkpt lat="48.59809" lon="1.95826">
        <ele>127.51</ele>
        <time>2019-12-19T08:36:54Z</time>
      </trkpt>
      <trkpt lat="48.59809" lon="1.95825">
        <ele>127.51</ele>
        <time>2019-12-19T08:36:55Z</time>
      </trkpt>
      <trkpt lat="48.5981" lon="1.95824">
        <ele>127.51</ele>
        <time>2019-12-19T08:36:56Z</time>
      </trkpt>
      <trkpt lat="48.59811" lon="1.95822">
        <ele>127.51</ele>
        <time>2019-12-19T08:36:57Z</time>
      </trkpt>
      <trkpt lat="48.59812" lon="1.95821">
        <ele>127.51</ele>
        <time>2019-12-19T08:36:58Z</time>
      </trkpt>
      <trkpt lat="48.59813" lon="1.95819">
        <ele>127.51</ele>
        <time>2019-12-19T08:36:59Z</time>
      </trkpt>
      <trkpt lat="48.59814" lon="1.95817">
        <ele>127.51</ele>
        <time>2019-12-19T08:37:00Z</time>
      </trkpt>
      <trkpt lat="48.59815" lon="1.95815">
        <ele>127.51</ele>
        <time>2019-12-19T08:37:01Z</time>
      </trkpt>
      <trkpt lat="48.59816" lon="1.95814">
        <ele>127.03</ele>
        <time>2019-12-19T08:37:02Z</time>
      </trkpt>
      <trkpt lat="48.59817" lon="1.95813">
        <ele>127.03</ele>
        <time>2019-12-19T08:37:03Z</time>
      </trkpt>
      <trkpt lat="48.59817" lon="1.95811">
        <ele>127.03</ele>
        <time>2019-12-19T08:37:04Z</time>
      </trkpt>
      <trkpt lat="48.59819" lon="1.95808">
        <ele>127.03</ele>
        <time>2019-12-19T08:37:05Z</time>
      </trkpt>
      <trkpt lat="48.5982" lon="1.95806">
        <ele>127.03</ele>
        <time>2019-12-19T08:37:06Z</time>
      </trkpt>
      <trkpt lat="48.5982" lon="1.95805">
        <ele>127.03</ele>
        <time>2019-12-19T08:37:07Z</time>
      </trkpt>
      <trkpt lat="48.59821" lon="1.95803">
        <ele>127.03</ele>
        <time>2019-12-19T08:37:08Z</time>
      </trkpt>
      <trkpt lat="48.59821" lon="1.95801">
        <ele>127.03</ele>
        <time>2019-12-19T08:37:09Z</time>
      </trkpt>
      <trkpt lat="48.59822" lon="1.95798">
        <ele>127.03</ele>
        <time>2019-12-19T08:37:10Z</time>
      </trkpt>
      <trkpt lat="48.59822" lon="1.95796">
        <ele>127.03</ele>
        <time>2019-12-19T08:37:11Z</time>
      </trkpt>
      <trkpt lat="48.59823" lon="1.95795">
        <ele>126.55</ele>
        <time>2019-12-19T08:37:12Z</time>
      </trkpt>
      <trkpt lat="48.59825" lon="1.95793">
        <ele>127.03</ele>
        <time>2019-12-19T08:37:13Z</time>
      </trkpt>
      <trkpt lat="48.59825" lon="1.95791">
        <ele>127.03</ele>
        <time>2019-12-19T08:37:14Z</time>
      </trkpt>
      <trkpt lat="48.59826" lon="1.9579">
        <ele>127.03</ele>
        <time>2019-12-19T08:37:15Z</time>
      </trkpt>
      <trkpt lat="48.59826" lon="1.95789">
        <ele>126.55</ele>
        <time>2019-12-19T08:37:16Z</time>
      </trkpt>
      <trkpt lat="48.59827" lon="1.95788">
        <ele>126.55</ele>
        <time>2019-12-19T08:37:17Z</time>
      </trkpt>
      <trkpt lat="48.59828" lon="1.95787">
        <ele>126.55</ele>
        <time>2019-12-19T08:37:18Z</time>
      </trkpt>
      <trkpt lat="48.59829" lon="1.95786">
        <ele>126.55</ele>
        <time>2019-12-19T08:37:19Z</time>
      </trkpt>
      <trkpt lat="48.5983" lon="1.95785">
        <ele>126.55</ele>
        <time>2019-12-19T08:37:20Z</time>
      </trkpt>
      <trkpt lat="48.59831" lon="1.95784">
        <ele>126.07</ele>
        <time>2019-12-19T08:37:21Z</time>
      </trkpt>
      <trkpt lat="48.59833" lon="1.95783">
        <ele>126.07</ele>
        <time>2019-12-19T08:37:22Z</time>
      </trkpt>
      <trkpt lat="48.59834" lon="1.95781">
        <ele>126.07</ele>
        <time>2019-12-19T08:37:23Z</time>
      </trkpt>
      <trkpt lat="48.59834" lon="1.95779">
        <ele>126.07</ele>
        <time>2019-12-19T08:37:24Z</time>
      </trkpt>
      <trkpt lat="48.59835" lon="1.95778">
        <ele>126.07</ele>
        <time>2019-12-19T08:37:25Z</time>
      </trkpt>
      <trkpt lat="48.59836" lon="1.95777">
        <ele>126.07</ele>
        <time>2019-12-19T08:37:26Z</time>
      </trkpt>
      <trkpt lat="48.59837" lon="1.95775">
        <ele>126.07</ele>
        <time>2019-12-19T08:37:27Z</time>
      </trkpt>
      <trkpt lat="48.59838" lon="1.95773">
        <ele>127.03</ele>
        <time>2019-12-19T08:37:28Z</time>
      </trkpt>
      <trkpt lat="48.59839" lon="1.95771">
        <ele>125.59</ele>
        <time>2019-12-19T08:37:29Z</time>
      </trkpt>
      <trkpt lat="48.59841" lon="1.9577">
        <ele>125.59</ele>
        <time>2019-12-19T08:37:30Z</time>
      </trkpt>
      <trkpt lat="48.59842" lon="1.95768">
        <ele>125.59</ele>
        <time>2019-12-19T08:37:31Z</time>
      </trkpt>
      <trkpt lat="48.59843" lon="1.95766">
        <ele>125.59</ele>
        <time>2019-12-19T08:37:32Z</time>
      </trkpt>
      <trkpt lat="48.59843" lon="1.95764">
        <ele>125.59</ele>
        <time>2019-12-19T08:37:33Z</time>
      </trkpt>
      <trkpt lat="48.59844" lon="1.95761">
        <ele>125.59</ele>
        <time>2019-12-19T08:37:34Z</time>
      </trkpt>
      <trkpt lat="48.59845" lon="1.9576">
        <ele>125.59</ele>
        <time>2019-12-19T08:37:35Z</time>
      </trkpt>
      <trkpt lat="48.59846" lon="1.95758">
        <ele>125.59</ele>
        <time>2019-12-19T08:37:36Z</time>
      </trkpt>
      <trkpt lat="48.59846" lon="1.95757">
        <ele>125.11</ele>
        <time>2019-12-19T08:37:37Z</time>
      </trkpt>
      <trkpt lat="48.59847" lon="1.95755">
        <ele>125.11</ele>
        <time>2019-12-19T08:37:38Z</time>
      </trkpt>
      <trkpt lat="48.59848" lon="1.95753">
        <ele>125.59</ele>
        <time>2019-12-19T08:37:39Z</time>
      </trkpt>
      <trkpt lat="48.5985" lon="1.95752">
        <ele>125.11</ele>
        <time>2019-12-19T08:37:40Z</time>
      </trkpt>
      <trkpt lat="48.59851" lon="1.9575">
        <ele>125.11</ele>
        <time>2019-12-19T08:37:41Z</time>
      </trkpt>
      <trkpt lat="48.59852" lon="1.95749">
        <ele>125.11</ele>
        <time>2019-12-19T08:37:42Z</time>
      </trkpt>
      <trkpt lat="48.59853" lon="1.95748">
        <ele>125.11</ele>
        <time>2019-12-19T08:37:43Z</time>
      </trkpt>
      <trkpt lat="48.59854" lon="1.95747">
        <ele>125.11</ele>
        <time>2019-12-19T08:37:44Z</time>
      </trkpt>
      <trkpt lat="48.59855" lon="1.95746">
        <ele>125.11</ele>
        <time>2019-12-19T08:37:45Z</time>
      </trkpt>
      <trkpt lat="48.59856" lon="1.95745">
        <ele>125.11</ele>
        <time>2019-12-19T08:37:46Z</time>
      </trkpt>
      <trkpt lat="48.59857" lon="1.95742">
        <ele>125.11</ele>
        <time>2019-12-19T08:37:47Z</time>
      </trkpt>
      <trkpt lat="48.59858" lon="1.9574">
        <ele>124.63</ele>
        <time>2019-12-19T08:37:48Z</time>
      </trkpt>
      <trkpt lat="48.59859" lon="1.95737">
        <ele>125.11</ele>
        <time>2019-12-19T08:37:49Z</time>
      </trkpt>
      <trkpt lat="48.5986" lon="1.95735">
        <ele>125.11</ele>
        <time>2019-12-19T08:37:50Z</time>
      </trkpt>
      <trkpt lat="48.5986" lon="1.95733">
        <ele>125.11</ele>
        <time>2019-12-19T08:37:51Z</time>
      </trkpt>
      <trkpt lat="48.5986" lon="1.95732">
        <ele>124.63</ele>
        <time>2019-12-19T08:37:52Z</time>
      </trkpt>
      <trkpt lat="48.59861" lon="1.9573">
        <ele>124.63</ele>
        <time>2019-12-19T08:37:53Z</time>
      </trkpt>
      <trkpt lat="48.59862" lon="1.95729">
        <ele>124.63</ele>
        <time>2019-12-19T08:37:54Z</time>
      </trkpt>
      <trkpt lat="48.59863" lon="1.95726">
        <ele>124.63</ele>
        <time>2019-12-19T08:37:55Z</time>
      </trkpt>
      <trkpt lat="48.59865" lon="1.95724">
        <ele>124.63</ele>
        <time>2019-12-19T08:37:56Z</time>
      </trkpt>
      <trkpt lat="48.59867" lon="1.95721">
        <ele>124.63</ele>
        <time>2019-12-19T08:37:57Z</time>
      </trkpt>
      <trkpt lat="48.59867" lon="1.95719">
        <ele>124.63</ele>
        <time>2019-12-19T08:37:58Z</time>
      </trkpt>
      <trkpt lat="48.59867" lon="1.95716">
        <ele>124.63</ele>
        <time>2019-12-19T08:37:59Z</time>
      </trkpt>
      <trkpt lat="48.59868" lon="1.95715">
        <ele>124.63</ele>
        <time>2019-12-19T08:38:00Z</time>
      </trkpt>
      <trkpt lat="48.59868" lon="1.95713">
        <ele>124.63</ele>
        <time>2019-12-19T08:38:01Z</time>
      </trkpt>
      <trkpt lat="48.59869" lon="1.95711">
        <ele>124.63</ele>
        <time>2019-12-19T08:38:02Z</time>
      </trkpt>
      <trkpt lat="48.59869" lon="1.95711">
        <ele>124.63</ele>
        <time>2019-12-19T08:38:03Z</time>
      </trkpt>
      <trkpt lat="48.59869" lon="1.9571">
        <ele>124.15</ele>
        <time>2019-12-19T08:38:04Z</time>
      </trkpt>
      <trkpt lat="48.59869" lon="1.95709">
        <ele>124.15</ele>
        <time>2019-12-19T08:38:05Z</time>
      </trkpt>
      <trkpt lat="48.59869" lon="1.95708">
        <ele>123.67</ele>
        <time>2019-12-19T08:38:06Z</time>
      </trkpt>
      <trkpt lat="48.59869" lon="1.95708">
        <ele>123.67</ele>
        <time>2019-12-19T08:38:07Z</time>
      </trkpt>
      <trkpt lat="48.59869" lon="1.95704">
        <ele>123.19</ele>
        <time>2019-12-19T08:38:41Z</time>
      </trkpt>
      <trkpt lat="48.59869" lon="1.95704">
        <ele>123.19</ele>
        <time>2019-12-19T08:38:42Z</time>
      </trkpt>
      <trkpt lat="48.59868" lon="1.95702">
        <ele>123.19</ele>
        <time>2019-12-19T08:38:51Z</time>
      </trkpt>
      <trkpt lat="48.59868" lon="1.95702">
        <ele>123.19</ele>
        <time>2019-12-19T08:38:52Z</time>
      </trkpt>
      <trkpt lat="48.59868" lon="1.95701">
        <ele>122.71</ele>
        <time>2019-12-19T08:38:53Z</time>
      </trkpt>
      <trkpt lat="48.59868" lon="1.95701">
        <ele>122.71</ele>
        <time>2019-12-19T08:38:54Z</time>
      </trkpt>
      <trkpt lat="48.59868" lon="1.95701">
        <ele>122.71</ele>
        <time>2019-12-19T08:38:55Z</time>
      </trkpt>
      <trkpt lat="48.59868" lon="1.957">
        <ele>122.71</ele>
        <time>2019-12-19T08:38:56Z</time>
      </trkpt>
      <trkpt lat="48.59868" lon="1.957">
        <ele>122.71</ele>
        <time>2019-12-19T08:38:57Z</time>
      </trkpt>
      <trkpt lat="48.59868" lon="1.95697">
        <ele>122.71</ele>
        <time>2019-12-19T08:39:05Z</time>
      </trkpt>
      <trkpt lat="48.59868" lon="1.95697">
        <ele>122.71</ele>
        <time>2019-12-19T08:39:06Z</time>
      </trkpt>
      <trkpt lat="48.59868" lon="1.95697">
        <ele>122.71</ele>
        <time>2019-12-19T08:39:07Z</time>
      </trkpt>
      <trkpt lat="48.59868" lon="1.95696">
        <ele>122.71</ele>
        <time>2019-12-19T08:39:08Z</time>
      </trkpt>
      <trkpt lat="48.59868" lon="1.95696">
        <ele>122.71</ele>
        <time>2019-12-19T08:39:10Z</time>
      </trkpt>
      <trkpt lat="48.59868" lon="1.95696">
        <ele>122.71</ele>
        <time>2019-12-19T08:39:11Z</time>
      </trkpt>
      <trkpt lat="48.59868" lon="1.95696">
        <ele>122.71</ele>
        <time>2019-12-19T08:39:12Z</time>
      </trkpt>
      <trkpt lat="48.59868" lon="1.95695">
        <ele>122.71</ele>
        <time>2019-12-19T08:39:20Z</time>
      </trkpt>
      <trkpt lat="48.59868" lon="1.95695">
        <ele>122.71</ele>
        <time>2019-12-19T08:39:21Z</time>
      </trkpt>
      <trkpt lat="48.59868" lon="1.95694">
        <ele>122.71</ele>
        <time>2019-12-19T08:39:22Z</time>
      </trkpt>
      <trkpt lat="48.59868" lon="1.95694">
        <ele>122.22</ele>
        <time>2019-12-19T08:39:25Z</time>
      </trkpt>
      <trkpt lat="48.59868" lon="1.95694">
        <ele>122.22</ele>
        <time>2019-12-19T08:39:26Z</time>
      </trkpt>
      <trkpt lat="48.59868" lon="1.95694">
        <ele>122.22</ele>
        <time>2019-12-19T08:39:27Z</time>
      </trkpt>
      <trkpt lat="48.59868" lon="1.95694">
        <ele>123.67</ele>
        <time>2019-12-19T08:39:28Z</time>
      </trkpt>
      <trkpt lat="48.59868" lon="1.95694">
        <ele>122.22</ele>
        <time>2019-12-19T08:39:29Z</time>
      </trkpt>
      <trkpt lat="48.59868" lon="1.95694">
        <ele>122.71</ele>
        <time>2019-12-19T08:39:30Z</time>
      </trkpt>
      <trkpt lat="48.59868" lon="1.95693">
        <ele>122.71</ele>
        <time>2019-12-19T08:39:31Z</time>
      </trkpt>
      <trkpt lat="48.59869" lon="1.95693">
        <ele>122.22</ele>
        <time>2019-12-19T08:39:32Z</time>
      </trkpt>
      <trkpt lat="48.59869" lon="1.95692">
        <ele>122.71</ele>
        <time>2019-12-19T08:39:33Z</time>
      </trkpt>
      <trkpt lat="48.59869" lon="1.95691">
        <ele>122.22</ele>
        <time>2019-12-19T08:39:34Z</time>
      </trkpt>
      <trkpt lat="48.59869" lon="1.95689">
        <ele>122.71</ele>
        <time>2019-12-19T08:39:41Z</time>
      </trkpt>
      <trkpt lat="48.59869" lon="1.95689">
        <ele>122.71</ele>
        <time>2019-12-19T08:39:42Z</time>
      </trkpt>
      <trkpt lat="48.59869" lon="1.95689">
        <ele>122.71</ele>
        <time>2019-12-19T08:39:43Z</time>
      </trkpt>
      <trkpt lat="48.59869" lon="1.95689">
        <ele>122.71</ele>
        <time>2019-12-19T08:39:44Z</time>
      </trkpt>
      <trkpt lat="48.59868" lon="1.95688">
        <ele>122.22</ele>
        <time>2019-12-19T08:39:51Z</time>
      </trkpt>
      <trkpt lat="48.59868" lon="1.95688">
        <ele>122.22</ele>
        <time>2019-12-19T08:39:52Z</time>
      </trkpt>
      <trkpt lat="48.59868" lon="1.95688">
        <ele>122.71</ele>
        <time>2019-12-19T08:39:53Z</time>
      </trkpt>
      <trkpt lat="48.59869" lon="1.95688">
        <ele>122.71</ele>
        <time>2019-12-19T08:39:54Z</time>
      </trkpt>
      <trkpt lat="48.59868" lon="1.95689">
        <ele>122.22</ele>
        <time>2019-12-19T08:39:55Z</time>
      </trkpt>
      <trkpt lat="48.59868" lon="1.95689">
        <ele>122.71</ele>
        <time>2019-12-19T08:39:56Z</time>
      </trkpt>
      <trkpt lat="48.59867" lon="1.9569">
        <ele>122.71</ele>
        <time>2019-12-19T08:39:57Z</time>
      </trkpt>
      <trkpt lat="48.59867" lon="1.9569">
        <ele>122.22</ele>
        <time>2019-12-19T08:39:58Z</time>
      </trkpt>
      <trkpt lat="48.59866" lon="1.95689">
        <ele>122.71</ele>
        <time>2019-12-19T08:39:59Z</time>
      </trkpt>
      <trkpt lat="48.59866" lon="1.95689">
        <ele>122.71</ele>
        <time>2019-12-19T08:40:00Z</time>
      </trkpt>
      <trkpt lat="48.59866" lon="1.95689">
        <ele>122.71</ele>
        <time>2019-12-19T08:40:01Z</time>
      </trkpt>
      <trkpt lat="48.59866" lon="1.95689">
        <ele>122.71</ele>
        <time>2019-12-19T08:40:02Z</time>
      </trkpt>
      <trkpt lat="48.59867" lon="1.95688">
        <ele>122.71</ele>
        <time>2019-12-19T08:40:03Z</time>
      </trkpt>
      <trkpt lat="48.59867" lon="1.95688">
        <ele>122.22</ele>
        <time>2019-12-19T08:40:04Z</time>
      </trkpt>
      <trkpt lat="48.59868" lon="1.95687">
        <ele>122.22</ele>
        <time>2019-12-19T08:40:05Z</time>
      </trkpt>
      <trkpt lat="48.59868" lon="1.95686">
        <ele>122.22</ele>
        <time>2019-12-19T08:40:13Z</time>
      </trkpt>
      <trkpt lat="48.59869" lon="1.95686">
        <ele>122.22</ele>
        <time>2019-12-19T08:40:14Z</time>
      </trkpt>
      <trkpt lat="48.5987" lon="1.95685">
        <ele>121.74</ele>
        <time>2019-12-19T08:40:15Z</time>
      </trkpt>
      <trkpt lat="48.5987" lon="1.95685">
        <ele>122.22</ele>
        <time>2019-12-19T08:40:16Z</time>
      </trkpt>
      <trkpt lat="48.59871" lon="1.95685">
        <ele>122.22</ele>
        <time>2019-12-19T08:40:17Z</time>
      </trkpt>
      <trkpt lat="48.59871" lon="1.95684">
        <ele>122.22</ele>
        <time>2019-12-19T08:40:20Z</time>
      </trkpt>
      <trkpt lat="48.59871" lon="1.95685">
        <ele>122.22</ele>
        <time>2019-12-19T08:40:21Z</time>
      </trkpt>
      <trkpt lat="48.5987" lon="1.95685">
        <ele>122.22</ele>
        <time>2019-12-19T08:40:22Z</time>
      </trkpt>
      <trkpt lat="48.5987" lon="1.95685">
        <ele>122.22</ele>
        <time>2019-12-19T08:40:23Z</time>
      </trkpt>
      <trkpt lat="48.59871" lon="1.95684">
        <ele>122.22</ele>
        <time>2019-12-19T08:40:29Z</time>
      </trkpt>
      <trkpt lat="48.59871" lon="1.95684">
        <ele>122.22</ele>
        <time>2019-12-19T08:40:30Z</time>
      </trkpt>
      <trkpt lat="48.59872" lon="1.95684">
        <ele>122.22</ele>
        <time>2019-12-19T08:40:31Z</time>
      </trkpt>
      <trkpt lat="48.59872" lon="1.95684">
        <ele>122.22</ele>
        <time>2019-12-19T08:40:32Z</time>
      </trkpt>
      <trkpt lat="48.59872" lon="1.95684">
        <ele>122.22</ele>
        <time>2019-12-19T08:40:52Z</time>
      </trkpt>
      <trkpt lat="48.59872" lon="1.95684">
        <ele>122.22</ele>
        <time>2019-12-19T08:40:53Z</time>
      </trkpt>
      <trkpt lat="48.59873" lon="1.95684">
        <ele>122.22</ele>
        <time>2019-12-19T08:40:54Z</time>
      </trkpt>
      <trkpt lat="48.59873" lon="1.95684">
        <ele>122.22</ele>
        <time>2019-12-19T08:40:55Z</time>
      </trkpt>
      <trkpt lat="48.59873" lon="1.95684">
        <ele>122.22</ele>
        <time>2019-12-19T08:40:56Z</time>
      </trkpt>
      <trkpt lat="48.59873" lon="1.95684">
        <ele>122.22</ele>
        <time>2019-12-19T08:40:57Z</time>
      </trkpt>
      <trkpt lat="48.59873" lon="1.95685">
        <ele>122.22</ele>
        <time>2019-12-19T08:41:00Z</time>
      </trkpt>
      <trkpt lat="48.59873" lon="1.95685">
        <ele>122.22</ele>
        <time>2019-12-19T08:41:01Z</time>
      </trkpt>
      <trkpt lat="48.59874" lon="1.95685">
        <ele>122.22</ele>
        <time>2019-12-19T08:41:02Z</time>
      </trkpt>
      <trkpt lat="48.59874" lon="1.95685">
        <ele>122.71</ele>
        <time>2019-12-19T08:41:03Z</time>
      </trkpt>
      <trkpt lat="48.59875" lon="1.95685">
        <ele>122.22</ele>
        <time>2019-12-19T08:41:04Z</time>
      </trkpt>
      <trkpt lat="48.59876" lon="1.95685">
        <ele>122.71</ele>
        <time>2019-12-19T08:41:05Z</time>
      </trkpt>
      <trkpt lat="48.59877" lon="1.95685">
        <ele>122.71</ele>
        <time>2019-12-19T08:41:06Z</time>
      </trkpt>
      <trkpt lat="48.59877" lon="1.95686">
        <ele>122.22</ele>
        <time>2019-12-19T08:41:07Z</time>
      </trkpt>
      <trkpt lat="48.59878" lon="1.95686">
        <ele>122.71</ele>
        <time>2019-12-19T08:41:08Z</time>
      </trkpt>
      <trkpt lat="48.59879" lon="1.95686">
        <ele>122.22</ele>
        <time>2019-12-19T08:41:09Z</time>
      </trkpt>
      <trkpt lat="48.5988" lon="1.95686">
        <ele>122.71</ele>
        <time>2019-12-19T08:41:10Z</time>
      </trkpt>
      <trkpt lat="48.59882" lon="1.95685">
        <ele>122.71</ele>
        <time>2019-12-19T08:41:11Z</time>
      </trkpt>
      <trkpt lat="48.59882" lon="1.95685">
        <ele>123.19</ele>
        <time>2019-12-19T08:41:12Z</time>
      </trkpt>
      <trkpt lat="48.59883" lon="1.95684">
        <ele>122.71</ele>
        <time>2019-12-19T08:41:13Z</time>
      </trkpt>
      <trkpt lat="48.59884" lon="1.95684">
        <ele>123.19</ele>
        <time>2019-12-19T08:41:14Z</time>
      </trkpt>
      <trkpt lat="48.59886" lon="1.95684">
        <ele>123.19</ele>
        <time>2019-12-19T08:41:15Z</time>
      </trkpt>
      <trkpt lat="48.59887" lon="1.95684">
        <ele>123.19</ele>
        <time>2019-12-19T08:41:16Z</time>
      </trkpt>
      <trkpt lat="48.59887" lon="1.95684">
        <ele>123.19</ele>
        <time>2019-12-19T08:41:17Z</time>
      </trkpt>
      <trkpt lat="48.59888" lon="1.95683">
        <ele>123.19</ele>
        <time>2019-12-19T08:41:18Z</time>
      </trkpt>
      <trkpt lat="48.5989" lon="1.95684">
        <ele>123.19</ele>
        <time>2019-12-19T08:41:19Z</time>
      </trkpt>
      <trkpt lat="48.59891" lon="1.95684">
        <ele>123.19</ele>
        <time>2019-12-19T08:41:20Z</time>
      </trkpt>
      <trkpt lat="48.59893" lon="1.95683">
        <ele>123.67</ele>
        <time>2019-12-19T08:41:21Z</time>
      </trkpt>
      <trkpt lat="48.59894" lon="1.95682">
        <ele>123.67</ele>
        <time>2019-12-19T08:41:22Z</time>
      </trkpt>
      <trkpt lat="48.59896" lon="1.95682">
        <ele>123.67</ele>
        <time>2019-12-19T08:41:23Z</time>
      </trkpt>
      <trkpt lat="48.59898" lon="1.95682">
        <ele>123.67</ele>
        <time>2019-12-19T08:41:24Z</time>
      </trkpt>
      <trkpt lat="48.599" lon="1.95683">
        <ele>123.67</ele>
        <time>2019-12-19T08:41:25Z</time>
      </trkpt>
      <trkpt lat="48.59902" lon="1.95683">
        <ele>123.67</ele>
        <time>2019-12-19T08:41:26Z</time>
      </trkpt>
      <trkpt lat="48.59903" lon="1.95683">
        <ele>123.67</ele>
        <time>2019-12-19T08:41:27Z</time>
      </trkpt>
      <trkpt lat="48.59904" lon="1.95683">
        <ele>125.11</ele>
        <time>2019-12-19T08:41:28Z</time>
      </trkpt>
      <trkpt lat="48.59906" lon="1.95684">
        <ele>123.67</ele>
        <time>2019-12-19T08:41:29Z</time>
      </trkpt>
      <trkpt lat="48.59908" lon="1.95683">
        <ele>124.15</ele>
        <time>2019-12-19T08:41:30Z</time>
      </trkpt>
      <trkpt lat="48.59909" lon="1.95683">
        <ele>124.15</ele>
        <time>2019-12-19T08:41:31Z</time>
      </trkpt>
      <trkpt lat="48.5991" lon="1.95682">
        <ele>124.15</ele>
        <time>2019-12-19T08:41:32Z</time>
      </trkpt>
      <trkpt lat="48.59912" lon="1.95682">
        <ele>124.15</ele>
        <time>2019-12-19T08:41:33Z</time>
      </trkpt>
      <trkpt lat="48.59914" lon="1.95681">
        <ele>124.15</ele>
        <time>2019-12-19T08:41:34Z</time>
      </trkpt>
      <trkpt lat="48.59915" lon="1.9568">
        <ele>124.15</ele>
        <time>2019-12-19T08:41:35Z</time>
      </trkpt>
      <trkpt lat="48.59916" lon="1.9568">
        <ele>124.15</ele>
        <time>2019-12-19T08:41:36Z</time>
      </trkpt>
      <trkpt lat="48.59917" lon="1.9568">
        <ele>124.15</ele>
        <time>2019-12-19T08:41:37Z</time>
      </trkpt>
      <trkpt lat="48.59918" lon="1.95681">
        <ele>124.63</ele>
        <time>2019-12-19T08:41:38Z</time>
      </trkpt>
      <trkpt lat="48.59919" lon="1.95681">
        <ele>124.63</ele>
        <time>2019-12-19T08:41:39Z</time>
      </trkpt>
      <trkpt lat="48.5992" lon="1.95681">
        <ele>124.63</ele>
        <time>2019-12-19T08:41:40Z</time>
      </trkpt>
      <trkpt lat="48.59921" lon="1.95681">
        <ele>124.63</ele>
        <time>2019-12-19T08:41:41Z</time>
      </trkpt>
      <trkpt lat="48.59922" lon="1.95681">
        <ele>124.63</ele>
        <time>2019-12-19T08:41:42Z</time>
      </trkpt>
      <trkpt lat="48.59923" lon="1.95681">
        <ele>124.63</ele>
        <time>2019-12-19T08:41:43Z</time>
      </trkpt>
      <trkpt lat="48.59924" lon="1.95681">
        <ele>124.63</ele>
        <time>2019-12-19T08:41:44Z</time>
      </trkpt>
      <trkpt lat="48.59925" lon="1.9568">
        <ele>124.63</ele>
        <time>2019-12-19T08:41:45Z</time>
      </trkpt>
      <trkpt lat="48.59927" lon="1.9568">
        <ele>124.63</ele>
        <time>2019-12-19T08:41:46Z</time>
      </trkpt>
      <trkpt lat="48.59928" lon="1.9568">
        <ele>125.11</ele>
        <time>2019-12-19T08:41:47Z</time>
      </trkpt>
      <trkpt lat="48.5993" lon="1.9568">
        <ele>125.11</ele>
        <time>2019-12-19T08:41:48Z</time>
      </trkpt>
      <trkpt lat="48.59931" lon="1.9568">
        <ele>125.11</ele>
        <time>2019-12-19T08:41:49Z</time>
      </trkpt>
      <trkpt lat="48.59933" lon="1.9568">
        <ele>125.11</ele>
        <time>2019-12-19T08:41:50Z</time>
      </trkpt>
      <trkpt lat="48.59935" lon="1.95679">
        <ele>125.11</ele>
        <time>2019-12-19T08:41:51Z</time>
      </trkpt>
      <trkpt lat="48.59937" lon="1.95679">
        <ele>125.11</ele>
        <time>2019-12-19T08:41:52Z</time>
      </trkpt>
      <trkpt lat="48.59938" lon="1.95678">
        <ele>125.59</ele>
        <time>2019-12-19T08:41:53Z</time>
      </trkpt>
      <trkpt lat="48.5994" lon="1.95678">
        <ele>125.11</ele>
        <time>2019-12-19T08:41:54Z</time>
      </trkpt>
      <trkpt lat="48.59941" lon="1.95678">
        <ele>125.11</ele>
        <time>2019-12-19T08:41:55Z</time>
      </trkpt>
      <trkpt lat="48.59942" lon="1.95679">
        <ele>125.11</ele>
        <time>2019-12-19T08:41:56Z</time>
      </trkpt>
      <trkpt lat="48.59944" lon="1.95679">
        <ele>125.11</ele>
        <time>2019-12-19T08:41:57Z</time>
      </trkpt>
      <trkpt lat="48.59945" lon="1.95679">
        <ele>125.11</ele>
        <time>2019-12-19T08:41:58Z</time>
      </trkpt>
      <trkpt lat="48.59946" lon="1.95679">
        <ele>125.11</ele>
        <time>2019-12-19T08:41:59Z</time>
      </trkpt>
      <trkpt lat="48.59947" lon="1.95678">
        <ele>124.63</ele>
        <time>2019-12-19T08:42:00Z</time>
      </trkpt>
      <trkpt lat="48.59948" lon="1.95678">
        <ele>124.63</ele>
        <time>2019-12-19T08:42:01Z</time>
      </trkpt>
      <trkpt lat="48.59949" lon="1.95678">
        <ele>124.63</ele>
        <time>2019-12-19T08:42:02Z</time>
      </trkpt>
      <trkpt lat="48.59951" lon="1.95678">
        <ele>124.63</ele>
        <time>2019-12-19T08:42:03Z</time>
      </trkpt>
      <trkpt lat="48.59952" lon="1.95678">
        <ele>124.15</ele>
        <time>2019-12-19T08:42:04Z</time>
      </trkpt>
      <trkpt lat="48.59953" lon="1.95678">
        <ele>123.67</ele>
        <time>2019-12-19T08:42:05Z</time>
      </trkpt>
      <trkpt lat="48.59954" lon="1.95679">
        <ele>124.15</ele>
        <time>2019-12-19T08:42:06Z</time>
      </trkpt>
      <trkpt lat="48.59955" lon="1.95679">
        <ele>123.67</ele>
        <time>2019-12-19T08:42:07Z</time>
      </trkpt>
      <trkpt lat="48.59957" lon="1.95679">
        <ele>123.67</ele>
        <time>2019-12-19T08:42:08Z</time>
      </trkpt>
      <trkpt lat="48.59958" lon="1.9568">
        <ele>123.67</ele>
        <time>2019-12-19T08:42:09Z</time>
      </trkpt>
      <trkpt lat="48.5996" lon="1.95679">
        <ele>123.67</ele>
        <time>2019-12-19T08:42:10Z</time>
      </trkpt>
      <trkpt lat="48.59961" lon="1.95678">
        <ele>123.19</ele>
        <time>2019-12-19T08:42:11Z</time>
      </trkpt>
      <trkpt lat="48.59963" lon="1.95678">
        <ele>123.19</ele>
        <time>2019-12-19T08:42:12Z</time>
      </trkpt>
      <trkpt lat="48.59964" lon="1.95678">
        <ele>123.19</ele>
        <time>2019-12-19T08:42:13Z</time>
      </trkpt>
      <trkpt lat="48.59966" lon="1.95678">
        <ele>122.71</ele>
        <time>2019-12-19T08:42:14Z</time>
      </trkpt>
      <trkpt lat="48.59968" lon="1.95679">
        <ele>122.71</ele>
        <time>2019-12-19T08:42:15Z</time>
      </trkpt>
      <trkpt lat="48.5997" lon="1.9568">
        <ele>122.71</ele>
        <time>2019-12-19T08:42:16Z</time>
      </trkpt>
      <trkpt lat="48.59971" lon="1.95681">
        <ele>122.22</ele>
        <time>2019-12-19T08:42:17Z</time>
      </trkpt>
      <trkpt lat="48.59973" lon="1.95682">
        <ele>122.22</ele>
        <time>2019-12-19T08:42:18Z</time>
      </trkpt>
      <trkpt lat="48.59974" lon="1.95682">
        <ele>122.22</ele>
        <time>2019-12-19T08:42:19Z</time>
      </trkpt>
      <trkpt lat="48.59976" lon="1.95683">
        <ele>122.22</ele>
        <time>2019-12-19T08:42:20Z</time>
      </trkpt>
      <trkpt lat="48.59979" lon="1.95684">
        <ele>122.22</ele>
        <time>2019-12-19T08:42:21Z</time>
      </trkpt>
      <trkpt lat="48.59981" lon="1.95685">
        <ele>121.74</ele>
        <time>2019-12-19T08:42:22Z</time>
      </trkpt>
      <trkpt lat="48.59983" lon="1.95687">
        <ele>121.74</ele>
        <time>2019-12-19T08:42:23Z</time>
      </trkpt>
      <trkpt lat="48.59984" lon="1.95688">
        <ele>121.74</ele>
        <time>2019-12-19T08:42:24Z</time>
      </trkpt>
      <trkpt lat="48.59986" lon="1.95691">
        <ele>121.74</ele>
        <time>2019-12-19T08:42:25Z</time>
      </trkpt>
      <trkpt lat="48.59988" lon="1.95692">
        <ele>121.26</ele>
        <time>2019-12-19T08:42:26Z</time>
      </trkpt>
      <trkpt lat="48.5999" lon="1.95694">
        <ele>121.26</ele>
        <time>2019-12-19T08:42:27Z</time>
      </trkpt>
      <trkpt lat="48.59991" lon="1.95696">
        <ele>121.74</ele>
        <time>2019-12-19T08:42:28Z</time>
      </trkpt>
      <trkpt lat="48.59993" lon="1.95698">
        <ele>121.26</ele>
        <time>2019-12-19T08:42:29Z</time>
      </trkpt>
      <trkpt lat="48.59994" lon="1.957">
        <ele>121.26</ele>
        <time>2019-12-19T08:42:30Z</time>
      </trkpt>
      <trkpt lat="48.59996" lon="1.95702">
        <ele>121.26</ele>
        <time>2019-12-19T08:42:31Z</time>
      </trkpt>
      <trkpt lat="48.59998" lon="1.95704">
        <ele>120.78</ele>
        <time>2019-12-19T08:42:32Z</time>
      </trkpt>
      <trkpt lat="48.59999" lon="1.95706">
        <ele>120.78</ele>
        <time>2019-12-19T08:42:33Z</time>
      </trkpt>
      <trkpt lat="48.6" lon="1.95708">
        <ele>120.78</ele>
        <time>2019-12-19T08:42:34Z</time>
      </trkpt>
      <trkpt lat="48.60001" lon="1.95709">
        <ele>120.78</ele>
        <time>2019-12-19T08:42:35Z</time>
      </trkpt>
      <trkpt lat="48.60001" lon="1.9571">
        <ele>120.78</ele>
        <time>2019-12-19T08:42:36Z</time>
      </trkpt>
      <trkpt lat="48.60003" lon="1.95712">
        <ele>120.3</ele>
        <time>2019-12-19T08:42:37Z</time>
      </trkpt>
      <trkpt lat="48.60004" lon="1.95713">
        <ele>120.3</ele>
        <time>2019-12-19T08:42:38Z</time>
      </trkpt>
      <trkpt lat="48.60004" lon="1.95715">
        <ele>120.3</ele>
        <time>2019-12-19T08:42:39Z</time>
      </trkpt>
      <trkpt lat="48.60005" lon="1.95716">
        <ele>119.82</ele>
        <time>2019-12-19T08:42:40Z</time>
      </trkpt>
      <trkpt lat="48.60005" lon="1.95718">
        <ele>119.82</ele>
        <time>2019-12-19T08:42:41Z</time>
      </trkpt>
      <trkpt lat="48.60007" lon="1.95719">
        <ele>119.82</ele>
        <time>2019-12-19T08:42:42Z</time>
      </trkpt>
      <trkpt lat="48.60008" lon="1.9572">
        <ele>119.82</ele>
        <time>2019-12-19T08:42:43Z</time>
      </trkpt>
      <trkpt lat="48.60008" lon="1.95722">
        <ele>119.34</ele>
        <time>2019-12-19T08:42:44Z</time>
      </trkpt>
      <trkpt lat="48.60008" lon="1.95724">
        <ele>119.34</ele>
        <time>2019-12-19T08:42:45Z</time>
      </trkpt>
      <trkpt lat="48.60009" lon="1.95726">
        <ele>119.34</ele>
        <time>2019-12-19T08:42:46Z</time>
      </trkpt>
      <trkpt lat="48.6001" lon="1.95727">
        <ele>119.34</ele>
        <time>2019-12-19T08:42:47Z</time>
      </trkpt>
      <trkpt lat="48.60011" lon="1.9573">
        <ele>119.34</ele>
        <time>2019-12-19T08:42:48Z</time>
      </trkpt>
      <trkpt lat="48.60011" lon="1.95732">
        <ele>118.86</ele>
        <time>2019-12-19T08:42:49Z</time>
      </trkpt>
      <trkpt lat="48.60013" lon="1.95734">
        <ele>118.86</ele>
        <time>2019-12-19T08:42:50Z</time>
      </trkpt>
      <trkpt lat="48.60013" lon="1.95737">
        <ele>118.86</ele>
        <time>2019-12-19T08:42:51Z</time>
      </trkpt>
      <trkpt lat="48.60013" lon="1.95739">
        <ele>118.86</ele>
        <time>2019-12-19T08:42:52Z</time>
      </trkpt>
      <trkpt lat="48.60014" lon="1.95742">
        <ele>118.86</ele>
        <time>2019-12-19T08:42:53Z</time>
      </trkpt>
      <trkpt lat="48.60015" lon="1.95744">
        <ele>118.86</ele>
        <time>2019-12-19T08:42:54Z</time>
      </trkpt>
      <trkpt lat="48.60016" lon="1.95745">
        <ele>118.86</ele>
        <time>2019-12-19T08:42:55Z</time>
      </trkpt>
      <trkpt lat="48.60018" lon="1.95747">
        <ele>118.86</ele>
        <time>2019-12-19T08:42:56Z</time>
      </trkpt>
      <trkpt lat="48.60019" lon="1.95748">
        <ele>118.86</ele>
        <time>2019-12-19T08:42:57Z</time>
      </trkpt>
      <trkpt lat="48.6002" lon="1.95749">
        <ele>118.86</ele>
        <time>2019-12-19T08:42:58Z</time>
      </trkpt>
      <trkpt lat="48.6002" lon="1.95752">
        <ele>118.86</ele>
        <time>2019-12-19T08:42:59Z</time>
      </trkpt>
      <trkpt lat="48.60021" lon="1.95754">
        <ele>118.86</ele>
        <time>2019-12-19T08:43:00Z</time>
      </trkpt>
      <trkpt lat="48.60022" lon="1.95757">
        <ele>118.86</ele>
        <time>2019-12-19T08:43:01Z</time>
      </trkpt>
      <trkpt lat="48.60022" lon="1.95759">
        <ele>118.38</ele>
        <time>2019-12-19T08:43:02Z</time>
      </trkpt>
      <trkpt lat="48.60024" lon="1.95762">
        <ele>118.38</ele>
        <time>2019-12-19T08:43:03Z</time>
      </trkpt>
      <trkpt lat="48.60025" lon="1.95765">
        <ele>118.38</ele>
        <time>2019-12-19T08:43:04Z</time>
      </trkpt>
      <trkpt lat="48.60027" lon="1.95767">
        <ele>118.38</ele>
        <time>2019-12-19T08:43:05Z</time>
      </trkpt>
      <trkpt lat="48.60028" lon="1.95769">
        <ele>118.38</ele>
        <time>2019-12-19T08:43:06Z</time>
      </trkpt>
      <trkpt lat="48.60028" lon="1.95772">
        <ele>118.38</ele>
        <time>2019-12-19T08:43:07Z</time>
      </trkpt>
      <trkpt lat="48.60029" lon="1.95775">
        <ele>118.38</ele>
        <time>2019-12-19T08:43:08Z</time>
      </trkpt>
      <trkpt lat="48.6003" lon="1.95777">
        <ele>118.38</ele>
        <time>2019-12-19T08:43:09Z</time>
      </trkpt>
      <trkpt lat="48.60031" lon="1.9578">
        <ele>117.9</ele>
        <time>2019-12-19T08:43:10Z</time>
      </trkpt>
      <trkpt lat="48.60032" lon="1.95782">
        <ele>117.9</ele>
        <time>2019-12-19T08:43:11Z</time>
      </trkpt>
      <trkpt lat="48.60033" lon="1.95784">
        <ele>117.9</ele>
        <time>2019-12-19T08:43:12Z</time>
      </trkpt>
      <trkpt lat="48.60035" lon="1.95787">
        <ele>117.9</ele>
        <time>2019-12-19T08:43:13Z</time>
      </trkpt>
      <trkpt lat="48.60036" lon="1.95789">
        <ele>117.9</ele>
        <time>2019-12-19T08:43:14Z</time>
      </trkpt>
      <trkpt lat="48.60037" lon="1.95791">
        <ele>117.9</ele>
        <time>2019-12-19T08:43:15Z</time>
      </trkpt>
      <trkpt lat="48.60039" lon="1.95793">
        <ele>117.9</ele>
        <time>2019-12-19T08:43:16Z</time>
      </trkpt>
      <trkpt lat="48.6004" lon="1.95794">
        <ele>117.42</ele>
        <time>2019-12-19T08:43:17Z</time>
      </trkpt>
      <trkpt lat="48.60041" lon="1.95795">
        <ele>117.42</ele>
        <time>2019-12-19T08:43:18Z</time>
      </trkpt>
      <trkpt lat="48.60042" lon="1.95797">
        <ele>117.42</ele>
        <time>2019-12-19T08:43:19Z</time>
      </trkpt>
      <trkpt lat="48.60043" lon="1.95799">
        <ele>117.42</ele>
        <time>2019-12-19T08:43:20Z</time>
      </trkpt>
      <trkpt lat="48.60043" lon="1.95801">
        <ele>116.94</ele>
        <time>2019-12-19T08:43:21Z</time>
      </trkpt>
      <trkpt lat="48.60044" lon="1.95803">
        <ele>117.42</ele>
        <time>2019-12-19T08:43:22Z</time>
      </trkpt>
      <trkpt lat="48.60045" lon="1.95805">
        <ele>117.42</ele>
        <time>2019-12-19T08:43:23Z</time>
      </trkpt>
      <trkpt lat="48.60045" lon="1.95807">
        <ele>116.94</ele>
        <time>2019-12-19T08:43:24Z</time>
      </trkpt>
      <trkpt lat="48.60046" lon="1.95809">
        <ele>116.94</ele>
        <time>2019-12-19T08:43:25Z</time>
      </trkpt>
      <trkpt lat="48.60047" lon="1.95811">
        <ele>116.94</ele>
        <time>2019-12-19T08:43:26Z</time>
      </trkpt>
      <trkpt lat="48.60048" lon="1.95813">
        <ele>116.94</ele>
        <time>2019-12-19T08:43:27Z</time>
      </trkpt>
      <trkpt lat="48.60049" lon="1.95816">
        <ele>116.94</ele>
        <time>2019-12-19T08:43:28Z</time>
      </trkpt>
      <trkpt lat="48.6005" lon="1.95818">
        <ele>117.9</ele>
        <time>2019-12-19T08:43:29Z</time>
      </trkpt>
      <trkpt lat="48.60051" lon="1.95821">
        <ele>116.94</ele>
        <time>2019-12-19T08:43:30Z</time>
      </trkpt>
      <trkpt lat="48.60052" lon="1.95823">
        <ele>116.94</ele>
        <time>2019-12-19T08:43:31Z</time>
      </trkpt>
      <trkpt lat="48.60053" lon="1.95825">
        <ele>116.94</ele>
        <time>2019-12-19T08:43:32Z</time>
      </trkpt>
      <trkpt lat="48.60055" lon="1.95827">
        <ele>116.46</ele>
        <time>2019-12-19T08:43:33Z</time>
      </trkpt>
      <trkpt lat="48.60056" lon="1.95829">
        <ele>116.94</ele>
        <time>2019-12-19T08:43:34Z</time>
      </trkpt>
      <trkpt lat="48.60056" lon="1.95832">
        <ele>116.94</ele>
        <time>2019-12-19T08:43:35Z</time>
      </trkpt>
      <trkpt lat="48.60057" lon="1.95834">
        <ele>116.94</ele>
        <time>2019-12-19T08:43:36Z</time>
      </trkpt>
      <trkpt lat="48.60059" lon="1.95836">
        <ele>116.46</ele>
        <time>2019-12-19T08:43:37Z</time>
      </trkpt>
      <trkpt lat="48.6006" lon="1.95838">
        <ele>116.94</ele>
        <time>2019-12-19T08:43:38Z</time>
      </trkpt>
      <trkpt lat="48.60061" lon="1.95839">
        <ele>116.46</ele>
        <time>2019-12-19T08:43:39Z</time>
      </trkpt>
      <trkpt lat="48.60062" lon="1.95841">
        <ele>116.46</ele>
        <time>2019-12-19T08:43:40Z</time>
      </trkpt>
      <trkpt lat="48.60063" lon="1.95843">
        <ele>116.94</ele>
        <time>2019-12-19T08:43:41Z</time>
      </trkpt>
      <trkpt lat="48.60065" lon="1.95845">
        <ele>116.94</ele>
        <time>2019-12-19T08:43:42Z</time>
      </trkpt>
      <trkpt lat="48.60066" lon="1.95847">
        <ele>116.94</ele>
        <time>2019-12-19T08:43:43Z</time>
      </trkpt>
      <trkpt lat="48.60068" lon="1.95848">
        <ele>116.46</ele>
        <time>2019-12-19T08:43:44Z</time>
      </trkpt>
      <trkpt lat="48.60069" lon="1.95849">
        <ele>116.46</ele>
        <time>2019-12-19T08:43:45Z</time>
      </trkpt>
      <trkpt lat="48.60071" lon="1.9585">
        <ele>116.46</ele>
        <time>2019-12-19T08:43:46Z</time>
      </trkpt>
      <trkpt lat="48.60072" lon="1.95851">
        <ele>116.46</ele>
        <time>2019-12-19T08:43:47Z</time>
      </trkpt>
      <trkpt lat="48.60074" lon="1.95851">
        <ele>116.46</ele>
        <time>2019-12-19T08:43:48Z</time>
      </trkpt>
      <trkpt lat="48.60075" lon="1.95852">
        <ele>116.46</ele>
        <time>2019-12-19T08:43:49Z</time>
      </trkpt>
      <trkpt lat="48.60076" lon="1.95853">
        <ele>116.46</ele>
        <time>2019-12-19T08:43:50Z</time>
      </trkpt>
      <trkpt lat="48.60077" lon="1.95854">
        <ele>116.46</ele>
        <time>2019-12-19T08:43:51Z</time>
      </trkpt>
      <trkpt lat="48.60079" lon="1.95855">
        <ele>116.46</ele>
        <time>2019-12-19T08:43:52Z</time>
      </trkpt>
      <trkpt lat="48.6008" lon="1.95856">
        <ele>115.98</ele>
        <time>2019-12-19T08:43:53Z</time>
      </trkpt>
      <trkpt lat="48.60081" lon="1.95857">
        <ele>116.46</ele>
        <time>2019-12-19T08:43:54Z</time>
      </trkpt>
      <trkpt lat="48.60082" lon="1.95858">
        <ele>115.98</ele>
        <time>2019-12-19T08:43:55Z</time>
      </trkpt>
      <trkpt lat="48.60083" lon="1.95859">
        <ele>115.98</ele>
        <time>2019-12-19T08:43:56Z</time>
      </trkpt>
      <trkpt lat="48.60085" lon="1.9586">
        <ele>115.98</ele>
        <time>2019-12-19T08:43:57Z</time>
      </trkpt>
      <trkpt lat="48.60087" lon="1.95861">
        <ele>115.98</ele>
        <time>2019-12-19T08:43:58Z</time>
      </trkpt>
      <trkpt lat="48.60089" lon="1.95863">
        <ele>115.98</ele>
        <time>2019-12-19T08:43:59Z</time>
      </trkpt>
      <trkpt lat="48.6009" lon="1.95864">
        <ele>115.98</ele>
        <time>2019-12-19T08:44:00Z</time>
      </trkpt>
      <trkpt lat="48.60092" lon="1.95866">
        <ele>115.98</ele>
        <time>2019-12-19T08:44:01Z</time>
      </trkpt>
      <trkpt lat="48.60093" lon="1.95868">
        <ele>115.98</ele>
        <time>2019-12-19T08:44:02Z</time>
      </trkpt>
      <trkpt lat="48.60095" lon="1.9587">
        <ele>115.98</ele>
        <time>2019-12-19T08:44:03Z</time>
      </trkpt>
      <trkpt lat="48.60095" lon="1.95871">
        <ele>115.98</ele>
        <time>2019-12-19T08:44:04Z</time>
      </trkpt>
      <trkpt lat="48.60095" lon="1.95873">
        <ele>115.98</ele>
        <time>2019-12-19T08:44:05Z</time>
      </trkpt>
      <trkpt lat="48.60096" lon="1.95874">
        <ele>115.98</ele>
        <time>2019-12-19T08:44:06Z</time>
      </trkpt>
      <trkpt lat="48.60097" lon="1.95876">
        <ele>115.98</ele>
        <time>2019-12-19T08:44:07Z</time>
      </trkpt>
      <trkpt lat="48.60098" lon="1.95878">
        <ele>115.98</ele>
        <time>2019-12-19T08:44:08Z</time>
      </trkpt>
      <trkpt lat="48.60099" lon="1.9588">
        <ele>115.98</ele>
        <time>2019-12-19T08:44:09Z</time>
      </trkpt>
      <trkpt lat="48.60101" lon="1.95881">
        <ele>115.98</ele>
        <time>2019-12-19T08:44:10Z</time>
      </trkpt>
      <trkpt lat="48.60102" lon="1.95883">
        <ele>116.46</ele>
        <time>2019-12-19T08:44:11Z</time>
      </trkpt>
      <trkpt lat="48.60104" lon="1.95885">
        <ele>115.98</ele>
        <time>2019-12-19T08:44:12Z</time>
      </trkpt>
      <trkpt lat="48.60105" lon="1.95887">
        <ele>116.46</ele>
        <time>2019-12-19T08:44:13Z</time>
      </trkpt>
      <trkpt lat="48.60106" lon="1.95889">
        <ele>116.46</ele>
        <time>2019-12-19T08:44:14Z</time>
      </trkpt>
      <trkpt lat="48.60107" lon="1.9589">
        <ele>116.46</ele>
        <time>2019-12-19T08:44:15Z</time>
      </trkpt>
      <trkpt lat="48.60108" lon="1.95892">
        <ele>116.46</ele>
        <time>2019-12-19T08:44:16Z</time>
      </trkpt>
      <trkpt lat="48.60109" lon="1.95894">
        <ele>116.46</ele>
        <time>2019-12-19T08:44:17Z</time>
      </trkpt>
      <trkpt lat="48.6011" lon="1.95896">
        <ele>116.46</ele>
        <time>2019-12-19T08:44:18Z</time>
      </trkpt>
      <trkpt lat="48.60111" lon="1.95898">
        <ele>116.46</ele>
        <time>2019-12-19T08:44:19Z</time>
      </trkpt>
      <trkpt lat="48.60112" lon="1.959">
        <ele>116.94</ele>
        <time>2019-12-19T08:44:20Z</time>
      </trkpt>
      <trkpt lat="48.60112" lon="1.95903">
        <ele>116.46</ele>
        <time>2019-12-19T08:44:21Z</time>
      </trkpt>
      <trkpt lat="48.60113" lon="1.95906">
        <ele>116.46</ele>
        <time>2019-12-19T08:44:22Z</time>
      </trkpt>
      <trkpt lat="48.60113" lon="1.95908">
        <ele>116.46</ele>
        <time>2019-12-19T08:44:23Z</time>
      </trkpt>
      <trkpt lat="48.60113" lon="1.95911">
        <ele>116.46</ele>
        <time>2019-12-19T08:44:24Z</time>
      </trkpt>
      <trkpt lat="48.60114" lon="1.95913">
        <ele>116.94</ele>
        <time>2019-12-19T08:44:25Z</time>
      </trkpt>
      <trkpt lat="48.60115" lon="1.95915">
        <ele>116.94</ele>
        <time>2019-12-19T08:44:26Z</time>
      </trkpt>
      <trkpt lat="48.60116" lon="1.95917">
        <ele>116.94</ele>
        <time>2019-12-19T08:44:27Z</time>
      </trkpt>
      <trkpt lat="48.60117" lon="1.95919">
        <ele>116.94</ele>
        <time>2019-12-19T08:44:28Z</time>
      </trkpt>
      <trkpt lat="48.60117" lon="1.95921">
        <ele>116.94</ele>
        <time>2019-12-19T08:44:29Z</time>
      </trkpt>
      <trkpt lat="48.60118" lon="1.95924">
        <ele>117.42</ele>
        <time>2019-12-19T08:44:30Z</time>
      </trkpt>
      <trkpt lat="48.60119" lon="1.95926">
        <ele>117.42</ele>
        <time>2019-12-19T08:44:31Z</time>
      </trkpt>
      <trkpt lat="48.6012" lon="1.95928">
        <ele>117.42</ele>
        <time>2019-12-19T08:44:32Z</time>
      </trkpt>
      <trkpt lat="48.60121" lon="1.95931">
        <ele>117.42</ele>
        <time>2019-12-19T08:44:33Z</time>
      </trkpt>
      <trkpt lat="48.60122" lon="1.95934">
        <ele>117.42</ele>
        <time>2019-12-19T08:44:34Z</time>
      </trkpt>
      <trkpt lat="48.60122" lon="1.95936">
        <ele>117.42</ele>
        <time>2019-12-19T08:44:35Z</time>
      </trkpt>
      <trkpt lat="48.60122" lon="1.95938">
        <ele>117.9</ele>
        <time>2019-12-19T08:44:36Z</time>
      </trkpt>
      <trkpt lat="48.60123" lon="1.9594">
        <ele>117.9</ele>
        <time>2019-12-19T08:44:37Z</time>
      </trkpt>
      <trkpt lat="48.60123" lon="1.95943">
        <ele>117.9</ele>
        <time>2019-12-19T08:44:38Z</time>
      </trkpt>
      <trkpt lat="48.60123" lon="1.95946">
        <ele>118.38</ele>
        <time>2019-12-19T08:44:39Z</time>
      </trkpt>
      <trkpt lat="48.60124" lon="1.95948">
        <ele>117.9</ele>
        <time>2019-12-19T08:44:40Z</time>
      </trkpt>
      <trkpt lat="48.60124" lon="1.95951">
        <ele>117.9</ele>
        <time>2019-12-19T08:44:41Z</time>
      </trkpt>
      <trkpt lat="48.60125" lon="1.95953">
        <ele>117.9</ele>
        <time>2019-12-19T08:44:42Z</time>
      </trkpt>
      <trkpt lat="48.60125" lon="1.95955">
        <ele>117.9</ele>
        <time>2019-12-19T08:44:43Z</time>
      </trkpt>
      <trkpt lat="48.60125" lon="1.95957">
        <ele>117.9</ele>
        <time>2019-12-19T08:44:44Z</time>
      </trkpt>
      <trkpt lat="48.60126" lon="1.95959">
        <ele>117.9</ele>
        <time>2019-12-19T08:44:45Z</time>
      </trkpt>
      <trkpt lat="48.60126" lon="1.95961">
        <ele>117.9</ele>
        <time>2019-12-19T08:44:46Z</time>
      </trkpt>
      <trkpt lat="48.60126" lon="1.95963">
        <ele>117.9</ele>
        <time>2019-12-19T08:44:47Z</time>
      </trkpt>
      <trkpt lat="48.60126" lon="1.95965">
        <ele>118.38</ele>
        <time>2019-12-19T08:44:48Z</time>
      </trkpt>
      <trkpt lat="48.60126" lon="1.95967">
        <ele>118.38</ele>
        <time>2019-12-19T08:44:49Z</time>
      </trkpt>
      <trkpt lat="48.60126" lon="1.9597">
        <ele>118.38</ele>
        <time>2019-12-19T08:44:50Z</time>
      </trkpt>
      <trkpt lat="48.60126" lon="1.95972">
        <ele>118.38</ele>
        <time>2019-12-19T08:44:51Z</time>
      </trkpt>
      <trkpt lat="48.60126" lon="1.95975">
        <ele>117.9</ele>
        <time>2019-12-19T08:44:52Z</time>
      </trkpt>
      <trkpt lat="48.60127" lon="1.95978">
        <ele>118.38</ele>
        <time>2019-12-19T08:44:53Z</time>
      </trkpt>
      <trkpt lat="48.60127" lon="1.95981">
        <ele>118.38</ele>
        <time>2019-12-19T08:44:54Z</time>
      </trkpt>
      <trkpt lat="48.60127" lon="1.95983">
        <ele>118.38</ele>
        <time>2019-12-19T08:44:55Z</time>
      </trkpt>
      <trkpt lat="48.60127" lon="1.95985">
        <ele>118.38</ele>
        <time>2019-12-19T08:44:56Z</time>
      </trkpt>
      <trkpt lat="48.60128" lon="1.95988">
        <ele>118.38</ele>
        <time>2019-12-19T08:44:57Z</time>
      </trkpt>
      <trkpt lat="48.60128" lon="1.95991">
        <ele>118.86</ele>
        <time>2019-12-19T08:44:58Z</time>
      </trkpt>
      <trkpt lat="48.60129" lon="1.95993">
        <ele>118.38</ele>
        <time>2019-12-19T08:44:59Z</time>
      </trkpt>
      <trkpt lat="48.6013" lon="1.95996">
        <ele>118.86</ele>
        <time>2019-12-19T08:45:00Z</time>
      </trkpt>
      <trkpt lat="48.6013" lon="1.95999">
        <ele>118.86</ele>
        <time>2019-12-19T08:45:01Z</time>
      </trkpt>
      <trkpt lat="48.6013" lon="1.96001">
        <ele>118.86</ele>
        <time>2019-12-19T08:45:02Z</time>
      </trkpt>
      <trkpt lat="48.6013" lon="1.96003">
        <ele>118.86</ele>
        <time>2019-12-19T08:45:03Z</time>
      </trkpt>
      <trkpt lat="48.6013" lon="1.96006">
        <ele>119.34</ele>
        <time>2019-12-19T08:45:04Z</time>
      </trkpt>
      <trkpt lat="48.6013" lon="1.96008">
        <ele>118.86</ele>
        <time>2019-12-19T08:45:05Z</time>
      </trkpt>
      <trkpt lat="48.6013" lon="1.96011">
        <ele>118.86</ele>
        <time>2019-12-19T08:45:06Z</time>
      </trkpt>
      <trkpt lat="48.6013" lon="1.96014">
        <ele>119.34</ele>
        <time>2019-12-19T08:45:07Z</time>
      </trkpt>
      <trkpt lat="48.60129" lon="1.96016">
        <ele>119.34</ele>
        <time>2019-12-19T08:45:08Z</time>
      </trkpt>
      <trkpt lat="48.60129" lon="1.96019">
        <ele>119.34</ele>
        <time>2019-12-19T08:45:09Z</time>
      </trkpt>
      <trkpt lat="48.60129" lon="1.96021">
        <ele>119.34</ele>
        <time>2019-12-19T08:45:10Z</time>
      </trkpt>
      <trkpt lat="48.6013" lon="1.96024">
        <ele>119.34</ele>
        <time>2019-12-19T08:45:11Z</time>
      </trkpt>
      <trkpt lat="48.6013" lon="1.96027">
        <ele>119.34</ele>
        <time>2019-12-19T08:45:12Z</time>
      </trkpt>
      <trkpt lat="48.60131" lon="1.96029">
        <ele>119.34</ele>
        <time>2019-12-19T08:45:13Z</time>
      </trkpt>
      <trkpt lat="48.60132" lon="1.96031">
        <ele>119.82</ele>
        <time>2019-12-19T08:45:14Z</time>
      </trkpt>
      <trkpt lat="48.60132" lon="1.96032">
        <ele>119.82</ele>
        <time>2019-12-19T08:45:15Z</time>
      </trkpt>
      <trkpt lat="48.60132" lon="1.96034">
        <ele>119.82</ele>
        <time>2019-12-19T08:45:16Z</time>
      </trkpt>
      <trkpt lat="48.60133" lon="1.96036">
        <ele>119.34</ele>
        <time>2019-12-19T08:45:17Z</time>
      </trkpt>
      <trkpt lat="48.60133" lon="1.96037">
        <ele>119.34</ele>
        <time>2019-12-19T08:45:18Z</time>
      </trkpt>
      <trkpt lat="48.60134" lon="1.96039">
        <ele>119.82</ele>
        <time>2019-12-19T08:45:19Z</time>
      </trkpt>
      <trkpt lat="48.60134" lon="1.96041">
        <ele>119.82</ele>
        <time>2019-12-19T08:45:20Z</time>
      </trkpt>
      <trkpt lat="48.60135" lon="1.96043">
        <ele>119.82</ele>
        <time>2019-12-19T08:45:21Z</time>
      </trkpt>
      <trkpt lat="48.60135" lon="1.96045">
        <ele>119.82</ele>
        <time>2019-12-19T08:45:22Z</time>
      </trkpt>
      <trkpt lat="48.60135" lon="1.96046">
        <ele>119.82</ele>
        <time>2019-12-19T08:45:23Z</time>
      </trkpt>
      <trkpt lat="48.60136" lon="1.96048">
        <ele>119.82</ele>
        <time>2019-12-19T08:45:24Z</time>
      </trkpt>
      <trkpt lat="48.60136" lon="1.9605">
        <ele>119.82</ele>
        <time>2019-12-19T08:45:25Z</time>
      </trkpt>
      <trkpt lat="48.60136" lon="1.96052">
        <ele>119.82</ele>
        <time>2019-12-19T08:45:26Z</time>
      </trkpt>
      <trkpt lat="48.60136" lon="1.96054">
        <ele>119.82</ele>
        <time>2019-12-19T08:45:27Z</time>
      </trkpt>
      <trkpt lat="48.60136" lon="1.96057">
        <ele>120.3</ele>
        <time>2019-12-19T08:45:28Z</time>
      </trkpt>
      <trkpt lat="48.60136" lon="1.96059">
        <ele>121.26</ele>
        <time>2019-12-19T08:45:29Z</time>
      </trkpt>
      <trkpt lat="48.60136" lon="1.96061">
        <ele>120.3</ele>
        <time>2019-12-19T08:45:30Z</time>
      </trkpt>
      <trkpt lat="48.60136" lon="1.96063">
        <ele>120.78</ele>
        <time>2019-12-19T08:45:31Z</time>
      </trkpt>
      <trkpt lat="48.60136" lon="1.96065">
        <ele>120.3</ele>
        <time>2019-12-19T08:45:32Z</time>
      </trkpt>
      <trkpt lat="48.60136" lon="1.96066">
        <ele>120.78</ele>
        <time>2019-12-19T08:45:33Z</time>
      </trkpt>
      <trkpt lat="48.60136" lon="1.96069">
        <ele>120.78</ele>
        <time>2019-12-19T08:45:34Z</time>
      </trkpt>
      <trkpt lat="48.60136" lon="1.96071">
        <ele>120.78</ele>
        <time>2019-12-19T08:45:35Z</time>
      </trkpt>
      <trkpt lat="48.60136" lon="1.96073">
        <ele>120.78</ele>
        <time>2019-12-19T08:45:36Z</time>
      </trkpt>
      <trkpt lat="48.60136" lon="1.96076">
        <ele>120.78</ele>
        <time>2019-12-19T08:45:37Z</time>
      </trkpt>
      <trkpt lat="48.60135" lon="1.96077">
        <ele>121.26</ele>
        <time>2019-12-19T08:45:38Z</time>
      </trkpt>
      <trkpt lat="48.60135" lon="1.96078">
        <ele>121.74</ele>
        <time>2019-12-19T08:45:39Z</time>
      </trkpt>
      <trkpt lat="48.60134" lon="1.9608">
        <ele>121.74</ele>
        <time>2019-12-19T08:45:40Z</time>
      </trkpt>
      <trkpt lat="48.60134" lon="1.96082">
        <ele>122.71</ele>
        <time>2019-12-19T08:45:41Z</time>
      </trkpt>
      <trkpt lat="48.60134" lon="1.96084">
        <ele>122.71</ele>
        <time>2019-12-19T08:45:42Z</time>
      </trkpt>
      <trkpt lat="48.60134" lon="1.96086">
        <ele>123.19</ele>
        <time>2019-12-19T08:45:43Z</time>
      </trkpt>
      <trkpt lat="48.60134" lon="1.96087">
        <ele>123.19</ele>
        <time>2019-12-19T08:45:44Z</time>
      </trkpt>
      <trkpt lat="48.60134" lon="1.96088">
        <ele>123.67</ele>
        <time>2019-12-19T08:45:45Z</time>
      </trkpt>
      <trkpt lat="48.60133" lon="1.96089">
        <ele>123.67</ele>
        <time>2019-12-19T08:45:46Z</time>
      </trkpt>
      <trkpt lat="48.60132" lon="1.9609">
        <ele>124.15</ele>
        <time>2019-12-19T08:45:47Z</time>
      </trkpt>
      <trkpt lat="48.60131" lon="1.9609">
        <ele>125.11</ele>
        <time>2019-12-19T08:45:48Z</time>
      </trkpt>
      <trkpt lat="48.60131" lon="1.96091">
        <ele>125.11</ele>
        <time>2019-12-19T08:45:49Z</time>
      </trkpt>
      <trkpt lat="48.6013" lon="1.96092">
        <ele>125.11</ele>
        <time>2019-12-19T08:45:50Z</time>
      </trkpt>
      <trkpt lat="48.6013" lon="1.96095">
        <ele>125.59</ele>
        <time>2019-12-19T08:45:51Z</time>
      </trkpt>
      <trkpt lat="48.6013" lon="1.96097">
        <ele>125.59</ele>
        <time>2019-12-19T08:45:52Z</time>
      </trkpt>
      <trkpt lat="48.60129" lon="1.96098">
        <ele>126.07</ele>
        <time>2019-12-19T08:45:53Z</time>
      </trkpt>
      <trkpt lat="48.60128" lon="1.96099">
        <ele>126.55</ele>
        <time>2019-12-19T08:45:54Z</time>
      </trkpt>
      <trkpt lat="48.60127" lon="1.96099">
        <ele>127.03</ele>
        <time>2019-12-19T08:45:55Z</time>
      </trkpt>
      <trkpt lat="48.60126" lon="1.961">
        <ele>127.03</ele>
        <time>2019-12-19T08:45:56Z</time>
      </trkpt>
      <trkpt lat="48.60127" lon="1.96102">
        <ele>127.51</ele>
        <time>2019-12-19T08:45:57Z</time>
      </trkpt>
      <trkpt lat="48.60127" lon="1.96103">
        <ele>127.51</ele>
        <time>2019-12-19T08:45:58Z</time>
      </trkpt>
      <trkpt lat="48.60127" lon="1.96105">
        <ele>128.47</ele>
        <time>2019-12-19T08:45:59Z</time>
      </trkpt>
      <trkpt lat="48.60126" lon="1.96105">
        <ele>128.47</ele>
        <time>2019-12-19T08:46:00Z</time>
      </trkpt>
      <trkpt lat="48.60125" lon="1.96106">
        <ele>128.47</ele>
        <time>2019-12-19T08:46:01Z</time>
      </trkpt>
      <trkpt lat="48.60125" lon="1.96107">
        <ele>128.47</ele>
        <time>2019-12-19T08:46:02Z</time>
      </trkpt>
      <trkpt lat="48.60125" lon="1.96109">
        <ele>129.43</ele>
        <time>2019-12-19T08:46:03Z</time>
      </trkpt>
      <trkpt lat="48.60126" lon="1.9611">
        <ele>129.43</ele>
        <time>2019-12-19T08:46:04Z</time>
      </trkpt>
      <trkpt lat="48.60126" lon="1.96111">
        <ele>129.92</ele>
        <time>2019-12-19T08:46:05Z</time>
      </trkpt>
      <trkpt lat="48.60125" lon="1.96112">
        <ele>129.92</ele>
        <time>2019-12-19T08:46:06Z</time>
      </trkpt>
      <trkpt lat="48.60125" lon="1.96113">
        <ele>130.4</ele>
        <time>2019-12-19T08:46:07Z</time>
      </trkpt>
      <trkpt lat="48.60125" lon="1.96114">
        <ele>130.88</ele>
        <time>2019-12-19T08:46:08Z</time>
      </trkpt>
      <trkpt lat="48.60125" lon="1.96116">
        <ele>130.88</ele>
        <time>2019-12-19T08:46:09Z</time>
      </trkpt>
      <trkpt lat="48.60125" lon="1.96118">
        <ele>131.36</ele>
        <time>2019-12-19T08:46:10Z</time>
      </trkpt>
      <trkpt lat="48.60124" lon="1.96119">
        <ele>131.36</ele>
        <time>2019-12-19T08:46:11Z</time>
      </trkpt>
      <trkpt lat="48.60124" lon="1.9612">
        <ele>131.36</ele>
        <time>2019-12-19T08:46:12Z</time>
      </trkpt>
      <trkpt lat="48.60124" lon="1.96121">
        <ele>131.84</ele>
        <time>2019-12-19T08:46:13Z</time>
      </trkpt>
      <trkpt lat="48.60123" lon="1.96122">
        <ele>132.32</ele>
        <time>2019-12-19T08:46:14Z</time>
      </trkpt>
      <trkpt lat="48.60123" lon="1.96124">
        <ele>132.32</ele>
        <time>2019-12-19T08:46:15Z</time>
      </trkpt>
      <trkpt lat="48.60122" lon="1.96125">
        <ele>132.32</ele>
        <time>2019-12-19T08:46:16Z</time>
      </trkpt>
      <trkpt lat="48.60121" lon="1.96127">
        <ele>132.8</ele>
        <time>2019-12-19T08:46:17Z</time>
      </trkpt>
      <trkpt lat="48.6012" lon="1.96128">
        <ele>132.8</ele>
        <time>2019-12-19T08:46:18Z</time>
      </trkpt>
      <trkpt lat="48.60119" lon="1.9613">
        <ele>133.76</ele>
        <time>2019-12-19T08:46:19Z</time>
      </trkpt>
      <trkpt lat="48.60118" lon="1.96132">
        <ele>133.28</ele>
        <time>2019-12-19T08:46:20Z</time>
      </trkpt>
      <trkpt lat="48.60118" lon="1.96134">
        <ele>133.76</ele>
        <time>2019-12-19T08:46:21Z</time>
      </trkpt>
      <trkpt lat="48.60118" lon="1.96135">
        <ele>133.28</ele>
        <time>2019-12-19T08:46:22Z</time>
      </trkpt>
      <trkpt lat="48.60117" lon="1.96137">
        <ele>133.76</ele>
        <time>2019-12-19T08:46:23Z</time>
      </trkpt>
      <trkpt lat="48.60116" lon="1.96138">
        <ele>134.24</ele>
        <time>2019-12-19T08:46:24Z</time>
      </trkpt>
      <trkpt lat="48.60115" lon="1.9614">
        <ele>133.76</ele>
        <time>2019-12-19T08:46:25Z</time>
      </trkpt>
      <trkpt lat="48.60114" lon="1.96142">
        <ele>133.76</ele>
        <time>2019-12-19T08:46:26Z</time>
      </trkpt>
      <trkpt lat="48.60112" lon="1.96144">
        <ele>133.76</ele>
        <time>2019-12-19T08:46:27Z</time>
      </trkpt>
      <trkpt lat="48.60111" lon="1.96146">
        <ele>135.2</ele>
        <time>2019-12-19T08:46:28Z</time>
      </trkpt>
      <trkpt lat="48.60109" lon="1.96147">
        <ele>134.72</ele>
        <time>2019-12-19T08:46:29Z</time>
      </trkpt>
      <trkpt lat="48.60108" lon="1.96149">
        <ele>134.72</ele>
        <time>2019-12-19T08:46:30Z</time>
      </trkpt>
      <trkpt lat="48.60107" lon="1.9615">
        <ele>135.2</ele>
        <time>2019-12-19T08:46:31Z</time>
      </trkpt>
      <trkpt lat="48.60107" lon="1.96152">
        <ele>135.2</ele>
        <time>2019-12-19T08:46:32Z</time>
      </trkpt>
      <trkpt lat="48.60106" lon="1.96153">
        <ele>135.68</ele>
        <time>2019-12-19T08:46:33Z</time>
      </trkpt>
      <trkpt lat="48.60106" lon="1.96155">
        <ele>136.16</ele>
        <time>2019-12-19T08:46:34Z</time>
      </trkpt>
      <trkpt lat="48.60105" lon="1.96156">
        <ele>136.16</ele>
        <time>2019-12-19T08:46:35Z</time>
      </trkpt>
      <trkpt lat="48.60104" lon="1.96156">
        <ele>136.16</ele>
        <time>2019-12-19T08:46:36Z</time>
      </trkpt>
      <trkpt lat="48.60104" lon="1.96157">
        <ele>136.64</ele>
        <time>2019-12-19T08:46:37Z</time>
      </trkpt>
      <trkpt lat="48.60104" lon="1.96157">
        <ele>137.13</ele>
        <time>2019-12-19T08:46:38Z</time>
      </trkpt>
      <trkpt lat="48.60104" lon="1.96158">
        <ele>136.64</ele>
        <time>2019-12-19T08:46:39Z</time>
      </trkpt>
      <trkpt lat="48.60104" lon="1.96159">
        <ele>137.13</ele>
        <time>2019-12-19T08:46:40Z</time>
      </trkpt>
      <trkpt lat="48.60103" lon="1.9616">
        <ele>137.13</ele>
        <time>2019-12-19T08:46:41Z</time>
      </trkpt>
      <trkpt lat="48.60103" lon="1.96161">
        <ele>138.09</ele>
        <time>2019-12-19T08:46:42Z</time>
      </trkpt>
      <trkpt lat="48.60103" lon="1.96162">
        <ele>138.09</ele>
        <time>2019-12-19T08:46:43Z</time>
      </trkpt>
      <trkpt lat="48.60102" lon="1.96163">
        <ele>138.57</ele>
        <time>2019-12-19T08:46:44Z</time>
      </trkpt>
      <trkpt lat="48.60102" lon="1.96164">
        <ele>138.09</ele>
        <time>2019-12-19T08:46:45Z</time>
      </trkpt>
      <trkpt lat="48.60102" lon="1.96165">
        <ele>139.05</ele>
        <time>2019-12-19T08:46:46Z</time>
      </trkpt>
      <trkpt lat="48.60101" lon="1.96166">
        <ele>139.05</ele>
        <time>2019-12-19T08:46:47Z</time>
      </trkpt>
      <trkpt lat="48.601" lon="1.96168">
        <ele>139.53</ele>
        <time>2019-12-19T08:46:48Z</time>
      </trkpt>
      <trkpt lat="48.60099" lon="1.96169">
        <ele>139.53</ele>
        <time>2019-12-19T08:46:49Z</time>
      </trkpt>
      <trkpt lat="48.60098" lon="1.96171">
        <ele>140.01</ele>
        <time>2019-12-19T08:46:50Z</time>
      </trkpt>
      <trkpt lat="48.60098" lon="1.96172">
        <ele>140.01</ele>
        <time>2019-12-19T08:46:51Z</time>
      </trkpt>
      <trkpt lat="48.60097" lon="1.96173">
        <ele>140.01</ele>
        <time>2019-12-19T08:46:52Z</time>
      </trkpt>
      <trkpt lat="48.60097" lon="1.96174">
        <ele>140.49</ele>
        <time>2019-12-19T08:46:53Z</time>
      </trkpt>
      <trkpt lat="48.60096" lon="1.96176">
        <ele>140.49</ele>
        <time>2019-12-19T08:46:54Z</time>
      </trkpt>
      <trkpt lat="48.60095" lon="1.96177">
        <ele>141.45</ele>
        <time>2019-12-19T08:46:55Z</time>
      </trkpt>
      <trkpt lat="48.60094" lon="1.96178">
        <ele>141.45</ele>
        <time>2019-12-19T08:46:56Z</time>
      </trkpt>
      <trkpt lat="48.60094" lon="1.96179">
        <ele>141.45</ele>
        <time>2019-12-19T08:46:57Z</time>
      </trkpt>
      <trkpt lat="48.60093" lon="1.9618">
        <ele>141.93</ele>
        <time>2019-12-19T08:46:58Z</time>
      </trkpt>
      <trkpt lat="48.60092" lon="1.96181">
        <ele>141.93</ele>
        <time>2019-12-19T08:46:59Z</time>
      </trkpt>
      <trkpt lat="48.60092" lon="1.96181">
        <ele>142.41</ele>
        <time>2019-12-19T08:47:00Z</time>
      </trkpt>
      <trkpt lat="48.60091" lon="1.96182">
        <ele>142.89</ele>
        <time>2019-12-19T08:47:01Z</time>
      </trkpt>
      <trkpt lat="48.60091" lon="1.96184">
        <ele>142.89</ele>
        <time>2019-12-19T08:47:02Z</time>
      </trkpt>
      <trkpt lat="48.6009" lon="1.96186">
        <ele>143.37</ele>
        <time>2019-12-19T08:47:03Z</time>
      </trkpt>
      <trkpt lat="48.60089" lon="1.96186">
        <ele>142.89</ele>
        <time>2019-12-19T08:47:04Z</time>
      </trkpt>
      <trkpt lat="48.60089" lon="1.96187">
        <ele>143.85</ele>
        <time>2019-12-19T08:47:05Z</time>
      </trkpt>
      <trkpt lat="48.60088" lon="1.96188">
        <ele>143.85</ele>
        <time>2019-12-19T08:47:06Z</time>
      </trkpt>
      <trkpt lat="48.60088" lon="1.9619">
        <ele>144.34</ele>
        <time>2019-12-19T08:47:07Z</time>
      </trkpt>
      <trkpt lat="48.60087" lon="1.96192">
        <ele>144.34</ele>
        <time>2019-12-19T08:47:08Z</time>
      </trkpt>
      <trkpt lat="48.60087" lon="1.96194">
        <ele>144.34</ele>
        <time>2019-12-19T08:47:09Z</time>
      </trkpt>
      <trkpt lat="48.60086" lon="1.96195">
        <ele>145.3</ele>
        <time>2019-12-19T08:47:10Z</time>
      </trkpt>
      <trkpt lat="48.60086" lon="1.96196">
        <ele>145.3</ele>
        <time>2019-12-19T08:47:11Z</time>
      </trkpt>
      <trkpt lat="48.60085" lon="1.96197">
        <ele>145.78</ele>
        <time>2019-12-19T08:47:12Z</time>
      </trkpt>
      <trkpt lat="48.60085" lon="1.96198">
        <ele>145.78</ele>
        <time>2019-12-19T08:47:13Z</time>
      </trkpt>
      <trkpt lat="48.60084" lon="1.962">
        <ele>146.26</ele>
        <time>2019-12-19T08:47:14Z</time>
      </trkpt>
      <trkpt lat="48.60084" lon="1.96201">
        <ele>146.74</ele>
        <time>2019-12-19T08:47:15Z</time>
      </trkpt>
      <trkpt lat="48.60083" lon="1.96201">
        <ele>146.74</ele>
        <time>2019-12-19T08:47:16Z</time>
      </trkpt>
      <trkpt lat="48.60083" lon="1.96202">
        <ele>146.74</ele>
        <time>2019-12-19T08:47:17Z</time>
      </trkpt>
      <trkpt lat="48.60083" lon="1.96204">
        <ele>147.7</ele>
        <time>2019-12-19T08:47:18Z</time>
      </trkpt>
      <trkpt lat="48.60082" lon="1.96205">
        <ele>147.7</ele>
        <time>2019-12-19T08:47:19Z</time>
      </trkpt>
      <trkpt lat="48.60082" lon="1.96206">
        <ele>148.18</ele>
        <time>2019-12-19T08:47:20Z</time>
      </trkpt>
      <trkpt lat="48.60081" lon="1.96207">
        <ele>147.7</ele>
        <time>2019-12-19T08:47:21Z</time>
      </trkpt>
      <trkpt lat="48.60081" lon="1.96207">
        <ele>148.66</ele>
        <time>2019-12-19T08:47:22Z</time>
      </trkpt>
      <trkpt lat="48.6008" lon="1.96208">
        <ele>148.66</ele>
        <time>2019-12-19T08:47:23Z</time>
      </trkpt>
      <trkpt lat="48.6008" lon="1.9621">
        <ele>149.14</ele>
        <time>2019-12-19T08:47:24Z</time>
      </trkpt>
      <trkpt lat="48.60079" lon="1.96211">
        <ele>148.66</ele>
        <time>2019-12-19T08:47:25Z</time>
      </trkpt>
      <trkpt lat="48.60079" lon="1.96212">
        <ele>149.14</ele>
        <time>2019-12-19T08:47:26Z</time>
      </trkpt>
      <trkpt lat="48.60079" lon="1.96214">
        <ele>149.62</ele>
        <time>2019-12-19T08:47:27Z</time>
      </trkpt>
      <trkpt lat="48.60078" lon="1.96216">
        <ele>149.62</ele>
        <time>2019-12-19T08:47:28Z</time>
      </trkpt>
      <trkpt lat="48.60078" lon="1.96217">
        <ele>151.54</ele>
        <time>2019-12-19T08:47:29Z</time>
      </trkpt>
      <trkpt lat="48.60077" lon="1.96218">
        <ele>150.1</ele>
        <time>2019-12-19T08:47:30Z</time>
      </trkpt>
      <trkpt lat="48.60077" lon="1.96219">
        <ele>150.1</ele>
        <time>2019-12-19T08:47:31Z</time>
      </trkpt>
      <trkpt lat="48.60077" lon="1.96221">
        <ele>150.58</ele>
        <time>2019-12-19T08:47:32Z</time>
      </trkpt>
      <trkpt lat="48.60076" lon="1.96222">
        <ele>150.58</ele>
        <time>2019-12-19T08:47:33Z</time>
      </trkpt>
      <trkpt lat="48.60075" lon="1.96223">
        <ele>150.58</ele>
        <time>2019-12-19T08:47:34Z</time>
      </trkpt>
      <trkpt lat="48.60075" lon="1.96224">
        <ele>151.06</ele>
        <time>2019-12-19T08:47:35Z</time>
      </trkpt>
      <trkpt lat="48.60075" lon="1.96225">
        <ele>151.06</ele>
        <time>2019-12-19T08:47:36Z</time>
      </trkpt>
      <trkpt lat="48.60074" lon="1.96227">
        <ele>151.06</ele>
        <time>2019-12-19T08:47:37Z</time>
      </trkpt>
      <trkpt lat="48.60073" lon="1.96228">
        <ele>151.54</ele>
        <time>2019-12-19T08:47:38Z</time>
      </trkpt>
      <trkpt lat="48.60072" lon="1.96229">
        <ele>151.06</ele>
        <time>2019-12-19T08:47:39Z</time>
      </trkpt>
      <trkpt lat="48.60072" lon="1.96231">
        <ele>151.54</ele>
        <time>2019-12-19T08:47:40Z</time>
      </trkpt>
      <trkpt lat="48.60071" lon="1.96232">
        <ele>151.54</ele>
        <time>2019-12-19T08:47:41Z</time>
      </trkpt>
      <trkpt lat="48.6007" lon="1.96233">
        <ele>151.54</ele>
        <time>2019-12-19T08:47:42Z</time>
      </trkpt>
      <trkpt lat="48.6007" lon="1.96234">
        <ele>152.03</ele>
        <time>2019-12-19T08:47:43Z</time>
      </trkpt>
      <trkpt lat="48.60069" lon="1.96236">
        <ele>152.03</ele>
        <time>2019-12-19T08:47:44Z</time>
      </trkpt>
      <trkpt lat="48.60068" lon="1.96236">
        <ele>152.03</ele>
        <time>2019-12-19T08:47:45Z</time>
      </trkpt>
      <trkpt lat="48.60068" lon="1.96237">
        <ele>152.03</ele>
        <time>2019-12-19T08:47:46Z</time>
      </trkpt>
      <trkpt lat="48.60067" lon="1.96238">
        <ele>152.03</ele>
        <time>2019-12-19T08:47:47Z</time>
      </trkpt>
      <trkpt lat="48.60066" lon="1.96239">
        <ele>152.03</ele>
        <time>2019-12-19T08:47:48Z</time>
      </trkpt>
      <trkpt lat="48.60066" lon="1.96239">
        <ele>152.51</ele>
        <time>2019-12-19T08:47:49Z</time>
      </trkpt>
      <trkpt lat="48.60066" lon="1.96239">
        <ele>152.51</ele>
        <time>2019-12-19T08:47:50Z</time>
      </trkpt>
      <trkpt lat="48.60065" lon="1.96239">
        <ele>152.51</ele>
        <time>2019-12-19T08:47:51Z</time>
      </trkpt>
      <trkpt lat="48.60065" lon="1.96239">
        <ele>152.51</ele>
        <time>2019-12-19T08:47:52Z</time>
      </trkpt>
      <trkpt lat="48.60065" lon="1.9624">
        <ele>152.51</ele>
        <time>2019-12-19T08:47:53Z</time>
      </trkpt>
      <trkpt lat="48.60065" lon="1.9624">
        <ele>152.51</ele>
        <time>2019-12-19T08:47:54Z</time>
      </trkpt>
      <trkpt lat="48.60064" lon="1.96241">
        <ele>152.51</ele>
        <time>2019-12-19T08:47:55Z</time>
      </trkpt>
      <trkpt lat="48.60064" lon="1.96242">
        <ele>152.51</ele>
        <time>2019-12-19T08:47:56Z</time>
      </trkpt>
      <trkpt lat="48.60064" lon="1.96243">
        <ele>152.51</ele>
        <time>2019-12-19T08:47:57Z</time>
      </trkpt>
      <trkpt lat="48.60063" lon="1.96243">
        <ele>152.51</ele>
        <time>2019-12-19T08:47:58Z</time>
      </trkpt>
      <trkpt lat="48.60063" lon="1.96242">
        <ele>152.51</ele>
        <time>2019-12-19T08:47:59Z</time>
      </trkpt>
      <trkpt lat="48.60062" lon="1.96242">
        <ele>152.51</ele>
        <time>2019-12-19T08:48:00Z</time>
      </trkpt>
      <trkpt lat="48.60062" lon="1.96241">
        <ele>152.51</ele>
        <time>2019-12-19T08:48:01Z</time>
      </trkpt>
      <trkpt lat="48.60061" lon="1.96241">
        <ele>152.51</ele>
        <time>2019-12-19T08:48:02Z</time>
      </trkpt>
      <trkpt lat="48.60061" lon="1.96241">
        <ele>152.51</ele>
        <time>2019-12-19T08:48:03Z</time>
      </trkpt>
      <trkpt lat="48.60061" lon="1.96241">
        <ele>152.51</ele>
        <time>2019-12-19T08:48:04Z</time>
      </trkpt>
      <trkpt lat="48.60061" lon="1.96241">
        <ele>152.99</ele>
        <time>2019-12-19T08:48:05Z</time>
      </trkpt>
      <trkpt lat="48.60061" lon="1.96241">
        <ele>152.51</ele>
        <time>2019-12-19T08:48:06Z</time>
      </trkpt>
      <trkpt lat="48.60061" lon="1.96241">
        <ele>152.51</ele>
        <time>2019-12-19T08:48:07Z</time>
      </trkpt>
      <trkpt lat="48.6006" lon="1.96242">
        <ele>152.51</ele>
        <time>2019-12-19T08:48:11Z</time>
      </trkpt>
      <trkpt lat="48.6006" lon="1.96242">
        <ele>152.51</ele>
        <time>2019-12-19T08:48:12Z</time>
      </trkpt>
      <trkpt lat="48.6006" lon="1.96242">
        <ele>152.99</ele>
        <time>2019-12-19T08:48:13Z</time>
      </trkpt>
      <trkpt lat="48.6006" lon="1.96242">
        <ele>152.51</ele>
        <time>2019-12-19T08:48:18Z</time>
      </trkpt>
      <trkpt lat="48.6006" lon="1.96242">
        <ele>152.51</ele>
        <time>2019-12-19T08:48:19Z</time>
      </trkpt>
      <trkpt lat="48.6006" lon="1.96242">
        <ele>152.51</ele>
        <time>2019-12-19T08:48:20Z</time>
      </trkpt>
      <trkpt lat="48.6006" lon="1.96242">
        <ele>152.51</ele>
        <time>2019-12-19T08:48:21Z</time>
      </trkpt>
      <trkpt lat="48.6006" lon="1.96242">
        <ele>152.51</ele>
        <time>2019-12-19T08:48:27Z</time>
      </trkpt>
      <trkpt lat="48.6006" lon="1.96242">
        <ele>152.51</ele>
        <time>2019-12-19T08:48:28Z</time>
      </trkpt>
      <trkpt lat="48.6006" lon="1.96242">
        <ele>152.51</ele>
        <time>2019-12-19T08:48:29Z</time>
      </trkpt>
      <trkpt lat="48.6006" lon="1.96242">
        <ele>152.51</ele>
        <time>2019-12-19T08:48:30Z</time>
      </trkpt>
      <trkpt lat="48.60059" lon="1.96242">
        <ele>152.51</ele>
        <time>2019-12-19T08:48:36Z</time>
      </trkpt>
      <trkpt lat="48.60059" lon="1.96242">
        <ele>152.51</ele>
        <time>2019-12-19T08:48:37Z</time>
      </trkpt>
      <trkpt lat="48.60059" lon="1.96242">
        <ele>152.51</ele>
        <time>2019-12-19T08:48:38Z</time>
      </trkpt>
      <trkpt lat="48.60059" lon="1.96242">
        <ele>152.51</ele>
        <time>2019-12-19T08:48:39Z</time>
      </trkpt>
      <trkpt lat="48.60059" lon="1.96243">
        <ele>152.51</ele>
        <time>2019-12-19T08:48:40Z</time>
      </trkpt>
      <trkpt lat="48.60058" lon="1.96245">
        <ele>152.51</ele>
        <time>2019-12-19T08:48:41Z</time>
      </trkpt>
      <trkpt lat="48.60058" lon="1.96245">
        <ele>152.99</ele>
        <time>2019-12-19T08:48:42Z</time>
      </trkpt>
      <trkpt lat="48.60057" lon="1.96246">
        <ele>152.99</ele>
        <time>2019-12-19T08:48:43Z</time>
      </trkpt>
      <trkpt lat="48.60057" lon="1.96247">
        <ele>152.51</ele>
        <time>2019-12-19T08:48:44Z</time>
      </trkpt>
      <trkpt lat="48.60056" lon="1.96249">
        <ele>152.51</ele>
        <time>2019-12-19T08:48:45Z</time>
      </trkpt>
      <trkpt lat="48.60056" lon="1.96251">
        <ele>152.51</ele>
        <time>2019-12-19T08:48:46Z</time>
      </trkpt>
      <trkpt lat="48.60055" lon="1.96253">
        <ele>152.03</ele>
        <time>2019-12-19T08:48:47Z</time>
      </trkpt>
      <trkpt lat="48.60054" lon="1.96254">
        <ele>152.03</ele>
        <time>2019-12-19T08:48:48Z</time>
      </trkpt>
      <trkpt lat="48.60053" lon="1.96255">
        <ele>152.03</ele>
        <time>2019-12-19T08:48:49Z</time>
      </trkpt>
      <trkpt lat="48.60053" lon="1.96256">
        <ele>151.54</ele>
        <time>2019-12-19T08:48:50Z</time>
      </trkpt>
      <trkpt lat="48.60052" lon="1.96257">
        <ele>151.54</ele>
        <time>2019-12-19T08:48:51Z</time>
      </trkpt>
      <trkpt lat="48.60051" lon="1.96258">
        <ele>151.54</ele>
        <time>2019-12-19T08:48:52Z</time>
      </trkpt>
      <trkpt lat="48.6005" lon="1.96259">
        <ele>151.54</ele>
        <time>2019-12-19T08:48:53Z</time>
      </trkpt>
      <trkpt lat="48.6005" lon="1.96261">
        <ele>151.06</ele>
        <time>2019-12-19T08:48:54Z</time>
      </trkpt>
      <trkpt lat="48.60049" lon="1.96262">
        <ele>151.06</ele>
        <time>2019-12-19T08:48:55Z</time>
      </trkpt>
      <trkpt lat="48.60048" lon="1.96263">
        <ele>151.06</ele>
        <time>2019-12-19T08:48:56Z</time>
      </trkpt>
      <trkpt lat="48.60047" lon="1.96265">
        <ele>151.06</ele>
        <time>2019-12-19T08:48:57Z</time>
      </trkpt>
      <trkpt lat="48.60047" lon="1.96266">
        <ele>150.58</ele>
        <time>2019-12-19T08:48:58Z</time>
      </trkpt>
      <trkpt lat="48.60046" lon="1.96267">
        <ele>150.58</ele>
        <time>2019-12-19T08:48:59Z</time>
      </trkpt>
      <trkpt lat="48.60045" lon="1.96269">
        <ele>150.58</ele>
        <time>2019-12-19T08:49:00Z</time>
      </trkpt>
      <trkpt lat="48.60044" lon="1.96271">
        <ele>150.1</ele>
        <time>2019-12-19T08:49:01Z</time>
      </trkpt>
      <trkpt lat="48.60044" lon="1.96272">
        <ele>150.58</ele>
        <time>2019-12-19T08:49:02Z</time>
      </trkpt>
      <trkpt lat="48.60044" lon="1.96274">
        <ele>150.58</ele>
        <time>2019-12-19T08:49:03Z</time>
      </trkpt>
      <trkpt lat="48.60044" lon="1.96276">
        <ele>150.1</ele>
        <time>2019-12-19T08:49:04Z</time>
      </trkpt>
      <trkpt lat="48.60042" lon="1.96278">
        <ele>150.1</ele>
        <time>2019-12-19T08:49:05Z</time>
      </trkpt>
      <trkpt lat="48.6004" lon="1.9628">
        <ele>150.1</ele>
        <time>2019-12-19T08:49:06Z</time>
      </trkpt>
      <trkpt lat="48.60038" lon="1.96282">
        <ele>150.1</ele>
        <time>2019-12-19T08:49:07Z</time>
      </trkpt>
      <trkpt lat="48.60037" lon="1.96284">
        <ele>150.1</ele>
        <time>2019-12-19T08:49:08Z</time>
      </trkpt>
      <trkpt lat="48.60037" lon="1.96286">
        <ele>150.1</ele>
        <time>2019-12-19T08:49:09Z</time>
      </trkpt>
      <trkpt lat="48.60036" lon="1.96288">
        <ele>150.58</ele>
        <time>2019-12-19T08:49:10Z</time>
      </trkpt>
      <trkpt lat="48.60036" lon="1.9629">
        <ele>150.1</ele>
        <time>2019-12-19T08:49:11Z</time>
      </trkpt>
      <trkpt lat="48.60035" lon="1.96291">
        <ele>150.58</ele>
        <time>2019-12-19T08:49:12Z</time>
      </trkpt>
      <trkpt lat="48.60035" lon="1.96293">
        <ele>150.58</ele>
        <time>2019-12-19T08:49:13Z</time>
      </trkpt>
      <trkpt lat="48.60034" lon="1.96295">
        <ele>151.06</ele>
        <time>2019-12-19T08:49:14Z</time>
      </trkpt>
      <trkpt lat="48.60034" lon="1.96296">
        <ele>151.06</ele>
        <time>2019-12-19T08:49:15Z</time>
      </trkpt>
      <trkpt lat="48.60033" lon="1.96298">
        <ele>151.06</ele>
        <time>2019-12-19T08:49:16Z</time>
      </trkpt>
      <trkpt lat="48.60032" lon="1.96301">
        <ele>151.06</ele>
        <time>2019-12-19T08:49:17Z</time>
      </trkpt>
      <trkpt lat="48.60032" lon="1.96303">
        <ele>151.54</ele>
        <time>2019-12-19T08:49:18Z</time>
      </trkpt>
      <trkpt lat="48.60031" lon="1.96305">
        <ele>151.54</ele>
        <time>2019-12-19T08:49:19Z</time>
      </trkpt>
      <trkpt lat="48.6003" lon="1.96307">
        <ele>151.54</ele>
        <time>2019-12-19T08:49:20Z</time>
      </trkpt>
      <trkpt lat="48.60029" lon="1.96309">
        <ele>151.54</ele>
        <time>2019-12-19T08:49:21Z</time>
      </trkpt>
      <trkpt lat="48.60029" lon="1.96311">
        <ele>152.03</ele>
        <time>2019-12-19T08:49:22Z</time>
      </trkpt>
      <trkpt lat="48.60028" lon="1.96312">
        <ele>152.03</ele>
        <time>2019-12-19T08:49:23Z</time>
      </trkpt>
      <trkpt lat="48.60027" lon="1.96314">
        <ele>152.03</ele>
        <time>2019-12-19T08:49:24Z</time>
      </trkpt>
      <trkpt lat="48.60026" lon="1.96315">
        <ele>152.03</ele>
        <time>2019-12-19T08:49:25Z</time>
      </trkpt>
      <trkpt lat="48.60025" lon="1.96317">
        <ele>152.03</ele>
        <time>2019-12-19T08:49:26Z</time>
      </trkpt>
      <trkpt lat="48.60025" lon="1.96319">
        <ele>152.03</ele>
        <time>2019-12-19T08:49:27Z</time>
      </trkpt>
      <trkpt lat="48.60024" lon="1.9632">
        <ele>152.03</ele>
        <time>2019-12-19T08:49:28Z</time>
      </trkpt>
      <trkpt lat="48.60023" lon="1.96321">
        <ele>152.99</ele>
        <time>2019-12-19T08:49:29Z</time>
      </trkpt>
      <trkpt lat="48.60022" lon="1.96323">
        <ele>152.03</ele>
        <time>2019-12-19T08:49:30Z</time>
      </trkpt>
      <trkpt lat="48.60022" lon="1.96324">
        <ele>152.03</ele>
        <time>2019-12-19T08:49:31Z</time>
      </trkpt>
      <trkpt lat="48.60021" lon="1.96326">
        <ele>152.03</ele>
        <time>2019-12-19T08:49:32Z</time>
      </trkpt>
      <trkpt lat="48.6002" lon="1.96327">
        <ele>152.03</ele>
        <time>2019-12-19T08:49:33Z</time>
      </trkpt>
      <trkpt lat="48.6002" lon="1.96329">
        <ele>152.03</ele>
        <time>2019-12-19T08:49:34Z</time>
      </trkpt>
      <trkpt lat="48.60018" lon="1.9633">
        <ele>152.03</ele>
        <time>2019-12-19T08:49:35Z</time>
      </trkpt>
      <trkpt lat="48.60017" lon="1.96332">
        <ele>151.54</ele>
        <time>2019-12-19T08:49:36Z</time>
      </trkpt>
      <trkpt lat="48.60016" lon="1.96334">
        <ele>151.54</ele>
        <time>2019-12-19T08:49:37Z</time>
      </trkpt>
      <trkpt lat="48.60015" lon="1.96335">
        <ele>151.54</ele>
        <time>2019-12-19T08:49:38Z</time>
      </trkpt>
      <trkpt lat="48.60015" lon="1.96336">
        <ele>151.54</ele>
        <time>2019-12-19T08:49:39Z</time>
      </trkpt>
      <trkpt lat="48.60014" lon="1.96337">
        <ele>151.54</ele>
        <time>2019-12-19T08:49:40Z</time>
      </trkpt>
      <trkpt lat="48.60014" lon="1.96339">
        <ele>151.54</ele>
        <time>2019-12-19T08:49:41Z</time>
      </trkpt>
      <trkpt lat="48.60013" lon="1.9634">
        <ele>151.54</ele>
        <time>2019-12-19T08:49:42Z</time>
      </trkpt>
      <trkpt lat="48.60013" lon="1.96342">
        <ele>151.54</ele>
        <time>2019-12-19T08:49:43Z</time>
      </trkpt>
      <trkpt lat="48.60012" lon="1.96343">
        <ele>151.54</ele>
        <time>2019-12-19T08:49:44Z</time>
      </trkpt>
      <trkpt lat="48.60011" lon="1.96345">
        <ele>151.06</ele>
        <time>2019-12-19T08:49:45Z</time>
      </trkpt>
      <trkpt lat="48.6001" lon="1.96346">
        <ele>151.06</ele>
        <time>2019-12-19T08:49:46Z</time>
      </trkpt>
      <trkpt lat="48.60008" lon="1.96348">
        <ele>151.06</ele>
        <time>2019-12-19T08:49:47Z</time>
      </trkpt>
      <trkpt lat="48.60007" lon="1.9635">
        <ele>151.06</ele>
        <time>2019-12-19T08:49:48Z</time>
      </trkpt>
      <trkpt lat="48.60006" lon="1.96352">
        <ele>151.06</ele>
        <time>2019-12-19T08:49:49Z</time>
      </trkpt>
      <trkpt lat="48.60005" lon="1.96354">
        <ele>150.58</ele>
        <time>2019-12-19T08:49:50Z</time>
      </trkpt>
      <trkpt lat="48.60004" lon="1.96355">
        <ele>150.58</ele>
        <time>2019-12-19T08:49:51Z</time>
      </trkpt>
      <trkpt lat="48.60003" lon="1.96357">
        <ele>150.58</ele>
        <time>2019-12-19T08:49:52Z</time>
      </trkpt>
      <trkpt lat="48.60002" lon="1.96358">
        <ele>150.1</ele>
        <time>2019-12-19T08:49:53Z</time>
      </trkpt>
      <trkpt lat="48.60002" lon="1.9636">
        <ele>150.1</ele>
        <time>2019-12-19T08:49:54Z</time>
      </trkpt>
      <trkpt lat="48.60001" lon="1.96361">
        <ele>149.62</ele>
        <time>2019-12-19T08:49:55Z</time>
      </trkpt>
      <trkpt lat="48.60001" lon="1.96362">
        <ele>149.62</ele>
        <time>2019-12-19T08:49:56Z</time>
      </trkpt>
      <trkpt lat="48.6" lon="1.96364">
        <ele>149.14</ele>
        <time>2019-12-19T08:49:57Z</time>
      </trkpt>
      <trkpt lat="48.6" lon="1.96365">
        <ele>149.14</ele>
        <time>2019-12-19T08:49:58Z</time>
      </trkpt>
      <trkpt lat="48.59999" lon="1.96367">
        <ele>148.66</ele>
        <time>2019-12-19T08:49:59Z</time>
      </trkpt>
      <trkpt lat="48.59999" lon="1.96368">
        <ele>148.66</ele>
        <time>2019-12-19T08:50:00Z</time>
      </trkpt>
      <trkpt lat="48.59998" lon="1.96369">
        <ele>148.18</ele>
        <time>2019-12-19T08:50:01Z</time>
      </trkpt>
      <trkpt lat="48.59997" lon="1.96371">
        <ele>148.18</ele>
        <time>2019-12-19T08:50:02Z</time>
      </trkpt>
      <trkpt lat="48.59996" lon="1.96372">
        <ele>147.7</ele>
        <time>2019-12-19T08:50:03Z</time>
      </trkpt>
      <trkpt lat="48.59996" lon="1.96373">
        <ele>147.7</ele>
        <time>2019-12-19T08:50:04Z</time>
      </trkpt>
      <trkpt lat="48.59995" lon="1.96375">
        <ele>147.22</ele>
        <time>2019-12-19T08:50:05Z</time>
      </trkpt>
      <trkpt lat="48.59994" lon="1.96377">
        <ele>147.22</ele>
        <time>2019-12-19T08:50:06Z</time>
      </trkpt>
      <trkpt lat="48.59994" lon="1.96379">
        <ele>146.74</ele>
        <time>2019-12-19T08:50:07Z</time>
      </trkpt>
      <trkpt lat="48.59993" lon="1.9638">
        <ele>146.74</ele>
        <time>2019-12-19T08:50:08Z</time>
      </trkpt>
      <trkpt lat="48.59993" lon="1.96383">
        <ele>146.74</ele>
        <time>2019-12-19T08:50:09Z</time>
      </trkpt>
      <trkpt lat="48.59992" lon="1.96385">
        <ele>146.26</ele>
        <time>2019-12-19T08:50:10Z</time>
      </trkpt>
      <trkpt lat="48.59992" lon="1.96387">
        <ele>146.26</ele>
        <time>2019-12-19T08:50:11Z</time>
      </trkpt>
      <trkpt lat="48.59991" lon="1.96388">
        <ele>145.78</ele>
        <time>2019-12-19T08:50:12Z</time>
      </trkpt>
      <trkpt lat="48.59991" lon="1.96389">
        <ele>145.78</ele>
        <time>2019-12-19T08:50:13Z</time>
      </trkpt>
      <trkpt lat="48.5999" lon="1.96391">
        <ele>145.78</ele>
        <time>2019-12-19T08:50:14Z</time>
      </trkpt>
      <trkpt lat="48.5999" lon="1.96393">
        <ele>145.3</ele>
        <time>2019-12-19T08:50:15Z</time>
      </trkpt>
      <trkpt lat="48.59989" lon="1.96394">
        <ele>145.3</ele>
        <time>2019-12-19T08:50:16Z</time>
      </trkpt>
      <trkpt lat="48.59989" lon="1.96395">
        <ele>145.3</ele>
        <time>2019-12-19T08:50:17Z</time>
      </trkpt>
      <trkpt lat="48.59988" lon="1.96397">
        <ele>144.82</ele>
        <time>2019-12-19T08:50:18Z</time>
      </trkpt>
      <trkpt lat="48.59988" lon="1.96399">
        <ele>144.82</ele>
        <time>2019-12-19T08:50:19Z</time>
      </trkpt>
      <trkpt lat="48.59988" lon="1.964">
        <ele>144.82</ele>
        <time>2019-12-19T08:50:20Z</time>
      </trkpt>
      <trkpt lat="48.59987" lon="1.96402">
        <ele>144.34</ele>
        <time>2019-12-19T08:50:21Z</time>
      </trkpt>
      <trkpt lat="48.59987" lon="1.96402">
        <ele>144.34</ele>
        <time>2019-12-19T08:50:22Z</time>
      </trkpt>
      <trkpt lat="48.59986" lon="1.96403">
        <ele>143.85</ele>
        <time>2019-12-19T08:50:23Z</time>
      </trkpt>
      <trkpt lat="48.59985" lon="1.96405">
        <ele>143.85</ele>
        <time>2019-12-19T08:50:24Z</time>
      </trkpt>
      <trkpt lat="48.59984" lon="1.96406">
        <ele>143.85</ele>
        <time>2019-12-19T08:50:25Z</time>
      </trkpt>
      <trkpt lat="48.59983" lon="1.96408">
        <ele>143.37</ele>
        <time>2019-12-19T08:50:26Z</time>
      </trkpt>
      <trkpt lat="48.59982" lon="1.9641">
        <ele>142.89</ele>
        <time>2019-12-19T08:50:27Z</time>
      </trkpt>
      <trkpt lat="48.59981" lon="1.96411">
        <ele>142.89</ele>
        <time>2019-12-19T08:50:28Z</time>
      </trkpt>
      <trkpt lat="48.59981" lon="1.96412">
        <ele>142.89</ele>
        <time>2019-12-19T08:50:29Z</time>
      </trkpt>
      <trkpt lat="48.5998" lon="1.96413">
        <ele>142.89</ele>
        <time>2019-12-19T08:50:30Z</time>
      </trkpt>
      <trkpt lat="48.5998" lon="1.96414">
        <ele>142.41</ele>
        <time>2019-12-19T08:50:31Z</time>
      </trkpt>
      <trkpt lat="48.59978" lon="1.96416">
        <ele>142.41</ele>
        <time>2019-12-19T08:50:32Z</time>
      </trkpt>
      <trkpt lat="48.59977" lon="1.96418">
        <ele>142.41</ele>
        <time>2019-12-19T08:50:33Z</time>
      </trkpt>
      <trkpt lat="48.59977" lon="1.9642">
        <ele>142.41</ele>
        <time>2019-12-19T08:50:34Z</time>
      </trkpt>
      <trkpt lat="48.59976" lon="1.96423">
        <ele>142.41</ele>
        <time>2019-12-19T08:50:35Z</time>
      </trkpt>
      <trkpt lat="48.59975" lon="1.96425">
        <ele>141.93</ele>
        <time>2019-12-19T08:50:36Z</time>
      </trkpt>
      <trkpt lat="48.59975" lon="1.96426">
        <ele>141.93</ele>
        <time>2019-12-19T08:50:37Z</time>
      </trkpt>
      <trkpt lat="48.59974" lon="1.96428">
        <ele>141.93</ele>
        <time>2019-12-19T08:50:38Z</time>
      </trkpt>
      <trkpt lat="48.59973" lon="1.9643">
        <ele>141.93</ele>
        <time>2019-12-19T08:50:39Z</time>
      </trkpt>
      <trkpt lat="48.59972" lon="1.96433">
        <ele>141.93</ele>
        <time>2019-12-19T08:50:40Z</time>
      </trkpt>
      <trkpt lat="48.59971" lon="1.96435">
        <ele>141.93</ele>
        <time>2019-12-19T08:50:41Z</time>
      </trkpt>
      <trkpt lat="48.5997" lon="1.96437">
        <ele>141.45</ele>
        <time>2019-12-19T08:50:42Z</time>
      </trkpt>
      <trkpt lat="48.59969" lon="1.96439">
        <ele>141.45</ele>
        <time>2019-12-19T08:50:43Z</time>
      </trkpt>
      <trkpt lat="48.59968" lon="1.96441">
        <ele>141.45</ele>
        <time>2019-12-19T08:50:44Z</time>
      </trkpt>
      <trkpt lat="48.59967" lon="1.96443">
        <ele>141.45</ele>
        <time>2019-12-19T08:50:45Z</time>
      </trkpt>
      <trkpt lat="48.59966" lon="1.96446">
        <ele>141.45</ele>
        <time>2019-12-19T08:50:46Z</time>
      </trkpt>
      <trkpt lat="48.59964" lon="1.96448">
        <ele>141.45</ele>
        <time>2019-12-19T08:50:47Z</time>
      </trkpt>
      <trkpt lat="48.59963" lon="1.96449">
        <ele>141.45</ele>
        <time>2019-12-19T08:50:48Z</time>
      </trkpt>
      <trkpt lat="48.59962" lon="1.96451">
        <ele>141.93</ele>
        <time>2019-12-19T08:50:49Z</time>
      </trkpt>
      <trkpt lat="48.59961" lon="1.96453">
        <ele>141.93</ele>
        <time>2019-12-19T08:50:50Z</time>
      </trkpt>
      <trkpt lat="48.59959" lon="1.96455">
        <ele>141.93</ele>
        <time>2019-12-19T08:50:51Z</time>
      </trkpt>
      <trkpt lat="48.59958" lon="1.96457">
        <ele>141.93</ele>
        <time>2019-12-19T08:50:52Z</time>
      </trkpt>
      <trkpt lat="48.59957" lon="1.96459">
        <ele>142.41</ele>
        <time>2019-12-19T08:50:53Z</time>
      </trkpt>
      <trkpt lat="48.59956" lon="1.96461">
        <ele>142.41</ele>
        <time>2019-12-19T08:50:54Z</time>
      </trkpt>
      <trkpt lat="48.59955" lon="1.96463">
        <ele>142.41</ele>
        <time>2019-12-19T08:50:55Z</time>
      </trkpt>
      <trkpt lat="48.59954" lon="1.96465">
        <ele>142.89</ele>
        <time>2019-12-19T08:50:56Z</time>
      </trkpt>
      <trkpt lat="48.59953" lon="1.96466">
        <ele>142.89</ele>
        <time>2019-12-19T08:50:57Z</time>
      </trkpt>
      <trkpt lat="48.59952" lon="1.96467">
        <ele>142.89</ele>
        <time>2019-12-19T08:50:58Z</time>
      </trkpt>
      <trkpt lat="48.59952" lon="1.96469">
        <ele>142.89</ele>
        <time>2019-12-19T08:50:59Z</time>
      </trkpt>
      <trkpt lat="48.59952" lon="1.96471">
        <ele>142.89</ele>
        <time>2019-12-19T08:51:00Z</time>
      </trkpt>
      <trkpt lat="48.59951" lon="1.96472">
        <ele>142.89</ele>
        <time>2019-12-19T08:51:01Z</time>
      </trkpt>
      <trkpt lat="48.59951" lon="1.96474">
        <ele>142.89</ele>
        <time>2019-12-19T08:51:02Z</time>
      </trkpt>
      <trkpt lat="48.59951" lon="1.96477">
        <ele>143.37</ele>
        <time>2019-12-19T08:51:03Z</time>
      </trkpt>
      <trkpt lat="48.5995" lon="1.96479">
        <ele>143.37</ele>
        <time>2019-12-19T08:51:04Z</time>
      </trkpt>
      <trkpt lat="48.5995" lon="1.96481">
        <ele>143.37</ele>
        <time>2019-12-19T08:51:05Z</time>
      </trkpt>
      <trkpt lat="48.59949" lon="1.96483">
        <ele>143.37</ele>
        <time>2019-12-19T08:51:06Z</time>
      </trkpt>
      <trkpt lat="48.5995" lon="1.96485">
        <ele>143.37</ele>
        <time>2019-12-19T08:51:07Z</time>
      </trkpt>
      <trkpt lat="48.5995" lon="1.96487">
        <ele>143.85</ele>
        <time>2019-12-19T08:51:08Z</time>
      </trkpt>
      <trkpt lat="48.5995" lon="1.96489">
        <ele>143.85</ele>
        <time>2019-12-19T08:51:09Z</time>
      </trkpt>
      <trkpt lat="48.5995" lon="1.96491">
        <ele>144.34</ele>
        <time>2019-12-19T08:51:10Z</time>
      </trkpt>
      <trkpt lat="48.5995" lon="1.96492">
        <ele>143.85</ele>
        <time>2019-12-19T08:51:11Z</time>
      </trkpt>
      <trkpt lat="48.59949" lon="1.96493">
        <ele>143.85</ele>
        <time>2019-12-19T08:51:12Z</time>
      </trkpt>
      <trkpt lat="48.59949" lon="1.96494">
        <ele>144.34</ele>
        <time>2019-12-19T08:51:13Z</time>
      </trkpt>
      <trkpt lat="48.59948" lon="1.96496">
        <ele>144.34</ele>
        <time>2019-12-19T08:51:14Z</time>
      </trkpt>
      <trkpt lat="48.59948" lon="1.96497">
        <ele>144.34</ele>
        <time>2019-12-19T08:51:15Z</time>
      </trkpt>
      <trkpt lat="48.59948" lon="1.965">
        <ele>144.34</ele>
        <time>2019-12-19T08:51:16Z</time>
      </trkpt>
      <trkpt lat="48.59948" lon="1.96501">
        <ele>144.34</ele>
        <time>2019-12-19T08:51:17Z</time>
      </trkpt>
      <trkpt lat="48.59947" lon="1.96502">
        <ele>144.34</ele>
        <time>2019-12-19T08:51:18Z</time>
      </trkpt>
      <trkpt lat="48.59946" lon="1.96503">
        <ele>144.34</ele>
        <time>2019-12-19T08:51:19Z</time>
      </trkpt>
      <trkpt lat="48.59945" lon="1.96505">
        <ele>144.34</ele>
        <time>2019-12-19T08:51:20Z</time>
      </trkpt>
      <trkpt lat="48.59944" lon="1.96505">
        <ele>144.34</ele>
        <time>2019-12-19T08:51:21Z</time>
      </trkpt>
      <trkpt lat="48.59943" lon="1.96506">
        <ele>144.34</ele>
        <time>2019-12-19T08:51:22Z</time>
      </trkpt>
      <trkpt lat="48.59942" lon="1.96509">
        <ele>144.34</ele>
        <time>2019-12-19T08:51:23Z</time>
      </trkpt>
      <trkpt lat="48.59941" lon="1.96511">
        <ele>144.82</ele>
        <time>2019-12-19T08:51:24Z</time>
      </trkpt>
      <trkpt lat="48.5994" lon="1.96514">
        <ele>144.82</ele>
        <time>2019-12-19T08:51:25Z</time>
      </trkpt>
      <trkpt lat="48.5994" lon="1.96517">
        <ele>144.82</ele>
        <time>2019-12-19T08:51:26Z</time>
      </trkpt>
      <trkpt lat="48.59939" lon="1.9652">
        <ele>144.82</ele>
        <time>2019-12-19T08:51:27Z</time>
      </trkpt>
      <trkpt lat="48.59938" lon="1.96522">
        <ele>144.82</ele>
        <time>2019-12-19T08:51:28Z</time>
      </trkpt>
      <trkpt lat="48.59937" lon="1.96524">
        <ele>144.82</ele>
        <time>2019-12-19T08:51:29Z</time>
      </trkpt>
      <trkpt lat="48.59936" lon="1.96527">
        <ele>146.26</ele>
        <time>2019-12-19T08:51:30Z</time>
      </trkpt>
      <trkpt lat="48.59935" lon="1.96529">
        <ele>145.3</ele>
        <time>2019-12-19T08:51:31Z</time>
      </trkpt>
      <trkpt lat="48.59932" lon="1.96532">
        <ele>145.3</ele>
        <time>2019-12-19T08:51:32Z</time>
      </trkpt>
      <trkpt lat="48.59931" lon="1.96535">
        <ele>145.3</ele>
        <time>2019-12-19T08:51:33Z</time>
      </trkpt>
      <trkpt lat="48.59931" lon="1.96536">
        <ele>145.3</ele>
        <time>2019-12-19T08:51:34Z</time>
      </trkpt>
      <trkpt lat="48.59932" lon="1.96537">
        <ele>145.78</ele>
        <time>2019-12-19T08:51:35Z</time>
      </trkpt>
      <trkpt lat="48.59933" lon="1.96538">
        <ele>145.78</ele>
        <time>2019-12-19T08:51:36Z</time>
      </trkpt>
      <trkpt lat="48.59932" lon="1.96539">
        <ele>145.78</ele>
        <time>2019-12-19T08:51:37Z</time>
      </trkpt>
      <trkpt lat="48.59931" lon="1.96541">
        <ele>146.26</ele>
        <time>2019-12-19T08:51:38Z</time>
      </trkpt>
      <trkpt lat="48.5993" lon="1.96543">
        <ele>146.26</ele>
        <time>2019-12-19T08:51:39Z</time>
      </trkpt>
      <trkpt lat="48.59929" lon="1.96544">
        <ele>146.26</ele>
        <time>2019-12-19T08:51:40Z</time>
      </trkpt>
      <trkpt lat="48.59928" lon="1.96546">
        <ele>146.26</ele>
        <time>2019-12-19T08:51:41Z</time>
      </trkpt>
      <trkpt lat="48.59927" lon="1.96548">
        <ele>146.74</ele>
        <time>2019-12-19T08:51:42Z</time>
      </trkpt>
      <trkpt lat="48.59926" lon="1.9655">
        <ele>147.22</ele>
        <time>2019-12-19T08:51:43Z</time>
      </trkpt>
      <trkpt lat="48.59925" lon="1.96552">
        <ele>147.22</ele>
        <time>2019-12-19T08:51:44Z</time>
      </trkpt>
      <trkpt lat="48.59924" lon="1.96554">
        <ele>147.22</ele>
        <time>2019-12-19T08:51:45Z</time>
      </trkpt>
      <trkpt lat="48.59923" lon="1.96556">
        <ele>147.22</ele>
        <time>2019-12-19T08:51:46Z</time>
      </trkpt>
      <trkpt lat="48.59921" lon="1.96559">
        <ele>147.7</ele>
        <time>2019-12-19T08:51:47Z</time>
      </trkpt>
      <trkpt lat="48.5992" lon="1.96561">
        <ele>147.7</ele>
        <time>2019-12-19T08:51:48Z</time>
      </trkpt>
      <trkpt lat="48.59919" lon="1.96564">
        <ele>148.18</ele>
        <time>2019-12-19T08:51:49Z</time>
      </trkpt>
      <trkpt lat="48.59918" lon="1.96566">
        <ele>148.18</ele>
        <time>2019-12-19T08:51:50Z</time>
      </trkpt>
      <trkpt lat="48.59917" lon="1.96567">
        <ele>148.18</ele>
        <time>2019-12-19T08:51:51Z</time>
      </trkpt>
      <trkpt lat="48.59916" lon="1.96569">
        <ele>149.14</ele>
        <time>2019-12-19T08:51:52Z</time>
      </trkpt>
      <trkpt lat="48.59916" lon="1.96569">
        <ele>149.14</ele>
        <time>2019-12-19T08:51:53Z</time>
      </trkpt>
      <trkpt lat="48.59915" lon="1.96571">
        <ele>149.14</ele>
        <time>2019-12-19T08:51:54Z</time>
      </trkpt>
      <trkpt lat="48.59915" lon="1.96572">
        <ele>149.62</ele>
        <time>2019-12-19T08:51:55Z</time>
      </trkpt>
      <trkpt lat="48.59914" lon="1.96574">
        <ele>149.62</ele>
        <time>2019-12-19T08:51:56Z</time>
      </trkpt>
      <trkpt lat="48.59913" lon="1.96576">
        <ele>150.1</ele>
        <time>2019-12-19T08:51:57Z</time>
      </trkpt>
      <trkpt lat="48.59912" lon="1.96578">
        <ele>150.58</ele>
        <time>2019-12-19T08:51:58Z</time>
      </trkpt>
      <trkpt lat="48.59911" lon="1.9658">
        <ele>150.58</ele>
        <time>2019-12-19T08:51:59Z</time>
      </trkpt>
      <trkpt lat="48.5991" lon="1.96582">
        <ele>151.06</ele>
        <time>2019-12-19T08:52:00Z</time>
      </trkpt>
      <trkpt lat="48.59909" lon="1.96584">
        <ele>151.06</ele>
        <time>2019-12-19T08:52:01Z</time>
      </trkpt>
      <trkpt lat="48.59908" lon="1.96586">
        <ele>151.06</ele>
        <time>2019-12-19T08:52:02Z</time>
      </trkpt>
      <trkpt lat="48.59907" lon="1.96587">
        <ele>151.54</ele>
        <time>2019-12-19T08:52:03Z</time>
      </trkpt>
      <trkpt lat="48.59906" lon="1.96589">
        <ele>151.54</ele>
        <time>2019-12-19T08:52:04Z</time>
      </trkpt>
      <trkpt lat="48.59905" lon="1.96591">
        <ele>151.54</ele>
        <time>2019-12-19T08:52:05Z</time>
      </trkpt>
      <trkpt lat="48.59904" lon="1.96593">
        <ele>152.03</ele>
        <time>2019-12-19T08:52:06Z</time>
      </trkpt>
      <trkpt lat="48.59903" lon="1.96595">
        <ele>152.03</ele>
        <time>2019-12-19T08:52:07Z</time>
      </trkpt>
      <trkpt lat="48.59902" lon="1.96596">
        <ele>152.03</ele>
        <time>2019-12-19T08:52:08Z</time>
      </trkpt>
      <trkpt lat="48.59901" lon="1.96598">
        <ele>152.51</ele>
        <time>2019-12-19T08:52:09Z</time>
      </trkpt>
      <trkpt lat="48.59901" lon="1.96599">
        <ele>152.51</ele>
        <time>2019-12-19T08:52:10Z</time>
      </trkpt>
      <trkpt lat="48.599" lon="1.96601">
        <ele>152.51</ele>
        <time>2019-12-19T08:52:11Z</time>
      </trkpt>
      <trkpt lat="48.59899" lon="1.96603">
        <ele>152.51</ele>
        <time>2019-12-19T08:52:12Z</time>
      </trkpt>
      <trkpt lat="48.59898" lon="1.96605">
        <ele>152.51</ele>
        <time>2019-12-19T08:52:13Z</time>
      </trkpt>
      <trkpt lat="48.59898" lon="1.96606">
        <ele>152.51</ele>
        <time>2019-12-19T08:52:14Z</time>
      </trkpt>
      <trkpt lat="48.59898" lon="1.96607">
        <ele>152.99</ele>
        <time>2019-12-19T08:52:15Z</time>
      </trkpt>
      <trkpt lat="48.59898" lon="1.96609">
        <ele>152.99</ele>
        <time>2019-12-19T08:52:16Z</time>
      </trkpt>
      <trkpt lat="48.59897" lon="1.96611">
        <ele>152.99</ele>
        <time>2019-12-19T08:52:17Z</time>
      </trkpt>
      <trkpt lat="48.59897" lon="1.96613">
        <ele>152.99</ele>
        <time>2019-12-19T08:52:18Z</time>
      </trkpt>
      <trkpt lat="48.59896" lon="1.96615">
        <ele>153.47</ele>
        <time>2019-12-19T08:52:19Z</time>
      </trkpt>
      <trkpt lat="48.59896" lon="1.96616">
        <ele>153.47</ele>
        <time>2019-12-19T08:52:20Z</time>
      </trkpt>
      <trkpt lat="48.59895" lon="1.96618">
        <ele>153.47</ele>
        <time>2019-12-19T08:52:21Z</time>
      </trkpt>
      <trkpt lat="48.59895" lon="1.9662">
        <ele>153.47</ele>
        <time>2019-12-19T08:52:22Z</time>
      </trkpt>
      <trkpt lat="48.59894" lon="1.96622">
        <ele>153.47</ele>
        <time>2019-12-19T08:52:23Z</time>
      </trkpt>
      <trkpt lat="48.59893" lon="1.96625">
        <ele>153.47</ele>
        <time>2019-12-19T08:52:24Z</time>
      </trkpt>
      <trkpt lat="48.59892" lon="1.96627">
        <ele>153.95</ele>
        <time>2019-12-19T08:52:25Z</time>
      </trkpt>
      <trkpt lat="48.59891" lon="1.9663">
        <ele>153.47</ele>
        <time>2019-12-19T08:52:26Z</time>
      </trkpt>
      <trkpt lat="48.5989" lon="1.96632">
        <ele>153.95</ele>
        <time>2019-12-19T08:52:27Z</time>
      </trkpt>
      <trkpt lat="48.59888" lon="1.96635">
        <ele>153.95</ele>
        <time>2019-12-19T08:52:28Z</time>
      </trkpt>
      <trkpt lat="48.59887" lon="1.96637">
        <ele>153.95</ele>
        <time>2019-12-19T08:52:29Z</time>
      </trkpt>
      <trkpt lat="48.59886" lon="1.96639">
        <ele>153.95</ele>
        <time>2019-12-19T08:52:30Z</time>
      </trkpt>
      <trkpt lat="48.59885" lon="1.9664">
        <ele>153.95</ele>
        <time>2019-12-19T08:52:31Z</time>
      </trkpt>
      <trkpt lat="48.59883" lon="1.96641">
        <ele>153.95</ele>
        <time>2019-12-19T08:52:32Z</time>
      </trkpt>
      <trkpt lat="48.59881" lon="1.96642">
        <ele>153.95</ele>
        <time>2019-12-19T08:52:33Z</time>
      </trkpt>
      <trkpt lat="48.59879" lon="1.96644">
        <ele>153.95</ele>
        <time>2019-12-19T08:52:34Z</time>
      </trkpt>
      <trkpt lat="48.59879" lon="1.96645">
        <ele>153.95</ele>
        <time>2019-12-19T08:52:35Z</time>
      </trkpt>
      <trkpt lat="48.59878" lon="1.96647">
        <ele>153.95</ele>
        <time>2019-12-19T08:52:36Z</time>
      </trkpt>
      <trkpt lat="48.59876" lon="1.96648">
        <ele>153.95</ele>
        <time>2019-12-19T08:52:37Z</time>
      </trkpt>
      <trkpt lat="48.59875" lon="1.9665">
        <ele>153.95</ele>
        <time>2019-12-19T08:52:38Z</time>
      </trkpt>
      <trkpt lat="48.59874" lon="1.96652">
        <ele>154.43</ele>
        <time>2019-12-19T08:52:39Z</time>
      </trkpt>
      <trkpt lat="48.59872" lon="1.96654">
        <ele>153.95</ele>
        <time>2019-12-19T08:52:40Z</time>
      </trkpt>
      <trkpt lat="48.59871" lon="1.96656">
        <ele>154.43</ele>
        <time>2019-12-19T08:52:41Z</time>
      </trkpt>
      <trkpt lat="48.59869" lon="1.96658">
        <ele>154.43</ele>
        <time>2019-12-19T08:52:42Z</time>
      </trkpt>
      <trkpt lat="48.59868" lon="1.9666">
        <ele>153.95</ele>
        <time>2019-12-19T08:52:43Z</time>
      </trkpt>
      <trkpt lat="48.59867" lon="1.96662">
        <ele>153.95</ele>
        <time>2019-12-19T08:52:44Z</time>
      </trkpt>
      <trkpt lat="48.59866" lon="1.96664">
        <ele>153.95</ele>
        <time>2019-12-19T08:52:45Z</time>
      </trkpt>
      <trkpt lat="48.59865" lon="1.96666">
        <ele>154.43</ele>
        <time>2019-12-19T08:52:46Z</time>
      </trkpt>
      <trkpt lat="48.59864" lon="1.96668">
        <ele>153.95</ele>
        <time>2019-12-19T08:52:47Z</time>
      </trkpt>
      <trkpt lat="48.59863" lon="1.9667">
        <ele>154.43</ele>
        <time>2019-12-19T08:52:48Z</time>
      </trkpt>
      <trkpt lat="48.59861" lon="1.96672">
        <ele>153.95</ele>
        <time>2019-12-19T08:52:49Z</time>
      </trkpt>
      <trkpt lat="48.59859" lon="1.96673">
        <ele>154.43</ele>
        <time>2019-12-19T08:52:50Z</time>
      </trkpt>
      <trkpt lat="48.59857" lon="1.96674">
        <ele>154.43</ele>
        <time>2019-12-19T08:52:51Z</time>
      </trkpt>
      <trkpt lat="48.59855" lon="1.96674">
        <ele>154.43</ele>
        <time>2019-12-19T08:52:52Z</time>
      </trkpt>
      <trkpt lat="48.59854" lon="1.96676">
        <ele>154.43</ele>
        <time>2019-12-19T08:52:53Z</time>
      </trkpt>
      <trkpt lat="48.59852" lon="1.96677">
        <ele>154.43</ele>
        <time>2019-12-19T08:52:54Z</time>
      </trkpt>
      <trkpt lat="48.59851" lon="1.96678">
        <ele>154.43</ele>
        <time>2019-12-19T08:52:55Z</time>
      </trkpt>
      <trkpt lat="48.59849" lon="1.9668">
        <ele>154.43</ele>
        <time>2019-12-19T08:52:56Z</time>
      </trkpt>
      <trkpt lat="48.59848" lon="1.96682">
        <ele>154.43</ele>
        <time>2019-12-19T08:52:57Z</time>
      </trkpt>
      <trkpt lat="48.59847" lon="1.96685">
        <ele>154.43</ele>
        <time>2019-12-19T08:52:58Z</time>
      </trkpt>
      <trkpt lat="48.59847" lon="1.96687">
        <ele>154.43</ele>
        <time>2019-12-19T08:52:59Z</time>
      </trkpt>
      <trkpt lat="48.59846" lon="1.96688">
        <ele>154.43</ele>
        <time>2019-12-19T08:53:00Z</time>
      </trkpt>
      <trkpt lat="48.59844" lon="1.9669">
        <ele>154.43</ele>
        <time>2019-12-19T08:53:01Z</time>
      </trkpt>
      <trkpt lat="48.59844" lon="1.96692">
        <ele>154.43</ele>
        <time>2019-12-19T08:53:02Z</time>
      </trkpt>
      <trkpt lat="48.59843" lon="1.96694">
        <ele>154.43</ele>
        <time>2019-12-19T08:53:03Z</time>
      </trkpt>
      <trkpt lat="48.59842" lon="1.96696">
        <ele>154.43</ele>
        <time>2019-12-19T08:53:04Z</time>
      </trkpt>
      <trkpt lat="48.59842" lon="1.96697">
        <ele>154.43</ele>
        <time>2019-12-19T08:53:05Z</time>
      </trkpt>
      <trkpt lat="48.59841" lon="1.96699">
        <ele>154.43</ele>
        <time>2019-12-19T08:53:06Z</time>
      </trkpt>
      <trkpt lat="48.5984" lon="1.96701">
        <ele>154.43</ele>
        <time>2019-12-19T08:53:07Z</time>
      </trkpt>
      <trkpt lat="48.59839" lon="1.96704">
        <ele>154.43</ele>
        <time>2019-12-19T08:53:08Z</time>
      </trkpt>
      <trkpt lat="48.59838" lon="1.96706">
        <ele>154.43</ele>
        <time>2019-12-19T08:53:09Z</time>
      </trkpt>
      <trkpt lat="48.59837" lon="1.96707">
        <ele>154.43</ele>
        <time>2019-12-19T08:53:10Z</time>
      </trkpt>
      <trkpt lat="48.59836" lon="1.96708">
        <ele>154.43</ele>
        <time>2019-12-19T08:53:11Z</time>
      </trkpt>
      <trkpt lat="48.59835" lon="1.96709">
        <ele>154.43</ele>
        <time>2019-12-19T08:53:12Z</time>
      </trkpt>
      <trkpt lat="48.59834" lon="1.96711">
        <ele>154.43</ele>
        <time>2019-12-19T08:53:13Z</time>
      </trkpt>
      <trkpt lat="48.59833" lon="1.96712">
        <ele>154.43</ele>
        <time>2019-12-19T08:53:14Z</time>
      </trkpt>
      <trkpt lat="48.59832" lon="1.96714">
        <ele>154.43</ele>
        <time>2019-12-19T08:53:15Z</time>
      </trkpt>
      <trkpt lat="48.59831" lon="1.96715">
        <ele>154.43</ele>
        <time>2019-12-19T08:53:16Z</time>
      </trkpt>
      <trkpt lat="48.59831" lon="1.96717">
        <ele>154.43</ele>
        <time>2019-12-19T08:53:17Z</time>
      </trkpt>
      <trkpt lat="48.5983" lon="1.96718">
        <ele>154.43</ele>
        <time>2019-12-19T08:53:18Z</time>
      </trkpt>
      <trkpt lat="48.59829" lon="1.9672">
        <ele>154.43</ele>
        <time>2019-12-19T08:53:19Z</time>
      </trkpt>
      <trkpt lat="48.59827" lon="1.96721">
        <ele>154.43</ele>
        <time>2019-12-19T08:53:20Z</time>
      </trkpt>
      <trkpt lat="48.59827" lon="1.96723">
        <ele>154.43</ele>
        <time>2019-12-19T08:53:21Z</time>
      </trkpt>
      <trkpt lat="48.59825" lon="1.96724">
        <ele>154.43</ele>
        <time>2019-12-19T08:53:22Z</time>
      </trkpt>
      <trkpt lat="48.59824" lon="1.96726">
        <ele>153.95</ele>
        <time>2019-12-19T08:53:23Z</time>
      </trkpt>
      <trkpt lat="48.59824" lon="1.96727">
        <ele>154.43</ele>
        <time>2019-12-19T08:53:24Z</time>
      </trkpt>
      <trkpt lat="48.59823" lon="1.96728">
        <ele>153.95</ele>
        <time>2019-12-19T08:53:25Z</time>
      </trkpt>
      <trkpt lat="48.59822" lon="1.96729">
        <ele>153.95</ele>
        <time>2019-12-19T08:53:26Z</time>
      </trkpt>
      <trkpt lat="48.59821" lon="1.9673">
        <ele>153.95</ele>
        <time>2019-12-19T08:53:27Z</time>
      </trkpt>
      <trkpt lat="48.5982" lon="1.96731">
        <ele>153.95</ele>
        <time>2019-12-19T08:53:28Z</time>
      </trkpt>
      <trkpt lat="48.59819" lon="1.96733">
        <ele>153.95</ele>
        <time>2019-12-19T08:53:29Z</time>
      </trkpt>
      <trkpt lat="48.59819" lon="1.96735">
        <ele>155.39</ele>
        <time>2019-12-19T08:53:30Z</time>
      </trkpt>
      <trkpt lat="48.59818" lon="1.96737">
        <ele>153.95</ele>
        <time>2019-12-19T08:53:31Z</time>
      </trkpt>
      <trkpt lat="48.59818" lon="1.96739">
        <ele>153.95</ele>
        <time>2019-12-19T08:53:32Z</time>
      </trkpt>
      <trkpt lat="48.59818" lon="1.96741">
        <ele>153.47</ele>
        <time>2019-12-19T08:53:33Z</time>
      </trkpt>
      <trkpt lat="48.59818" lon="1.96743">
        <ele>153.47</ele>
        <time>2019-12-19T08:53:34Z</time>
      </trkpt>
      <trkpt lat="48.59818" lon="1.96745">
        <ele>153.47</ele>
        <time>2019-12-19T08:53:35Z</time>
      </trkpt>
      <trkpt lat="48.59817" lon="1.96747">
        <ele>153.47</ele>
        <time>2019-12-19T08:53:36Z</time>
      </trkpt>
      <trkpt lat="48.59817" lon="1.96748">
        <ele>153.47</ele>
        <time>2019-12-19T08:53:37Z</time>
      </trkpt>
      <trkpt lat="48.59816" lon="1.96749">
        <ele>153.47</ele>
        <time>2019-12-19T08:53:38Z</time>
      </trkpt>
      <trkpt lat="48.59815" lon="1.96751">
        <ele>152.99</ele>
        <time>2019-12-19T08:53:39Z</time>
      </trkpt>
      <trkpt lat="48.59815" lon="1.96753">
        <ele>152.99</ele>
        <time>2019-12-19T08:53:40Z</time>
      </trkpt>
      <trkpt lat="48.59814" lon="1.96754">
        <ele>152.99</ele>
        <time>2019-12-19T08:53:41Z</time>
      </trkpt>
      <trkpt lat="48.59814" lon="1.96755">
        <ele>152.99</ele>
        <time>2019-12-19T08:53:42Z</time>
      </trkpt>
      <trkpt lat="48.59813" lon="1.96757">
        <ele>152.99</ele>
        <time>2019-12-19T08:53:43Z</time>
      </trkpt>
      <trkpt lat="48.59812" lon="1.96758">
        <ele>152.99</ele>
        <time>2019-12-19T08:53:44Z</time>
      </trkpt>
      <trkpt lat="48.59811" lon="1.96759">
        <ele>152.99</ele>
        <time>2019-12-19T08:53:45Z</time>
      </trkpt>
      <trkpt lat="48.59811" lon="1.96761">
        <ele>152.99</ele>
        <time>2019-12-19T08:53:46Z</time>
      </trkpt>
      <trkpt lat="48.5981" lon="1.96762">
        <ele>152.51</ele>
        <time>2019-12-19T08:53:47Z</time>
      </trkpt>
      <trkpt lat="48.59809" lon="1.96764">
        <ele>152.51</ele>
        <time>2019-12-19T08:53:48Z</time>
      </trkpt>
      <trkpt lat="48.59809" lon="1.96766">
        <ele>152.51</ele>
        <time>2019-12-19T08:53:49Z</time>
      </trkpt>
      <trkpt lat="48.59808" lon="1.96767">
        <ele>152.51</ele>
        <time>2019-12-19T08:53:50Z</time>
      </trkpt>
      <trkpt lat="48.59807" lon="1.96769">
        <ele>152.51</ele>
        <time>2019-12-19T08:53:51Z</time>
      </trkpt>
      <trkpt lat="48.59806" lon="1.9677">
        <ele>152.51</ele>
        <time>2019-12-19T08:53:52Z</time>
      </trkpt>
      <trkpt lat="48.59805" lon="1.96772">
        <ele>152.03</ele>
        <time>2019-12-19T08:53:53Z</time>
      </trkpt>
      <trkpt lat="48.59804" lon="1.96775">
        <ele>152.03</ele>
        <time>2019-12-19T08:53:54Z</time>
      </trkpt>
      <trkpt lat="48.59803" lon="1.96777">
        <ele>152.03</ele>
        <time>2019-12-19T08:53:55Z</time>
      </trkpt>
      <trkpt lat="48.59802" lon="1.96779">
        <ele>152.03</ele>
        <time>2019-12-19T08:53:56Z</time>
      </trkpt>
      <trkpt lat="48.59801" lon="1.96781">
        <ele>151.54</ele>
        <time>2019-12-19T08:53:57Z</time>
      </trkpt>
      <trkpt lat="48.598" lon="1.96783">
        <ele>151.06</ele>
        <time>2019-12-19T08:53:58Z</time>
      </trkpt>
      <trkpt lat="48.59799" lon="1.96784">
        <ele>151.54</ele>
        <time>2019-12-19T08:53:59Z</time>
      </trkpt>
      <trkpt lat="48.59798" lon="1.96785">
        <ele>151.54</ele>
        <time>2019-12-19T08:54:00Z</time>
      </trkpt>
      <trkpt lat="48.59796" lon="1.96786">
        <ele>151.06</ele>
        <time>2019-12-19T08:54:01Z</time>
      </trkpt>
      <trkpt lat="48.59795" lon="1.96787">
        <ele>151.06</ele>
        <time>2019-12-19T08:54:02Z</time>
      </trkpt>
      <trkpt lat="48.59794" lon="1.96789">
        <ele>151.06</ele>
        <time>2019-12-19T08:54:03Z</time>
      </trkpt>
      <trkpt lat="48.59793" lon="1.9679">
        <ele>151.06</ele>
        <time>2019-12-19T08:54:04Z</time>
      </trkpt>
      <trkpt lat="48.59792" lon="1.96792">
        <ele>150.58</ele>
        <time>2019-12-19T08:54:05Z</time>
      </trkpt>
      <trkpt lat="48.59791" lon="1.96793">
        <ele>150.58</ele>
        <time>2019-12-19T08:54:06Z</time>
      </trkpt>
      <trkpt lat="48.59791" lon="1.96795">
        <ele>150.1</ele>
        <time>2019-12-19T08:54:07Z</time>
      </trkpt>
      <trkpt lat="48.5979" lon="1.96797">
        <ele>150.1</ele>
        <time>2019-12-19T08:54:08Z</time>
      </trkpt>
      <trkpt lat="48.59789" lon="1.96798">
        <ele>150.1</ele>
        <time>2019-12-19T08:54:09Z</time>
      </trkpt>
      <trkpt lat="48.59789" lon="1.968">
        <ele>149.62</ele>
        <time>2019-12-19T08:54:10Z</time>
      </trkpt>
      <trkpt lat="48.59787" lon="1.96802">
        <ele>149.62</ele>
        <time>2019-12-19T08:54:11Z</time>
      </trkpt>
      <trkpt lat="48.59787" lon="1.96803">
        <ele>149.14</ele>
        <time>2019-12-19T08:54:12Z</time>
      </trkpt>
      <trkpt lat="48.59786" lon="1.96805">
        <ele>149.14</ele>
        <time>2019-12-19T08:54:13Z</time>
      </trkpt>
      <trkpt lat="48.59785" lon="1.96807">
        <ele>148.66</ele>
        <time>2019-12-19T08:54:14Z</time>
      </trkpt>
      <trkpt lat="48.59785" lon="1.96809">
        <ele>148.18</ele>
        <time>2019-12-19T08:54:15Z</time>
      </trkpt>
      <trkpt lat="48.59784" lon="1.9681">
        <ele>148.18</ele>
        <time>2019-12-19T08:54:16Z</time>
      </trkpt>
      <trkpt lat="48.59782" lon="1.96811">
        <ele>147.7</ele>
        <time>2019-12-19T08:54:17Z</time>
      </trkpt>
      <trkpt lat="48.59781" lon="1.96812">
        <ele>147.7</ele>
        <time>2019-12-19T08:54:18Z</time>
      </trkpt>
      <trkpt lat="48.5978" lon="1.96813">
        <ele>147.7</ele>
        <time>2019-12-19T08:54:19Z</time>
      </trkpt>
      <trkpt lat="48.5978" lon="1.96814">
        <ele>147.7</ele>
        <time>2019-12-19T08:54:20Z</time>
      </trkpt>
      <trkpt lat="48.59779" lon="1.96815">
        <ele>147.22</ele>
        <time>2019-12-19T08:54:21Z</time>
      </trkpt>
      <trkpt lat="48.59779" lon="1.96816">
        <ele>147.22</ele>
        <time>2019-12-19T08:54:22Z</time>
      </trkpt>
      <trkpt lat="48.59778" lon="1.96817">
        <ele>146.74</ele>
        <time>2019-12-19T08:54:23Z</time>
      </trkpt>
      <trkpt lat="48.59777" lon="1.96818">
        <ele>146.74</ele>
        <time>2019-12-19T08:54:24Z</time>
      </trkpt>
      <trkpt lat="48.59776" lon="1.9682">
        <ele>146.74</ele>
        <time>2019-12-19T08:54:25Z</time>
      </trkpt>
      <trkpt lat="48.59775" lon="1.96821">
        <ele>146.26</ele>
        <time>2019-12-19T08:54:26Z</time>
      </trkpt>
      <trkpt lat="48.59774" lon="1.96823">
        <ele>146.26</ele>
        <time>2019-12-19T08:54:27Z</time>
      </trkpt>
      <trkpt lat="48.59772" lon="1.96825">
        <ele>145.78</ele>
        <time>2019-12-19T08:54:28Z</time>
      </trkpt>
      <trkpt lat="48.59771" lon="1.96827">
        <ele>145.78</ele>
        <time>2019-12-19T08:54:29Z</time>
      </trkpt>
      <trkpt lat="48.5977" lon="1.96829">
        <ele>145.3</ele>
        <time>2019-12-19T08:54:30Z</time>
      </trkpt>
      <trkpt lat="48.59769" lon="1.96831">
        <ele>145.3</ele>
        <time>2019-12-19T08:54:31Z</time>
      </trkpt>
      <trkpt lat="48.59768" lon="1.96833">
        <ele>145.3</ele>
        <time>2019-12-19T08:54:32Z</time>
      </trkpt>
      <trkpt lat="48.59768" lon="1.96834">
        <ele>144.82</ele>
        <time>2019-12-19T08:54:33Z</time>
      </trkpt>
      <trkpt lat="48.59767" lon="1.96836">
        <ele>144.34</ele>
        <time>2019-12-19T08:54:34Z</time>
      </trkpt>
      <trkpt lat="48.59766" lon="1.96837">
        <ele>144.34</ele>
        <time>2019-12-19T08:54:35Z</time>
      </trkpt>
      <trkpt lat="48.59765" lon="1.96838">
        <ele>144.34</ele>
        <time>2019-12-19T08:54:36Z</time>
      </trkpt>
      <trkpt lat="48.59764" lon="1.96839">
        <ele>143.85</ele>
        <time>2019-12-19T08:54:37Z</time>
      </trkpt>
      <trkpt lat="48.59763" lon="1.96841">
        <ele>143.85</ele>
        <time>2019-12-19T08:54:38Z</time>
      </trkpt>
      <trkpt lat="48.59762" lon="1.96843">
        <ele>143.85</ele>
        <time>2019-12-19T08:54:39Z</time>
      </trkpt>
      <trkpt lat="48.59761" lon="1.96844">
        <ele>143.85</ele>
        <time>2019-12-19T08:54:40Z</time>
      </trkpt>
      <trkpt lat="48.59761" lon="1.96847">
        <ele>143.37</ele>
        <time>2019-12-19T08:54:41Z</time>
      </trkpt>
      <trkpt lat="48.5976" lon="1.96849">
        <ele>143.37</ele>
        <time>2019-12-19T08:54:42Z</time>
      </trkpt>
      <trkpt lat="48.5976" lon="1.9685">
        <ele>143.37</ele>
        <time>2019-12-19T08:54:43Z</time>
      </trkpt>
      <trkpt lat="48.59759" lon="1.96852">
        <ele>143.37</ele>
        <time>2019-12-19T08:54:44Z</time>
      </trkpt>
      <trkpt lat="48.59758" lon="1.96854">
        <ele>142.89</ele>
        <time>2019-12-19T08:54:45Z</time>
      </trkpt>
      <trkpt lat="48.59758" lon="1.96856">
        <ele>142.89</ele>
        <time>2019-12-19T08:54:46Z</time>
      </trkpt>
      <trkpt lat="48.59757" lon="1.96858">
        <ele>142.89</ele>
        <time>2019-12-19T08:54:47Z</time>
      </trkpt>
      <trkpt lat="48.59756" lon="1.9686">
        <ele>142.41</ele>
        <time>2019-12-19T08:54:48Z</time>
      </trkpt>
      <trkpt lat="48.59756" lon="1.96862">
        <ele>142.41</ele>
        <time>2019-12-19T08:54:49Z</time>
      </trkpt>
      <trkpt lat="48.59755" lon="1.96863">
        <ele>142.41</ele>
        <time>2019-12-19T08:54:50Z</time>
      </trkpt>
      <trkpt lat="48.59754" lon="1.96865">
        <ele>141.93</ele>
        <time>2019-12-19T08:54:51Z</time>
      </trkpt>
      <trkpt lat="48.59754" lon="1.96868">
        <ele>141.93</ele>
        <time>2019-12-19T08:54:52Z</time>
      </trkpt>
      <trkpt lat="48.59754" lon="1.9687">
        <ele>141.93</ele>
        <time>2019-12-19T08:54:53Z</time>
      </trkpt>
      <trkpt lat="48.59753" lon="1.96872">
        <ele>141.93</ele>
        <time>2019-12-19T08:54:54Z</time>
      </trkpt>
      <trkpt lat="48.59752" lon="1.96873">
        <ele>141.93</ele>
        <time>2019-12-19T08:54:55Z</time>
      </trkpt>
      <trkpt lat="48.59751" lon="1.96874">
        <ele>141.93</ele>
        <time>2019-12-19T08:54:56Z</time>
      </trkpt>
      <trkpt lat="48.59751" lon="1.96875">
        <ele>141.93</ele>
        <time>2019-12-19T08:54:57Z</time>
      </trkpt>
      <trkpt lat="48.59749" lon="1.96875">
        <ele>141.45</ele>
        <time>2019-12-19T08:54:58Z</time>
      </trkpt>
      <trkpt lat="48.59748" lon="1.96877">
        <ele>140.97</ele>
        <time>2019-12-19T08:54:59Z</time>
      </trkpt>
      <trkpt lat="48.59747" lon="1.96878">
        <ele>140.97</ele>
        <time>2019-12-19T08:55:00Z</time>
      </trkpt>
      <trkpt lat="48.59746" lon="1.9688">
        <ele>140.97</ele>
        <time>2019-12-19T08:55:01Z</time>
      </trkpt>
      <trkpt lat="48.59745" lon="1.96881">
        <ele>140.49</ele>
        <time>2019-12-19T08:55:02Z</time>
      </trkpt>
      <trkpt lat="48.59744" lon="1.96883">
        <ele>140.49</ele>
        <time>2019-12-19T08:55:03Z</time>
      </trkpt>
      <trkpt lat="48.59743" lon="1.96885">
        <ele>140.49</ele>
        <time>2019-12-19T08:55:04Z</time>
      </trkpt>
      <trkpt lat="48.59742" lon="1.96887">
        <ele>140.01</ele>
        <time>2019-12-19T08:55:05Z</time>
      </trkpt>
      <trkpt lat="48.59741" lon="1.96889">
        <ele>140.49</ele>
        <time>2019-12-19T08:55:06Z</time>
      </trkpt>
      <trkpt lat="48.5974" lon="1.96891">
        <ele>140.01</ele>
        <time>2019-12-19T08:55:07Z</time>
      </trkpt>
      <trkpt lat="48.59739" lon="1.96893">
        <ele>140.01</ele>
        <time>2019-12-19T08:55:08Z</time>
      </trkpt>
      <trkpt lat="48.59739" lon="1.96895">
        <ele>139.53</ele>
        <time>2019-12-19T08:55:09Z</time>
      </trkpt>
      <trkpt lat="48.5974" lon="1.96897">
        <ele>139.53</ele>
        <time>2019-12-19T08:55:10Z</time>
      </trkpt>
      <trkpt lat="48.59741" lon="1.969">
        <ele>139.53</ele>
        <time>2019-12-19T08:55:11Z</time>
      </trkpt>
      <trkpt lat="48.59742" lon="1.96901">
        <ele>139.05</ele>
        <time>2019-12-19T08:55:12Z</time>
      </trkpt>
      <trkpt lat="48.59743" lon="1.96903">
        <ele>139.05</ele>
        <time>2019-12-19T08:55:13Z</time>
      </trkpt>
      <trkpt lat="48.59743" lon="1.96904">
        <ele>139.05</ele>
        <time>2019-12-19T08:55:14Z</time>
      </trkpt>
      <trkpt lat="48.59744" lon="1.96905">
        <ele>139.05</ele>
        <time>2019-12-19T08:55:15Z</time>
      </trkpt>
      <trkpt lat="48.59744" lon="1.96906">
        <ele>139.05</ele>
        <time>2019-12-19T08:55:16Z</time>
      </trkpt>
      <trkpt lat="48.59745" lon="1.96908">
        <ele>139.05</ele>
        <time>2019-12-19T08:55:17Z</time>
      </trkpt>
      <trkpt lat="48.59746" lon="1.96909">
        <ele>139.05</ele>
        <time>2019-12-19T08:55:18Z</time>
      </trkpt>
      <trkpt lat="48.59746" lon="1.9691">
        <ele>139.05</ele>
        <time>2019-12-19T08:55:19Z</time>
      </trkpt>
      <trkpt lat="48.59747" lon="1.96911">
        <ele>139.05</ele>
        <time>2019-12-19T08:55:20Z</time>
      </trkpt>
      <trkpt lat="48.59748" lon="1.96912">
        <ele>139.05</ele>
        <time>2019-12-19T08:55:21Z</time>
      </trkpt>
      <trkpt lat="48.59749" lon="1.96913">
        <ele>139.05</ele>
        <time>2019-12-19T08:55:22Z</time>
      </trkpt>
      <trkpt lat="48.59749" lon="1.96914">
        <ele>139.05</ele>
        <time>2019-12-19T08:55:23Z</time>
      </trkpt>
      <trkpt lat="48.59749" lon="1.96915">
        <ele>139.53</ele>
        <time>2019-12-19T08:55:24Z</time>
      </trkpt>
      <trkpt lat="48.5975" lon="1.96916">
        <ele>139.05</ele>
        <time>2019-12-19T08:55:25Z</time>
      </trkpt>
      <trkpt lat="48.59751" lon="1.96917">
        <ele>139.53</ele>
        <time>2019-12-19T08:55:26Z</time>
      </trkpt>
      <trkpt lat="48.59752" lon="1.96918">
        <ele>139.53</ele>
        <time>2019-12-19T08:55:27Z</time>
      </trkpt>
      <trkpt lat="48.59753" lon="1.9692">
        <ele>139.53</ele>
        <time>2019-12-19T08:55:28Z</time>
      </trkpt>
      <trkpt lat="48.59754" lon="1.96921">
        <ele>139.05</ele>
        <time>2019-12-19T08:55:29Z</time>
      </trkpt>
      <trkpt lat="48.59755" lon="1.96923">
        <ele>140.01</ele>
        <time>2019-12-19T08:55:30Z</time>
      </trkpt>
      <trkpt lat="48.59756" lon="1.96925">
        <ele>139.05</ele>
        <time>2019-12-19T08:55:31Z</time>
      </trkpt>
      <trkpt lat="48.59757" lon="1.96926">
        <ele>139.05</ele>
        <time>2019-12-19T08:55:32Z</time>
      </trkpt>
      <trkpt lat="48.59758" lon="1.96928">
        <ele>139.05</ele>
        <time>2019-12-19T08:55:33Z</time>
      </trkpt>
      <trkpt lat="48.59759" lon="1.96929">
        <ele>139.05</ele>
        <time>2019-12-19T08:55:34Z</time>
      </trkpt>
      <trkpt lat="48.5976" lon="1.9693">
        <ele>139.53</ele>
        <time>2019-12-19T08:55:35Z</time>
      </trkpt>
      <trkpt lat="48.59762" lon="1.96932">
        <ele>139.05</ele>
        <time>2019-12-19T08:55:36Z</time>
      </trkpt>
      <trkpt lat="48.59764" lon="1.96933">
        <ele>139.05</ele>
        <time>2019-12-19T08:55:37Z</time>
      </trkpt>
      <trkpt lat="48.59765" lon="1.96935">
        <ele>139.05</ele>
        <time>2019-12-19T08:55:38Z</time>
      </trkpt>
      <trkpt lat="48.59766" lon="1.96936">
        <ele>139.05</ele>
        <time>2019-12-19T08:55:39Z</time>
      </trkpt>
      <trkpt lat="48.59768" lon="1.96937">
        <ele>139.05</ele>
        <time>2019-12-19T08:55:40Z</time>
      </trkpt>
      <trkpt lat="48.59769" lon="1.96938">
        <ele>139.05</ele>
        <time>2019-12-19T08:55:41Z</time>
      </trkpt>
      <trkpt lat="48.5977" lon="1.96939">
        <ele>138.57</ele>
        <time>2019-12-19T08:55:42Z</time>
      </trkpt>
      <trkpt lat="48.59772" lon="1.9694">
        <ele>139.05</ele>
        <time>2019-12-19T08:55:43Z</time>
      </trkpt>
      <trkpt lat="48.59773" lon="1.96941">
        <ele>139.05</ele>
        <time>2019-12-19T08:55:44Z</time>
      </trkpt>
      <trkpt lat="48.59774" lon="1.96943">
        <ele>139.05</ele>
        <time>2019-12-19T08:55:45Z</time>
      </trkpt>
      <trkpt lat="48.59775" lon="1.96944">
        <ele>139.05</ele>
        <time>2019-12-19T08:55:46Z</time>
      </trkpt>
      <trkpt lat="48.59776" lon="1.96945">
        <ele>139.05</ele>
        <time>2019-12-19T08:55:47Z</time>
      </trkpt>
      <trkpt lat="48.59777" lon="1.96946">
        <ele>139.05</ele>
        <time>2019-12-19T08:55:48Z</time>
      </trkpt>
      <trkpt lat="48.59778" lon="1.96947">
        <ele>139.05</ele>
        <time>2019-12-19T08:55:49Z</time>
      </trkpt>
      <trkpt lat="48.59779" lon="1.96948">
        <ele>139.05</ele>
        <time>2019-12-19T08:55:50Z</time>
      </trkpt>
      <trkpt lat="48.5978" lon="1.96949">
        <ele>138.57</ele>
        <time>2019-12-19T08:55:51Z</time>
      </trkpt>
      <trkpt lat="48.59781" lon="1.9695">
        <ele>139.05</ele>
        <time>2019-12-19T08:55:52Z</time>
      </trkpt>
      <trkpt lat="48.59782" lon="1.96951">
        <ele>138.57</ele>
        <time>2019-12-19T08:55:53Z</time>
      </trkpt>
      <trkpt lat="48.59783" lon="1.96952">
        <ele>138.57</ele>
        <time>2019-12-19T08:55:54Z</time>
      </trkpt>
      <trkpt lat="48.59785" lon="1.96953">
        <ele>138.57</ele>
        <time>2019-12-19T08:55:55Z</time>
      </trkpt>
      <trkpt lat="48.59786" lon="1.96954">
        <ele>138.57</ele>
        <time>2019-12-19T08:55:56Z</time>
      </trkpt>
      <trkpt lat="48.59788" lon="1.96955">
        <ele>138.57</ele>
        <time>2019-12-19T08:55:57Z</time>
      </trkpt>
      <trkpt lat="48.5979" lon="1.96957">
        <ele>138.57</ele>
        <time>2019-12-19T08:55:58Z</time>
      </trkpt>
      <trkpt lat="48.59791" lon="1.96959">
        <ele>138.57</ele>
        <time>2019-12-19T08:55:59Z</time>
      </trkpt>
      <trkpt lat="48.59793" lon="1.9696">
        <ele>138.57</ele>
        <time>2019-12-19T08:56:00Z</time>
      </trkpt>
      <trkpt lat="48.59794" lon="1.96961">
        <ele>138.57</ele>
        <time>2019-12-19T08:56:01Z</time>
      </trkpt>
      <trkpt lat="48.59796" lon="1.96963">
        <ele>138.09</ele>
        <time>2019-12-19T08:56:02Z</time>
      </trkpt>
      <trkpt lat="48.59797" lon="1.96964">
        <ele>138.09</ele>
        <time>2019-12-19T08:56:03Z</time>
      </trkpt>
      <trkpt lat="48.59798" lon="1.96966">
        <ele>138.09</ele>
        <time>2019-12-19T08:56:04Z</time>
      </trkpt>
      <trkpt lat="48.598" lon="1.96969">
        <ele>138.09</ele>
        <time>2019-12-19T08:56:05Z</time>
      </trkpt>
      <trkpt lat="48.59801" lon="1.9697">
        <ele>138.09</ele>
        <time>2019-12-19T08:56:06Z</time>
      </trkpt>
      <trkpt lat="48.59802" lon="1.96972">
        <ele>138.09</ele>
        <time>2019-12-19T08:56:07Z</time>
      </trkpt>
      <trkpt lat="48.59803" lon="1.96973">
        <ele>138.09</ele>
        <time>2019-12-19T08:56:08Z</time>
      </trkpt>
      <trkpt lat="48.59804" lon="1.96975">
        <ele>138.09</ele>
        <time>2019-12-19T08:56:09Z</time>
      </trkpt>
      <trkpt lat="48.59805" lon="1.96976">
        <ele>138.09</ele>
        <time>2019-12-19T08:56:10Z</time>
      </trkpt>
      <trkpt lat="48.59806" lon="1.96978">
        <ele>137.61</ele>
        <time>2019-12-19T08:56:11Z</time>
      </trkpt>
      <trkpt lat="48.59807" lon="1.96979">
        <ele>137.61</ele>
        <time>2019-12-19T08:56:12Z</time>
      </trkpt>
      <trkpt lat="48.59808" lon="1.96981">
        <ele>137.61</ele>
        <time>2019-12-19T08:56:13Z</time>
      </trkpt>
      <trkpt lat="48.59809" lon="1.96983">
        <ele>137.61</ele>
        <time>2019-12-19T08:56:14Z</time>
      </trkpt>
      <trkpt lat="48.5981" lon="1.96983">
        <ele>137.13</ele>
        <time>2019-12-19T08:56:15Z</time>
      </trkpt>
      <trkpt lat="48.59812" lon="1.96984">
        <ele>137.13</ele>
        <time>2019-12-19T08:56:16Z</time>
      </trkpt>
      <trkpt lat="48.59814" lon="1.96985">
        <ele>137.61</ele>
        <time>2019-12-19T08:56:17Z</time>
      </trkpt>
      <trkpt lat="48.59815" lon="1.96987">
        <ele>137.13</ele>
        <time>2019-12-19T08:56:18Z</time>
      </trkpt>
      <trkpt lat="48.59816" lon="1.96988">
        <ele>137.13</ele>
        <time>2019-12-19T08:56:19Z</time>
      </trkpt>
      <trkpt lat="48.59817" lon="1.96989">
        <ele>137.13</ele>
        <time>2019-12-19T08:56:20Z</time>
      </trkpt>
      <trkpt lat="48.59818" lon="1.9699">
        <ele>137.13</ele>
        <time>2019-12-19T08:56:21Z</time>
      </trkpt>
      <trkpt lat="48.59818" lon="1.96991">
        <ele>137.13</ele>
        <time>2019-12-19T08:56:22Z</time>
      </trkpt>
      <trkpt lat="48.59819" lon="1.96993">
        <ele>137.13</ele>
        <time>2019-12-19T08:56:23Z</time>
      </trkpt>
      <trkpt lat="48.5982" lon="1.96994">
        <ele>137.13</ele>
        <time>2019-12-19T08:56:24Z</time>
      </trkpt>
      <trkpt lat="48.59821" lon="1.96995">
        <ele>137.13</ele>
        <time>2019-12-19T08:56:25Z</time>
      </trkpt>
      <trkpt lat="48.59822" lon="1.96995">
        <ele>137.13</ele>
        <time>2019-12-19T08:56:26Z</time>
      </trkpt>
      <trkpt lat="48.59823" lon="1.96996">
        <ele>137.61</ele>
        <time>2019-12-19T08:56:27Z</time>
      </trkpt>
      <trkpt lat="48.59824" lon="1.96997">
        <ele>137.61</ele>
        <time>2019-12-19T08:56:28Z</time>
      </trkpt>
      <trkpt lat="48.59825" lon="1.96999">
        <ele>137.61</ele>
        <time>2019-12-19T08:56:29Z</time>
      </trkpt>
      <trkpt lat="48.59826" lon="1.97">
        <ele>137.61</ele>
        <time>2019-12-19T08:56:30Z</time>
      </trkpt>
      <trkpt lat="48.59827" lon="1.97001">
        <ele>137.61</ele>
        <time>2019-12-19T08:56:31Z</time>
      </trkpt>
      <trkpt lat="48.59828" lon="1.97002">
        <ele>137.61</ele>
        <time>2019-12-19T08:56:32Z</time>
      </trkpt>
      <trkpt lat="48.59829" lon="1.97002">
        <ele>137.61</ele>
        <time>2019-12-19T08:56:33Z</time>
      </trkpt>
      <trkpt lat="48.5983" lon="1.97004">
        <ele>137.61</ele>
        <time>2019-12-19T08:56:34Z</time>
      </trkpt>
      <trkpt lat="48.5983" lon="1.97005">
        <ele>137.61</ele>
        <time>2019-12-19T08:56:35Z</time>
      </trkpt>
      <trkpt lat="48.59831" lon="1.97007">
        <ele>137.61</ele>
        <time>2019-12-19T08:56:36Z</time>
      </trkpt>
      <trkpt lat="48.59832" lon="1.97008">
        <ele>137.61</ele>
        <time>2019-12-19T08:56:37Z</time>
      </trkpt>
      <trkpt lat="48.59833" lon="1.9701">
        <ele>137.61</ele>
        <time>2019-12-19T08:56:38Z</time>
      </trkpt>
      <trkpt lat="48.59834" lon="1.97011">
        <ele>137.61</ele>
        <time>2019-12-19T08:56:39Z</time>
      </trkpt>
      <trkpt lat="48.59834" lon="1.97012">
        <ele>137.61</ele>
        <time>2019-12-19T08:56:40Z</time>
      </trkpt>
      <trkpt lat="48.59835" lon="1.97013">
        <ele>137.61</ele>
        <time>2019-12-19T08:56:41Z</time>
      </trkpt>
      <trkpt lat="48.59836" lon="1.97014">
        <ele>137.61</ele>
        <time>2019-12-19T08:56:42Z</time>
      </trkpt>
      <trkpt lat="48.59837" lon="1.97015">
        <ele>137.61</ele>
        <time>2019-12-19T08:56:43Z</time>
      </trkpt>
      <trkpt lat="48.59838" lon="1.97016">
        <ele>137.61</ele>
        <time>2019-12-19T08:56:44Z</time>
      </trkpt>
      <trkpt lat="48.59839" lon="1.97017">
        <ele>137.61</ele>
        <time>2019-12-19T08:56:45Z</time>
      </trkpt>
      <trkpt lat="48.59839" lon="1.97017">
        <ele>137.61</ele>
        <time>2019-12-19T08:56:46Z</time>
      </trkpt>
      <trkpt lat="48.59839" lon="1.97018">
        <ele>137.13</ele>
        <time>2019-12-19T08:56:47Z</time>
      </trkpt>
      <trkpt lat="48.5984" lon="1.9702">
        <ele>137.61</ele>
        <time>2019-12-19T08:56:48Z</time>
      </trkpt>
      <trkpt lat="48.59841" lon="1.9702">
        <ele>137.61</ele>
        <time>2019-12-19T08:56:49Z</time>
      </trkpt>
      <trkpt lat="48.59842" lon="1.97021">
        <ele>137.61</ele>
        <time>2019-12-19T08:56:50Z</time>
      </trkpt>
      <trkpt lat="48.59844" lon="1.97022">
        <ele>137.61</ele>
        <time>2019-12-19T08:56:51Z</time>
      </trkpt>
      <trkpt lat="48.59845" lon="1.97023">
        <ele>137.13</ele>
        <time>2019-12-19T08:56:52Z</time>
      </trkpt>
      <trkpt lat="48.59847" lon="1.97024">
        <ele>137.13</ele>
        <time>2019-12-19T08:56:53Z</time>
      </trkpt>
      <trkpt lat="48.59847" lon="1.97025">
        <ele>137.13</ele>
        <time>2019-12-19T08:56:54Z</time>
      </trkpt>
      <trkpt lat="48.59849" lon="1.97026">
        <ele>137.13</ele>
        <time>2019-12-19T08:56:55Z</time>
      </trkpt>
      <trkpt lat="48.5985" lon="1.97028">
        <ele>137.13</ele>
        <time>2019-12-19T08:56:56Z</time>
      </trkpt>
      <trkpt lat="48.59851" lon="1.97029">
        <ele>137.13</ele>
        <time>2019-12-19T08:56:57Z</time>
      </trkpt>
      <trkpt lat="48.59853" lon="1.9703">
        <ele>137.13</ele>
        <time>2019-12-19T08:56:58Z</time>
      </trkpt>
      <trkpt lat="48.59855" lon="1.97031">
        <ele>137.13</ele>
        <time>2019-12-19T08:56:59Z</time>
      </trkpt>
      <trkpt lat="48.59857" lon="1.97032">
        <ele>137.13</ele>
        <time>2019-12-19T08:57:00Z</time>
      </trkpt>
      <trkpt lat="48.5986" lon="1.97033">
        <ele>136.64</ele>
        <time>2019-12-19T08:57:01Z</time>
      </trkpt>
      <trkpt lat="48.59862" lon="1.97034">
        <ele>136.64</ele>
        <time>2019-12-19T08:57:02Z</time>
      </trkpt>
      <trkpt lat="48.59864" lon="1.97036">
        <ele>137.13</ele>
        <time>2019-12-19T08:57:03Z</time>
      </trkpt>
      <trkpt lat="48.59866" lon="1.97038">
        <ele>136.64</ele>
        <time>2019-12-19T08:57:04Z</time>
      </trkpt>
      <trkpt lat="48.59867" lon="1.97039">
        <ele>136.64</ele>
        <time>2019-12-19T08:57:05Z</time>
      </trkpt>
      <trkpt lat="48.59869" lon="1.97041">
        <ele>136.64</ele>
        <time>2019-12-19T08:57:06Z</time>
      </trkpt>
      <trkpt lat="48.59871" lon="1.97043">
        <ele>136.64</ele>
        <time>2019-12-19T08:57:07Z</time>
      </trkpt>
      <trkpt lat="48.59873" lon="1.97044">
        <ele>136.64</ele>
        <time>2019-12-19T08:57:08Z</time>
      </trkpt>
      <trkpt lat="48.59875" lon="1.97046">
        <ele>136.64</ele>
        <time>2019-12-19T08:57:09Z</time>
      </trkpt>
      <trkpt lat="48.59876" lon="1.97047">
        <ele>136.64</ele>
        <time>2019-12-19T08:57:10Z</time>
      </trkpt>
      <trkpt lat="48.59877" lon="1.97047">
        <ele>137.13</ele>
        <time>2019-12-19T08:57:11Z</time>
      </trkpt>
      <trkpt lat="48.59878" lon="1.97048">
        <ele>136.64</ele>
        <time>2019-12-19T08:57:12Z</time>
      </trkpt>
      <trkpt lat="48.59878" lon="1.97049">
        <ele>136.64</ele>
        <time>2019-12-19T08:57:13Z</time>
      </trkpt>
      <trkpt lat="48.59879" lon="1.97049">
        <ele>136.64</ele>
        <time>2019-12-19T08:57:14Z</time>
      </trkpt>
      <trkpt lat="48.5988" lon="1.9705">
        <ele>136.64</ele>
        <time>2019-12-19T08:57:15Z</time>
      </trkpt>
      <trkpt lat="48.59881" lon="1.97051">
        <ele>136.64</ele>
        <time>2019-12-19T08:57:16Z</time>
      </trkpt>
      <trkpt lat="48.59882" lon="1.97053">
        <ele>137.13</ele>
        <time>2019-12-19T08:57:17Z</time>
      </trkpt>
      <trkpt lat="48.59883" lon="1.97053">
        <ele>136.64</ele>
        <time>2019-12-19T08:57:18Z</time>
      </trkpt>
      <trkpt lat="48.59883" lon="1.97054">
        <ele>136.64</ele>
        <time>2019-12-19T08:57:19Z</time>
      </trkpt>
      <trkpt lat="48.59884" lon="1.97054">
        <ele>136.64</ele>
        <time>2019-12-19T08:57:20Z</time>
      </trkpt>
      <trkpt lat="48.59885" lon="1.97054">
        <ele>136.64</ele>
        <time>2019-12-19T08:57:21Z</time>
      </trkpt>
      <trkpt lat="48.59886" lon="1.97055">
        <ele>136.64</ele>
        <time>2019-12-19T08:57:22Z</time>
      </trkpt>
      <trkpt lat="48.59887" lon="1.97056">
        <ele>136.64</ele>
        <time>2019-12-19T08:57:23Z</time>
      </trkpt>
      <trkpt lat="48.59889" lon="1.97057">
        <ele>137.13</ele>
        <time>2019-12-19T08:57:24Z</time>
      </trkpt>
      <trkpt lat="48.59891" lon="1.97058">
        <ele>136.64</ele>
        <time>2019-12-19T08:57:25Z</time>
      </trkpt>
      <trkpt lat="48.59892" lon="1.9706">
        <ele>136.64</ele>
        <time>2019-12-19T08:57:26Z</time>
      </trkpt>
      <trkpt lat="48.59894" lon="1.97062">
        <ele>136.64</ele>
        <time>2019-12-19T08:57:27Z</time>
      </trkpt>
      <trkpt lat="48.59895" lon="1.97065">
        <ele>136.64</ele>
        <time>2019-12-19T08:57:28Z</time>
      </trkpt>
      <trkpt lat="48.59896" lon="1.97067">
        <ele>136.64</ele>
        <time>2019-12-19T08:57:29Z</time>
      </trkpt>
      <trkpt lat="48.59898" lon="1.97069">
        <ele>136.64</ele>
        <time>2019-12-19T08:57:30Z</time>
      </trkpt>
      <trkpt lat="48.59899" lon="1.9707">
        <ele>137.61</ele>
        <time>2019-12-19T08:57:31Z</time>
      </trkpt>
      <trkpt lat="48.599" lon="1.97072">
        <ele>136.64</ele>
        <time>2019-12-19T08:57:32Z</time>
      </trkpt>
      <trkpt lat="48.599" lon="1.97072">
        <ele>136.64</ele>
        <time>2019-12-19T08:57:33Z</time>
      </trkpt>
      <trkpt lat="48.599" lon="1.97073">
        <ele>136.64</ele>
        <time>2019-12-19T08:57:34Z</time>
      </trkpt>
      <trkpt lat="48.599" lon="1.97073">
        <ele>136.64</ele>
        <time>2019-12-19T08:57:35Z</time>
      </trkpt>
      <trkpt lat="48.599" lon="1.97074">
        <ele>136.64</ele>
        <time>2019-12-19T08:57:36Z</time>
      </trkpt>
      <trkpt lat="48.59901" lon="1.97076">
        <ele>136.16</ele>
        <time>2019-12-19T08:57:37Z</time>
      </trkpt>
      <trkpt lat="48.59902" lon="1.97077">
        <ele>136.16</ele>
        <time>2019-12-19T08:57:38Z</time>
      </trkpt>
      <trkpt lat="48.59903" lon="1.97078">
        <ele>136.16</ele>
        <time>2019-12-19T08:57:39Z</time>
      </trkpt>
      <trkpt lat="48.59905" lon="1.97079">
        <ele>136.16</ele>
        <time>2019-12-19T08:57:40Z</time>
      </trkpt>
      <trkpt lat="48.59906" lon="1.97081">
        <ele>136.16</ele>
        <time>2019-12-19T08:57:41Z</time>
      </trkpt>
      <trkpt lat="48.59907" lon="1.97082">
        <ele>136.16</ele>
        <time>2019-12-19T08:57:42Z</time>
      </trkpt>
      <trkpt lat="48.59909" lon="1.97084">
        <ele>136.16</ele>
        <time>2019-12-19T08:57:43Z</time>
      </trkpt>
      <trkpt lat="48.59911" lon="1.97085">
        <ele>136.16</ele>
        <time>2019-12-19T08:57:44Z</time>
      </trkpt>
      <trkpt lat="48.59912" lon="1.97086">
        <ele>136.16</ele>
        <time>2019-12-19T08:57:45Z</time>
      </trkpt>
      <trkpt lat="48.59914" lon="1.97087">
        <ele>136.16</ele>
        <time>2019-12-19T08:57:46Z</time>
      </trkpt>
      <trkpt lat="48.59915" lon="1.97089">
        <ele>135.68</ele>
        <time>2019-12-19T08:57:47Z</time>
      </trkpt>
      <trkpt lat="48.59916" lon="1.9709">
        <ele>135.68</ele>
        <time>2019-12-19T08:57:48Z</time>
      </trkpt>
      <trkpt lat="48.59917" lon="1.97091">
        <ele>135.68</ele>
        <time>2019-12-19T08:57:49Z</time>
      </trkpt>
      <trkpt lat="48.59918" lon="1.97093">
        <ele>135.68</ele>
        <time>2019-12-19T08:57:50Z</time>
      </trkpt>
      <trkpt lat="48.59919" lon="1.97094">
        <ele>135.68</ele>
        <time>2019-12-19T08:57:51Z</time>
      </trkpt>
      <trkpt lat="48.5992" lon="1.97095">
        <ele>135.68</ele>
        <time>2019-12-19T08:57:52Z</time>
      </trkpt>
      <trkpt lat="48.59922" lon="1.97097">
        <ele>135.68</ele>
        <time>2019-12-19T08:57:53Z</time>
      </trkpt>
      <trkpt lat="48.59923" lon="1.97098">
        <ele>136.16</ele>
        <time>2019-12-19T08:57:54Z</time>
      </trkpt>
      <trkpt lat="48.59924" lon="1.97099">
        <ele>135.68</ele>
        <time>2019-12-19T08:57:55Z</time>
      </trkpt>
      <trkpt lat="48.59925" lon="1.971">
        <ele>135.68</ele>
        <time>2019-12-19T08:57:56Z</time>
      </trkpt>
      <trkpt lat="48.59926" lon="1.971">
        <ele>135.68</ele>
        <time>2019-12-19T08:57:57Z</time>
      </trkpt>
      <trkpt lat="48.59927" lon="1.97101">
        <ele>135.68</ele>
        <time>2019-12-19T08:57:58Z</time>
      </trkpt>
      <trkpt lat="48.59929" lon="1.97102">
        <ele>136.16</ele>
        <time>2019-12-19T08:57:59Z</time>
      </trkpt>
      <trkpt lat="48.5993" lon="1.97103">
        <ele>135.68</ele>
        <time>2019-12-19T08:58:00Z</time>
      </trkpt>
      <trkpt lat="48.59931" lon="1.97105">
        <ele>135.68</ele>
        <time>2019-12-19T08:58:01Z</time>
      </trkpt>
      <trkpt lat="48.59932" lon="1.97107">
        <ele>135.68</ele>
        <time>2019-12-19T08:58:02Z</time>
      </trkpt>
      <trkpt lat="48.59934" lon="1.97108">
        <ele>135.68</ele>
        <time>2019-12-19T08:58:03Z</time>
      </trkpt>
      <trkpt lat="48.59935" lon="1.97109">
        <ele>135.68</ele>
        <time>2019-12-19T08:58:04Z</time>
      </trkpt>
      <trkpt lat="48.59936" lon="1.97111">
        <ele>135.2</ele>
        <time>2019-12-19T08:58:05Z</time>
      </trkpt>
      <trkpt lat="48.59937" lon="1.97112">
        <ele>135.2</ele>
        <time>2019-12-19T08:58:06Z</time>
      </trkpt>
      <trkpt lat="48.59938" lon="1.97113">
        <ele>135.2</ele>
        <time>2019-12-19T08:58:07Z</time>
      </trkpt>
      <trkpt lat="48.5994" lon="1.97114">
        <ele>135.2</ele>
        <time>2019-12-19T08:58:08Z</time>
      </trkpt>
      <trkpt lat="48.59941" lon="1.97115">
        <ele>135.2</ele>
        <time>2019-12-19T08:58:09Z</time>
      </trkpt>
      <trkpt lat="48.59942" lon="1.97116">
        <ele>135.2</ele>
        <time>2019-12-19T08:58:10Z</time>
      </trkpt>
      <trkpt lat="48.59943" lon="1.97117">
        <ele>135.2</ele>
        <time>2019-12-19T08:58:11Z</time>
      </trkpt>
      <trkpt lat="48.59944" lon="1.97118">
        <ele>135.2</ele>
        <time>2019-12-19T08:58:12Z</time>
      </trkpt>
      <trkpt lat="48.59945" lon="1.97119">
        <ele>135.2</ele>
        <time>2019-12-19T08:58:13Z</time>
      </trkpt>
      <trkpt lat="48.59947" lon="1.9712">
        <ele>134.72</ele>
        <time>2019-12-19T08:58:14Z</time>
      </trkpt>
      <trkpt lat="48.59948" lon="1.97122">
        <ele>134.72</ele>
        <time>2019-12-19T08:58:15Z</time>
      </trkpt>
      <trkpt lat="48.5995" lon="1.97123">
        <ele>134.72</ele>
        <time>2019-12-19T08:58:16Z</time>
      </trkpt>
      <trkpt lat="48.59951" lon="1.97124">
        <ele>134.72</ele>
        <time>2019-12-19T08:58:17Z</time>
      </trkpt>
      <trkpt lat="48.59952" lon="1.97125">
        <ele>134.72</ele>
        <time>2019-12-19T08:58:18Z</time>
      </trkpt>
      <trkpt lat="48.59954" lon="1.97126">
        <ele>134.72</ele>
        <time>2019-12-19T08:58:19Z</time>
      </trkpt>
      <trkpt lat="48.59955" lon="1.97127">
        <ele>134.72</ele>
        <time>2019-12-19T08:58:20Z</time>
      </trkpt>
      <trkpt lat="48.59956" lon="1.97127">
        <ele>134.72</ele>
        <time>2019-12-19T08:58:21Z</time>
      </trkpt>
      <trkpt lat="48.59956" lon="1.97127">
        <ele>134.72</ele>
        <time>2019-12-19T08:58:22Z</time>
      </trkpt>
      <trkpt lat="48.59959" lon="1.97129">
        <ele>134.72</ele>
        <time>2019-12-19T08:58:25Z</time>
      </trkpt>
      <trkpt lat="48.5996" lon="1.97129">
        <ele>134.72</ele>
        <time>2019-12-19T08:58:26Z</time>
      </trkpt>
      <trkpt lat="48.5996" lon="1.9713">
        <ele>134.72</ele>
        <time>2019-12-19T08:58:27Z</time>
      </trkpt>
      <trkpt lat="48.5996" lon="1.9713">
        <ele>135.2</ele>
        <time>2019-12-19T08:58:28Z</time>
      </trkpt>
      <trkpt lat="48.59961" lon="1.9713">
        <ele>135.2</ele>
        <time>2019-12-19T08:58:29Z</time>
      </trkpt>
      <trkpt lat="48.59961" lon="1.9713">
        <ele>135.2</ele>
        <time>2019-12-19T08:58:30Z</time>
      </trkpt>
      <trkpt lat="48.59962" lon="1.97131">
        <ele>134.72</ele>
        <time>2019-12-19T08:58:31Z</time>
      </trkpt>
      <trkpt lat="48.59962" lon="1.97131">
        <ele>135.2</ele>
        <time>2019-12-19T08:58:32Z</time>
      </trkpt>
      <trkpt lat="48.59963" lon="1.97132">
        <ele>135.2</ele>
        <time>2019-12-19T08:58:33Z</time>
      </trkpt>
      <trkpt lat="48.59964" lon="1.97134">
        <ele>135.2</ele>
        <time>2019-12-19T08:58:34Z</time>
      </trkpt>
      <trkpt lat="48.59964" lon="1.97135">
        <ele>135.2</ele>
        <time>2019-12-19T08:58:35Z</time>
      </trkpt>
      <trkpt lat="48.59965" lon="1.97136">
        <ele>135.2</ele>
        <time>2019-12-19T08:58:36Z</time>
      </trkpt>
      <trkpt lat="48.59966" lon="1.97136">
        <ele>135.2</ele>
        <time>2019-12-19T08:58:37Z</time>
      </trkpt>
      <trkpt lat="48.59967" lon="1.97136">
        <ele>135.2</ele>
        <time>2019-12-19T08:58:38Z</time>
      </trkpt>
      <trkpt lat="48.59968" lon="1.97137">
        <ele>135.2</ele>
        <time>2019-12-19T08:58:39Z</time>
      </trkpt>
      <trkpt lat="48.59969" lon="1.97137">
        <ele>134.72</ele>
        <time>2019-12-19T08:58:40Z</time>
      </trkpt>
      <trkpt lat="48.59969" lon="1.97137">
        <ele>135.68</ele>
        <time>2019-12-19T08:58:41Z</time>
      </trkpt>
      <trkpt lat="48.59971" lon="1.97138">
        <ele>135.2</ele>
        <time>2019-12-19T08:58:42Z</time>
      </trkpt>
      <trkpt lat="48.59972" lon="1.97138">
        <ele>135.2</ele>
        <time>2019-12-19T08:58:43Z</time>
      </trkpt>
      <trkpt lat="48.59973" lon="1.97138">
        <ele>135.2</ele>
        <time>2019-12-19T08:58:44Z</time>
      </trkpt>
      <trkpt lat="48.59974" lon="1.97137">
        <ele>135.2</ele>
        <time>2019-12-19T08:58:45Z</time>
      </trkpt>
      <trkpt lat="48.59975" lon="1.97136">
        <ele>135.68</ele>
        <time>2019-12-19T08:58:46Z</time>
      </trkpt>
      <trkpt lat="48.59976" lon="1.97136">
        <ele>135.2</ele>
        <time>2019-12-19T08:58:47Z</time>
      </trkpt>
      <trkpt lat="48.59977" lon="1.97136">
        <ele>135.2</ele>
        <time>2019-12-19T08:58:48Z</time>
      </trkpt>
      <trkpt lat="48.59978" lon="1.97135">
        <ele>135.2</ele>
        <time>2019-12-19T08:58:49Z</time>
      </trkpt>
      <trkpt lat="48.59979" lon="1.97135">
        <ele>135.2</ele>
        <time>2019-12-19T08:58:50Z</time>
      </trkpt>
      <trkpt lat="48.5998" lon="1.97135">
        <ele>135.2</ele>
        <time>2019-12-19T08:58:51Z</time>
      </trkpt>
      <trkpt lat="48.59981" lon="1.97135">
        <ele>135.2</ele>
        <time>2019-12-19T08:58:52Z</time>
      </trkpt>
      <trkpt lat="48.59982" lon="1.97135">
        <ele>135.2</ele>
        <time>2019-12-19T08:58:53Z</time>
      </trkpt>
      <trkpt lat="48.59983" lon="1.97135">
        <ele>135.2</ele>
        <time>2019-12-19T08:58:54Z</time>
      </trkpt>
      <trkpt lat="48.59983" lon="1.97134">
        <ele>135.2</ele>
        <time>2019-12-19T08:58:55Z</time>
      </trkpt>
      <trkpt lat="48.59984" lon="1.97134">
        <ele>134.72</ele>
        <time>2019-12-19T08:58:56Z</time>
      </trkpt>
      <trkpt lat="48.59984" lon="1.97134">
        <ele>134.72</ele>
        <time>2019-12-19T08:58:57Z</time>
      </trkpt>
      <trkpt lat="48.59985" lon="1.97134">
        <ele>134.72</ele>
        <time>2019-12-19T08:58:58Z</time>
      </trkpt>
      <trkpt lat="48.59986" lon="1.97134">
        <ele>135.2</ele>
        <time>2019-12-19T08:58:59Z</time>
      </trkpt>
      <trkpt lat="48.59986" lon="1.97134">
        <ele>135.2</ele>
        <time>2019-12-19T08:59:00Z</time>
      </trkpt>
      <trkpt lat="48.59987" lon="1.97133">
        <ele>135.2</ele>
        <time>2019-12-19T08:59:01Z</time>
      </trkpt>
      <trkpt lat="48.59988" lon="1.97134">
        <ele>135.2</ele>
        <time>2019-12-19T08:59:02Z</time>
      </trkpt>
      <trkpt lat="48.59988" lon="1.97134">
        <ele>135.2</ele>
        <time>2019-12-19T08:59:03Z</time>
      </trkpt>
      <trkpt lat="48.59988" lon="1.97134">
        <ele>134.72</ele>
        <time>2019-12-19T08:59:04Z</time>
      </trkpt>
      <trkpt lat="48.59989" lon="1.97133">
        <ele>134.72</ele>
        <time>2019-12-19T08:59:05Z</time>
      </trkpt>
      <trkpt lat="48.59989" lon="1.97133">
        <ele>134.72</ele>
        <time>2019-12-19T08:59:06Z</time>
      </trkpt>
      <trkpt lat="48.59991" lon="1.97133">
        <ele>134.72</ele>
        <time>2019-12-19T08:59:09Z</time>
      </trkpt>
      <trkpt lat="48.59992" lon="1.97132">
        <ele>134.72</ele>
        <time>2019-12-19T08:59:10Z</time>
      </trkpt>
      <trkpt lat="48.59994" lon="1.97132">
        <ele>134.72</ele>
        <time>2019-12-19T08:59:11Z</time>
      </trkpt>
      <trkpt lat="48.59995" lon="1.97131">
        <ele>134.72</ele>
        <time>2019-12-19T08:59:12Z</time>
      </trkpt>
      <trkpt lat="48.59997" lon="1.97131">
        <ele>134.72</ele>
        <time>2019-12-19T08:59:13Z</time>
      </trkpt>
      <trkpt lat="48.59999" lon="1.9713">
        <ele>134.72</ele>
        <time>2019-12-19T08:59:14Z</time>
      </trkpt>
      <trkpt lat="48.6" lon="1.9713">
        <ele>134.24</ele>
        <time>2019-12-19T08:59:15Z</time>
      </trkpt>
      <trkpt lat="48.60002" lon="1.97129">
        <ele>134.72</ele>
        <time>2019-12-19T08:59:16Z</time>
      </trkpt>
      <trkpt lat="48.60004" lon="1.97128">
        <ele>134.72</ele>
        <time>2019-12-19T08:59:17Z</time>
      </trkpt>
      <trkpt lat="48.60006" lon="1.97128">
        <ele>134.72</ele>
        <time>2019-12-19T08:59:18Z</time>
      </trkpt>
      <trkpt lat="48.60008" lon="1.97128">
        <ele>134.24</ele>
        <time>2019-12-19T08:59:19Z</time>
      </trkpt>
      <trkpt lat="48.60009" lon="1.97127">
        <ele>134.24</ele>
        <time>2019-12-19T08:59:20Z</time>
      </trkpt>
      <trkpt lat="48.6001" lon="1.97126">
        <ele>134.24</ele>
        <time>2019-12-19T08:59:21Z</time>
      </trkpt>
      <trkpt lat="48.60012" lon="1.97124">
        <ele>134.24</ele>
        <time>2019-12-19T08:59:22Z</time>
      </trkpt>
      <trkpt lat="48.60015" lon="1.97124">
        <ele>134.24</ele>
        <time>2019-12-19T08:59:23Z</time>
      </trkpt>
      <trkpt lat="48.60016" lon="1.97123">
        <ele>134.24</ele>
        <time>2019-12-19T08:59:24Z</time>
      </trkpt>
      <trkpt lat="48.60018" lon="1.97123">
        <ele>134.24</ele>
        <time>2019-12-19T08:59:25Z</time>
      </trkpt>
      <trkpt lat="48.60024" lon="1.97122">
        <ele>134.72</ele>
        <time>2019-12-19T08:59:26Z</time>
      </trkpt>
      <trkpt lat="48.60028" lon="1.97122">
        <ele>134.72</ele>
        <time>2019-12-19T08:59:27Z</time>
      </trkpt>
      <trkpt lat="48.60032" lon="1.97121">
        <ele>134.24</ele>
        <time>2019-12-19T08:59:28Z</time>
      </trkpt>
      <trkpt lat="48.60035" lon="1.9712">
        <ele>134.24</ele>
        <time>2019-12-19T08:59:29Z</time>
      </trkpt>
      <trkpt lat="48.60038" lon="1.97118">
        <ele>134.24</ele>
        <time>2019-12-19T08:59:30Z</time>
      </trkpt>
      <trkpt lat="48.6004" lon="1.97116">
        <ele>134.72</ele>
        <time>2019-12-19T08:59:31Z</time>
      </trkpt>
      <trkpt lat="48.60042" lon="1.97115">
        <ele>134.24</ele>
        <time>2019-12-19T08:59:32Z</time>
      </trkpt>
      <trkpt lat="48.60044" lon="1.97114">
        <ele>134.24</ele>
        <time>2019-12-19T08:59:33Z</time>
      </trkpt>
      <trkpt lat="48.60046" lon="1.97113">
        <ele>134.24</ele>
        <time>2019-12-19T08:59:34Z</time>
      </trkpt>
      <trkpt lat="48.60047" lon="1.97113">
        <ele>134.24</ele>
        <time>2019-12-19T08:59:35Z</time>
      </trkpt>
      <trkpt lat="48.60049" lon="1.97112">
        <ele>134.24</ele>
        <time>2019-12-19T08:59:36Z</time>
      </trkpt>
      <trkpt lat="48.6005" lon="1.9711">
        <ele>134.24</ele>
        <time>2019-12-19T08:59:37Z</time>
      </trkpt>
      <trkpt lat="48.60052" lon="1.97109">
        <ele>134.24</ele>
        <time>2019-12-19T08:59:38Z</time>
      </trkpt>
      <trkpt lat="48.60053" lon="1.97108">
        <ele>134.24</ele>
        <time>2019-12-19T08:59:39Z</time>
      </trkpt>
      <trkpt lat="48.60055" lon="1.97107">
        <ele>134.24</ele>
        <time>2019-12-19T08:59:40Z</time>
      </trkpt>
      <trkpt lat="48.60056" lon="1.97106">
        <ele>134.24</ele>
        <time>2019-12-19T08:59:41Z</time>
      </trkpt>
      <trkpt lat="48.60058" lon="1.97106">
        <ele>134.24</ele>
        <time>2019-12-19T08:59:42Z</time>
      </trkpt>
      <trkpt lat="48.60059" lon="1.97105">
        <ele>134.72</ele>
        <time>2019-12-19T08:59:43Z</time>
      </trkpt>
      <trkpt lat="48.6006" lon="1.97105">
        <ele>134.72</ele>
        <time>2019-12-19T08:59:44Z</time>
      </trkpt>
      <trkpt lat="48.60061" lon="1.97105">
        <ele>134.24</ele>
        <time>2019-12-19T08:59:45Z</time>
      </trkpt>
      <trkpt lat="48.60062" lon="1.97104">
        <ele>134.24</ele>
        <time>2019-12-19T08:59:46Z</time>
      </trkpt>
      <trkpt lat="48.60063" lon="1.97104">
        <ele>134.72</ele>
        <time>2019-12-19T08:59:47Z</time>
      </trkpt>
      <trkpt lat="48.60064" lon="1.97103">
        <ele>134.72</ele>
        <time>2019-12-19T08:59:48Z</time>
      </trkpt>
      <trkpt lat="48.60065" lon="1.97102">
        <ele>134.72</ele>
        <time>2019-12-19T08:59:49Z</time>
      </trkpt>
      <trkpt lat="48.60067" lon="1.97102">
        <ele>134.72</ele>
        <time>2019-12-19T08:59:50Z</time>
      </trkpt>
      <trkpt lat="48.60068" lon="1.97102">
        <ele>134.72</ele>
        <time>2019-12-19T08:59:51Z</time>
      </trkpt>
      <trkpt lat="48.60069" lon="1.97101">
        <ele>134.24</ele>
        <time>2019-12-19T08:59:52Z</time>
      </trkpt>
      <trkpt lat="48.6007" lon="1.97101">
        <ele>134.72</ele>
        <time>2019-12-19T08:59:53Z</time>
      </trkpt>
      <trkpt lat="48.60072" lon="1.97101">
        <ele>134.72</ele>
        <time>2019-12-19T08:59:54Z</time>
      </trkpt>
      <trkpt lat="48.60073" lon="1.971">
        <ele>134.24</ele>
        <time>2019-12-19T08:59:55Z</time>
      </trkpt>
      <trkpt lat="48.60075" lon="1.97099">
        <ele>134.24</ele>
        <time>2019-12-19T08:59:56Z</time>
      </trkpt>
      <trkpt lat="48.60076" lon="1.97098">
        <ele>134.24</ele>
        <time>2019-12-19T08:59:57Z</time>
      </trkpt>
      <trkpt lat="48.60077" lon="1.97097">
        <ele>134.24</ele>
        <time>2019-12-19T08:59:58Z</time>
      </trkpt>
      <trkpt lat="48.60078" lon="1.97096">
        <ele>134.24</ele>
        <time>2019-12-19T08:59:59Z</time>
      </trkpt>
      <trkpt lat="48.60079" lon="1.97096">
        <ele>134.24</ele>
        <time>2019-12-19T09:00:00Z</time>
      </trkpt>
      <trkpt lat="48.60081" lon="1.97095">
        <ele>133.76</ele>
        <time>2019-12-19T09:00:01Z</time>
      </trkpt>
      <trkpt lat="48.60082" lon="1.97094">
        <ele>133.76</ele>
        <time>2019-12-19T09:00:02Z</time>
      </trkpt>
      <trkpt lat="48.60083" lon="1.97094">
        <ele>133.76</ele>
        <time>2019-12-19T09:00:03Z</time>
      </trkpt>
      <trkpt lat="48.60084" lon="1.97094">
        <ele>133.76</ele>
        <time>2019-12-19T09:00:04Z</time>
      </trkpt>
      <trkpt lat="48.60084" lon="1.97094">
        <ele>133.76</ele>
        <time>2019-12-19T09:00:05Z</time>
      </trkpt>
      <trkpt lat="48.60085" lon="1.97093">
        <ele>133.28</ele>
        <time>2019-12-19T09:00:06Z</time>
      </trkpt>
      <trkpt lat="48.60086" lon="1.97092">
        <ele>133.28</ele>
        <time>2019-12-19T09:00:07Z</time>
      </trkpt>
      <trkpt lat="48.60087" lon="1.97091">
        <ele>133.28</ele>
        <time>2019-12-19T09:00:08Z</time>
      </trkpt>
      <trkpt lat="48.60088" lon="1.97091">
        <ele>133.28</ele>
        <time>2019-12-19T09:00:09Z</time>
      </trkpt>
      <trkpt lat="48.60089" lon="1.97089">
        <ele>132.8</ele>
        <time>2019-12-19T09:00:10Z</time>
      </trkpt>
      <trkpt lat="48.6009" lon="1.97087">
        <ele>132.8</ele>
        <time>2019-12-19T09:00:11Z</time>
      </trkpt>
      <trkpt lat="48.60091" lon="1.97087">
        <ele>132.8</ele>
        <time>2019-12-19T09:00:12Z</time>
      </trkpt>
      <trkpt lat="48.60092" lon="1.97085">
        <ele>132.32</ele>
        <time>2019-12-19T09:00:13Z</time>
      </trkpt>
      <trkpt lat="48.60093" lon="1.97084">
        <ele>132.8</ele>
        <time>2019-12-19T09:00:14Z</time>
      </trkpt>
      <trkpt lat="48.60094" lon="1.97083">
        <ele>132.8</ele>
        <time>2019-12-19T09:00:15Z</time>
      </trkpt>
      <trkpt lat="48.60096" lon="1.97083">
        <ele>132.32</ele>
        <time>2019-12-19T09:00:16Z</time>
      </trkpt>
      <trkpt lat="48.60097" lon="1.97082">
        <ele>132.32</ele>
        <time>2019-12-19T09:00:17Z</time>
      </trkpt>
      <trkpt lat="48.60099" lon="1.97082">
        <ele>131.84</ele>
        <time>2019-12-19T09:00:18Z</time>
      </trkpt>
      <trkpt lat="48.601" lon="1.97082">
        <ele>131.84</ele>
        <time>2019-12-19T09:00:19Z</time>
      </trkpt>
      <trkpt lat="48.60102" lon="1.97082">
        <ele>131.84</ele>
        <time>2019-12-19T09:00:20Z</time>
      </trkpt>
      <trkpt lat="48.60103" lon="1.97081">
        <ele>131.36</ele>
        <time>2019-12-19T09:00:21Z</time>
      </trkpt>
      <trkpt lat="48.60104" lon="1.97081">
        <ele>131.36</ele>
        <time>2019-12-19T09:00:22Z</time>
      </trkpt>
      <trkpt lat="48.60105" lon="1.97081">
        <ele>131.36</ele>
        <time>2019-12-19T09:00:23Z</time>
      </trkpt>
      <trkpt lat="48.60106" lon="1.9708">
        <ele>131.36</ele>
        <time>2019-12-19T09:00:24Z</time>
      </trkpt>
      <trkpt lat="48.60107" lon="1.9708">
        <ele>131.36</ele>
        <time>2019-12-19T09:00:25Z</time>
      </trkpt>
      <trkpt lat="48.60107" lon="1.97079">
        <ele>130.88</ele>
        <time>2019-12-19T09:00:26Z</time>
      </trkpt>
      <trkpt lat="48.60108" lon="1.97079">
        <ele>130.88</ele>
        <time>2019-12-19T09:00:27Z</time>
      </trkpt>
      <trkpt lat="48.60109" lon="1.97079">
        <ele>130.88</ele>
        <time>2019-12-19T09:00:28Z</time>
      </trkpt>
      <trkpt lat="48.6011" lon="1.97079">
        <ele>130.4</ele>
        <time>2019-12-19T09:00:29Z</time>
      </trkpt>
      <trkpt lat="48.60111" lon="1.97079">
        <ele>130.4</ele>
        <time>2019-12-19T09:00:30Z</time>
      </trkpt>
      <trkpt lat="48.60112" lon="1.97079">
        <ele>130.4</ele>
        <time>2019-12-19T09:00:31Z</time>
      </trkpt>
      <trkpt lat="48.60114" lon="1.9708">
        <ele>130.4</ele>
        <time>2019-12-19T09:00:32Z</time>
      </trkpt>
      <trkpt lat="48.60115" lon="1.9708">
        <ele>129.92</ele>
        <time>2019-12-19T09:00:33Z</time>
      </trkpt>
      <trkpt lat="48.60117" lon="1.9708">
        <ele>129.92</ele>
        <time>2019-12-19T09:00:34Z</time>
      </trkpt>
      <trkpt lat="48.60118" lon="1.9708">
        <ele>129.92</ele>
        <time>2019-12-19T09:00:35Z</time>
      </trkpt>
      <trkpt lat="48.6012" lon="1.97081">
        <ele>129.92</ele>
        <time>2019-12-19T09:00:36Z</time>
      </trkpt>
      <trkpt lat="48.60122" lon="1.97082">
        <ele>129.43</ele>
        <time>2019-12-19T09:00:37Z</time>
      </trkpt>
      <trkpt lat="48.60124" lon="1.97083">
        <ele>129.43</ele>
        <time>2019-12-19T09:00:38Z</time>
      </trkpt>
      <trkpt lat="48.60126" lon="1.97083">
        <ele>129.43</ele>
        <time>2019-12-19T09:00:39Z</time>
      </trkpt>
      <trkpt lat="48.60128" lon="1.97083">
        <ele>129.43</ele>
        <time>2019-12-19T09:00:40Z</time>
      </trkpt>
      <trkpt lat="48.6013" lon="1.97084">
        <ele>128.95</ele>
        <time>2019-12-19T09:00:41Z</time>
      </trkpt>
      <trkpt lat="48.60132" lon="1.97084">
        <ele>128.95</ele>
        <time>2019-12-19T09:00:42Z</time>
      </trkpt>
      <trkpt lat="48.60133" lon="1.97085">
        <ele>128.47</ele>
        <time>2019-12-19T09:00:43Z</time>
      </trkpt>
      <trkpt lat="48.60135" lon="1.97085">
        <ele>128.47</ele>
        <time>2019-12-19T09:00:44Z</time>
      </trkpt>
      <trkpt lat="48.60136" lon="1.97085">
        <ele>128.47</ele>
        <time>2019-12-19T09:00:45Z</time>
      </trkpt>
      <trkpt lat="48.60137" lon="1.97085">
        <ele>127.99</ele>
        <time>2019-12-19T09:00:46Z</time>
      </trkpt>
      <trkpt lat="48.60139" lon="1.97085">
        <ele>127.99</ele>
        <time>2019-12-19T09:00:47Z</time>
      </trkpt>
      <trkpt lat="48.6014" lon="1.97085">
        <ele>127.51</ele>
        <time>2019-12-19T09:00:48Z</time>
      </trkpt>
      <trkpt lat="48.60141" lon="1.97085">
        <ele>127.51</ele>
        <time>2019-12-19T09:00:49Z</time>
      </trkpt>
      <trkpt lat="48.60143" lon="1.97085">
        <ele>127.51</ele>
        <time>2019-12-19T09:00:50Z</time>
      </trkpt>
      <trkpt lat="48.60144" lon="1.97085">
        <ele>127.03</ele>
        <time>2019-12-19T09:00:51Z</time>
      </trkpt>
      <trkpt lat="48.60146" lon="1.97084">
        <ele>127.03</ele>
        <time>2019-12-19T09:00:52Z</time>
      </trkpt>
      <trkpt lat="48.60147" lon="1.97083">
        <ele>127.03</ele>
        <time>2019-12-19T09:00:53Z</time>
      </trkpt>
      <trkpt lat="48.60147" lon="1.97082">
        <ele>126.55</ele>
        <time>2019-12-19T09:00:54Z</time>
      </trkpt>
      <trkpt lat="48.60148" lon="1.97081">
        <ele>126.55</ele>
        <time>2019-12-19T09:00:55Z</time>
      </trkpt>
      <trkpt lat="48.60149" lon="1.9708">
        <ele>126.55</ele>
        <time>2019-12-19T09:00:56Z</time>
      </trkpt>
      <trkpt lat="48.60149" lon="1.9708">
        <ele>126.55</ele>
        <time>2019-12-19T09:00:57Z</time>
      </trkpt>
      <trkpt lat="48.6015" lon="1.97079">
        <ele>126.55</ele>
        <time>2019-12-19T09:00:58Z</time>
      </trkpt>
      <trkpt lat="48.6015" lon="1.97078">
        <ele>126.07</ele>
        <time>2019-12-19T09:00:59Z</time>
      </trkpt>
      <trkpt lat="48.60151" lon="1.97078">
        <ele>126.07</ele>
        <time>2019-12-19T09:01:00Z</time>
      </trkpt>
      <trkpt lat="48.60152" lon="1.97077">
        <ele>126.07</ele>
        <time>2019-12-19T09:01:01Z</time>
      </trkpt>
      <trkpt lat="48.60153" lon="1.97077">
        <ele>126.07</ele>
        <time>2019-12-19T09:01:02Z</time>
      </trkpt>
      <trkpt lat="48.60154" lon="1.97077">
        <ele>126.07</ele>
        <time>2019-12-19T09:01:03Z</time>
      </trkpt>
      <trkpt lat="48.60154" lon="1.97077">
        <ele>125.59</ele>
        <time>2019-12-19T09:01:04Z</time>
      </trkpt>
      <trkpt lat="48.60155" lon="1.97077">
        <ele>125.59</ele>
        <time>2019-12-19T09:01:05Z</time>
      </trkpt>
      <trkpt lat="48.60155" lon="1.97077">
        <ele>125.59</ele>
        <time>2019-12-19T09:01:06Z</time>
      </trkpt>
      <trkpt lat="48.60156" lon="1.97077">
        <ele>125.59</ele>
        <time>2019-12-19T09:01:07Z</time>
      </trkpt>
      <trkpt lat="48.60158" lon="1.97077">
        <ele>125.59</ele>
        <time>2019-12-19T09:01:08Z</time>
      </trkpt>
      <trkpt lat="48.60159" lon="1.97078">
        <ele>125.11</ele>
        <time>2019-12-19T09:01:09Z</time>
      </trkpt>
      <trkpt lat="48.60161" lon="1.97079">
        <ele>124.63</ele>
        <time>2019-12-19T09:01:10Z</time>
      </trkpt>
      <trkpt lat="48.60163" lon="1.9708">
        <ele>124.63</ele>
        <time>2019-12-19T09:01:11Z</time>
      </trkpt>
      <trkpt lat="48.60165" lon="1.97081">
        <ele>124.63</ele>
        <time>2019-12-19T09:01:12Z</time>
      </trkpt>
      <trkpt lat="48.60169" lon="1.97083">
        <ele>124.63</ele>
        <time>2019-12-19T09:01:13Z</time>
      </trkpt>
      <trkpt lat="48.60173" lon="1.97083">
        <ele>124.63</ele>
        <time>2019-12-19T09:01:14Z</time>
      </trkpt>
      <trkpt lat="48.60176" lon="1.97084">
        <ele>124.63</ele>
        <time>2019-12-19T09:01:15Z</time>
      </trkpt>
      <trkpt lat="48.60179" lon="1.97084">
        <ele>124.63</ele>
        <time>2019-12-19T09:01:16Z</time>
      </trkpt>
      <trkpt lat="48.60181" lon="1.97084">
        <ele>124.15</ele>
        <time>2019-12-19T09:01:17Z</time>
      </trkpt>
      <trkpt lat="48.60181" lon="1.97084">
        <ele>124.15</ele>
        <time>2019-12-19T09:01:19Z</time>
      </trkpt>
      <trkpt lat="48.60182" lon="1.97084">
        <ele>123.67</ele>
        <time>2019-12-19T09:01:20Z</time>
      </trkpt>
      <trkpt lat="48.60183" lon="1.97083">
        <ele>123.67</ele>
        <time>2019-12-19T09:01:21Z</time>
      </trkpt>
      <trkpt lat="48.60184" lon="1.97083">
        <ele>123.19</ele>
        <time>2019-12-19T09:01:22Z</time>
      </trkpt>
      <trkpt lat="48.60186" lon="1.97083">
        <ele>123.19</ele>
        <time>2019-12-19T09:01:23Z</time>
      </trkpt>
      <trkpt lat="48.60186" lon="1.97083">
        <ele>123.19</ele>
        <time>2019-12-19T09:01:24Z</time>
      </trkpt>
      <trkpt lat="48.60187" lon="1.97084">
        <ele>123.19</ele>
        <time>2019-12-19T09:01:25Z</time>
      </trkpt>
      <trkpt lat="48.60189" lon="1.97084">
        <ele>123.19</ele>
        <time>2019-12-19T09:01:26Z</time>
      </trkpt>
      <trkpt lat="48.6019" lon="1.97084">
        <ele>122.71</ele>
        <time>2019-12-19T09:01:27Z</time>
      </trkpt>
      <trkpt lat="48.60192" lon="1.97084">
        <ele>122.71</ele>
        <time>2019-12-19T09:01:28Z</time>
      </trkpt>
      <trkpt lat="48.60194" lon="1.97085">
        <ele>122.71</ele>
        <time>2019-12-19T09:01:29Z</time>
      </trkpt>
      <trkpt lat="48.60195" lon="1.97084">
        <ele>122.71</ele>
        <time>2019-12-19T09:01:30Z</time>
      </trkpt>
      <trkpt lat="48.60197" lon="1.97085">
        <ele>123.19</ele>
        <time>2019-12-19T09:01:31Z</time>
      </trkpt>
      <trkpt lat="48.60198" lon="1.97085">
        <ele>122.22</ele>
        <time>2019-12-19T09:01:32Z</time>
      </trkpt>
      <trkpt lat="48.60199" lon="1.97085">
        <ele>122.22</ele>
        <time>2019-12-19T09:01:33Z</time>
      </trkpt>
      <trkpt lat="48.602" lon="1.97085">
        <ele>122.22</ele>
        <time>2019-12-19T09:01:34Z</time>
      </trkpt>
      <trkpt lat="48.602" lon="1.97085">
        <ele>121.74</ele>
        <time>2019-12-19T09:01:35Z</time>
      </trkpt>
      <trkpt lat="48.602" lon="1.97085">
        <ele>121.74</ele>
        <time>2019-12-19T09:01:36Z</time>
      </trkpt>
      <trkpt lat="48.60201" lon="1.97086">
        <ele>121.74</ele>
        <time>2019-12-19T09:01:37Z</time>
      </trkpt>
      <trkpt lat="48.60201" lon="1.97086">
        <ele>121.74</ele>
        <time>2019-12-19T09:01:38Z</time>
      </trkpt>
      <trkpt lat="48.60202" lon="1.97086">
        <ele>121.26</ele>
        <time>2019-12-19T09:01:39Z</time>
      </trkpt>
      <trkpt lat="48.60202" lon="1.97085">
        <ele>121.26</ele>
        <time>2019-12-19T09:01:40Z</time>
      </trkpt>
      <trkpt lat="48.60202" lon="1.97085">
        <ele>121.26</ele>
        <time>2019-12-19T09:01:41Z</time>
      </trkpt>
      <trkpt lat="48.60203" lon="1.97085">
        <ele>121.26</ele>
        <time>2019-12-19T09:01:42Z</time>
      </trkpt>
      <trkpt lat="48.60204" lon="1.97085">
        <ele>121.26</ele>
        <time>2019-12-19T09:01:43Z</time>
      </trkpt>
      <trkpt lat="48.60205" lon="1.97085">
        <ele>121.26</ele>
        <time>2019-12-19T09:01:44Z</time>
      </trkpt>
      <trkpt lat="48.60207" lon="1.97085">
        <ele>120.78</ele>
        <time>2019-12-19T09:01:45Z</time>
      </trkpt>
      <trkpt lat="48.60207" lon="1.97085">
        <ele>120.78</ele>
        <time>2019-12-19T09:01:46Z</time>
      </trkpt>
      <trkpt lat="48.60208" lon="1.97085">
        <ele>120.78</ele>
        <time>2019-12-19T09:01:47Z</time>
      </trkpt>
      <trkpt lat="48.60209" lon="1.97086">
        <ele>120.3</ele>
        <time>2019-12-19T09:01:48Z</time>
      </trkpt>
      <trkpt lat="48.6021" lon="1.97086">
        <ele>120.3</ele>
        <time>2019-12-19T09:01:49Z</time>
      </trkpt>
      <trkpt lat="48.6021" lon="1.97087">
        <ele>120.3</ele>
        <time>2019-12-19T09:01:50Z</time>
      </trkpt>
      <trkpt lat="48.60211" lon="1.97087">
        <ele>120.3</ele>
        <time>2019-12-19T09:01:52Z</time>
      </trkpt>
      <trkpt lat="48.60212" lon="1.97087">
        <ele>119.82</ele>
        <time>2019-12-19T09:01:53Z</time>
      </trkpt>
      <trkpt lat="48.60212" lon="1.97087">
        <ele>119.82</ele>
        <time>2019-12-19T09:01:54Z</time>
      </trkpt>
      <trkpt lat="48.60212" lon="1.97088">
        <ele>119.82</ele>
        <time>2019-12-19T09:01:55Z</time>
      </trkpt>
      <trkpt lat="48.60213" lon="1.97088">
        <ele>119.82</ele>
        <time>2019-12-19T09:01:56Z</time>
      </trkpt>
      <trkpt lat="48.60214" lon="1.97088">
        <ele>119.82</ele>
        <time>2019-12-19T09:01:59Z</time>
      </trkpt>
      <trkpt lat="48.60216" lon="1.97089">
        <ele>119.82</ele>
        <time>2019-12-19T09:02:00Z</time>
      </trkpt>
      <trkpt lat="48.60218" lon="1.9709">
        <ele>119.82</ele>
        <time>2019-12-19T09:02:01Z</time>
      </trkpt>
      <trkpt lat="48.6022" lon="1.97091">
        <ele>119.34</ele>
        <time>2019-12-19T09:02:02Z</time>
      </trkpt>
      <trkpt lat="48.60222" lon="1.97092">
        <ele>119.34</ele>
        <time>2019-12-19T09:02:03Z</time>
      </trkpt>
      <trkpt lat="48.60225" lon="1.97094">
        <ele>119.34</ele>
        <time>2019-12-19T09:02:04Z</time>
      </trkpt>
      <trkpt lat="48.60227" lon="1.97095">
        <ele>119.34</ele>
        <time>2019-12-19T09:02:05Z</time>
      </trkpt>
      <trkpt lat="48.60228" lon="1.97095">
        <ele>119.34</ele>
        <time>2019-12-19T09:02:06Z</time>
      </trkpt>
      <trkpt lat="48.6023" lon="1.97096">
        <ele>118.86</ele>
        <time>2019-12-19T09:02:11Z</time>
      </trkpt>
      <trkpt lat="48.6023" lon="1.97096">
        <ele>118.86</ele>
        <time>2019-12-19T09:02:12Z</time>
      </trkpt>
      <trkpt lat="48.60231" lon="1.97097">
        <ele>118.86</ele>
        <time>2019-12-19T09:02:13Z</time>
      </trkpt>
      <trkpt lat="48.60232" lon="1.97097">
        <ele>118.86</ele>
        <time>2019-12-19T09:02:14Z</time>
      </trkpt>
      <trkpt lat="48.60232" lon="1.97097">
        <ele>118.38</ele>
        <time>2019-12-19T09:02:15Z</time>
      </trkpt>
      <trkpt lat="48.60232" lon="1.97097">
        <ele>118.38</ele>
        <time>2019-12-19T09:02:16Z</time>
      </trkpt>
      <trkpt lat="48.60233" lon="1.97097">
        <ele>118.38</ele>
        <time>2019-12-19T09:02:17Z</time>
      </trkpt>
      <trkpt lat="48.60234" lon="1.97098">
        <ele>118.38</ele>
        <time>2019-12-19T09:02:18Z</time>
      </trkpt>
      <trkpt lat="48.60235" lon="1.97098">
        <ele>118.38</ele>
        <time>2019-12-19T09:02:19Z</time>
      </trkpt>
      <trkpt lat="48.60235" lon="1.97097">
        <ele>118.38</ele>
        <time>2019-12-19T09:02:20Z</time>
      </trkpt>
      <trkpt lat="48.60236" lon="1.97097">
        <ele>118.38</ele>
        <time>2019-12-19T09:02:21Z</time>
      </trkpt>
      <trkpt lat="48.60236" lon="1.97098">
        <ele>118.38</ele>
        <time>2019-12-19T09:02:24Z</time>
      </trkpt>
      <trkpt lat="48.60236" lon="1.97098">
        <ele>118.38</ele>
        <time>2019-12-19T09:02:25Z</time>
      </trkpt>
      <trkpt lat="48.60236" lon="1.97098">
        <ele>118.38</ele>
        <time>2019-12-19T09:02:26Z</time>
      </trkpt>
      <trkpt lat="48.60237" lon="1.97098">
        <ele>118.38</ele>
        <time>2019-12-19T09:02:27Z</time>
      </trkpt>
      <trkpt lat="48.60237" lon="1.97098">
        <ele>118.38</ele>
        <time>2019-12-19T09:02:28Z</time>
      </trkpt>
      <trkpt lat="48.60238" lon="1.97098">
        <ele>118.38</ele>
        <time>2019-12-19T09:02:29Z</time>
      </trkpt>
      <trkpt lat="48.60238" lon="1.97098">
        <ele>118.38</ele>
        <time>2019-12-19T09:02:30Z</time>
      </trkpt>
      <trkpt lat="48.60238" lon="1.97098">
        <ele>118.38</ele>
        <time>2019-12-19T09:02:31Z</time>
      </trkpt>
      <trkpt lat="48.60239" lon="1.97098">
        <ele>118.38</ele>
        <time>2019-12-19T09:02:32Z</time>
      </trkpt>
      <trkpt lat="48.60239" lon="1.97098">
        <ele>118.38</ele>
        <time>2019-12-19T09:02:33Z</time>
      </trkpt>
      <trkpt lat="48.60239" lon="1.97098">
        <ele>118.38</ele>
        <time>2019-12-19T09:02:34Z</time>
      </trkpt>
      <trkpt lat="48.6024" lon="1.97099">
        <ele>118.38</ele>
        <time>2019-12-19T09:02:41Z</time>
      </trkpt>
      <trkpt lat="48.6024" lon="1.97099">
        <ele>118.38</ele>
        <time>2019-12-19T09:02:42Z</time>
      </trkpt>
      <trkpt lat="48.6024" lon="1.97099">
        <ele>118.38</ele>
        <time>2019-12-19T09:02:43Z</time>
      </trkpt>
      <trkpt lat="48.60241" lon="1.971">
        <ele>118.38</ele>
        <time>2019-12-19T09:02:49Z</time>
      </trkpt>
      <trkpt lat="48.60241" lon="1.971">
        <ele>118.38</ele>
        <time>2019-12-19T09:02:50Z</time>
      </trkpt>
      <trkpt lat="48.60238" lon="1.97098">
        <ele>117.9</ele>
        <time>2019-12-19T09:03:12Z</time>
      </trkpt>
      <trkpt lat="48.60238" lon="1.97098">
        <ele>117.9</ele>
        <time>2019-12-19T09:03:13Z</time>
      </trkpt>
      <trkpt lat="48.60238" lon="1.97098">
        <ele>118.38</ele>
        <time>2019-12-19T09:03:18Z</time>
      </trkpt>
      <trkpt lat="48.60238" lon="1.97098">
        <ele>117.9</ele>
        <time>2019-12-19T09:03:19Z</time>
      </trkpt>
      <trkpt lat="48.60237" lon="1.97097">
        <ele>117.9</ele>
        <time>2019-12-19T09:03:29Z</time>
      </trkpt>
      <trkpt lat="48.60237" lon="1.97097">
        <ele>117.9</ele>
        <time>2019-12-19T09:03:30Z</time>
      </trkpt>
      <trkpt lat="48.60237" lon="1.97097">
        <ele>117.9</ele>
        <time>2019-12-19T09:03:36Z</time>
      </trkpt>
      <trkpt lat="48.60238" lon="1.97097">
        <ele>118.38</ele>
        <time>2019-12-19T09:03:37Z</time>
      </trkpt>
      <trkpt lat="48.60238" lon="1.97097">
        <ele>117.9</ele>
        <time>2019-12-19T09:03:38Z</time>
      </trkpt>
      <trkpt lat="48.60238" lon="1.97097">
        <ele>118.38</ele>
        <time>2019-12-19T09:03:39Z</time>
      </trkpt>
      <trkpt lat="48.60238" lon="1.97097">
        <ele>118.38</ele>
        <time>2019-12-19T09:03:40Z</time>
      </trkpt>
      <trkpt lat="48.60238" lon="1.97096">
        <ele>118.38</ele>
        <time>2019-12-19T09:03:41Z</time>
      </trkpt>
      <trkpt lat="48.60239" lon="1.97096">
        <ele>118.38</ele>
        <time>2019-12-19T09:03:42Z</time>
      </trkpt>
      <trkpt lat="48.60239" lon="1.97096">
        <ele>118.38</ele>
        <time>2019-12-19T09:03:43Z</time>
      </trkpt>
      <trkpt lat="48.60239" lon="1.97096">
        <ele>118.38</ele>
        <time>2019-12-19T09:03:44Z</time>
      </trkpt>
      <trkpt lat="48.60239" lon="1.97096">
        <ele>118.38</ele>
        <time>2019-12-19T09:03:45Z</time>
      </trkpt>
      <trkpt lat="48.60239" lon="1.97096">
        <ele>118.38</ele>
        <time>2019-12-19T09:03:46Z</time>
      </trkpt>
      <trkpt lat="48.6024" lon="1.97096">
        <ele>118.38</ele>
        <time>2019-12-19T09:03:55Z</time>
      </trkpt>
      <trkpt lat="48.6024" lon="1.97096">
        <ele>118.38</ele>
        <time>2019-12-19T09:03:56Z</time>
      </trkpt>
      <trkpt lat="48.6024" lon="1.97096">
        <ele>118.38</ele>
        <time>2019-12-19T09:04:00Z</time>
      </trkpt>
      <trkpt lat="48.60241" lon="1.97096">
        <ele>118.38</ele>
        <time>2019-12-19T09:04:01Z</time>
      </trkpt>
      <trkpt lat="48.60243" lon="1.97098">
        <ele>118.38</ele>
        <time>2019-12-19T09:04:02Z</time>
      </trkpt>
      <trkpt lat="48.60243" lon="1.97098">
        <ele>117.9</ele>
        <time>2019-12-19T09:04:03Z</time>
      </trkpt>
      <trkpt lat="48.60243" lon="1.97098">
        <ele>118.38</ele>
        <time>2019-12-19T09:04:04Z</time>
      </trkpt>
      <trkpt lat="48.60245" lon="1.97097">
        <ele>117.9</ele>
        <time>2019-12-19T09:04:05Z</time>
      </trkpt>
      <trkpt lat="48.60246" lon="1.97097">
        <ele>117.9</ele>
        <time>2019-12-19T09:04:06Z</time>
      </trkpt>
      <trkpt lat="48.60248" lon="1.97097">
        <ele>117.9</ele>
        <time>2019-12-19T09:04:07Z</time>
      </trkpt>
      <trkpt lat="48.6025" lon="1.97098">
        <ele>117.9</ele>
        <time>2019-12-19T09:04:08Z</time>
      </trkpt>
      <trkpt lat="48.60251" lon="1.97098">
        <ele>117.9</ele>
        <time>2019-12-19T09:04:09Z</time>
      </trkpt>
      <trkpt lat="48.60253" lon="1.97097">
        <ele>118.38</ele>
        <time>2019-12-19T09:04:10Z</time>
      </trkpt>
      <trkpt lat="48.60254" lon="1.97095">
        <ele>117.9</ele>
        <time>2019-12-19T09:04:11Z</time>
      </trkpt>
      <trkpt lat="48.60255" lon="1.97094">
        <ele>117.9</ele>
        <time>2019-12-19T09:04:12Z</time>
      </trkpt>
      <trkpt lat="48.60257" lon="1.97092">
        <ele>118.38</ele>
        <time>2019-12-19T09:04:13Z</time>
      </trkpt>
      <trkpt lat="48.60258" lon="1.97091">
        <ele>117.9</ele>
        <time>2019-12-19T09:04:14Z</time>
      </trkpt>
      <trkpt lat="48.60259" lon="1.97088">
        <ele>117.9</ele>
        <time>2019-12-19T09:04:15Z</time>
      </trkpt>
      <trkpt lat="48.60259" lon="1.97087">
        <ele>117.9</ele>
        <time>2019-12-19T09:04:16Z</time>
      </trkpt>
      <trkpt lat="48.6026" lon="1.97085">
        <ele>117.42</ele>
        <time>2019-12-19T09:04:17Z</time>
      </trkpt>
      <trkpt lat="48.60261" lon="1.97084">
        <ele>117.9</ele>
        <time>2019-12-19T09:04:18Z</time>
      </trkpt>
      <trkpt lat="48.60262" lon="1.97083">
        <ele>117.9</ele>
        <time>2019-12-19T09:04:19Z</time>
      </trkpt>
      <trkpt lat="48.60262" lon="1.97081">
        <ele>117.42</ele>
        <time>2019-12-19T09:04:20Z</time>
      </trkpt>
      <trkpt lat="48.60263" lon="1.9708">
        <ele>117.42</ele>
        <time>2019-12-19T09:04:21Z</time>
      </trkpt>
      <trkpt lat="48.60265" lon="1.97078">
        <ele>117.42</ele>
        <time>2019-12-19T09:04:22Z</time>
      </trkpt>
      <trkpt lat="48.60265" lon="1.97076">
        <ele>117.42</ele>
        <time>2019-12-19T09:04:23Z</time>
      </trkpt>
      <trkpt lat="48.60267" lon="1.97074">
        <ele>117.42</ele>
        <time>2019-12-19T09:04:24Z</time>
      </trkpt>
      <trkpt lat="48.60268" lon="1.97072">
        <ele>117.42</ele>
        <time>2019-12-19T09:04:25Z</time>
      </trkpt>
      <trkpt lat="48.60268" lon="1.9707">
        <ele>116.94</ele>
        <time>2019-12-19T09:04:26Z</time>
      </trkpt>
      <trkpt lat="48.60269" lon="1.97069">
        <ele>116.94</ele>
        <time>2019-12-19T09:04:27Z</time>
      </trkpt>
      <trkpt lat="48.60271" lon="1.97068">
        <ele>116.94</ele>
        <time>2019-12-19T09:04:28Z</time>
      </trkpt>
      <trkpt lat="48.60272" lon="1.97067">
        <ele>116.94</ele>
        <time>2019-12-19T09:04:29Z</time>
      </trkpt>
      <trkpt lat="48.60274" lon="1.97065">
        <ele>116.94</ele>
        <time>2019-12-19T09:04:30Z</time>
      </trkpt>
      <trkpt lat="48.60275" lon="1.97064">
        <ele>116.94</ele>
        <time>2019-12-19T09:04:31Z</time>
      </trkpt>
      <trkpt lat="48.60276" lon="1.97063">
        <ele>116.94</ele>
        <time>2019-12-19T09:04:32Z</time>
      </trkpt>
      <trkpt lat="48.60277" lon="1.97062">
        <ele>116.46</ele>
        <time>2019-12-19T09:04:33Z</time>
      </trkpt>
      <trkpt lat="48.60278" lon="1.9706">
        <ele>116.46</ele>
        <time>2019-12-19T09:04:34Z</time>
      </trkpt>
      <trkpt lat="48.60279" lon="1.97058">
        <ele>116.46</ele>
        <time>2019-12-19T09:04:35Z</time>
      </trkpt>
      <trkpt lat="48.60281" lon="1.97057">
        <ele>116.46</ele>
        <time>2019-12-19T09:04:36Z</time>
      </trkpt>
      <trkpt lat="48.60283" lon="1.97055">
        <ele>115.98</ele>
        <time>2019-12-19T09:04:37Z</time>
      </trkpt>
      <trkpt lat="48.60284" lon="1.97053">
        <ele>116.46</ele>
        <time>2019-12-19T09:04:38Z</time>
      </trkpt>
      <trkpt lat="48.60286" lon="1.97052">
        <ele>115.98</ele>
        <time>2019-12-19T09:04:39Z</time>
      </trkpt>
      <trkpt lat="48.60287" lon="1.9705">
        <ele>115.98</ele>
        <time>2019-12-19T09:04:40Z</time>
      </trkpt>
      <trkpt lat="48.60288" lon="1.97048">
        <ele>115.5</ele>
        <time>2019-12-19T09:04:41Z</time>
      </trkpt>
      <trkpt lat="48.60289" lon="1.97046">
        <ele>115.5</ele>
        <time>2019-12-19T09:04:42Z</time>
      </trkpt>
      <trkpt lat="48.6029" lon="1.97045">
        <ele>115.5</ele>
        <time>2019-12-19T09:04:43Z</time>
      </trkpt>
      <trkpt lat="48.60291" lon="1.97043">
        <ele>115.5</ele>
        <time>2019-12-19T09:04:44Z</time>
      </trkpt>
      <trkpt lat="48.60293" lon="1.97042">
        <ele>115.5</ele>
        <time>2019-12-19T09:04:45Z</time>
      </trkpt>
      <trkpt lat="48.60293" lon="1.97041">
        <ele>115.5</ele>
        <time>2019-12-19T09:04:46Z</time>
      </trkpt>
      <trkpt lat="48.60294" lon="1.9704">
        <ele>115.5</ele>
        <time>2019-12-19T09:04:47Z</time>
      </trkpt>
      <trkpt lat="48.60295" lon="1.97039">
        <ele>115.01</ele>
        <time>2019-12-19T09:04:48Z</time>
      </trkpt>
      <trkpt lat="48.60296" lon="1.97039">
        <ele>115.01</ele>
        <time>2019-12-19T09:04:49Z</time>
      </trkpt>
      <trkpt lat="48.60296" lon="1.97039">
        <ele>115.01</ele>
        <time>2019-12-19T09:04:50Z</time>
      </trkpt>
      <trkpt lat="48.60297" lon="1.97038">
        <ele>115.01</ele>
        <time>2019-12-19T09:04:51Z</time>
      </trkpt>
      <trkpt lat="48.60297" lon="1.97039">
        <ele>114.53</ele>
        <time>2019-12-19T09:04:52Z</time>
      </trkpt>
      <trkpt lat="48.60298" lon="1.97039">
        <ele>114.53</ele>
        <time>2019-12-19T09:04:53Z</time>
      </trkpt>
      <trkpt lat="48.60298" lon="1.97038">
        <ele>114.53</ele>
        <time>2019-12-19T09:04:55Z</time>
      </trkpt>
      <trkpt lat="48.60298" lon="1.97038">
        <ele>114.53</ele>
        <time>2019-12-19T09:04:56Z</time>
      </trkpt>
      <trkpt lat="48.60299" lon="1.97039">
        <ele>114.05</ele>
        <time>2019-12-19T09:04:57Z</time>
      </trkpt>
      <trkpt lat="48.603" lon="1.97039">
        <ele>114.53</ele>
        <time>2019-12-19T09:04:58Z</time>
      </trkpt>
      <trkpt lat="48.603" lon="1.9704">
        <ele>114.53</ele>
        <time>2019-12-19T09:04:59Z</time>
      </trkpt>
      <trkpt lat="48.603" lon="1.97041">
        <ele>114.53</ele>
        <time>2019-12-19T09:05:00Z</time>
      </trkpt>
      <trkpt lat="48.60301" lon="1.97043">
        <ele>114.05</ele>
        <time>2019-12-19T09:05:01Z</time>
      </trkpt>
      <trkpt lat="48.60301" lon="1.97045">
        <ele>114.05</ele>
        <time>2019-12-19T09:05:02Z</time>
      </trkpt>
      <trkpt lat="48.60301" lon="1.97046">
        <ele>114.05</ele>
        <time>2019-12-19T09:05:03Z</time>
      </trkpt>
      <trkpt lat="48.60302" lon="1.97048">
        <ele>114.05</ele>
        <time>2019-12-19T09:05:04Z</time>
      </trkpt>
      <trkpt lat="48.60302" lon="1.9705">
        <ele>114.05</ele>
        <time>2019-12-19T09:05:05Z</time>
      </trkpt>
      <trkpt lat="48.60302" lon="1.97052">
        <ele>114.05</ele>
        <time>2019-12-19T09:05:06Z</time>
      </trkpt>
      <trkpt lat="48.60302" lon="1.97054">
        <ele>114.05</ele>
        <time>2019-12-19T09:05:07Z</time>
      </trkpt>
      <trkpt lat="48.60302" lon="1.97056">
        <ele>114.05</ele>
        <time>2019-12-19T09:05:08Z</time>
      </trkpt>
      <trkpt lat="48.60302" lon="1.97058">
        <ele>114.05</ele>
        <time>2019-12-19T09:05:09Z</time>
      </trkpt>
      <trkpt lat="48.60302" lon="1.9706">
        <ele>114.05</ele>
        <time>2019-12-19T09:05:10Z</time>
      </trkpt>
      <trkpt lat="48.60303" lon="1.97062">
        <ele>113.57</ele>
        <time>2019-12-19T09:05:11Z</time>
      </trkpt>
      <trkpt lat="48.60304" lon="1.97064">
        <ele>113.57</ele>
        <time>2019-12-19T09:05:12Z</time>
      </trkpt>
      <trkpt lat="48.60304" lon="1.97065">
        <ele>114.05</ele>
        <time>2019-12-19T09:05:13Z</time>
      </trkpt>
      <trkpt lat="48.60305" lon="1.97066">
        <ele>113.57</ele>
        <time>2019-12-19T09:05:14Z</time>
      </trkpt>
      <trkpt lat="48.60305" lon="1.97067">
        <ele>113.57</ele>
        <time>2019-12-19T09:05:15Z</time>
      </trkpt>
      <trkpt lat="48.60305" lon="1.97067">
        <ele>113.57</ele>
        <time>2019-12-19T09:05:16Z</time>
      </trkpt>
      <trkpt lat="48.60305" lon="1.97068">
        <ele>113.57</ele>
        <time>2019-12-19T09:05:17Z</time>
      </trkpt>
      <trkpt lat="48.60306" lon="1.9707">
        <ele>113.57</ele>
        <time>2019-12-19T09:05:18Z</time>
      </trkpt>
      <trkpt lat="48.60306" lon="1.97071">
        <ele>113.57</ele>
        <time>2019-12-19T09:05:19Z</time>
      </trkpt>
      <trkpt lat="48.60307" lon="1.97073">
        <ele>113.57</ele>
        <time>2019-12-19T09:05:20Z</time>
      </trkpt>
      <trkpt lat="48.60308" lon="1.97074">
        <ele>113.57</ele>
        <time>2019-12-19T09:05:21Z</time>
      </trkpt>
      <trkpt lat="48.60309" lon="1.97076">
        <ele>113.57</ele>
        <time>2019-12-19T09:05:22Z</time>
      </trkpt>
      <trkpt lat="48.6031" lon="1.97078">
        <ele>113.57</ele>
        <time>2019-12-19T09:05:23Z</time>
      </trkpt>
      <trkpt lat="48.60311" lon="1.9708">
        <ele>113.57</ele>
        <time>2019-12-19T09:05:24Z</time>
      </trkpt>
      <trkpt lat="48.60312" lon="1.97082">
        <ele>113.57</ele>
        <time>2019-12-19T09:05:25Z</time>
      </trkpt>
      <trkpt lat="48.60313" lon="1.97084">
        <ele>113.57</ele>
        <time>2019-12-19T09:05:26Z</time>
      </trkpt>
      <trkpt lat="48.60313" lon="1.97086">
        <ele>113.57</ele>
        <time>2019-12-19T09:05:27Z</time>
      </trkpt>
      <trkpt lat="48.60314" lon="1.97088">
        <ele>113.57</ele>
        <time>2019-12-19T09:05:28Z</time>
      </trkpt>
      <trkpt lat="48.60314" lon="1.9709">
        <ele>113.57</ele>
        <time>2019-12-19T09:05:29Z</time>
      </trkpt>
      <trkpt lat="48.60315" lon="1.97091">
        <ele>113.57</ele>
        <time>2019-12-19T09:05:30Z</time>
      </trkpt>
      <trkpt lat="48.60316" lon="1.97093">
        <ele>113.57</ele>
        <time>2019-12-19T09:05:31Z</time>
      </trkpt>
      <trkpt lat="48.60317" lon="1.97094">
        <ele>114.53</ele>
        <time>2019-12-19T09:05:32Z</time>
      </trkpt>
      <trkpt lat="48.60317" lon="1.97096">
        <ele>113.57</ele>
        <time>2019-12-19T09:05:33Z</time>
      </trkpt>
      <trkpt lat="48.60317" lon="1.97097">
        <ele>113.57</ele>
        <time>2019-12-19T09:05:34Z</time>
      </trkpt>
      <trkpt lat="48.60318" lon="1.97099">
        <ele>113.57</ele>
        <time>2019-12-19T09:05:35Z</time>
      </trkpt>
      <trkpt lat="48.60319" lon="1.971">
        <ele>113.57</ele>
        <time>2019-12-19T09:05:36Z</time>
      </trkpt>
      <trkpt lat="48.60319" lon="1.971">
        <ele>113.57</ele>
        <time>2019-12-19T09:05:37Z</time>
      </trkpt>
      <trkpt lat="48.60319" lon="1.971">
        <ele>113.57</ele>
        <time>2019-12-19T09:05:38Z</time>
      </trkpt>
      <trkpt lat="48.60319" lon="1.97101">
        <ele>113.09</ele>
        <time>2019-12-19T09:05:39Z</time>
      </trkpt>
      <trkpt lat="48.6032" lon="1.97102">
        <ele>113.57</ele>
        <time>2019-12-19T09:05:40Z</time>
      </trkpt>
      <trkpt lat="48.6032" lon="1.97103">
        <ele>113.09</ele>
        <time>2019-12-19T09:05:41Z</time>
      </trkpt>
      <trkpt lat="48.60321" lon="1.97104">
        <ele>113.57</ele>
        <time>2019-12-19T09:05:42Z</time>
      </trkpt>
      <trkpt lat="48.60322" lon="1.97105">
        <ele>113.57</ele>
        <time>2019-12-19T09:05:43Z</time>
      </trkpt>
      <trkpt lat="48.60322" lon="1.97106">
        <ele>113.57</ele>
        <time>2019-12-19T09:05:44Z</time>
      </trkpt>
      <trkpt lat="48.60323" lon="1.97107">
        <ele>113.57</ele>
        <time>2019-12-19T09:05:45Z</time>
      </trkpt>
      <trkpt lat="48.60325" lon="1.9711">
        <ele>113.57</ele>
        <time>2019-12-19T09:05:46Z</time>
      </trkpt>
      <trkpt lat="48.60327" lon="1.97111">
        <ele>113.09</ele>
        <time>2019-12-19T09:05:47Z</time>
      </trkpt>
      <trkpt lat="48.60329" lon="1.97113">
        <ele>113.57</ele>
        <time>2019-12-19T09:05:48Z</time>
      </trkpt>
      <trkpt lat="48.60331" lon="1.97115">
        <ele>113.57</ele>
        <time>2019-12-19T09:05:49Z</time>
      </trkpt>
      <trkpt lat="48.60333" lon="1.97117">
        <ele>113.57</ele>
        <time>2019-12-19T09:05:50Z</time>
      </trkpt>
      <trkpt lat="48.60335" lon="1.97118">
        <ele>113.09</ele>
        <time>2019-12-19T09:05:51Z</time>
      </trkpt>
      <trkpt lat="48.60336" lon="1.97119">
        <ele>113.09</ele>
        <time>2019-12-19T09:05:52Z</time>
      </trkpt>
      <trkpt lat="48.60337" lon="1.97121">
        <ele>113.09</ele>
        <time>2019-12-19T09:05:53Z</time>
      </trkpt>
      <trkpt lat="48.60338" lon="1.97123">
        <ele>113.09</ele>
        <time>2019-12-19T09:05:54Z</time>
      </trkpt>
      <trkpt lat="48.6034" lon="1.97124">
        <ele>113.09</ele>
        <time>2019-12-19T09:05:55Z</time>
      </trkpt>
      <trkpt lat="48.60341" lon="1.97125">
        <ele>113.09</ele>
        <time>2019-12-19T09:05:56Z</time>
      </trkpt>
      <trkpt lat="48.60342" lon="1.97126">
        <ele>113.09</ele>
        <time>2019-12-19T09:05:57Z</time>
      </trkpt>
      <trkpt lat="48.60343" lon="1.97127">
        <ele>113.09</ele>
        <time>2019-12-19T09:05:58Z</time>
      </trkpt>
      <trkpt lat="48.60343" lon="1.97127">
        <ele>113.09</ele>
        <time>2019-12-19T09:05:59Z</time>
      </trkpt>
      <trkpt lat="48.60345" lon="1.97129">
        <ele>113.09</ele>
        <time>2019-12-19T09:06:00Z</time>
      </trkpt>
      <trkpt lat="48.60345" lon="1.9713">
        <ele>113.09</ele>
        <time>2019-12-19T09:06:01Z</time>
      </trkpt>
      <trkpt lat="48.60347" lon="1.97132">
        <ele>113.09</ele>
        <time>2019-12-19T09:06:02Z</time>
      </trkpt>
      <trkpt lat="48.60349" lon="1.97135">
        <ele>113.09</ele>
        <time>2019-12-19T09:06:03Z</time>
      </trkpt>
      <trkpt lat="48.60351" lon="1.97138">
        <ele>113.09</ele>
        <time>2019-12-19T09:06:04Z</time>
      </trkpt>
      <trkpt lat="48.60357" lon="1.97142">
        <ele>113.09</ele>
        <time>2019-12-19T09:06:05Z</time>
      </trkpt>
      <trkpt lat="48.60361" lon="1.97146">
        <ele>113.09</ele>
        <time>2019-12-19T09:06:06Z</time>
      </trkpt>
      <trkpt lat="48.60363" lon="1.97147">
        <ele>113.09</ele>
        <time>2019-12-19T09:06:07Z</time>
      </trkpt>
      <trkpt lat="48.60366" lon="1.97148">
        <ele>113.57</ele>
        <time>2019-12-19T09:06:08Z</time>
      </trkpt>
      <trkpt lat="48.60368" lon="1.9715">
        <ele>113.09</ele>
        <time>2019-12-19T09:06:09Z</time>
      </trkpt>
      <trkpt lat="48.6037" lon="1.97153">
        <ele>113.09</ele>
        <time>2019-12-19T09:06:10Z</time>
      </trkpt>
      <trkpt lat="48.60371" lon="1.97155">
        <ele>112.61</ele>
        <time>2019-12-19T09:06:11Z</time>
      </trkpt>
      <trkpt lat="48.60372" lon="1.97157">
        <ele>112.61</ele>
        <time>2019-12-19T09:06:12Z</time>
      </trkpt>
      <trkpt lat="48.60373" lon="1.97159">
        <ele>113.09</ele>
        <time>2019-12-19T09:06:13Z</time>
      </trkpt>
      <trkpt lat="48.60374" lon="1.97161">
        <ele>112.61</ele>
        <time>2019-12-19T09:06:14Z</time>
      </trkpt>
      <trkpt lat="48.60375" lon="1.97162">
        <ele>113.09</ele>
        <time>2019-12-19T09:06:15Z</time>
      </trkpt>
      <trkpt lat="48.60376" lon="1.97164">
        <ele>113.09</ele>
        <time>2019-12-19T09:06:16Z</time>
      </trkpt>
      <trkpt lat="48.60377" lon="1.97165">
        <ele>113.09</ele>
        <time>2019-12-19T09:06:17Z</time>
      </trkpt>
      <trkpt lat="48.60378" lon="1.97167">
        <ele>113.09</ele>
        <time>2019-12-19T09:06:18Z</time>
      </trkpt>
      <trkpt lat="48.60378" lon="1.97168">
        <ele>113.09</ele>
        <time>2019-12-19T09:06:19Z</time>
      </trkpt>
      <trkpt lat="48.60379" lon="1.9717">
        <ele>112.61</ele>
        <time>2019-12-19T09:06:20Z</time>
      </trkpt>
      <trkpt lat="48.60379" lon="1.97172">
        <ele>113.09</ele>
        <time>2019-12-19T09:06:21Z</time>
      </trkpt>
      <trkpt lat="48.6038" lon="1.97173">
        <ele>113.09</ele>
        <time>2019-12-19T09:06:22Z</time>
      </trkpt>
      <trkpt lat="48.6038" lon="1.97175">
        <ele>112.61</ele>
        <time>2019-12-19T09:06:23Z</time>
      </trkpt>
      <trkpt lat="48.60381" lon="1.97177">
        <ele>113.09</ele>
        <time>2019-12-19T09:06:24Z</time>
      </trkpt>
      <trkpt lat="48.60381" lon="1.97178">
        <ele>112.61</ele>
        <time>2019-12-19T09:06:25Z</time>
      </trkpt>
      <trkpt lat="48.60382" lon="1.97181">
        <ele>112.61</ele>
        <time>2019-12-19T09:06:26Z</time>
      </trkpt>
      <trkpt lat="48.60382" lon="1.97182">
        <ele>112.61</ele>
        <time>2019-12-19T09:06:27Z</time>
      </trkpt>
      <trkpt lat="48.60382" lon="1.97185">
        <ele>112.61</ele>
        <time>2019-12-19T09:06:28Z</time>
      </trkpt>
      <trkpt lat="48.60383" lon="1.97186">
        <ele>112.61</ele>
        <time>2019-12-19T09:06:29Z</time>
      </trkpt>
      <trkpt lat="48.60383" lon="1.97188">
        <ele>112.61</ele>
        <time>2019-12-19T09:06:30Z</time>
      </trkpt>
      <trkpt lat="48.60384" lon="1.97189">
        <ele>112.61</ele>
        <time>2019-12-19T09:06:31Z</time>
      </trkpt>
      <trkpt lat="48.60384" lon="1.97191">
        <ele>112.61</ele>
        <time>2019-12-19T09:06:32Z</time>
      </trkpt>
      <trkpt lat="48.60385" lon="1.97192">
        <ele>112.61</ele>
        <time>2019-12-19T09:06:33Z</time>
      </trkpt>
      <trkpt lat="48.60386" lon="1.97194">
        <ele>112.61</ele>
        <time>2019-12-19T09:06:34Z</time>
      </trkpt>
      <trkpt lat="48.60386" lon="1.97196">
        <ele>112.61</ele>
        <time>2019-12-19T09:06:35Z</time>
      </trkpt>
      <trkpt lat="48.60386" lon="1.97198">
        <ele>112.61</ele>
        <time>2019-12-19T09:06:36Z</time>
      </trkpt>
      <trkpt lat="48.60387" lon="1.97198">
        <ele>112.61</ele>
        <time>2019-12-19T09:06:37Z</time>
      </trkpt>
      <trkpt lat="48.60388" lon="1.972">
        <ele>112.61</ele>
        <time>2019-12-19T09:06:38Z</time>
      </trkpt>
      <trkpt lat="48.6039" lon="1.97202">
        <ele>112.13</ele>
        <time>2019-12-19T09:06:39Z</time>
      </trkpt>
      <trkpt lat="48.60392" lon="1.97204">
        <ele>112.13</ele>
        <time>2019-12-19T09:06:40Z</time>
      </trkpt>
      <trkpt lat="48.60393" lon="1.97206">
        <ele>112.61</ele>
        <time>2019-12-19T09:06:41Z</time>
      </trkpt>
      <trkpt lat="48.60395" lon="1.97208">
        <ele>112.13</ele>
        <time>2019-12-19T09:06:42Z</time>
      </trkpt>
      <trkpt lat="48.60397" lon="1.9721">
        <ele>112.13</ele>
        <time>2019-12-19T09:06:43Z</time>
      </trkpt>
      <trkpt lat="48.60398" lon="1.97213">
        <ele>112.13</ele>
        <time>2019-12-19T09:06:44Z</time>
      </trkpt>
      <trkpt lat="48.60399" lon="1.97215">
        <ele>112.13</ele>
        <time>2019-12-19T09:06:45Z</time>
      </trkpt>
      <trkpt lat="48.604" lon="1.97217">
        <ele>112.13</ele>
        <time>2019-12-19T09:06:46Z</time>
      </trkpt>
      <trkpt lat="48.60402" lon="1.97219">
        <ele>111.65</ele>
        <time>2019-12-19T09:06:47Z</time>
      </trkpt>
      <trkpt lat="48.60404" lon="1.97221">
        <ele>112.13</ele>
        <time>2019-12-19T09:06:48Z</time>
      </trkpt>
      <trkpt lat="48.60405" lon="1.97223">
        <ele>112.13</ele>
        <time>2019-12-19T09:06:49Z</time>
      </trkpt>
      <trkpt lat="48.60407" lon="1.97225">
        <ele>112.13</ele>
        <time>2019-12-19T09:06:50Z</time>
      </trkpt>
      <trkpt lat="48.60408" lon="1.97226">
        <ele>112.13</ele>
        <time>2019-12-19T09:06:51Z</time>
      </trkpt>
      <trkpt lat="48.60409" lon="1.97228">
        <ele>112.13</ele>
        <time>2019-12-19T09:06:52Z</time>
      </trkpt>
      <trkpt lat="48.6041" lon="1.97229">
        <ele>111.65</ele>
        <time>2019-12-19T09:06:53Z</time>
      </trkpt>
      <trkpt lat="48.60411" lon="1.9723">
        <ele>111.65</ele>
        <time>2019-12-19T09:06:54Z</time>
      </trkpt>
      <trkpt lat="48.60412" lon="1.9723">
        <ele>111.65</ele>
        <time>2019-12-19T09:06:55Z</time>
      </trkpt>
      <trkpt lat="48.60413" lon="1.97231">
        <ele>111.65</ele>
        <time>2019-12-19T09:06:56Z</time>
      </trkpt>
      <trkpt lat="48.60414" lon="1.97232">
        <ele>111.65</ele>
        <time>2019-12-19T09:06:57Z</time>
      </trkpt>
      <trkpt lat="48.60415" lon="1.97233">
        <ele>111.65</ele>
        <time>2019-12-19T09:06:58Z</time>
      </trkpt>
      <trkpt lat="48.60416" lon="1.97234">
        <ele>111.65</ele>
        <time>2019-12-19T09:06:59Z</time>
      </trkpt>
      <trkpt lat="48.60417" lon="1.97236">
        <ele>111.17</ele>
        <time>2019-12-19T09:07:00Z</time>
      </trkpt>
      <trkpt lat="48.60418" lon="1.97238">
        <ele>111.17</ele>
        <time>2019-12-19T09:07:01Z</time>
      </trkpt>
      <trkpt lat="48.60418" lon="1.97239">
        <ele>111.17</ele>
        <time>2019-12-19T09:07:02Z</time>
      </trkpt>
      <trkpt lat="48.60419" lon="1.9724">
        <ele>111.17</ele>
        <time>2019-12-19T09:07:03Z</time>
      </trkpt>
      <trkpt lat="48.6042" lon="1.97242">
        <ele>111.17</ele>
        <time>2019-12-19T09:07:04Z</time>
      </trkpt>
      <trkpt lat="48.60421" lon="1.97244">
        <ele>111.17</ele>
        <time>2019-12-19T09:07:05Z</time>
      </trkpt>
      <trkpt lat="48.60421" lon="1.97246">
        <ele>111.17</ele>
        <time>2019-12-19T09:07:06Z</time>
      </trkpt>
      <trkpt lat="48.60421" lon="1.97246">
        <ele>111.17</ele>
        <time>2019-12-19T09:07:07Z</time>
      </trkpt>
      <trkpt lat="48.60422" lon="1.97247">
        <ele>110.69</ele>
        <time>2019-12-19T09:07:08Z</time>
      </trkpt>
      <trkpt lat="48.60423" lon="1.97247">
        <ele>110.69</ele>
        <time>2019-12-19T09:07:09Z</time>
      </trkpt>
      <trkpt lat="48.60423" lon="1.97248">
        <ele>111.17</ele>
        <time>2019-12-19T09:07:10Z</time>
      </trkpt>
      <trkpt lat="48.60424" lon="1.97249">
        <ele>110.69</ele>
        <time>2019-12-19T09:07:11Z</time>
      </trkpt>
      <trkpt lat="48.60425" lon="1.97249">
        <ele>110.69</ele>
        <time>2019-12-19T09:07:12Z</time>
      </trkpt>
      <trkpt lat="48.60426" lon="1.9725">
        <ele>110.69</ele>
        <time>2019-12-19T09:07:13Z</time>
      </trkpt>
      <trkpt lat="48.60427" lon="1.97251">
        <ele>110.69</ele>
        <time>2019-12-19T09:07:14Z</time>
      </trkpt>
      <trkpt lat="48.60429" lon="1.97252">
        <ele>110.69</ele>
        <time>2019-12-19T09:07:15Z</time>
      </trkpt>
      <trkpt lat="48.6043" lon="1.97252">
        <ele>110.69</ele>
        <time>2019-12-19T09:07:16Z</time>
      </trkpt>
      <trkpt lat="48.60431" lon="1.97253">
        <ele>110.69</ele>
        <time>2019-12-19T09:07:17Z</time>
      </trkpt>
      <trkpt lat="48.60433" lon="1.97254">
        <ele>110.69</ele>
        <time>2019-12-19T09:07:18Z</time>
      </trkpt>
      <trkpt lat="48.60434" lon="1.97254">
        <ele>110.69</ele>
        <time>2019-12-19T09:07:19Z</time>
      </trkpt>
      <trkpt lat="48.60435" lon="1.97254">
        <ele>110.69</ele>
        <time>2019-12-19T09:07:20Z</time>
      </trkpt>
      <trkpt lat="48.60436" lon="1.97255">
        <ele>110.69</ele>
        <time>2019-12-19T09:07:21Z</time>
      </trkpt>
      <trkpt lat="48.60437" lon="1.97255">
        <ele>110.69</ele>
        <time>2019-12-19T09:07:22Z</time>
      </trkpt>
      <trkpt lat="48.60438" lon="1.97255">
        <ele>110.69</ele>
        <time>2019-12-19T09:07:23Z</time>
      </trkpt>
      <trkpt lat="48.60439" lon="1.97255">
        <ele>110.69</ele>
        <time>2019-12-19T09:07:24Z</time>
      </trkpt>
      <trkpt lat="48.6044" lon="1.97256">
        <ele>110.21</ele>
        <time>2019-12-19T09:07:25Z</time>
      </trkpt>
      <trkpt lat="48.60441" lon="1.97256">
        <ele>110.21</ele>
        <time>2019-12-19T09:07:27Z</time>
      </trkpt>
      <trkpt lat="48.60441" lon="1.97257">
        <ele>110.21</ele>
        <time>2019-12-19T09:07:28Z</time>
      </trkpt>
      <trkpt lat="48.60444" lon="1.97258">
        <ele>110.21</ele>
        <time>2019-12-19T09:07:31Z</time>
      </trkpt>
      <trkpt lat="48.60444" lon="1.97258">
        <ele>110.69</ele>
        <time>2019-12-19T09:07:32Z</time>
      </trkpt>
      <trkpt lat="48.60446" lon="1.9726">
        <ele>110.21</ele>
        <time>2019-12-19T09:07:37Z</time>
      </trkpt>
      <trkpt lat="48.60449" lon="1.97262">
        <ele>109.73</ele>
        <time>2019-12-19T09:07:38Z</time>
      </trkpt>
      <trkpt lat="48.60451" lon="1.97263">
        <ele>109.73</ele>
        <time>2019-12-19T09:07:39Z</time>
      </trkpt>
      <trkpt lat="48.60452" lon="1.97264">
        <ele>109.73</ele>
        <time>2019-12-19T09:07:40Z</time>
      </trkpt>
      <trkpt lat="48.60452" lon="1.97264">
        <ele>109.73</ele>
        <time>2019-12-19T09:07:41Z</time>
      </trkpt>
      <trkpt lat="48.60453" lon="1.97264">
        <ele>109.73</ele>
        <time>2019-12-19T09:07:42Z</time>
      </trkpt>
      <trkpt lat="48.60453" lon="1.97265">
        <ele>109.25</ele>
        <time>2019-12-19T09:07:43Z</time>
      </trkpt>
      <trkpt lat="48.60456" lon="1.97265">
        <ele>109.25</ele>
        <time>2019-12-19T09:07:44Z</time>
      </trkpt>
      <trkpt lat="48.60457" lon="1.97266">
        <ele>109.25</ele>
        <time>2019-12-19T09:07:45Z</time>
      </trkpt>
      <trkpt lat="48.60459" lon="1.97267">
        <ele>108.77</ele>
        <time>2019-12-19T09:07:46Z</time>
      </trkpt>
      <trkpt lat="48.6046" lon="1.97268">
        <ele>109.25</ele>
        <time>2019-12-19T09:07:47Z</time>
      </trkpt>
      <trkpt lat="48.60461" lon="1.97269">
        <ele>109.25</ele>
        <time>2019-12-19T09:07:48Z</time>
      </trkpt>
      <trkpt lat="48.60461" lon="1.97269">
        <ele>109.25</ele>
        <time>2019-12-19T09:07:49Z</time>
      </trkpt>
      <trkpt lat="48.60461" lon="1.9727">
        <ele>109.25</ele>
        <time>2019-12-19T09:07:50Z</time>
      </trkpt>
      <trkpt lat="48.60462" lon="1.9727">
        <ele>108.77</ele>
        <time>2019-12-19T09:07:51Z</time>
      </trkpt>
      <trkpt lat="48.60462" lon="1.97271">
        <ele>108.29</ele>
        <time>2019-12-19T09:07:52Z</time>
      </trkpt>
      <trkpt lat="48.60466" lon="1.97272">
        <ele>107.81</ele>
        <time>2019-12-19T09:07:56Z</time>
      </trkpt>
      <trkpt lat="48.60466" lon="1.97272">
        <ele>107.81</ele>
        <time>2019-12-19T09:07:57Z</time>
      </trkpt>
      <trkpt lat="48.60467" lon="1.97272">
        <ele>107.81</ele>
        <time>2019-12-19T09:07:58Z</time>
      </trkpt>
      <trkpt lat="48.60467" lon="1.97273">
        <ele>107.81</ele>
        <time>2019-12-19T09:07:59Z</time>
      </trkpt>
      <trkpt lat="48.60468" lon="1.97273">
        <ele>107.81</ele>
        <time>2019-12-19T09:08:00Z</time>
      </trkpt>
      <trkpt lat="48.60468" lon="1.97273">
        <ele>107.81</ele>
        <time>2019-12-19T09:08:01Z</time>
      </trkpt>
      <trkpt lat="48.60469" lon="1.97273">
        <ele>107.81</ele>
        <time>2019-12-19T09:08:02Z</time>
      </trkpt>
      <trkpt lat="48.60469" lon="1.97274">
        <ele>107.81</ele>
        <time>2019-12-19T09:08:03Z</time>
      </trkpt>
      <trkpt lat="48.6047" lon="1.97274">
        <ele>107.81</ele>
        <time>2019-12-19T09:08:04Z</time>
      </trkpt>
      <trkpt lat="48.60471" lon="1.97274">
        <ele>107.81</ele>
        <time>2019-12-19T09:08:05Z</time>
      </trkpt>
      <trkpt lat="48.60472" lon="1.97275">
        <ele>107.81</ele>
        <time>2019-12-19T09:08:06Z</time>
      </trkpt>
      <trkpt lat="48.60473" lon="1.97276">
        <ele>107.32</ele>
        <time>2019-12-19T09:08:07Z</time>
      </trkpt>
      <trkpt lat="48.60474" lon="1.97277">
        <ele>107.81</ele>
        <time>2019-12-19T09:08:08Z</time>
      </trkpt>
      <trkpt lat="48.60475" lon="1.97279">
        <ele>107.81</ele>
        <time>2019-12-19T09:08:09Z</time>
      </trkpt>
      <trkpt lat="48.60476" lon="1.9728">
        <ele>107.32</ele>
        <time>2019-12-19T09:08:10Z</time>
      </trkpt>
      <trkpt lat="48.60476" lon="1.97281">
        <ele>107.32</ele>
        <time>2019-12-19T09:08:11Z</time>
      </trkpt>
      <trkpt lat="48.60477" lon="1.97282">
        <ele>107.32</ele>
        <time>2019-12-19T09:08:12Z</time>
      </trkpt>
      <trkpt lat="48.60481" lon="1.97283">
        <ele>106.84</ele>
        <time>2019-12-19T09:08:18Z</time>
      </trkpt>
      <trkpt lat="48.60482" lon="1.97283">
        <ele>107.32</ele>
        <time>2019-12-19T09:08:19Z</time>
      </trkpt>
      <trkpt lat="48.60482" lon="1.97283">
        <ele>106.84</ele>
        <time>2019-12-19T09:08:20Z</time>
      </trkpt>
      <trkpt lat="48.60483" lon="1.97283">
        <ele>106.84</ele>
        <time>2019-12-19T09:08:21Z</time>
      </trkpt>
      <trkpt lat="48.60484" lon="1.97284">
        <ele>106.84</ele>
        <time>2019-12-19T09:08:22Z</time>
      </trkpt>
      <trkpt lat="48.60484" lon="1.97284">
        <ele>106.84</ele>
        <time>2019-12-19T09:08:23Z</time>
      </trkpt>
      <trkpt lat="48.60485" lon="1.97284">
        <ele>106.36</ele>
        <time>2019-12-19T09:08:24Z</time>
      </trkpt>
      <trkpt lat="48.60487" lon="1.97285">
        <ele>106.36</ele>
        <time>2019-12-19T09:08:25Z</time>
      </trkpt>
      <trkpt lat="48.60488" lon="1.97285">
        <ele>106.36</ele>
        <time>2019-12-19T09:08:26Z</time>
      </trkpt>
      <trkpt lat="48.60489" lon="1.97286">
        <ele>106.36</ele>
        <time>2019-12-19T09:08:27Z</time>
      </trkpt>
      <trkpt lat="48.6049" lon="1.97286">
        <ele>106.36</ele>
        <time>2019-12-19T09:08:28Z</time>
      </trkpt>
      <trkpt lat="48.60491" lon="1.97287">
        <ele>106.36</ele>
        <time>2019-12-19T09:08:29Z</time>
      </trkpt>
      <trkpt lat="48.60493" lon="1.97287">
        <ele>106.36</ele>
        <time>2019-12-19T09:08:30Z</time>
      </trkpt>
      <trkpt lat="48.60495" lon="1.97289">
        <ele>106.36</ele>
        <time>2019-12-19T09:08:31Z</time>
      </trkpt>
      <trkpt lat="48.60497" lon="1.9729">
        <ele>105.88</ele>
        <time>2019-12-19T09:08:32Z</time>
      </trkpt>
      <trkpt lat="48.605" lon="1.97292">
        <ele>105.88</ele>
        <time>2019-12-19T09:08:33Z</time>
      </trkpt>
      <trkpt lat="48.60503" lon="1.97294">
        <ele>105.88</ele>
        <time>2019-12-19T09:08:34Z</time>
      </trkpt>
      <trkpt lat="48.60507" lon="1.97296">
        <ele>105.88</ele>
        <time>2019-12-19T09:08:35Z</time>
      </trkpt>
      <trkpt lat="48.6051" lon="1.97299">
        <ele>105.88</ele>
        <time>2019-12-19T09:08:36Z</time>
      </trkpt>
      <trkpt lat="48.60512" lon="1.973">
        <ele>105.88</ele>
        <time>2019-12-19T09:08:37Z</time>
      </trkpt>
      <trkpt lat="48.60514" lon="1.97302">
        <ele>105.88</ele>
        <time>2019-12-19T09:08:38Z</time>
      </trkpt>
      <trkpt lat="48.60515" lon="1.97303">
        <ele>105.88</ele>
        <time>2019-12-19T09:08:39Z</time>
      </trkpt>
      <trkpt lat="48.60517" lon="1.97305">
        <ele>105.88</ele>
        <time>2019-12-19T09:08:40Z</time>
      </trkpt>
      <trkpt lat="48.6052" lon="1.97307">
        <ele>105.4</ele>
        <time>2019-12-19T09:08:41Z</time>
      </trkpt>
      <trkpt lat="48.60523" lon="1.97308">
        <ele>105.4</ele>
        <time>2019-12-19T09:08:42Z</time>
      </trkpt>
      <trkpt lat="48.60526" lon="1.97311">
        <ele>105.4</ele>
        <time>2019-12-19T09:08:43Z</time>
      </trkpt>
      <trkpt lat="48.6053" lon="1.97314">
        <ele>105.4</ele>
        <time>2019-12-19T09:08:44Z</time>
      </trkpt>
      <trkpt lat="48.60533" lon="1.97317">
        <ele>105.4</ele>
        <time>2019-12-19T09:08:45Z</time>
      </trkpt>
      <trkpt lat="48.60536" lon="1.97319">
        <ele>104.92</ele>
        <time>2019-12-19T09:08:46Z</time>
      </trkpt>
      <trkpt lat="48.60539" lon="1.97322">
        <ele>105.4</ele>
        <time>2019-12-19T09:08:47Z</time>
      </trkpt>
      <trkpt lat="48.60543" lon="1.97324">
        <ele>104.92</ele>
        <time>2019-12-19T09:08:48Z</time>
      </trkpt>
      <trkpt lat="48.60546" lon="1.97326">
        <ele>104.92</ele>
        <time>2019-12-19T09:08:49Z</time>
      </trkpt>
      <trkpt lat="48.60548" lon="1.97327">
        <ele>104.92</ele>
        <time>2019-12-19T09:08:50Z</time>
      </trkpt>
      <trkpt lat="48.6055" lon="1.97329">
        <ele>104.92</ele>
        <time>2019-12-19T09:08:51Z</time>
      </trkpt>
      <trkpt lat="48.60552" lon="1.97331">
        <ele>104.92</ele>
        <time>2019-12-19T09:08:52Z</time>
      </trkpt>
      <trkpt lat="48.60554" lon="1.97333">
        <ele>104.92</ele>
        <time>2019-12-19T09:08:53Z</time>
      </trkpt>
      <trkpt lat="48.60555" lon="1.97335">
        <ele>104.92</ele>
        <time>2019-12-19T09:08:54Z</time>
      </trkpt>
      <trkpt lat="48.60557" lon="1.97336">
        <ele>104.92</ele>
        <time>2019-12-19T09:08:55Z</time>
      </trkpt>
      <trkpt lat="48.60558" lon="1.97338">
        <ele>104.44</ele>
        <time>2019-12-19T09:08:56Z</time>
      </trkpt>
      <trkpt lat="48.60562" lon="1.97341">
        <ele>104.92</ele>
        <time>2019-12-19T09:08:57Z</time>
      </trkpt>
      <trkpt lat="48.60566" lon="1.97344">
        <ele>104.92</ele>
        <time>2019-12-19T09:08:58Z</time>
      </trkpt>
      <trkpt lat="48.60569" lon="1.97346">
        <ele>104.44</ele>
        <time>2019-12-19T09:08:59Z</time>
      </trkpt>
      <trkpt lat="48.60572" lon="1.97347">
        <ele>104.92</ele>
        <time>2019-12-19T09:09:00Z</time>
      </trkpt>
      <trkpt lat="48.60574" lon="1.97348">
        <ele>104.44</ele>
        <time>2019-12-19T09:09:01Z</time>
      </trkpt>
      <trkpt lat="48.60575" lon="1.97349">
        <ele>104.92</ele>
        <time>2019-12-19T09:09:02Z</time>
      </trkpt>
      <trkpt lat="48.60578" lon="1.97351">
        <ele>104.44</ele>
        <time>2019-12-19T09:09:03Z</time>
      </trkpt>
      <trkpt lat="48.60579" lon="1.97352">
        <ele>104.44</ele>
        <time>2019-12-19T09:09:04Z</time>
      </trkpt>
      <trkpt lat="48.60581" lon="1.97354">
        <ele>104.44</ele>
        <time>2019-12-19T09:09:05Z</time>
      </trkpt>
      <trkpt lat="48.60583" lon="1.97355">
        <ele>104.44</ele>
        <time>2019-12-19T09:09:06Z</time>
      </trkpt>
      <trkpt lat="48.60584" lon="1.97358">
        <ele>104.44</ele>
        <time>2019-12-19T09:09:07Z</time>
      </trkpt>
      <trkpt lat="48.60585" lon="1.9736">
        <ele>104.44</ele>
        <time>2019-12-19T09:09:08Z</time>
      </trkpt>
      <trkpt lat="48.60587" lon="1.97362">
        <ele>104.44</ele>
        <time>2019-12-19T09:09:09Z</time>
      </trkpt>
      <trkpt lat="48.60589" lon="1.97365">
        <ele>104.44</ele>
        <time>2019-12-19T09:09:10Z</time>
      </trkpt>
      <trkpt lat="48.60591" lon="1.97368">
        <ele>104.44</ele>
        <time>2019-12-19T09:09:11Z</time>
      </trkpt>
      <trkpt lat="48.60592" lon="1.9737">
        <ele>103.96</ele>
        <time>2019-12-19T09:09:12Z</time>
      </trkpt>
      <trkpt lat="48.60595" lon="1.97372">
        <ele>103.96</ele>
        <time>2019-12-19T09:09:13Z</time>
      </trkpt>
      <trkpt lat="48.60596" lon="1.97374">
        <ele>103.96</ele>
        <time>2019-12-19T09:09:14Z</time>
      </trkpt>
      <trkpt lat="48.60598" lon="1.97376">
        <ele>103.96</ele>
        <time>2019-12-19T09:09:15Z</time>
      </trkpt>
      <trkpt lat="48.60599" lon="1.97377">
        <ele>103.96</ele>
        <time>2019-12-19T09:09:16Z</time>
      </trkpt>
      <trkpt lat="48.60601" lon="1.9738">
        <ele>103.96</ele>
        <time>2019-12-19T09:09:17Z</time>
      </trkpt>
      <trkpt lat="48.60603" lon="1.97382">
        <ele>103.96</ele>
        <time>2019-12-19T09:09:18Z</time>
      </trkpt>
      <trkpt lat="48.60604" lon="1.97384">
        <ele>103.48</ele>
        <time>2019-12-19T09:09:19Z</time>
      </trkpt>
      <trkpt lat="48.60606" lon="1.97386">
        <ele>103.96</ele>
        <time>2019-12-19T09:09:20Z</time>
      </trkpt>
      <trkpt lat="48.60607" lon="1.97388">
        <ele>103.48</ele>
        <time>2019-12-19T09:09:21Z</time>
      </trkpt>
      <trkpt lat="48.60608" lon="1.9739">
        <ele>103.48</ele>
        <time>2019-12-19T09:09:22Z</time>
      </trkpt>
      <trkpt lat="48.60609" lon="1.97392">
        <ele>103.48</ele>
        <time>2019-12-19T09:09:23Z</time>
      </trkpt>
      <trkpt lat="48.60611" lon="1.97394">
        <ele>103</ele>
        <time>2019-12-19T09:09:24Z</time>
      </trkpt>
      <trkpt lat="48.60612" lon="1.97397">
        <ele>103</ele>
        <time>2019-12-19T09:09:25Z</time>
      </trkpt>
      <trkpt lat="48.60612" lon="1.97398">
        <ele>103.48</ele>
        <time>2019-12-19T09:09:26Z</time>
      </trkpt>
      <trkpt lat="48.60613" lon="1.97399">
        <ele>103</ele>
        <time>2019-12-19T09:09:27Z</time>
      </trkpt>
      <trkpt lat="48.60615" lon="1.97402">
        <ele>103</ele>
        <time>2019-12-19T09:09:28Z</time>
      </trkpt>
      <trkpt lat="48.60616" lon="1.97403">
        <ele>103</ele>
        <time>2019-12-19T09:09:29Z</time>
      </trkpt>
      <trkpt lat="48.60617" lon="1.97405">
        <ele>103</ele>
        <time>2019-12-19T09:09:30Z</time>
      </trkpt>
      <trkpt lat="48.60619" lon="1.97407">
        <ele>103</ele>
        <time>2019-12-19T09:09:31Z</time>
      </trkpt>
      <trkpt lat="48.60619" lon="1.97407">
        <ele>103.48</ele>
        <time>2019-12-19T09:09:32Z</time>
      </trkpt>
      <trkpt lat="48.60621" lon="1.97408">
        <ele>103</ele>
        <time>2019-12-19T09:09:33Z</time>
      </trkpt>
      <trkpt lat="48.60622" lon="1.9741">
        <ele>103</ele>
        <time>2019-12-19T09:09:34Z</time>
      </trkpt>
      <trkpt lat="48.60623" lon="1.97411">
        <ele>102.52</ele>
        <time>2019-12-19T09:09:35Z</time>
      </trkpt>
      <trkpt lat="48.60624" lon="1.97413">
        <ele>102.52</ele>
        <time>2019-12-19T09:09:36Z</time>
      </trkpt>
      <trkpt lat="48.60625" lon="1.97414">
        <ele>102.52</ele>
        <time>2019-12-19T09:09:37Z</time>
      </trkpt>
      <trkpt lat="48.60626" lon="1.97416">
        <ele>102.52</ele>
        <time>2019-12-19T09:09:38Z</time>
      </trkpt>
      <trkpt lat="48.60628" lon="1.97418">
        <ele>102.52</ele>
        <time>2019-12-19T09:09:39Z</time>
      </trkpt>
      <trkpt lat="48.6063" lon="1.97419">
        <ele>102.52</ele>
        <time>2019-12-19T09:09:40Z</time>
      </trkpt>
      <trkpt lat="48.60632" lon="1.97421">
        <ele>102.52</ele>
        <time>2019-12-19T09:09:41Z</time>
      </trkpt>
      <trkpt lat="48.60634" lon="1.97423">
        <ele>102.52</ele>
        <time>2019-12-19T09:09:42Z</time>
      </trkpt>
      <trkpt lat="48.60636" lon="1.97425">
        <ele>102.52</ele>
        <time>2019-12-19T09:09:43Z</time>
      </trkpt>
      <trkpt lat="48.60637" lon="1.97426">
        <ele>102.52</ele>
        <time>2019-12-19T09:09:44Z</time>
      </trkpt>
      <trkpt lat="48.60638" lon="1.97427">
        <ele>102.52</ele>
        <time>2019-12-19T09:09:45Z</time>
      </trkpt>
      <trkpt lat="48.60639" lon="1.97429">
        <ele>102.52</ele>
        <time>2019-12-19T09:09:46Z</time>
      </trkpt>
      <trkpt lat="48.6064" lon="1.9743">
        <ele>102.04</ele>
        <time>2019-12-19T09:09:47Z</time>
      </trkpt>
      <trkpt lat="48.60641" lon="1.97432">
        <ele>102.04</ele>
        <time>2019-12-19T09:09:48Z</time>
      </trkpt>
      <trkpt lat="48.60642" lon="1.97434">
        <ele>102.04</ele>
        <time>2019-12-19T09:09:49Z</time>
      </trkpt>
      <trkpt lat="48.60642" lon="1.97435">
        <ele>102.52</ele>
        <time>2019-12-19T09:09:50Z</time>
      </trkpt>
      <trkpt lat="48.60642" lon="1.97437">
        <ele>102.52</ele>
        <time>2019-12-19T09:09:51Z</time>
      </trkpt>
      <trkpt lat="48.60643" lon="1.97438">
        <ele>102.52</ele>
        <time>2019-12-19T09:09:52Z</time>
      </trkpt>
      <trkpt lat="48.60643" lon="1.97439">
        <ele>102.04</ele>
        <time>2019-12-19T09:09:56Z</time>
      </trkpt>
      <trkpt lat="48.60644" lon="1.97441">
        <ele>102.52</ele>
        <time>2019-12-19T09:09:57Z</time>
      </trkpt>
      <trkpt lat="48.60644" lon="1.97443">
        <ele>102.52</ele>
        <time>2019-12-19T09:09:58Z</time>
      </trkpt>
      <trkpt lat="48.60646" lon="1.97445">
        <ele>102.04</ele>
        <time>2019-12-19T09:09:59Z</time>
      </trkpt>
      <trkpt lat="48.60647" lon="1.97448">
        <ele>102.52</ele>
        <time>2019-12-19T09:10:00Z</time>
      </trkpt>
      <trkpt lat="48.60648" lon="1.9745">
        <ele>102.52</ele>
        <time>2019-12-19T09:10:01Z</time>
      </trkpt>
      <trkpt lat="48.6065" lon="1.97451">
        <ele>102.04</ele>
        <time>2019-12-19T09:10:02Z</time>
      </trkpt>
      <trkpt lat="48.6065" lon="1.97452">
        <ele>102.52</ele>
        <time>2019-12-19T09:10:03Z</time>
      </trkpt>
      <trkpt lat="48.60651" lon="1.97453">
        <ele>102.04</ele>
        <time>2019-12-19T09:10:04Z</time>
      </trkpt>
      <trkpt lat="48.60653" lon="1.97454">
        <ele>102.04</ele>
        <time>2019-12-19T09:10:07Z</time>
      </trkpt>
      <trkpt lat="48.60653" lon="1.97454">
        <ele>101.56</ele>
        <time>2019-12-19T09:10:08Z</time>
      </trkpt>
      <trkpt lat="48.60653" lon="1.97455">
        <ele>101.56</ele>
        <time>2019-12-19T09:10:09Z</time>
      </trkpt>
      <trkpt lat="48.60654" lon="1.97455">
        <ele>101.56</ele>
        <time>2019-12-19T09:10:10Z</time>
      </trkpt>
      <trkpt lat="48.60654" lon="1.97455">
        <ele>101.56</ele>
        <time>2019-12-19T09:10:11Z</time>
      </trkpt>
      <trkpt lat="48.60655" lon="1.97456">
        <ele>101.56</ele>
        <time>2019-12-19T09:10:12Z</time>
      </trkpt>
      <trkpt lat="48.60655" lon="1.97456">
        <ele>101.56</ele>
        <time>2019-12-19T09:10:13Z</time>
      </trkpt>
      <trkpt lat="48.60655" lon="1.97456">
        <ele>101.56</ele>
        <time>2019-12-19T09:10:14Z</time>
      </trkpt>
      <trkpt lat="48.60656" lon="1.97457">
        <ele>101.56</ele>
        <time>2019-12-19T09:10:15Z</time>
      </trkpt>
      <trkpt lat="48.60657" lon="1.97458">
        <ele>101.08</ele>
        <time>2019-12-19T09:10:16Z</time>
      </trkpt>
      <trkpt lat="48.60658" lon="1.97459">
        <ele>101.08</ele>
        <time>2019-12-19T09:10:17Z</time>
      </trkpt>
      <trkpt lat="48.60658" lon="1.97459">
        <ele>101.08</ele>
        <time>2019-12-19T09:10:18Z</time>
      </trkpt>
      <trkpt lat="48.60659" lon="1.97459">
        <ele>101.08</ele>
        <time>2019-12-19T09:10:19Z</time>
      </trkpt>
      <trkpt lat="48.60659" lon="1.9746">
        <ele>101.08</ele>
        <time>2019-12-19T09:10:20Z</time>
      </trkpt>
      <trkpt lat="48.6066" lon="1.9746">
        <ele>101.08</ele>
        <time>2019-12-19T09:10:21Z</time>
      </trkpt>
      <trkpt lat="48.6066" lon="1.9746">
        <ele>101.08</ele>
        <time>2019-12-19T09:10:22Z</time>
      </trkpt>
      <trkpt lat="48.60661" lon="1.97461">
        <ele>101.08</ele>
        <time>2019-12-19T09:10:23Z</time>
      </trkpt>
      <trkpt lat="48.60661" lon="1.97461">
        <ele>101.08</ele>
        <time>2019-12-19T09:10:24Z</time>
      </trkpt>
      <trkpt lat="48.60661" lon="1.97461">
        <ele>101.08</ele>
        <time>2019-12-19T09:10:25Z</time>
      </trkpt>
      <trkpt lat="48.60662" lon="1.97461">
        <ele>101.08</ele>
        <time>2019-12-19T09:10:26Z</time>
      </trkpt>
      <trkpt lat="48.60663" lon="1.97462">
        <ele>101.08</ele>
        <time>2019-12-19T09:10:27Z</time>
      </trkpt>
      <trkpt lat="48.60664" lon="1.97462">
        <ele>100.6</ele>
        <time>2019-12-19T09:10:28Z</time>
      </trkpt>
      <trkpt lat="48.60665" lon="1.97462">
        <ele>100.6</ele>
        <time>2019-12-19T09:10:29Z</time>
      </trkpt>
      <trkpt lat="48.60666" lon="1.97462">
        <ele>100.6</ele>
        <time>2019-12-19T09:10:30Z</time>
      </trkpt>
      <trkpt lat="48.60668" lon="1.97462">
        <ele>100.6</ele>
        <time>2019-12-19T09:10:31Z</time>
      </trkpt>
      <trkpt lat="48.60668" lon="1.97462">
        <ele>100.6</ele>
        <time>2019-12-19T09:10:32Z</time>
      </trkpt>
      <trkpt lat="48.6067" lon="1.97462">
        <ele>100.11</ele>
        <time>2019-12-19T09:10:33Z</time>
      </trkpt>
      <trkpt lat="48.60671" lon="1.97462">
        <ele>100.11</ele>
        <time>2019-12-19T09:10:34Z</time>
      </trkpt>
      <trkpt lat="48.60673" lon="1.97463">
        <ele>100.6</ele>
        <time>2019-12-19T09:10:35Z</time>
      </trkpt>
      <trkpt lat="48.60675" lon="1.97463">
        <ele>100.6</ele>
        <time>2019-12-19T09:10:36Z</time>
      </trkpt>
      <trkpt lat="48.60676" lon="1.97463">
        <ele>100.11</ele>
        <time>2019-12-19T09:10:37Z</time>
      </trkpt>
      <trkpt lat="48.60678" lon="1.97463">
        <ele>100.6</ele>
        <time>2019-12-19T09:10:38Z</time>
      </trkpt>
      <trkpt lat="48.6068" lon="1.97463">
        <ele>100.11</ele>
        <time>2019-12-19T09:10:39Z</time>
      </trkpt>
      <trkpt lat="48.60681" lon="1.97463">
        <ele>100.11</ele>
        <time>2019-12-19T09:10:40Z</time>
      </trkpt>
      <trkpt lat="48.60683" lon="1.97462">
        <ele>100.11</ele>
        <time>2019-12-19T09:10:41Z</time>
      </trkpt>
      <trkpt lat="48.60684" lon="1.97462">
        <ele>99.63</ele>
        <time>2019-12-19T09:10:42Z</time>
      </trkpt>
      <trkpt lat="48.60686" lon="1.97461">
        <ele>99.63</ele>
        <time>2019-12-19T09:10:43Z</time>
      </trkpt>
      <trkpt lat="48.60687" lon="1.9746">
        <ele>99.63</ele>
        <time>2019-12-19T09:10:44Z</time>
      </trkpt>
      <trkpt lat="48.6069" lon="1.97459">
        <ele>99.63</ele>
        <time>2019-12-19T09:10:45Z</time>
      </trkpt>
      <trkpt lat="48.60692" lon="1.97457">
        <ele>99.63</ele>
        <time>2019-12-19T09:10:46Z</time>
      </trkpt>
      <trkpt lat="48.60695" lon="1.97456">
        <ele>99.63</ele>
        <time>2019-12-19T09:10:47Z</time>
      </trkpt>
      <trkpt lat="48.60697" lon="1.97457">
        <ele>99.63</ele>
        <time>2019-12-19T09:10:48Z</time>
      </trkpt>
      <trkpt lat="48.60701" lon="1.97456">
        <ele>99.63</ele>
        <time>2019-12-19T09:10:49Z</time>
      </trkpt>
      <trkpt lat="48.60704" lon="1.97455">
        <ele>99.63</ele>
        <time>2019-12-19T09:10:50Z</time>
      </trkpt>
      <trkpt lat="48.60707" lon="1.97455">
        <ele>99.63</ele>
        <time>2019-12-19T09:10:51Z</time>
      </trkpt>
      <trkpt lat="48.60709" lon="1.97453">
        <ele>99.15</ele>
        <time>2019-12-19T09:10:52Z</time>
      </trkpt>
      <trkpt lat="48.60712" lon="1.97451">
        <ele>99.63</ele>
        <time>2019-12-19T09:10:53Z</time>
      </trkpt>
      <trkpt lat="48.60713" lon="1.97449">
        <ele>99.15</ele>
        <time>2019-12-19T09:10:54Z</time>
      </trkpt>
      <trkpt lat="48.60715" lon="1.97448">
        <ele>99.15</ele>
        <time>2019-12-19T09:10:55Z</time>
      </trkpt>
      <trkpt lat="48.60716" lon="1.97447">
        <ele>99.15</ele>
        <time>2019-12-19T09:10:56Z</time>
      </trkpt>
      <trkpt lat="48.60717" lon="1.97446">
        <ele>99.15</ele>
        <time>2019-12-19T09:10:57Z</time>
      </trkpt>
      <trkpt lat="48.60718" lon="1.97445">
        <ele>99.15</ele>
        <time>2019-12-19T09:10:58Z</time>
      </trkpt>
      <trkpt lat="48.60718" lon="1.97445">
        <ele>99.15</ele>
        <time>2019-12-19T09:10:59Z</time>
      </trkpt>
      <trkpt lat="48.6072" lon="1.97444">
        <ele>99.15</ele>
        <time>2019-12-19T09:11:00Z</time>
      </trkpt>
      <trkpt lat="48.60721" lon="1.97443">
        <ele>99.15</ele>
        <time>2019-12-19T09:11:01Z</time>
      </trkpt>
      <trkpt lat="48.60721" lon="1.97443">
        <ele>99.15</ele>
        <time>2019-12-19T09:11:02Z</time>
      </trkpt>
      <trkpt lat="48.60723" lon="1.97441">
        <ele>98.67</ele>
        <time>2019-12-19T09:11:03Z</time>
      </trkpt>
      <trkpt lat="48.60724" lon="1.97441">
        <ele>98.67</ele>
        <time>2019-12-19T09:11:04Z</time>
      </trkpt>
      <trkpt lat="48.60724" lon="1.9744">
        <ele>99.15</ele>
        <time>2019-12-19T09:11:05Z</time>
      </trkpt>
      <trkpt lat="48.60725" lon="1.9744">
        <ele>99.15</ele>
        <time>2019-12-19T09:11:06Z</time>
      </trkpt>
      <trkpt lat="48.60726" lon="1.9744">
        <ele>98.67</ele>
        <time>2019-12-19T09:11:07Z</time>
      </trkpt>
      <trkpt lat="48.60728" lon="1.97439">
        <ele>99.15</ele>
        <time>2019-12-19T09:11:08Z</time>
      </trkpt>
      <trkpt lat="48.60729" lon="1.97438">
        <ele>99.15</ele>
        <time>2019-12-19T09:11:09Z</time>
      </trkpt>
      <trkpt lat="48.6073" lon="1.97436">
        <ele>98.67</ele>
        <time>2019-12-19T09:11:10Z</time>
      </trkpt>
      <trkpt lat="48.60731" lon="1.97435">
        <ele>98.67</ele>
        <time>2019-12-19T09:11:11Z</time>
      </trkpt>
      <trkpt lat="48.60733" lon="1.97434">
        <ele>98.67</ele>
        <time>2019-12-19T09:11:13Z</time>
      </trkpt>
      <trkpt lat="48.60734" lon="1.97434">
        <ele>99.15</ele>
        <time>2019-12-19T09:11:14Z</time>
      </trkpt>
      <trkpt lat="48.60734" lon="1.97433">
        <ele>99.15</ele>
        <time>2019-12-19T09:11:15Z</time>
      </trkpt>
      <trkpt lat="48.60734" lon="1.97433">
        <ele>98.67</ele>
        <time>2019-12-19T09:11:16Z</time>
      </trkpt>
      <trkpt lat="48.60734" lon="1.97432">
        <ele>98.67</ele>
        <time>2019-12-19T09:11:17Z</time>
      </trkpt>
      <trkpt lat="48.60735" lon="1.97431">
        <ele>99.15</ele>
        <time>2019-12-19T09:11:18Z</time>
      </trkpt>
      <trkpt lat="48.60735" lon="1.9743">
        <ele>98.67</ele>
        <time>2019-12-19T09:11:19Z</time>
      </trkpt>
      <trkpt lat="48.60734" lon="1.97429">
        <ele>99.15</ele>
        <time>2019-12-19T09:11:20Z</time>
      </trkpt>
      <trkpt lat="48.60734" lon="1.97429">
        <ele>98.67</ele>
        <time>2019-12-19T09:11:21Z</time>
      </trkpt>
      <trkpt lat="48.60733" lon="1.97428">
        <ele>98.67</ele>
        <time>2019-12-19T09:11:22Z</time>
      </trkpt>
      <trkpt lat="48.60733" lon="1.97427">
        <ele>99.15</ele>
        <time>2019-12-19T09:11:23Z</time>
      </trkpt>
      <trkpt lat="48.60733" lon="1.97427">
        <ele>99.15</ele>
        <time>2019-12-19T09:11:24Z</time>
      </trkpt>
      <trkpt lat="48.60734" lon="1.97427">
        <ele>99.15</ele>
        <time>2019-12-19T09:11:25Z</time>
      </trkpt>
      <trkpt lat="48.60735" lon="1.97427">
        <ele>98.67</ele>
        <time>2019-12-19T09:11:26Z</time>
      </trkpt>
      <trkpt lat="48.60735" lon="1.97426">
        <ele>99.15</ele>
        <time>2019-12-19T09:11:27Z</time>
      </trkpt>
      <trkpt lat="48.60735" lon="1.97426">
        <ele>99.15</ele>
        <time>2019-12-19T09:11:28Z</time>
      </trkpt>
      <trkpt lat="48.60736" lon="1.97426">
        <ele>99.15</ele>
        <time>2019-12-19T09:11:29Z</time>
      </trkpt>
      <trkpt lat="48.60736" lon="1.97425">
        <ele>99.15</ele>
        <time>2019-12-19T09:11:30Z</time>
      </trkpt>
      <trkpt lat="48.60737" lon="1.97424">
        <ele>99.15</ele>
        <time>2019-12-19T09:11:31Z</time>
      </trkpt>
      <trkpt lat="48.60737" lon="1.97423">
        <ele>99.15</ele>
        <time>2019-12-19T09:11:32Z</time>
      </trkpt>
      <trkpt lat="48.60738" lon="1.97423">
        <ele>99.15</ele>
        <time>2019-12-19T09:11:33Z</time>
      </trkpt>
      <trkpt lat="48.60738" lon="1.97422">
        <ele>99.15</ele>
        <time>2019-12-19T09:11:34Z</time>
      </trkpt>
      <trkpt lat="48.60738" lon="1.97421">
        <ele>99.15</ele>
        <time>2019-12-19T09:11:35Z</time>
      </trkpt>
      <trkpt lat="48.60739" lon="1.9742">
        <ele>99.15</ele>
        <time>2019-12-19T09:11:36Z</time>
      </trkpt>
      <trkpt lat="48.60739" lon="1.9742">
        <ele>99.15</ele>
        <time>2019-12-19T09:11:37Z</time>
      </trkpt>
      <trkpt lat="48.60739" lon="1.9742">
        <ele>98.67</ele>
        <time>2019-12-19T09:11:38Z</time>
      </trkpt>
      <trkpt lat="48.60739" lon="1.9742">
        <ele>99.63</ele>
        <time>2019-12-19T09:11:39Z</time>
      </trkpt>
      <trkpt lat="48.60739" lon="1.97419">
        <ele>99.63</ele>
        <time>2019-12-19T09:11:40Z</time>
      </trkpt>
      <trkpt lat="48.60739" lon="1.97418">
        <ele>99.15</ele>
        <time>2019-12-19T09:11:41Z</time>
      </trkpt>
      <trkpt lat="48.60738" lon="1.97417">
        <ele>99.15</ele>
        <time>2019-12-19T09:11:42Z</time>
      </trkpt>
      <trkpt lat="48.60738" lon="1.97416">
        <ele>99.15</ele>
        <time>2019-12-19T09:11:43Z</time>
      </trkpt>
      <trkpt lat="48.60738" lon="1.97416">
        <ele>99.63</ele>
        <time>2019-12-19T09:11:44Z</time>
      </trkpt>
      <trkpt lat="48.60738" lon="1.97415">
        <ele>99.15</ele>
        <time>2019-12-19T09:11:45Z</time>
      </trkpt>
      <trkpt lat="48.60738" lon="1.97415">
        <ele>99.63</ele>
        <time>2019-12-19T09:11:46Z</time>
      </trkpt>
      <trkpt lat="48.60737" lon="1.97414">
        <ele>99.15</ele>
        <time>2019-12-19T09:11:47Z</time>
      </trkpt>
      <trkpt lat="48.60737" lon="1.97412">
        <ele>99.63</ele>
        <time>2019-12-19T09:11:48Z</time>
      </trkpt>
      <trkpt lat="48.60737" lon="1.97412">
        <ele>99.15</ele>
        <time>2019-12-19T09:11:49Z</time>
      </trkpt>
      <trkpt lat="48.60737" lon="1.97411">
        <ele>99.63</ele>
        <time>2019-12-19T09:11:50Z</time>
      </trkpt>
      <trkpt lat="48.60737" lon="1.97409">
        <ele>99.63</ele>
        <time>2019-12-19T09:11:51Z</time>
      </trkpt>
      <trkpt lat="48.60737" lon="1.97408">
        <ele>99.63</ele>
        <time>2019-12-19T09:11:52Z</time>
      </trkpt>
      <trkpt lat="48.60737" lon="1.97407">
        <ele>99.63</ele>
        <time>2019-12-19T09:11:53Z</time>
      </trkpt>
      <trkpt lat="48.60737" lon="1.97406">
        <ele>99.63</ele>
        <time>2019-12-19T09:11:54Z</time>
      </trkpt>
      <trkpt lat="48.60736" lon="1.97405">
        <ele>99.63</ele>
        <time>2019-12-19T09:11:55Z</time>
      </trkpt>
      <trkpt lat="48.60736" lon="1.97404">
        <ele>100.11</ele>
        <time>2019-12-19T09:11:56Z</time>
      </trkpt>
      <trkpt lat="48.60735" lon="1.97402">
        <ele>100.11</ele>
        <time>2019-12-19T09:11:57Z</time>
      </trkpt>
      <trkpt lat="48.60734" lon="1.974">
        <ele>99.63</ele>
        <time>2019-12-19T09:11:58Z</time>
      </trkpt>
      <trkpt lat="48.60733" lon="1.97398">
        <ele>99.63</ele>
        <time>2019-12-19T09:11:59Z</time>
      </trkpt>
      <trkpt lat="48.60732" lon="1.97396">
        <ele>99.63</ele>
        <time>2019-12-19T09:12:00Z</time>
      </trkpt>
      <trkpt lat="48.60731" lon="1.97394">
        <ele>100.11</ele>
        <time>2019-12-19T09:12:01Z</time>
      </trkpt>
      <trkpt lat="48.6073" lon="1.97393">
        <ele>100.11</ele>
        <time>2019-12-19T09:12:02Z</time>
      </trkpt>
      <trkpt lat="48.60729" lon="1.97391">
        <ele>100.11</ele>
        <time>2019-12-19T09:12:03Z</time>
      </trkpt>
      <trkpt lat="48.60728" lon="1.9739">
        <ele>99.63</ele>
        <time>2019-12-19T09:12:04Z</time>
      </trkpt>
      <trkpt lat="48.60728" lon="1.97388">
        <ele>99.63</ele>
        <time>2019-12-19T09:12:05Z</time>
      </trkpt>
      <trkpt lat="48.60727" lon="1.97386">
        <ele>100.11</ele>
        <time>2019-12-19T09:12:06Z</time>
      </trkpt>
      <trkpt lat="48.60726" lon="1.97384">
        <ele>99.63</ele>
        <time>2019-12-19T09:12:07Z</time>
      </trkpt>
      <trkpt lat="48.60725" lon="1.97382">
        <ele>99.63</ele>
        <time>2019-12-19T09:12:08Z</time>
      </trkpt>
      <trkpt lat="48.60724" lon="1.97379">
        <ele>99.63</ele>
        <time>2019-12-19T09:12:09Z</time>
      </trkpt>
      <trkpt lat="48.60724" lon="1.97377">
        <ele>99.63</ele>
        <time>2019-12-19T09:12:10Z</time>
      </trkpt>
      <trkpt lat="48.60723" lon="1.97376">
        <ele>99.63</ele>
        <time>2019-12-19T09:12:11Z</time>
      </trkpt>
      <trkpt lat="48.60723" lon="1.97374">
        <ele>99.63</ele>
        <time>2019-12-19T09:12:12Z</time>
      </trkpt>
      <trkpt lat="48.60722" lon="1.97373">
        <ele>100.11</ele>
        <time>2019-12-19T09:12:13Z</time>
      </trkpt>
      <trkpt lat="48.60722" lon="1.97372">
        <ele>100.11</ele>
        <time>2019-12-19T09:12:14Z</time>
      </trkpt>
      <trkpt lat="48.60722" lon="1.97371">
        <ele>99.63</ele>
        <time>2019-12-19T09:12:15Z</time>
      </trkpt>
      <trkpt lat="48.60722" lon="1.9737">
        <ele>99.63</ele>
        <time>2019-12-19T09:12:16Z</time>
      </trkpt>
      <trkpt lat="48.60721" lon="1.97368">
        <ele>99.63</ele>
        <time>2019-12-19T09:12:17Z</time>
      </trkpt>
      <trkpt lat="48.6072" lon="1.97366">
        <ele>100.11</ele>
        <time>2019-12-19T09:12:18Z</time>
      </trkpt>
      <trkpt lat="48.6072" lon="1.97364">
        <ele>99.63</ele>
        <time>2019-12-19T09:12:19Z</time>
      </trkpt>
      <trkpt lat="48.60719" lon="1.97361">
        <ele>100.11</ele>
        <time>2019-12-19T09:12:20Z</time>
      </trkpt>
      <trkpt lat="48.60719" lon="1.97359">
        <ele>99.63</ele>
        <time>2019-12-19T09:12:21Z</time>
      </trkpt>
      <trkpt lat="48.60718" lon="1.97357">
        <ele>99.63</ele>
        <time>2019-12-19T09:12:22Z</time>
      </trkpt>
      <trkpt lat="48.60718" lon="1.97355">
        <ele>99.63</ele>
        <time>2019-12-19T09:12:23Z</time>
      </trkpt>
      <trkpt lat="48.60717" lon="1.97354">
        <ele>100.11</ele>
        <time>2019-12-19T09:12:24Z</time>
      </trkpt>
      <trkpt lat="48.60717" lon="1.97352">
        <ele>100.11</ele>
        <time>2019-12-19T09:12:25Z</time>
      </trkpt>
      <trkpt lat="48.60717" lon="1.97352">
        <ele>100.11</ele>
        <time>2019-12-19T09:12:26Z</time>
      </trkpt>
      <trkpt lat="48.60717" lon="1.97351">
        <ele>99.63</ele>
        <time>2019-12-19T09:12:28Z</time>
      </trkpt>
      <trkpt lat="48.60717" lon="1.9735">
        <ele>100.11</ele>
        <time>2019-12-19T09:12:29Z</time>
      </trkpt>
      <trkpt lat="48.60717" lon="1.97349">
        <ele>100.11</ele>
        <time>2019-12-19T09:12:30Z</time>
      </trkpt>
      <trkpt lat="48.60716" lon="1.97346">
        <ele>100.11</ele>
        <time>2019-12-19T09:12:31Z</time>
      </trkpt>
      <trkpt lat="48.60716" lon="1.97344">
        <ele>100.11</ele>
        <time>2019-12-19T09:12:32Z</time>
      </trkpt>
      <trkpt lat="48.60715" lon="1.97341">
        <ele>100.11</ele>
        <time>2019-12-19T09:12:33Z</time>
      </trkpt>
      <trkpt lat="48.60714" lon="1.9734">
        <ele>100.11</ele>
        <time>2019-12-19T09:12:34Z</time>
      </trkpt>
      <trkpt lat="48.60713" lon="1.97336">
        <ele>100.11</ele>
        <time>2019-12-19T09:12:35Z</time>
      </trkpt>
      <trkpt lat="48.60711" lon="1.97332">
        <ele>100.11</ele>
        <time>2019-12-19T09:12:36Z</time>
      </trkpt>
      <trkpt lat="48.60711" lon="1.97329">
        <ele>100.11</ele>
        <time>2019-12-19T09:12:37Z</time>
      </trkpt>
      <trkpt lat="48.6071" lon="1.97326">
        <ele>100.11</ele>
        <time>2019-12-19T09:12:38Z</time>
      </trkpt>
      <trkpt lat="48.6071" lon="1.97322">
        <ele>100.11</ele>
        <time>2019-12-19T09:12:39Z</time>
      </trkpt>
      <trkpt lat="48.60709" lon="1.97319">
        <ele>100.6</ele>
        <time>2019-12-19T09:12:40Z</time>
      </trkpt>
      <trkpt lat="48.60708" lon="1.97317">
        <ele>100.11</ele>
        <time>2019-12-19T09:12:41Z</time>
      </trkpt>
      <trkpt lat="48.60707" lon="1.97314">
        <ele>100.11</ele>
        <time>2019-12-19T09:12:42Z</time>
      </trkpt>
      <trkpt lat="48.60707" lon="1.97311">
        <ele>100.6</ele>
        <time>2019-12-19T09:12:43Z</time>
      </trkpt>
      <trkpt lat="48.60707" lon="1.97308">
        <ele>100.6</ele>
        <time>2019-12-19T09:12:44Z</time>
      </trkpt>
      <trkpt lat="48.60707" lon="1.97305">
        <ele>100.6</ele>
        <time>2019-12-19T09:12:45Z</time>
      </trkpt>
      <trkpt lat="48.60706" lon="1.97302">
        <ele>100.6</ele>
        <time>2019-12-19T09:12:46Z</time>
      </trkpt>
      <trkpt lat="48.60706" lon="1.973">
        <ele>100.6</ele>
        <time>2019-12-19T09:12:47Z</time>
      </trkpt>
      <trkpt lat="48.60705" lon="1.97297">
        <ele>100.6</ele>
        <time>2019-12-19T09:12:48Z</time>
      </trkpt>
      <trkpt lat="48.60705" lon="1.97295">
        <ele>100.11</ele>
        <time>2019-12-19T09:12:49Z</time>
      </trkpt>
      <trkpt lat="48.60704" lon="1.97293">
        <ele>100.6</ele>
        <time>2019-12-19T09:12:50Z</time>
      </trkpt>
      <trkpt lat="48.60703" lon="1.97291">
        <ele>100.6</ele>
        <time>2019-12-19T09:12:51Z</time>
      </trkpt>
      <trkpt lat="48.60702" lon="1.9729">
        <ele>100.6</ele>
        <time>2019-12-19T09:12:52Z</time>
      </trkpt>
      <trkpt lat="48.60702" lon="1.9729">
        <ele>100.6</ele>
        <time>2019-12-19T09:12:53Z</time>
      </trkpt>
      <trkpt lat="48.60702" lon="1.97289">
        <ele>100.6</ele>
        <time>2019-12-19T09:12:55Z</time>
      </trkpt>
      <trkpt lat="48.60702" lon="1.97288">
        <ele>100.6</ele>
        <time>2019-12-19T09:12:56Z</time>
      </trkpt>
      <trkpt lat="48.60702" lon="1.97288">
        <ele>100.6</ele>
        <time>2019-12-19T09:12:57Z</time>
      </trkpt>
      <trkpt lat="48.60701" lon="1.97287">
        <ele>100.6</ele>
        <time>2019-12-19T09:12:58Z</time>
      </trkpt>
      <trkpt lat="48.60701" lon="1.97285">
        <ele>100.6</ele>
        <time>2019-12-19T09:12:59Z</time>
      </trkpt>
      <trkpt lat="48.60701" lon="1.97283">
        <ele>101.08</ele>
        <time>2019-12-19T09:13:00Z</time>
      </trkpt>
      <trkpt lat="48.607" lon="1.97282">
        <ele>100.6</ele>
        <time>2019-12-19T09:13:01Z</time>
      </trkpt>
      <trkpt lat="48.607" lon="1.9728">
        <ele>100.6</ele>
        <time>2019-12-19T09:13:02Z</time>
      </trkpt>
      <trkpt lat="48.60699" lon="1.97278">
        <ele>100.6</ele>
        <time>2019-12-19T09:13:03Z</time>
      </trkpt>
      <trkpt lat="48.60699" lon="1.97276">
        <ele>100.6</ele>
        <time>2019-12-19T09:13:04Z</time>
      </trkpt>
      <trkpt lat="48.60698" lon="1.97272">
        <ele>100.6</ele>
        <time>2019-12-19T09:13:05Z</time>
      </trkpt>
      <trkpt lat="48.60698" lon="1.9727">
        <ele>100.6</ele>
        <time>2019-12-19T09:13:06Z</time>
      </trkpt>
      <trkpt lat="48.60699" lon="1.97269">
        <ele>100.6</ele>
        <time>2019-12-19T09:13:07Z</time>
      </trkpt>
      <trkpt lat="48.60699" lon="1.97267">
        <ele>101.08</ele>
        <time>2019-12-19T09:13:08Z</time>
      </trkpt>
      <trkpt lat="48.607" lon="1.97266">
        <ele>101.08</ele>
        <time>2019-12-19T09:13:09Z</time>
      </trkpt>
      <trkpt lat="48.607" lon="1.97262">
        <ele>100.6</ele>
        <time>2019-12-19T09:13:10Z</time>
      </trkpt>
      <trkpt lat="48.60701" lon="1.97262">
        <ele>100.6</ele>
        <time>2019-12-19T09:13:11Z</time>
      </trkpt>
      <trkpt lat="48.60702" lon="1.97261">
        <ele>100.6</ele>
        <time>2019-12-19T09:13:12Z</time>
      </trkpt>
      <trkpt lat="48.60702" lon="1.9726">
        <ele>101.08</ele>
        <time>2019-12-19T09:13:13Z</time>
      </trkpt>
      <trkpt lat="48.60702" lon="1.97259">
        <ele>101.08</ele>
        <time>2019-12-19T09:13:14Z</time>
      </trkpt>
      <trkpt lat="48.60702" lon="1.97257">
        <ele>101.08</ele>
        <time>2019-12-19T09:13:15Z</time>
      </trkpt>
      <trkpt lat="48.60701" lon="1.97256">
        <ele>100.6</ele>
        <time>2019-12-19T09:13:16Z</time>
      </trkpt>
      <trkpt lat="48.60701" lon="1.97252">
        <ele>101.08</ele>
        <time>2019-12-19T09:13:17Z</time>
      </trkpt>
      <trkpt lat="48.60701" lon="1.97248">
        <ele>101.08</ele>
        <time>2019-12-19T09:13:18Z</time>
      </trkpt>
      <trkpt lat="48.60701" lon="1.97245">
        <ele>101.08</ele>
        <time>2019-12-19T09:13:19Z</time>
      </trkpt>
      <trkpt lat="48.607" lon="1.97243">
        <ele>101.08</ele>
        <time>2019-12-19T09:13:20Z</time>
      </trkpt>
      <trkpt lat="48.60701" lon="1.9724">
        <ele>101.08</ele>
        <time>2019-12-19T09:13:21Z</time>
      </trkpt>
      <trkpt lat="48.60701" lon="1.97238">
        <ele>100.6</ele>
        <time>2019-12-19T09:13:22Z</time>
      </trkpt>
      <trkpt lat="48.60701" lon="1.97235">
        <ele>101.08</ele>
        <time>2019-12-19T09:13:23Z</time>
      </trkpt>
      <trkpt lat="48.60702" lon="1.97232">
        <ele>101.08</ele>
        <time>2019-12-19T09:13:24Z</time>
      </trkpt>
      <trkpt lat="48.60702" lon="1.97229">
        <ele>101.08</ele>
        <time>2019-12-19T09:13:25Z</time>
      </trkpt>
      <trkpt lat="48.60703" lon="1.97225">
        <ele>101.08</ele>
        <time>2019-12-19T09:13:26Z</time>
      </trkpt>
      <trkpt lat="48.60703" lon="1.97222">
        <ele>101.56</ele>
        <time>2019-12-19T09:13:27Z</time>
      </trkpt>
      <trkpt lat="48.60703" lon="1.9722">
        <ele>101.56</ele>
        <time>2019-12-19T09:13:28Z</time>
      </trkpt>
      <trkpt lat="48.60704" lon="1.97218">
        <ele>101.08</ele>
        <time>2019-12-19T09:13:29Z</time>
      </trkpt>
      <trkpt lat="48.60704" lon="1.97217">
        <ele>101.08</ele>
        <time>2019-12-19T09:13:30Z</time>
      </trkpt>
      <trkpt lat="48.60704" lon="1.97215">
        <ele>101.08</ele>
        <time>2019-12-19T09:13:31Z</time>
      </trkpt>
      <trkpt lat="48.60704" lon="1.97212">
        <ele>101.08</ele>
        <time>2019-12-19T09:13:32Z</time>
      </trkpt>
      <trkpt lat="48.60704" lon="1.97208">
        <ele>102.52</ele>
        <time>2019-12-19T09:13:33Z</time>
      </trkpt>
      <trkpt lat="48.60704" lon="1.97205">
        <ele>101.08</ele>
        <time>2019-12-19T09:13:34Z</time>
      </trkpt>
      <trkpt lat="48.60704" lon="1.97203">
        <ele>101.08</ele>
        <time>2019-12-19T09:13:35Z</time>
      </trkpt>
      <trkpt lat="48.60704" lon="1.972">
        <ele>101.08</ele>
        <time>2019-12-19T09:13:36Z</time>
      </trkpt>
      <trkpt lat="48.60704" lon="1.97197">
        <ele>101.08</ele>
        <time>2019-12-19T09:13:37Z</time>
      </trkpt>
      <trkpt lat="48.60704" lon="1.97193">
        <ele>101.08</ele>
        <time>2019-12-19T09:13:38Z</time>
      </trkpt>
      <trkpt lat="48.60703" lon="1.9719">
        <ele>101.08</ele>
        <time>2019-12-19T09:13:39Z</time>
      </trkpt>
      <trkpt lat="48.60703" lon="1.97188">
        <ele>101.08</ele>
        <time>2019-12-19T09:13:40Z</time>
      </trkpt>
      <trkpt lat="48.60703" lon="1.97185">
        <ele>101.08</ele>
        <time>2019-12-19T09:13:41Z</time>
      </trkpt>
      <trkpt lat="48.60702" lon="1.97183">
        <ele>101.08</ele>
        <time>2019-12-19T09:13:42Z</time>
      </trkpt>
      <trkpt lat="48.60702" lon="1.97181">
        <ele>101.08</ele>
        <time>2019-12-19T09:13:43Z</time>
      </trkpt>
      <trkpt lat="48.60703" lon="1.97179">
        <ele>101.08</ele>
        <time>2019-12-19T09:13:44Z</time>
      </trkpt>
      <trkpt lat="48.60703" lon="1.97176">
        <ele>101.56</ele>
        <time>2019-12-19T09:13:45Z</time>
      </trkpt>
      <trkpt lat="48.60703" lon="1.97174">
        <ele>102.04</ele>
        <time>2019-12-19T09:13:46Z</time>
      </trkpt>
      <trkpt lat="48.60703" lon="1.97171">
        <ele>101.56</ele>
        <time>2019-12-19T09:13:47Z</time>
      </trkpt>
      <trkpt lat="48.60703" lon="1.97169">
        <ele>101.56</ele>
        <time>2019-12-19T09:13:48Z</time>
      </trkpt>
      <trkpt lat="48.60703" lon="1.97167">
        <ele>101.56</ele>
        <time>2019-12-19T09:13:49Z</time>
      </trkpt>
      <trkpt lat="48.60704" lon="1.97166">
        <ele>102.04</ele>
        <time>2019-12-19T09:13:50Z</time>
      </trkpt>
      <trkpt lat="48.60704" lon="1.97164">
        <ele>102.04</ele>
        <time>2019-12-19T09:13:51Z</time>
      </trkpt>
      <trkpt lat="48.60704" lon="1.97162">
        <ele>102.04</ele>
        <time>2019-12-19T09:13:52Z</time>
      </trkpt>
      <trkpt lat="48.60704" lon="1.97162">
        <ele>102.04</ele>
        <time>2019-12-19T09:13:53Z</time>
      </trkpt>
      <trkpt lat="48.60704" lon="1.97162">
        <ele>102.04</ele>
        <time>2019-12-19T09:13:54Z</time>
      </trkpt>
      <trkpt lat="48.60704" lon="1.97161">
        <ele>102.04</ele>
        <time>2019-12-19T09:13:55Z</time>
      </trkpt>
      <trkpt lat="48.60705" lon="1.97161">
        <ele>102.04</ele>
        <time>2019-12-19T09:13:56Z</time>
      </trkpt>
      <trkpt lat="48.60705" lon="1.9716">
        <ele>102.04</ele>
        <time>2019-12-19T09:13:57Z</time>
      </trkpt>
      <trkpt lat="48.60706" lon="1.9716">
        <ele>102.04</ele>
        <time>2019-12-19T09:13:58Z</time>
      </trkpt>
      <trkpt lat="48.60706" lon="1.97159">
        <ele>102.04</ele>
        <time>2019-12-19T09:13:59Z</time>
      </trkpt>
      <trkpt lat="48.60707" lon="1.97158">
        <ele>102.04</ele>
        <time>2019-12-19T09:14:00Z</time>
      </trkpt>
      <trkpt lat="48.60707" lon="1.97158">
        <ele>102.52</ele>
        <time>2019-12-19T09:14:01Z</time>
      </trkpt>
      <trkpt lat="48.60708" lon="1.97156">
        <ele>102.52</ele>
        <time>2019-12-19T09:14:02Z</time>
      </trkpt>
      <trkpt lat="48.60708" lon="1.97154">
        <ele>102.52</ele>
        <time>2019-12-19T09:14:03Z</time>
      </trkpt>
      <trkpt lat="48.60708" lon="1.97153">
        <ele>102.52</ele>
        <time>2019-12-19T09:14:04Z</time>
      </trkpt>
      <trkpt lat="48.60707" lon="1.97151">
        <ele>102.52</ele>
        <time>2019-12-19T09:14:05Z</time>
      </trkpt>
      <trkpt lat="48.60707" lon="1.97149">
        <ele>102.52</ele>
        <time>2019-12-19T09:14:06Z</time>
      </trkpt>
      <trkpt lat="48.60707" lon="1.97147">
        <ele>102.52</ele>
        <time>2019-12-19T09:14:07Z</time>
      </trkpt>
      <trkpt lat="48.60706" lon="1.97145">
        <ele>103</ele>
        <time>2019-12-19T09:14:08Z</time>
      </trkpt>
      <trkpt lat="48.60705" lon="1.97143">
        <ele>102.52</ele>
        <time>2019-12-19T09:14:09Z</time>
      </trkpt>
      <trkpt lat="48.60705" lon="1.97142">
        <ele>102.52</ele>
        <time>2019-12-19T09:14:10Z</time>
      </trkpt>
      <trkpt lat="48.60704" lon="1.9714">
        <ele>102.52</ele>
        <time>2019-12-19T09:14:11Z</time>
      </trkpt>
      <trkpt lat="48.60704" lon="1.9714">
        <ele>102.52</ele>
        <time>2019-12-19T09:14:12Z</time>
      </trkpt>
      <trkpt lat="48.60703" lon="1.97139">
        <ele>103</ele>
        <time>2019-12-19T09:14:13Z</time>
      </trkpt>
      <trkpt lat="48.60703" lon="1.97138">
        <ele>103</ele>
        <time>2019-12-19T09:14:14Z</time>
      </trkpt>
      <trkpt lat="48.60702" lon="1.97138">
        <ele>103</ele>
        <time>2019-12-19T09:14:15Z</time>
      </trkpt>
      <trkpt lat="48.60701" lon="1.97136">
        <ele>103</ele>
        <time>2019-12-19T09:14:16Z</time>
      </trkpt>
      <trkpt lat="48.607" lon="1.97134">
        <ele>103.48</ele>
        <time>2019-12-19T09:14:17Z</time>
      </trkpt>
      <trkpt lat="48.60699" lon="1.97132">
        <ele>103.48</ele>
        <time>2019-12-19T09:14:18Z</time>
      </trkpt>
      <trkpt lat="48.60698" lon="1.9713">
        <ele>103.48</ele>
        <time>2019-12-19T09:14:19Z</time>
      </trkpt>
      <trkpt lat="48.60697" lon="1.97129">
        <ele>103</ele>
        <time>2019-12-19T09:14:20Z</time>
      </trkpt>
      <trkpt lat="48.60697" lon="1.97128">
        <ele>103.48</ele>
        <time>2019-12-19T09:14:21Z</time>
      </trkpt>
      <trkpt lat="48.60694" lon="1.97123">
        <ele>103.96</ele>
        <time>2019-12-19T09:14:22Z</time>
      </trkpt>
      <trkpt lat="48.60692" lon="1.97119">
        <ele>103.96</ele>
        <time>2019-12-19T09:14:23Z</time>
      </trkpt>
      <trkpt lat="48.6069" lon="1.97115">
        <ele>103.48</ele>
        <time>2019-12-19T09:14:24Z</time>
      </trkpt>
      <trkpt lat="48.60688" lon="1.97112">
        <ele>103.96</ele>
        <time>2019-12-19T09:14:25Z</time>
      </trkpt>
      <trkpt lat="48.60687" lon="1.9711">
        <ele>103.96</ele>
        <time>2019-12-19T09:14:26Z</time>
      </trkpt>
      <trkpt lat="48.60685" lon="1.97108">
        <ele>103.96</ele>
        <time>2019-12-19T09:14:27Z</time>
      </trkpt>
      <trkpt lat="48.60684" lon="1.97106">
        <ele>104.44</ele>
        <time>2019-12-19T09:14:28Z</time>
      </trkpt>
      <trkpt lat="48.60683" lon="1.97104">
        <ele>104.44</ele>
        <time>2019-12-19T09:14:29Z</time>
      </trkpt>
      <trkpt lat="48.60682" lon="1.97102">
        <ele>104.44</ele>
        <time>2019-12-19T09:14:30Z</time>
      </trkpt>
      <trkpt lat="48.60681" lon="1.97099">
        <ele>104.44</ele>
        <time>2019-12-19T09:14:31Z</time>
      </trkpt>
      <trkpt lat="48.6068" lon="1.97097">
        <ele>104.44</ele>
        <time>2019-12-19T09:14:32Z</time>
      </trkpt>
      <trkpt lat="48.6068" lon="1.97096">
        <ele>104.44</ele>
        <time>2019-12-19T09:14:33Z</time>
      </trkpt>
      <trkpt lat="48.60679" lon="1.97094">
        <ele>104.92</ele>
        <time>2019-12-19T09:14:34Z</time>
      </trkpt>
      <trkpt lat="48.60678" lon="1.97093">
        <ele>104.92</ele>
        <time>2019-12-19T09:14:35Z</time>
      </trkpt>
      <trkpt lat="48.60677" lon="1.97091">
        <ele>104.92</ele>
        <time>2019-12-19T09:14:36Z</time>
      </trkpt>
      <trkpt lat="48.60675" lon="1.97089">
        <ele>104.92</ele>
        <time>2019-12-19T09:14:37Z</time>
      </trkpt>
      <trkpt lat="48.60674" lon="1.97087">
        <ele>104.92</ele>
        <time>2019-12-19T09:14:38Z</time>
      </trkpt>
      <trkpt lat="48.60673" lon="1.97086">
        <ele>105.4</ele>
        <time>2019-12-19T09:14:39Z</time>
      </trkpt>
      <trkpt lat="48.60671" lon="1.97084">
        <ele>105.88</ele>
        <time>2019-12-19T09:14:40Z</time>
      </trkpt>
      <trkpt lat="48.6067" lon="1.97083">
        <ele>105.4</ele>
        <time>2019-12-19T09:14:41Z</time>
      </trkpt>
      <trkpt lat="48.60669" lon="1.97081">
        <ele>105.4</ele>
        <time>2019-12-19T09:14:42Z</time>
      </trkpt>
      <trkpt lat="48.60668" lon="1.9708">
        <ele>105.4</ele>
        <time>2019-12-19T09:14:43Z</time>
      </trkpt>
      <trkpt lat="48.60667" lon="1.97079">
        <ele>105.88</ele>
        <time>2019-12-19T09:14:44Z</time>
      </trkpt>
      <trkpt lat="48.60666" lon="1.97078">
        <ele>105.88</ele>
        <time>2019-12-19T09:14:45Z</time>
      </trkpt>
      <trkpt lat="48.60665" lon="1.97077">
        <ele>106.36</ele>
        <time>2019-12-19T09:14:46Z</time>
      </trkpt>
      <trkpt lat="48.60664" lon="1.97076">
        <ele>105.88</ele>
        <time>2019-12-19T09:14:47Z</time>
      </trkpt>
      <trkpt lat="48.60663" lon="1.97075">
        <ele>105.88</ele>
        <time>2019-12-19T09:14:48Z</time>
      </trkpt>
      <trkpt lat="48.60662" lon="1.97073">
        <ele>106.36</ele>
        <time>2019-12-19T09:14:49Z</time>
      </trkpt>
      <trkpt lat="48.60661" lon="1.97071">
        <ele>106.36</ele>
        <time>2019-12-19T09:14:50Z</time>
      </trkpt>
      <trkpt lat="48.6066" lon="1.9707">
        <ele>106.84</ele>
        <time>2019-12-19T09:14:51Z</time>
      </trkpt>
      <trkpt lat="48.60659" lon="1.97069">
        <ele>106.84</ele>
        <time>2019-12-19T09:14:52Z</time>
      </trkpt>
      <trkpt lat="48.60657" lon="1.97067">
        <ele>106.84</ele>
        <time>2019-12-19T09:14:53Z</time>
      </trkpt>
      <trkpt lat="48.60656" lon="1.97065">
        <ele>106.84</ele>
        <time>2019-12-19T09:14:54Z</time>
      </trkpt>
      <trkpt lat="48.60655" lon="1.97063">
        <ele>106.84</ele>
        <time>2019-12-19T09:14:55Z</time>
      </trkpt>
      <trkpt lat="48.60654" lon="1.97062">
        <ele>106.84</ele>
        <time>2019-12-19T09:14:56Z</time>
      </trkpt>
      <trkpt lat="48.60653" lon="1.9706">
        <ele>107.32</ele>
        <time>2019-12-19T09:14:57Z</time>
      </trkpt>
      <trkpt lat="48.60652" lon="1.97058">
        <ele>107.32</ele>
        <time>2019-12-19T09:14:58Z</time>
      </trkpt>
      <trkpt lat="48.60651" lon="1.97056">
        <ele>107.32</ele>
        <time>2019-12-19T09:14:59Z</time>
      </trkpt>
      <trkpt lat="48.6065" lon="1.97055">
        <ele>107.32</ele>
        <time>2019-12-19T09:15:00Z</time>
      </trkpt>
      <trkpt lat="48.6065" lon="1.97053">
        <ele>107.32</ele>
        <time>2019-12-19T09:15:01Z</time>
      </trkpt>
      <trkpt lat="48.60649" lon="1.97051">
        <ele>107.32</ele>
        <time>2019-12-19T09:15:02Z</time>
      </trkpt>
      <trkpt lat="48.60648" lon="1.97049">
        <ele>107.32</ele>
        <time>2019-12-19T09:15:03Z</time>
      </trkpt>
      <trkpt lat="48.60647" lon="1.97047">
        <ele>107.81</ele>
        <time>2019-12-19T09:15:04Z</time>
      </trkpt>
      <trkpt lat="48.60646" lon="1.97045">
        <ele>107.81</ele>
        <time>2019-12-19T09:15:05Z</time>
      </trkpt>
      <trkpt lat="48.60646" lon="1.97043">
        <ele>107.81</ele>
        <time>2019-12-19T09:15:06Z</time>
      </trkpt>
      <trkpt lat="48.60645" lon="1.97041">
        <ele>108.29</ele>
        <time>2019-12-19T09:15:07Z</time>
      </trkpt>
      <trkpt lat="48.60644" lon="1.97039">
        <ele>108.29</ele>
        <time>2019-12-19T09:15:08Z</time>
      </trkpt>
      <trkpt lat="48.60643" lon="1.97037">
        <ele>108.29</ele>
        <time>2019-12-19T09:15:09Z</time>
      </trkpt>
      <trkpt lat="48.60643" lon="1.97035">
        <ele>108.29</ele>
        <time>2019-12-19T09:15:10Z</time>
      </trkpt>
      <trkpt lat="48.60641" lon="1.97032">
        <ele>108.29</ele>
        <time>2019-12-19T09:15:11Z</time>
      </trkpt>
      <trkpt lat="48.60639" lon="1.9703">
        <ele>108.29</ele>
        <time>2019-12-19T09:15:12Z</time>
      </trkpt>
      <trkpt lat="48.60638" lon="1.97028">
        <ele>108.29</ele>
        <time>2019-12-19T09:15:13Z</time>
      </trkpt>
      <trkpt lat="48.60636" lon="1.97024">
        <ele>108.29</ele>
        <time>2019-12-19T09:15:14Z</time>
      </trkpt>
      <trkpt lat="48.60634" lon="1.97022">
        <ele>108.77</ele>
        <time>2019-12-19T09:15:15Z</time>
      </trkpt>
      <trkpt lat="48.60631" lon="1.9702">
        <ele>108.29</ele>
        <time>2019-12-19T09:15:16Z</time>
      </trkpt>
      <trkpt lat="48.6063" lon="1.97019">
        <ele>108.77</ele>
        <time>2019-12-19T09:15:17Z</time>
      </trkpt>
      <trkpt lat="48.60628" lon="1.97017">
        <ele>108.77</ele>
        <time>2019-12-19T09:15:18Z</time>
      </trkpt>
      <trkpt lat="48.60627" lon="1.97015">
        <ele>108.77</ele>
        <time>2019-12-19T09:15:19Z</time>
      </trkpt>
      <trkpt lat="48.60625" lon="1.97014">
        <ele>108.77</ele>
        <time>2019-12-19T09:15:20Z</time>
      </trkpt>
      <trkpt lat="48.60624" lon="1.97012">
        <ele>109.25</ele>
        <time>2019-12-19T09:15:21Z</time>
      </trkpt>
      <trkpt lat="48.60622" lon="1.97011">
        <ele>109.25</ele>
        <time>2019-12-19T09:15:22Z</time>
      </trkpt>
      <trkpt lat="48.60621" lon="1.97009">
        <ele>109.25</ele>
        <time>2019-12-19T09:15:23Z</time>
      </trkpt>
      <trkpt lat="48.60619" lon="1.97007">
        <ele>109.25</ele>
        <time>2019-12-19T09:15:24Z</time>
      </trkpt>
      <trkpt lat="48.60618" lon="1.97005">
        <ele>109.25</ele>
        <time>2019-12-19T09:15:25Z</time>
      </trkpt>
      <trkpt lat="48.60617" lon="1.97002">
        <ele>109.25</ele>
        <time>2019-12-19T09:15:26Z</time>
      </trkpt>
      <trkpt lat="48.60616" lon="1.97">
        <ele>109.25</ele>
        <time>2019-12-19T09:15:27Z</time>
      </trkpt>
      <trkpt lat="48.60615" lon="1.96999">
        <ele>109.73</ele>
        <time>2019-12-19T09:15:28Z</time>
      </trkpt>
      <trkpt lat="48.60614" lon="1.96998">
        <ele>109.73</ele>
        <time>2019-12-19T09:15:29Z</time>
      </trkpt>
      <trkpt lat="48.60613" lon="1.96998">
        <ele>109.73</ele>
        <time>2019-12-19T09:15:30Z</time>
      </trkpt>
      <trkpt lat="48.60612" lon="1.96997">
        <ele>109.73</ele>
        <time>2019-12-19T09:15:31Z</time>
      </trkpt>
      <trkpt lat="48.60611" lon="1.96996">
        <ele>109.73</ele>
        <time>2019-12-19T09:15:32Z</time>
      </trkpt>
      <trkpt lat="48.60609" lon="1.96995">
        <ele>110.69</ele>
        <time>2019-12-19T09:15:33Z</time>
      </trkpt>
      <trkpt lat="48.60609" lon="1.96994">
        <ele>110.21</ele>
        <time>2019-12-19T09:15:34Z</time>
      </trkpt>
      <trkpt lat="48.60609" lon="1.96993">
        <ele>110.21</ele>
        <time>2019-12-19T09:15:35Z</time>
      </trkpt>
      <trkpt lat="48.60608" lon="1.96992">
        <ele>110.21</ele>
        <time>2019-12-19T09:15:36Z</time>
      </trkpt>
      <trkpt lat="48.60607" lon="1.9699">
        <ele>110.21</ele>
        <time>2019-12-19T09:15:37Z</time>
      </trkpt>
      <trkpt lat="48.60605" lon="1.96989">
        <ele>110.21</ele>
        <time>2019-12-19T09:15:38Z</time>
      </trkpt>
      <trkpt lat="48.60604" lon="1.96988">
        <ele>110.69</ele>
        <time>2019-12-19T09:15:39Z</time>
      </trkpt>
      <trkpt lat="48.60603" lon="1.96986">
        <ele>111.17</ele>
        <time>2019-12-19T09:15:40Z</time>
      </trkpt>
      <trkpt lat="48.60602" lon="1.96984">
        <ele>111.17</ele>
        <time>2019-12-19T09:15:41Z</time>
      </trkpt>
      <trkpt lat="48.60601" lon="1.96982">
        <ele>111.17</ele>
        <time>2019-12-19T09:15:42Z</time>
      </trkpt>
      <trkpt lat="48.606" lon="1.96981">
        <ele>111.17</ele>
        <time>2019-12-19T09:15:43Z</time>
      </trkpt>
      <trkpt lat="48.60599" lon="1.96979">
        <ele>111.65</ele>
        <time>2019-12-19T09:15:44Z</time>
      </trkpt>
      <trkpt lat="48.60596" lon="1.96978">
        <ele>111.65</ele>
        <time>2019-12-19T09:15:45Z</time>
      </trkpt>
      <trkpt lat="48.60594" lon="1.96977">
        <ele>111.65</ele>
        <time>2019-12-19T09:15:46Z</time>
      </trkpt>
      <trkpt lat="48.60592" lon="1.96977">
        <ele>111.65</ele>
        <time>2019-12-19T09:15:47Z</time>
      </trkpt>
      <trkpt lat="48.60591" lon="1.96975">
        <ele>112.13</ele>
        <time>2019-12-19T09:15:48Z</time>
      </trkpt>
      <trkpt lat="48.60589" lon="1.96974">
        <ele>111.65</ele>
        <time>2019-12-19T09:15:49Z</time>
      </trkpt>
      <trkpt lat="48.60587" lon="1.96973">
        <ele>112.13</ele>
        <time>2019-12-19T09:15:50Z</time>
      </trkpt>
      <trkpt lat="48.60586" lon="1.96972">
        <ele>112.13</ele>
        <time>2019-12-19T09:15:51Z</time>
      </trkpt>
      <trkpt lat="48.60585" lon="1.96971">
        <ele>113.09</ele>
        <time>2019-12-19T09:15:52Z</time>
      </trkpt>
      <trkpt lat="48.60584" lon="1.9697">
        <ele>113.09</ele>
        <time>2019-12-19T09:15:53Z</time>
      </trkpt>
      <trkpt lat="48.60583" lon="1.96969">
        <ele>113.09</ele>
        <time>2019-12-19T09:15:54Z</time>
      </trkpt>
      <trkpt lat="48.60583" lon="1.96967">
        <ele>113.09</ele>
        <time>2019-12-19T09:15:55Z</time>
      </trkpt>
      <trkpt lat="48.60582" lon="1.96966">
        <ele>113.57</ele>
        <time>2019-12-19T09:15:56Z</time>
      </trkpt>
      <trkpt lat="48.60581" lon="1.96965">
        <ele>113.57</ele>
        <time>2019-12-19T09:15:57Z</time>
      </trkpt>
      <trkpt lat="48.6058" lon="1.96964">
        <ele>113.57</ele>
        <time>2019-12-19T09:15:58Z</time>
      </trkpt>
      <trkpt lat="48.60579" lon="1.96963">
        <ele>114.05</ele>
        <time>2019-12-19T09:15:59Z</time>
      </trkpt>
      <trkpt lat="48.60578" lon="1.96962">
        <ele>114.53</ele>
        <time>2019-12-19T09:16:00Z</time>
      </trkpt>
      <trkpt lat="48.60577" lon="1.96961">
        <ele>114.05</ele>
        <time>2019-12-19T09:16:01Z</time>
      </trkpt>
      <trkpt lat="48.60577" lon="1.9696">
        <ele>114.05</ele>
        <time>2019-12-19T09:16:02Z</time>
      </trkpt>
      <trkpt lat="48.60575" lon="1.96959">
        <ele>114.53</ele>
        <time>2019-12-19T09:16:03Z</time>
      </trkpt>
      <trkpt lat="48.60574" lon="1.96958">
        <ele>114.53</ele>
        <time>2019-12-19T09:16:04Z</time>
      </trkpt>
      <trkpt lat="48.60573" lon="1.96957">
        <ele>115.01</ele>
        <time>2019-12-19T09:16:05Z</time>
      </trkpt>
      <trkpt lat="48.60571" lon="1.96956">
        <ele>115.01</ele>
        <time>2019-12-19T09:16:06Z</time>
      </trkpt>
      <trkpt lat="48.6057" lon="1.96956">
        <ele>115.01</ele>
        <time>2019-12-19T09:16:07Z</time>
      </trkpt>
      <trkpt lat="48.60568" lon="1.96955">
        <ele>115.01</ele>
        <time>2019-12-19T09:16:08Z</time>
      </trkpt>
      <trkpt lat="48.60566" lon="1.96954">
        <ele>115.01</ele>
        <time>2019-12-19T09:16:09Z</time>
      </trkpt>
      <trkpt lat="48.60565" lon="1.96953">
        <ele>115.5</ele>
        <time>2019-12-19T09:16:10Z</time>
      </trkpt>
      <trkpt lat="48.60564" lon="1.96952">
        <ele>115.5</ele>
        <time>2019-12-19T09:16:11Z</time>
      </trkpt>
      <trkpt lat="48.60563" lon="1.96951">
        <ele>115.01</ele>
        <time>2019-12-19T09:16:12Z</time>
      </trkpt>
      <trkpt lat="48.60562" lon="1.9695">
        <ele>115.98</ele>
        <time>2019-12-19T09:16:13Z</time>
      </trkpt>
      <trkpt lat="48.6056" lon="1.96949">
        <ele>116.46</ele>
        <time>2019-12-19T09:16:14Z</time>
      </trkpt>
      <trkpt lat="48.6056" lon="1.96948">
        <ele>116.46</ele>
        <time>2019-12-19T09:16:15Z</time>
      </trkpt>
      <trkpt lat="48.60558" lon="1.96946">
        <ele>116.46</ele>
        <time>2019-12-19T09:16:16Z</time>
      </trkpt>
      <trkpt lat="48.60555" lon="1.96945">
        <ele>116.46</ele>
        <time>2019-12-19T09:16:17Z</time>
      </trkpt>
      <trkpt lat="48.60553" lon="1.96944">
        <ele>116.94</ele>
        <time>2019-12-19T09:16:18Z</time>
      </trkpt>
      <trkpt lat="48.60552" lon="1.96943">
        <ele>116.94</ele>
        <time>2019-12-19T09:16:19Z</time>
      </trkpt>
      <trkpt lat="48.6055" lon="1.96942">
        <ele>116.94</ele>
        <time>2019-12-19T09:16:20Z</time>
      </trkpt>
      <trkpt lat="48.60549" lon="1.96941">
        <ele>117.42</ele>
        <time>2019-12-19T09:16:21Z</time>
      </trkpt>
      <trkpt lat="48.60548" lon="1.9694">
        <ele>117.9</ele>
        <time>2019-12-19T09:16:22Z</time>
      </trkpt>
      <trkpt lat="48.60547" lon="1.96938">
        <ele>117.42</ele>
        <time>2019-12-19T09:16:23Z</time>
      </trkpt>
      <trkpt lat="48.60546" lon="1.96937">
        <ele>117.9</ele>
        <time>2019-12-19T09:16:24Z</time>
      </trkpt>
      <trkpt lat="48.60545" lon="1.96936">
        <ele>117.9</ele>
        <time>2019-12-19T09:16:25Z</time>
      </trkpt>
      <trkpt lat="48.60544" lon="1.96935">
        <ele>117.9</ele>
        <time>2019-12-19T09:16:26Z</time>
      </trkpt>
      <trkpt lat="48.60543" lon="1.96933">
        <ele>118.38</ele>
        <time>2019-12-19T09:16:27Z</time>
      </trkpt>
      <trkpt lat="48.60542" lon="1.96932">
        <ele>118.38</ele>
        <time>2019-12-19T09:16:28Z</time>
      </trkpt>
      <trkpt lat="48.60541" lon="1.9693">
        <ele>118.86</ele>
        <time>2019-12-19T09:16:29Z</time>
      </trkpt>
      <trkpt lat="48.60539" lon="1.96929">
        <ele>118.86</ele>
        <time>2019-12-19T09:16:30Z</time>
      </trkpt>
      <trkpt lat="48.60538" lon="1.96928">
        <ele>118.86</ele>
        <time>2019-12-19T09:16:31Z</time>
      </trkpt>
      <trkpt lat="48.60537" lon="1.96928">
        <ele>119.82</ele>
        <time>2019-12-19T09:16:32Z</time>
      </trkpt>
      <trkpt lat="48.60536" lon="1.96927">
        <ele>119.82</ele>
        <time>2019-12-19T09:16:33Z</time>
      </trkpt>
      <trkpt lat="48.60535" lon="1.96925">
        <ele>119.82</ele>
        <time>2019-12-19T09:16:34Z</time>
      </trkpt>
      <trkpt lat="48.60534" lon="1.96925">
        <ele>119.82</ele>
        <time>2019-12-19T09:16:35Z</time>
      </trkpt>
      <trkpt lat="48.60533" lon="1.96924">
        <ele>119.82</ele>
        <time>2019-12-19T09:16:36Z</time>
      </trkpt>
      <trkpt lat="48.60532" lon="1.96923">
        <ele>120.3</ele>
        <time>2019-12-19T09:16:37Z</time>
      </trkpt>
      <trkpt lat="48.6053" lon="1.96923">
        <ele>120.78</ele>
        <time>2019-12-19T09:16:38Z</time>
      </trkpt>
      <trkpt lat="48.60529" lon="1.96922">
        <ele>120.78</ele>
        <time>2019-12-19T09:16:39Z</time>
      </trkpt>
      <trkpt lat="48.60528" lon="1.96921">
        <ele>120.78</ele>
        <time>2019-12-19T09:16:40Z</time>
      </trkpt>
      <trkpt lat="48.60527" lon="1.9692">
        <ele>121.26</ele>
        <time>2019-12-19T09:16:41Z</time>
      </trkpt>
      <trkpt lat="48.60526" lon="1.96919">
        <ele>121.26</ele>
        <time>2019-12-19T09:16:42Z</time>
      </trkpt>
      <trkpt lat="48.60526" lon="1.96918">
        <ele>121.26</ele>
        <time>2019-12-19T09:16:43Z</time>
      </trkpt>
      <trkpt lat="48.60525" lon="1.96917">
        <ele>122.22</ele>
        <time>2019-12-19T09:16:44Z</time>
      </trkpt>
      <trkpt lat="48.60525" lon="1.96916">
        <ele>122.22</ele>
        <time>2019-12-19T09:16:45Z</time>
      </trkpt>
      <trkpt lat="48.60525" lon="1.96915">
        <ele>122.22</ele>
        <time>2019-12-19T09:16:46Z</time>
      </trkpt>
      <trkpt lat="48.60524" lon="1.96914">
        <ele>122.71</ele>
        <time>2019-12-19T09:16:47Z</time>
      </trkpt>
      <trkpt lat="48.60523" lon="1.96913">
        <ele>122.71</ele>
        <time>2019-12-19T09:16:48Z</time>
      </trkpt>
      <trkpt lat="48.60523" lon="1.96911">
        <ele>123.19</ele>
        <time>2019-12-19T09:16:49Z</time>
      </trkpt>
      <trkpt lat="48.60522" lon="1.96909">
        <ele>123.19</ele>
        <time>2019-12-19T09:16:50Z</time>
      </trkpt>
      <trkpt lat="48.60521" lon="1.96908">
        <ele>123.19</ele>
        <time>2019-12-19T09:16:51Z</time>
      </trkpt>
      <trkpt lat="48.60519" lon="1.96907">
        <ele>123.67</ele>
        <time>2019-12-19T09:16:52Z</time>
      </trkpt>
      <trkpt lat="48.60517" lon="1.96906">
        <ele>124.15</ele>
        <time>2019-12-19T09:16:53Z</time>
      </trkpt>
      <trkpt lat="48.60515" lon="1.96904">
        <ele>124.15</ele>
        <time>2019-12-19T09:16:54Z</time>
      </trkpt>
      <trkpt lat="48.60514" lon="1.96902">
        <ele>124.15</ele>
        <time>2019-12-19T09:16:55Z</time>
      </trkpt>
      <trkpt lat="48.60512" lon="1.969">
        <ele>124.63</ele>
        <time>2019-12-19T09:16:56Z</time>
      </trkpt>
      <trkpt lat="48.60511" lon="1.96899">
        <ele>125.11</ele>
        <time>2019-12-19T09:16:57Z</time>
      </trkpt>
      <trkpt lat="48.60509" lon="1.96898">
        <ele>125.11</ele>
        <time>2019-12-19T09:16:58Z</time>
      </trkpt>
      <trkpt lat="48.60508" lon="1.96897">
        <ele>125.11</ele>
        <time>2019-12-19T09:16:59Z</time>
      </trkpt>
      <trkpt lat="48.60506" lon="1.96896">
        <ele>125.11</ele>
        <time>2019-12-19T09:17:00Z</time>
      </trkpt>
      <trkpt lat="48.60505" lon="1.96895">
        <ele>125.11</ele>
        <time>2019-12-19T09:17:01Z</time>
      </trkpt>
      <trkpt lat="48.60504" lon="1.96894">
        <ele>125.59</ele>
        <time>2019-12-19T09:17:02Z</time>
      </trkpt>
      <trkpt lat="48.60503" lon="1.96893">
        <ele>126.07</ele>
        <time>2019-12-19T09:17:03Z</time>
      </trkpt>
      <trkpt lat="48.60503" lon="1.96892">
        <ele>126.07</ele>
        <time>2019-12-19T09:17:04Z</time>
      </trkpt>
      <trkpt lat="48.60502" lon="1.96891">
        <ele>125.59</ele>
        <time>2019-12-19T09:17:05Z</time>
      </trkpt>
      <trkpt lat="48.60501" lon="1.96891">
        <ele>126.07</ele>
        <time>2019-12-19T09:17:06Z</time>
      </trkpt>
      <trkpt lat="48.60501" lon="1.9689">
        <ele>126.55</ele>
        <time>2019-12-19T09:17:07Z</time>
      </trkpt>
      <trkpt lat="48.605" lon="1.9689">
        <ele>126.55</ele>
        <time>2019-12-19T09:17:08Z</time>
      </trkpt>
      <trkpt lat="48.605" lon="1.96889">
        <ele>126.55</ele>
        <time>2019-12-19T09:17:09Z</time>
      </trkpt>
      <trkpt lat="48.60499" lon="1.96888">
        <ele>126.55</ele>
        <time>2019-12-19T09:17:10Z</time>
      </trkpt>
      <trkpt lat="48.60498" lon="1.96887">
        <ele>126.55</ele>
        <time>2019-12-19T09:17:11Z</time>
      </trkpt>
      <trkpt lat="48.60497" lon="1.96886">
        <ele>127.03</ele>
        <time>2019-12-19T09:17:12Z</time>
      </trkpt>
      <trkpt lat="48.60496" lon="1.96886">
        <ele>127.03</ele>
        <time>2019-12-19T09:17:13Z</time>
      </trkpt>
      <trkpt lat="48.60496" lon="1.96885">
        <ele>126.55</ele>
        <time>2019-12-19T09:17:14Z</time>
      </trkpt>
      <trkpt lat="48.60495" lon="1.96884">
        <ele>126.55</ele>
        <time>2019-12-19T09:17:15Z</time>
      </trkpt>
      <trkpt lat="48.60494" lon="1.96883">
        <ele>127.03</ele>
        <time>2019-12-19T09:17:16Z</time>
      </trkpt>
      <trkpt lat="48.60493" lon="1.96881">
        <ele>127.51</ele>
        <time>2019-12-19T09:17:17Z</time>
      </trkpt>
      <trkpt lat="48.60492" lon="1.9688">
        <ele>127.51</ele>
        <time>2019-12-19T09:17:18Z</time>
      </trkpt>
      <trkpt lat="48.60491" lon="1.96879">
        <ele>127.99</ele>
        <time>2019-12-19T09:17:19Z</time>
      </trkpt>
      <trkpt lat="48.6049" lon="1.96878">
        <ele>127.51</ele>
        <time>2019-12-19T09:17:20Z</time>
      </trkpt>
      <trkpt lat="48.6049" lon="1.96877">
        <ele>127.99</ele>
        <time>2019-12-19T09:17:21Z</time>
      </trkpt>
      <trkpt lat="48.60489" lon="1.96876">
        <ele>127.99</ele>
        <time>2019-12-19T09:17:22Z</time>
      </trkpt>
      <trkpt lat="48.60488" lon="1.96876">
        <ele>128.47</ele>
        <time>2019-12-19T09:17:23Z</time>
      </trkpt>
      <trkpt lat="48.60487" lon="1.96875">
        <ele>128.47</ele>
        <time>2019-12-19T09:17:24Z</time>
      </trkpt>
      <trkpt lat="48.60486" lon="1.96874">
        <ele>128.95</ele>
        <time>2019-12-19T09:17:25Z</time>
      </trkpt>
      <trkpt lat="48.60485" lon="1.96873">
        <ele>128.95</ele>
        <time>2019-12-19T09:17:26Z</time>
      </trkpt>
      <trkpt lat="48.60484" lon="1.96872">
        <ele>129.43</ele>
        <time>2019-12-19T09:17:27Z</time>
      </trkpt>
      <trkpt lat="48.60483" lon="1.9687">
        <ele>129.92</ele>
        <time>2019-12-19T09:17:28Z</time>
      </trkpt>
      <trkpt lat="48.60482" lon="1.96869">
        <ele>129.92</ele>
        <time>2019-12-19T09:17:29Z</time>
      </trkpt>
      <trkpt lat="48.60482" lon="1.96866">
        <ele>129.92</ele>
        <time>2019-12-19T09:17:30Z</time>
      </trkpt>
      <trkpt lat="48.60481" lon="1.96865">
        <ele>129.92</ele>
        <time>2019-12-19T09:17:31Z</time>
      </trkpt>
      <trkpt lat="48.6048" lon="1.96863">
        <ele>130.4</ele>
        <time>2019-12-19T09:17:32Z</time>
      </trkpt>
      <trkpt lat="48.60479" lon="1.96861">
        <ele>131.36</ele>
        <time>2019-12-19T09:17:33Z</time>
      </trkpt>
      <trkpt lat="48.60478" lon="1.96859">
        <ele>130.4</ele>
        <time>2019-12-19T09:17:34Z</time>
      </trkpt>
      <trkpt lat="48.60478" lon="1.96858">
        <ele>130.88</ele>
        <time>2019-12-19T09:17:35Z</time>
      </trkpt>
      <trkpt lat="48.60477" lon="1.96857">
        <ele>130.88</ele>
        <time>2019-12-19T09:17:36Z</time>
      </trkpt>
      <trkpt lat="48.60477" lon="1.96856">
        <ele>130.88</ele>
        <time>2019-12-19T09:17:37Z</time>
      </trkpt>
      <trkpt lat="48.60476" lon="1.96854">
        <ele>131.36</ele>
        <time>2019-12-19T09:17:38Z</time>
      </trkpt>
      <trkpt lat="48.60475" lon="1.96852">
        <ele>131.84</ele>
        <time>2019-12-19T09:17:39Z</time>
      </trkpt>
      <trkpt lat="48.60475" lon="1.96851">
        <ele>131.84</ele>
        <time>2019-12-19T09:17:40Z</time>
      </trkpt>
      <trkpt lat="48.60474" lon="1.96848">
        <ele>131.36</ele>
        <time>2019-12-19T09:17:41Z</time>
      </trkpt>
      <trkpt lat="48.60474" lon="1.96846">
        <ele>131.84</ele>
        <time>2019-12-19T09:17:42Z</time>
      </trkpt>
      <trkpt lat="48.60473" lon="1.96845">
        <ele>131.84</ele>
        <time>2019-12-19T09:17:43Z</time>
      </trkpt>
      <trkpt lat="48.60473" lon="1.96843">
        <ele>131.84</ele>
        <time>2019-12-19T09:17:44Z</time>
      </trkpt>
      <trkpt lat="48.60472" lon="1.96842">
        <ele>131.84</ele>
        <time>2019-12-19T09:17:45Z</time>
      </trkpt>
      <trkpt lat="48.60471" lon="1.96841">
        <ele>132.32</ele>
        <time>2019-12-19T09:17:46Z</time>
      </trkpt>
      <trkpt lat="48.6047" lon="1.96839">
        <ele>132.32</ele>
        <time>2019-12-19T09:17:47Z</time>
      </trkpt>
      <trkpt lat="48.6047" lon="1.96837">
        <ele>132.32</ele>
        <time>2019-12-19T09:17:48Z</time>
      </trkpt>
      <trkpt lat="48.60469" lon="1.96835">
        <ele>132.32</ele>
        <time>2019-12-19T09:17:49Z</time>
      </trkpt>
      <trkpt lat="48.60468" lon="1.96834">
        <ele>132.32</ele>
        <time>2019-12-19T09:17:50Z</time>
      </trkpt>
      <trkpt lat="48.60467" lon="1.96832">
        <ele>132.32</ele>
        <time>2019-12-19T09:17:51Z</time>
      </trkpt>
      <trkpt lat="48.60466" lon="1.96831">
        <ele>132.32</ele>
        <time>2019-12-19T09:17:52Z</time>
      </trkpt>
      <trkpt lat="48.60465" lon="1.9683">
        <ele>132.32</ele>
        <time>2019-12-19T09:17:53Z</time>
      </trkpt>
      <trkpt lat="48.60465" lon="1.96829">
        <ele>132.8</ele>
        <time>2019-12-19T09:17:54Z</time>
      </trkpt>
      <trkpt lat="48.60465" lon="1.96828">
        <ele>132.8</ele>
        <time>2019-12-19T09:17:55Z</time>
      </trkpt>
      <trkpt lat="48.60464" lon="1.96827">
        <ele>132.8</ele>
        <time>2019-12-19T09:17:56Z</time>
      </trkpt>
      <trkpt lat="48.60463" lon="1.96825">
        <ele>132.8</ele>
        <time>2019-12-19T09:17:57Z</time>
      </trkpt>
      <trkpt lat="48.60462" lon="1.96824">
        <ele>132.8</ele>
        <time>2019-12-19T09:17:58Z</time>
      </trkpt>
      <trkpt lat="48.60461" lon="1.96824">
        <ele>132.8</ele>
        <time>2019-12-19T09:17:59Z</time>
      </trkpt>
      <trkpt lat="48.60459" lon="1.96823">
        <ele>132.8</ele>
        <time>2019-12-19T09:18:00Z</time>
      </trkpt>
      <trkpt lat="48.60458" lon="1.96822">
        <ele>133.28</ele>
        <time>2019-12-19T09:18:01Z</time>
      </trkpt>
      <trkpt lat="48.60457" lon="1.96821">
        <ele>132.8</ele>
        <time>2019-12-19T09:18:02Z</time>
      </trkpt>
      <trkpt lat="48.60456" lon="1.9682">
        <ele>132.8</ele>
        <time>2019-12-19T09:18:03Z</time>
      </trkpt>
      <trkpt lat="48.60455" lon="1.96818">
        <ele>132.8</ele>
        <time>2019-12-19T09:18:04Z</time>
      </trkpt>
      <trkpt lat="48.60453" lon="1.96817">
        <ele>132.8</ele>
        <time>2019-12-19T09:18:05Z</time>
      </trkpt>
      <trkpt lat="48.60452" lon="1.96816">
        <ele>132.8</ele>
        <time>2019-12-19T09:18:06Z</time>
      </trkpt>
      <trkpt lat="48.60451" lon="1.96815">
        <ele>132.8</ele>
        <time>2019-12-19T09:18:07Z</time>
      </trkpt>
      <trkpt lat="48.6045" lon="1.96813">
        <ele>132.8</ele>
        <time>2019-12-19T09:18:08Z</time>
      </trkpt>
      <trkpt lat="48.60448" lon="1.96811">
        <ele>132.8</ele>
        <time>2019-12-19T09:18:09Z</time>
      </trkpt>
      <trkpt lat="48.60446" lon="1.96808">
        <ele>133.28</ele>
        <time>2019-12-19T09:18:10Z</time>
      </trkpt>
      <trkpt lat="48.60445" lon="1.96805">
        <ele>133.28</ele>
        <time>2019-12-19T09:18:11Z</time>
      </trkpt>
      <trkpt lat="48.60443" lon="1.96803">
        <ele>133.28</ele>
        <time>2019-12-19T09:18:12Z</time>
      </trkpt>
      <trkpt lat="48.60441" lon="1.96801">
        <ele>133.28</ele>
        <time>2019-12-19T09:18:13Z</time>
      </trkpt>
      <trkpt lat="48.60439" lon="1.968">
        <ele>133.28</ele>
        <time>2019-12-19T09:18:14Z</time>
      </trkpt>
      <trkpt lat="48.60438" lon="1.96799">
        <ele>133.28</ele>
        <time>2019-12-19T09:18:15Z</time>
      </trkpt>
      <trkpt lat="48.60436" lon="1.96798">
        <ele>133.28</ele>
        <time>2019-12-19T09:18:16Z</time>
      </trkpt>
      <trkpt lat="48.60435" lon="1.96796">
        <ele>133.28</ele>
        <time>2019-12-19T09:18:17Z</time>
      </trkpt>
      <trkpt lat="48.60434" lon="1.96795">
        <ele>133.76</ele>
        <time>2019-12-19T09:18:18Z</time>
      </trkpt>
      <trkpt lat="48.60433" lon="1.96794">
        <ele>133.76</ele>
        <time>2019-12-19T09:18:19Z</time>
      </trkpt>
      <trkpt lat="48.60432" lon="1.96793">
        <ele>133.76</ele>
        <time>2019-12-19T09:18:20Z</time>
      </trkpt>
      <trkpt lat="48.6043" lon="1.96792">
        <ele>133.76</ele>
        <time>2019-12-19T09:18:21Z</time>
      </trkpt>
      <trkpt lat="48.6043" lon="1.9679">
        <ele>133.76</ele>
        <time>2019-12-19T09:18:22Z</time>
      </trkpt>
      <trkpt lat="48.60429" lon="1.96789">
        <ele>133.76</ele>
        <time>2019-12-19T09:18:23Z</time>
      </trkpt>
      <trkpt lat="48.60428" lon="1.96788">
        <ele>133.28</ele>
        <time>2019-12-19T09:18:24Z</time>
      </trkpt>
      <trkpt lat="48.60427" lon="1.96787">
        <ele>133.76</ele>
        <time>2019-12-19T09:18:25Z</time>
      </trkpt>
      <trkpt lat="48.60427" lon="1.96787">
        <ele>133.28</ele>
        <time>2019-12-19T09:18:26Z</time>
      </trkpt>
      <trkpt lat="48.60427" lon="1.96786">
        <ele>133.28</ele>
        <time>2019-12-19T09:18:30Z</time>
      </trkpt>
      <trkpt lat="48.60426" lon="1.96787">
        <ele>133.28</ele>
        <time>2019-12-19T09:18:31Z</time>
      </trkpt>
      <trkpt lat="48.60425" lon="1.96787">
        <ele>133.28</ele>
        <time>2019-12-19T09:18:35Z</time>
      </trkpt>
      <trkpt lat="48.60425" lon="1.96787">
        <ele>133.28</ele>
        <time>2019-12-19T09:18:36Z</time>
      </trkpt>
      <trkpt lat="48.60417" lon="1.9679">
        <ele>133.76</ele>
        <time>2019-12-19T09:18:41Z</time>
      </trkpt>
      <trkpt lat="48.60416" lon="1.9679">
        <ele>133.76</ele>
        <time>2019-12-19T09:18:42Z</time>
      </trkpt>
      <trkpt lat="48.60416" lon="1.9679">
        <ele>133.76</ele>
        <time>2019-12-19T09:18:43Z</time>
      </trkpt>
      <trkpt lat="48.60411" lon="1.96791">
        <ele>133.76</ele>
        <time>2019-12-19T09:19:13Z</time>
      </trkpt>
      <trkpt lat="48.60412" lon="1.96791">
        <ele>133.76</ele>
        <time>2019-12-19T09:19:14Z</time>
      </trkpt>
      <trkpt lat="48.60411" lon="1.96791">
        <ele>133.76</ele>
        <time>2019-12-19T09:19:15Z</time>
      </trkpt>
      <trkpt lat="48.6041" lon="1.96792">
        <ele>133.76</ele>
        <time>2019-12-19T09:19:32Z</time>
      </trkpt>
      <trkpt lat="48.6041" lon="1.96792">
        <ele>133.76</ele>
        <time>2019-12-19T09:19:33Z</time>
      </trkpt>
      <trkpt lat="48.6041" lon="1.96792">
        <ele>133.76</ele>
        <time>2019-12-19T09:19:35Z</time>
      </trkpt>
      <trkpt lat="48.6041" lon="1.96792">
        <ele>133.76</ele>
        <time>2019-12-19T09:19:36Z</time>
      </trkpt>
      <trkpt lat="48.6041" lon="1.96792">
        <ele>133.76</ele>
        <time>2019-12-19T09:19:37Z</time>
      </trkpt>
      <trkpt lat="48.6041" lon="1.96792">
        <ele>133.76</ele>
        <time>2019-12-19T09:19:38Z</time>
      </trkpt>
      <trkpt lat="48.6041" lon="1.96792">
        <ele>133.76</ele>
        <time>2019-12-19T09:19:39Z</time>
      </trkpt>
      <trkpt lat="48.6041" lon="1.96793">
        <ele>133.76</ele>
        <time>2019-12-19T09:19:44Z</time>
      </trkpt>
      <trkpt lat="48.6041" lon="1.96793">
        <ele>133.76</ele>
        <time>2019-12-19T09:19:45Z</time>
      </trkpt>
      <trkpt lat="48.6041" lon="1.96793">
        <ele>133.76</ele>
        <time>2019-12-19T09:19:48Z</time>
      </trkpt>
      <trkpt lat="48.6041" lon="1.96793">
        <ele>133.76</ele>
        <time>2019-12-19T09:19:49Z</time>
      </trkpt>
      <trkpt lat="48.6041" lon="1.96793">
        <ele>133.76</ele>
        <time>2019-12-19T09:19:53Z</time>
      </trkpt>
      <trkpt lat="48.6041" lon="1.96793">
        <ele>133.76</ele>
        <time>2019-12-19T09:19:54Z</time>
      </trkpt>
      <trkpt lat="48.60409" lon="1.96794">
        <ele>133.76</ele>
        <time>2019-12-19T09:19:55Z</time>
      </trkpt>
      <trkpt lat="48.60409" lon="1.96794">
        <ele>133.76</ele>
        <time>2019-12-19T09:19:56Z</time>
      </trkpt>
      <trkpt lat="48.60409" lon="1.96794">
        <ele>133.76</ele>
        <time>2019-12-19T09:20:04Z</time>
      </trkpt>
      <trkpt lat="48.60409" lon="1.96794">
        <ele>133.76</ele>
        <time>2019-12-19T09:20:05Z</time>
      </trkpt>
      <trkpt lat="48.60409" lon="1.96794">
        <ele>133.76</ele>
        <time>2019-12-19T09:20:14Z</time>
      </trkpt>
      <trkpt lat="48.60409" lon="1.96794">
        <ele>133.76</ele>
        <time>2019-12-19T09:20:15Z</time>
      </trkpt>
      <trkpt lat="48.60409" lon="1.96794">
        <ele>133.76</ele>
        <time>2019-12-19T09:20:16Z</time>
      </trkpt>
      <trkpt lat="48.60409" lon="1.96794">
        <ele>134.24</ele>
        <time>2019-12-19T09:20:28Z</time>
      </trkpt>
      <trkpt lat="48.60409" lon="1.96794">
        <ele>134.24</ele>
        <time>2019-12-19T09:20:29Z</time>
      </trkpt>
      <trkpt lat="48.60409" lon="1.96794">
        <ele>133.76</ele>
        <time>2019-12-19T09:20:30Z</time>
      </trkpt>
      <trkpt lat="48.60409" lon="1.96795">
        <ele>133.76</ele>
        <time>2019-12-19T09:20:31Z</time>
      </trkpt>
      <trkpt lat="48.60408" lon="1.96796">
        <ele>133.76</ele>
        <time>2019-12-19T09:20:45Z</time>
      </trkpt>
      <trkpt lat="48.60408" lon="1.96796">
        <ele>133.76</ele>
        <time>2019-12-19T09:20:46Z</time>
      </trkpt>
      <trkpt lat="48.60408" lon="1.96796">
        <ele>133.28</ele>
        <time>2019-12-19T09:20:47Z</time>
      </trkpt>
      <trkpt lat="48.60408" lon="1.96796">
        <ele>133.76</ele>
        <time>2019-12-19T09:20:48Z</time>
      </trkpt>
      <trkpt lat="48.60408" lon="1.96796">
        <ele>134.24</ele>
        <time>2019-12-19T09:20:49Z</time>
      </trkpt>
      <trkpt lat="48.60408" lon="1.96796">
        <ele>133.76</ele>
        <time>2019-12-19T09:20:50Z</time>
      </trkpt>
      <trkpt lat="48.60408" lon="1.96796">
        <ele>133.76</ele>
        <time>2019-12-19T09:20:54Z</time>
      </trkpt>
      <trkpt lat="48.60408" lon="1.96795">
        <ele>133.76</ele>
        <time>2019-12-19T09:20:55Z</time>
      </trkpt>
      <trkpt lat="48.60408" lon="1.96795">
        <ele>133.76</ele>
        <time>2019-12-19T09:20:56Z</time>
      </trkpt>
      <trkpt lat="48.60408" lon="1.96795">
        <ele>133.76</ele>
        <time>2019-12-19T09:20:57Z</time>
      </trkpt>
      <trkpt lat="48.60408" lon="1.96795">
        <ele>133.76</ele>
        <time>2019-12-19T09:20:58Z</time>
      </trkpt>
      <trkpt lat="48.60408" lon="1.96795">
        <ele>133.76</ele>
        <time>2019-12-19T09:20:59Z</time>
      </trkpt>
      <trkpt lat="48.60408" lon="1.96795">
        <ele>134.24</ele>
        <time>2019-12-19T09:21:14Z</time>
      </trkpt>
      <trkpt lat="48.60407" lon="1.96795">
        <ele>134.24</ele>
        <time>2019-12-19T09:21:15Z</time>
      </trkpt>
      <trkpt lat="48.60407" lon="1.96795">
        <ele>134.24</ele>
        <time>2019-12-19T09:21:16Z</time>
      </trkpt>
      <trkpt lat="48.60407" lon="1.96795">
        <ele>134.24</ele>
        <time>2019-12-19T09:21:20Z</time>
      </trkpt>
      <trkpt lat="48.60407" lon="1.96795">
        <ele>134.24</ele>
        <time>2019-12-19T09:21:21Z</time>
      </trkpt>
      <trkpt lat="48.60407" lon="1.96795">
        <ele>133.76</ele>
        <time>2019-12-19T09:21:22Z</time>
      </trkpt>
      <trkpt lat="48.60407" lon="1.96795">
        <ele>133.76</ele>
        <time>2019-12-19T09:21:23Z</time>
      </trkpt>
      <trkpt lat="48.60406" lon="1.96795">
        <ele>134.72</ele>
        <time>2019-12-19T09:21:34Z</time>
      </trkpt>
      <trkpt lat="48.60406" lon="1.96795">
        <ele>134.24</ele>
        <time>2019-12-19T09:21:35Z</time>
      </trkpt>
      <trkpt lat="48.60406" lon="1.96795">
        <ele>133.76</ele>
        <time>2019-12-19T09:21:36Z</time>
      </trkpt>
      <trkpt lat="48.60406" lon="1.96795">
        <ele>134.24</ele>
        <time>2019-12-19T09:21:37Z</time>
      </trkpt>
      <trkpt lat="48.60406" lon="1.96795">
        <ele>133.76</ele>
        <time>2019-12-19T09:21:38Z</time>
      </trkpt>
      <trkpt lat="48.60406" lon="1.96795">
        <ele>134.24</ele>
        <time>2019-12-19T09:21:39Z</time>
      </trkpt>
      <trkpt lat="48.60406" lon="1.96795">
        <ele>133.76</ele>
        <time>2019-12-19T09:21:40Z</time>
      </trkpt>
      <trkpt lat="48.60406" lon="1.96795">
        <ele>134.24</ele>
        <time>2019-12-19T09:21:41Z</time>
      </trkpt>
      <trkpt lat="48.60405" lon="1.96795">
        <ele>133.76</ele>
        <time>2019-12-19T09:21:46Z</time>
      </trkpt>
      <trkpt lat="48.60405" lon="1.96795">
        <ele>133.76</ele>
        <time>2019-12-19T09:21:47Z</time>
      </trkpt>
      <trkpt lat="48.60405" lon="1.96795">
        <ele>133.76</ele>
        <time>2019-12-19T09:21:48Z</time>
      </trkpt>
      <trkpt lat="48.60405" lon="1.96795">
        <ele>133.76</ele>
        <time>2019-12-19T09:21:50Z</time>
      </trkpt>
      <trkpt lat="48.60405" lon="1.96795">
        <ele>133.76</ele>
        <time>2019-12-19T09:21:51Z</time>
      </trkpt>
      <trkpt lat="48.60404" lon="1.96795">
        <ele>134.24</ele>
        <time>2019-12-19T09:21:56Z</time>
      </trkpt>
      <trkpt lat="48.60404" lon="1.96795">
        <ele>133.76</ele>
        <time>2019-12-19T09:21:57Z</time>
      </trkpt>
      <trkpt lat="48.60404" lon="1.96795">
        <ele>133.76</ele>
        <time>2019-12-19T09:21:58Z</time>
      </trkpt>
      <trkpt lat="48.60404" lon="1.96795">
        <ele>133.76</ele>
        <time>2019-12-19T09:22:04Z</time>
      </trkpt>
      <trkpt lat="48.60404" lon="1.96795">
        <ele>133.76</ele>
        <time>2019-12-19T09:22:05Z</time>
      </trkpt>
      <trkpt lat="48.60404" lon="1.96795">
        <ele>133.76</ele>
        <time>2019-12-19T09:22:06Z</time>
      </trkpt>
      <trkpt lat="48.60404" lon="1.96795">
        <ele>133.76</ele>
        <time>2019-12-19T09:22:07Z</time>
      </trkpt>
      <trkpt lat="48.60404" lon="1.96794">
        <ele>133.76</ele>
        <time>2019-12-19T09:22:08Z</time>
      </trkpt>
      <trkpt lat="48.60404" lon="1.96794">
        <ele>133.76</ele>
        <time>2019-12-19T09:22:09Z</time>
      </trkpt>
      <trkpt lat="48.60404" lon="1.96794">
        <ele>133.76</ele>
        <time>2019-12-19T09:22:10Z</time>
      </trkpt>
      <trkpt lat="48.60404" lon="1.96794">
        <ele>133.76</ele>
        <time>2019-12-19T09:22:11Z</time>
      </trkpt>
      <trkpt lat="48.60404" lon="1.96793">
        <ele>133.76</ele>
        <time>2019-12-19T09:22:12Z</time>
      </trkpt>
      <trkpt lat="48.60404" lon="1.96792">
        <ele>134.24</ele>
        <time>2019-12-19T09:22:13Z</time>
      </trkpt>
      <trkpt lat="48.60404" lon="1.9679">
        <ele>133.76</ele>
        <time>2019-12-19T09:22:14Z</time>
      </trkpt>
      <trkpt lat="48.60404" lon="1.96789">
        <ele>133.76</ele>
        <time>2019-12-19T09:22:15Z</time>
      </trkpt>
      <trkpt lat="48.60404" lon="1.96788">
        <ele>133.76</ele>
        <time>2019-12-19T09:22:16Z</time>
      </trkpt>
      <trkpt lat="48.60405" lon="1.96788">
        <ele>133.76</ele>
        <time>2019-12-19T09:22:17Z</time>
      </trkpt>
      <trkpt lat="48.60405" lon="1.96786">
        <ele>133.76</ele>
        <time>2019-12-19T09:22:23Z</time>
      </trkpt>
      <trkpt lat="48.60405" lon="1.96786">
        <ele>133.76</ele>
        <time>2019-12-19T09:22:24Z</time>
      </trkpt>
      <trkpt lat="48.60405" lon="1.96786">
        <ele>133.76</ele>
        <time>2019-12-19T09:22:25Z</time>
      </trkpt>
      <trkpt lat="48.60405" lon="1.96786">
        <ele>133.76</ele>
        <time>2019-12-19T09:22:26Z</time>
      </trkpt>
      <trkpt lat="48.60405" lon="1.96785">
        <ele>133.76</ele>
        <time>2019-12-19T09:22:27Z</time>
      </trkpt>
      <trkpt lat="48.60405" lon="1.96785">
        <ele>133.76</ele>
        <time>2019-12-19T09:22:28Z</time>
      </trkpt>
      <trkpt lat="48.60405" lon="1.96785">
        <ele>133.76</ele>
        <time>2019-12-19T09:22:29Z</time>
      </trkpt>
      <trkpt lat="48.60405" lon="1.96785">
        <ele>133.76</ele>
        <time>2019-12-19T09:22:30Z</time>
      </trkpt>
      <trkpt lat="48.60405" lon="1.96785">
        <ele>133.76</ele>
        <time>2019-12-19T09:22:31Z</time>
      </trkpt>
      <trkpt lat="48.60405" lon="1.96784">
        <ele>133.76</ele>
        <time>2019-12-19T09:22:32Z</time>
      </trkpt>
      <trkpt lat="48.60406" lon="1.96783">
        <ele>133.76</ele>
        <time>2019-12-19T09:22:33Z</time>
      </trkpt>
      <trkpt lat="48.60406" lon="1.96782">
        <ele>133.76</ele>
        <time>2019-12-19T09:22:34Z</time>
      </trkpt>
      <trkpt lat="48.60407" lon="1.9678">
        <ele>133.76</ele>
        <time>2019-12-19T09:22:35Z</time>
      </trkpt>
      <trkpt lat="48.60407" lon="1.96779">
        <ele>133.76</ele>
        <time>2019-12-19T09:22:36Z</time>
      </trkpt>
      <trkpt lat="48.60408" lon="1.96778">
        <ele>133.76</ele>
        <time>2019-12-19T09:22:37Z</time>
      </trkpt>
      <trkpt lat="48.60408" lon="1.96777">
        <ele>133.76</ele>
        <time>2019-12-19T09:22:38Z</time>
      </trkpt>
      <trkpt lat="48.60409" lon="1.96775">
        <ele>133.76</ele>
        <time>2019-12-19T09:22:39Z</time>
      </trkpt>
      <trkpt lat="48.60409" lon="1.96774">
        <ele>133.28</ele>
        <time>2019-12-19T09:22:40Z</time>
      </trkpt>
      <trkpt lat="48.6041" lon="1.96772">
        <ele>133.28</ele>
        <time>2019-12-19T09:22:41Z</time>
      </trkpt>
      <trkpt lat="48.60411" lon="1.96771">
        <ele>133.76</ele>
        <time>2019-12-19T09:22:42Z</time>
      </trkpt>
      <trkpt lat="48.60411" lon="1.96769">
        <ele>133.76</ele>
        <time>2019-12-19T09:22:43Z</time>
      </trkpt>
      <trkpt lat="48.60412" lon="1.96767">
        <ele>133.76</ele>
        <time>2019-12-19T09:22:44Z</time>
      </trkpt>
      <trkpt lat="48.60413" lon="1.96766">
        <ele>133.28</ele>
        <time>2019-12-19T09:22:45Z</time>
      </trkpt>
      <trkpt lat="48.60414" lon="1.96764">
        <ele>133.28</ele>
        <time>2019-12-19T09:22:46Z</time>
      </trkpt>
      <trkpt lat="48.60415" lon="1.96762">
        <ele>133.28</ele>
        <time>2019-12-19T09:22:47Z</time>
      </trkpt>
      <trkpt lat="48.60417" lon="1.9676">
        <ele>133.28</ele>
        <time>2019-12-19T09:22:48Z</time>
      </trkpt>
      <trkpt lat="48.60418" lon="1.96759">
        <ele>133.28</ele>
        <time>2019-12-19T09:22:49Z</time>
      </trkpt>
      <trkpt lat="48.60419" lon="1.96757">
        <ele>133.28</ele>
        <time>2019-12-19T09:22:50Z</time>
      </trkpt>
      <trkpt lat="48.6042" lon="1.96755">
        <ele>133.28</ele>
        <time>2019-12-19T09:22:51Z</time>
      </trkpt>
      <trkpt lat="48.60421" lon="1.96752">
        <ele>133.28</ele>
        <time>2019-12-19T09:22:52Z</time>
      </trkpt>
      <trkpt lat="48.60422" lon="1.9675">
        <ele>133.28</ele>
        <time>2019-12-19T09:22:53Z</time>
      </trkpt>
      <trkpt lat="48.60423" lon="1.96748">
        <ele>133.28</ele>
        <time>2019-12-19T09:22:54Z</time>
      </trkpt>
      <trkpt lat="48.60423" lon="1.96746">
        <ele>132.8</ele>
        <time>2019-12-19T09:22:55Z</time>
      </trkpt>
      <trkpt lat="48.60424" lon="1.96744">
        <ele>132.8</ele>
        <time>2019-12-19T09:22:56Z</time>
      </trkpt>
      <trkpt lat="48.60425" lon="1.96741">
        <ele>132.8</ele>
        <time>2019-12-19T09:22:57Z</time>
      </trkpt>
      <trkpt lat="48.60426" lon="1.96739">
        <ele>132.8</ele>
        <time>2019-12-19T09:22:58Z</time>
      </trkpt>
      <trkpt lat="48.60427" lon="1.96738">
        <ele>132.8</ele>
        <time>2019-12-19T09:22:59Z</time>
      </trkpt>
      <trkpt lat="48.60428" lon="1.96736">
        <ele>132.8</ele>
        <time>2019-12-19T09:23:00Z</time>
      </trkpt>
      <trkpt lat="48.60429" lon="1.96734">
        <ele>132.8</ele>
        <time>2019-12-19T09:23:01Z</time>
      </trkpt>
      <trkpt lat="48.6043" lon="1.96731">
        <ele>132.8</ele>
        <time>2019-12-19T09:23:02Z</time>
      </trkpt>
      <trkpt lat="48.60431" lon="1.96728">
        <ele>132.8</ele>
        <time>2019-12-19T09:23:03Z</time>
      </trkpt>
      <trkpt lat="48.60432" lon="1.96725">
        <ele>132.8</ele>
        <time>2019-12-19T09:23:04Z</time>
      </trkpt>
      <trkpt lat="48.60433" lon="1.96723">
        <ele>132.8</ele>
        <time>2019-12-19T09:23:05Z</time>
      </trkpt>
      <trkpt lat="48.60435" lon="1.9672">
        <ele>132.32</ele>
        <time>2019-12-19T09:23:06Z</time>
      </trkpt>
      <trkpt lat="48.60436" lon="1.96718">
        <ele>132.32</ele>
        <time>2019-12-19T09:23:07Z</time>
      </trkpt>
      <trkpt lat="48.60437" lon="1.96716">
        <ele>132.32</ele>
        <time>2019-12-19T09:23:08Z</time>
      </trkpt>
      <trkpt lat="48.60439" lon="1.96714">
        <ele>132.32</ele>
        <time>2019-12-19T09:23:09Z</time>
      </trkpt>
      <trkpt lat="48.6044" lon="1.96713">
        <ele>132.32</ele>
        <time>2019-12-19T09:23:10Z</time>
      </trkpt>
      <trkpt lat="48.6044" lon="1.96713">
        <ele>132.32</ele>
        <time>2019-12-19T09:23:11Z</time>
      </trkpt>
      <trkpt lat="48.60441" lon="1.96711">
        <ele>131.84</ele>
        <time>2019-12-19T09:23:12Z</time>
      </trkpt>
      <trkpt lat="48.60441" lon="1.9671">
        <ele>131.84</ele>
        <time>2019-12-19T09:23:13Z</time>
      </trkpt>
      <trkpt lat="48.60442" lon="1.96708">
        <ele>131.84</ele>
        <time>2019-12-19T09:23:14Z</time>
      </trkpt>
      <trkpt lat="48.60442" lon="1.96706">
        <ele>131.84</ele>
        <time>2019-12-19T09:23:15Z</time>
      </trkpt>
      <trkpt lat="48.60443" lon="1.96704">
        <ele>131.84</ele>
        <time>2019-12-19T09:23:16Z</time>
      </trkpt>
      <trkpt lat="48.60444" lon="1.96701">
        <ele>131.84</ele>
        <time>2019-12-19T09:23:17Z</time>
      </trkpt>
      <trkpt lat="48.60445" lon="1.96698">
        <ele>131.84</ele>
        <time>2019-12-19T09:23:18Z</time>
      </trkpt>
      <trkpt lat="48.60446" lon="1.96695">
        <ele>131.36</ele>
        <time>2019-12-19T09:23:19Z</time>
      </trkpt>
      <trkpt lat="48.60447" lon="1.96693">
        <ele>131.36</ele>
        <time>2019-12-19T09:23:20Z</time>
      </trkpt>
      <trkpt lat="48.60448" lon="1.96691">
        <ele>131.36</ele>
        <time>2019-12-19T09:23:21Z</time>
      </trkpt>
      <trkpt lat="48.60449" lon="1.96688">
        <ele>131.36</ele>
        <time>2019-12-19T09:23:22Z</time>
      </trkpt>
      <trkpt lat="48.6045" lon="1.96685">
        <ele>131.84</ele>
        <time>2019-12-19T09:23:23Z</time>
      </trkpt>
      <trkpt lat="48.6045" lon="1.96684">
        <ele>131.36</ele>
        <time>2019-12-19T09:23:24Z</time>
      </trkpt>
      <trkpt lat="48.60451" lon="1.96682">
        <ele>131.36</ele>
        <time>2019-12-19T09:23:25Z</time>
      </trkpt>
      <trkpt lat="48.60451" lon="1.96679">
        <ele>131.36</ele>
        <time>2019-12-19T09:23:26Z</time>
      </trkpt>
      <trkpt lat="48.60452" lon="1.96677">
        <ele>131.36</ele>
        <time>2019-12-19T09:23:27Z</time>
      </trkpt>
      <trkpt lat="48.60453" lon="1.96675">
        <ele>130.88</ele>
        <time>2019-12-19T09:23:28Z</time>
      </trkpt>
      <trkpt lat="48.60453" lon="1.96674">
        <ele>130.88</ele>
        <time>2019-12-19T09:23:29Z</time>
      </trkpt>
      <trkpt lat="48.60454" lon="1.96672">
        <ele>130.88</ele>
        <time>2019-12-19T09:23:30Z</time>
      </trkpt>
      <trkpt lat="48.60454" lon="1.9667">
        <ele>130.88</ele>
        <time>2019-12-19T09:23:31Z</time>
      </trkpt>
      <trkpt lat="48.60455" lon="1.96668">
        <ele>130.88</ele>
        <time>2019-12-19T09:23:32Z</time>
      </trkpt>
      <trkpt lat="48.60455" lon="1.96667">
        <ele>130.88</ele>
        <time>2019-12-19T09:23:33Z</time>
      </trkpt>
      <trkpt lat="48.60456" lon="1.96666">
        <ele>131.84</ele>
        <time>2019-12-19T09:23:34Z</time>
      </trkpt>
      <trkpt lat="48.60456" lon="1.96664">
        <ele>130.88</ele>
        <time>2019-12-19T09:23:35Z</time>
      </trkpt>
      <trkpt lat="48.60457" lon="1.96663">
        <ele>130.4</ele>
        <time>2019-12-19T09:23:36Z</time>
      </trkpt>
      <trkpt lat="48.60457" lon="1.96662">
        <ele>130.4</ele>
        <time>2019-12-19T09:23:37Z</time>
      </trkpt>
      <trkpt lat="48.60457" lon="1.96661">
        <ele>130.4</ele>
        <time>2019-12-19T09:23:38Z</time>
      </trkpt>
      <trkpt lat="48.60457" lon="1.96659">
        <ele>130.4</ele>
        <time>2019-12-19T09:23:39Z</time>
      </trkpt>
      <trkpt lat="48.60458" lon="1.96658">
        <ele>130.4</ele>
        <time>2019-12-19T09:23:40Z</time>
      </trkpt>
      <trkpt lat="48.60458" lon="1.96656">
        <ele>130.4</ele>
        <time>2019-12-19T09:23:41Z</time>
      </trkpt>
      <trkpt lat="48.60458" lon="1.96654">
        <ele>130.4</ele>
        <time>2019-12-19T09:23:42Z</time>
      </trkpt>
      <trkpt lat="48.60459" lon="1.96653">
        <ele>130.4</ele>
        <time>2019-12-19T09:23:43Z</time>
      </trkpt>
      <trkpt lat="48.60458" lon="1.96651">
        <ele>130.4</ele>
        <time>2019-12-19T09:23:44Z</time>
      </trkpt>
      <trkpt lat="48.60458" lon="1.96649">
        <ele>130.4</ele>
        <time>2019-12-19T09:23:45Z</time>
      </trkpt>
      <trkpt lat="48.60458" lon="1.96648">
        <ele>130.4</ele>
        <time>2019-12-19T09:23:46Z</time>
      </trkpt>
      <trkpt lat="48.60459" lon="1.96647">
        <ele>130.4</ele>
        <time>2019-12-19T09:23:47Z</time>
      </trkpt>
      <trkpt lat="48.6046" lon="1.96645">
        <ele>130.4</ele>
        <time>2019-12-19T09:23:48Z</time>
      </trkpt>
      <trkpt lat="48.6046" lon="1.96643">
        <ele>130.4</ele>
        <time>2019-12-19T09:23:49Z</time>
      </trkpt>
      <trkpt lat="48.60461" lon="1.96642">
        <ele>130.4</ele>
        <time>2019-12-19T09:23:50Z</time>
      </trkpt>
      <trkpt lat="48.60462" lon="1.96641">
        <ele>130.4</ele>
        <time>2019-12-19T09:23:51Z</time>
      </trkpt>
      <trkpt lat="48.60462" lon="1.9664">
        <ele>130.4</ele>
        <time>2019-12-19T09:23:52Z</time>
      </trkpt>
      <trkpt lat="48.60463" lon="1.96639">
        <ele>130.4</ele>
        <time>2019-12-19T09:23:53Z</time>
      </trkpt>
      <trkpt lat="48.60463" lon="1.96638">
        <ele>130.4</ele>
        <time>2019-12-19T09:23:54Z</time>
      </trkpt>
      <trkpt lat="48.60464" lon="1.96637">
        <ele>130.4</ele>
        <time>2019-12-19T09:23:55Z</time>
      </trkpt>
      <trkpt lat="48.60465" lon="1.96636">
        <ele>130.4</ele>
        <time>2019-12-19T09:23:56Z</time>
      </trkpt>
      <trkpt lat="48.60466" lon="1.96635">
        <ele>130.4</ele>
        <time>2019-12-19T09:23:57Z</time>
      </trkpt>
      <trkpt lat="48.60466" lon="1.96634">
        <ele>129.92</ele>
        <time>2019-12-19T09:23:58Z</time>
      </trkpt>
      <trkpt lat="48.60467" lon="1.96632">
        <ele>129.92</ele>
        <time>2019-12-19T09:23:59Z</time>
      </trkpt>
      <trkpt lat="48.60468" lon="1.96631">
        <ele>129.92</ele>
        <time>2019-12-19T09:24:00Z</time>
      </trkpt>
      <trkpt lat="48.60469" lon="1.96629">
        <ele>130.4</ele>
        <time>2019-12-19T09:24:01Z</time>
      </trkpt>
      <trkpt lat="48.6047" lon="1.96628">
        <ele>130.4</ele>
        <time>2019-12-19T09:24:02Z</time>
      </trkpt>
      <trkpt lat="48.60471" lon="1.96626">
        <ele>130.4</ele>
        <time>2019-12-19T09:24:03Z</time>
      </trkpt>
      <trkpt lat="48.60472" lon="1.96625">
        <ele>129.92</ele>
        <time>2019-12-19T09:24:04Z</time>
      </trkpt>
      <trkpt lat="48.60472" lon="1.96623">
        <ele>130.4</ele>
        <time>2019-12-19T09:24:05Z</time>
      </trkpt>
      <trkpt lat="48.60473" lon="1.96621">
        <ele>130.4</ele>
        <time>2019-12-19T09:24:06Z</time>
      </trkpt>
      <trkpt lat="48.60474" lon="1.96619">
        <ele>130.4</ele>
        <time>2019-12-19T09:24:07Z</time>
      </trkpt>
      <trkpt lat="48.60475" lon="1.96617">
        <ele>130.4</ele>
        <time>2019-12-19T09:24:08Z</time>
      </trkpt>
      <trkpt lat="48.60477" lon="1.96615">
        <ele>129.92</ele>
        <time>2019-12-19T09:24:09Z</time>
      </trkpt>
      <trkpt lat="48.60478" lon="1.96612">
        <ele>129.92</ele>
        <time>2019-12-19T09:24:10Z</time>
      </trkpt>
      <trkpt lat="48.6048" lon="1.9661">
        <ele>129.92</ele>
        <time>2019-12-19T09:24:11Z</time>
      </trkpt>
      <trkpt lat="48.60482" lon="1.96608">
        <ele>129.92</ele>
        <time>2019-12-19T09:24:12Z</time>
      </trkpt>
      <trkpt lat="48.60483" lon="1.96607">
        <ele>129.92</ele>
        <time>2019-12-19T09:24:13Z</time>
      </trkpt>
      <trkpt lat="48.60484" lon="1.96605">
        <ele>129.92</ele>
        <time>2019-12-19T09:24:14Z</time>
      </trkpt>
      <trkpt lat="48.60484" lon="1.96603">
        <ele>129.92</ele>
        <time>2019-12-19T09:24:15Z</time>
      </trkpt>
      <trkpt lat="48.60485" lon="1.966">
        <ele>129.92</ele>
        <time>2019-12-19T09:24:16Z</time>
      </trkpt>
      <trkpt lat="48.60485" lon="1.96598">
        <ele>129.92</ele>
        <time>2019-12-19T09:24:17Z</time>
      </trkpt>
      <trkpt lat="48.60486" lon="1.96596">
        <ele>129.92</ele>
        <time>2019-12-19T09:24:18Z</time>
      </trkpt>
      <trkpt lat="48.60486" lon="1.96594">
        <ele>129.92</ele>
        <time>2019-12-19T09:24:19Z</time>
      </trkpt>
      <trkpt lat="48.60487" lon="1.96593">
        <ele>129.92</ele>
        <time>2019-12-19T09:24:20Z</time>
      </trkpt>
      <trkpt lat="48.60488" lon="1.96591">
        <ele>129.43</ele>
        <time>2019-12-19T09:24:21Z</time>
      </trkpt>
      <trkpt lat="48.60489" lon="1.96591">
        <ele>129.43</ele>
        <time>2019-12-19T09:24:22Z</time>
      </trkpt>
      <trkpt lat="48.6049" lon="1.9659">
        <ele>129.43</ele>
        <time>2019-12-19T09:24:23Z</time>
      </trkpt>
      <trkpt lat="48.60492" lon="1.96589">
        <ele>128.95</ele>
        <time>2019-12-19T09:24:24Z</time>
      </trkpt>
      <trkpt lat="48.60493" lon="1.96587">
        <ele>128.95</ele>
        <time>2019-12-19T09:24:25Z</time>
      </trkpt>
      <trkpt lat="48.60495" lon="1.96584">
        <ele>128.95</ele>
        <time>2019-12-19T09:24:26Z</time>
      </trkpt>
      <trkpt lat="48.60497" lon="1.96583">
        <ele>128.47</ele>
        <time>2019-12-19T09:24:27Z</time>
      </trkpt>
      <trkpt lat="48.60499" lon="1.96582">
        <ele>128.47</ele>
        <time>2019-12-19T09:24:28Z</time>
      </trkpt>
      <trkpt lat="48.60501" lon="1.96583">
        <ele>128.47</ele>
        <time>2019-12-19T09:24:29Z</time>
      </trkpt>
      <trkpt lat="48.60502" lon="1.96584">
        <ele>128.47</ele>
        <time>2019-12-19T09:24:30Z</time>
      </trkpt>
      <trkpt lat="48.60503" lon="1.96585">
        <ele>127.99</ele>
        <time>2019-12-19T09:24:31Z</time>
      </trkpt>
      <trkpt lat="48.60505" lon="1.96586">
        <ele>127.99</ele>
        <time>2019-12-19T09:24:32Z</time>
      </trkpt>
      <trkpt lat="48.60506" lon="1.96588">
        <ele>127.99</ele>
        <time>2019-12-19T09:24:33Z</time>
      </trkpt>
      <trkpt lat="48.60508" lon="1.96588">
        <ele>127.99</ele>
        <time>2019-12-19T09:24:34Z</time>
      </trkpt>
      <trkpt lat="48.6051" lon="1.96589">
        <ele>127.51</ele>
        <time>2019-12-19T09:24:35Z</time>
      </trkpt>
      <trkpt lat="48.60512" lon="1.9659">
        <ele>127.51</ele>
        <time>2019-12-19T09:24:36Z</time>
      </trkpt>
      <trkpt lat="48.60514" lon="1.96591">
        <ele>127.51</ele>
        <time>2019-12-19T09:24:37Z</time>
      </trkpt>
      <trkpt lat="48.60515" lon="1.96592">
        <ele>127.03</ele>
        <time>2019-12-19T09:24:38Z</time>
      </trkpt>
      <trkpt lat="48.60516" lon="1.96593">
        <ele>127.03</ele>
        <time>2019-12-19T09:24:39Z</time>
      </trkpt>
      <trkpt lat="48.60516" lon="1.96593">
        <ele>127.03</ele>
        <time>2019-12-19T09:24:40Z</time>
      </trkpt>
      <trkpt lat="48.60517" lon="1.96594">
        <ele>126.55</ele>
        <time>2019-12-19T09:24:41Z</time>
      </trkpt>
      <trkpt lat="48.60517" lon="1.96594">
        <ele>126.07</ele>
        <time>2019-12-19T09:24:42Z</time>
      </trkpt>
      <trkpt lat="48.60518" lon="1.96594">
        <ele>126.55</ele>
        <time>2019-12-19T09:24:43Z</time>
      </trkpt>
      <trkpt lat="48.60518" lon="1.96595">
        <ele>126.07</ele>
        <time>2019-12-19T09:24:44Z</time>
      </trkpt>
      <trkpt lat="48.60519" lon="1.96596">
        <ele>126.07</ele>
        <time>2019-12-19T09:24:45Z</time>
      </trkpt>
      <trkpt lat="48.60519" lon="1.96596">
        <ele>125.59</ele>
        <time>2019-12-19T09:24:46Z</time>
      </trkpt>
      <trkpt lat="48.6052" lon="1.96597">
        <ele>125.59</ele>
        <time>2019-12-19T09:24:47Z</time>
      </trkpt>
      <trkpt lat="48.60522" lon="1.96597">
        <ele>125.11</ele>
        <time>2019-12-19T09:24:48Z</time>
      </trkpt>
      <trkpt lat="48.60523" lon="1.96598">
        <ele>125.11</ele>
        <time>2019-12-19T09:24:49Z</time>
      </trkpt>
      <trkpt lat="48.60525" lon="1.96599">
        <ele>124.63</ele>
        <time>2019-12-19T09:24:50Z</time>
      </trkpt>
      <trkpt lat="48.60527" lon="1.96601">
        <ele>124.63</ele>
        <time>2019-12-19T09:24:51Z</time>
      </trkpt>
      <trkpt lat="48.60529" lon="1.96601">
        <ele>124.15</ele>
        <time>2019-12-19T09:24:52Z</time>
      </trkpt>
      <trkpt lat="48.6053" lon="1.96602">
        <ele>124.15</ele>
        <time>2019-12-19T09:24:53Z</time>
      </trkpt>
      <trkpt lat="48.60532" lon="1.96602">
        <ele>123.67</ele>
        <time>2019-12-19T09:24:54Z</time>
      </trkpt>
      <trkpt lat="48.60532" lon="1.96603">
        <ele>123.67</ele>
        <time>2019-12-19T09:24:55Z</time>
      </trkpt>
      <trkpt lat="48.60532" lon="1.96603">
        <ele>123.67</ele>
        <time>2019-12-19T09:24:56Z</time>
      </trkpt>
      <trkpt lat="48.60532" lon="1.96603">
        <ele>123.19</ele>
        <time>2019-12-19T09:24:57Z</time>
      </trkpt>
      <trkpt lat="48.60532" lon="1.96603">
        <ele>123.19</ele>
        <time>2019-12-19T09:24:58Z</time>
      </trkpt>
      <trkpt lat="48.60532" lon="1.96603">
        <ele>123.19</ele>
        <time>2019-12-19T09:24:59Z</time>
      </trkpt>
      <trkpt lat="48.60533" lon="1.96604">
        <ele>123.19</ele>
        <time>2019-12-19T09:25:00Z</time>
      </trkpt>
      <trkpt lat="48.60533" lon="1.96605">
        <ele>122.71</ele>
        <time>2019-12-19T09:25:02Z</time>
      </trkpt>
      <trkpt lat="48.60534" lon="1.96605">
        <ele>122.71</ele>
        <time>2019-12-19T09:25:03Z</time>
      </trkpt>
      <trkpt lat="48.60535" lon="1.96606">
        <ele>122.71</ele>
        <time>2019-12-19T09:25:04Z</time>
      </trkpt>
      <trkpt lat="48.60535" lon="1.96606">
        <ele>122.22</ele>
        <time>2019-12-19T09:25:05Z</time>
      </trkpt>
      <trkpt lat="48.60536" lon="1.96607">
        <ele>122.22</ele>
        <time>2019-12-19T09:25:06Z</time>
      </trkpt>
      <trkpt lat="48.60537" lon="1.96609">
        <ele>121.74</ele>
        <time>2019-12-19T09:25:07Z</time>
      </trkpt>
      <trkpt lat="48.60539" lon="1.9661">
        <ele>121.74</ele>
        <time>2019-12-19T09:25:08Z</time>
      </trkpt>
      <trkpt lat="48.60541" lon="1.96611">
        <ele>121.26</ele>
        <time>2019-12-19T09:25:09Z</time>
      </trkpt>
      <trkpt lat="48.60543" lon="1.96613">
        <ele>121.26</ele>
        <time>2019-12-19T09:25:10Z</time>
      </trkpt>
      <trkpt lat="48.60547" lon="1.96614">
        <ele>121.26</ele>
        <time>2019-12-19T09:25:11Z</time>
      </trkpt>
      <trkpt lat="48.60549" lon="1.96616">
        <ele>120.78</ele>
        <time>2019-12-19T09:25:12Z</time>
      </trkpt>
      <trkpt lat="48.60551" lon="1.96617">
        <ele>120.78</ele>
        <time>2019-12-19T09:25:13Z</time>
      </trkpt>
      <trkpt lat="48.60553" lon="1.96618">
        <ele>120.78</ele>
        <time>2019-12-19T09:25:14Z</time>
      </trkpt>
      <trkpt lat="48.60554" lon="1.9662">
        <ele>120.3</ele>
        <time>2019-12-19T09:25:15Z</time>
      </trkpt>
      <trkpt lat="48.60555" lon="1.96621">
        <ele>120.3</ele>
        <time>2019-12-19T09:25:16Z</time>
      </trkpt>
      <trkpt lat="48.60556" lon="1.96622">
        <ele>119.82</ele>
        <time>2019-12-19T09:25:17Z</time>
      </trkpt>
      <trkpt lat="48.60558" lon="1.96624">
        <ele>119.82</ele>
        <time>2019-12-19T09:25:18Z</time>
      </trkpt>
      <trkpt lat="48.60559" lon="1.96626">
        <ele>119.34</ele>
        <time>2019-12-19T09:25:19Z</time>
      </trkpt>
      <trkpt lat="48.60559" lon="1.96627">
        <ele>119.34</ele>
        <time>2019-12-19T09:25:20Z</time>
      </trkpt>
      <trkpt lat="48.60559" lon="1.96629">
        <ele>119.34</ele>
        <time>2019-12-19T09:25:21Z</time>
      </trkpt>
      <trkpt lat="48.60559" lon="1.96629">
        <ele>119.34</ele>
        <time>2019-12-19T09:25:22Z</time>
      </trkpt>
      <trkpt lat="48.6056" lon="1.9663">
        <ele>118.38</ele>
        <time>2019-12-19T09:25:27Z</time>
      </trkpt>
      <trkpt lat="48.60561" lon="1.96631">
        <ele>118.38</ele>
        <time>2019-12-19T09:25:28Z</time>
      </trkpt>
      <trkpt lat="48.60561" lon="1.96631">
        <ele>117.9</ele>
        <time>2019-12-19T09:25:29Z</time>
      </trkpt>
      <trkpt lat="48.60561" lon="1.96632">
        <ele>117.9</ele>
        <time>2019-12-19T09:25:30Z</time>
      </trkpt>
      <trkpt lat="48.60563" lon="1.96633">
        <ele>117.42</ele>
        <time>2019-12-19T09:25:31Z</time>
      </trkpt>
      <trkpt lat="48.60564" lon="1.96633">
        <ele>117.42</ele>
        <time>2019-12-19T09:25:32Z</time>
      </trkpt>
      <trkpt lat="48.60565" lon="1.96634">
        <ele>116.94</ele>
        <time>2019-12-19T09:25:33Z</time>
      </trkpt>
      <trkpt lat="48.60566" lon="1.96635">
        <ele>117.42</ele>
        <time>2019-12-19T09:25:34Z</time>
      </trkpt>
      <trkpt lat="48.60567" lon="1.96637">
        <ele>118.38</ele>
        <time>2019-12-19T09:25:35Z</time>
      </trkpt>
      <trkpt lat="48.60569" lon="1.96639">
        <ele>116.94</ele>
        <time>2019-12-19T09:25:36Z</time>
      </trkpt>
      <trkpt lat="48.60569" lon="1.96639">
        <ele>116.94</ele>
        <time>2019-12-19T09:25:37Z</time>
      </trkpt>
      <trkpt lat="48.60569" lon="1.96639">
        <ele>116.46</ele>
        <time>2019-12-19T09:25:38Z</time>
      </trkpt>
      <trkpt lat="48.60571" lon="1.96641">
        <ele>116.46</ele>
        <time>2019-12-19T09:25:39Z</time>
      </trkpt>
      <trkpt lat="48.60572" lon="1.96643">
        <ele>115.98</ele>
        <time>2019-12-19T09:25:40Z</time>
      </trkpt>
      <trkpt lat="48.60574" lon="1.96644">
        <ele>115.98</ele>
        <time>2019-12-19T09:25:41Z</time>
      </trkpt>
      <trkpt lat="48.60575" lon="1.96646">
        <ele>115.98</ele>
        <time>2019-12-19T09:25:42Z</time>
      </trkpt>
      <trkpt lat="48.60577" lon="1.96647">
        <ele>115.98</ele>
        <time>2019-12-19T09:25:43Z</time>
      </trkpt>
      <trkpt lat="48.60579" lon="1.96649">
        <ele>115.98</ele>
        <time>2019-12-19T09:25:44Z</time>
      </trkpt>
      <trkpt lat="48.60581" lon="1.9665">
        <ele>115.5</ele>
        <time>2019-12-19T09:25:45Z</time>
      </trkpt>
      <trkpt lat="48.60583" lon="1.96651">
        <ele>115.5</ele>
        <time>2019-12-19T09:25:46Z</time>
      </trkpt>
      <trkpt lat="48.60585" lon="1.96653">
        <ele>115.5</ele>
        <time>2019-12-19T09:25:47Z</time>
      </trkpt>
      <trkpt lat="48.60587" lon="1.96655">
        <ele>115.5</ele>
        <time>2019-12-19T09:25:48Z</time>
      </trkpt>
      <trkpt lat="48.60588" lon="1.96656">
        <ele>115.5</ele>
        <time>2019-12-19T09:25:49Z</time>
      </trkpt>
      <trkpt lat="48.6059" lon="1.96657">
        <ele>115.5</ele>
        <time>2019-12-19T09:25:50Z</time>
      </trkpt>
      <trkpt lat="48.60592" lon="1.96658">
        <ele>115.01</ele>
        <time>2019-12-19T09:25:51Z</time>
      </trkpt>
      <trkpt lat="48.60593" lon="1.9666">
        <ele>115.01</ele>
        <time>2019-12-19T09:25:52Z</time>
      </trkpt>
      <trkpt lat="48.60594" lon="1.96662">
        <ele>115.01</ele>
        <time>2019-12-19T09:25:53Z</time>
      </trkpt>
      <trkpt lat="48.60596" lon="1.96663">
        <ele>115.01</ele>
        <time>2019-12-19T09:25:54Z</time>
      </trkpt>
      <trkpt lat="48.60596" lon="1.96664">
        <ele>115.01</ele>
        <time>2019-12-19T09:25:55Z</time>
      </trkpt>
      <trkpt lat="48.60597" lon="1.96665">
        <ele>114.53</ele>
        <time>2019-12-19T09:25:56Z</time>
      </trkpt>
      <trkpt lat="48.60599" lon="1.96667">
        <ele>115.01</ele>
        <time>2019-12-19T09:25:57Z</time>
      </trkpt>
      <trkpt lat="48.606" lon="1.96668">
        <ele>114.53</ele>
        <time>2019-12-19T09:25:58Z</time>
      </trkpt>
      <trkpt lat="48.60601" lon="1.9667">
        <ele>114.53</ele>
        <time>2019-12-19T09:25:59Z</time>
      </trkpt>
      <trkpt lat="48.60603" lon="1.96672">
        <ele>114.53</ele>
        <time>2019-12-19T09:26:00Z</time>
      </trkpt>
      <trkpt lat="48.60604" lon="1.96673">
        <ele>114.53</ele>
        <time>2019-12-19T09:26:01Z</time>
      </trkpt>
      <trkpt lat="48.60605" lon="1.96675">
        <ele>114.05</ele>
        <time>2019-12-19T09:26:02Z</time>
      </trkpt>
      <trkpt lat="48.60606" lon="1.96677">
        <ele>114.53</ele>
        <time>2019-12-19T09:26:03Z</time>
      </trkpt>
      <trkpt lat="48.60607" lon="1.96678">
        <ele>114.05</ele>
        <time>2019-12-19T09:26:04Z</time>
      </trkpt>
      <trkpt lat="48.60609" lon="1.96679">
        <ele>114.05</ele>
        <time>2019-12-19T09:26:05Z</time>
      </trkpt>
      <trkpt lat="48.6061" lon="1.9668">
        <ele>114.05</ele>
        <time>2019-12-19T09:26:06Z</time>
      </trkpt>
      <trkpt lat="48.6061" lon="1.9668">
        <ele>114.05</ele>
        <time>2019-12-19T09:26:07Z</time>
      </trkpt>
      <trkpt lat="48.6061" lon="1.9668">
        <ele>114.05</ele>
        <time>2019-12-19T09:26:08Z</time>
      </trkpt>
      <trkpt lat="48.60612" lon="1.96681">
        <ele>113.57</ele>
        <time>2019-12-19T09:26:09Z</time>
      </trkpt>
      <trkpt lat="48.60612" lon="1.96681">
        <ele>113.57</ele>
        <time>2019-12-19T09:26:10Z</time>
      </trkpt>
      <trkpt lat="48.60613" lon="1.96683">
        <ele>113.57</ele>
        <time>2019-12-19T09:26:11Z</time>
      </trkpt>
      <trkpt lat="48.60614" lon="1.96685">
        <ele>114.05</ele>
        <time>2019-12-19T09:26:12Z</time>
      </trkpt>
      <trkpt lat="48.60615" lon="1.96686">
        <ele>113.57</ele>
        <time>2019-12-19T09:26:13Z</time>
      </trkpt>
      <trkpt lat="48.60616" lon="1.96686">
        <ele>113.09</ele>
        <time>2019-12-19T09:26:15Z</time>
      </trkpt>
      <trkpt lat="48.60616" lon="1.96687">
        <ele>113.57</ele>
        <time>2019-12-19T09:26:16Z</time>
      </trkpt>
      <trkpt lat="48.60617" lon="1.96689">
        <ele>113.09</ele>
        <time>2019-12-19T09:26:17Z</time>
      </trkpt>
      <trkpt lat="48.60618" lon="1.96691">
        <ele>113.09</ele>
        <time>2019-12-19T09:26:18Z</time>
      </trkpt>
      <trkpt lat="48.60619" lon="1.96692">
        <ele>113.09</ele>
        <time>2019-12-19T09:26:20Z</time>
      </trkpt>
      <trkpt lat="48.6062" lon="1.96693">
        <ele>112.61</ele>
        <time>2019-12-19T09:26:21Z</time>
      </trkpt>
      <trkpt lat="48.60622" lon="1.96695">
        <ele>113.09</ele>
        <time>2019-12-19T09:26:22Z</time>
      </trkpt>
      <trkpt lat="48.60624" lon="1.96697">
        <ele>113.09</ele>
        <time>2019-12-19T09:26:23Z</time>
      </trkpt>
      <trkpt lat="48.60626" lon="1.96698">
        <ele>112.61</ele>
        <time>2019-12-19T09:26:24Z</time>
      </trkpt>
      <trkpt lat="48.60628" lon="1.967">
        <ele>112.61</ele>
        <time>2019-12-19T09:26:25Z</time>
      </trkpt>
      <trkpt lat="48.60629" lon="1.96701">
        <ele>112.61</ele>
        <time>2019-12-19T09:26:26Z</time>
      </trkpt>
      <trkpt lat="48.6063" lon="1.96703">
        <ele>112.61</ele>
        <time>2019-12-19T09:26:27Z</time>
      </trkpt>
      <trkpt lat="48.60632" lon="1.96704">
        <ele>112.61</ele>
        <time>2019-12-19T09:26:28Z</time>
      </trkpt>
      <trkpt lat="48.60633" lon="1.96706">
        <ele>112.61</ele>
        <time>2019-12-19T09:26:29Z</time>
      </trkpt>
      <trkpt lat="48.60635" lon="1.96708">
        <ele>112.13</ele>
        <time>2019-12-19T09:26:30Z</time>
      </trkpt>
      <trkpt lat="48.60636" lon="1.96709">
        <ele>112.13</ele>
        <time>2019-12-19T09:26:31Z</time>
      </trkpt>
      <trkpt lat="48.60636" lon="1.96709">
        <ele>112.13</ele>
        <time>2019-12-19T09:26:32Z</time>
      </trkpt>
      <trkpt lat="48.60637" lon="1.9671">
        <ele>112.13</ele>
        <time>2019-12-19T09:26:33Z</time>
      </trkpt>
      <trkpt lat="48.60637" lon="1.9671">
        <ele>112.13</ele>
        <time>2019-12-19T09:26:34Z</time>
      </trkpt>
      <trkpt lat="48.60637" lon="1.9671">
        <ele>112.13</ele>
        <time>2019-12-19T09:26:35Z</time>
      </trkpt>
      <trkpt lat="48.60637" lon="1.9671">
        <ele>111.65</ele>
        <time>2019-12-19T09:26:36Z</time>
      </trkpt>
      <trkpt lat="48.60638" lon="1.96711">
        <ele>111.65</ele>
        <time>2019-12-19T09:26:37Z</time>
      </trkpt>
      <trkpt lat="48.60638" lon="1.96711">
        <ele>111.65</ele>
        <time>2019-12-19T09:26:38Z</time>
      </trkpt>
      <trkpt lat="48.60638" lon="1.96712">
        <ele>111.65</ele>
        <time>2019-12-19T09:26:39Z</time>
      </trkpt>
      <trkpt lat="48.60639" lon="1.96712">
        <ele>111.65</ele>
        <time>2019-12-19T09:26:40Z</time>
      </trkpt>
      <trkpt lat="48.60639" lon="1.96712">
        <ele>111.65</ele>
        <time>2019-12-19T09:26:41Z</time>
      </trkpt>
      <trkpt lat="48.60639" lon="1.96712">
        <ele>111.65</ele>
        <time>2019-12-19T09:26:42Z</time>
      </trkpt>
      <trkpt lat="48.6064" lon="1.96714">
        <ele>111.65</ele>
        <time>2019-12-19T09:26:43Z</time>
      </trkpt>
      <trkpt lat="48.60641" lon="1.96714">
        <ele>111.65</ele>
        <time>2019-12-19T09:26:44Z</time>
      </trkpt>
      <trkpt lat="48.60641" lon="1.96715">
        <ele>111.17</ele>
        <time>2019-12-19T09:26:46Z</time>
      </trkpt>
      <trkpt lat="48.60641" lon="1.96715">
        <ele>111.17</ele>
        <time>2019-12-19T09:26:47Z</time>
      </trkpt>
      <trkpt lat="48.60641" lon="1.96715">
        <ele>110.69</ele>
        <time>2019-12-19T09:26:48Z</time>
      </trkpt>
      <trkpt lat="48.60644" lon="1.96718">
        <ele>111.17</ele>
        <time>2019-12-19T09:26:49Z</time>
      </trkpt>
      <trkpt lat="48.60647" lon="1.96721">
        <ele>111.17</ele>
        <time>2019-12-19T09:26:50Z</time>
      </trkpt>
      <trkpt lat="48.60648" lon="1.96723">
        <ele>110.69</ele>
        <time>2019-12-19T09:26:51Z</time>
      </trkpt>
      <trkpt lat="48.60649" lon="1.96724">
        <ele>110.69</ele>
        <time>2019-12-19T09:26:52Z</time>
      </trkpt>
      <trkpt lat="48.6065" lon="1.96726">
        <ele>110.21</ele>
        <time>2019-12-19T09:26:53Z</time>
      </trkpt>
      <trkpt lat="48.6065" lon="1.96726">
        <ele>110.69</ele>
        <time>2019-12-19T09:26:54Z</time>
      </trkpt>
      <trkpt lat="48.60651" lon="1.96728">
        <ele>110.69</ele>
        <time>2019-12-19T09:26:55Z</time>
      </trkpt>
      <trkpt lat="48.60653" lon="1.9673">
        <ele>110.21</ele>
        <time>2019-12-19T09:26:56Z</time>
      </trkpt>
      <trkpt lat="48.60654" lon="1.96731">
        <ele>110.21</ele>
        <time>2019-12-19T09:26:57Z</time>
      </trkpt>
      <trkpt lat="48.60655" lon="1.96732">
        <ele>110.21</ele>
        <time>2019-12-19T09:26:58Z</time>
      </trkpt>
      <trkpt lat="48.60657" lon="1.96734">
        <ele>110.21</ele>
        <time>2019-12-19T09:26:59Z</time>
      </trkpt>
      <trkpt lat="48.60659" lon="1.96736">
        <ele>110.21</ele>
        <time>2019-12-19T09:27:00Z</time>
      </trkpt>
      <trkpt lat="48.60661" lon="1.96738">
        <ele>110.21</ele>
        <time>2019-12-19T09:27:01Z</time>
      </trkpt>
      <trkpt lat="48.60662" lon="1.9674">
        <ele>109.73</ele>
        <time>2019-12-19T09:27:02Z</time>
      </trkpt>
      <trkpt lat="48.60664" lon="1.96742">
        <ele>109.73</ele>
        <time>2019-12-19T09:27:03Z</time>
      </trkpt>
      <trkpt lat="48.60666" lon="1.96743">
        <ele>109.73</ele>
        <time>2019-12-19T09:27:04Z</time>
      </trkpt>
      <trkpt lat="48.60668" lon="1.96745">
        <ele>109.73</ele>
        <time>2019-12-19T09:27:05Z</time>
      </trkpt>
      <trkpt lat="48.6067" lon="1.96747">
        <ele>109.25</ele>
        <time>2019-12-19T09:27:06Z</time>
      </trkpt>
      <trkpt lat="48.60672" lon="1.96749">
        <ele>109.25</ele>
        <time>2019-12-19T09:27:07Z</time>
      </trkpt>
      <trkpt lat="48.60673" lon="1.96751">
        <ele>109.25</ele>
        <time>2019-12-19T09:27:08Z</time>
      </trkpt>
      <trkpt lat="48.60675" lon="1.96752">
        <ele>109.25</ele>
        <time>2019-12-19T09:27:09Z</time>
      </trkpt>
      <trkpt lat="48.60677" lon="1.96754">
        <ele>109.25</ele>
        <time>2019-12-19T09:27:10Z</time>
      </trkpt>
      <trkpt lat="48.60679" lon="1.96755">
        <ele>108.77</ele>
        <time>2019-12-19T09:27:11Z</time>
      </trkpt>
      <trkpt lat="48.60681" lon="1.96757">
        <ele>109.25</ele>
        <time>2019-12-19T09:27:12Z</time>
      </trkpt>
      <trkpt lat="48.60683" lon="1.96758">
        <ele>108.77</ele>
        <time>2019-12-19T09:27:13Z</time>
      </trkpt>
      <trkpt lat="48.60685" lon="1.9676">
        <ele>108.77</ele>
        <time>2019-12-19T09:27:14Z</time>
      </trkpt>
      <trkpt lat="48.60687" lon="1.96762">
        <ele>108.77</ele>
        <time>2019-12-19T09:27:15Z</time>
      </trkpt>
      <trkpt lat="48.60689" lon="1.96764">
        <ele>108.29</ele>
        <time>2019-12-19T09:27:16Z</time>
      </trkpt>
      <trkpt lat="48.6069" lon="1.96765">
        <ele>108.29</ele>
        <time>2019-12-19T09:27:17Z</time>
      </trkpt>
      <trkpt lat="48.60691" lon="1.96767">
        <ele>108.29</ele>
        <time>2019-12-19T09:27:18Z</time>
      </trkpt>
      <trkpt lat="48.60692" lon="1.96768">
        <ele>108.29</ele>
        <time>2019-12-19T09:27:19Z</time>
      </trkpt>
      <trkpt lat="48.60693" lon="1.96769">
        <ele>108.29</ele>
        <time>2019-12-19T09:27:20Z</time>
      </trkpt>
      <trkpt lat="48.60694" lon="1.9677">
        <ele>108.29</ele>
        <time>2019-12-19T09:27:21Z</time>
      </trkpt>
      <trkpt lat="48.60694" lon="1.96771">
        <ele>107.81</ele>
        <time>2019-12-19T09:27:22Z</time>
      </trkpt>
      <trkpt lat="48.60696" lon="1.96772">
        <ele>107.81</ele>
        <time>2019-12-19T09:27:24Z</time>
      </trkpt>
      <trkpt lat="48.60696" lon="1.96772">
        <ele>107.81</ele>
        <time>2019-12-19T09:27:25Z</time>
      </trkpt>
      <trkpt lat="48.60697" lon="1.96773">
        <ele>107.81</ele>
        <time>2019-12-19T09:27:26Z</time>
      </trkpt>
      <trkpt lat="48.60698" lon="1.96774">
        <ele>107.81</ele>
        <time>2019-12-19T09:27:27Z</time>
      </trkpt>
      <trkpt lat="48.60699" lon="1.96775">
        <ele>107.81</ele>
        <time>2019-12-19T09:27:28Z</time>
      </trkpt>
      <trkpt lat="48.607" lon="1.96776">
        <ele>107.81</ele>
        <time>2019-12-19T09:27:29Z</time>
      </trkpt>
      <trkpt lat="48.60702" lon="1.96777">
        <ele>107.81</ele>
        <time>2019-12-19T09:27:32Z</time>
      </trkpt>
      <trkpt lat="48.60703" lon="1.96777">
        <ele>107.81</ele>
        <time>2019-12-19T09:27:33Z</time>
      </trkpt>
      <trkpt lat="48.60703" lon="1.96777">
        <ele>107.81</ele>
        <time>2019-12-19T09:27:34Z</time>
      </trkpt>
      <trkpt lat="48.60704" lon="1.96777">
        <ele>109.25</ele>
        <time>2019-12-19T09:27:35Z</time>
      </trkpt>
      <trkpt lat="48.60705" lon="1.96776">
        <ele>108.29</ele>
        <time>2019-12-19T09:27:36Z</time>
      </trkpt>
      <trkpt lat="48.60706" lon="1.96776">
        <ele>108.29</ele>
        <time>2019-12-19T09:27:37Z</time>
      </trkpt>
      <trkpt lat="48.60706" lon="1.96776">
        <ele>108.29</ele>
        <time>2019-12-19T09:27:38Z</time>
      </trkpt>
      <trkpt lat="48.60707" lon="1.96776">
        <ele>107.81</ele>
        <time>2019-12-19T09:27:42Z</time>
      </trkpt>
      <trkpt lat="48.60707" lon="1.96776">
        <ele>107.81</ele>
        <time>2019-12-19T09:27:43Z</time>
      </trkpt>
      <trkpt lat="48.60708" lon="1.96776">
        <ele>107.81</ele>
        <time>2019-12-19T09:27:49Z</time>
      </trkpt>
      <trkpt lat="48.60708" lon="1.96776">
        <ele>107.81</ele>
        <time>2019-12-19T09:27:50Z</time>
      </trkpt>
      <trkpt lat="48.60708" lon="1.96776">
        <ele>107.81</ele>
        <time>2019-12-19T09:27:51Z</time>
      </trkpt>
      <trkpt lat="48.60708" lon="1.96776">
        <ele>107.81</ele>
        <time>2019-12-19T09:27:52Z</time>
      </trkpt>
      <trkpt lat="48.60709" lon="1.96776">
        <ele>107.32</ele>
        <time>2019-12-19T09:27:53Z</time>
      </trkpt>
      <trkpt lat="48.60709" lon="1.96776">
        <ele>107.32</ele>
        <time>2019-12-19T09:27:54Z</time>
      </trkpt>
      <trkpt lat="48.60709" lon="1.96776">
        <ele>107.81</ele>
        <time>2019-12-19T09:27:55Z</time>
      </trkpt>
      <trkpt lat="48.60709" lon="1.96775">
        <ele>107.81</ele>
        <time>2019-12-19T09:27:56Z</time>
      </trkpt>
      <trkpt lat="48.60709" lon="1.96775">
        <ele>107.81</ele>
        <time>2019-12-19T09:27:57Z</time>
      </trkpt>
      <trkpt lat="48.60709" lon="1.96774">
        <ele>107.81</ele>
        <time>2019-12-19T09:27:58Z</time>
      </trkpt>
      <trkpt lat="48.60709" lon="1.96772">
        <ele>107.81</ele>
        <time>2019-12-19T09:27:59Z</time>
      </trkpt>
      <trkpt lat="48.60709" lon="1.96771">
        <ele>107.81</ele>
        <time>2019-12-19T09:28:00Z</time>
      </trkpt>
      <trkpt lat="48.60709" lon="1.9677">
        <ele>107.81</ele>
        <time>2019-12-19T09:28:01Z</time>
      </trkpt>
      <trkpt lat="48.6071" lon="1.96768">
        <ele>107.81</ele>
        <time>2019-12-19T09:28:02Z</time>
      </trkpt>
      <trkpt lat="48.6071" lon="1.96767">
        <ele>107.81</ele>
        <time>2019-12-19T09:28:03Z</time>
      </trkpt>
      <trkpt lat="48.6071" lon="1.96766">
        <ele>107.81</ele>
        <time>2019-12-19T09:28:04Z</time>
      </trkpt>
      <trkpt lat="48.6071" lon="1.96764">
        <ele>107.81</ele>
        <time>2019-12-19T09:28:05Z</time>
      </trkpt>
      <trkpt lat="48.6071" lon="1.96762">
        <ele>107.81</ele>
        <time>2019-12-19T09:28:06Z</time>
      </trkpt>
      <trkpt lat="48.60709" lon="1.96759">
        <ele>107.81</ele>
        <time>2019-12-19T09:28:07Z</time>
      </trkpt>
      <trkpt lat="48.60709" lon="1.96757">
        <ele>107.81</ele>
        <time>2019-12-19T09:28:08Z</time>
      </trkpt>
      <trkpt lat="48.60708" lon="1.96754">
        <ele>107.81</ele>
        <time>2019-12-19T09:28:09Z</time>
      </trkpt>
      <trkpt lat="48.60708" lon="1.96752">
        <ele>107.81</ele>
        <time>2019-12-19T09:28:10Z</time>
      </trkpt>
      <trkpt lat="48.60707" lon="1.9675">
        <ele>107.81</ele>
        <time>2019-12-19T09:28:11Z</time>
      </trkpt>
      <trkpt lat="48.60707" lon="1.96747">
        <ele>107.81</ele>
        <time>2019-12-19T09:28:12Z</time>
      </trkpt>
      <trkpt lat="48.60707" lon="1.96745">
        <ele>108.29</ele>
        <time>2019-12-19T09:28:13Z</time>
      </trkpt>
      <trkpt lat="48.60706" lon="1.96742">
        <ele>108.29</ele>
        <time>2019-12-19T09:28:14Z</time>
      </trkpt>
      <trkpt lat="48.60706" lon="1.96739">
        <ele>108.29</ele>
        <time>2019-12-19T09:28:15Z</time>
      </trkpt>
      <trkpt lat="48.60705" lon="1.96736">
        <ele>108.29</ele>
        <time>2019-12-19T09:28:16Z</time>
      </trkpt>
      <trkpt lat="48.60705" lon="1.96734">
        <ele>108.29</ele>
        <time>2019-12-19T09:28:17Z</time>
      </trkpt>
      <trkpt lat="48.60704" lon="1.96732">
        <ele>108.77</ele>
        <time>2019-12-19T09:28:18Z</time>
      </trkpt>
      <trkpt lat="48.60705" lon="1.9673">
        <ele>108.29</ele>
        <time>2019-12-19T09:28:19Z</time>
      </trkpt>
      <trkpt lat="48.60705" lon="1.96728">
        <ele>108.29</ele>
        <time>2019-12-19T09:28:20Z</time>
      </trkpt>
      <trkpt lat="48.60705" lon="1.96726">
        <ele>108.29</ele>
        <time>2019-12-19T09:28:21Z</time>
      </trkpt>
      <trkpt lat="48.60705" lon="1.96725">
        <ele>108.77</ele>
        <time>2019-12-19T09:28:22Z</time>
      </trkpt>
      <trkpt lat="48.60704" lon="1.96723">
        <ele>108.77</ele>
        <time>2019-12-19T09:28:23Z</time>
      </trkpt>
      <trkpt lat="48.60704" lon="1.96721">
        <ele>108.77</ele>
        <time>2019-12-19T09:28:24Z</time>
      </trkpt>
      <trkpt lat="48.60704" lon="1.96719">
        <ele>108.77</ele>
        <time>2019-12-19T09:28:25Z</time>
      </trkpt>
      <trkpt lat="48.60704" lon="1.96717">
        <ele>108.77</ele>
        <time>2019-12-19T09:28:26Z</time>
      </trkpt>
      <trkpt lat="48.60704" lon="1.96715">
        <ele>108.77</ele>
        <time>2019-12-19T09:28:27Z</time>
      </trkpt>
      <trkpt lat="48.60704" lon="1.96713">
        <ele>108.77</ele>
        <time>2019-12-19T09:28:28Z</time>
      </trkpt>
      <trkpt lat="48.60704" lon="1.96711">
        <ele>109.25</ele>
        <time>2019-12-19T09:28:29Z</time>
      </trkpt>
      <trkpt lat="48.60704" lon="1.96709">
        <ele>109.25</ele>
        <time>2019-12-19T09:28:30Z</time>
      </trkpt>
      <trkpt lat="48.60704" lon="1.96707">
        <ele>109.25</ele>
        <time>2019-12-19T09:28:31Z</time>
      </trkpt>
      <trkpt lat="48.60704" lon="1.96705">
        <ele>109.25</ele>
        <time>2019-12-19T09:28:32Z</time>
      </trkpt>
      <trkpt lat="48.60704" lon="1.96703">
        <ele>109.25</ele>
        <time>2019-12-19T09:28:33Z</time>
      </trkpt>
      <trkpt lat="48.60703" lon="1.96701">
        <ele>109.25</ele>
        <time>2019-12-19T09:28:34Z</time>
      </trkpt>
      <trkpt lat="48.60703" lon="1.96699">
        <ele>109.25</ele>
        <time>2019-12-19T09:28:35Z</time>
      </trkpt>
      <trkpt lat="48.60703" lon="1.96696">
        <ele>109.25</ele>
        <time>2019-12-19T09:28:36Z</time>
      </trkpt>
      <trkpt lat="48.60703" lon="1.96694">
        <ele>109.25</ele>
        <time>2019-12-19T09:28:37Z</time>
      </trkpt>
      <trkpt lat="48.60703" lon="1.96691">
        <ele>109.25</ele>
        <time>2019-12-19T09:28:38Z</time>
      </trkpt>
      <trkpt lat="48.60703" lon="1.96689">
        <ele>109.25</ele>
        <time>2019-12-19T09:28:39Z</time>
      </trkpt>
      <trkpt lat="48.60703" lon="1.96688">
        <ele>109.25</ele>
        <time>2019-12-19T09:28:40Z</time>
      </trkpt>
      <trkpt lat="48.60703" lon="1.96685">
        <ele>109.25</ele>
        <time>2019-12-19T09:28:41Z</time>
      </trkpt>
      <trkpt lat="48.60703" lon="1.96683">
        <ele>109.25</ele>
        <time>2019-12-19T09:28:42Z</time>
      </trkpt>
      <trkpt lat="48.60703" lon="1.96682">
        <ele>109.73</ele>
        <time>2019-12-19T09:28:43Z</time>
      </trkpt>
      <trkpt lat="48.60703" lon="1.9668">
        <ele>109.73</ele>
        <time>2019-12-19T09:28:44Z</time>
      </trkpt>
      <trkpt lat="48.60703" lon="1.96678">
        <ele>109.73</ele>
        <time>2019-12-19T09:28:45Z</time>
      </trkpt>
      <trkpt lat="48.60704" lon="1.96676">
        <ele>109.73</ele>
        <time>2019-12-19T09:28:46Z</time>
      </trkpt>
      <trkpt lat="48.60703" lon="1.96673">
        <ele>109.73</ele>
        <time>2019-12-19T09:28:47Z</time>
      </trkpt>
      <trkpt lat="48.60704" lon="1.96671">
        <ele>109.73</ele>
        <time>2019-12-19T09:28:48Z</time>
      </trkpt>
      <trkpt lat="48.60704" lon="1.96668">
        <ele>109.73</ele>
        <time>2019-12-19T09:28:49Z</time>
      </trkpt>
      <trkpt lat="48.60704" lon="1.96667">
        <ele>109.73</ele>
        <time>2019-12-19T09:28:50Z</time>
      </trkpt>
      <trkpt lat="48.60704" lon="1.96665">
        <ele>110.21</ele>
        <time>2019-12-19T09:28:51Z</time>
      </trkpt>
      <trkpt lat="48.60703" lon="1.96663">
        <ele>110.21</ele>
        <time>2019-12-19T09:28:52Z</time>
      </trkpt>
      <trkpt lat="48.60703" lon="1.96661">
        <ele>110.21</ele>
        <time>2019-12-19T09:28:53Z</time>
      </trkpt>
      <trkpt lat="48.60702" lon="1.96659">
        <ele>110.21</ele>
        <time>2019-12-19T09:28:54Z</time>
      </trkpt>
      <trkpt lat="48.60702" lon="1.96657">
        <ele>110.21</ele>
        <time>2019-12-19T09:28:55Z</time>
      </trkpt>
      <trkpt lat="48.60701" lon="1.96655">
        <ele>110.21</ele>
        <time>2019-12-19T09:28:56Z</time>
      </trkpt>
      <trkpt lat="48.60701" lon="1.96653">
        <ele>110.21</ele>
        <time>2019-12-19T09:28:57Z</time>
      </trkpt>
      <trkpt lat="48.60702" lon="1.96651">
        <ele>110.21</ele>
        <time>2019-12-19T09:28:58Z</time>
      </trkpt>
      <trkpt lat="48.60702" lon="1.96648">
        <ele>110.21</ele>
        <time>2019-12-19T09:28:59Z</time>
      </trkpt>
      <trkpt lat="48.60701" lon="1.96646">
        <ele>110.21</ele>
        <time>2019-12-19T09:29:00Z</time>
      </trkpt>
      <trkpt lat="48.60701" lon="1.96643">
        <ele>110.21</ele>
        <time>2019-12-19T09:29:01Z</time>
      </trkpt>
      <trkpt lat="48.60701" lon="1.96641">
        <ele>110.21</ele>
        <time>2019-12-19T09:29:02Z</time>
      </trkpt>
      <trkpt lat="48.60701" lon="1.96639">
        <ele>110.21</ele>
        <time>2019-12-19T09:29:03Z</time>
      </trkpt>
      <trkpt lat="48.60702" lon="1.96637">
        <ele>110.21</ele>
        <time>2019-12-19T09:29:04Z</time>
      </trkpt>
      <trkpt lat="48.60702" lon="1.96635">
        <ele>110.21</ele>
        <time>2019-12-19T09:29:05Z</time>
      </trkpt>
      <trkpt lat="48.60703" lon="1.96633">
        <ele>110.21</ele>
        <time>2019-12-19T09:29:06Z</time>
      </trkpt>
      <trkpt lat="48.60703" lon="1.96631">
        <ele>110.69</ele>
        <time>2019-12-19T09:29:07Z</time>
      </trkpt>
      <trkpt lat="48.60703" lon="1.96628">
        <ele>110.69</ele>
        <time>2019-12-19T09:29:08Z</time>
      </trkpt>
      <trkpt lat="48.60703" lon="1.96626">
        <ele>110.69</ele>
        <time>2019-12-19T09:29:09Z</time>
      </trkpt>
      <trkpt lat="48.60704" lon="1.96624">
        <ele>110.69</ele>
        <time>2019-12-19T09:29:10Z</time>
      </trkpt>
      <trkpt lat="48.60704" lon="1.96622">
        <ele>110.69</ele>
        <time>2019-12-19T09:29:11Z</time>
      </trkpt>
      <trkpt lat="48.60704" lon="1.9662">
        <ele>110.21</ele>
        <time>2019-12-19T09:29:12Z</time>
      </trkpt>
      <trkpt lat="48.60703" lon="1.96618">
        <ele>110.69</ele>
        <time>2019-12-19T09:29:13Z</time>
      </trkpt>
      <trkpt lat="48.60703" lon="1.96616">
        <ele>110.69</ele>
        <time>2019-12-19T09:29:14Z</time>
      </trkpt>
      <trkpt lat="48.60703" lon="1.96614">
        <ele>110.69</ele>
        <time>2019-12-19T09:29:15Z</time>
      </trkpt>
      <trkpt lat="48.60703" lon="1.96612">
        <ele>110.69</ele>
        <time>2019-12-19T09:29:16Z</time>
      </trkpt>
      <trkpt lat="48.60703" lon="1.9661">
        <ele>110.69</ele>
        <time>2019-12-19T09:29:17Z</time>
      </trkpt>
      <trkpt lat="48.60704" lon="1.96609">
        <ele>110.21</ele>
        <time>2019-12-19T09:29:18Z</time>
      </trkpt>
      <trkpt lat="48.60704" lon="1.96608">
        <ele>110.69</ele>
        <time>2019-12-19T09:29:19Z</time>
      </trkpt>
      <trkpt lat="48.60705" lon="1.96606">
        <ele>110.69</ele>
        <time>2019-12-19T09:29:20Z</time>
      </trkpt>
      <trkpt lat="48.60705" lon="1.96605">
        <ele>110.69</ele>
        <time>2019-12-19T09:29:21Z</time>
      </trkpt>
      <trkpt lat="48.60706" lon="1.96604">
        <ele>110.69</ele>
        <time>2019-12-19T09:29:22Z</time>
      </trkpt>
      <trkpt lat="48.60706" lon="1.96602">
        <ele>110.69</ele>
        <time>2019-12-19T09:29:23Z</time>
      </trkpt>
      <trkpt lat="48.60706" lon="1.966">
        <ele>110.21</ele>
        <time>2019-12-19T09:29:24Z</time>
      </trkpt>
      <trkpt lat="48.60706" lon="1.96598">
        <ele>110.69</ele>
        <time>2019-12-19T09:29:25Z</time>
      </trkpt>
      <trkpt lat="48.60706" lon="1.96596">
        <ele>111.17</ele>
        <time>2019-12-19T09:29:26Z</time>
      </trkpt>
      <trkpt lat="48.60705" lon="1.96594">
        <ele>111.17</ele>
        <time>2019-12-19T09:29:27Z</time>
      </trkpt>
      <trkpt lat="48.60705" lon="1.96591">
        <ele>110.69</ele>
        <time>2019-12-19T09:29:28Z</time>
      </trkpt>
      <trkpt lat="48.60705" lon="1.96589">
        <ele>110.69</ele>
        <time>2019-12-19T09:29:29Z</time>
      </trkpt>
      <trkpt lat="48.60704" lon="1.96587">
        <ele>111.17</ele>
        <time>2019-12-19T09:29:30Z</time>
      </trkpt>
      <trkpt lat="48.60703" lon="1.96585">
        <ele>110.69</ele>
        <time>2019-12-19T09:29:31Z</time>
      </trkpt>
      <trkpt lat="48.60703" lon="1.96582">
        <ele>110.69</ele>
        <time>2019-12-19T09:29:32Z</time>
      </trkpt>
      <trkpt lat="48.60702" lon="1.9658">
        <ele>110.69</ele>
        <time>2019-12-19T09:29:33Z</time>
      </trkpt>
      <trkpt lat="48.60702" lon="1.96577">
        <ele>111.17</ele>
        <time>2019-12-19T09:29:34Z</time>
      </trkpt>
      <trkpt lat="48.60701" lon="1.96576">
        <ele>112.13</ele>
        <time>2019-12-19T09:29:35Z</time>
      </trkpt>
      <trkpt lat="48.607" lon="1.96574">
        <ele>111.17</ele>
        <time>2019-12-19T09:29:36Z</time>
      </trkpt>
      <trkpt lat="48.607" lon="1.96572">
        <ele>111.17</ele>
        <time>2019-12-19T09:29:37Z</time>
      </trkpt>
      <trkpt lat="48.60699" lon="1.9657">
        <ele>111.17</ele>
        <time>2019-12-19T09:29:38Z</time>
      </trkpt>
      <trkpt lat="48.60698" lon="1.96567">
        <ele>111.17</ele>
        <time>2019-12-19T09:29:39Z</time>
      </trkpt>
      <trkpt lat="48.60698" lon="1.96566">
        <ele>111.17</ele>
        <time>2019-12-19T09:29:40Z</time>
      </trkpt>
      <trkpt lat="48.60697" lon="1.96563">
        <ele>111.65</ele>
        <time>2019-12-19T09:29:41Z</time>
      </trkpt>
      <trkpt lat="48.60698" lon="1.9656">
        <ele>111.17</ele>
        <time>2019-12-19T09:29:42Z</time>
      </trkpt>
      <trkpt lat="48.60698" lon="1.96558">
        <ele>111.17</ele>
        <time>2019-12-19T09:29:43Z</time>
      </trkpt>
      <trkpt lat="48.60698" lon="1.96556">
        <ele>111.17</ele>
        <time>2019-12-19T09:29:44Z</time>
      </trkpt>
      <trkpt lat="48.60698" lon="1.96554">
        <ele>111.17</ele>
        <time>2019-12-19T09:29:45Z</time>
      </trkpt>
      <trkpt lat="48.60698" lon="1.96551">
        <ele>111.65</ele>
        <time>2019-12-19T09:29:46Z</time>
      </trkpt>
      <trkpt lat="48.60698" lon="1.96549">
        <ele>111.65</ele>
        <time>2019-12-19T09:29:47Z</time>
      </trkpt>
      <trkpt lat="48.60698" lon="1.96547">
        <ele>111.65</ele>
        <time>2019-12-19T09:29:48Z</time>
      </trkpt>
      <trkpt lat="48.60698" lon="1.96545">
        <ele>111.17</ele>
        <time>2019-12-19T09:29:49Z</time>
      </trkpt>
      <trkpt lat="48.60698" lon="1.96544">
        <ele>111.65</ele>
        <time>2019-12-19T09:29:50Z</time>
      </trkpt>
      <trkpt lat="48.60698" lon="1.96542">
        <ele>111.65</ele>
        <time>2019-12-19T09:29:51Z</time>
      </trkpt>
      <trkpt lat="48.60698" lon="1.9654">
        <ele>111.65</ele>
        <time>2019-12-19T09:29:52Z</time>
      </trkpt>
      <trkpt lat="48.60698" lon="1.96538">
        <ele>111.65</ele>
        <time>2019-12-19T09:29:53Z</time>
      </trkpt>
      <trkpt lat="48.60698" lon="1.96536">
        <ele>111.65</ele>
        <time>2019-12-19T09:29:54Z</time>
      </trkpt>
      <trkpt lat="48.60699" lon="1.96535">
        <ele>111.65</ele>
        <time>2019-12-19T09:29:55Z</time>
      </trkpt>
      <trkpt lat="48.60699" lon="1.96534">
        <ele>111.65</ele>
        <time>2019-12-19T09:29:56Z</time>
      </trkpt>
      <trkpt lat="48.60699" lon="1.96532">
        <ele>111.65</ele>
        <time>2019-12-19T09:29:57Z</time>
      </trkpt>
      <trkpt lat="48.607" lon="1.96529">
        <ele>111.65</ele>
        <time>2019-12-19T09:29:58Z</time>
      </trkpt>
      <trkpt lat="48.60701" lon="1.96527">
        <ele>111.65</ele>
        <time>2019-12-19T09:29:59Z</time>
      </trkpt>
      <trkpt lat="48.60702" lon="1.96525">
        <ele>111.65</ele>
        <time>2019-12-19T09:30:00Z</time>
      </trkpt>
      <trkpt lat="48.60702" lon="1.96523">
        <ele>111.65</ele>
        <time>2019-12-19T09:30:01Z</time>
      </trkpt>
      <trkpt lat="48.60701" lon="1.9652">
        <ele>111.65</ele>
        <time>2019-12-19T09:30:02Z</time>
      </trkpt>
      <trkpt lat="48.60701" lon="1.96518">
        <ele>111.65</ele>
        <time>2019-12-19T09:30:03Z</time>
      </trkpt>
      <trkpt lat="48.607" lon="1.96515">
        <ele>111.65</ele>
        <time>2019-12-19T09:30:04Z</time>
      </trkpt>
      <trkpt lat="48.60699" lon="1.96513">
        <ele>111.65</ele>
        <time>2019-12-19T09:30:05Z</time>
      </trkpt>
      <trkpt lat="48.60699" lon="1.96511">
        <ele>111.65</ele>
        <time>2019-12-19T09:30:06Z</time>
      </trkpt>
      <trkpt lat="48.60699" lon="1.96507">
        <ele>111.65</ele>
        <time>2019-12-19T09:30:07Z</time>
      </trkpt>
      <trkpt lat="48.607" lon="1.96505">
        <ele>111.17</ele>
        <time>2019-12-19T09:30:08Z</time>
      </trkpt>
      <trkpt lat="48.60701" lon="1.96503">
        <ele>111.65</ele>
        <time>2019-12-19T09:30:09Z</time>
      </trkpt>
      <trkpt lat="48.60701" lon="1.965">
        <ele>111.65</ele>
        <time>2019-12-19T09:30:10Z</time>
      </trkpt>
      <trkpt lat="48.60702" lon="1.96499">
        <ele>111.65</ele>
        <time>2019-12-19T09:30:11Z</time>
      </trkpt>
      <trkpt lat="48.60702" lon="1.96497">
        <ele>111.65</ele>
        <time>2019-12-19T09:30:12Z</time>
      </trkpt>
      <trkpt lat="48.60702" lon="1.96496">
        <ele>111.65</ele>
        <time>2019-12-19T09:30:13Z</time>
      </trkpt>
      <trkpt lat="48.60702" lon="1.96494">
        <ele>111.65</ele>
        <time>2019-12-19T09:30:14Z</time>
      </trkpt>
      <trkpt lat="48.60703" lon="1.96492">
        <ele>111.65</ele>
        <time>2019-12-19T09:30:15Z</time>
      </trkpt>
      <trkpt lat="48.60703" lon="1.9649">
        <ele>111.65</ele>
        <time>2019-12-19T09:30:16Z</time>
      </trkpt>
      <trkpt lat="48.60703" lon="1.96488">
        <ele>111.65</ele>
        <time>2019-12-19T09:30:17Z</time>
      </trkpt>
      <trkpt lat="48.60703" lon="1.96485">
        <ele>111.65</ele>
        <time>2019-12-19T09:30:18Z</time>
      </trkpt>
      <trkpt lat="48.60704" lon="1.96483">
        <ele>111.65</ele>
        <time>2019-12-19T09:30:19Z</time>
      </trkpt>
      <trkpt lat="48.60704" lon="1.96481">
        <ele>111.65</ele>
        <time>2019-12-19T09:30:20Z</time>
      </trkpt>
      <trkpt lat="48.60705" lon="1.96479">
        <ele>111.65</ele>
        <time>2019-12-19T09:30:21Z</time>
      </trkpt>
      <trkpt lat="48.60705" lon="1.96477">
        <ele>111.65</ele>
        <time>2019-12-19T09:30:22Z</time>
      </trkpt>
      <trkpt lat="48.60705" lon="1.96474">
        <ele>111.65</ele>
        <time>2019-12-19T09:30:23Z</time>
      </trkpt>
      <trkpt lat="48.60705" lon="1.96472">
        <ele>111.65</ele>
        <time>2019-12-19T09:30:24Z</time>
      </trkpt>
      <trkpt lat="48.60705" lon="1.9647">
        <ele>111.65</ele>
        <time>2019-12-19T09:30:25Z</time>
      </trkpt>
      <trkpt lat="48.60705" lon="1.96468">
        <ele>111.65</ele>
        <time>2019-12-19T09:30:26Z</time>
      </trkpt>
      <trkpt lat="48.60705" lon="1.96466">
        <ele>112.13</ele>
        <time>2019-12-19T09:30:27Z</time>
      </trkpt>
      <trkpt lat="48.60705" lon="1.96464">
        <ele>111.65</ele>
        <time>2019-12-19T09:30:28Z</time>
      </trkpt>
      <trkpt lat="48.60705" lon="1.96462">
        <ele>111.65</ele>
        <time>2019-12-19T09:30:29Z</time>
      </trkpt>
      <trkpt lat="48.60706" lon="1.96461">
        <ele>111.65</ele>
        <time>2019-12-19T09:30:30Z</time>
      </trkpt>
      <trkpt lat="48.60706" lon="1.96459">
        <ele>111.65</ele>
        <time>2019-12-19T09:30:31Z</time>
      </trkpt>
      <trkpt lat="48.60706" lon="1.96458">
        <ele>111.65</ele>
        <time>2019-12-19T09:30:32Z</time>
      </trkpt>
      <trkpt lat="48.60707" lon="1.96455">
        <ele>112.13</ele>
        <time>2019-12-19T09:30:33Z</time>
      </trkpt>
      <trkpt lat="48.60707" lon="1.96451">
        <ele>112.13</ele>
        <time>2019-12-19T09:30:34Z</time>
      </trkpt>
      <trkpt lat="48.60706" lon="1.96448">
        <ele>111.65</ele>
        <time>2019-12-19T09:30:35Z</time>
      </trkpt>
      <trkpt lat="48.60706" lon="1.96446">
        <ele>111.65</ele>
        <time>2019-12-19T09:30:36Z</time>
      </trkpt>
      <trkpt lat="48.60707" lon="1.96443">
        <ele>112.13</ele>
        <time>2019-12-19T09:30:37Z</time>
      </trkpt>
      <trkpt lat="48.60707" lon="1.9644">
        <ele>112.13</ele>
        <time>2019-12-19T09:30:38Z</time>
      </trkpt>
      <trkpt lat="48.60707" lon="1.96437">
        <ele>112.13</ele>
        <time>2019-12-19T09:30:39Z</time>
      </trkpt>
      <trkpt lat="48.60707" lon="1.96434">
        <ele>112.13</ele>
        <time>2019-12-19T09:30:40Z</time>
      </trkpt>
      <trkpt lat="48.60706" lon="1.96432">
        <ele>112.13</ele>
        <time>2019-12-19T09:30:41Z</time>
      </trkpt>
      <trkpt lat="48.60707" lon="1.9643">
        <ele>112.13</ele>
        <time>2019-12-19T09:30:42Z</time>
      </trkpt>
      <trkpt lat="48.60707" lon="1.96428">
        <ele>112.61</ele>
        <time>2019-12-19T09:30:43Z</time>
      </trkpt>
      <trkpt lat="48.60708" lon="1.96427">
        <ele>112.61</ele>
        <time>2019-12-19T09:30:44Z</time>
      </trkpt>
      <trkpt lat="48.60708" lon="1.96425">
        <ele>112.13</ele>
        <time>2019-12-19T09:30:45Z</time>
      </trkpt>
      <trkpt lat="48.60708" lon="1.96423">
        <ele>112.13</ele>
        <time>2019-12-19T09:30:46Z</time>
      </trkpt>
      <trkpt lat="48.60709" lon="1.96422">
        <ele>112.13</ele>
        <time>2019-12-19T09:30:47Z</time>
      </trkpt>
      <trkpt lat="48.60709" lon="1.9642">
        <ele>112.13</ele>
        <time>2019-12-19T09:30:48Z</time>
      </trkpt>
      <trkpt lat="48.60708" lon="1.96419">
        <ele>112.61</ele>
        <time>2019-12-19T09:30:49Z</time>
      </trkpt>
      <trkpt lat="48.60708" lon="1.96417">
        <ele>112.61</ele>
        <time>2019-12-19T09:30:50Z</time>
      </trkpt>
      <trkpt lat="48.60708" lon="1.96417">
        <ele>112.61</ele>
        <time>2019-12-19T09:30:51Z</time>
      </trkpt>
      <trkpt lat="48.60708" lon="1.96415">
        <ele>113.09</ele>
        <time>2019-12-19T09:30:52Z</time>
      </trkpt>
      <trkpt lat="48.60708" lon="1.96413">
        <ele>112.61</ele>
        <time>2019-12-19T09:30:53Z</time>
      </trkpt>
      <trkpt lat="48.60708" lon="1.96411">
        <ele>112.61</ele>
        <time>2019-12-19T09:30:54Z</time>
      </trkpt>
      <trkpt lat="48.60707" lon="1.96409">
        <ele>112.61</ele>
        <time>2019-12-19T09:30:55Z</time>
      </trkpt>
      <trkpt lat="48.60707" lon="1.96407">
        <ele>112.61</ele>
        <time>2019-12-19T09:30:56Z</time>
      </trkpt>
      <trkpt lat="48.60707" lon="1.96405">
        <ele>113.09</ele>
        <time>2019-12-19T09:30:57Z</time>
      </trkpt>
      <trkpt lat="48.60706" lon="1.96403">
        <ele>113.09</ele>
        <time>2019-12-19T09:30:58Z</time>
      </trkpt>
      <trkpt lat="48.60705" lon="1.964">
        <ele>113.09</ele>
        <time>2019-12-19T09:30:59Z</time>
      </trkpt>
      <trkpt lat="48.60704" lon="1.96398">
        <ele>113.09</ele>
        <time>2019-12-19T09:31:00Z</time>
      </trkpt>
      <trkpt lat="48.60704" lon="1.96397">
        <ele>113.09</ele>
        <time>2019-12-19T09:31:01Z</time>
      </trkpt>
      <trkpt lat="48.60703" lon="1.96395">
        <ele>113.09</ele>
        <time>2019-12-19T09:31:02Z</time>
      </trkpt>
      <trkpt lat="48.60703" lon="1.96392">
        <ele>113.57</ele>
        <time>2019-12-19T09:31:03Z</time>
      </trkpt>
      <trkpt lat="48.60702" lon="1.9639">
        <ele>113.57</ele>
        <time>2019-12-19T09:31:04Z</time>
      </trkpt>
      <trkpt lat="48.60702" lon="1.96389">
        <ele>113.09</ele>
        <time>2019-12-19T09:31:05Z</time>
      </trkpt>
      <trkpt lat="48.60702" lon="1.96388">
        <ele>113.09</ele>
        <time>2019-12-19T09:31:06Z</time>
      </trkpt>
      <trkpt lat="48.60702" lon="1.96386">
        <ele>113.09</ele>
        <time>2019-12-19T09:31:07Z</time>
      </trkpt>
      <trkpt lat="48.60701" lon="1.96385">
        <ele>113.57</ele>
        <time>2019-12-19T09:31:08Z</time>
      </trkpt>
      <trkpt lat="48.607" lon="1.96383">
        <ele>113.09</ele>
        <time>2019-12-19T09:31:09Z</time>
      </trkpt>
      <trkpt lat="48.60698" lon="1.96381">
        <ele>113.09</ele>
        <time>2019-12-19T09:31:10Z</time>
      </trkpt>
      <trkpt lat="48.60697" lon="1.96379">
        <ele>113.57</ele>
        <time>2019-12-19T09:31:11Z</time>
      </trkpt>
      <trkpt lat="48.60697" lon="1.96377">
        <ele>113.57</ele>
        <time>2019-12-19T09:31:12Z</time>
      </trkpt>
      <trkpt lat="48.60696" lon="1.96374">
        <ele>113.57</ele>
        <time>2019-12-19T09:31:13Z</time>
      </trkpt>
      <trkpt lat="48.60695" lon="1.96373">
        <ele>113.57</ele>
        <time>2019-12-19T09:31:14Z</time>
      </trkpt>
      <trkpt lat="48.60694" lon="1.96371">
        <ele>113.57</ele>
        <time>2019-12-19T09:31:15Z</time>
      </trkpt>
      <trkpt lat="48.60693" lon="1.96369">
        <ele>113.57</ele>
        <time>2019-12-19T09:31:16Z</time>
      </trkpt>
      <trkpt lat="48.60692" lon="1.96367">
        <ele>113.57</ele>
        <time>2019-12-19T09:31:17Z</time>
      </trkpt>
      <trkpt lat="48.60691" lon="1.96366">
        <ele>113.57</ele>
        <time>2019-12-19T09:31:18Z</time>
      </trkpt>
      <trkpt lat="48.60691" lon="1.96363">
        <ele>113.57</ele>
        <time>2019-12-19T09:31:19Z</time>
      </trkpt>
      <trkpt lat="48.6069" lon="1.96362">
        <ele>114.05</ele>
        <time>2019-12-19T09:31:20Z</time>
      </trkpt>
      <trkpt lat="48.6069" lon="1.9636">
        <ele>114.05</ele>
        <time>2019-12-19T09:31:21Z</time>
      </trkpt>
      <trkpt lat="48.6069" lon="1.96358">
        <ele>114.05</ele>
        <time>2019-12-19T09:31:22Z</time>
      </trkpt>
      <trkpt lat="48.60689" lon="1.96355">
        <ele>113.57</ele>
        <time>2019-12-19T09:31:23Z</time>
      </trkpt>
      <trkpt lat="48.60689" lon="1.96354">
        <ele>114.05</ele>
        <time>2019-12-19T09:31:24Z</time>
      </trkpt>
      <trkpt lat="48.60689" lon="1.96352">
        <ele>114.05</ele>
        <time>2019-12-19T09:31:25Z</time>
      </trkpt>
      <trkpt lat="48.60688" lon="1.9635">
        <ele>114.05</ele>
        <time>2019-12-19T09:31:26Z</time>
      </trkpt>
      <trkpt lat="48.60688" lon="1.96348">
        <ele>114.05</ele>
        <time>2019-12-19T09:31:27Z</time>
      </trkpt>
      <trkpt lat="48.60688" lon="1.96346">
        <ele>114.05</ele>
        <time>2019-12-19T09:31:28Z</time>
      </trkpt>
      <trkpt lat="48.60688" lon="1.96344">
        <ele>114.05</ele>
        <time>2019-12-19T09:31:29Z</time>
      </trkpt>
      <trkpt lat="48.60687" lon="1.96342">
        <ele>114.53</ele>
        <time>2019-12-19T09:31:30Z</time>
      </trkpt>
      <trkpt lat="48.60687" lon="1.9634">
        <ele>114.53</ele>
        <time>2019-12-19T09:31:31Z</time>
      </trkpt>
      <trkpt lat="48.60687" lon="1.96339">
        <ele>114.05</ele>
        <time>2019-12-19T09:31:32Z</time>
      </trkpt>
      <trkpt lat="48.60686" lon="1.96337">
        <ele>114.05</ele>
        <time>2019-12-19T09:31:33Z</time>
      </trkpt>
      <trkpt lat="48.60685" lon="1.96335">
        <ele>114.05</ele>
        <time>2019-12-19T09:31:34Z</time>
      </trkpt>
      <trkpt lat="48.60684" lon="1.96333">
        <ele>114.53</ele>
        <time>2019-12-19T09:31:35Z</time>
      </trkpt>
      <trkpt lat="48.60683" lon="1.96331">
        <ele>114.53</ele>
        <time>2019-12-19T09:31:36Z</time>
      </trkpt>
      <trkpt lat="48.60683" lon="1.96329">
        <ele>114.53</ele>
        <time>2019-12-19T09:31:37Z</time>
      </trkpt>
      <trkpt lat="48.60683" lon="1.96326">
        <ele>114.53</ele>
        <time>2019-12-19T09:31:38Z</time>
      </trkpt>
      <trkpt lat="48.60683" lon="1.96324">
        <ele>114.53</ele>
        <time>2019-12-19T09:31:39Z</time>
      </trkpt>
      <trkpt lat="48.60683" lon="1.96322">
        <ele>114.53</ele>
        <time>2019-12-19T09:31:40Z</time>
      </trkpt>
      <trkpt lat="48.60683" lon="1.96321">
        <ele>114.53</ele>
        <time>2019-12-19T09:31:41Z</time>
      </trkpt>
      <trkpt lat="48.60683" lon="1.96319">
        <ele>114.53</ele>
        <time>2019-12-19T09:31:42Z</time>
      </trkpt>
      <trkpt lat="48.60683" lon="1.96317">
        <ele>115.01</ele>
        <time>2019-12-19T09:31:43Z</time>
      </trkpt>
      <trkpt lat="48.60682" lon="1.96315">
        <ele>115.01</ele>
        <time>2019-12-19T09:31:44Z</time>
      </trkpt>
      <trkpt lat="48.60682" lon="1.96314">
        <ele>114.53</ele>
        <time>2019-12-19T09:31:45Z</time>
      </trkpt>
      <trkpt lat="48.60682" lon="1.96312">
        <ele>114.53</ele>
        <time>2019-12-19T09:31:46Z</time>
      </trkpt>
      <trkpt lat="48.60682" lon="1.9631">
        <ele>114.53</ele>
        <time>2019-12-19T09:31:47Z</time>
      </trkpt>
      <trkpt lat="48.60681" lon="1.96309">
        <ele>115.01</ele>
        <time>2019-12-19T09:31:48Z</time>
      </trkpt>
      <trkpt lat="48.6068" lon="1.96308">
        <ele>115.01</ele>
        <time>2019-12-19T09:31:49Z</time>
      </trkpt>
      <trkpt lat="48.6068" lon="1.96306">
        <ele>114.53</ele>
        <time>2019-12-19T09:31:50Z</time>
      </trkpt>
      <trkpt lat="48.60679" lon="1.96303">
        <ele>114.53</ele>
        <time>2019-12-19T09:31:51Z</time>
      </trkpt>
      <trkpt lat="48.60678" lon="1.963">
        <ele>115.01</ele>
        <time>2019-12-19T09:31:52Z</time>
      </trkpt>
      <trkpt lat="48.60677" lon="1.96299">
        <ele>115.01</ele>
        <time>2019-12-19T09:31:53Z</time>
      </trkpt>
      <trkpt lat="48.60676" lon="1.96297">
        <ele>115.01</ele>
        <time>2019-12-19T09:31:54Z</time>
      </trkpt>
      <trkpt lat="48.60675" lon="1.96295">
        <ele>115.01</ele>
        <time>2019-12-19T09:31:55Z</time>
      </trkpt>
      <trkpt lat="48.60675" lon="1.96293">
        <ele>115.01</ele>
        <time>2019-12-19T09:31:56Z</time>
      </trkpt>
      <trkpt lat="48.60674" lon="1.96292">
        <ele>115.01</ele>
        <time>2019-12-19T09:31:57Z</time>
      </trkpt>
      <trkpt lat="48.60673" lon="1.9629">
        <ele>115.5</ele>
        <time>2019-12-19T09:31:58Z</time>
      </trkpt>
      <trkpt lat="48.60673" lon="1.96288">
        <ele>115.5</ele>
        <time>2019-12-19T09:31:59Z</time>
      </trkpt>
      <trkpt lat="48.60672" lon="1.96286">
        <ele>115.5</ele>
        <time>2019-12-19T09:32:00Z</time>
      </trkpt>
      <trkpt lat="48.60671" lon="1.96284">
        <ele>115.5</ele>
        <time>2019-12-19T09:32:01Z</time>
      </trkpt>
      <trkpt lat="48.6067" lon="1.96282">
        <ele>115.98</ele>
        <time>2019-12-19T09:32:02Z</time>
      </trkpt>
      <trkpt lat="48.60669" lon="1.9628">
        <ele>115.5</ele>
        <time>2019-12-19T09:32:03Z</time>
      </trkpt>
      <trkpt lat="48.60669" lon="1.96278">
        <ele>115.5</ele>
        <time>2019-12-19T09:32:04Z</time>
      </trkpt>
      <trkpt lat="48.60668" lon="1.96277">
        <ele>115.5</ele>
        <time>2019-12-19T09:32:05Z</time>
      </trkpt>
      <trkpt lat="48.60667" lon="1.96276">
        <ele>115.98</ele>
        <time>2019-12-19T09:32:06Z</time>
      </trkpt>
      <trkpt lat="48.60666" lon="1.96274">
        <ele>115.5</ele>
        <time>2019-12-19T09:32:07Z</time>
      </trkpt>
      <trkpt lat="48.60664" lon="1.96273">
        <ele>115.98</ele>
        <time>2019-12-19T09:32:08Z</time>
      </trkpt>
      <trkpt lat="48.60663" lon="1.96272">
        <ele>115.98</ele>
        <time>2019-12-19T09:32:09Z</time>
      </trkpt>
      <trkpt lat="48.60662" lon="1.96269">
        <ele>115.98</ele>
        <time>2019-12-19T09:32:10Z</time>
      </trkpt>
      <trkpt lat="48.60661" lon="1.96267">
        <ele>115.98</ele>
        <time>2019-12-19T09:32:11Z</time>
      </trkpt>
      <trkpt lat="48.6066" lon="1.96266">
        <ele>115.98</ele>
        <time>2019-12-19T09:32:12Z</time>
      </trkpt>
      <trkpt lat="48.60659" lon="1.96264">
        <ele>116.46</ele>
        <time>2019-12-19T09:32:13Z</time>
      </trkpt>
      <trkpt lat="48.60658" lon="1.96262">
        <ele>116.46</ele>
        <time>2019-12-19T09:32:14Z</time>
      </trkpt>
      <trkpt lat="48.60658" lon="1.96261">
        <ele>116.46</ele>
        <time>2019-12-19T09:32:15Z</time>
      </trkpt>
      <trkpt lat="48.60658" lon="1.96259">
        <ele>116.46</ele>
        <time>2019-12-19T09:32:16Z</time>
      </trkpt>
      <trkpt lat="48.60658" lon="1.96257">
        <ele>116.46</ele>
        <time>2019-12-19T09:32:17Z</time>
      </trkpt>
      <trkpt lat="48.60657" lon="1.96256">
        <ele>115.98</ele>
        <time>2019-12-19T09:32:18Z</time>
      </trkpt>
      <trkpt lat="48.60657" lon="1.96254">
        <ele>116.46</ele>
        <time>2019-12-19T09:32:19Z</time>
      </trkpt>
      <trkpt lat="48.60656" lon="1.96253">
        <ele>116.46</ele>
        <time>2019-12-19T09:32:20Z</time>
      </trkpt>
      <trkpt lat="48.60656" lon="1.96251">
        <ele>116.46</ele>
        <time>2019-12-19T09:32:21Z</time>
      </trkpt>
      <trkpt lat="48.60656" lon="1.9625">
        <ele>116.46</ele>
        <time>2019-12-19T09:32:22Z</time>
      </trkpt>
      <trkpt lat="48.60656" lon="1.96248">
        <ele>116.46</ele>
        <time>2019-12-19T09:32:23Z</time>
      </trkpt>
      <trkpt lat="48.60656" lon="1.96248">
        <ele>116.46</ele>
        <time>2019-12-19T09:32:24Z</time>
      </trkpt>
      <trkpt lat="48.60655" lon="1.96248">
        <ele>116.46</ele>
        <time>2019-12-19T09:32:29Z</time>
      </trkpt>
      <trkpt lat="48.60655" lon="1.96248">
        <ele>116.46</ele>
        <time>2019-12-19T09:32:30Z</time>
      </trkpt>
      <trkpt lat="48.60655" lon="1.96248">
        <ele>116.46</ele>
        <time>2019-12-19T09:32:31Z</time>
      </trkpt>
      <trkpt lat="48.60655" lon="1.96248">
        <ele>116.46</ele>
        <time>2019-12-19T09:32:46Z</time>
      </trkpt>
      <trkpt lat="48.60655" lon="1.96249">
        <ele>116.46</ele>
        <time>2019-12-19T09:32:47Z</time>
      </trkpt>
      <trkpt lat="48.60655" lon="1.96249">
        <ele>116.46</ele>
        <time>2019-12-19T09:32:48Z</time>
      </trkpt>
      <trkpt lat="48.60655" lon="1.96248">
        <ele>115.98</ele>
        <time>2019-12-19T09:32:56Z</time>
      </trkpt>
      <trkpt lat="48.60655" lon="1.96248">
        <ele>115.98</ele>
        <time>2019-12-19T09:32:57Z</time>
      </trkpt>
      <trkpt lat="48.60655" lon="1.96248">
        <ele>116.46</ele>
        <time>2019-12-19T09:33:01Z</time>
      </trkpt>
      <trkpt lat="48.60654" lon="1.96247">
        <ele>116.46</ele>
        <time>2019-12-19T09:33:02Z</time>
      </trkpt>
      <trkpt lat="48.60654" lon="1.96247">
        <ele>116.46</ele>
        <time>2019-12-19T09:33:03Z</time>
      </trkpt>
      <trkpt lat="48.60654" lon="1.96246">
        <ele>116.46</ele>
        <time>2019-12-19T09:33:05Z</time>
      </trkpt>
      <trkpt lat="48.60654" lon="1.96245">
        <ele>116.46</ele>
        <time>2019-12-19T09:33:06Z</time>
      </trkpt>
      <trkpt lat="48.60655" lon="1.96244">
        <ele>116.46</ele>
        <time>2019-12-19T09:33:07Z</time>
      </trkpt>
      <trkpt lat="48.60656" lon="1.96243">
        <ele>116.46</ele>
        <time>2019-12-19T09:33:08Z</time>
      </trkpt>
      <trkpt lat="48.60657" lon="1.96243">
        <ele>116.46</ele>
        <time>2019-12-19T09:33:09Z</time>
      </trkpt>
      <trkpt lat="48.60658" lon="1.96242">
        <ele>116.46</ele>
        <time>2019-12-19T09:33:10Z</time>
      </trkpt>
      <trkpt lat="48.60658" lon="1.96242">
        <ele>116.46</ele>
        <time>2019-12-19T09:33:11Z</time>
      </trkpt>
      <trkpt lat="48.60658" lon="1.96242">
        <ele>116.46</ele>
        <time>2019-12-19T09:33:12Z</time>
      </trkpt>
      <trkpt lat="48.60658" lon="1.96241">
        <ele>115.98</ele>
        <time>2019-12-19T09:33:13Z</time>
      </trkpt>
      <trkpt lat="48.60659" lon="1.96241">
        <ele>115.98</ele>
        <time>2019-12-19T09:33:14Z</time>
      </trkpt>
      <trkpt lat="48.6066" lon="1.9624">
        <ele>115.98</ele>
        <time>2019-12-19T09:33:15Z</time>
      </trkpt>
      <trkpt lat="48.60661" lon="1.96239">
        <ele>115.98</ele>
        <time>2019-12-19T09:33:16Z</time>
      </trkpt>
      <trkpt lat="48.60662" lon="1.96236">
        <ele>115.98</ele>
        <time>2019-12-19T09:33:17Z</time>
      </trkpt>
      <trkpt lat="48.60663" lon="1.96234">
        <ele>115.98</ele>
        <time>2019-12-19T09:33:18Z</time>
      </trkpt>
      <trkpt lat="48.60664" lon="1.96233">
        <ele>115.98</ele>
        <time>2019-12-19T09:33:19Z</time>
      </trkpt>
      <trkpt lat="48.60664" lon="1.96231">
        <ele>115.98</ele>
        <time>2019-12-19T09:33:20Z</time>
      </trkpt>
      <trkpt lat="48.60664" lon="1.96229">
        <ele>115.98</ele>
        <time>2019-12-19T09:33:21Z</time>
      </trkpt>
      <trkpt lat="48.60665" lon="1.96228">
        <ele>115.5</ele>
        <time>2019-12-19T09:33:22Z</time>
      </trkpt>
      <trkpt lat="48.60666" lon="1.96225">
        <ele>115.5</ele>
        <time>2019-12-19T09:33:23Z</time>
      </trkpt>
      <trkpt lat="48.60667" lon="1.96222">
        <ele>115.5</ele>
        <time>2019-12-19T09:33:24Z</time>
      </trkpt>
      <trkpt lat="48.60667" lon="1.9622">
        <ele>115.5</ele>
        <time>2019-12-19T09:33:25Z</time>
      </trkpt>
      <trkpt lat="48.60668" lon="1.96218">
        <ele>115.5</ele>
        <time>2019-12-19T09:33:26Z</time>
      </trkpt>
      <trkpt lat="48.60668" lon="1.96216">
        <ele>115.01</ele>
        <time>2019-12-19T09:33:27Z</time>
      </trkpt>
      <trkpt lat="48.60669" lon="1.96214">
        <ele>115.01</ele>
        <time>2019-12-19T09:33:28Z</time>
      </trkpt>
      <trkpt lat="48.6067" lon="1.96212">
        <ele>115.01</ele>
        <time>2019-12-19T09:33:29Z</time>
      </trkpt>
      <trkpt lat="48.6067" lon="1.9621">
        <ele>115.01</ele>
        <time>2019-12-19T09:33:30Z</time>
      </trkpt>
      <trkpt lat="48.60671" lon="1.96207">
        <ele>115.01</ele>
        <time>2019-12-19T09:33:31Z</time>
      </trkpt>
      <trkpt lat="48.60672" lon="1.96203">
        <ele>115.01</ele>
        <time>2019-12-19T09:33:32Z</time>
      </trkpt>
      <trkpt lat="48.60673" lon="1.962">
        <ele>114.53</ele>
        <time>2019-12-19T09:33:33Z</time>
      </trkpt>
      <trkpt lat="48.60673" lon="1.96197">
        <ele>114.53</ele>
        <time>2019-12-19T09:33:34Z</time>
      </trkpt>
      <trkpt lat="48.60673" lon="1.96194">
        <ele>114.05</ele>
        <time>2019-12-19T09:33:35Z</time>
      </trkpt>
      <trkpt lat="48.60673" lon="1.96194">
        <ele>115.5</ele>
        <time>2019-12-19T09:33:36Z</time>
      </trkpt>
      <trkpt lat="48.60673" lon="1.96194">
        <ele>114.05</ele>
        <time>2019-12-19T09:33:37Z</time>
      </trkpt>
      <trkpt lat="48.60674" lon="1.96193">
        <ele>113.57</ele>
        <time>2019-12-19T09:33:38Z</time>
      </trkpt>
      <trkpt lat="48.60675" lon="1.96193">
        <ele>113.57</ele>
        <time>2019-12-19T09:33:39Z</time>
      </trkpt>
      <trkpt lat="48.60675" lon="1.96192">
        <ele>113.09</ele>
        <time>2019-12-19T09:33:40Z</time>
      </trkpt>
      <trkpt lat="48.60676" lon="1.96191">
        <ele>113.09</ele>
        <time>2019-12-19T09:33:41Z</time>
      </trkpt>
      <trkpt lat="48.60677" lon="1.96189">
        <ele>113.09</ele>
        <time>2019-12-19T09:33:42Z</time>
      </trkpt>
      <trkpt lat="48.60678" lon="1.96188">
        <ele>112.61</ele>
        <time>2019-12-19T09:33:43Z</time>
      </trkpt>
      <trkpt lat="48.60679" lon="1.96186">
        <ele>112.61</ele>
        <time>2019-12-19T09:33:44Z</time>
      </trkpt>
      <trkpt lat="48.6068" lon="1.96184">
        <ele>112.13</ele>
        <time>2019-12-19T09:33:45Z</time>
      </trkpt>
      <trkpt lat="48.6068" lon="1.96182">
        <ele>112.13</ele>
        <time>2019-12-19T09:33:46Z</time>
      </trkpt>
      <trkpt lat="48.60681" lon="1.96181">
        <ele>111.65</ele>
        <time>2019-12-19T09:33:47Z</time>
      </trkpt>
      <trkpt lat="48.60682" lon="1.9618">
        <ele>111.65</ele>
        <time>2019-12-19T09:33:48Z</time>
      </trkpt>
      <trkpt lat="48.60682" lon="1.96179">
        <ele>111.17</ele>
        <time>2019-12-19T09:33:49Z</time>
      </trkpt>
      <trkpt lat="48.60683" lon="1.96177">
        <ele>111.17</ele>
        <time>2019-12-19T09:33:50Z</time>
      </trkpt>
      <trkpt lat="48.60684" lon="1.96176">
        <ele>111.17</ele>
        <time>2019-12-19T09:33:51Z</time>
      </trkpt>
      <trkpt lat="48.60684" lon="1.96175">
        <ele>110.69</ele>
        <time>2019-12-19T09:33:52Z</time>
      </trkpt>
      <trkpt lat="48.60684" lon="1.96173">
        <ele>110.69</ele>
        <time>2019-12-19T09:33:53Z</time>
      </trkpt>
      <trkpt lat="48.60685" lon="1.96172">
        <ele>110.21</ele>
        <time>2019-12-19T09:33:54Z</time>
      </trkpt>
      <trkpt lat="48.60686" lon="1.9617">
        <ele>110.21</ele>
        <time>2019-12-19T09:33:55Z</time>
      </trkpt>
      <trkpt lat="48.60687" lon="1.96169">
        <ele>110.21</ele>
        <time>2019-12-19T09:33:56Z</time>
      </trkpt>
      <trkpt lat="48.60689" lon="1.96167">
        <ele>109.73</ele>
        <time>2019-12-19T09:33:57Z</time>
      </trkpt>
      <trkpt lat="48.6069" lon="1.96164">
        <ele>109.73</ele>
        <time>2019-12-19T09:33:58Z</time>
      </trkpt>
      <trkpt lat="48.60691" lon="1.96162">
        <ele>109.73</ele>
        <time>2019-12-19T09:33:59Z</time>
      </trkpt>
      <trkpt lat="48.60692" lon="1.9616">
        <ele>109.25</ele>
        <time>2019-12-19T09:34:00Z</time>
      </trkpt>
      <trkpt lat="48.60694" lon="1.96158">
        <ele>109.25</ele>
        <time>2019-12-19T09:34:01Z</time>
      </trkpt>
      <trkpt lat="48.60695" lon="1.96157">
        <ele>109.25</ele>
        <time>2019-12-19T09:34:02Z</time>
      </trkpt>
      <trkpt lat="48.60696" lon="1.96155">
        <ele>109.25</ele>
        <time>2019-12-19T09:34:03Z</time>
      </trkpt>
      <trkpt lat="48.60697" lon="1.96154">
        <ele>109.25</ele>
        <time>2019-12-19T09:34:04Z</time>
      </trkpt>
      <trkpt lat="48.60698" lon="1.96152">
        <ele>109.25</ele>
        <time>2019-12-19T09:34:05Z</time>
      </trkpt>
      <trkpt lat="48.60699" lon="1.96151">
        <ele>109.25</ele>
        <time>2019-12-19T09:34:06Z</time>
      </trkpt>
      <trkpt lat="48.607" lon="1.96149">
        <ele>109.25</ele>
        <time>2019-12-19T09:34:07Z</time>
      </trkpt>
      <trkpt lat="48.607" lon="1.96147">
        <ele>108.77</ele>
        <time>2019-12-19T09:34:08Z</time>
      </trkpt>
      <trkpt lat="48.60701" lon="1.96145">
        <ele>108.77</ele>
        <time>2019-12-19T09:34:09Z</time>
      </trkpt>
      <trkpt lat="48.60702" lon="1.96143">
        <ele>108.29</ele>
        <time>2019-12-19T09:34:10Z</time>
      </trkpt>
      <trkpt lat="48.60703" lon="1.96141">
        <ele>108.29</ele>
        <time>2019-12-19T09:34:11Z</time>
      </trkpt>
      <trkpt lat="48.60703" lon="1.9614">
        <ele>108.29</ele>
        <time>2019-12-19T09:34:12Z</time>
      </trkpt>
      <trkpt lat="48.60704" lon="1.96138">
        <ele>108.29</ele>
        <time>2019-12-19T09:34:13Z</time>
      </trkpt>
      <trkpt lat="48.60704" lon="1.96136">
        <ele>108.29</ele>
        <time>2019-12-19T09:34:14Z</time>
      </trkpt>
      <trkpt lat="48.60705" lon="1.96135">
        <ele>107.81</ele>
        <time>2019-12-19T09:34:15Z</time>
      </trkpt>
      <trkpt lat="48.60706" lon="1.96134">
        <ele>108.29</ele>
        <time>2019-12-19T09:34:16Z</time>
      </trkpt>
      <trkpt lat="48.60706" lon="1.96132">
        <ele>107.81</ele>
        <time>2019-12-19T09:34:17Z</time>
      </trkpt>
      <trkpt lat="48.60707" lon="1.96131">
        <ele>107.81</ele>
        <time>2019-12-19T09:34:18Z</time>
      </trkpt>
      <trkpt lat="48.60707" lon="1.96129">
        <ele>107.32</ele>
        <time>2019-12-19T09:34:19Z</time>
      </trkpt>
      <trkpt lat="48.60708" lon="1.96128">
        <ele>107.32</ele>
        <time>2019-12-19T09:34:20Z</time>
      </trkpt>
      <trkpt lat="48.60708" lon="1.96126">
        <ele>107.81</ele>
        <time>2019-12-19T09:34:21Z</time>
      </trkpt>
      <trkpt lat="48.60708" lon="1.96124">
        <ele>107.81</ele>
        <time>2019-12-19T09:34:22Z</time>
      </trkpt>
      <trkpt lat="48.60709" lon="1.96122">
        <ele>107.32</ele>
        <time>2019-12-19T09:34:23Z</time>
      </trkpt>
      <trkpt lat="48.60709" lon="1.9612">
        <ele>107.32</ele>
        <time>2019-12-19T09:34:24Z</time>
      </trkpt>
      <trkpt lat="48.6071" lon="1.96119">
        <ele>107.32</ele>
        <time>2019-12-19T09:34:25Z</time>
      </trkpt>
      <trkpt lat="48.60711" lon="1.96117">
        <ele>107.32</ele>
        <time>2019-12-19T09:34:26Z</time>
      </trkpt>
      <trkpt lat="48.60712" lon="1.96116">
        <ele>107.32</ele>
        <time>2019-12-19T09:34:27Z</time>
      </trkpt>
      <trkpt lat="48.60713" lon="1.96115">
        <ele>107.32</ele>
        <time>2019-12-19T09:34:28Z</time>
      </trkpt>
      <trkpt lat="48.60714" lon="1.96115">
        <ele>106.84</ele>
        <time>2019-12-19T09:34:29Z</time>
      </trkpt>
      <trkpt lat="48.60715" lon="1.96115">
        <ele>106.84</ele>
        <time>2019-12-19T09:34:30Z</time>
      </trkpt>
      <trkpt lat="48.60716" lon="1.96114">
        <ele>106.84</ele>
        <time>2019-12-19T09:34:31Z</time>
      </trkpt>
      <trkpt lat="48.60717" lon="1.96112">
        <ele>106.84</ele>
        <time>2019-12-19T09:34:32Z</time>
      </trkpt>
      <trkpt lat="48.60717" lon="1.96112">
        <ele>106.84</ele>
        <time>2019-12-19T09:34:33Z</time>
      </trkpt>
      <trkpt lat="48.60718" lon="1.96111">
        <ele>106.36</ele>
        <time>2019-12-19T09:34:34Z</time>
      </trkpt>
      <trkpt lat="48.60718" lon="1.9611">
        <ele>106.84</ele>
        <time>2019-12-19T09:34:35Z</time>
      </trkpt>
      <trkpt lat="48.60719" lon="1.96108">
        <ele>106.84</ele>
        <time>2019-12-19T09:34:36Z</time>
      </trkpt>
      <trkpt lat="48.60719" lon="1.96106">
        <ele>106.84</ele>
        <time>2019-12-19T09:34:37Z</time>
      </trkpt>
      <trkpt lat="48.6072" lon="1.96105">
        <ele>106.84</ele>
        <time>2019-12-19T09:34:38Z</time>
      </trkpt>
      <trkpt lat="48.60721" lon="1.96103">
        <ele>106.84</ele>
        <time>2019-12-19T09:34:39Z</time>
      </trkpt>
      <trkpt lat="48.60721" lon="1.96102">
        <ele>106.84</ele>
        <time>2019-12-19T09:34:40Z</time>
      </trkpt>
      <trkpt lat="48.60722" lon="1.96101">
        <ele>106.84</ele>
        <time>2019-12-19T09:34:41Z</time>
      </trkpt>
      <trkpt lat="48.60722" lon="1.961">
        <ele>106.84</ele>
        <time>2019-12-19T09:34:42Z</time>
      </trkpt>
      <trkpt lat="48.60723" lon="1.96099">
        <ele>106.84</ele>
        <time>2019-12-19T09:34:43Z</time>
      </trkpt>
      <trkpt lat="48.60724" lon="1.96097">
        <ele>106.84</ele>
        <time>2019-12-19T09:34:44Z</time>
      </trkpt>
      <trkpt lat="48.60725" lon="1.96095">
        <ele>106.84</ele>
        <time>2019-12-19T09:34:45Z</time>
      </trkpt>
      <trkpt lat="48.60726" lon="1.96093">
        <ele>106.36</ele>
        <time>2019-12-19T09:34:46Z</time>
      </trkpt>
      <trkpt lat="48.60727" lon="1.96091">
        <ele>106.84</ele>
        <time>2019-12-19T09:34:47Z</time>
      </trkpt>
      <trkpt lat="48.60728" lon="1.96089">
        <ele>106.36</ele>
        <time>2019-12-19T09:34:48Z</time>
      </trkpt>
      <trkpt lat="48.60729" lon="1.96088">
        <ele>106.36</ele>
        <time>2019-12-19T09:34:49Z</time>
      </trkpt>
      <trkpt lat="48.6073" lon="1.96087">
        <ele>106.36</ele>
        <time>2019-12-19T09:34:50Z</time>
      </trkpt>
      <trkpt lat="48.60731" lon="1.96087">
        <ele>106.36</ele>
        <time>2019-12-19T09:34:51Z</time>
      </trkpt>
      <trkpt lat="48.60731" lon="1.96086">
        <ele>106.36</ele>
        <time>2019-12-19T09:34:52Z</time>
      </trkpt>
      <trkpt lat="48.60732" lon="1.96085">
        <ele>106.36</ele>
        <time>2019-12-19T09:34:53Z</time>
      </trkpt>
      <trkpt lat="48.60732" lon="1.96084">
        <ele>106.36</ele>
        <time>2019-12-19T09:34:54Z</time>
      </trkpt>
      <trkpt lat="48.60733" lon="1.96082">
        <ele>106.36</ele>
        <time>2019-12-19T09:34:55Z</time>
      </trkpt>
      <trkpt lat="48.60733" lon="1.96081">
        <ele>105.88</ele>
        <time>2019-12-19T09:34:56Z</time>
      </trkpt>
      <trkpt lat="48.60734" lon="1.96079">
        <ele>105.88</ele>
        <time>2019-12-19T09:34:57Z</time>
      </trkpt>
      <trkpt lat="48.60734" lon="1.96077">
        <ele>105.88</ele>
        <time>2019-12-19T09:34:58Z</time>
      </trkpt>
      <trkpt lat="48.60735" lon="1.96076">
        <ele>105.88</ele>
        <time>2019-12-19T09:34:59Z</time>
      </trkpt>
      <trkpt lat="48.60735" lon="1.96075">
        <ele>105.4</ele>
        <time>2019-12-19T09:35:00Z</time>
      </trkpt>
      <trkpt lat="48.60736" lon="1.96073">
        <ele>105.4</ele>
        <time>2019-12-19T09:35:01Z</time>
      </trkpt>
      <trkpt lat="48.60736" lon="1.96071">
        <ele>105.4</ele>
        <time>2019-12-19T09:35:02Z</time>
      </trkpt>
      <trkpt lat="48.60736" lon="1.9607">
        <ele>105.4</ele>
        <time>2019-12-19T09:35:03Z</time>
      </trkpt>
      <trkpt lat="48.60736" lon="1.96068">
        <ele>105.4</ele>
        <time>2019-12-19T09:35:04Z</time>
      </trkpt>
      <trkpt lat="48.60736" lon="1.96065">
        <ele>105.4</ele>
        <time>2019-12-19T09:35:05Z</time>
      </trkpt>
      <trkpt lat="48.60737" lon="1.96065">
        <ele>104.92</ele>
        <time>2019-12-19T09:35:06Z</time>
      </trkpt>
      <trkpt lat="48.60737" lon="1.96061">
        <ele>104.92</ele>
        <time>2019-12-19T09:35:07Z</time>
      </trkpt>
      <trkpt lat="48.60738" lon="1.96059">
        <ele>104.92</ele>
        <time>2019-12-19T09:35:08Z</time>
      </trkpt>
      <trkpt lat="48.60739" lon="1.96058">
        <ele>104.92</ele>
        <time>2019-12-19T09:35:09Z</time>
      </trkpt>
      <trkpt lat="48.6074" lon="1.96056">
        <ele>104.92</ele>
        <time>2019-12-19T09:35:10Z</time>
      </trkpt>
      <trkpt lat="48.60741" lon="1.96055">
        <ele>104.92</ele>
        <time>2019-12-19T09:35:11Z</time>
      </trkpt>
      <trkpt lat="48.60742" lon="1.96053">
        <ele>104.44</ele>
        <time>2019-12-19T09:35:12Z</time>
      </trkpt>
      <trkpt lat="48.60742" lon="1.96052">
        <ele>104.44</ele>
        <time>2019-12-19T09:35:13Z</time>
      </trkpt>
      <trkpt lat="48.60743" lon="1.96049">
        <ele>103.96</ele>
        <time>2019-12-19T09:35:14Z</time>
      </trkpt>
      <trkpt lat="48.60743" lon="1.96046">
        <ele>103.96</ele>
        <time>2019-12-19T09:35:15Z</time>
      </trkpt>
      <trkpt lat="48.60743" lon="1.96044">
        <ele>103.48</ele>
        <time>2019-12-19T09:35:16Z</time>
      </trkpt>
      <trkpt lat="48.60743" lon="1.96042">
        <ele>103.48</ele>
        <time>2019-12-19T09:35:17Z</time>
      </trkpt>
      <trkpt lat="48.60743" lon="1.96041">
        <ele>103.48</ele>
        <time>2019-12-19T09:35:18Z</time>
      </trkpt>
      <trkpt lat="48.60743" lon="1.96039">
        <ele>103.48</ele>
        <time>2019-12-19T09:35:19Z</time>
      </trkpt>
      <trkpt lat="48.60742" lon="1.96038">
        <ele>103</ele>
        <time>2019-12-19T09:35:20Z</time>
      </trkpt>
      <trkpt lat="48.60741" lon="1.96037">
        <ele>103</ele>
        <time>2019-12-19T09:35:21Z</time>
      </trkpt>
      <trkpt lat="48.60741" lon="1.96036">
        <ele>103</ele>
        <time>2019-12-19T09:35:22Z</time>
      </trkpt>
      <trkpt lat="48.6074" lon="1.96034">
        <ele>103</ele>
        <time>2019-12-19T09:35:23Z</time>
      </trkpt>
      <trkpt lat="48.60739" lon="1.96033">
        <ele>103</ele>
        <time>2019-12-19T09:35:24Z</time>
      </trkpt>
      <trkpt lat="48.60738" lon="1.96032">
        <ele>103</ele>
        <time>2019-12-19T09:35:25Z</time>
      </trkpt>
      <trkpt lat="48.60737" lon="1.96031">
        <ele>103</ele>
        <time>2019-12-19T09:35:26Z</time>
      </trkpt>
      <trkpt lat="48.60736" lon="1.96028">
        <ele>102.52</ele>
        <time>2019-12-19T09:35:27Z</time>
      </trkpt>
      <trkpt lat="48.60734" lon="1.96025">
        <ele>102.52</ele>
        <time>2019-12-19T09:35:28Z</time>
      </trkpt>
      <trkpt lat="48.60733" lon="1.96024">
        <ele>102.52</ele>
        <time>2019-12-19T09:35:29Z</time>
      </trkpt>
      <trkpt lat="48.60731" lon="1.96022">
        <ele>102.52</ele>
        <time>2019-12-19T09:35:30Z</time>
      </trkpt>
      <trkpt lat="48.6073" lon="1.9602">
        <ele>102.52</ele>
        <time>2019-12-19T09:35:31Z</time>
      </trkpt>
      <trkpt lat="48.6073" lon="1.9602">
        <ele>102.04</ele>
        <time>2019-12-19T09:35:32Z</time>
      </trkpt>
      <trkpt lat="48.60728" lon="1.96011">
        <ele>102.04</ele>
        <time>2019-12-19T09:35:33Z</time>
      </trkpt>
      <trkpt lat="48.60727" lon="1.96009">
        <ele>102.04</ele>
        <time>2019-12-19T09:35:34Z</time>
      </trkpt>
      <trkpt lat="48.60726" lon="1.96006">
        <ele>102.04</ele>
        <time>2019-12-19T09:35:35Z</time>
      </trkpt>
      <trkpt lat="48.60724" lon="1.96003">
        <ele>103</ele>
        <time>2019-12-19T09:35:36Z</time>
      </trkpt>
      <trkpt lat="48.60723" lon="1.96001">
        <ele>102.04</ele>
        <time>2019-12-19T09:35:37Z</time>
      </trkpt>
      <trkpt lat="48.60722" lon="1.96">
        <ele>101.56</ele>
        <time>2019-12-19T09:35:38Z</time>
      </trkpt>
      <trkpt lat="48.60721" lon="1.95999">
        <ele>102.52</ele>
        <time>2019-12-19T09:35:39Z</time>
      </trkpt>
      <trkpt lat="48.60721" lon="1.95998">
        <ele>102.04</ele>
        <time>2019-12-19T09:35:40Z</time>
      </trkpt>
      <trkpt lat="48.60719" lon="1.95997">
        <ele>102.04</ele>
        <time>2019-12-19T09:35:41Z</time>
      </trkpt>
      <trkpt lat="48.60718" lon="1.95996">
        <ele>102.04</ele>
        <time>2019-12-19T09:35:42Z</time>
      </trkpt>
      <trkpt lat="48.60717" lon="1.95995">
        <ele>102.04</ele>
        <time>2019-12-19T09:35:43Z</time>
      </trkpt>
      <trkpt lat="48.60717" lon="1.95994">
        <ele>101.56</ele>
        <time>2019-12-19T09:35:44Z</time>
      </trkpt>
      <trkpt lat="48.60717" lon="1.95994">
        <ele>102.04</ele>
        <time>2019-12-19T09:35:45Z</time>
      </trkpt>
      <trkpt lat="48.60717" lon="1.95993">
        <ele>101.56</ele>
        <time>2019-12-19T09:35:46Z</time>
      </trkpt>
      <trkpt lat="48.60716" lon="1.95992">
        <ele>102.04</ele>
        <time>2019-12-19T09:35:47Z</time>
      </trkpt>
      <trkpt lat="48.60716" lon="1.9599">
        <ele>101.56</ele>
        <time>2019-12-19T09:35:48Z</time>
      </trkpt>
      <trkpt lat="48.60715" lon="1.95989">
        <ele>101.56</ele>
        <time>2019-12-19T09:35:49Z</time>
      </trkpt>
      <trkpt lat="48.60715" lon="1.95987">
        <ele>102.04</ele>
        <time>2019-12-19T09:35:50Z</time>
      </trkpt>
      <trkpt lat="48.60714" lon="1.95986">
        <ele>101.56</ele>
        <time>2019-12-19T09:35:51Z</time>
      </trkpt>
      <trkpt lat="48.60713" lon="1.95985">
        <ele>101.56</ele>
        <time>2019-12-19T09:35:52Z</time>
      </trkpt>
      <trkpt lat="48.60712" lon="1.95984">
        <ele>101.56</ele>
        <time>2019-12-19T09:35:53Z</time>
      </trkpt>
      <trkpt lat="48.60711" lon="1.95983">
        <ele>101.08</ele>
        <time>2019-12-19T09:35:54Z</time>
      </trkpt>
      <trkpt lat="48.6071" lon="1.95982">
        <ele>102.04</ele>
        <time>2019-12-19T09:35:55Z</time>
      </trkpt>
      <trkpt lat="48.6071" lon="1.95981">
        <ele>101.08</ele>
        <time>2019-12-19T09:35:56Z</time>
      </trkpt>
      <trkpt lat="48.60709" lon="1.9598">
        <ele>101.08</ele>
        <time>2019-12-19T09:35:57Z</time>
      </trkpt>
      <trkpt lat="48.60708" lon="1.95979">
        <ele>101.08</ele>
        <time>2019-12-19T09:35:58Z</time>
      </trkpt>
      <trkpt lat="48.60708" lon="1.95978">
        <ele>100.6</ele>
        <time>2019-12-19T09:35:59Z</time>
      </trkpt>
      <trkpt lat="48.60707" lon="1.95977">
        <ele>101.08</ele>
        <time>2019-12-19T09:36:00Z</time>
      </trkpt>
      <trkpt lat="48.60706" lon="1.95976">
        <ele>101.08</ele>
        <time>2019-12-19T09:36:01Z</time>
      </trkpt>
      <trkpt lat="48.60705" lon="1.95975">
        <ele>100.6</ele>
        <time>2019-12-19T09:36:02Z</time>
      </trkpt>
      <trkpt lat="48.60704" lon="1.95974">
        <ele>100.6</ele>
        <time>2019-12-19T09:36:03Z</time>
      </trkpt>
      <trkpt lat="48.60703" lon="1.95974">
        <ele>100.6</ele>
        <time>2019-12-19T09:36:04Z</time>
      </trkpt>
      <trkpt lat="48.60702" lon="1.95973">
        <ele>100.6</ele>
        <time>2019-12-19T09:36:05Z</time>
      </trkpt>
      <trkpt lat="48.60701" lon="1.95973">
        <ele>101.08</ele>
        <time>2019-12-19T09:36:06Z</time>
      </trkpt>
      <trkpt lat="48.607" lon="1.95972">
        <ele>100.6</ele>
        <time>2019-12-19T09:36:07Z</time>
      </trkpt>
      <trkpt lat="48.60699" lon="1.95971">
        <ele>100.6</ele>
        <time>2019-12-19T09:36:08Z</time>
      </trkpt>
      <trkpt lat="48.60698" lon="1.95969">
        <ele>100.6</ele>
        <time>2019-12-19T09:36:09Z</time>
      </trkpt>
      <trkpt lat="48.60697" lon="1.95968">
        <ele>101.08</ele>
        <time>2019-12-19T09:36:10Z</time>
      </trkpt>
      <trkpt lat="48.60695" lon="1.95966">
        <ele>100.11</ele>
        <time>2019-12-19T09:36:11Z</time>
      </trkpt>
      <trkpt lat="48.60694" lon="1.95964">
        <ele>100.6</ele>
        <time>2019-12-19T09:36:12Z</time>
      </trkpt>
      <trkpt lat="48.60692" lon="1.95962">
        <ele>100.6</ele>
        <time>2019-12-19T09:36:13Z</time>
      </trkpt>
      <trkpt lat="48.60691" lon="1.95961">
        <ele>100.11</ele>
        <time>2019-12-19T09:36:14Z</time>
      </trkpt>
      <trkpt lat="48.60689" lon="1.9596">
        <ele>100.6</ele>
        <time>2019-12-19T09:36:15Z</time>
      </trkpt>
      <trkpt lat="48.60688" lon="1.95959">
        <ele>100.11</ele>
        <time>2019-12-19T09:36:16Z</time>
      </trkpt>
      <trkpt lat="48.60687" lon="1.95957">
        <ele>100.11</ele>
        <time>2019-12-19T09:36:17Z</time>
      </trkpt>
      <trkpt lat="48.60686" lon="1.95955">
        <ele>100.11</ele>
        <time>2019-12-19T09:36:18Z</time>
      </trkpt>
      <trkpt lat="48.60685" lon="1.95954">
        <ele>100.11</ele>
        <time>2019-12-19T09:36:19Z</time>
      </trkpt>
      <trkpt lat="48.60683" lon="1.95953">
        <ele>100.11</ele>
        <time>2019-12-19T09:36:20Z</time>
      </trkpt>
      <trkpt lat="48.60682" lon="1.95951">
        <ele>100.6</ele>
        <time>2019-12-19T09:36:21Z</time>
      </trkpt>
      <trkpt lat="48.60681" lon="1.95949">
        <ele>100.11</ele>
        <time>2019-12-19T09:36:22Z</time>
      </trkpt>
      <trkpt lat="48.60679" lon="1.95947">
        <ele>100.11</ele>
        <time>2019-12-19T09:36:23Z</time>
      </trkpt>
      <trkpt lat="48.60678" lon="1.95946">
        <ele>99.63</ele>
        <time>2019-12-19T09:36:24Z</time>
      </trkpt>
      <trkpt lat="48.60677" lon="1.95945">
        <ele>100.11</ele>
        <time>2019-12-19T09:36:25Z</time>
      </trkpt>
      <trkpt lat="48.60675" lon="1.95943">
        <ele>99.63</ele>
        <time>2019-12-19T09:36:26Z</time>
      </trkpt>
      <trkpt lat="48.60674" lon="1.95942">
        <ele>100.11</ele>
        <time>2019-12-19T09:36:27Z</time>
      </trkpt>
      <trkpt lat="48.60672" lon="1.9594">
        <ele>100.11</ele>
        <time>2019-12-19T09:36:28Z</time>
      </trkpt>
      <trkpt lat="48.60671" lon="1.95939">
        <ele>100.11</ele>
        <time>2019-12-19T09:36:29Z</time>
      </trkpt>
      <trkpt lat="48.6067" lon="1.95938">
        <ele>99.63</ele>
        <time>2019-12-19T09:36:30Z</time>
      </trkpt>
      <trkpt lat="48.60669" lon="1.95937">
        <ele>99.63</ele>
        <time>2019-12-19T09:36:31Z</time>
      </trkpt>
      <trkpt lat="48.60668" lon="1.95935">
        <ele>100.11</ele>
        <time>2019-12-19T09:36:32Z</time>
      </trkpt>
      <trkpt lat="48.60666" lon="1.95935">
        <ele>99.63</ele>
        <time>2019-12-19T09:36:33Z</time>
      </trkpt>
      <trkpt lat="48.60665" lon="1.95934">
        <ele>99.63</ele>
        <time>2019-12-19T09:36:34Z</time>
      </trkpt>
      <trkpt lat="48.60665" lon="1.95934">
        <ele>99.63</ele>
        <time>2019-12-19T09:36:35Z</time>
      </trkpt>
      <trkpt lat="48.60664" lon="1.95934">
        <ele>99.63</ele>
        <time>2019-12-19T09:36:36Z</time>
      </trkpt>
      <trkpt lat="48.60664" lon="1.95934">
        <ele>99.63</ele>
        <time>2019-12-19T09:36:37Z</time>
      </trkpt>
      <trkpt lat="48.60663" lon="1.95934">
        <ele>99.63</ele>
        <time>2019-12-19T09:36:38Z</time>
      </trkpt>
      <trkpt lat="48.60663" lon="1.95935">
        <ele>99.63</ele>
        <time>2019-12-19T09:36:39Z</time>
      </trkpt>
      <trkpt lat="48.60663" lon="1.95935">
        <ele>100.11</ele>
        <time>2019-12-19T09:36:40Z</time>
      </trkpt>
      <trkpt lat="48.60663" lon="1.95934">
        <ele>100.6</ele>
        <time>2019-12-19T09:36:41Z</time>
      </trkpt>
      <trkpt lat="48.60663" lon="1.95934">
        <ele>100.11</ele>
        <time>2019-12-19T09:36:42Z</time>
      </trkpt>
      <trkpt lat="48.60663" lon="1.95933">
        <ele>100.11</ele>
        <time>2019-12-19T09:36:43Z</time>
      </trkpt>
      <trkpt lat="48.60663" lon="1.95932">
        <ele>100.11</ele>
        <time>2019-12-19T09:36:44Z</time>
      </trkpt>
      <trkpt lat="48.60663" lon="1.95931">
        <ele>100.11</ele>
        <time>2019-12-19T09:36:45Z</time>
      </trkpt>
      <trkpt lat="48.60663" lon="1.95928">
        <ele>100.11</ele>
        <time>2019-12-19T09:36:46Z</time>
      </trkpt>
      <trkpt lat="48.60663" lon="1.95923">
        <ele>100.11</ele>
        <time>2019-12-19T09:36:47Z</time>
      </trkpt>
      <trkpt lat="48.60663" lon="1.95919">
        <ele>100.11</ele>
        <time>2019-12-19T09:36:48Z</time>
      </trkpt>
      <trkpt lat="48.60663" lon="1.95916">
        <ele>100.11</ele>
        <time>2019-12-19T09:36:49Z</time>
      </trkpt>
      <trkpt lat="48.60664" lon="1.95913">
        <ele>100.11</ele>
        <time>2019-12-19T09:36:50Z</time>
      </trkpt>
      <trkpt lat="48.60665" lon="1.95911">
        <ele>100.11</ele>
        <time>2019-12-19T09:36:51Z</time>
      </trkpt>
      <trkpt lat="48.60667" lon="1.95908">
        <ele>100.11</ele>
        <time>2019-12-19T09:36:52Z</time>
      </trkpt>
      <trkpt lat="48.60668" lon="1.95906">
        <ele>100.11</ele>
        <time>2019-12-19T09:36:53Z</time>
      </trkpt>
      <trkpt lat="48.6067" lon="1.95905">
        <ele>100.6</ele>
        <time>2019-12-19T09:36:54Z</time>
      </trkpt>
      <trkpt lat="48.60671" lon="1.95903">
        <ele>100.11</ele>
        <time>2019-12-19T09:36:55Z</time>
      </trkpt>
      <trkpt lat="48.60672" lon="1.95902">
        <ele>100.11</ele>
        <time>2019-12-19T09:36:56Z</time>
      </trkpt>
      <trkpt lat="48.60673" lon="1.95901">
        <ele>100.11</ele>
        <time>2019-12-19T09:36:57Z</time>
      </trkpt>
      <trkpt lat="48.60675" lon="1.959">
        <ele>100.11</ele>
        <time>2019-12-19T09:36:58Z</time>
      </trkpt>
      <trkpt lat="48.60676" lon="1.95898">
        <ele>100.11</ele>
        <time>2019-12-19T09:36:59Z</time>
      </trkpt>
      <trkpt lat="48.60676" lon="1.95896">
        <ele>100.11</ele>
        <time>2019-12-19T09:37:00Z</time>
      </trkpt>
      <trkpt lat="48.60677" lon="1.95896">
        <ele>100.11</ele>
        <time>2019-12-19T09:37:01Z</time>
      </trkpt>
      <trkpt lat="48.60678" lon="1.95894">
        <ele>100.11</ele>
        <time>2019-12-19T09:37:02Z</time>
      </trkpt>
      <trkpt lat="48.60679" lon="1.95893">
        <ele>100.6</ele>
        <time>2019-12-19T09:37:03Z</time>
      </trkpt>
      <trkpt lat="48.6068" lon="1.95891">
        <ele>100.6</ele>
        <time>2019-12-19T09:37:04Z</time>
      </trkpt>
      <trkpt lat="48.6068" lon="1.95888">
        <ele>100.11</ele>
        <time>2019-12-19T09:37:05Z</time>
      </trkpt>
      <trkpt lat="48.60681" lon="1.95886">
        <ele>100.11</ele>
        <time>2019-12-19T09:37:06Z</time>
      </trkpt>
      <trkpt lat="48.60682" lon="1.95884">
        <ele>100.11</ele>
        <time>2019-12-19T09:37:07Z</time>
      </trkpt>
      <trkpt lat="48.60683" lon="1.95882">
        <ele>100.11</ele>
        <time>2019-12-19T09:37:08Z</time>
      </trkpt>
      <trkpt lat="48.60684" lon="1.95881">
        <ele>100.11</ele>
        <time>2019-12-19T09:37:09Z</time>
      </trkpt>
      <trkpt lat="48.60685" lon="1.9588">
        <ele>100.11</ele>
        <time>2019-12-19T09:37:10Z</time>
      </trkpt>
      <trkpt lat="48.60685" lon="1.95879">
        <ele>100.11</ele>
        <time>2019-12-19T09:37:11Z</time>
      </trkpt>
      <trkpt lat="48.60686" lon="1.95878">
        <ele>100.11</ele>
        <time>2019-12-19T09:37:12Z</time>
      </trkpt>
      <trkpt lat="48.60686" lon="1.95877">
        <ele>100.11</ele>
        <time>2019-12-19T09:37:13Z</time>
      </trkpt>
      <trkpt lat="48.60687" lon="1.95876">
        <ele>100.6</ele>
        <time>2019-12-19T09:37:14Z</time>
      </trkpt>
      <trkpt lat="48.60687" lon="1.95875">
        <ele>100.6</ele>
        <time>2019-12-19T09:37:15Z</time>
      </trkpt>
      <trkpt lat="48.60688" lon="1.95874">
        <ele>100.11</ele>
        <time>2019-12-19T09:37:16Z</time>
      </trkpt>
      <trkpt lat="48.60688" lon="1.95872">
        <ele>100.11</ele>
        <time>2019-12-19T09:37:17Z</time>
      </trkpt>
      <trkpt lat="48.60688" lon="1.95871">
        <ele>100.11</ele>
        <time>2019-12-19T09:37:18Z</time>
      </trkpt>
      <trkpt lat="48.60688" lon="1.95871">
        <ele>100.11</ele>
        <time>2019-12-19T09:37:19Z</time>
      </trkpt>
      <trkpt lat="48.60688" lon="1.9587">
        <ele>100.11</ele>
        <time>2019-12-19T09:37:20Z</time>
      </trkpt>
      <trkpt lat="48.60688" lon="1.95867">
        <ele>100.6</ele>
        <time>2019-12-19T09:37:21Z</time>
      </trkpt>
      <trkpt lat="48.60688" lon="1.95864">
        <ele>100.11</ele>
        <time>2019-12-19T09:37:22Z</time>
      </trkpt>
      <trkpt lat="48.60689" lon="1.95862">
        <ele>100.6</ele>
        <time>2019-12-19T09:37:23Z</time>
      </trkpt>
      <trkpt lat="48.6069" lon="1.9586">
        <ele>100.6</ele>
        <time>2019-12-19T09:37:24Z</time>
      </trkpt>
      <trkpt lat="48.6069" lon="1.95857">
        <ele>100.6</ele>
        <time>2019-12-19T09:37:25Z</time>
      </trkpt>
      <trkpt lat="48.60691" lon="1.95855">
        <ele>100.6</ele>
        <time>2019-12-19T09:37:26Z</time>
      </trkpt>
      <trkpt lat="48.60691" lon="1.95854">
        <ele>100.6</ele>
        <time>2019-12-19T09:37:27Z</time>
      </trkpt>
      <trkpt lat="48.60691" lon="1.95852">
        <ele>100.6</ele>
        <time>2019-12-19T09:37:28Z</time>
      </trkpt>
      <trkpt lat="48.60692" lon="1.95851">
        <ele>100.6</ele>
        <time>2019-12-19T09:37:29Z</time>
      </trkpt>
      <trkpt lat="48.60692" lon="1.95849">
        <ele>101.08</ele>
        <time>2019-12-19T09:37:30Z</time>
      </trkpt>
      <trkpt lat="48.60692" lon="1.95847">
        <ele>101.56</ele>
        <time>2019-12-19T09:37:31Z</time>
      </trkpt>
      <trkpt lat="48.60692" lon="1.95845">
        <ele>100.6</ele>
        <time>2019-12-19T09:37:32Z</time>
      </trkpt>
      <trkpt lat="48.60691" lon="1.95843">
        <ele>101.08</ele>
        <time>2019-12-19T09:37:33Z</time>
      </trkpt>
      <trkpt lat="48.60691" lon="1.95841">
        <ele>101.08</ele>
        <time>2019-12-19T09:37:34Z</time>
      </trkpt>
      <trkpt lat="48.60691" lon="1.95838">
        <ele>101.08</ele>
        <time>2019-12-19T09:37:35Z</time>
      </trkpt>
      <trkpt lat="48.6069" lon="1.95836">
        <ele>102.04</ele>
        <time>2019-12-19T09:37:36Z</time>
      </trkpt>
      <trkpt lat="48.6069" lon="1.9583">
        <ele>101.08</ele>
        <time>2019-12-19T09:37:37Z</time>
      </trkpt>
      <trkpt lat="48.60689" lon="1.95824">
        <ele>100.6</ele>
        <time>2019-12-19T09:37:38Z</time>
      </trkpt>
      <trkpt lat="48.60688" lon="1.95819">
        <ele>101.08</ele>
        <time>2019-12-19T09:37:39Z</time>
      </trkpt>
      <trkpt lat="48.60688" lon="1.95815">
        <ele>101.08</ele>
        <time>2019-12-19T09:37:40Z</time>
      </trkpt>
      <trkpt lat="48.60687" lon="1.95813">
        <ele>101.08</ele>
        <time>2019-12-19T09:37:41Z</time>
      </trkpt>
      <trkpt lat="48.60688" lon="1.95809">
        <ele>101.08</ele>
        <time>2019-12-19T09:37:42Z</time>
      </trkpt>
      <trkpt lat="48.60688" lon="1.95806">
        <ele>101.08</ele>
        <time>2019-12-19T09:37:43Z</time>
      </trkpt>
      <trkpt lat="48.60688" lon="1.95804">
        <ele>100.6</ele>
        <time>2019-12-19T09:37:44Z</time>
      </trkpt>
      <trkpt lat="48.60689" lon="1.95801">
        <ele>101.08</ele>
        <time>2019-12-19T09:37:45Z</time>
      </trkpt>
      <trkpt lat="48.6069" lon="1.958">
        <ele>101.08</ele>
        <time>2019-12-19T09:37:46Z</time>
      </trkpt>
      <trkpt lat="48.60691" lon="1.95797">
        <ele>100.6</ele>
        <time>2019-12-19T09:37:47Z</time>
      </trkpt>
      <trkpt lat="48.60691" lon="1.95795">
        <ele>100.6</ele>
        <time>2019-12-19T09:37:48Z</time>
      </trkpt>
      <trkpt lat="48.60692" lon="1.95793">
        <ele>100.6</ele>
        <time>2019-12-19T09:37:49Z</time>
      </trkpt>
      <trkpt lat="48.60694" lon="1.9579">
        <ele>100.6</ele>
        <time>2019-12-19T09:37:50Z</time>
      </trkpt>
      <trkpt lat="48.60695" lon="1.95788">
        <ele>100.11</ele>
        <time>2019-12-19T09:37:51Z</time>
      </trkpt>
      <trkpt lat="48.60697" lon="1.95786">
        <ele>100.6</ele>
        <time>2019-12-19T09:37:52Z</time>
      </trkpt>
      <trkpt lat="48.60698" lon="1.95784">
        <ele>100.11</ele>
        <time>2019-12-19T09:37:53Z</time>
      </trkpt>
      <trkpt lat="48.60699" lon="1.95782">
        <ele>100.11</ele>
        <time>2019-12-19T09:37:54Z</time>
      </trkpt>
      <trkpt lat="48.607" lon="1.95781">
        <ele>100.11</ele>
        <time>2019-12-19T09:37:55Z</time>
      </trkpt>
      <trkpt lat="48.60701" lon="1.95779">
        <ele>100.6</ele>
        <time>2019-12-19T09:37:56Z</time>
      </trkpt>
      <trkpt lat="48.60702" lon="1.95778">
        <ele>100.11</ele>
        <time>2019-12-19T09:37:57Z</time>
      </trkpt>
      <trkpt lat="48.60703" lon="1.95775">
        <ele>100.11</ele>
        <time>2019-12-19T09:37:58Z</time>
      </trkpt>
      <trkpt lat="48.60704" lon="1.95773">
        <ele>100.11</ele>
        <time>2019-12-19T09:37:59Z</time>
      </trkpt>
      <trkpt lat="48.60704" lon="1.95771">
        <ele>100.11</ele>
        <time>2019-12-19T09:38:00Z</time>
      </trkpt>
      <trkpt lat="48.60704" lon="1.95768">
        <ele>100.11</ele>
        <time>2019-12-19T09:38:01Z</time>
      </trkpt>
      <trkpt lat="48.60703" lon="1.95765">
        <ele>100.11</ele>
        <time>2019-12-19T09:38:02Z</time>
      </trkpt>
      <trkpt lat="48.60703" lon="1.95763">
        <ele>100.11</ele>
        <time>2019-12-19T09:38:03Z</time>
      </trkpt>
      <trkpt lat="48.60703" lon="1.95761">
        <ele>100.6</ele>
        <time>2019-12-19T09:38:04Z</time>
      </trkpt>
      <trkpt lat="48.60702" lon="1.95758">
        <ele>100.6</ele>
        <time>2019-12-19T09:38:05Z</time>
      </trkpt>
      <trkpt lat="48.60701" lon="1.95757">
        <ele>100.11</ele>
        <time>2019-12-19T09:38:06Z</time>
      </trkpt>
      <trkpt lat="48.607" lon="1.95756">
        <ele>100.6</ele>
        <time>2019-12-19T09:38:07Z</time>
      </trkpt>
      <trkpt lat="48.60699" lon="1.95754">
        <ele>100.11</ele>
        <time>2019-12-19T09:38:08Z</time>
      </trkpt>
      <trkpt lat="48.60698" lon="1.95753">
        <ele>100.6</ele>
        <time>2019-12-19T09:38:09Z</time>
      </trkpt>
      <trkpt lat="48.60696" lon="1.95751">
        <ele>100.6</ele>
        <time>2019-12-19T09:38:10Z</time>
      </trkpt>
      <trkpt lat="48.60694" lon="1.95749">
        <ele>100.6</ele>
        <time>2019-12-19T09:38:11Z</time>
      </trkpt>
      <trkpt lat="48.60693" lon="1.95746">
        <ele>100.6</ele>
        <time>2019-12-19T09:38:12Z</time>
      </trkpt>
      <trkpt lat="48.60691" lon="1.95743">
        <ele>100.6</ele>
        <time>2019-12-19T09:38:13Z</time>
      </trkpt>
      <trkpt lat="48.6069" lon="1.95741">
        <ele>100.6</ele>
        <time>2019-12-19T09:38:14Z</time>
      </trkpt>
      <trkpt lat="48.6069" lon="1.9574">
        <ele>101.08</ele>
        <time>2019-12-19T09:38:15Z</time>
      </trkpt>
      <trkpt lat="48.60689" lon="1.95737">
        <ele>101.08</ele>
        <time>2019-12-19T09:38:16Z</time>
      </trkpt>
      <trkpt lat="48.60689" lon="1.95735">
        <ele>101.08</ele>
        <time>2019-12-19T09:38:17Z</time>
      </trkpt>
      <trkpt lat="48.60688" lon="1.95733">
        <ele>101.08</ele>
        <time>2019-12-19T09:38:18Z</time>
      </trkpt>
      <trkpt lat="48.60688" lon="1.95731">
        <ele>101.08</ele>
        <time>2019-12-19T09:38:19Z</time>
      </trkpt>
      <trkpt lat="48.60687" lon="1.95729">
        <ele>101.08</ele>
        <time>2019-12-19T09:38:20Z</time>
      </trkpt>
      <trkpt lat="48.60687" lon="1.95726">
        <ele>101.08</ele>
        <time>2019-12-19T09:38:21Z</time>
      </trkpt>
      <trkpt lat="48.60687" lon="1.95723">
        <ele>101.08</ele>
        <time>2019-12-19T09:38:22Z</time>
      </trkpt>
      <trkpt lat="48.60686" lon="1.95721">
        <ele>101.56</ele>
        <time>2019-12-19T09:38:23Z</time>
      </trkpt>
      <trkpt lat="48.60686" lon="1.95719">
        <ele>101.08</ele>
        <time>2019-12-19T09:38:24Z</time>
      </trkpt>
      <trkpt lat="48.60685" lon="1.95717">
        <ele>101.56</ele>
        <time>2019-12-19T09:38:25Z</time>
      </trkpt>
      <trkpt lat="48.60683" lon="1.95715">
        <ele>101.56</ele>
        <time>2019-12-19T09:38:26Z</time>
      </trkpt>
      <trkpt lat="48.60683" lon="1.95713">
        <ele>101.08</ele>
        <time>2019-12-19T09:38:27Z</time>
      </trkpt>
      <trkpt lat="48.60682" lon="1.95711">
        <ele>101.08</ele>
        <time>2019-12-19T09:38:28Z</time>
      </trkpt>
      <trkpt lat="48.60682" lon="1.95709">
        <ele>101.08</ele>
        <time>2019-12-19T09:38:29Z</time>
      </trkpt>
      <trkpt lat="48.60682" lon="1.95707">
        <ele>101.08</ele>
        <time>2019-12-19T09:38:30Z</time>
      </trkpt>
      <trkpt lat="48.60682" lon="1.95704">
        <ele>101.08</ele>
        <time>2019-12-19T09:38:31Z</time>
      </trkpt>
      <trkpt lat="48.60681" lon="1.95701">
        <ele>101.08</ele>
        <time>2019-12-19T09:38:32Z</time>
      </trkpt>
      <trkpt lat="48.60681" lon="1.95699">
        <ele>100.6</ele>
        <time>2019-12-19T09:38:33Z</time>
      </trkpt>
      <trkpt lat="48.60681" lon="1.95697">
        <ele>101.08</ele>
        <time>2019-12-19T09:38:34Z</time>
      </trkpt>
      <trkpt lat="48.60681" lon="1.95695">
        <ele>101.08</ele>
        <time>2019-12-19T09:38:35Z</time>
      </trkpt>
      <trkpt lat="48.60681" lon="1.95693">
        <ele>101.08</ele>
        <time>2019-12-19T09:38:36Z</time>
      </trkpt>
      <trkpt lat="48.60681" lon="1.95692">
        <ele>101.08</ele>
        <time>2019-12-19T09:38:37Z</time>
      </trkpt>
      <trkpt lat="48.60681" lon="1.9569">
        <ele>101.08</ele>
        <time>2019-12-19T09:38:38Z</time>
      </trkpt>
      <trkpt lat="48.60681" lon="1.95688">
        <ele>101.08</ele>
        <time>2019-12-19T09:38:39Z</time>
      </trkpt>
      <trkpt lat="48.60681" lon="1.95687">
        <ele>101.08</ele>
        <time>2019-12-19T09:38:40Z</time>
      </trkpt>
      <trkpt lat="48.60681" lon="1.95685">
        <ele>101.08</ele>
        <time>2019-12-19T09:38:41Z</time>
      </trkpt>
      <trkpt lat="48.60681" lon="1.95683">
        <ele>101.08</ele>
        <time>2019-12-19T09:38:42Z</time>
      </trkpt>
      <trkpt lat="48.60681" lon="1.95681">
        <ele>101.08</ele>
        <time>2019-12-19T09:38:43Z</time>
      </trkpt>
      <trkpt lat="48.6068" lon="1.95679">
        <ele>101.08</ele>
        <time>2019-12-19T09:38:44Z</time>
      </trkpt>
      <trkpt lat="48.6068" lon="1.95678">
        <ele>101.08</ele>
        <time>2019-12-19T09:38:45Z</time>
      </trkpt>
      <trkpt lat="48.6068" lon="1.95676">
        <ele>101.08</ele>
        <time>2019-12-19T09:38:46Z</time>
      </trkpt>
      <trkpt lat="48.6068" lon="1.95674">
        <ele>101.08</ele>
        <time>2019-12-19T09:38:47Z</time>
      </trkpt>
      <trkpt lat="48.60679" lon="1.95673">
        <ele>101.08</ele>
        <time>2019-12-19T09:38:48Z</time>
      </trkpt>
      <trkpt lat="48.60679" lon="1.95672">
        <ele>101.08</ele>
        <time>2019-12-19T09:38:49Z</time>
      </trkpt>
      <trkpt lat="48.60678" lon="1.95667">
        <ele>100.6</ele>
        <time>2019-12-19T09:38:50Z</time>
      </trkpt>
      <trkpt lat="48.60677" lon="1.95663">
        <ele>100.6</ele>
        <time>2019-12-19T09:38:51Z</time>
      </trkpt>
      <trkpt lat="48.60676" lon="1.95661">
        <ele>101.08</ele>
        <time>2019-12-19T09:38:52Z</time>
      </trkpt>
      <trkpt lat="48.60675" lon="1.95659">
        <ele>101.08</ele>
        <time>2019-12-19T09:38:53Z</time>
      </trkpt>
      <trkpt lat="48.60674" lon="1.95657">
        <ele>101.08</ele>
        <time>2019-12-19T09:38:54Z</time>
      </trkpt>
      <trkpt lat="48.60673" lon="1.95656">
        <ele>101.08</ele>
        <time>2019-12-19T09:38:55Z</time>
      </trkpt>
      <trkpt lat="48.60672" lon="1.95655">
        <ele>101.08</ele>
        <time>2019-12-19T09:38:56Z</time>
      </trkpt>
      <trkpt lat="48.60672" lon="1.95655">
        <ele>101.08</ele>
        <time>2019-12-19T09:38:57Z</time>
      </trkpt>
      <trkpt lat="48.60671" lon="1.95654">
        <ele>101.08</ele>
        <time>2019-12-19T09:38:58Z</time>
      </trkpt>
      <trkpt lat="48.6067" lon="1.95654">
        <ele>101.08</ele>
        <time>2019-12-19T09:38:59Z</time>
      </trkpt>
      <trkpt lat="48.60669" lon="1.95653">
        <ele>101.56</ele>
        <time>2019-12-19T09:39:00Z</time>
      </trkpt>
      <trkpt lat="48.60667" lon="1.95653">
        <ele>101.56</ele>
        <time>2019-12-19T09:39:01Z</time>
      </trkpt>
      <trkpt lat="48.60666" lon="1.95654">
        <ele>102.04</ele>
        <time>2019-12-19T09:39:02Z</time>
      </trkpt>
      <trkpt lat="48.60665" lon="1.95653">
        <ele>101.56</ele>
        <time>2019-12-19T09:39:03Z</time>
      </trkpt>
      <trkpt lat="48.60664" lon="1.95653">
        <ele>101.56</ele>
        <time>2019-12-19T09:39:04Z</time>
      </trkpt>
      <trkpt lat="48.60662" lon="1.95652">
        <ele>102.04</ele>
        <time>2019-12-19T09:39:05Z</time>
      </trkpt>
      <trkpt lat="48.60661" lon="1.95652">
        <ele>102.04</ele>
        <time>2019-12-19T09:39:06Z</time>
      </trkpt>
      <trkpt lat="48.6066" lon="1.95651">
        <ele>101.56</ele>
        <time>2019-12-19T09:39:07Z</time>
      </trkpt>
      <trkpt lat="48.60659" lon="1.95651">
        <ele>102.04</ele>
        <time>2019-12-19T09:39:08Z</time>
      </trkpt>
      <trkpt lat="48.60658" lon="1.95651">
        <ele>102.04</ele>
        <time>2019-12-19T09:39:09Z</time>
      </trkpt>
      <trkpt lat="48.60657" lon="1.9565">
        <ele>102.04</ele>
        <time>2019-12-19T09:39:10Z</time>
      </trkpt>
      <trkpt lat="48.60655" lon="1.95649">
        <ele>102.04</ele>
        <time>2019-12-19T09:39:11Z</time>
      </trkpt>
      <trkpt lat="48.60654" lon="1.95648">
        <ele>102.04</ele>
        <time>2019-12-19T09:39:12Z</time>
      </trkpt>
      <trkpt lat="48.60653" lon="1.95647">
        <ele>102.52</ele>
        <time>2019-12-19T09:39:13Z</time>
      </trkpt>
      <trkpt lat="48.60652" lon="1.95645">
        <ele>102.52</ele>
        <time>2019-12-19T09:39:14Z</time>
      </trkpt>
      <trkpt lat="48.60651" lon="1.95645">
        <ele>102.04</ele>
        <time>2019-12-19T09:39:15Z</time>
      </trkpt>
      <trkpt lat="48.60651" lon="1.95645">
        <ele>102.04</ele>
        <time>2019-12-19T09:39:16Z</time>
      </trkpt>
      <trkpt lat="48.6065" lon="1.95643">
        <ele>102.04</ele>
        <time>2019-12-19T09:39:17Z</time>
      </trkpt>
      <trkpt lat="48.6065" lon="1.95643">
        <ele>102.04</ele>
        <time>2019-12-19T09:39:18Z</time>
      </trkpt>
      <trkpt lat="48.60648" lon="1.95642">
        <ele>102.04</ele>
        <time>2019-12-19T09:39:19Z</time>
      </trkpt>
      <trkpt lat="48.60647" lon="1.95641">
        <ele>102.52</ele>
        <time>2019-12-19T09:39:20Z</time>
      </trkpt>
      <trkpt lat="48.60646" lon="1.95641">
        <ele>102.04</ele>
        <time>2019-12-19T09:39:21Z</time>
      </trkpt>
      <trkpt lat="48.60644" lon="1.95641">
        <ele>101.56</ele>
        <time>2019-12-19T09:39:22Z</time>
      </trkpt>
      <trkpt lat="48.60643" lon="1.9564">
        <ele>102.52</ele>
        <time>2019-12-19T09:39:23Z</time>
      </trkpt>
      <trkpt lat="48.60642" lon="1.95639">
        <ele>101.56</ele>
        <time>2019-12-19T09:39:24Z</time>
      </trkpt>
      <trkpt lat="48.6064" lon="1.95638">
        <ele>101.56</ele>
        <time>2019-12-19T09:39:25Z</time>
      </trkpt>
      <trkpt lat="48.60638" lon="1.95637">
        <ele>101.56</ele>
        <time>2019-12-19T09:39:26Z</time>
      </trkpt>
      <trkpt lat="48.60637" lon="1.95636">
        <ele>102.04</ele>
        <time>2019-12-19T09:39:27Z</time>
      </trkpt>
      <trkpt lat="48.60635" lon="1.95635">
        <ele>102.04</ele>
        <time>2019-12-19T09:39:28Z</time>
      </trkpt>
      <trkpt lat="48.60635" lon="1.95634">
        <ele>102.04</ele>
        <time>2019-12-19T09:39:29Z</time>
      </trkpt>
      <trkpt lat="48.60634" lon="1.95632">
        <ele>102.04</ele>
        <time>2019-12-19T09:39:30Z</time>
      </trkpt>
      <trkpt lat="48.60634" lon="1.9563">
        <ele>102.04</ele>
        <time>2019-12-19T09:39:31Z</time>
      </trkpt>
      <trkpt lat="48.60633" lon="1.95628">
        <ele>102.04</ele>
        <time>2019-12-19T09:39:32Z</time>
      </trkpt>
      <trkpt lat="48.60632" lon="1.95628">
        <ele>102.04</ele>
        <time>2019-12-19T09:39:33Z</time>
      </trkpt>
      <trkpt lat="48.60631" lon="1.95626">
        <ele>102.04</ele>
        <time>2019-12-19T09:39:34Z</time>
      </trkpt>
      <trkpt lat="48.60629" lon="1.95625">
        <ele>102.04</ele>
        <time>2019-12-19T09:39:35Z</time>
      </trkpt>
      <trkpt lat="48.60628" lon="1.95623">
        <ele>102.04</ele>
        <time>2019-12-19T09:39:36Z</time>
      </trkpt>
      <trkpt lat="48.60626" lon="1.95621">
        <ele>103</ele>
        <time>2019-12-19T09:39:37Z</time>
      </trkpt>
      <trkpt lat="48.60625" lon="1.95619">
        <ele>102.04</ele>
        <time>2019-12-19T09:39:38Z</time>
      </trkpt>
      <trkpt lat="48.60624" lon="1.95618">
        <ele>102.04</ele>
        <time>2019-12-19T09:39:39Z</time>
      </trkpt>
      <trkpt lat="48.60622" lon="1.95616">
        <ele>102.04</ele>
        <time>2019-12-19T09:39:40Z</time>
      </trkpt>
      <trkpt lat="48.60621" lon="1.95614">
        <ele>102.52</ele>
        <time>2019-12-19T09:39:41Z</time>
      </trkpt>
      <trkpt lat="48.6062" lon="1.95612">
        <ele>102.04</ele>
        <time>2019-12-19T09:39:42Z</time>
      </trkpt>
      <trkpt lat="48.60619" lon="1.9561">
        <ele>102.52</ele>
        <time>2019-12-19T09:39:43Z</time>
      </trkpt>
      <trkpt lat="48.60618" lon="1.95608">
        <ele>102.52</ele>
        <time>2019-12-19T09:39:44Z</time>
      </trkpt>
      <trkpt lat="48.60617" lon="1.95606">
        <ele>102.52</ele>
        <time>2019-12-19T09:39:45Z</time>
      </trkpt>
      <trkpt lat="48.60616" lon="1.95603">
        <ele>102.52</ele>
        <time>2019-12-19T09:39:46Z</time>
      </trkpt>
      <trkpt lat="48.60616" lon="1.95601">
        <ele>102.52</ele>
        <time>2019-12-19T09:39:47Z</time>
      </trkpt>
      <trkpt lat="48.60615" lon="1.95599">
        <ele>102.04</ele>
        <time>2019-12-19T09:39:48Z</time>
      </trkpt>
      <trkpt lat="48.60614" lon="1.95597">
        <ele>102.52</ele>
        <time>2019-12-19T09:39:49Z</time>
      </trkpt>
      <trkpt lat="48.60614" lon="1.95596">
        <ele>102.52</ele>
        <time>2019-12-19T09:39:50Z</time>
      </trkpt>
      <trkpt lat="48.60614" lon="1.95596">
        <ele>102.52</ele>
        <time>2019-12-19T09:39:51Z</time>
      </trkpt>
      <trkpt lat="48.60613" lon="1.95595">
        <ele>102.52</ele>
        <time>2019-12-19T09:39:52Z</time>
      </trkpt>
      <trkpt lat="48.60613" lon="1.95595">
        <ele>103</ele>
        <time>2019-12-19T09:39:53Z</time>
      </trkpt>
      <trkpt lat="48.60613" lon="1.95595">
        <ele>103</ele>
        <time>2019-12-19T09:39:54Z</time>
      </trkpt>
      <trkpt lat="48.60613" lon="1.95595">
        <ele>103</ele>
        <time>2019-12-19T09:39:55Z</time>
      </trkpt>
      <trkpt lat="48.60613" lon="1.95595">
        <ele>102.52</ele>
        <time>2019-12-19T09:39:56Z</time>
      </trkpt>
      <trkpt lat="48.60613" lon="1.95594">
        <ele>102.52</ele>
        <time>2019-12-19T09:39:57Z</time>
      </trkpt>
      <trkpt lat="48.60613" lon="1.95594">
        <ele>103</ele>
        <time>2019-12-19T09:39:58Z</time>
      </trkpt>
      <trkpt lat="48.60612" lon="1.95594">
        <ele>102.52</ele>
        <time>2019-12-19T09:39:59Z</time>
      </trkpt>
      <trkpt lat="48.60612" lon="1.95594">
        <ele>102.52</ele>
        <time>2019-12-19T09:40:00Z</time>
      </trkpt>
      <trkpt lat="48.60611" lon="1.95592">
        <ele>102.52</ele>
        <time>2019-12-19T09:40:01Z</time>
      </trkpt>
      <trkpt lat="48.60611" lon="1.95589">
        <ele>102.52</ele>
        <time>2019-12-19T09:40:02Z</time>
      </trkpt>
      <trkpt lat="48.6061" lon="1.95586">
        <ele>103</ele>
        <time>2019-12-19T09:40:03Z</time>
      </trkpt>
      <trkpt lat="48.60609" lon="1.95583">
        <ele>102.52</ele>
        <time>2019-12-19T09:40:04Z</time>
      </trkpt>
      <trkpt lat="48.60609" lon="1.9558">
        <ele>102.52</ele>
        <time>2019-12-19T09:40:05Z</time>
      </trkpt>
      <trkpt lat="48.60609" lon="1.95577">
        <ele>102.04</ele>
        <time>2019-12-19T09:40:06Z</time>
      </trkpt>
      <trkpt lat="48.60609" lon="1.95575">
        <ele>102.04</ele>
        <time>2019-12-19T09:40:07Z</time>
      </trkpt>
      <trkpt lat="48.60608" lon="1.95572">
        <ele>102.52</ele>
        <time>2019-12-19T09:40:08Z</time>
      </trkpt>
      <trkpt lat="48.60607" lon="1.95569">
        <ele>102.52</ele>
        <time>2019-12-19T09:40:09Z</time>
      </trkpt>
      <trkpt lat="48.60606" lon="1.95567">
        <ele>102.52</ele>
        <time>2019-12-19T09:40:10Z</time>
      </trkpt>
      <trkpt lat="48.60606" lon="1.95565">
        <ele>102.52</ele>
        <time>2019-12-19T09:40:11Z</time>
      </trkpt>
      <trkpt lat="48.60605" lon="1.95564">
        <ele>102.52</ele>
        <time>2019-12-19T09:40:12Z</time>
      </trkpt>
      <trkpt lat="48.60605" lon="1.95562">
        <ele>102.52</ele>
        <time>2019-12-19T09:40:13Z</time>
      </trkpt>
      <trkpt lat="48.60605" lon="1.95559">
        <ele>102.52</ele>
        <time>2019-12-19T09:40:14Z</time>
      </trkpt>
      <trkpt lat="48.60604" lon="1.95556">
        <ele>102.52</ele>
        <time>2019-12-19T09:40:15Z</time>
      </trkpt>
      <trkpt lat="48.60604" lon="1.95553">
        <ele>102.52</ele>
        <time>2019-12-19T09:40:16Z</time>
      </trkpt>
      <trkpt lat="48.60603" lon="1.95551">
        <ele>102.52</ele>
        <time>2019-12-19T09:40:17Z</time>
      </trkpt>
      <trkpt lat="48.60603" lon="1.9555">
        <ele>102.52</ele>
        <time>2019-12-19T09:40:18Z</time>
      </trkpt>
      <trkpt lat="48.60603" lon="1.9555">
        <ele>102.52</ele>
        <time>2019-12-19T09:40:19Z</time>
      </trkpt>
      <trkpt lat="48.60604" lon="1.95549">
        <ele>103</ele>
        <time>2019-12-19T09:40:20Z</time>
      </trkpt>
      <trkpt lat="48.60604" lon="1.95548">
        <ele>103</ele>
        <time>2019-12-19T09:40:21Z</time>
      </trkpt>
      <trkpt lat="48.60604" lon="1.95547">
        <ele>103</ele>
        <time>2019-12-19T09:40:22Z</time>
      </trkpt>
      <trkpt lat="48.60603" lon="1.95546">
        <ele>102.52</ele>
        <time>2019-12-19T09:40:23Z</time>
      </trkpt>
      <trkpt lat="48.60603" lon="1.95545">
        <ele>102.52</ele>
        <time>2019-12-19T09:40:24Z</time>
      </trkpt>
      <trkpt lat="48.60603" lon="1.95545">
        <ele>102.52</ele>
        <time>2019-12-19T09:40:25Z</time>
      </trkpt>
      <trkpt lat="48.60604" lon="1.95543">
        <ele>102.52</ele>
        <time>2019-12-19T09:40:26Z</time>
      </trkpt>
      <trkpt lat="48.60604" lon="1.95541">
        <ele>102.52</ele>
        <time>2019-12-19T09:40:27Z</time>
      </trkpt>
      <trkpt lat="48.60604" lon="1.95539">
        <ele>102.52</ele>
        <time>2019-12-19T09:40:28Z</time>
      </trkpt>
      <trkpt lat="48.60603" lon="1.95537">
        <ele>102.52</ele>
        <time>2019-12-19T09:40:29Z</time>
      </trkpt>
      <trkpt lat="48.60603" lon="1.95535">
        <ele>103</ele>
        <time>2019-12-19T09:40:30Z</time>
      </trkpt>
      <trkpt lat="48.60603" lon="1.95533">
        <ele>102.52</ele>
        <time>2019-12-19T09:40:31Z</time>
      </trkpt>
      <trkpt lat="48.60603" lon="1.95531">
        <ele>102.52</ele>
        <time>2019-12-19T09:40:32Z</time>
      </trkpt>
      <trkpt lat="48.60603" lon="1.95529">
        <ele>102.52</ele>
        <time>2019-12-19T09:40:33Z</time>
      </trkpt>
      <trkpt lat="48.60603" lon="1.95527">
        <ele>102.52</ele>
        <time>2019-12-19T09:40:34Z</time>
      </trkpt>
      <trkpt lat="48.60602" lon="1.95523">
        <ele>102.52</ele>
        <time>2019-12-19T09:40:35Z</time>
      </trkpt>
      <trkpt lat="48.60602" lon="1.95521">
        <ele>102.52</ele>
        <time>2019-12-19T09:40:36Z</time>
      </trkpt>
      <trkpt lat="48.60602" lon="1.95518">
        <ele>102.52</ele>
        <time>2019-12-19T09:40:37Z</time>
      </trkpt>
      <trkpt lat="48.60601" lon="1.95514">
        <ele>102.52</ele>
        <time>2019-12-19T09:40:38Z</time>
      </trkpt>
      <trkpt lat="48.60601" lon="1.9551">
        <ele>103</ele>
        <time>2019-12-19T09:40:39Z</time>
      </trkpt>
      <trkpt lat="48.606" lon="1.95506">
        <ele>102.52</ele>
        <time>2019-12-19T09:40:40Z</time>
      </trkpt>
      <trkpt lat="48.60599" lon="1.95503">
        <ele>103</ele>
        <time>2019-12-19T09:40:41Z</time>
      </trkpt>
      <trkpt lat="48.60598" lon="1.95498">
        <ele>102.52</ele>
        <time>2019-12-19T09:40:42Z</time>
      </trkpt>
      <trkpt lat="48.60597" lon="1.95494">
        <ele>103</ele>
        <time>2019-12-19T09:40:43Z</time>
      </trkpt>
      <trkpt lat="48.60596" lon="1.9549">
        <ele>103</ele>
        <time>2019-12-19T09:40:44Z</time>
      </trkpt>
      <trkpt lat="48.60596" lon="1.95489">
        <ele>103</ele>
        <time>2019-12-19T09:40:45Z</time>
      </trkpt>
      <trkpt lat="48.60595" lon="1.95485">
        <ele>102.52</ele>
        <time>2019-12-19T09:40:46Z</time>
      </trkpt>
      <trkpt lat="48.60595" lon="1.95482">
        <ele>102.52</ele>
        <time>2019-12-19T09:40:47Z</time>
      </trkpt>
      <trkpt lat="48.60594" lon="1.95478">
        <ele>103</ele>
        <time>2019-12-19T09:40:48Z</time>
      </trkpt>
      <trkpt lat="48.60594" lon="1.95476">
        <ele>103</ele>
        <time>2019-12-19T09:40:49Z</time>
      </trkpt>
      <trkpt lat="48.60594" lon="1.95475">
        <ele>103</ele>
        <time>2019-12-19T09:40:50Z</time>
      </trkpt>
      <trkpt lat="48.60594" lon="1.95473">
        <ele>103</ele>
        <time>2019-12-19T09:40:51Z</time>
      </trkpt>
      <trkpt lat="48.60594" lon="1.95472">
        <ele>102.52</ele>
        <time>2019-12-19T09:40:52Z</time>
      </trkpt>
      <trkpt lat="48.60594" lon="1.95469">
        <ele>102.52</ele>
        <time>2019-12-19T09:40:53Z</time>
      </trkpt>
      <trkpt lat="48.60593" lon="1.95466">
        <ele>103</ele>
        <time>2019-12-19T09:40:54Z</time>
      </trkpt>
      <trkpt lat="48.60593" lon="1.95462">
        <ele>103</ele>
        <time>2019-12-19T09:40:55Z</time>
      </trkpt>
      <trkpt lat="48.60593" lon="1.9546">
        <ele>103</ele>
        <time>2019-12-19T09:40:56Z</time>
      </trkpt>
      <trkpt lat="48.60592" lon="1.95457">
        <ele>103</ele>
        <time>2019-12-19T09:40:57Z</time>
      </trkpt>
      <trkpt lat="48.60591" lon="1.95454">
        <ele>103</ele>
        <time>2019-12-19T09:40:58Z</time>
      </trkpt>
      <trkpt lat="48.6059" lon="1.95451">
        <ele>103</ele>
        <time>2019-12-19T09:40:59Z</time>
      </trkpt>
      <trkpt lat="48.6059" lon="1.95449">
        <ele>103</ele>
        <time>2019-12-19T09:41:00Z</time>
      </trkpt>
      <trkpt lat="48.6059" lon="1.95446">
        <ele>103</ele>
        <time>2019-12-19T09:41:01Z</time>
      </trkpt>
      <trkpt lat="48.60589" lon="1.95443">
        <ele>103</ele>
        <time>2019-12-19T09:41:02Z</time>
      </trkpt>
      <trkpt lat="48.60589" lon="1.95441">
        <ele>103.48</ele>
        <time>2019-12-19T09:41:03Z</time>
      </trkpt>
      <trkpt lat="48.60588" lon="1.95438">
        <ele>103</ele>
        <time>2019-12-19T09:41:04Z</time>
      </trkpt>
      <trkpt lat="48.60588" lon="1.95436">
        <ele>103.48</ele>
        <time>2019-12-19T09:41:05Z</time>
      </trkpt>
      <trkpt lat="48.60587" lon="1.95434">
        <ele>103</ele>
        <time>2019-12-19T09:41:06Z</time>
      </trkpt>
      <trkpt lat="48.60587" lon="1.95431">
        <ele>103.48</ele>
        <time>2019-12-19T09:41:07Z</time>
      </trkpt>
      <trkpt lat="48.60586" lon="1.95429">
        <ele>103</ele>
        <time>2019-12-19T09:41:08Z</time>
      </trkpt>
      <trkpt lat="48.60586" lon="1.95427">
        <ele>103.48</ele>
        <time>2019-12-19T09:41:09Z</time>
      </trkpt>
      <trkpt lat="48.60586" lon="1.95425">
        <ele>103.48</ele>
        <time>2019-12-19T09:41:10Z</time>
      </trkpt>
      <trkpt lat="48.60586" lon="1.95425">
        <ele>103.48</ele>
        <time>2019-12-19T09:41:11Z</time>
      </trkpt>
      <trkpt lat="48.60585" lon="1.95425">
        <ele>103.96</ele>
        <time>2019-12-19T09:41:12Z</time>
      </trkpt>
      <trkpt lat="48.60585" lon="1.95423">
        <ele>103.48</ele>
        <time>2019-12-19T09:41:13Z</time>
      </trkpt>
      <trkpt lat="48.60586" lon="1.95421">
        <ele>103.48</ele>
        <time>2019-12-19T09:41:14Z</time>
      </trkpt>
      <trkpt lat="48.60586" lon="1.95421">
        <ele>103.48</ele>
        <time>2019-12-19T09:41:15Z</time>
      </trkpt>
      <trkpt lat="48.60586" lon="1.9542">
        <ele>103.96</ele>
        <time>2019-12-19T09:41:17Z</time>
      </trkpt>
      <trkpt lat="48.60586" lon="1.9542">
        <ele>103.96</ele>
        <time>2019-12-19T09:41:18Z</time>
      </trkpt>
      <trkpt lat="48.60586" lon="1.9542">
        <ele>103.96</ele>
        <time>2019-12-19T09:41:19Z</time>
      </trkpt>
      <trkpt lat="48.60586" lon="1.9542">
        <ele>103.96</ele>
        <time>2019-12-19T09:41:20Z</time>
      </trkpt>
      <trkpt lat="48.60586" lon="1.95419">
        <ele>103.96</ele>
        <time>2019-12-19T09:41:21Z</time>
      </trkpt>
      <trkpt lat="48.60586" lon="1.95417">
        <ele>104.44</ele>
        <time>2019-12-19T09:41:22Z</time>
      </trkpt>
      <trkpt lat="48.60586" lon="1.95416">
        <ele>104.44</ele>
        <time>2019-12-19T09:41:23Z</time>
      </trkpt>
      <trkpt lat="48.60585" lon="1.95414">
        <ele>104.44</ele>
        <time>2019-12-19T09:41:24Z</time>
      </trkpt>
      <trkpt lat="48.60585" lon="1.95413">
        <ele>104.44</ele>
        <time>2019-12-19T09:41:25Z</time>
      </trkpt>
      <trkpt lat="48.60585" lon="1.95412">
        <ele>104.44</ele>
        <time>2019-12-19T09:41:26Z</time>
      </trkpt>
      <trkpt lat="48.60585" lon="1.9541">
        <ele>104.44</ele>
        <time>2019-12-19T09:41:27Z</time>
      </trkpt>
      <trkpt lat="48.60585" lon="1.95408">
        <ele>104.44</ele>
        <time>2019-12-19T09:41:28Z</time>
      </trkpt>
      <trkpt lat="48.60585" lon="1.95407">
        <ele>103.96</ele>
        <time>2019-12-19T09:41:29Z</time>
      </trkpt>
      <trkpt lat="48.60585" lon="1.95406">
        <ele>104.44</ele>
        <time>2019-12-19T09:41:30Z</time>
      </trkpt>
      <trkpt lat="48.60585" lon="1.95406">
        <ele>104.44</ele>
        <time>2019-12-19T09:41:31Z</time>
      </trkpt>
      <trkpt lat="48.60585" lon="1.95405">
        <ele>103.96</ele>
        <time>2019-12-19T09:41:32Z</time>
      </trkpt>
      <trkpt lat="48.60585" lon="1.95405">
        <ele>103.96</ele>
        <time>2019-12-19T09:41:33Z</time>
      </trkpt>
      <trkpt lat="48.60585" lon="1.95403">
        <ele>103.96</ele>
        <time>2019-12-19T09:41:34Z</time>
      </trkpt>
      <trkpt lat="48.60585" lon="1.95402">
        <ele>103.96</ele>
        <time>2019-12-19T09:41:35Z</time>
      </trkpt>
      <trkpt lat="48.60585" lon="1.95401">
        <ele>104.44</ele>
        <time>2019-12-19T09:41:36Z</time>
      </trkpt>
      <trkpt lat="48.60585" lon="1.95399">
        <ele>104.92</ele>
        <time>2019-12-19T09:41:37Z</time>
      </trkpt>
      <trkpt lat="48.60585" lon="1.95399">
        <ele>103.96</ele>
        <time>2019-12-19T09:41:38Z</time>
      </trkpt>
      <trkpt lat="48.60585" lon="1.95398">
        <ele>104.44</ele>
        <time>2019-12-19T09:41:39Z</time>
      </trkpt>
      <trkpt lat="48.60585" lon="1.95396">
        <ele>103.96</ele>
        <time>2019-12-19T09:41:41Z</time>
      </trkpt>
      <trkpt lat="48.60584" lon="1.95396">
        <ele>103.96</ele>
        <time>2019-12-19T09:41:42Z</time>
      </trkpt>
      <trkpt lat="48.60583" lon="1.95394">
        <ele>103.96</ele>
        <time>2019-12-19T09:41:43Z</time>
      </trkpt>
      <trkpt lat="48.60583" lon="1.95393">
        <ele>103.96</ele>
        <time>2019-12-19T09:41:44Z</time>
      </trkpt>
      <trkpt lat="48.60582" lon="1.95391">
        <ele>104.44</ele>
        <time>2019-12-19T09:41:46Z</time>
      </trkpt>
      <trkpt lat="48.60581" lon="1.95388">
        <ele>104.44</ele>
        <time>2019-12-19T09:41:47Z</time>
      </trkpt>
      <trkpt lat="48.60581" lon="1.95388">
        <ele>104.44</ele>
        <time>2019-12-19T09:41:48Z</time>
      </trkpt>
      <trkpt lat="48.6058" lon="1.95387">
        <ele>104.44</ele>
        <time>2019-12-19T09:41:49Z</time>
      </trkpt>
      <trkpt lat="48.6058" lon="1.95385">
        <ele>104.44</ele>
        <time>2019-12-19T09:41:51Z</time>
      </trkpt>
      <trkpt lat="48.6058" lon="1.95382">
        <ele>104.44</ele>
        <time>2019-12-19T09:41:52Z</time>
      </trkpt>
      <trkpt lat="48.60579" lon="1.95379">
        <ele>104.44</ele>
        <time>2019-12-19T09:41:53Z</time>
      </trkpt>
      <trkpt lat="48.60579" lon="1.95375">
        <ele>104.44</ele>
        <time>2019-12-19T09:41:54Z</time>
      </trkpt>
      <trkpt lat="48.60579" lon="1.95372">
        <ele>104.44</ele>
        <time>2019-12-19T09:41:55Z</time>
      </trkpt>
      <trkpt lat="48.60578" lon="1.95369">
        <ele>104.44</ele>
        <time>2019-12-19T09:41:56Z</time>
      </trkpt>
      <trkpt lat="48.60578" lon="1.95366">
        <ele>104.44</ele>
        <time>2019-12-19T09:41:57Z</time>
      </trkpt>
      <trkpt lat="48.60577" lon="1.95364">
        <ele>104.44</ele>
        <time>2019-12-19T09:41:58Z</time>
      </trkpt>
      <trkpt lat="48.60577" lon="1.95363">
        <ele>104.92</ele>
        <time>2019-12-19T09:41:59Z</time>
      </trkpt>
      <trkpt lat="48.60577" lon="1.95362">
        <ele>104.44</ele>
        <time>2019-12-19T09:42:00Z</time>
      </trkpt>
      <trkpt lat="48.60577" lon="1.9536">
        <ele>104.44</ele>
        <time>2019-12-19T09:42:01Z</time>
      </trkpt>
      <trkpt lat="48.60577" lon="1.9536">
        <ele>104.44</ele>
        <time>2019-12-19T09:42:02Z</time>
      </trkpt>
      <trkpt lat="48.60576" lon="1.95357">
        <ele>104.44</ele>
        <time>2019-12-19T09:42:03Z</time>
      </trkpt>
      <trkpt lat="48.60576" lon="1.95357">
        <ele>104.92</ele>
        <time>2019-12-19T09:42:04Z</time>
      </trkpt>
      <trkpt lat="48.60576" lon="1.95354">
        <ele>104.44</ele>
        <time>2019-12-19T09:42:05Z</time>
      </trkpt>
      <trkpt lat="48.60576" lon="1.95353">
        <ele>104.44</ele>
        <time>2019-12-19T09:42:06Z</time>
      </trkpt>
      <trkpt lat="48.60576" lon="1.95352">
        <ele>104.92</ele>
        <time>2019-12-19T09:42:07Z</time>
      </trkpt>
      <trkpt lat="48.60577" lon="1.95352">
        <ele>104.44</ele>
        <time>2019-12-19T09:42:08Z</time>
      </trkpt>
      <trkpt lat="48.60577" lon="1.95351">
        <ele>104.44</ele>
        <time>2019-12-19T09:42:09Z</time>
      </trkpt>
      <trkpt lat="48.60577" lon="1.9535">
        <ele>104.44</ele>
        <time>2019-12-19T09:42:10Z</time>
      </trkpt>
      <trkpt lat="48.60577" lon="1.95347">
        <ele>104.44</ele>
        <time>2019-12-19T09:42:11Z</time>
      </trkpt>
      <trkpt lat="48.60577" lon="1.95345">
        <ele>104.92</ele>
        <time>2019-12-19T09:42:12Z</time>
      </trkpt>
      <trkpt lat="48.60577" lon="1.95344">
        <ele>104.92</ele>
        <time>2019-12-19T09:42:13Z</time>
      </trkpt>
      <trkpt lat="48.60578" lon="1.95343">
        <ele>104.44</ele>
        <time>2019-12-19T09:42:14Z</time>
      </trkpt>
      <trkpt lat="48.60578" lon="1.95342">
        <ele>104.44</ele>
        <time>2019-12-19T09:42:15Z</time>
      </trkpt>
      <trkpt lat="48.60579" lon="1.95341">
        <ele>104.44</ele>
        <time>2019-12-19T09:42:16Z</time>
      </trkpt>
      <trkpt lat="48.60579" lon="1.9534">
        <ele>103.96</ele>
        <time>2019-12-19T09:42:17Z</time>
      </trkpt>
      <trkpt lat="48.60579" lon="1.95339">
        <ele>103.96</ele>
        <time>2019-12-19T09:42:18Z</time>
      </trkpt>
      <trkpt lat="48.60579" lon="1.95338">
        <ele>104.44</ele>
        <time>2019-12-19T09:42:19Z</time>
      </trkpt>
      <trkpt lat="48.60578" lon="1.95337">
        <ele>104.44</ele>
        <time>2019-12-19T09:42:20Z</time>
      </trkpt>
      <trkpt lat="48.60578" lon="1.95335">
        <ele>104.44</ele>
        <time>2019-12-19T09:42:21Z</time>
      </trkpt>
      <trkpt lat="48.60577" lon="1.95333">
        <ele>103.96</ele>
        <time>2019-12-19T09:42:22Z</time>
      </trkpt>
      <trkpt lat="48.60577" lon="1.9533">
        <ele>104.44</ele>
        <time>2019-12-19T09:42:23Z</time>
      </trkpt>
      <trkpt lat="48.60577" lon="1.95327">
        <ele>104.44</ele>
        <time>2019-12-19T09:42:24Z</time>
      </trkpt>
      <trkpt lat="48.60577" lon="1.95324">
        <ele>103.96</ele>
        <time>2019-12-19T09:42:25Z</time>
      </trkpt>
      <trkpt lat="48.60576" lon="1.95322">
        <ele>104.44</ele>
        <time>2019-12-19T09:42:26Z</time>
      </trkpt>
      <trkpt lat="48.60576" lon="1.95319">
        <ele>104.44</ele>
        <time>2019-12-19T09:42:27Z</time>
      </trkpt>
      <trkpt lat="48.60577" lon="1.95317">
        <ele>104.44</ele>
        <time>2019-12-19T09:42:28Z</time>
      </trkpt>
      <trkpt lat="48.60576" lon="1.95314">
        <ele>104.44</ele>
        <time>2019-12-19T09:42:29Z</time>
      </trkpt>
      <trkpt lat="48.60576" lon="1.9531">
        <ele>104.92</ele>
        <time>2019-12-19T09:42:30Z</time>
      </trkpt>
      <trkpt lat="48.60576" lon="1.95307">
        <ele>104.44</ele>
        <time>2019-12-19T09:42:31Z</time>
      </trkpt>
      <trkpt lat="48.60575" lon="1.95305">
        <ele>104.44</ele>
        <time>2019-12-19T09:42:32Z</time>
      </trkpt>
      <trkpt lat="48.60575" lon="1.95303">
        <ele>105.4</ele>
        <time>2019-12-19T09:42:33Z</time>
      </trkpt>
      <trkpt lat="48.60575" lon="1.953">
        <ele>104.92</ele>
        <time>2019-12-19T09:42:34Z</time>
      </trkpt>
      <trkpt lat="48.60575" lon="1.95297">
        <ele>104.92</ele>
        <time>2019-12-19T09:42:35Z</time>
      </trkpt>
      <trkpt lat="48.60574" lon="1.95295">
        <ele>104.92</ele>
        <time>2019-12-19T09:42:36Z</time>
      </trkpt>
      <trkpt lat="48.60574" lon="1.95292">
        <ele>104.92</ele>
        <time>2019-12-19T09:42:37Z</time>
      </trkpt>
      <trkpt lat="48.60573" lon="1.95289">
        <ele>104.92</ele>
        <time>2019-12-19T09:42:38Z</time>
      </trkpt>
      <trkpt lat="48.60573" lon="1.95287">
        <ele>105.4</ele>
        <time>2019-12-19T09:42:39Z</time>
      </trkpt>
      <trkpt lat="48.60572" lon="1.95284">
        <ele>104.92</ele>
        <time>2019-12-19T09:42:40Z</time>
      </trkpt>
      <trkpt lat="48.60572" lon="1.95282">
        <ele>104.92</ele>
        <time>2019-12-19T09:42:41Z</time>
      </trkpt>
      <trkpt lat="48.60571" lon="1.9528">
        <ele>105.4</ele>
        <time>2019-12-19T09:42:42Z</time>
      </trkpt>
      <trkpt lat="48.60571" lon="1.95277">
        <ele>104.92</ele>
        <time>2019-12-19T09:42:43Z</time>
      </trkpt>
      <trkpt lat="48.60571" lon="1.95276">
        <ele>104.92</ele>
        <time>2019-12-19T09:42:44Z</time>
      </trkpt>
      <trkpt lat="48.6057" lon="1.95272">
        <ele>105.4</ele>
        <time>2019-12-19T09:42:45Z</time>
      </trkpt>
      <trkpt lat="48.6057" lon="1.95268">
        <ele>105.4</ele>
        <time>2019-12-19T09:42:46Z</time>
      </trkpt>
      <trkpt lat="48.6057" lon="1.95266">
        <ele>105.4</ele>
        <time>2019-12-19T09:42:47Z</time>
      </trkpt>
      <trkpt lat="48.6057" lon="1.95263">
        <ele>104.92</ele>
        <time>2019-12-19T09:42:48Z</time>
      </trkpt>
      <trkpt lat="48.6057" lon="1.95259">
        <ele>104.92</ele>
        <time>2019-12-19T09:42:49Z</time>
      </trkpt>
      <trkpt lat="48.6057" lon="1.95256">
        <ele>105.4</ele>
        <time>2019-12-19T09:42:50Z</time>
      </trkpt>
      <trkpt lat="48.60569" lon="1.95252">
        <ele>105.4</ele>
        <time>2019-12-19T09:42:51Z</time>
      </trkpt>
      <trkpt lat="48.60568" lon="1.95248">
        <ele>104.92</ele>
        <time>2019-12-19T09:42:52Z</time>
      </trkpt>
      <trkpt lat="48.60568" lon="1.95244">
        <ele>104.44</ele>
        <time>2019-12-19T09:42:53Z</time>
      </trkpt>
      <trkpt lat="48.60567" lon="1.95238">
        <ele>104.44</ele>
        <time>2019-12-19T09:42:54Z</time>
      </trkpt>
      <trkpt lat="48.60567" lon="1.95234">
        <ele>104.92</ele>
        <time>2019-12-19T09:42:55Z</time>
      </trkpt>
      <trkpt lat="48.60568" lon="1.95232">
        <ele>105.4</ele>
        <time>2019-12-19T09:42:56Z</time>
      </trkpt>
      <trkpt lat="48.60567" lon="1.95228">
        <ele>104.92</ele>
        <time>2019-12-19T09:42:57Z</time>
      </trkpt>
      <trkpt lat="48.60567" lon="1.95227">
        <ele>104.92</ele>
        <time>2019-12-19T09:42:58Z</time>
      </trkpt>
      <trkpt lat="48.60566" lon="1.95225">
        <ele>104.92</ele>
        <time>2019-12-19T09:42:59Z</time>
      </trkpt>
      <trkpt lat="48.60565" lon="1.95223">
        <ele>104.92</ele>
        <time>2019-12-19T09:43:00Z</time>
      </trkpt>
      <trkpt lat="48.60563" lon="1.95217">
        <ele>104.92</ele>
        <time>2019-12-19T09:43:01Z</time>
      </trkpt>
      <trkpt lat="48.60561" lon="1.95213">
        <ele>104.92</ele>
        <time>2019-12-19T09:43:02Z</time>
      </trkpt>
      <trkpt lat="48.6056" lon="1.9521">
        <ele>104.92</ele>
        <time>2019-12-19T09:43:03Z</time>
      </trkpt>
      <trkpt lat="48.6056" lon="1.95206">
        <ele>104.92</ele>
        <time>2019-12-19T09:43:05Z</time>
      </trkpt>
      <trkpt lat="48.60559" lon="1.95204">
        <ele>104.92</ele>
        <time>2019-12-19T09:43:06Z</time>
      </trkpt>
      <trkpt lat="48.60559" lon="1.95198">
        <ele>104.92</ele>
        <time>2019-12-19T09:43:19Z</time>
      </trkpt>
      <trkpt lat="48.60559" lon="1.95198">
        <ele>104.44</ele>
        <time>2019-12-19T09:43:20Z</time>
      </trkpt>
      <trkpt lat="48.60558" lon="1.95198">
        <ele>104.44</ele>
        <time>2019-12-19T09:43:21Z</time>
      </trkpt>
      <trkpt lat="48.60559" lon="1.95198">
        <ele>105.4</ele>
        <time>2019-12-19T09:43:38Z</time>
      </trkpt>
      <trkpt lat="48.6056" lon="1.95197">
        <ele>104.92</ele>
        <time>2019-12-19T09:43:39Z</time>
      </trkpt>
      <trkpt lat="48.6056" lon="1.95196">
        <ele>105.4</ele>
        <time>2019-12-19T09:43:40Z</time>
      </trkpt>
      <trkpt lat="48.60561" lon="1.95196">
        <ele>105.4</ele>
        <time>2019-12-19T09:43:41Z</time>
      </trkpt>
      <trkpt lat="48.60561" lon="1.95196">
        <ele>105.4</ele>
        <time>2019-12-19T09:43:42Z</time>
      </trkpt>
      <trkpt lat="48.60562" lon="1.95197">
        <ele>105.4</ele>
        <time>2019-12-19T09:43:44Z</time>
      </trkpt>
      <trkpt lat="48.60562" lon="1.95197">
        <ele>105.88</ele>
        <time>2019-12-19T09:43:45Z</time>
      </trkpt>
      <trkpt lat="48.60562" lon="1.95198">
        <ele>105.4</ele>
        <time>2019-12-19T09:43:47Z</time>
      </trkpt>
      <trkpt lat="48.60562" lon="1.95198">
        <ele>104.92</ele>
        <time>2019-12-19T09:43:48Z</time>
      </trkpt>
      <trkpt lat="48.60562" lon="1.95198">
        <ele>105.4</ele>
        <time>2019-12-19T09:43:53Z</time>
      </trkpt>
      <trkpt lat="48.60563" lon="1.95198">
        <ele>104.44</ele>
        <time>2019-12-19T09:43:54Z</time>
      </trkpt>
      <trkpt lat="48.60563" lon="1.95198">
        <ele>105.4</ele>
        <time>2019-12-19T09:44:01Z</time>
      </trkpt>
      <trkpt lat="48.60563" lon="1.95198">
        <ele>105.4</ele>
        <time>2019-12-19T09:44:02Z</time>
      </trkpt>
      <trkpt lat="48.60562" lon="1.95197">
        <ele>105.4</ele>
        <time>2019-12-19T09:44:19Z</time>
      </trkpt>
      <trkpt lat="48.60563" lon="1.95198">
        <ele>105.4</ele>
        <time>2019-12-19T09:44:20Z</time>
      </trkpt>
      <trkpt lat="48.60563" lon="1.95198">
        <ele>105.4</ele>
        <time>2019-12-19T09:44:21Z</time>
      </trkpt>
      <trkpt lat="48.60563" lon="1.95198">
        <ele>105.4</ele>
        <time>2019-12-19T09:44:22Z</time>
      </trkpt>
      <trkpt lat="48.60563" lon="1.95198">
        <ele>106.36</ele>
        <time>2019-12-19T09:44:26Z</time>
      </trkpt>
      <trkpt lat="48.60563" lon="1.95198">
        <ele>105.4</ele>
        <time>2019-12-19T09:44:27Z</time>
      </trkpt>
      <trkpt lat="48.60563" lon="1.95198">
        <ele>105.4</ele>
        <time>2019-12-19T09:44:28Z</time>
      </trkpt>
      <trkpt lat="48.60564" lon="1.95198">
        <ele>104.92</ele>
        <time>2019-12-19T09:44:30Z</time>
      </trkpt>
      <trkpt lat="48.60564" lon="1.95198">
        <ele>105.88</ele>
        <time>2019-12-19T09:44:31Z</time>
      </trkpt>
      <trkpt lat="48.60564" lon="1.95198">
        <ele>105.4</ele>
        <time>2019-12-19T09:44:32Z</time>
      </trkpt>
      <trkpt lat="48.60564" lon="1.95198">
        <ele>105.4</ele>
        <time>2019-12-19T09:44:33Z</time>
      </trkpt>
      <trkpt lat="48.60564" lon="1.95198">
        <ele>105.4</ele>
        <time>2019-12-19T09:44:34Z</time>
      </trkpt>
      <trkpt lat="48.60564" lon="1.95198">
        <ele>105.4</ele>
        <time>2019-12-19T09:44:35Z</time>
      </trkpt>
      <trkpt lat="48.60564" lon="1.95198">
        <ele>104.92</ele>
        <time>2019-12-19T09:44:36Z</time>
      </trkpt>
      <trkpt lat="48.60564" lon="1.95198">
        <ele>104.92</ele>
        <time>2019-12-19T09:44:37Z</time>
      </trkpt>
      <trkpt lat="48.60564" lon="1.95199">
        <ele>104.92</ele>
        <time>2019-12-19T09:44:38Z</time>
      </trkpt>
      <trkpt lat="48.60564" lon="1.952">
        <ele>105.4</ele>
        <time>2019-12-19T09:44:39Z</time>
      </trkpt>
      <trkpt lat="48.60564" lon="1.95201">
        <ele>104.92</ele>
        <time>2019-12-19T09:44:40Z</time>
      </trkpt>
      <trkpt lat="48.60563" lon="1.95202">
        <ele>104.92</ele>
        <time>2019-12-19T09:44:41Z</time>
      </trkpt>
      <trkpt lat="48.60563" lon="1.95203">
        <ele>104.92</ele>
        <time>2019-12-19T09:44:42Z</time>
      </trkpt>
      <trkpt lat="48.60563" lon="1.95204">
        <ele>104.92</ele>
        <time>2019-12-19T09:44:43Z</time>
      </trkpt>
      <trkpt lat="48.60562" lon="1.95205">
        <ele>104.92</ele>
        <time>2019-12-19T09:44:44Z</time>
      </trkpt>
      <trkpt lat="48.60561" lon="1.95206">
        <ele>104.44</ele>
        <time>2019-12-19T09:44:45Z</time>
      </trkpt>
      <trkpt lat="48.60561" lon="1.95207">
        <ele>104.92</ele>
        <time>2019-12-19T09:44:46Z</time>
      </trkpt>
      <trkpt lat="48.6056" lon="1.95207">
        <ele>104.44</ele>
        <time>2019-12-19T09:44:47Z</time>
      </trkpt>
      <trkpt lat="48.60559" lon="1.95208">
        <ele>104.92</ele>
        <time>2019-12-19T09:44:48Z</time>
      </trkpt>
      <trkpt lat="48.60559" lon="1.95209">
        <ele>104.92</ele>
        <time>2019-12-19T09:44:49Z</time>
      </trkpt>
      <trkpt lat="48.60559" lon="1.9521">
        <ele>104.92</ele>
        <time>2019-12-19T09:44:50Z</time>
      </trkpt>
      <trkpt lat="48.60559" lon="1.95212">
        <ele>104.44</ele>
        <time>2019-12-19T09:44:51Z</time>
      </trkpt>
      <trkpt lat="48.60559" lon="1.95214">
        <ele>104.92</ele>
        <time>2019-12-19T09:44:52Z</time>
      </trkpt>
      <trkpt lat="48.60558" lon="1.95216">
        <ele>104.92</ele>
        <time>2019-12-19T09:44:53Z</time>
      </trkpt>
      <trkpt lat="48.60557" lon="1.95218">
        <ele>104.92</ele>
        <time>2019-12-19T09:44:54Z</time>
      </trkpt>
      <trkpt lat="48.60557" lon="1.95219">
        <ele>104.44</ele>
        <time>2019-12-19T09:44:55Z</time>
      </trkpt>
      <trkpt lat="48.60557" lon="1.9522">
        <ele>104.44</ele>
        <time>2019-12-19T09:44:56Z</time>
      </trkpt>
      <trkpt lat="48.60556" lon="1.95222">
        <ele>104.44</ele>
        <time>2019-12-19T09:44:57Z</time>
      </trkpt>
      <trkpt lat="48.60556" lon="1.95223">
        <ele>104.92</ele>
        <time>2019-12-19T09:44:58Z</time>
      </trkpt>
      <trkpt lat="48.60555" lon="1.95225">
        <ele>104.92</ele>
        <time>2019-12-19T09:44:59Z</time>
      </trkpt>
      <trkpt lat="48.60555" lon="1.95226">
        <ele>104.44</ele>
        <time>2019-12-19T09:45:00Z</time>
      </trkpt>
      <trkpt lat="48.60554" lon="1.95228">
        <ele>104.92</ele>
        <time>2019-12-19T09:45:01Z</time>
      </trkpt>
      <trkpt lat="48.60554" lon="1.95229">
        <ele>104.92</ele>
        <time>2019-12-19T09:45:02Z</time>
      </trkpt>
      <trkpt lat="48.60553" lon="1.9523">
        <ele>104.44</ele>
        <time>2019-12-19T09:45:03Z</time>
      </trkpt>
      <trkpt lat="48.60552" lon="1.95232">
        <ele>105.4</ele>
        <time>2019-12-19T09:45:04Z</time>
      </trkpt>
      <trkpt lat="48.60551" lon="1.95233">
        <ele>104.92</ele>
        <time>2019-12-19T09:45:05Z</time>
      </trkpt>
      <trkpt lat="48.6055" lon="1.95235">
        <ele>104.92</ele>
        <time>2019-12-19T09:45:06Z</time>
      </trkpt>
      <trkpt lat="48.6055" lon="1.95237">
        <ele>104.92</ele>
        <time>2019-12-19T09:45:07Z</time>
      </trkpt>
      <trkpt lat="48.60549" lon="1.95239">
        <ele>104.92</ele>
        <time>2019-12-19T09:45:08Z</time>
      </trkpt>
      <trkpt lat="48.6055" lon="1.95242">
        <ele>104.92</ele>
        <time>2019-12-19T09:45:09Z</time>
      </trkpt>
      <trkpt lat="48.6055" lon="1.95244">
        <ele>104.92</ele>
        <time>2019-12-19T09:45:10Z</time>
      </trkpt>
      <trkpt lat="48.60549" lon="1.95246">
        <ele>104.92</ele>
        <time>2019-12-19T09:45:11Z</time>
      </trkpt>
      <trkpt lat="48.60548" lon="1.95248">
        <ele>105.4</ele>
        <time>2019-12-19T09:45:12Z</time>
      </trkpt>
      <trkpt lat="48.60547" lon="1.9525">
        <ele>104.92</ele>
        <time>2019-12-19T09:45:13Z</time>
      </trkpt>
      <trkpt lat="48.60545" lon="1.95252">
        <ele>104.92</ele>
        <time>2019-12-19T09:45:14Z</time>
      </trkpt>
      <trkpt lat="48.60544" lon="1.95254">
        <ele>104.92</ele>
        <time>2019-12-19T09:45:15Z</time>
      </trkpt>
      <trkpt lat="48.60543" lon="1.95255">
        <ele>104.92</ele>
        <time>2019-12-19T09:45:16Z</time>
      </trkpt>
      <trkpt lat="48.60543" lon="1.95256">
        <ele>104.92</ele>
        <time>2019-12-19T09:45:17Z</time>
      </trkpt>
      <trkpt lat="48.60542" lon="1.95258">
        <ele>104.44</ele>
        <time>2019-12-19T09:45:18Z</time>
      </trkpt>
      <trkpt lat="48.60541" lon="1.95259">
        <ele>104.92</ele>
        <time>2019-12-19T09:45:19Z</time>
      </trkpt>
      <trkpt lat="48.60539" lon="1.95261">
        <ele>104.44</ele>
        <time>2019-12-19T09:45:20Z</time>
      </trkpt>
      <trkpt lat="48.60539" lon="1.95262">
        <ele>104.92</ele>
        <time>2019-12-19T09:45:21Z</time>
      </trkpt>
      <trkpt lat="48.60538" lon="1.95264">
        <ele>104.92</ele>
        <time>2019-12-19T09:45:22Z</time>
      </trkpt>
      <trkpt lat="48.60537" lon="1.95266">
        <ele>104.92</ele>
        <time>2019-12-19T09:45:23Z</time>
      </trkpt>
      <trkpt lat="48.60536" lon="1.95267">
        <ele>104.92</ele>
        <time>2019-12-19T09:45:24Z</time>
      </trkpt>
      <trkpt lat="48.60536" lon="1.95269">
        <ele>104.92</ele>
        <time>2019-12-19T09:45:25Z</time>
      </trkpt>
      <trkpt lat="48.60535" lon="1.9527">
        <ele>104.92</ele>
        <time>2019-12-19T09:45:26Z</time>
      </trkpt>
      <trkpt lat="48.60534" lon="1.95271">
        <ele>104.92</ele>
        <time>2019-12-19T09:45:27Z</time>
      </trkpt>
      <trkpt lat="48.60533" lon="1.95273">
        <ele>104.92</ele>
        <time>2019-12-19T09:45:28Z</time>
      </trkpt>
      <trkpt lat="48.60533" lon="1.95274">
        <ele>104.92</ele>
        <time>2019-12-19T09:45:29Z</time>
      </trkpt>
      <trkpt lat="48.60532" lon="1.95275">
        <ele>104.92</ele>
        <time>2019-12-19T09:45:30Z</time>
      </trkpt>
      <trkpt lat="48.60532" lon="1.95276">
        <ele>105.4</ele>
        <time>2019-12-19T09:45:31Z</time>
      </trkpt>
      <trkpt lat="48.60531" lon="1.95277">
        <ele>105.4</ele>
        <time>2019-12-19T09:45:32Z</time>
      </trkpt>
      <trkpt lat="48.60531" lon="1.95278">
        <ele>104.92</ele>
        <time>2019-12-19T09:45:33Z</time>
      </trkpt>
      <trkpt lat="48.60531" lon="1.95279">
        <ele>104.92</ele>
        <time>2019-12-19T09:45:34Z</time>
      </trkpt>
      <trkpt lat="48.6053" lon="1.95281">
        <ele>104.92</ele>
        <time>2019-12-19T09:45:35Z</time>
      </trkpt>
      <trkpt lat="48.6053" lon="1.95283">
        <ele>104.92</ele>
        <time>2019-12-19T09:45:36Z</time>
      </trkpt>
      <trkpt lat="48.60529" lon="1.95284">
        <ele>104.92</ele>
        <time>2019-12-19T09:45:37Z</time>
      </trkpt>
      <trkpt lat="48.60529" lon="1.95286">
        <ele>106.36</ele>
        <time>2019-12-19T09:45:38Z</time>
      </trkpt>
      <trkpt lat="48.60528" lon="1.95287">
        <ele>104.92</ele>
        <time>2019-12-19T09:45:39Z</time>
      </trkpt>
      <trkpt lat="48.60527" lon="1.95289">
        <ele>104.92</ele>
        <time>2019-12-19T09:45:40Z</time>
      </trkpt>
      <trkpt lat="48.60527" lon="1.95291">
        <ele>104.44</ele>
        <time>2019-12-19T09:45:41Z</time>
      </trkpt>
      <trkpt lat="48.60526" lon="1.95293">
        <ele>104.44</ele>
        <time>2019-12-19T09:45:42Z</time>
      </trkpt>
      <trkpt lat="48.60525" lon="1.95295">
        <ele>104.44</ele>
        <time>2019-12-19T09:45:43Z</time>
      </trkpt>
      <trkpt lat="48.60524" lon="1.95297">
        <ele>104.44</ele>
        <time>2019-12-19T09:45:44Z</time>
      </trkpt>
      <trkpt lat="48.60523" lon="1.95299">
        <ele>104.92</ele>
        <time>2019-12-19T09:45:45Z</time>
      </trkpt>
      <trkpt lat="48.60522" lon="1.95301">
        <ele>104.92</ele>
        <time>2019-12-19T09:45:46Z</time>
      </trkpt>
      <trkpt lat="48.60521" lon="1.95303">
        <ele>104.44</ele>
        <time>2019-12-19T09:45:47Z</time>
      </trkpt>
      <trkpt lat="48.6052" lon="1.95305">
        <ele>104.44</ele>
        <time>2019-12-19T09:45:48Z</time>
      </trkpt>
      <trkpt lat="48.6052" lon="1.95306">
        <ele>104.44</ele>
        <time>2019-12-19T09:45:49Z</time>
      </trkpt>
      <trkpt lat="48.60519" lon="1.95308">
        <ele>104.44</ele>
        <time>2019-12-19T09:45:50Z</time>
      </trkpt>
      <trkpt lat="48.60518" lon="1.9531">
        <ele>104.44</ele>
        <time>2019-12-19T09:45:51Z</time>
      </trkpt>
      <trkpt lat="48.60518" lon="1.95312">
        <ele>104.44</ele>
        <time>2019-12-19T09:45:52Z</time>
      </trkpt>
      <trkpt lat="48.60518" lon="1.95314">
        <ele>104.44</ele>
        <time>2019-12-19T09:45:53Z</time>
      </trkpt>
      <trkpt lat="48.60517" lon="1.95315">
        <ele>103.96</ele>
        <time>2019-12-19T09:45:54Z</time>
      </trkpt>
      <trkpt lat="48.60516" lon="1.95316">
        <ele>104.44</ele>
        <time>2019-12-19T09:45:55Z</time>
      </trkpt>
      <trkpt lat="48.60516" lon="1.95317">
        <ele>104.92</ele>
        <time>2019-12-19T09:45:56Z</time>
      </trkpt>
      <trkpt lat="48.60515" lon="1.95318">
        <ele>104.92</ele>
        <time>2019-12-19T09:45:57Z</time>
      </trkpt>
      <trkpt lat="48.60515" lon="1.95319">
        <ele>105.4</ele>
        <time>2019-12-19T09:45:58Z</time>
      </trkpt>
      <trkpt lat="48.60514" lon="1.95319">
        <ele>104.92</ele>
        <time>2019-12-19T09:45:59Z</time>
      </trkpt>
      <trkpt lat="48.60514" lon="1.9532">
        <ele>104.92</ele>
        <time>2019-12-19T09:46:00Z</time>
      </trkpt>
      <trkpt lat="48.60514" lon="1.95321">
        <ele>104.92</ele>
        <time>2019-12-19T09:46:01Z</time>
      </trkpt>
      <trkpt lat="48.60513" lon="1.95322">
        <ele>104.92</ele>
        <time>2019-12-19T09:46:02Z</time>
      </trkpt>
      <trkpt lat="48.60513" lon="1.95324">
        <ele>104.92</ele>
        <time>2019-12-19T09:46:03Z</time>
      </trkpt>
      <trkpt lat="48.60512" lon="1.95325">
        <ele>104.92</ele>
        <time>2019-12-19T09:46:04Z</time>
      </trkpt>
      <trkpt lat="48.60511" lon="1.95327">
        <ele>104.92</ele>
        <time>2019-12-19T09:46:05Z</time>
      </trkpt>
      <trkpt lat="48.60511" lon="1.95329">
        <ele>104.92</ele>
        <time>2019-12-19T09:46:06Z</time>
      </trkpt>
      <trkpt lat="48.6051" lon="1.95332">
        <ele>104.44</ele>
        <time>2019-12-19T09:46:07Z</time>
      </trkpt>
      <trkpt lat="48.60509" lon="1.95334">
        <ele>104.44</ele>
        <time>2019-12-19T09:46:08Z</time>
      </trkpt>
      <trkpt lat="48.60508" lon="1.95337">
        <ele>104.92</ele>
        <time>2019-12-19T09:46:09Z</time>
      </trkpt>
      <trkpt lat="48.60507" lon="1.9534">
        <ele>104.44</ele>
        <time>2019-12-19T09:46:10Z</time>
      </trkpt>
      <trkpt lat="48.60505" lon="1.95342">
        <ele>104.92</ele>
        <time>2019-12-19T09:46:11Z</time>
      </trkpt>
      <trkpt lat="48.60504" lon="1.95345">
        <ele>104.92</ele>
        <time>2019-12-19T09:46:12Z</time>
      </trkpt>
      <trkpt lat="48.60502" lon="1.95347">
        <ele>105.4</ele>
        <time>2019-12-19T09:46:13Z</time>
      </trkpt>
      <trkpt lat="48.60501" lon="1.95349">
        <ele>104.92</ele>
        <time>2019-12-19T09:46:14Z</time>
      </trkpt>
      <trkpt lat="48.605" lon="1.9535">
        <ele>104.92</ele>
        <time>2019-12-19T09:46:15Z</time>
      </trkpt>
      <trkpt lat="48.60499" lon="1.95352">
        <ele>104.92</ele>
        <time>2019-12-19T09:46:16Z</time>
      </trkpt>
      <trkpt lat="48.60497" lon="1.95353">
        <ele>104.92</ele>
        <time>2019-12-19T09:46:17Z</time>
      </trkpt>
      <trkpt lat="48.60496" lon="1.95355">
        <ele>105.4</ele>
        <time>2019-12-19T09:46:18Z</time>
      </trkpt>
      <trkpt lat="48.60496" lon="1.95356">
        <ele>104.92</ele>
        <time>2019-12-19T09:46:19Z</time>
      </trkpt>
      <trkpt lat="48.60495" lon="1.95358">
        <ele>104.92</ele>
        <time>2019-12-19T09:46:20Z</time>
      </trkpt>
      <trkpt lat="48.60495" lon="1.95359">
        <ele>104.92</ele>
        <time>2019-12-19T09:46:21Z</time>
      </trkpt>
      <trkpt lat="48.60494" lon="1.9536">
        <ele>105.4</ele>
        <time>2019-12-19T09:46:22Z</time>
      </trkpt>
      <trkpt lat="48.60494" lon="1.95362">
        <ele>105.88</ele>
        <time>2019-12-19T09:46:23Z</time>
      </trkpt>
      <trkpt lat="48.60493" lon="1.95364">
        <ele>105.4</ele>
        <time>2019-12-19T09:46:24Z</time>
      </trkpt>
      <trkpt lat="48.60493" lon="1.95366">
        <ele>105.88</ele>
        <time>2019-12-19T09:46:25Z</time>
      </trkpt>
      <trkpt lat="48.60492" lon="1.95367">
        <ele>105.88</ele>
        <time>2019-12-19T09:46:26Z</time>
      </trkpt>
      <trkpt lat="48.60491" lon="1.95369">
        <ele>105.4</ele>
        <time>2019-12-19T09:46:27Z</time>
      </trkpt>
      <trkpt lat="48.6049" lon="1.95371">
        <ele>105.4</ele>
        <time>2019-12-19T09:46:28Z</time>
      </trkpt>
      <trkpt lat="48.60489" lon="1.95373">
        <ele>105.88</ele>
        <time>2019-12-19T09:46:29Z</time>
      </trkpt>
      <trkpt lat="48.60488" lon="1.95374">
        <ele>106.84</ele>
        <time>2019-12-19T09:46:30Z</time>
      </trkpt>
      <trkpt lat="48.60487" lon="1.95376">
        <ele>105.88</ele>
        <time>2019-12-19T09:46:31Z</time>
      </trkpt>
      <trkpt lat="48.60486" lon="1.95378">
        <ele>106.36</ele>
        <time>2019-12-19T09:46:32Z</time>
      </trkpt>
      <trkpt lat="48.60485" lon="1.9538">
        <ele>105.88</ele>
        <time>2019-12-19T09:46:33Z</time>
      </trkpt>
      <trkpt lat="48.60484" lon="1.95383">
        <ele>105.88</ele>
        <time>2019-12-19T09:46:34Z</time>
      </trkpt>
      <trkpt lat="48.60484" lon="1.95385">
        <ele>105.88</ele>
        <time>2019-12-19T09:46:35Z</time>
      </trkpt>
      <trkpt lat="48.60483" lon="1.95387">
        <ele>105.88</ele>
        <time>2019-12-19T09:46:36Z</time>
      </trkpt>
      <trkpt lat="48.60483" lon="1.95389">
        <ele>105.88</ele>
        <time>2019-12-19T09:46:37Z</time>
      </trkpt>
      <trkpt lat="48.60482" lon="1.9539">
        <ele>105.88</ele>
        <time>2019-12-19T09:46:38Z</time>
      </trkpt>
      <trkpt lat="48.60482" lon="1.95392">
        <ele>106.36</ele>
        <time>2019-12-19T09:46:39Z</time>
      </trkpt>
      <trkpt lat="48.60481" lon="1.95394">
        <ele>105.88</ele>
        <time>2019-12-19T09:46:40Z</time>
      </trkpt>
      <trkpt lat="48.6048" lon="1.95395">
        <ele>105.88</ele>
        <time>2019-12-19T09:46:41Z</time>
      </trkpt>
      <trkpt lat="48.60479" lon="1.95398">
        <ele>105.4</ele>
        <time>2019-12-19T09:46:42Z</time>
      </trkpt>
      <trkpt lat="48.60479" lon="1.954">
        <ele>105.88</ele>
        <time>2019-12-19T09:46:43Z</time>
      </trkpt>
      <trkpt lat="48.60478" lon="1.95402">
        <ele>105.4</ele>
        <time>2019-12-19T09:46:44Z</time>
      </trkpt>
      <trkpt lat="48.60477" lon="1.95404">
        <ele>105.4</ele>
        <time>2019-12-19T09:46:45Z</time>
      </trkpt>
      <trkpt lat="48.60477" lon="1.95406">
        <ele>105.4</ele>
        <time>2019-12-19T09:46:46Z</time>
      </trkpt>
      <trkpt lat="48.60476" lon="1.95407">
        <ele>105.4</ele>
        <time>2019-12-19T09:46:47Z</time>
      </trkpt>
      <trkpt lat="48.60475" lon="1.95409">
        <ele>105.4</ele>
        <time>2019-12-19T09:46:48Z</time>
      </trkpt>
      <trkpt lat="48.60474" lon="1.95411">
        <ele>105.4</ele>
        <time>2019-12-19T09:46:49Z</time>
      </trkpt>
      <trkpt lat="48.60474" lon="1.95413">
        <ele>105.88</ele>
        <time>2019-12-19T09:46:50Z</time>
      </trkpt>
      <trkpt lat="48.60473" lon="1.95415">
        <ele>105.4</ele>
        <time>2019-12-19T09:46:51Z</time>
      </trkpt>
      <trkpt lat="48.60473" lon="1.95416">
        <ele>105.4</ele>
        <time>2019-12-19T09:46:52Z</time>
      </trkpt>
      <trkpt lat="48.60472" lon="1.95418">
        <ele>105.4</ele>
        <time>2019-12-19T09:46:53Z</time>
      </trkpt>
      <trkpt lat="48.60471" lon="1.95419">
        <ele>105.4</ele>
        <time>2019-12-19T09:46:54Z</time>
      </trkpt>
      <trkpt lat="48.60471" lon="1.95421">
        <ele>105.4</ele>
        <time>2019-12-19T09:46:55Z</time>
      </trkpt>
      <trkpt lat="48.6047" lon="1.95422">
        <ele>105.4</ele>
        <time>2019-12-19T09:46:56Z</time>
      </trkpt>
      <trkpt lat="48.60469" lon="1.95424">
        <ele>105.4</ele>
        <time>2019-12-19T09:46:57Z</time>
      </trkpt>
      <trkpt lat="48.60469" lon="1.95426">
        <ele>105.4</ele>
        <time>2019-12-19T09:46:58Z</time>
      </trkpt>
      <trkpt lat="48.60468" lon="1.95429">
        <ele>105.88</ele>
        <time>2019-12-19T09:46:59Z</time>
      </trkpt>
      <trkpt lat="48.60466" lon="1.95432">
        <ele>105.88</ele>
        <time>2019-12-19T09:47:00Z</time>
      </trkpt>
      <trkpt lat="48.60465" lon="1.95434">
        <ele>105.4</ele>
        <time>2019-12-19T09:47:01Z</time>
      </trkpt>
      <trkpt lat="48.60463" lon="1.95436">
        <ele>105.4</ele>
        <time>2019-12-19T09:47:02Z</time>
      </trkpt>
      <trkpt lat="48.60462" lon="1.95438">
        <ele>105.4</ele>
        <time>2019-12-19T09:47:03Z</time>
      </trkpt>
      <trkpt lat="48.60462" lon="1.95441">
        <ele>105.4</ele>
        <time>2019-12-19T09:47:04Z</time>
      </trkpt>
      <trkpt lat="48.60461" lon="1.95442">
        <ele>105.4</ele>
        <time>2019-12-19T09:47:05Z</time>
      </trkpt>
      <trkpt lat="48.60461" lon="1.95443">
        <ele>105.4</ele>
        <time>2019-12-19T09:47:06Z</time>
      </trkpt>
      <trkpt lat="48.6046" lon="1.95444">
        <ele>105.4</ele>
        <time>2019-12-19T09:47:07Z</time>
      </trkpt>
      <trkpt lat="48.60459" lon="1.95445">
        <ele>105.4</ele>
        <time>2019-12-19T09:47:08Z</time>
      </trkpt>
      <trkpt lat="48.60459" lon="1.95446">
        <ele>105.4</ele>
        <time>2019-12-19T09:47:09Z</time>
      </trkpt>
      <trkpt lat="48.60458" lon="1.95446">
        <ele>105.4</ele>
        <time>2019-12-19T09:47:10Z</time>
      </trkpt>
      <trkpt lat="48.60457" lon="1.95447">
        <ele>104.92</ele>
        <time>2019-12-19T09:47:11Z</time>
      </trkpt>
      <trkpt lat="48.60456" lon="1.95449">
        <ele>104.44</ele>
        <time>2019-12-19T09:47:12Z</time>
      </trkpt>
      <trkpt lat="48.60455" lon="1.95451">
        <ele>104.92</ele>
        <time>2019-12-19T09:47:13Z</time>
      </trkpt>
      <trkpt lat="48.60455" lon="1.95452">
        <ele>105.4</ele>
        <time>2019-12-19T09:47:14Z</time>
      </trkpt>
      <trkpt lat="48.60454" lon="1.95454">
        <ele>104.92</ele>
        <time>2019-12-19T09:47:15Z</time>
      </trkpt>
      <trkpt lat="48.60454" lon="1.95456">
        <ele>104.92</ele>
        <time>2019-12-19T09:47:16Z</time>
      </trkpt>
      <trkpt lat="48.60452" lon="1.95458">
        <ele>104.44</ele>
        <time>2019-12-19T09:47:17Z</time>
      </trkpt>
      <trkpt lat="48.60451" lon="1.9546">
        <ele>104.92</ele>
        <time>2019-12-19T09:47:18Z</time>
      </trkpt>
      <trkpt lat="48.6045" lon="1.95462">
        <ele>105.4</ele>
        <time>2019-12-19T09:47:19Z</time>
      </trkpt>
      <trkpt lat="48.60448" lon="1.95463">
        <ele>104.92</ele>
        <time>2019-12-19T09:47:20Z</time>
      </trkpt>
      <trkpt lat="48.60447" lon="1.95465">
        <ele>104.44</ele>
        <time>2019-12-19T09:47:21Z</time>
      </trkpt>
      <trkpt lat="48.60446" lon="1.95466">
        <ele>104.92</ele>
        <time>2019-12-19T09:47:22Z</time>
      </trkpt>
      <trkpt lat="48.60445" lon="1.95467">
        <ele>104.44</ele>
        <time>2019-12-19T09:47:23Z</time>
      </trkpt>
      <trkpt lat="48.60444" lon="1.95469">
        <ele>104.44</ele>
        <time>2019-12-19T09:47:24Z</time>
      </trkpt>
      <trkpt lat="48.60443" lon="1.9547">
        <ele>104.44</ele>
        <time>2019-12-19T09:47:25Z</time>
      </trkpt>
      <trkpt lat="48.60443" lon="1.9547">
        <ele>105.4</ele>
        <time>2019-12-19T09:47:26Z</time>
      </trkpt>
      <trkpt lat="48.60441" lon="1.95472">
        <ele>105.4</ele>
        <time>2019-12-19T09:47:27Z</time>
      </trkpt>
      <trkpt lat="48.6044" lon="1.95474">
        <ele>104.92</ele>
        <time>2019-12-19T09:47:28Z</time>
      </trkpt>
      <trkpt lat="48.6044" lon="1.95476">
        <ele>104.92</ele>
        <time>2019-12-19T09:47:29Z</time>
      </trkpt>
      <trkpt lat="48.60439" lon="1.95479">
        <ele>104.92</ele>
        <time>2019-12-19T09:47:30Z</time>
      </trkpt>
      <trkpt lat="48.60438" lon="1.95481">
        <ele>104.92</ele>
        <time>2019-12-19T09:47:31Z</time>
      </trkpt>
      <trkpt lat="48.60437" lon="1.95482">
        <ele>104.92</ele>
        <time>2019-12-19T09:47:32Z</time>
      </trkpt>
      <trkpt lat="48.60436" lon="1.95484">
        <ele>104.92</ele>
        <time>2019-12-19T09:47:33Z</time>
      </trkpt>
      <trkpt lat="48.60435" lon="1.95485">
        <ele>104.92</ele>
        <time>2019-12-19T09:47:34Z</time>
      </trkpt>
      <trkpt lat="48.60434" lon="1.95487">
        <ele>104.92</ele>
        <time>2019-12-19T09:47:35Z</time>
      </trkpt>
      <trkpt lat="48.60434" lon="1.95488">
        <ele>105.4</ele>
        <time>2019-12-19T09:47:36Z</time>
      </trkpt>
      <trkpt lat="48.60433" lon="1.95489">
        <ele>104.92</ele>
        <time>2019-12-19T09:47:37Z</time>
      </trkpt>
      <trkpt lat="48.60432" lon="1.95491">
        <ele>106.84</ele>
        <time>2019-12-19T09:47:38Z</time>
      </trkpt>
      <trkpt lat="48.60431" lon="1.95492">
        <ele>105.4</ele>
        <time>2019-12-19T09:47:39Z</time>
      </trkpt>
      <trkpt lat="48.60429" lon="1.95493">
        <ele>104.92</ele>
        <time>2019-12-19T09:47:40Z</time>
      </trkpt>
      <trkpt lat="48.60428" lon="1.95495">
        <ele>104.92</ele>
        <time>2019-12-19T09:47:41Z</time>
      </trkpt>
      <trkpt lat="48.60427" lon="1.95496">
        <ele>105.4</ele>
        <time>2019-12-19T09:47:42Z</time>
      </trkpt>
      <trkpt lat="48.60426" lon="1.95498">
        <ele>104.92</ele>
        <time>2019-12-19T09:47:43Z</time>
      </trkpt>
      <trkpt lat="48.60426" lon="1.955">
        <ele>104.92</ele>
        <time>2019-12-19T09:47:44Z</time>
      </trkpt>
      <trkpt lat="48.60425" lon="1.95502">
        <ele>104.92</ele>
        <time>2019-12-19T09:47:45Z</time>
      </trkpt>
      <trkpt lat="48.60424" lon="1.95504">
        <ele>104.92</ele>
        <time>2019-12-19T09:47:46Z</time>
      </trkpt>
      <trkpt lat="48.60424" lon="1.95506">
        <ele>104.92</ele>
        <time>2019-12-19T09:47:47Z</time>
      </trkpt>
      <trkpt lat="48.60423" lon="1.95508">
        <ele>105.4</ele>
        <time>2019-12-19T09:47:48Z</time>
      </trkpt>
      <trkpt lat="48.60422" lon="1.9551">
        <ele>104.92</ele>
        <time>2019-12-19T09:47:49Z</time>
      </trkpt>
      <trkpt lat="48.60421" lon="1.95512">
        <ele>104.44</ele>
        <time>2019-12-19T09:47:50Z</time>
      </trkpt>
      <trkpt lat="48.6042" lon="1.95514">
        <ele>104.92</ele>
        <time>2019-12-19T09:47:51Z</time>
      </trkpt>
      <trkpt lat="48.60419" lon="1.95516">
        <ele>104.44</ele>
        <time>2019-12-19T09:47:52Z</time>
      </trkpt>
      <trkpt lat="48.60419" lon="1.95518">
        <ele>104.44</ele>
        <time>2019-12-19T09:47:53Z</time>
      </trkpt>
      <trkpt lat="48.60418" lon="1.95519">
        <ele>104.44</ele>
        <time>2019-12-19T09:47:54Z</time>
      </trkpt>
      <trkpt lat="48.60417" lon="1.95521">
        <ele>104.44</ele>
        <time>2019-12-19T09:47:55Z</time>
      </trkpt>
      <trkpt lat="48.60416" lon="1.95523">
        <ele>104.44</ele>
        <time>2019-12-19T09:47:56Z</time>
      </trkpt>
      <trkpt lat="48.60416" lon="1.95525">
        <ele>103.96</ele>
        <time>2019-12-19T09:47:57Z</time>
      </trkpt>
      <trkpt lat="48.60415" lon="1.95527">
        <ele>104.44</ele>
        <time>2019-12-19T09:47:58Z</time>
      </trkpt>
      <trkpt lat="48.60414" lon="1.95529">
        <ele>104.92</ele>
        <time>2019-12-19T09:47:59Z</time>
      </trkpt>
      <trkpt lat="48.60413" lon="1.95531">
        <ele>104.44</ele>
        <time>2019-12-19T09:48:00Z</time>
      </trkpt>
      <trkpt lat="48.60412" lon="1.95533">
        <ele>104.44</ele>
        <time>2019-12-19T09:48:01Z</time>
      </trkpt>
      <trkpt lat="48.60411" lon="1.95535">
        <ele>103.96</ele>
        <time>2019-12-19T09:48:02Z</time>
      </trkpt>
      <trkpt lat="48.6041" lon="1.95537">
        <ele>103.96</ele>
        <time>2019-12-19T09:48:03Z</time>
      </trkpt>
      <trkpt lat="48.6041" lon="1.95539">
        <ele>104.44</ele>
        <time>2019-12-19T09:48:04Z</time>
      </trkpt>
      <trkpt lat="48.60409" lon="1.95541">
        <ele>103.96</ele>
        <time>2019-12-19T09:48:05Z</time>
      </trkpt>
      <trkpt lat="48.60408" lon="1.95543">
        <ele>103.96</ele>
        <time>2019-12-19T09:48:06Z</time>
      </trkpt>
      <trkpt lat="48.60407" lon="1.95545">
        <ele>103.96</ele>
        <time>2019-12-19T09:48:07Z</time>
      </trkpt>
      <trkpt lat="48.60407" lon="1.95546">
        <ele>103.48</ele>
        <time>2019-12-19T09:48:08Z</time>
      </trkpt>
      <trkpt lat="48.60406" lon="1.95547">
        <ele>104.44</ele>
        <time>2019-12-19T09:48:09Z</time>
      </trkpt>
      <trkpt lat="48.60404" lon="1.95548">
        <ele>103.96</ele>
        <time>2019-12-19T09:48:10Z</time>
      </trkpt>
      <trkpt lat="48.60403" lon="1.9555">
        <ele>103.96</ele>
        <time>2019-12-19T09:48:11Z</time>
      </trkpt>
      <trkpt lat="48.60402" lon="1.95551">
        <ele>103.48</ele>
        <time>2019-12-19T09:48:12Z</time>
      </trkpt>
      <trkpt lat="48.60401" lon="1.95552">
        <ele>103.96</ele>
        <time>2019-12-19T09:48:13Z</time>
      </trkpt>
      <trkpt lat="48.604" lon="1.95553">
        <ele>103.96</ele>
        <time>2019-12-19T09:48:14Z</time>
      </trkpt>
      <trkpt lat="48.604" lon="1.95555">
        <ele>103.48</ele>
        <time>2019-12-19T09:48:15Z</time>
      </trkpt>
      <trkpt lat="48.60399" lon="1.95556">
        <ele>103.48</ele>
        <time>2019-12-19T09:48:16Z</time>
      </trkpt>
      <trkpt lat="48.60398" lon="1.95558">
        <ele>103.96</ele>
        <time>2019-12-19T09:48:17Z</time>
      </trkpt>
      <trkpt lat="48.60397" lon="1.95559">
        <ele>103.96</ele>
        <time>2019-12-19T09:48:18Z</time>
      </trkpt>
      <trkpt lat="48.60396" lon="1.95561">
        <ele>103.96</ele>
        <time>2019-12-19T09:48:19Z</time>
      </trkpt>
      <trkpt lat="48.60396" lon="1.95563">
        <ele>103.96</ele>
        <time>2019-12-19T09:48:20Z</time>
      </trkpt>
      <trkpt lat="48.60395" lon="1.95564">
        <ele>103.96</ele>
        <time>2019-12-19T09:48:21Z</time>
      </trkpt>
      <trkpt lat="48.60394" lon="1.95567">
        <ele>103.48</ele>
        <time>2019-12-19T09:48:22Z</time>
      </trkpt>
      <trkpt lat="48.60393" lon="1.95569">
        <ele>103.48</ele>
        <time>2019-12-19T09:48:23Z</time>
      </trkpt>
      <trkpt lat="48.60393" lon="1.95571">
        <ele>103.48</ele>
        <time>2019-12-19T09:48:24Z</time>
      </trkpt>
      <trkpt lat="48.60392" lon="1.95573">
        <ele>103.48</ele>
        <time>2019-12-19T09:48:25Z</time>
      </trkpt>
      <trkpt lat="48.60391" lon="1.95575">
        <ele>103.48</ele>
        <time>2019-12-19T09:48:26Z</time>
      </trkpt>
      <trkpt lat="48.6039" lon="1.95576">
        <ele>103.48</ele>
        <time>2019-12-19T09:48:27Z</time>
      </trkpt>
      <trkpt lat="48.60389" lon="1.95578">
        <ele>103.48</ele>
        <time>2019-12-19T09:48:28Z</time>
      </trkpt>
      <trkpt lat="48.60388" lon="1.95579">
        <ele>103</ele>
        <time>2019-12-19T09:48:29Z</time>
      </trkpt>
      <trkpt lat="48.60388" lon="1.95581">
        <ele>103</ele>
        <time>2019-12-19T09:48:30Z</time>
      </trkpt>
      <trkpt lat="48.60387" lon="1.95582">
        <ele>103.48</ele>
        <time>2019-12-19T09:48:31Z</time>
      </trkpt>
      <trkpt lat="48.60386" lon="1.95583">
        <ele>103.48</ele>
        <time>2019-12-19T09:48:32Z</time>
      </trkpt>
      <trkpt lat="48.60386" lon="1.95584">
        <ele>103.48</ele>
        <time>2019-12-19T09:48:33Z</time>
      </trkpt>
      <trkpt lat="48.60385" lon="1.95586">
        <ele>103.48</ele>
        <time>2019-12-19T09:48:34Z</time>
      </trkpt>
      <trkpt lat="48.60384" lon="1.95587">
        <ele>103.48</ele>
        <time>2019-12-19T09:48:35Z</time>
      </trkpt>
      <trkpt lat="48.60384" lon="1.95589">
        <ele>103.48</ele>
        <time>2019-12-19T09:48:36Z</time>
      </trkpt>
      <trkpt lat="48.60383" lon="1.9559">
        <ele>103.48</ele>
        <time>2019-12-19T09:48:37Z</time>
      </trkpt>
      <trkpt lat="48.60383" lon="1.95592">
        <ele>103</ele>
        <time>2019-12-19T09:48:38Z</time>
      </trkpt>
      <trkpt lat="48.60382" lon="1.95594">
        <ele>103.96</ele>
        <time>2019-12-19T09:48:39Z</time>
      </trkpt>
      <trkpt lat="48.60382" lon="1.95596">
        <ele>103.96</ele>
        <time>2019-12-19T09:48:40Z</time>
      </trkpt>
      <trkpt lat="48.60381" lon="1.95598">
        <ele>104.92</ele>
        <time>2019-12-19T09:48:41Z</time>
      </trkpt>
      <trkpt lat="48.6038" lon="1.956">
        <ele>103.96</ele>
        <time>2019-12-19T09:48:42Z</time>
      </trkpt>
      <trkpt lat="48.60378" lon="1.95602">
        <ele>104.44</ele>
        <time>2019-12-19T09:48:43Z</time>
      </trkpt>
      <trkpt lat="48.60377" lon="1.95603">
        <ele>104.92</ele>
        <time>2019-12-19T09:48:44Z</time>
      </trkpt>
      <trkpt lat="48.60376" lon="1.95604">
        <ele>104.92</ele>
        <time>2019-12-19T09:48:45Z</time>
      </trkpt>
      <trkpt lat="48.60375" lon="1.95605">
        <ele>103.96</ele>
        <time>2019-12-19T09:48:46Z</time>
      </trkpt>
      <trkpt lat="48.60375" lon="1.95607">
        <ele>105.4</ele>
        <time>2019-12-19T09:48:47Z</time>
      </trkpt>
      <trkpt lat="48.60374" lon="1.95608">
        <ele>106.36</ele>
        <time>2019-12-19T09:48:48Z</time>
      </trkpt>
      <trkpt lat="48.60373" lon="1.9561">
        <ele>105.4</ele>
        <time>2019-12-19T09:48:49Z</time>
      </trkpt>
      <trkpt lat="48.60373" lon="1.95612">
        <ele>105.88</ele>
        <time>2019-12-19T09:48:50Z</time>
      </trkpt>
      <trkpt lat="48.60373" lon="1.95614">
        <ele>105.4</ele>
        <time>2019-12-19T09:48:51Z</time>
      </trkpt>
      <trkpt lat="48.60372" lon="1.95616">
        <ele>105.88</ele>
        <time>2019-12-19T09:48:52Z</time>
      </trkpt>
      <trkpt lat="48.60371" lon="1.95618">
        <ele>105.88</ele>
        <time>2019-12-19T09:48:53Z</time>
      </trkpt>
      <trkpt lat="48.60371" lon="1.9562">
        <ele>105.4</ele>
        <time>2019-12-19T09:48:54Z</time>
      </trkpt>
      <trkpt lat="48.6037" lon="1.95621">
        <ele>105.4</ele>
        <time>2019-12-19T09:48:55Z</time>
      </trkpt>
      <trkpt lat="48.6037" lon="1.95623">
        <ele>105.4</ele>
        <time>2019-12-19T09:48:56Z</time>
      </trkpt>
      <trkpt lat="48.60369" lon="1.95624">
        <ele>105.4</ele>
        <time>2019-12-19T09:48:57Z</time>
      </trkpt>
      <trkpt lat="48.60368" lon="1.95625">
        <ele>105.4</ele>
        <time>2019-12-19T09:48:58Z</time>
      </trkpt>
      <trkpt lat="48.60367" lon="1.95626">
        <ele>104.92</ele>
        <time>2019-12-19T09:48:59Z</time>
      </trkpt>
      <trkpt lat="48.60366" lon="1.95627">
        <ele>104.92</ele>
        <time>2019-12-19T09:49:00Z</time>
      </trkpt>
      <trkpt lat="48.60365" lon="1.95628">
        <ele>104.44</ele>
        <time>2019-12-19T09:49:01Z</time>
      </trkpt>
      <trkpt lat="48.60364" lon="1.95629">
        <ele>104.92</ele>
        <time>2019-12-19T09:49:02Z</time>
      </trkpt>
      <trkpt lat="48.60363" lon="1.9563">
        <ele>104.44</ele>
        <time>2019-12-19T09:49:03Z</time>
      </trkpt>
      <trkpt lat="48.60363" lon="1.95632">
        <ele>104.44</ele>
        <time>2019-12-19T09:49:04Z</time>
      </trkpt>
      <trkpt lat="48.60361" lon="1.95634">
        <ele>104.44</ele>
        <time>2019-12-19T09:49:05Z</time>
      </trkpt>
      <trkpt lat="48.6036" lon="1.95636">
        <ele>103.96</ele>
        <time>2019-12-19T09:49:06Z</time>
      </trkpt>
      <trkpt lat="48.60358" lon="1.95639">
        <ele>103.96</ele>
        <time>2019-12-19T09:49:07Z</time>
      </trkpt>
      <trkpt lat="48.60356" lon="1.95642">
        <ele>103.96</ele>
        <time>2019-12-19T09:49:08Z</time>
      </trkpt>
      <trkpt lat="48.60355" lon="1.95644">
        <ele>103.96</ele>
        <time>2019-12-19T09:49:09Z</time>
      </trkpt>
      <trkpt lat="48.60354" lon="1.95646">
        <ele>104.44</ele>
        <time>2019-12-19T09:49:10Z</time>
      </trkpt>
      <trkpt lat="48.60353" lon="1.95648">
        <ele>104.44</ele>
        <time>2019-12-19T09:49:11Z</time>
      </trkpt>
      <trkpt lat="48.60352" lon="1.9565">
        <ele>103.96</ele>
        <time>2019-12-19T09:49:12Z</time>
      </trkpt>
      <trkpt lat="48.60351" lon="1.95652">
        <ele>103.96</ele>
        <time>2019-12-19T09:49:13Z</time>
      </trkpt>
      <trkpt lat="48.6035" lon="1.95654">
        <ele>103.96</ele>
        <time>2019-12-19T09:49:14Z</time>
      </trkpt>
      <trkpt lat="48.60349" lon="1.95656">
        <ele>103.96</ele>
        <time>2019-12-19T09:49:15Z</time>
      </trkpt>
      <trkpt lat="48.60348" lon="1.95657">
        <ele>103.96</ele>
        <time>2019-12-19T09:49:16Z</time>
      </trkpt>
      <trkpt lat="48.60347" lon="1.95659">
        <ele>104.44</ele>
        <time>2019-12-19T09:49:17Z</time>
      </trkpt>
      <trkpt lat="48.60346" lon="1.9566">
        <ele>103.96</ele>
        <time>2019-12-19T09:49:18Z</time>
      </trkpt>
      <trkpt lat="48.60344" lon="1.95662">
        <ele>103.96</ele>
        <time>2019-12-19T09:49:19Z</time>
      </trkpt>
      <trkpt lat="48.60343" lon="1.95663">
        <ele>103.96</ele>
        <time>2019-12-19T09:49:20Z</time>
      </trkpt>
      <trkpt lat="48.60343" lon="1.95665">
        <ele>104.44</ele>
        <time>2019-12-19T09:49:21Z</time>
      </trkpt>
      <trkpt lat="48.60343" lon="1.95666">
        <ele>104.92</ele>
        <time>2019-12-19T09:49:22Z</time>
      </trkpt>
      <trkpt lat="48.60342" lon="1.95667">
        <ele>104.44</ele>
        <time>2019-12-19T09:49:23Z</time>
      </trkpt>
      <trkpt lat="48.60342" lon="1.95669">
        <ele>104.44</ele>
        <time>2019-12-19T09:49:24Z</time>
      </trkpt>
      <trkpt lat="48.60342" lon="1.9567">
        <ele>103.96</ele>
        <time>2019-12-19T09:49:25Z</time>
      </trkpt>
      <trkpt lat="48.60341" lon="1.95671">
        <ele>103.96</ele>
        <time>2019-12-19T09:49:26Z</time>
      </trkpt>
      <trkpt lat="48.60341" lon="1.95672">
        <ele>104.44</ele>
        <time>2019-12-19T09:49:27Z</time>
      </trkpt>
      <trkpt lat="48.6034" lon="1.95672">
        <ele>104.44</ele>
        <time>2019-12-19T09:49:28Z</time>
      </trkpt>
      <trkpt lat="48.60338" lon="1.95672">
        <ele>103.96</ele>
        <time>2019-12-19T09:49:29Z</time>
      </trkpt>
      <trkpt lat="48.60337" lon="1.95672">
        <ele>103.96</ele>
        <time>2019-12-19T09:49:30Z</time>
      </trkpt>
      <trkpt lat="48.60336" lon="1.95673">
        <ele>103.96</ele>
        <time>2019-12-19T09:49:31Z</time>
      </trkpt>
      <trkpt lat="48.60336" lon="1.95675">
        <ele>104.92</ele>
        <time>2019-12-19T09:49:32Z</time>
      </trkpt>
      <trkpt lat="48.60335" lon="1.95677">
        <ele>104.92</ele>
        <time>2019-12-19T09:49:33Z</time>
      </trkpt>
      <trkpt lat="48.60335" lon="1.95678">
        <ele>104.44</ele>
        <time>2019-12-19T09:49:34Z</time>
      </trkpt>
      <trkpt lat="48.60334" lon="1.9568">
        <ele>104.44</ele>
        <time>2019-12-19T09:49:35Z</time>
      </trkpt>
      <trkpt lat="48.60333" lon="1.95681">
        <ele>104.44</ele>
        <time>2019-12-19T09:49:36Z</time>
      </trkpt>
      <trkpt lat="48.60332" lon="1.95683">
        <ele>104.44</ele>
        <time>2019-12-19T09:49:37Z</time>
      </trkpt>
      <trkpt lat="48.60331" lon="1.95686">
        <ele>105.88</ele>
        <time>2019-12-19T09:49:38Z</time>
      </trkpt>
      <trkpt lat="48.6033" lon="1.95688">
        <ele>104.44</ele>
        <time>2019-12-19T09:49:39Z</time>
      </trkpt>
      <trkpt lat="48.60329" lon="1.9569">
        <ele>104.44</ele>
        <time>2019-12-19T09:49:40Z</time>
      </trkpt>
      <trkpt lat="48.60328" lon="1.95692">
        <ele>104.92</ele>
        <time>2019-12-19T09:49:41Z</time>
      </trkpt>
      <trkpt lat="48.60327" lon="1.95694">
        <ele>104.92</ele>
        <time>2019-12-19T09:49:42Z</time>
      </trkpt>
      <trkpt lat="48.60327" lon="1.95697">
        <ele>104.92</ele>
        <time>2019-12-19T09:49:43Z</time>
      </trkpt>
      <trkpt lat="48.60326" lon="1.95699">
        <ele>104.92</ele>
        <time>2019-12-19T09:49:44Z</time>
      </trkpt>
      <trkpt lat="48.60326" lon="1.95702">
        <ele>104.92</ele>
        <time>2019-12-19T09:49:45Z</time>
      </trkpt>
      <trkpt lat="48.60325" lon="1.95704">
        <ele>104.92</ele>
        <time>2019-12-19T09:49:46Z</time>
      </trkpt>
      <trkpt lat="48.60324" lon="1.95706">
        <ele>104.44</ele>
        <time>2019-12-19T09:49:47Z</time>
      </trkpt>
      <trkpt lat="48.60323" lon="1.95707">
        <ele>104.44</ele>
        <time>2019-12-19T09:49:48Z</time>
      </trkpt>
      <trkpt lat="48.60323" lon="1.95709">
        <ele>104.92</ele>
        <time>2019-12-19T09:49:49Z</time>
      </trkpt>
      <trkpt lat="48.60322" lon="1.9571">
        <ele>104.92</ele>
        <time>2019-12-19T09:49:50Z</time>
      </trkpt>
      <trkpt lat="48.60321" lon="1.95711">
        <ele>104.92</ele>
        <time>2019-12-19T09:49:51Z</time>
      </trkpt>
      <trkpt lat="48.60321" lon="1.95713">
        <ele>104.92</ele>
        <time>2019-12-19T09:49:52Z</time>
      </trkpt>
      <trkpt lat="48.60321" lon="1.95714">
        <ele>104.44</ele>
        <time>2019-12-19T09:49:53Z</time>
      </trkpt>
      <trkpt lat="48.6032" lon="1.95716">
        <ele>104.92</ele>
        <time>2019-12-19T09:49:54Z</time>
      </trkpt>
      <trkpt lat="48.60319" lon="1.95717">
        <ele>104.92</ele>
        <time>2019-12-19T09:49:55Z</time>
      </trkpt>
      <trkpt lat="48.60318" lon="1.95718">
        <ele>104.92</ele>
        <time>2019-12-19T09:49:56Z</time>
      </trkpt>
      <trkpt lat="48.60317" lon="1.95718">
        <ele>104.44</ele>
        <time>2019-12-19T09:49:57Z</time>
      </trkpt>
      <trkpt lat="48.60316" lon="1.9572">
        <ele>104.92</ele>
        <time>2019-12-19T09:49:58Z</time>
      </trkpt>
      <trkpt lat="48.60315" lon="1.95721">
        <ele>105.4</ele>
        <time>2019-12-19T09:49:59Z</time>
      </trkpt>
      <trkpt lat="48.60315" lon="1.95723">
        <ele>104.92</ele>
        <time>2019-12-19T09:50:00Z</time>
      </trkpt>
      <trkpt lat="48.60314" lon="1.95724">
        <ele>105.4</ele>
        <time>2019-12-19T09:50:01Z</time>
      </trkpt>
      <trkpt lat="48.60314" lon="1.95726">
        <ele>104.92</ele>
        <time>2019-12-19T09:50:02Z</time>
      </trkpt>
      <trkpt lat="48.60313" lon="1.95727">
        <ele>104.92</ele>
        <time>2019-12-19T09:50:03Z</time>
      </trkpt>
      <trkpt lat="48.60312" lon="1.95728">
        <ele>105.4</ele>
        <time>2019-12-19T09:50:04Z</time>
      </trkpt>
      <trkpt lat="48.60311" lon="1.9573">
        <ele>104.92</ele>
        <time>2019-12-19T09:50:05Z</time>
      </trkpt>
      <trkpt lat="48.60311" lon="1.95732">
        <ele>104.92</ele>
        <time>2019-12-19T09:50:06Z</time>
      </trkpt>
      <trkpt lat="48.6031" lon="1.95734">
        <ele>105.4</ele>
        <time>2019-12-19T09:50:07Z</time>
      </trkpt>
      <trkpt lat="48.60309" lon="1.95736">
        <ele>105.4</ele>
        <time>2019-12-19T09:50:08Z</time>
      </trkpt>
      <trkpt lat="48.60308" lon="1.95738">
        <ele>105.88</ele>
        <time>2019-12-19T09:50:09Z</time>
      </trkpt>
      <trkpt lat="48.60308" lon="1.95741">
        <ele>104.92</ele>
        <time>2019-12-19T09:50:10Z</time>
      </trkpt>
      <trkpt lat="48.60307" lon="1.95742">
        <ele>105.4</ele>
        <time>2019-12-19T09:50:11Z</time>
      </trkpt>
      <trkpt lat="48.60307" lon="1.95744">
        <ele>105.4</ele>
        <time>2019-12-19T09:50:12Z</time>
      </trkpt>
      <trkpt lat="48.60307" lon="1.95745">
        <ele>104.92</ele>
        <time>2019-12-19T09:50:13Z</time>
      </trkpt>
      <trkpt lat="48.60306" lon="1.95747">
        <ele>104.92</ele>
        <time>2019-12-19T09:50:14Z</time>
      </trkpt>
      <trkpt lat="48.60306" lon="1.95748">
        <ele>104.92</ele>
        <time>2019-12-19T09:50:15Z</time>
      </trkpt>
      <trkpt lat="48.60305" lon="1.9575">
        <ele>105.4</ele>
        <time>2019-12-19T09:50:16Z</time>
      </trkpt>
      <trkpt lat="48.60304" lon="1.95752">
        <ele>105.4</ele>
        <time>2019-12-19T09:50:17Z</time>
      </trkpt>
      <trkpt lat="48.60303" lon="1.95754">
        <ele>105.4</ele>
        <time>2019-12-19T09:50:18Z</time>
      </trkpt>
      <trkpt lat="48.60302" lon="1.95756">
        <ele>105.4</ele>
        <time>2019-12-19T09:50:19Z</time>
      </trkpt>
      <trkpt lat="48.60302" lon="1.95758">
        <ele>105.4</ele>
        <time>2019-12-19T09:50:20Z</time>
      </trkpt>
      <trkpt lat="48.60301" lon="1.9576">
        <ele>105.4</ele>
        <time>2019-12-19T09:50:21Z</time>
      </trkpt>
      <trkpt lat="48.603" lon="1.95763">
        <ele>105.4</ele>
        <time>2019-12-19T09:50:22Z</time>
      </trkpt>
      <trkpt lat="48.60299" lon="1.95766">
        <ele>105.4</ele>
        <time>2019-12-19T09:50:23Z</time>
      </trkpt>
      <trkpt lat="48.60298" lon="1.95768">
        <ele>105.4</ele>
        <time>2019-12-19T09:50:24Z</time>
      </trkpt>
      <trkpt lat="48.60298" lon="1.9577">
        <ele>105.4</ele>
        <time>2019-12-19T09:50:25Z</time>
      </trkpt>
      <trkpt lat="48.60297" lon="1.95772">
        <ele>105.4</ele>
        <time>2019-12-19T09:50:26Z</time>
      </trkpt>
      <trkpt lat="48.60296" lon="1.95774">
        <ele>105.4</ele>
        <time>2019-12-19T09:50:27Z</time>
      </trkpt>
      <trkpt lat="48.60295" lon="1.95776">
        <ele>105.88</ele>
        <time>2019-12-19T09:50:28Z</time>
      </trkpt>
      <trkpt lat="48.60294" lon="1.95778">
        <ele>105.88</ele>
        <time>2019-12-19T09:50:29Z</time>
      </trkpt>
      <trkpt lat="48.60293" lon="1.9578">
        <ele>106.36</ele>
        <time>2019-12-19T09:50:30Z</time>
      </trkpt>
      <trkpt lat="48.60292" lon="1.95783">
        <ele>105.88</ele>
        <time>2019-12-19T09:50:31Z</time>
      </trkpt>
      <trkpt lat="48.60291" lon="1.95785">
        <ele>105.88</ele>
        <time>2019-12-19T09:50:32Z</time>
      </trkpt>
      <trkpt lat="48.6029" lon="1.95787">
        <ele>105.88</ele>
        <time>2019-12-19T09:50:33Z</time>
      </trkpt>
      <trkpt lat="48.60289" lon="1.95789">
        <ele>105.88</ele>
        <time>2019-12-19T09:50:34Z</time>
      </trkpt>
      <trkpt lat="48.60287" lon="1.95792">
        <ele>106.36</ele>
        <time>2019-12-19T09:50:35Z</time>
      </trkpt>
      <trkpt lat="48.60286" lon="1.95793">
        <ele>105.88</ele>
        <time>2019-12-19T09:50:36Z</time>
      </trkpt>
      <trkpt lat="48.60285" lon="1.95795">
        <ele>106.36</ele>
        <time>2019-12-19T09:50:37Z</time>
      </trkpt>
      <trkpt lat="48.60284" lon="1.95797">
        <ele>105.88</ele>
        <time>2019-12-19T09:50:38Z</time>
      </trkpt>
      <trkpt lat="48.60283" lon="1.95799">
        <ele>105.88</ele>
        <time>2019-12-19T09:50:39Z</time>
      </trkpt>
      <trkpt lat="48.60281" lon="1.95802">
        <ele>105.88</ele>
        <time>2019-12-19T09:50:40Z</time>
      </trkpt>
      <trkpt lat="48.6028" lon="1.95804">
        <ele>106.36</ele>
        <time>2019-12-19T09:50:41Z</time>
      </trkpt>
      <trkpt lat="48.60279" lon="1.95806">
        <ele>105.88</ele>
        <time>2019-12-19T09:50:42Z</time>
      </trkpt>
      <trkpt lat="48.60279" lon="1.95809">
        <ele>106.36</ele>
        <time>2019-12-19T09:50:43Z</time>
      </trkpt>
      <trkpt lat="48.60278" lon="1.95811">
        <ele>106.84</ele>
        <time>2019-12-19T09:50:44Z</time>
      </trkpt>
      <trkpt lat="48.60277" lon="1.95813">
        <ele>106.84</ele>
        <time>2019-12-19T09:50:45Z</time>
      </trkpt>
      <trkpt lat="48.60276" lon="1.95815">
        <ele>106.36</ele>
        <time>2019-12-19T09:50:46Z</time>
      </trkpt>
      <trkpt lat="48.60276" lon="1.95816">
        <ele>106.36</ele>
        <time>2019-12-19T09:50:47Z</time>
      </trkpt>
      <trkpt lat="48.60275" lon="1.95818">
        <ele>106.84</ele>
        <time>2019-12-19T09:50:48Z</time>
      </trkpt>
      <trkpt lat="48.60275" lon="1.9582">
        <ele>106.36</ele>
        <time>2019-12-19T09:50:49Z</time>
      </trkpt>
      <trkpt lat="48.60274" lon="1.95821">
        <ele>106.36</ele>
        <time>2019-12-19T09:50:50Z</time>
      </trkpt>
      <trkpt lat="48.60273" lon="1.95823">
        <ele>106.36</ele>
        <time>2019-12-19T09:50:51Z</time>
      </trkpt>
      <trkpt lat="48.60272" lon="1.95825">
        <ele>106.84</ele>
        <time>2019-12-19T09:50:52Z</time>
      </trkpt>
      <trkpt lat="48.60272" lon="1.95827">
        <ele>107.32</ele>
        <time>2019-12-19T09:50:53Z</time>
      </trkpt>
      <trkpt lat="48.60271" lon="1.95828">
        <ele>106.84</ele>
        <time>2019-12-19T09:50:54Z</time>
      </trkpt>
      <trkpt lat="48.60269" lon="1.95829">
        <ele>106.84</ele>
        <time>2019-12-19T09:50:55Z</time>
      </trkpt>
      <trkpt lat="48.60269" lon="1.9583">
        <ele>106.84</ele>
        <time>2019-12-19T09:50:56Z</time>
      </trkpt>
      <trkpt lat="48.60267" lon="1.95832">
        <ele>107.32</ele>
        <time>2019-12-19T09:50:57Z</time>
      </trkpt>
      <trkpt lat="48.60266" lon="1.95834">
        <ele>107.32</ele>
        <time>2019-12-19T09:50:58Z</time>
      </trkpt>
      <trkpt lat="48.60266" lon="1.95835">
        <ele>106.84</ele>
        <time>2019-12-19T09:50:59Z</time>
      </trkpt>
      <trkpt lat="48.60265" lon="1.95836">
        <ele>107.32</ele>
        <time>2019-12-19T09:51:00Z</time>
      </trkpt>
      <trkpt lat="48.60264" lon="1.95838">
        <ele>107.81</ele>
        <time>2019-12-19T09:51:01Z</time>
      </trkpt>
      <trkpt lat="48.60263" lon="1.9584">
        <ele>107.81</ele>
        <time>2019-12-19T09:51:02Z</time>
      </trkpt>
      <trkpt lat="48.60262" lon="1.95842">
        <ele>107.32</ele>
        <time>2019-12-19T09:51:03Z</time>
      </trkpt>
      <trkpt lat="48.60261" lon="1.95843">
        <ele>107.32</ele>
        <time>2019-12-19T09:51:04Z</time>
      </trkpt>
      <trkpt lat="48.60261" lon="1.95845">
        <ele>107.81</ele>
        <time>2019-12-19T09:51:05Z</time>
      </trkpt>
      <trkpt lat="48.6026" lon="1.95846">
        <ele>107.32</ele>
        <time>2019-12-19T09:51:06Z</time>
      </trkpt>
      <trkpt lat="48.60259" lon="1.95847">
        <ele>107.32</ele>
        <time>2019-12-19T09:51:07Z</time>
      </trkpt>
      <trkpt lat="48.60259" lon="1.95849">
        <ele>107.81</ele>
        <time>2019-12-19T09:51:08Z</time>
      </trkpt>
      <trkpt lat="48.60258" lon="1.9585">
        <ele>107.81</ele>
        <time>2019-12-19T09:51:09Z</time>
      </trkpt>
      <trkpt lat="48.60258" lon="1.95852">
        <ele>107.81</ele>
        <time>2019-12-19T09:51:10Z</time>
      </trkpt>
      <trkpt lat="48.60257" lon="1.95854">
        <ele>107.32</ele>
        <time>2019-12-19T09:51:11Z</time>
      </trkpt>
      <trkpt lat="48.60256" lon="1.95855">
        <ele>107.81</ele>
        <time>2019-12-19T09:51:12Z</time>
      </trkpt>
      <trkpt lat="48.60256" lon="1.95857">
        <ele>107.81</ele>
        <time>2019-12-19T09:51:13Z</time>
      </trkpt>
      <trkpt lat="48.60256" lon="1.95858">
        <ele>107.81</ele>
        <time>2019-12-19T09:51:14Z</time>
      </trkpt>
      <trkpt lat="48.60255" lon="1.95859">
        <ele>107.81</ele>
        <time>2019-12-19T09:51:15Z</time>
      </trkpt>
      <trkpt lat="48.60255" lon="1.9586">
        <ele>108.29</ele>
        <time>2019-12-19T09:51:16Z</time>
      </trkpt>
      <trkpt lat="48.60254" lon="1.95861">
        <ele>107.81</ele>
        <time>2019-12-19T09:51:17Z</time>
      </trkpt>
      <trkpt lat="48.60254" lon="1.95862">
        <ele>108.29</ele>
        <time>2019-12-19T09:51:18Z</time>
      </trkpt>
      <trkpt lat="48.60254" lon="1.95863">
        <ele>107.81</ele>
        <time>2019-12-19T09:51:19Z</time>
      </trkpt>
      <trkpt lat="48.60254" lon="1.95863">
        <ele>107.81</ele>
        <time>2019-12-19T09:51:20Z</time>
      </trkpt>
      <trkpt lat="48.60253" lon="1.95865">
        <ele>107.81</ele>
        <time>2019-12-19T09:51:21Z</time>
      </trkpt>
      <trkpt lat="48.60253" lon="1.95866">
        <ele>108.29</ele>
        <time>2019-12-19T09:51:22Z</time>
      </trkpt>
      <trkpt lat="48.60253" lon="1.95868">
        <ele>107.81</ele>
        <time>2019-12-19T09:51:23Z</time>
      </trkpt>
      <trkpt lat="48.60254" lon="1.95869">
        <ele>108.77</ele>
        <time>2019-12-19T09:51:24Z</time>
      </trkpt>
      <trkpt lat="48.60254" lon="1.9587">
        <ele>108.29</ele>
        <time>2019-12-19T09:51:25Z</time>
      </trkpt>
      <trkpt lat="48.60254" lon="1.95871">
        <ele>108.29</ele>
        <time>2019-12-19T09:51:26Z</time>
      </trkpt>
      <trkpt lat="48.60254" lon="1.95872">
        <ele>108.29</ele>
        <time>2019-12-19T09:51:27Z</time>
      </trkpt>
      <trkpt lat="48.60254" lon="1.95874">
        <ele>108.77</ele>
        <time>2019-12-19T09:51:28Z</time>
      </trkpt>
      <trkpt lat="48.60254" lon="1.95875">
        <ele>108.77</ele>
        <time>2019-12-19T09:51:29Z</time>
      </trkpt>
      <trkpt lat="48.60254" lon="1.95877">
        <ele>108.77</ele>
        <time>2019-12-19T09:51:30Z</time>
      </trkpt>
      <trkpt lat="48.60254" lon="1.95879">
        <ele>108.29</ele>
        <time>2019-12-19T09:51:31Z</time>
      </trkpt>
      <trkpt lat="48.60254" lon="1.95882">
        <ele>109.25</ele>
        <time>2019-12-19T09:51:32Z</time>
      </trkpt>
      <trkpt lat="48.60254" lon="1.95883">
        <ele>109.25</ele>
        <time>2019-12-19T09:51:33Z</time>
      </trkpt>
      <trkpt lat="48.60254" lon="1.95885">
        <ele>109.25</ele>
        <time>2019-12-19T09:51:34Z</time>
      </trkpt>
      <trkpt lat="48.60254" lon="1.95887">
        <ele>108.77</ele>
        <time>2019-12-19T09:51:35Z</time>
      </trkpt>
      <trkpt lat="48.60253" lon="1.95889">
        <ele>109.25</ele>
        <time>2019-12-19T09:51:36Z</time>
      </trkpt>
      <trkpt lat="48.60253" lon="1.9589">
        <ele>109.25</ele>
        <time>2019-12-19T09:51:37Z</time>
      </trkpt>
      <trkpt lat="48.60252" lon="1.95892">
        <ele>109.73</ele>
        <time>2019-12-19T09:51:38Z</time>
      </trkpt>
      <trkpt lat="48.60252" lon="1.95893">
        <ele>110.69</ele>
        <time>2019-12-19T09:51:39Z</time>
      </trkpt>
      <trkpt lat="48.60251" lon="1.95894">
        <ele>109.25</ele>
        <time>2019-12-19T09:51:40Z</time>
      </trkpt>
      <trkpt lat="48.60251" lon="1.95895">
        <ele>110.21</ele>
        <time>2019-12-19T09:51:41Z</time>
      </trkpt>
      <trkpt lat="48.60251" lon="1.95897">
        <ele>110.21</ele>
        <time>2019-12-19T09:51:42Z</time>
      </trkpt>
      <trkpt lat="48.60251" lon="1.95899">
        <ele>109.73</ele>
        <time>2019-12-19T09:51:43Z</time>
      </trkpt>
      <trkpt lat="48.60251" lon="1.959">
        <ele>109.73</ele>
        <time>2019-12-19T09:51:44Z</time>
      </trkpt>
      <trkpt lat="48.60251" lon="1.95902">
        <ele>110.69</ele>
        <time>2019-12-19T09:51:45Z</time>
      </trkpt>
      <trkpt lat="48.6025" lon="1.95904">
        <ele>110.21</ele>
        <time>2019-12-19T09:51:46Z</time>
      </trkpt>
      <trkpt lat="48.6025" lon="1.95905">
        <ele>110.21</ele>
        <time>2019-12-19T09:51:47Z</time>
      </trkpt>
      <trkpt lat="48.60249" lon="1.95906">
        <ele>110.21</ele>
        <time>2019-12-19T09:51:48Z</time>
      </trkpt>
      <trkpt lat="48.60249" lon="1.95907">
        <ele>111.17</ele>
        <time>2019-12-19T09:51:49Z</time>
      </trkpt>
      <trkpt lat="48.60249" lon="1.95909">
        <ele>110.69</ele>
        <time>2019-12-19T09:51:50Z</time>
      </trkpt>
      <trkpt lat="48.60248" lon="1.95911">
        <ele>111.17</ele>
        <time>2019-12-19T09:51:51Z</time>
      </trkpt>
      <trkpt lat="48.60247" lon="1.95912">
        <ele>110.69</ele>
        <time>2019-12-19T09:51:52Z</time>
      </trkpt>
      <trkpt lat="48.60247" lon="1.95914">
        <ele>111.17</ele>
        <time>2019-12-19T09:51:53Z</time>
      </trkpt>
      <trkpt lat="48.60247" lon="1.95915">
        <ele>112.13</ele>
        <time>2019-12-19T09:51:54Z</time>
      </trkpt>
      <trkpt lat="48.60247" lon="1.95917">
        <ele>111.65</ele>
        <time>2019-12-19T09:51:55Z</time>
      </trkpt>
      <trkpt lat="48.60248" lon="1.95918">
        <ele>112.13</ele>
        <time>2019-12-19T09:51:56Z</time>
      </trkpt>
      <trkpt lat="48.60248" lon="1.9592">
        <ele>112.61</ele>
        <time>2019-12-19T09:51:57Z</time>
      </trkpt>
      <trkpt lat="48.60247" lon="1.95922">
        <ele>111.65</ele>
        <time>2019-12-19T09:51:58Z</time>
      </trkpt>
      <trkpt lat="48.60247" lon="1.95923">
        <ele>113.57</ele>
        <time>2019-12-19T09:51:59Z</time>
      </trkpt>
      <trkpt lat="48.60246" lon="1.95924">
        <ele>113.09</ele>
        <time>2019-12-19T09:52:00Z</time>
      </trkpt>
      <trkpt lat="48.60246" lon="1.95925">
        <ele>113.57</ele>
        <time>2019-12-19T09:52:01Z</time>
      </trkpt>
      <trkpt lat="48.60246" lon="1.95927">
        <ele>113.57</ele>
        <time>2019-12-19T09:52:02Z</time>
      </trkpt>
      <trkpt lat="48.60245" lon="1.95928">
        <ele>113.09</ele>
        <time>2019-12-19T09:52:03Z</time>
      </trkpt>
      <trkpt lat="48.60245" lon="1.9593">
        <ele>114.05</ele>
        <time>2019-12-19T09:52:04Z</time>
      </trkpt>
      <trkpt lat="48.60245" lon="1.95931">
        <ele>114.53</ele>
        <time>2019-12-19T09:52:05Z</time>
      </trkpt>
      <trkpt lat="48.60245" lon="1.95932">
        <ele>115.01</ele>
        <time>2019-12-19T09:52:06Z</time>
      </trkpt>
      <trkpt lat="48.60245" lon="1.95933">
        <ele>114.53</ele>
        <time>2019-12-19T09:52:07Z</time>
      </trkpt>
      <trkpt lat="48.60245" lon="1.95935">
        <ele>115.01</ele>
        <time>2019-12-19T09:52:08Z</time>
      </trkpt>
      <trkpt lat="48.60244" lon="1.95936">
        <ele>115.01</ele>
        <time>2019-12-19T09:52:09Z</time>
      </trkpt>
      <trkpt lat="48.60244" lon="1.95937">
        <ele>115.5</ele>
        <time>2019-12-19T09:52:10Z</time>
      </trkpt>
      <trkpt lat="48.60244" lon="1.95939">
        <ele>115.01</ele>
        <time>2019-12-19T09:52:11Z</time>
      </trkpt>
      <trkpt lat="48.60244" lon="1.9594">
        <ele>115.98</ele>
        <time>2019-12-19T09:52:12Z</time>
      </trkpt>
      <trkpt lat="48.60243" lon="1.95941">
        <ele>115.5</ele>
        <time>2019-12-19T09:52:13Z</time>
      </trkpt>
      <trkpt lat="48.60243" lon="1.95943">
        <ele>115.98</ele>
        <time>2019-12-19T09:52:14Z</time>
      </trkpt>
      <trkpt lat="48.60243" lon="1.95944">
        <ele>115.98</ele>
        <time>2019-12-19T09:52:15Z</time>
      </trkpt>
      <trkpt lat="48.60242" lon="1.95945">
        <ele>116.94</ele>
        <time>2019-12-19T09:52:16Z</time>
      </trkpt>
      <trkpt lat="48.60242" lon="1.95946">
        <ele>116.46</ele>
        <time>2019-12-19T09:52:17Z</time>
      </trkpt>
      <trkpt lat="48.60242" lon="1.95947">
        <ele>116.46</ele>
        <time>2019-12-19T09:52:18Z</time>
      </trkpt>
      <trkpt lat="48.60242" lon="1.95947">
        <ele>117.42</ele>
        <time>2019-12-19T09:52:19Z</time>
      </trkpt>
      <trkpt lat="48.60241" lon="1.95948">
        <ele>117.9</ele>
        <time>2019-12-19T09:52:20Z</time>
      </trkpt>
      <trkpt lat="48.60241" lon="1.9595">
        <ele>117.42</ele>
        <time>2019-12-19T09:52:21Z</time>
      </trkpt>
      <trkpt lat="48.60241" lon="1.95951">
        <ele>117.42</ele>
        <time>2019-12-19T09:52:22Z</time>
      </trkpt>
      <trkpt lat="48.60241" lon="1.95952">
        <ele>118.38</ele>
        <time>2019-12-19T09:52:23Z</time>
      </trkpt>
      <trkpt lat="48.60241" lon="1.95953">
        <ele>117.9</ele>
        <time>2019-12-19T09:52:24Z</time>
      </trkpt>
      <trkpt lat="48.60241" lon="1.95955">
        <ele>118.38</ele>
        <time>2019-12-19T09:52:25Z</time>
      </trkpt>
      <trkpt lat="48.60241" lon="1.95957">
        <ele>117.9</ele>
        <time>2019-12-19T09:52:26Z</time>
      </trkpt>
      <trkpt lat="48.60241" lon="1.95959">
        <ele>118.86</ele>
        <time>2019-12-19T09:52:27Z</time>
      </trkpt>
      <trkpt lat="48.60241" lon="1.95961">
        <ele>118.38</ele>
        <time>2019-12-19T09:52:28Z</time>
      </trkpt>
      <trkpt lat="48.6024" lon="1.95962">
        <ele>119.34</ele>
        <time>2019-12-19T09:52:29Z</time>
      </trkpt>
      <trkpt lat="48.6024" lon="1.95963">
        <ele>118.38</ele>
        <time>2019-12-19T09:52:30Z</time>
      </trkpt>
      <trkpt lat="48.60239" lon="1.95964">
        <ele>119.82</ele>
        <time>2019-12-19T09:52:31Z</time>
      </trkpt>
      <trkpt lat="48.60239" lon="1.95965">
        <ele>118.86</ele>
        <time>2019-12-19T09:52:32Z</time>
      </trkpt>
      <trkpt lat="48.60238" lon="1.95966">
        <ele>119.82</ele>
        <time>2019-12-19T09:52:33Z</time>
      </trkpt>
      <trkpt lat="48.60237" lon="1.95967">
        <ele>119.82</ele>
        <time>2019-12-19T09:52:34Z</time>
      </trkpt>
      <trkpt lat="48.60236" lon="1.95968">
        <ele>119.34</ele>
        <time>2019-12-19T09:52:35Z</time>
      </trkpt>
      <trkpt lat="48.60236" lon="1.9597">
        <ele>120.3</ele>
        <time>2019-12-19T09:52:36Z</time>
      </trkpt>
      <trkpt lat="48.60236" lon="1.95972">
        <ele>120.3</ele>
        <time>2019-12-19T09:52:37Z</time>
      </trkpt>
      <trkpt lat="48.60236" lon="1.95974">
        <ele>119.82</ele>
        <time>2019-12-19T09:52:38Z</time>
      </trkpt>
      <trkpt lat="48.60235" lon="1.95975">
        <ele>120.3</ele>
        <time>2019-12-19T09:52:39Z</time>
      </trkpt>
      <trkpt lat="48.60235" lon="1.95976">
        <ele>120.78</ele>
        <time>2019-12-19T09:52:40Z</time>
      </trkpt>
      <trkpt lat="48.60235" lon="1.95977">
        <ele>120.3</ele>
        <time>2019-12-19T09:52:41Z</time>
      </trkpt>
      <trkpt lat="48.60234" lon="1.95979">
        <ele>120.78</ele>
        <time>2019-12-19T09:52:42Z</time>
      </trkpt>
      <trkpt lat="48.60234" lon="1.9598">
        <ele>120.78</ele>
        <time>2019-12-19T09:52:43Z</time>
      </trkpt>
      <trkpt lat="48.60234" lon="1.95981">
        <ele>120.78</ele>
        <time>2019-12-19T09:52:44Z</time>
      </trkpt>
      <trkpt lat="48.60233" lon="1.95983">
        <ele>120.78</ele>
        <time>2019-12-19T09:52:45Z</time>
      </trkpt>
      <trkpt lat="48.60233" lon="1.95984">
        <ele>121.26</ele>
        <time>2019-12-19T09:52:46Z</time>
      </trkpt>
      <trkpt lat="48.60233" lon="1.95986">
        <ele>121.26</ele>
        <time>2019-12-19T09:52:47Z</time>
      </trkpt>
      <trkpt lat="48.60233" lon="1.95987">
        <ele>121.74</ele>
        <time>2019-12-19T09:52:48Z</time>
      </trkpt>
      <trkpt lat="48.60233" lon="1.95988">
        <ele>121.74</ele>
        <time>2019-12-19T09:52:49Z</time>
      </trkpt>
      <trkpt lat="48.60233" lon="1.9599">
        <ele>121.26</ele>
        <time>2019-12-19T09:52:50Z</time>
      </trkpt>
      <trkpt lat="48.60233" lon="1.95991">
        <ele>122.71</ele>
        <time>2019-12-19T09:52:51Z</time>
      </trkpt>
      <trkpt lat="48.60233" lon="1.95992">
        <ele>121.74</ele>
        <time>2019-12-19T09:52:52Z</time>
      </trkpt>
      <trkpt lat="48.60233" lon="1.95993">
        <ele>121.74</ele>
        <time>2019-12-19T09:52:53Z</time>
      </trkpt>
      <trkpt lat="48.60232" lon="1.95994">
        <ele>122.71</ele>
        <time>2019-12-19T09:52:54Z</time>
      </trkpt>
      <trkpt lat="48.60232" lon="1.95995">
        <ele>122.22</ele>
        <time>2019-12-19T09:52:55Z</time>
      </trkpt>
      <trkpt lat="48.60232" lon="1.95996">
        <ele>122.71</ele>
        <time>2019-12-19T09:52:56Z</time>
      </trkpt>
      <trkpt lat="48.60232" lon="1.95998">
        <ele>121.74</ele>
        <time>2019-12-19T09:52:57Z</time>
      </trkpt>
      <trkpt lat="48.60232" lon="1.95999">
        <ele>123.67</ele>
        <time>2019-12-19T09:52:58Z</time>
      </trkpt>
      <trkpt lat="48.60233" lon="1.96">
        <ele>122.71</ele>
        <time>2019-12-19T09:52:59Z</time>
      </trkpt>
      <trkpt lat="48.60233" lon="1.96001">
        <ele>123.67</ele>
        <time>2019-12-19T09:53:00Z</time>
      </trkpt>
      <trkpt lat="48.60233" lon="1.96002">
        <ele>123.67</ele>
        <time>2019-12-19T09:53:01Z</time>
      </trkpt>
      <trkpt lat="48.60233" lon="1.96002">
        <ele>123.67</ele>
        <time>2019-12-19T09:53:02Z</time>
      </trkpt>
      <trkpt lat="48.60233" lon="1.96003">
        <ele>123.67</ele>
        <time>2019-12-19T09:53:03Z</time>
      </trkpt>
      <trkpt lat="48.60233" lon="1.96004">
        <ele>123.67</ele>
        <time>2019-12-19T09:53:04Z</time>
      </trkpt>
      <trkpt lat="48.60234" lon="1.96005">
        <ele>125.11</ele>
        <time>2019-12-19T09:53:05Z</time>
      </trkpt>
      <trkpt lat="48.60234" lon="1.96007">
        <ele>124.15</ele>
        <time>2019-12-19T09:53:06Z</time>
      </trkpt>
      <trkpt lat="48.60235" lon="1.96009">
        <ele>124.63</ele>
        <time>2019-12-19T09:53:07Z</time>
      </trkpt>
      <trkpt lat="48.60235" lon="1.9601">
        <ele>124.63</ele>
        <time>2019-12-19T09:53:08Z</time>
      </trkpt>
      <trkpt lat="48.60235" lon="1.96012">
        <ele>125.59</ele>
        <time>2019-12-19T09:53:09Z</time>
      </trkpt>
      <trkpt lat="48.60235" lon="1.96013">
        <ele>125.59</ele>
        <time>2019-12-19T09:53:10Z</time>
      </trkpt>
      <trkpt lat="48.60235" lon="1.96015">
        <ele>125.59</ele>
        <time>2019-12-19T09:53:11Z</time>
      </trkpt>
      <trkpt lat="48.60235" lon="1.96017">
        <ele>125.59</ele>
        <time>2019-12-19T09:53:12Z</time>
      </trkpt>
      <trkpt lat="48.60234" lon="1.96019">
        <ele>126.07</ele>
        <time>2019-12-19T09:53:13Z</time>
      </trkpt>
      <trkpt lat="48.60234" lon="1.9602">
        <ele>126.07</ele>
        <time>2019-12-19T09:53:14Z</time>
      </trkpt>
      <trkpt lat="48.60234" lon="1.96022">
        <ele>127.03</ele>
        <time>2019-12-19T09:53:15Z</time>
      </trkpt>
      <trkpt lat="48.60234" lon="1.96023">
        <ele>126.07</ele>
        <time>2019-12-19T09:53:16Z</time>
      </trkpt>
      <trkpt lat="48.60234" lon="1.96025">
        <ele>127.03</ele>
        <time>2019-12-19T09:53:17Z</time>
      </trkpt>
      <trkpt lat="48.60233" lon="1.96026">
        <ele>126.55</ele>
        <time>2019-12-19T09:53:18Z</time>
      </trkpt>
      <trkpt lat="48.60233" lon="1.96028">
        <ele>127.03</ele>
        <time>2019-12-19T09:53:19Z</time>
      </trkpt>
      <trkpt lat="48.60233" lon="1.96029">
        <ele>126.55</ele>
        <time>2019-12-19T09:53:20Z</time>
      </trkpt>
      <trkpt lat="48.60233" lon="1.96031">
        <ele>127.99</ele>
        <time>2019-12-19T09:53:21Z</time>
      </trkpt>
      <trkpt lat="48.60233" lon="1.96033">
        <ele>127.51</ele>
        <time>2019-12-19T09:53:22Z</time>
      </trkpt>
      <trkpt lat="48.60233" lon="1.96034">
        <ele>127.51</ele>
        <time>2019-12-19T09:53:23Z</time>
      </trkpt>
      <trkpt lat="48.60232" lon="1.96035">
        <ele>127.51</ele>
        <time>2019-12-19T09:53:24Z</time>
      </trkpt>
      <trkpt lat="48.60232" lon="1.96036">
        <ele>127.99</ele>
        <time>2019-12-19T09:53:25Z</time>
      </trkpt>
      <trkpt lat="48.60232" lon="1.96037">
        <ele>127.99</ele>
        <time>2019-12-19T09:53:26Z</time>
      </trkpt>
      <trkpt lat="48.60232" lon="1.96039">
        <ele>127.51</ele>
        <time>2019-12-19T09:53:27Z</time>
      </trkpt>
      <trkpt lat="48.60233" lon="1.9604">
        <ele>128.47</ele>
        <time>2019-12-19T09:53:28Z</time>
      </trkpt>
      <trkpt lat="48.60233" lon="1.96041">
        <ele>128.47</ele>
        <time>2019-12-19T09:53:29Z</time>
      </trkpt>
      <trkpt lat="48.60233" lon="1.96042">
        <ele>127.99</ele>
        <time>2019-12-19T09:53:30Z</time>
      </trkpt>
      <trkpt lat="48.60233" lon="1.96043">
        <ele>128.47</ele>
        <time>2019-12-19T09:53:31Z</time>
      </trkpt>
      <trkpt lat="48.60233" lon="1.96045">
        <ele>128.95</ele>
        <time>2019-12-19T09:53:32Z</time>
      </trkpt>
      <trkpt lat="48.60233" lon="1.96046">
        <ele>128.95</ele>
        <time>2019-12-19T09:53:33Z</time>
      </trkpt>
      <trkpt lat="48.60233" lon="1.96048">
        <ele>128.47</ele>
        <time>2019-12-19T09:53:34Z</time>
      </trkpt>
      <trkpt lat="48.60232" lon="1.96049">
        <ele>128.95</ele>
        <time>2019-12-19T09:53:35Z</time>
      </trkpt>
      <trkpt lat="48.60232" lon="1.96051">
        <ele>129.43</ele>
        <time>2019-12-19T09:53:36Z</time>
      </trkpt>
      <trkpt lat="48.60232" lon="1.96052">
        <ele>128.95</ele>
        <time>2019-12-19T09:53:37Z</time>
      </trkpt>
      <trkpt lat="48.60232" lon="1.96054">
        <ele>128.95</ele>
        <time>2019-12-19T09:53:38Z</time>
      </trkpt>
      <trkpt lat="48.60232" lon="1.96055">
        <ele>129.43</ele>
        <time>2019-12-19T09:53:39Z</time>
      </trkpt>
      <trkpt lat="48.60232" lon="1.96057">
        <ele>130.4</ele>
        <time>2019-12-19T09:53:40Z</time>
      </trkpt>
      <trkpt lat="48.60232" lon="1.96059">
        <ele>129.43</ele>
        <time>2019-12-19T09:53:41Z</time>
      </trkpt>
      <trkpt lat="48.60232" lon="1.96061">
        <ele>129.92</ele>
        <time>2019-12-19T09:53:42Z</time>
      </trkpt>
      <trkpt lat="48.60232" lon="1.96063">
        <ele>129.43</ele>
        <time>2019-12-19T09:53:43Z</time>
      </trkpt>
      <trkpt lat="48.60232" lon="1.96065">
        <ele>130.4</ele>
        <time>2019-12-19T09:53:44Z</time>
      </trkpt>
      <trkpt lat="48.60232" lon="1.96066">
        <ele>130.4</ele>
        <time>2019-12-19T09:53:45Z</time>
      </trkpt>
      <trkpt lat="48.60231" lon="1.96068">
        <ele>130.4</ele>
        <time>2019-12-19T09:53:46Z</time>
      </trkpt>
      <trkpt lat="48.60231" lon="1.96069">
        <ele>131.36</ele>
        <time>2019-12-19T09:53:47Z</time>
      </trkpt>
      <trkpt lat="48.60231" lon="1.96071">
        <ele>130.88</ele>
        <time>2019-12-19T09:53:48Z</time>
      </trkpt>
      <trkpt lat="48.60231" lon="1.96072">
        <ele>130.4</ele>
        <time>2019-12-19T09:53:49Z</time>
      </trkpt>
      <trkpt lat="48.6023" lon="1.96073">
        <ele>131.36</ele>
        <time>2019-12-19T09:53:50Z</time>
      </trkpt>
      <trkpt lat="48.6023" lon="1.96073">
        <ele>131.36</ele>
        <time>2019-12-19T09:53:51Z</time>
      </trkpt>
      <trkpt lat="48.60229" lon="1.96075">
        <ele>131.84</ele>
        <time>2019-12-19T09:53:52Z</time>
      </trkpt>
      <trkpt lat="48.60229" lon="1.96076">
        <ele>131.36</ele>
        <time>2019-12-19T09:53:53Z</time>
      </trkpt>
      <trkpt lat="48.60228" lon="1.96077">
        <ele>132.8</ele>
        <time>2019-12-19T09:53:54Z</time>
      </trkpt>
      <trkpt lat="48.60228" lon="1.96078">
        <ele>132.32</ele>
        <time>2019-12-19T09:53:55Z</time>
      </trkpt>
      <trkpt lat="48.60228" lon="1.9608">
        <ele>131.84</ele>
        <time>2019-12-19T09:53:56Z</time>
      </trkpt>
      <trkpt lat="48.60227" lon="1.96081">
        <ele>132.32</ele>
        <time>2019-12-19T09:53:57Z</time>
      </trkpt>
      <trkpt lat="48.60227" lon="1.96082">
        <ele>132.8</ele>
        <time>2019-12-19T09:53:58Z</time>
      </trkpt>
      <trkpt lat="48.60227" lon="1.96083">
        <ele>131.36</ele>
        <time>2019-12-19T09:53:59Z</time>
      </trkpt>
      <trkpt lat="48.60227" lon="1.96084">
        <ele>133.28</ele>
        <time>2019-12-19T09:54:00Z</time>
      </trkpt>
      <trkpt lat="48.60227" lon="1.96085">
        <ele>133.28</ele>
        <time>2019-12-19T09:54:01Z</time>
      </trkpt>
      <trkpt lat="48.60227" lon="1.96086">
        <ele>132.8</ele>
        <time>2019-12-19T09:54:02Z</time>
      </trkpt>
      <trkpt lat="48.60226" lon="1.96088">
        <ele>132.8</ele>
        <time>2019-12-19T09:54:03Z</time>
      </trkpt>
      <trkpt lat="48.60227" lon="1.96089">
        <ele>134.24</ele>
        <time>2019-12-19T09:54:04Z</time>
      </trkpt>
      <trkpt lat="48.60227" lon="1.9609">
        <ele>132.8</ele>
        <time>2019-12-19T09:54:05Z</time>
      </trkpt>
      <trkpt lat="48.60227" lon="1.96091">
        <ele>133.76</ele>
        <time>2019-12-19T09:54:06Z</time>
      </trkpt>
      <trkpt lat="48.60227" lon="1.96091">
        <ele>134.24</ele>
        <time>2019-12-19T09:54:07Z</time>
      </trkpt>
      <trkpt lat="48.60227" lon="1.96092">
        <ele>134.24</ele>
        <time>2019-12-19T09:54:08Z</time>
      </trkpt>
      <trkpt lat="48.60227" lon="1.96093">
        <ele>134.24</ele>
        <time>2019-12-19T09:54:09Z</time>
      </trkpt>
      <trkpt lat="48.60227" lon="1.96094">
        <ele>134.24</ele>
        <time>2019-12-19T09:54:10Z</time>
      </trkpt>
      <trkpt lat="48.60227" lon="1.96095">
        <ele>135.2</ele>
        <time>2019-12-19T09:54:11Z</time>
      </trkpt>
      <trkpt lat="48.60227" lon="1.96096">
        <ele>135.2</ele>
        <time>2019-12-19T09:54:12Z</time>
      </trkpt>
      <trkpt lat="48.60227" lon="1.96097">
        <ele>134.24</ele>
        <time>2019-12-19T09:54:13Z</time>
      </trkpt>
      <trkpt lat="48.60228" lon="1.96097">
        <ele>136.64</ele>
        <time>2019-12-19T09:54:14Z</time>
      </trkpt>
      <trkpt lat="48.60228" lon="1.96098">
        <ele>135.68</ele>
        <time>2019-12-19T09:54:15Z</time>
      </trkpt>
      <trkpt lat="48.60228" lon="1.96098">
        <ele>135.2</ele>
        <time>2019-12-19T09:54:16Z</time>
      </trkpt>
      <trkpt lat="48.60228" lon="1.96099">
        <ele>136.16</ele>
        <time>2019-12-19T09:54:17Z</time>
      </trkpt>
      <trkpt lat="48.60229" lon="1.961">
        <ele>136.16</ele>
        <time>2019-12-19T09:54:18Z</time>
      </trkpt>
      <trkpt lat="48.60229" lon="1.96101">
        <ele>136.64</ele>
        <time>2019-12-19T09:54:19Z</time>
      </trkpt>
      <trkpt lat="48.60229" lon="1.96102">
        <ele>136.64</ele>
        <time>2019-12-19T09:54:20Z</time>
      </trkpt>
      <trkpt lat="48.6023" lon="1.96102">
        <ele>136.64</ele>
        <time>2019-12-19T09:54:21Z</time>
      </trkpt>
      <trkpt lat="48.6023" lon="1.96103">
        <ele>136.64</ele>
        <time>2019-12-19T09:54:22Z</time>
      </trkpt>
      <trkpt lat="48.60231" lon="1.96104">
        <ele>136.16</ele>
        <time>2019-12-19T09:54:23Z</time>
      </trkpt>
      <trkpt lat="48.60232" lon="1.96105">
        <ele>137.61</ele>
        <time>2019-12-19T09:54:24Z</time>
      </trkpt>
      <trkpt lat="48.60232" lon="1.96106">
        <ele>137.13</ele>
        <time>2019-12-19T09:54:25Z</time>
      </trkpt>
      <trkpt lat="48.60233" lon="1.96107">
        <ele>137.61</ele>
        <time>2019-12-19T09:54:26Z</time>
      </trkpt>
      <trkpt lat="48.60234" lon="1.96108">
        <ele>137.13</ele>
        <time>2019-12-19T09:54:27Z</time>
      </trkpt>
      <trkpt lat="48.60234" lon="1.9611">
        <ele>137.61</ele>
        <time>2019-12-19T09:54:28Z</time>
      </trkpt>
      <trkpt lat="48.60235" lon="1.96111">
        <ele>137.61</ele>
        <time>2019-12-19T09:54:29Z</time>
      </trkpt>
      <trkpt lat="48.60235" lon="1.96112">
        <ele>137.61</ele>
        <time>2019-12-19T09:54:30Z</time>
      </trkpt>
      <trkpt lat="48.60236" lon="1.96114">
        <ele>138.09</ele>
        <time>2019-12-19T09:54:31Z</time>
      </trkpt>
      <trkpt lat="48.60236" lon="1.96116">
        <ele>137.61</ele>
        <time>2019-12-19T09:54:32Z</time>
      </trkpt>
      <trkpt lat="48.60236" lon="1.96117">
        <ele>137.61</ele>
        <time>2019-12-19T09:54:33Z</time>
      </trkpt>
      <trkpt lat="48.60236" lon="1.96119">
        <ele>138.09</ele>
        <time>2019-12-19T09:54:34Z</time>
      </trkpt>
      <trkpt lat="48.60237" lon="1.9612">
        <ele>138.09</ele>
        <time>2019-12-19T09:54:35Z</time>
      </trkpt>
      <trkpt lat="48.60237" lon="1.96122">
        <ele>138.09</ele>
        <time>2019-12-19T09:54:36Z</time>
      </trkpt>
      <trkpt lat="48.60237" lon="1.96123">
        <ele>137.61</ele>
        <time>2019-12-19T09:54:37Z</time>
      </trkpt>
      <trkpt lat="48.60238" lon="1.96125">
        <ele>137.61</ele>
        <time>2019-12-19T09:54:38Z</time>
      </trkpt>
      <trkpt lat="48.60239" lon="1.96127">
        <ele>137.61</ele>
        <time>2019-12-19T09:54:39Z</time>
      </trkpt>
      <trkpt lat="48.60239" lon="1.96129">
        <ele>138.09</ele>
        <time>2019-12-19T09:54:40Z</time>
      </trkpt>
      <trkpt lat="48.6024" lon="1.9613">
        <ele>138.09</ele>
        <time>2019-12-19T09:54:41Z</time>
      </trkpt>
      <trkpt lat="48.60241" lon="1.96132">
        <ele>138.09</ele>
        <time>2019-12-19T09:54:42Z</time>
      </trkpt>
      <trkpt lat="48.60241" lon="1.96134">
        <ele>138.09</ele>
        <time>2019-12-19T09:54:43Z</time>
      </trkpt>
      <trkpt lat="48.60242" lon="1.96136">
        <ele>138.09</ele>
        <time>2019-12-19T09:54:44Z</time>
      </trkpt>
      <trkpt lat="48.60242" lon="1.96138">
        <ele>138.09</ele>
        <time>2019-12-19T09:54:45Z</time>
      </trkpt>
      <trkpt lat="48.60243" lon="1.9614">
        <ele>137.61</ele>
        <time>2019-12-19T09:54:46Z</time>
      </trkpt>
      <trkpt lat="48.60244" lon="1.96141">
        <ele>137.61</ele>
        <time>2019-12-19T09:54:47Z</time>
      </trkpt>
      <trkpt lat="48.60244" lon="1.96143">
        <ele>137.61</ele>
        <time>2019-12-19T09:54:48Z</time>
      </trkpt>
      <trkpt lat="48.60245" lon="1.96144">
        <ele>138.09</ele>
        <time>2019-12-19T09:54:49Z</time>
      </trkpt>
      <trkpt lat="48.60246" lon="1.96145">
        <ele>138.09</ele>
        <time>2019-12-19T09:54:50Z</time>
      </trkpt>
      <trkpt lat="48.60247" lon="1.96147">
        <ele>137.61</ele>
        <time>2019-12-19T09:54:51Z</time>
      </trkpt>
      <trkpt lat="48.60247" lon="1.96148">
        <ele>137.61</ele>
        <time>2019-12-19T09:54:52Z</time>
      </trkpt>
      <trkpt lat="48.60248" lon="1.96149">
        <ele>138.09</ele>
        <time>2019-12-19T09:54:53Z</time>
      </trkpt>
      <trkpt lat="48.60248" lon="1.96151">
        <ele>138.09</ele>
        <time>2019-12-19T09:54:54Z</time>
      </trkpt>
      <trkpt lat="48.60249" lon="1.96153">
        <ele>138.09</ele>
        <time>2019-12-19T09:54:55Z</time>
      </trkpt>
      <trkpt lat="48.60249" lon="1.96154">
        <ele>137.61</ele>
        <time>2019-12-19T09:54:56Z</time>
      </trkpt>
      <trkpt lat="48.6025" lon="1.96157">
        <ele>137.61</ele>
        <time>2019-12-19T09:54:57Z</time>
      </trkpt>
      <trkpt lat="48.6025" lon="1.96159">
        <ele>138.09</ele>
        <time>2019-12-19T09:54:58Z</time>
      </trkpt>
      <trkpt lat="48.60251" lon="1.96162">
        <ele>138.57</ele>
        <time>2019-12-19T09:54:59Z</time>
      </trkpt>
      <trkpt lat="48.60252" lon="1.96165">
        <ele>138.09</ele>
        <time>2019-12-19T09:55:00Z</time>
      </trkpt>
      <trkpt lat="48.60252" lon="1.96167">
        <ele>138.09</ele>
        <time>2019-12-19T09:55:01Z</time>
      </trkpt>
      <trkpt lat="48.60252" lon="1.96169">
        <ele>137.61</ele>
        <time>2019-12-19T09:55:02Z</time>
      </trkpt>
      <trkpt lat="48.60253" lon="1.9617">
        <ele>137.61</ele>
        <time>2019-12-19T09:55:03Z</time>
      </trkpt>
      <trkpt lat="48.60253" lon="1.96172">
        <ele>138.09</ele>
        <time>2019-12-19T09:55:04Z</time>
      </trkpt>
      <trkpt lat="48.60254" lon="1.96173">
        <ele>137.61</ele>
        <time>2019-12-19T09:55:05Z</time>
      </trkpt>
      <trkpt lat="48.60254" lon="1.96175">
        <ele>137.61</ele>
        <time>2019-12-19T09:55:06Z</time>
      </trkpt>
      <trkpt lat="48.60255" lon="1.96176">
        <ele>137.61</ele>
        <time>2019-12-19T09:55:07Z</time>
      </trkpt>
      <trkpt lat="48.60255" lon="1.96177">
        <ele>138.09</ele>
        <time>2019-12-19T09:55:08Z</time>
      </trkpt>
      <trkpt lat="48.60256" lon="1.96179">
        <ele>137.61</ele>
        <time>2019-12-19T09:55:09Z</time>
      </trkpt>
      <trkpt lat="48.60256" lon="1.96181">
        <ele>137.61</ele>
        <time>2019-12-19T09:55:10Z</time>
      </trkpt>
      <trkpt lat="48.60256" lon="1.96182">
        <ele>137.61</ele>
        <time>2019-12-19T09:55:11Z</time>
      </trkpt>
      <trkpt lat="48.60256" lon="1.96184">
        <ele>137.61</ele>
        <time>2019-12-19T09:55:12Z</time>
      </trkpt>
      <trkpt lat="48.60257" lon="1.96186">
        <ele>137.61</ele>
        <time>2019-12-19T09:55:13Z</time>
      </trkpt>
      <trkpt lat="48.60257" lon="1.96188">
        <ele>137.61</ele>
        <time>2019-12-19T09:55:14Z</time>
      </trkpt>
      <trkpt lat="48.60258" lon="1.9619">
        <ele>137.61</ele>
        <time>2019-12-19T09:55:15Z</time>
      </trkpt>
      <trkpt lat="48.60259" lon="1.96192">
        <ele>137.61</ele>
        <time>2019-12-19T09:55:16Z</time>
      </trkpt>
      <trkpt lat="48.6026" lon="1.96193">
        <ele>137.61</ele>
        <time>2019-12-19T09:55:17Z</time>
      </trkpt>
      <trkpt lat="48.6026" lon="1.96194">
        <ele>138.09</ele>
        <time>2019-12-19T09:55:18Z</time>
      </trkpt>
      <trkpt lat="48.60261" lon="1.96194">
        <ele>137.61</ele>
        <time>2019-12-19T09:55:19Z</time>
      </trkpt>
      <trkpt lat="48.60262" lon="1.96195">
        <ele>137.13</ele>
        <time>2019-12-19T09:55:20Z</time>
      </trkpt>
      <trkpt lat="48.60262" lon="1.96195">
        <ele>137.13</ele>
        <time>2019-12-19T09:55:21Z</time>
      </trkpt>
      <trkpt lat="48.60263" lon="1.96196">
        <ele>137.13</ele>
        <time>2019-12-19T09:55:22Z</time>
      </trkpt>
      <trkpt lat="48.60263" lon="1.96198">
        <ele>137.13</ele>
        <time>2019-12-19T09:55:23Z</time>
      </trkpt>
      <trkpt lat="48.60264" lon="1.962">
        <ele>137.13</ele>
        <time>2019-12-19T09:55:24Z</time>
      </trkpt>
      <trkpt lat="48.60264" lon="1.96202">
        <ele>137.13</ele>
        <time>2019-12-19T09:55:25Z</time>
      </trkpt>
      <trkpt lat="48.60264" lon="1.96203">
        <ele>137.61</ele>
        <time>2019-12-19T09:55:26Z</time>
      </trkpt>
      <trkpt lat="48.60265" lon="1.96205">
        <ele>137.13</ele>
        <time>2019-12-19T09:55:27Z</time>
      </trkpt>
      <trkpt lat="48.60265" lon="1.96208">
        <ele>136.64</ele>
        <time>2019-12-19T09:55:28Z</time>
      </trkpt>
      <trkpt lat="48.60266" lon="1.9621">
        <ele>137.13</ele>
        <time>2019-12-19T09:55:29Z</time>
      </trkpt>
      <trkpt lat="48.60266" lon="1.96213">
        <ele>137.13</ele>
        <time>2019-12-19T09:55:30Z</time>
      </trkpt>
      <trkpt lat="48.60267" lon="1.96215">
        <ele>136.64</ele>
        <time>2019-12-19T09:55:31Z</time>
      </trkpt>
      <trkpt lat="48.60267" lon="1.96217">
        <ele>136.64</ele>
        <time>2019-12-19T09:55:32Z</time>
      </trkpt>
      <trkpt lat="48.60268" lon="1.96219">
        <ele>136.64</ele>
        <time>2019-12-19T09:55:33Z</time>
      </trkpt>
      <trkpt lat="48.60268" lon="1.9622">
        <ele>136.64</ele>
        <time>2019-12-19T09:55:34Z</time>
      </trkpt>
      <trkpt lat="48.60269" lon="1.96222">
        <ele>136.16</ele>
        <time>2019-12-19T09:55:35Z</time>
      </trkpt>
      <trkpt lat="48.6027" lon="1.96224">
        <ele>136.16</ele>
        <time>2019-12-19T09:55:36Z</time>
      </trkpt>
      <trkpt lat="48.6027" lon="1.96225">
        <ele>136.16</ele>
        <time>2019-12-19T09:55:37Z</time>
      </trkpt>
      <trkpt lat="48.6027" lon="1.96226">
        <ele>136.64</ele>
        <time>2019-12-19T09:55:38Z</time>
      </trkpt>
      <trkpt lat="48.60271" lon="1.96227">
        <ele>137.13</ele>
        <time>2019-12-19T09:55:39Z</time>
      </trkpt>
      <trkpt lat="48.60271" lon="1.96228">
        <ele>136.16</ele>
        <time>2019-12-19T09:55:40Z</time>
      </trkpt>
      <trkpt lat="48.60272" lon="1.9623">
        <ele>136.16</ele>
        <time>2019-12-19T09:55:41Z</time>
      </trkpt>
      <trkpt lat="48.60273" lon="1.96231">
        <ele>136.16</ele>
        <time>2019-12-19T09:55:42Z</time>
      </trkpt>
      <trkpt lat="48.60274" lon="1.96233">
        <ele>136.16</ele>
        <time>2019-12-19T09:55:43Z</time>
      </trkpt>
      <trkpt lat="48.60275" lon="1.96234">
        <ele>136.16</ele>
        <time>2019-12-19T09:55:44Z</time>
      </trkpt>
      <trkpt lat="48.60276" lon="1.96235">
        <ele>135.68</ele>
        <time>2019-12-19T09:55:45Z</time>
      </trkpt>
      <trkpt lat="48.60277" lon="1.96237">
        <ele>135.68</ele>
        <time>2019-12-19T09:55:46Z</time>
      </trkpt>
      <trkpt lat="48.60279" lon="1.96238">
        <ele>136.16</ele>
        <time>2019-12-19T09:55:47Z</time>
      </trkpt>
      <trkpt lat="48.60281" lon="1.9624">
        <ele>135.68</ele>
        <time>2019-12-19T09:55:48Z</time>
      </trkpt>
      <trkpt lat="48.60282" lon="1.96242">
        <ele>135.2</ele>
        <time>2019-12-19T09:55:49Z</time>
      </trkpt>
      <trkpt lat="48.60282" lon="1.96245">
        <ele>135.2</ele>
        <time>2019-12-19T09:55:50Z</time>
      </trkpt>
      <trkpt lat="48.60284" lon="1.96247">
        <ele>135.68</ele>
        <time>2019-12-19T09:55:51Z</time>
      </trkpt>
      <trkpt lat="48.60285" lon="1.9625">
        <ele>135.68</ele>
        <time>2019-12-19T09:55:52Z</time>
      </trkpt>
      <trkpt lat="48.60286" lon="1.96252">
        <ele>136.16</ele>
        <time>2019-12-19T09:55:53Z</time>
      </trkpt>
      <trkpt lat="48.60286" lon="1.96254">
        <ele>135.68</ele>
        <time>2019-12-19T09:55:54Z</time>
      </trkpt>
      <trkpt lat="48.60287" lon="1.96256">
        <ele>135.2</ele>
        <time>2019-12-19T09:55:55Z</time>
      </trkpt>
      <trkpt lat="48.60288" lon="1.96259">
        <ele>135.2</ele>
        <time>2019-12-19T09:55:56Z</time>
      </trkpt>
      <trkpt lat="48.60289" lon="1.9626">
        <ele>134.72</ele>
        <time>2019-12-19T09:55:57Z</time>
      </trkpt>
      <trkpt lat="48.6029" lon="1.96262">
        <ele>135.2</ele>
        <time>2019-12-19T09:55:58Z</time>
      </trkpt>
      <trkpt lat="48.60291" lon="1.96263">
        <ele>135.2</ele>
        <time>2019-12-19T09:55:59Z</time>
      </trkpt>
      <trkpt lat="48.60291" lon="1.96265">
        <ele>134.72</ele>
        <time>2019-12-19T09:56:00Z</time>
      </trkpt>
      <trkpt lat="48.60292" lon="1.96266">
        <ele>134.72</ele>
        <time>2019-12-19T09:56:01Z</time>
      </trkpt>
      <trkpt lat="48.60293" lon="1.96267">
        <ele>135.2</ele>
        <time>2019-12-19T09:56:02Z</time>
      </trkpt>
      <trkpt lat="48.60293" lon="1.96269">
        <ele>134.72</ele>
        <time>2019-12-19T09:56:03Z</time>
      </trkpt>
      <trkpt lat="48.60294" lon="1.9627">
        <ele>135.2</ele>
        <time>2019-12-19T09:56:04Z</time>
      </trkpt>
      <trkpt lat="48.60295" lon="1.96271">
        <ele>135.2</ele>
        <time>2019-12-19T09:56:05Z</time>
      </trkpt>
      <trkpt lat="48.60295" lon="1.96272">
        <ele>135.68</ele>
        <time>2019-12-19T09:56:06Z</time>
      </trkpt>
      <trkpt lat="48.60296" lon="1.96273">
        <ele>135.2</ele>
        <time>2019-12-19T09:56:07Z</time>
      </trkpt>
      <trkpt lat="48.60296" lon="1.96275">
        <ele>135.2</ele>
        <time>2019-12-19T09:56:08Z</time>
      </trkpt>
      <trkpt lat="48.60297" lon="1.96276">
        <ele>135.2</ele>
        <time>2019-12-19T09:56:09Z</time>
      </trkpt>
      <trkpt lat="48.60298" lon="1.96278">
        <ele>135.2</ele>
        <time>2019-12-19T09:56:10Z</time>
      </trkpt>
      <trkpt lat="48.60298" lon="1.9628">
        <ele>135.2</ele>
        <time>2019-12-19T09:56:11Z</time>
      </trkpt>
      <trkpt lat="48.60299" lon="1.96282">
        <ele>134.72</ele>
        <time>2019-12-19T09:56:12Z</time>
      </trkpt>
      <trkpt lat="48.603" lon="1.96285">
        <ele>134.72</ele>
        <time>2019-12-19T09:56:13Z</time>
      </trkpt>
      <trkpt lat="48.603" lon="1.96287">
        <ele>135.2</ele>
        <time>2019-12-19T09:56:14Z</time>
      </trkpt>
      <trkpt lat="48.60301" lon="1.96289">
        <ele>135.2</ele>
        <time>2019-12-19T09:56:15Z</time>
      </trkpt>
      <trkpt lat="48.60302" lon="1.96291">
        <ele>134.72</ele>
        <time>2019-12-19T09:56:16Z</time>
      </trkpt>
      <trkpt lat="48.60303" lon="1.96293">
        <ele>135.2</ele>
        <time>2019-12-19T09:56:17Z</time>
      </trkpt>
      <trkpt lat="48.60303" lon="1.96294">
        <ele>135.2</ele>
        <time>2019-12-19T09:56:18Z</time>
      </trkpt>
      <trkpt lat="48.60304" lon="1.96296">
        <ele>134.72</ele>
        <time>2019-12-19T09:56:19Z</time>
      </trkpt>
      <trkpt lat="48.60304" lon="1.96299">
        <ele>134.72</ele>
        <time>2019-12-19T09:56:20Z</time>
      </trkpt>
      <trkpt lat="48.60305" lon="1.96301">
        <ele>134.72</ele>
        <time>2019-12-19T09:56:21Z</time>
      </trkpt>
      <trkpt lat="48.60305" lon="1.96303">
        <ele>134.24</ele>
        <time>2019-12-19T09:56:22Z</time>
      </trkpt>
      <trkpt lat="48.60306" lon="1.96305">
        <ele>134.24</ele>
        <time>2019-12-19T09:56:23Z</time>
      </trkpt>
      <trkpt lat="48.60306" lon="1.96307">
        <ele>134.72</ele>
        <time>2019-12-19T09:56:24Z</time>
      </trkpt>
      <trkpt lat="48.60306" lon="1.96309">
        <ele>135.2</ele>
        <time>2019-12-19T09:56:25Z</time>
      </trkpt>
      <trkpt lat="48.60306" lon="1.96311">
        <ele>134.72</ele>
        <time>2019-12-19T09:56:26Z</time>
      </trkpt>
      <trkpt lat="48.60306" lon="1.96313">
        <ele>134.72</ele>
        <time>2019-12-19T09:56:27Z</time>
      </trkpt>
      <trkpt lat="48.60306" lon="1.96315">
        <ele>134.72</ele>
        <time>2019-12-19T09:56:28Z</time>
      </trkpt>
      <trkpt lat="48.60306" lon="1.96317">
        <ele>134.24</ele>
        <time>2019-12-19T09:56:29Z</time>
      </trkpt>
      <trkpt lat="48.60307" lon="1.96318">
        <ele>134.24</ele>
        <time>2019-12-19T09:56:30Z</time>
      </trkpt>
      <trkpt lat="48.60308" lon="1.9632">
        <ele>134.72</ele>
        <time>2019-12-19T09:56:31Z</time>
      </trkpt>
      <trkpt lat="48.60308" lon="1.96322">
        <ele>134.72</ele>
        <time>2019-12-19T09:56:32Z</time>
      </trkpt>
      <trkpt lat="48.60309" lon="1.96324">
        <ele>134.72</ele>
        <time>2019-12-19T09:56:33Z</time>
      </trkpt>
      <trkpt lat="48.60309" lon="1.96326">
        <ele>134.72</ele>
        <time>2019-12-19T09:56:34Z</time>
      </trkpt>
      <trkpt lat="48.6031" lon="1.96328">
        <ele>134.72</ele>
        <time>2019-12-19T09:56:35Z</time>
      </trkpt>
      <trkpt lat="48.6031" lon="1.96331">
        <ele>134.24</ele>
        <time>2019-12-19T09:56:36Z</time>
      </trkpt>
      <trkpt lat="48.60311" lon="1.96333">
        <ele>134.72</ele>
        <time>2019-12-19T09:56:37Z</time>
      </trkpt>
      <trkpt lat="48.60311" lon="1.96334">
        <ele>134.72</ele>
        <time>2019-12-19T09:56:38Z</time>
      </trkpt>
      <trkpt lat="48.60312" lon="1.96336">
        <ele>134.72</ele>
        <time>2019-12-19T09:56:39Z</time>
      </trkpt>
      <trkpt lat="48.60312" lon="1.96338">
        <ele>134.72</ele>
        <time>2019-12-19T09:56:40Z</time>
      </trkpt>
      <trkpt lat="48.60312" lon="1.9634">
        <ele>134.72</ele>
        <time>2019-12-19T09:56:41Z</time>
      </trkpt>
      <trkpt lat="48.60313" lon="1.96342">
        <ele>134.72</ele>
        <time>2019-12-19T09:56:42Z</time>
      </trkpt>
      <trkpt lat="48.60313" lon="1.96344">
        <ele>135.2</ele>
        <time>2019-12-19T09:56:43Z</time>
      </trkpt>
      <trkpt lat="48.60313" lon="1.96346">
        <ele>134.72</ele>
        <time>2019-12-19T09:56:44Z</time>
      </trkpt>
      <trkpt lat="48.60313" lon="1.96348">
        <ele>134.72</ele>
        <time>2019-12-19T09:56:45Z</time>
      </trkpt>
      <trkpt lat="48.60314" lon="1.9635">
        <ele>134.72</ele>
        <time>2019-12-19T09:56:46Z</time>
      </trkpt>
      <trkpt lat="48.60314" lon="1.96351">
        <ele>134.72</ele>
        <time>2019-12-19T09:56:47Z</time>
      </trkpt>
      <trkpt lat="48.60314" lon="1.96353">
        <ele>135.2</ele>
        <time>2019-12-19T09:56:48Z</time>
      </trkpt>
      <trkpt lat="48.60313" lon="1.96355">
        <ele>134.72</ele>
        <time>2019-12-19T09:56:49Z</time>
      </trkpt>
      <trkpt lat="48.60313" lon="1.96357">
        <ele>134.72</ele>
        <time>2019-12-19T09:56:50Z</time>
      </trkpt>
      <trkpt lat="48.60313" lon="1.96358">
        <ele>134.72</ele>
        <time>2019-12-19T09:56:51Z</time>
      </trkpt>
      <trkpt lat="48.60314" lon="1.9636">
        <ele>134.72</ele>
        <time>2019-12-19T09:56:52Z</time>
      </trkpt>
      <trkpt lat="48.60314" lon="1.96361">
        <ele>135.2</ele>
        <time>2019-12-19T09:56:53Z</time>
      </trkpt>
      <trkpt lat="48.60314" lon="1.96362">
        <ele>134.72</ele>
        <time>2019-12-19T09:56:54Z</time>
      </trkpt>
      <trkpt lat="48.60314" lon="1.96363">
        <ele>134.72</ele>
        <time>2019-12-19T09:56:55Z</time>
      </trkpt>
      <trkpt lat="48.60314" lon="1.96363">
        <ele>134.72</ele>
        <time>2019-12-19T09:56:56Z</time>
      </trkpt>
      <trkpt lat="48.6032" lon="1.96366">
        <ele>134.72</ele>
        <time>2019-12-19T09:57:40Z</time>
      </trkpt>
      <trkpt lat="48.6032" lon="1.96366">
        <ele>134.72</ele>
        <time>2019-12-19T09:57:41Z</time>
      </trkpt>
      <trkpt lat="48.6032" lon="1.96366">
        <ele>134.72</ele>
        <time>2019-12-19T09:57:42Z</time>
      </trkpt>
      <trkpt lat="48.6032" lon="1.96367">
        <ele>134.24</ele>
        <time>2019-12-19T09:57:52Z</time>
      </trkpt>
      <trkpt lat="48.6032" lon="1.96367">
        <ele>134.24</ele>
        <time>2019-12-19T09:57:53Z</time>
      </trkpt>
      <trkpt lat="48.6032" lon="1.96367">
        <ele>134.72</ele>
        <time>2019-12-19T09:57:54Z</time>
      </trkpt>
      <trkpt lat="48.60319" lon="1.96368">
        <ele>134.72</ele>
        <time>2019-12-19T09:58:13Z</time>
      </trkpt>
      <trkpt lat="48.6032" lon="1.96368">
        <ele>134.72</ele>
        <time>2019-12-19T09:58:14Z</time>
      </trkpt>
      <trkpt lat="48.6032" lon="1.96368">
        <ele>134.72</ele>
        <time>2019-12-19T09:58:15Z</time>
      </trkpt>
      <trkpt lat="48.60319" lon="1.96369">
        <ele>134.72</ele>
        <time>2019-12-19T09:58:18Z</time>
      </trkpt>
      <trkpt lat="48.60319" lon="1.96369">
        <ele>134.72</ele>
        <time>2019-12-19T09:58:19Z</time>
      </trkpt>
      <trkpt lat="48.60319" lon="1.96369">
        <ele>135.2</ele>
        <time>2019-12-19T09:58:20Z</time>
      </trkpt>
      <trkpt lat="48.60319" lon="1.96369">
        <ele>135.2</ele>
        <time>2019-12-19T09:58:21Z</time>
      </trkpt>
      <trkpt lat="48.60319" lon="1.96369">
        <ele>135.2</ele>
        <time>2019-12-19T09:58:22Z</time>
      </trkpt>
      <trkpt lat="48.60318" lon="1.96369">
        <ele>134.72</ele>
        <time>2019-12-19T09:58:23Z</time>
      </trkpt>
      <trkpt lat="48.60318" lon="1.96369">
        <ele>135.2</ele>
        <time>2019-12-19T09:58:24Z</time>
      </trkpt>
      <trkpt lat="48.60317" lon="1.96368">
        <ele>135.2</ele>
        <time>2019-12-19T09:58:25Z</time>
      </trkpt>
      <trkpt lat="48.60315" lon="1.96368">
        <ele>135.2</ele>
        <time>2019-12-19T09:58:31Z</time>
      </trkpt>
      <trkpt lat="48.60313" lon="1.96368">
        <ele>135.2</ele>
        <time>2019-12-19T09:58:32Z</time>
      </trkpt>
      <trkpt lat="48.60313" lon="1.96368">
        <ele>135.2</ele>
        <time>2019-12-19T09:58:33Z</time>
      </trkpt>
      <trkpt lat="48.60313" lon="1.96368">
        <ele>135.2</ele>
        <time>2019-12-19T09:58:34Z</time>
      </trkpt>
      <trkpt lat="48.60313" lon="1.96368">
        <ele>135.2</ele>
        <time>2019-12-19T09:58:35Z</time>
      </trkpt>
      <trkpt lat="48.60313" lon="1.96368">
        <ele>134.72</ele>
        <time>2019-12-19T09:58:36Z</time>
      </trkpt>
      <trkpt lat="48.60313" lon="1.9637">
        <ele>134.72</ele>
        <time>2019-12-19T10:00:12Z</time>
      </trkpt>
      <trkpt lat="48.60313" lon="1.9637">
        <ele>134.72</ele>
        <time>2019-12-19T10:00:13Z</time>
      </trkpt>
      <trkpt lat="48.60313" lon="1.96371">
        <ele>134.72</ele>
        <time>2019-12-19T10:00:14Z</time>
      </trkpt>
      <trkpt lat="48.60313" lon="1.96371">
        <ele>134.72</ele>
        <time>2019-12-19T10:00:15Z</time>
      </trkpt>
      <trkpt lat="48.60313" lon="1.96371">
        <ele>134.72</ele>
        <time>2019-12-19T10:00:16Z</time>
      </trkpt>
      <trkpt lat="48.60313" lon="1.96371">
        <ele>134.72</ele>
        <time>2019-12-19T10:00:17Z</time>
      </trkpt>
      <trkpt lat="48.60312" lon="1.9637">
        <ele>134.72</ele>
        <time>2019-12-19T10:00:27Z</time>
      </trkpt>
      <trkpt lat="48.60312" lon="1.96371">
        <ele>134.72</ele>
        <time>2019-12-19T10:00:28Z</time>
      </trkpt>
      <trkpt lat="48.60311" lon="1.96372">
        <ele>134.72</ele>
        <time>2019-12-19T10:00:29Z</time>
      </trkpt>
      <trkpt lat="48.60311" lon="1.96372">
        <ele>134.72</ele>
        <time>2019-12-19T10:00:30Z</time>
      </trkpt>
      <trkpt lat="48.60311" lon="1.96372">
        <ele>134.72</ele>
        <time>2019-12-19T10:00:31Z</time>
      </trkpt>
      <trkpt lat="48.6031" lon="1.96373">
        <ele>134.72</ele>
        <time>2019-12-19T10:00:32Z</time>
      </trkpt>
      <trkpt lat="48.60308" lon="1.96374">
        <ele>134.72</ele>
        <time>2019-12-19T10:00:33Z</time>
      </trkpt>
      <trkpt lat="48.60306" lon="1.96374">
        <ele>134.24</ele>
        <time>2019-12-19T10:00:34Z</time>
      </trkpt>
      <trkpt lat="48.60305" lon="1.96375">
        <ele>134.24</ele>
        <time>2019-12-19T10:00:35Z</time>
      </trkpt>
      <trkpt lat="48.60304" lon="1.96374">
        <ele>133.76</ele>
        <time>2019-12-19T10:00:36Z</time>
      </trkpt>
      <trkpt lat="48.60304" lon="1.96374">
        <ele>133.76</ele>
        <time>2019-12-19T10:00:37Z</time>
      </trkpt>
      <trkpt lat="48.60303" lon="1.96372">
        <ele>134.24</ele>
        <time>2019-12-19T10:00:38Z</time>
      </trkpt>
      <trkpt lat="48.60302" lon="1.96371">
        <ele>133.76</ele>
        <time>2019-12-19T10:00:39Z</time>
      </trkpt>
      <trkpt lat="48.60301" lon="1.9637">
        <ele>133.76</ele>
        <time>2019-12-19T10:00:40Z</time>
      </trkpt>
      <trkpt lat="48.603" lon="1.9637">
        <ele>133.76</ele>
        <time>2019-12-19T10:00:41Z</time>
      </trkpt>
      <trkpt lat="48.603" lon="1.96369">
        <ele>133.76</ele>
        <time>2019-12-19T10:00:42Z</time>
      </trkpt>
      <trkpt lat="48.60299" lon="1.96369">
        <ele>133.28</ele>
        <time>2019-12-19T10:00:43Z</time>
      </trkpt>
      <trkpt lat="48.60298" lon="1.96368">
        <ele>133.28</ele>
        <time>2019-12-19T10:00:44Z</time>
      </trkpt>
      <trkpt lat="48.60298" lon="1.96368">
        <ele>133.28</ele>
        <time>2019-12-19T10:00:45Z</time>
      </trkpt>
      <trkpt lat="48.60297" lon="1.96368">
        <ele>133.76</ele>
        <time>2019-12-19T10:00:46Z</time>
      </trkpt>
      <trkpt lat="48.60297" lon="1.96367">
        <ele>133.28</ele>
        <time>2019-12-19T10:00:47Z</time>
      </trkpt>
      <trkpt lat="48.60296" lon="1.96366">
        <ele>133.28</ele>
        <time>2019-12-19T10:00:48Z</time>
      </trkpt>
      <trkpt lat="48.60295" lon="1.96365">
        <ele>133.28</ele>
        <time>2019-12-19T10:00:49Z</time>
      </trkpt>
      <trkpt lat="48.60293" lon="1.96365">
        <ele>133.28</ele>
        <time>2019-12-19T10:00:50Z</time>
      </trkpt>
      <trkpt lat="48.60293" lon="1.96365">
        <ele>133.28</ele>
        <time>2019-12-19T10:00:51Z</time>
      </trkpt>
      <trkpt lat="48.60292" lon="1.96364">
        <ele>133.28</ele>
        <time>2019-12-19T10:00:52Z</time>
      </trkpt>
      <trkpt lat="48.6029" lon="1.96364">
        <ele>133.28</ele>
        <time>2019-12-19T10:00:53Z</time>
      </trkpt>
      <trkpt lat="48.60288" lon="1.96362">
        <ele>132.8</ele>
        <time>2019-12-19T10:00:54Z</time>
      </trkpt>
      <trkpt lat="48.60287" lon="1.9636">
        <ele>133.28</ele>
        <time>2019-12-19T10:00:55Z</time>
      </trkpt>
      <trkpt lat="48.60286" lon="1.96359">
        <ele>132.8</ele>
        <time>2019-12-19T10:00:56Z</time>
      </trkpt>
      <trkpt lat="48.60285" lon="1.96358">
        <ele>133.28</ele>
        <time>2019-12-19T10:00:57Z</time>
      </trkpt>
      <trkpt lat="48.60284" lon="1.96357">
        <ele>133.28</ele>
        <time>2019-12-19T10:00:58Z</time>
      </trkpt>
      <trkpt lat="48.60282" lon="1.96356">
        <ele>133.28</ele>
        <time>2019-12-19T10:00:59Z</time>
      </trkpt>
      <trkpt lat="48.60281" lon="1.96355">
        <ele>132.8</ele>
        <time>2019-12-19T10:01:00Z</time>
      </trkpt>
      <trkpt lat="48.60279" lon="1.96353">
        <ele>133.76</ele>
        <time>2019-12-19T10:01:01Z</time>
      </trkpt>
      <trkpt lat="48.60278" lon="1.96352">
        <ele>133.28</ele>
        <time>2019-12-19T10:01:02Z</time>
      </trkpt>
      <trkpt lat="48.60277" lon="1.96351">
        <ele>133.28</ele>
        <time>2019-12-19T10:01:03Z</time>
      </trkpt>
      <trkpt lat="48.60276" lon="1.9635">
        <ele>133.28</ele>
        <time>2019-12-19T10:01:04Z</time>
      </trkpt>
      <trkpt lat="48.60276" lon="1.96348">
        <ele>133.28</ele>
        <time>2019-12-19T10:01:05Z</time>
      </trkpt>
      <trkpt lat="48.60275" lon="1.96347">
        <ele>133.28</ele>
        <time>2019-12-19T10:01:06Z</time>
      </trkpt>
      <trkpt lat="48.60273" lon="1.96346">
        <ele>133.28</ele>
        <time>2019-12-19T10:01:07Z</time>
      </trkpt>
      <trkpt lat="48.60272" lon="1.96345">
        <ele>133.76</ele>
        <time>2019-12-19T10:01:08Z</time>
      </trkpt>
      <trkpt lat="48.60271" lon="1.96344">
        <ele>133.76</ele>
        <time>2019-12-19T10:01:09Z</time>
      </trkpt>
      <trkpt lat="48.6027" lon="1.96342">
        <ele>133.28</ele>
        <time>2019-12-19T10:01:10Z</time>
      </trkpt>
      <trkpt lat="48.60269" lon="1.9634">
        <ele>133.76</ele>
        <time>2019-12-19T10:01:11Z</time>
      </trkpt>
      <trkpt lat="48.60268" lon="1.96339">
        <ele>133.76</ele>
        <time>2019-12-19T10:01:12Z</time>
      </trkpt>
      <trkpt lat="48.60267" lon="1.96337">
        <ele>133.28</ele>
        <time>2019-12-19T10:01:13Z</time>
      </trkpt>
      <trkpt lat="48.60265" lon="1.96335">
        <ele>133.28</ele>
        <time>2019-12-19T10:01:14Z</time>
      </trkpt>
      <trkpt lat="48.60264" lon="1.96334">
        <ele>133.76</ele>
        <time>2019-12-19T10:01:15Z</time>
      </trkpt>
      <trkpt lat="48.60263" lon="1.96332">
        <ele>134.24</ele>
        <time>2019-12-19T10:01:16Z</time>
      </trkpt>
      <trkpt lat="48.60262" lon="1.96331">
        <ele>133.76</ele>
        <time>2019-12-19T10:01:17Z</time>
      </trkpt>
      <trkpt lat="48.60262" lon="1.9633">
        <ele>133.76</ele>
        <time>2019-12-19T10:01:18Z</time>
      </trkpt>
      <trkpt lat="48.60261" lon="1.96329">
        <ele>133.76</ele>
        <time>2019-12-19T10:01:19Z</time>
      </trkpt>
      <trkpt lat="48.6026" lon="1.96327">
        <ele>133.76</ele>
        <time>2019-12-19T10:01:20Z</time>
      </trkpt>
      <trkpt lat="48.6026" lon="1.96326">
        <ele>134.24</ele>
        <time>2019-12-19T10:01:21Z</time>
      </trkpt>
      <trkpt lat="48.60259" lon="1.96325">
        <ele>134.24</ele>
        <time>2019-12-19T10:01:22Z</time>
      </trkpt>
      <trkpt lat="48.60258" lon="1.96324">
        <ele>133.76</ele>
        <time>2019-12-19T10:01:23Z</time>
      </trkpt>
      <trkpt lat="48.60258" lon="1.96323">
        <ele>134.24</ele>
        <time>2019-12-19T10:01:24Z</time>
      </trkpt>
      <trkpt lat="48.60256" lon="1.96323">
        <ele>134.24</ele>
        <time>2019-12-19T10:01:25Z</time>
      </trkpt>
      <trkpt lat="48.60255" lon="1.96323">
        <ele>134.24</ele>
        <time>2019-12-19T10:01:26Z</time>
      </trkpt>
      <trkpt lat="48.60254" lon="1.96322">
        <ele>134.24</ele>
        <time>2019-12-19T10:01:27Z</time>
      </trkpt>
      <trkpt lat="48.60254" lon="1.96321">
        <ele>133.76</ele>
        <time>2019-12-19T10:01:28Z</time>
      </trkpt>
      <trkpt lat="48.60253" lon="1.96321">
        <ele>134.24</ele>
        <time>2019-12-19T10:01:29Z</time>
      </trkpt>
      <trkpt lat="48.60253" lon="1.96321">
        <ele>134.72</ele>
        <time>2019-12-19T10:01:30Z</time>
      </trkpt>
      <trkpt lat="48.60252" lon="1.96319">
        <ele>134.24</ele>
        <time>2019-12-19T10:01:31Z</time>
      </trkpt>
      <trkpt lat="48.60251" lon="1.96319">
        <ele>134.24</ele>
        <time>2019-12-19T10:01:32Z</time>
      </trkpt>
      <trkpt lat="48.60249" lon="1.96317">
        <ele>134.24</ele>
        <time>2019-12-19T10:01:33Z</time>
      </trkpt>
      <trkpt lat="48.60247" lon="1.96315">
        <ele>134.24</ele>
        <time>2019-12-19T10:01:34Z</time>
      </trkpt>
      <trkpt lat="48.60245" lon="1.96313">
        <ele>134.24</ele>
        <time>2019-12-19T10:01:35Z</time>
      </trkpt>
      <trkpt lat="48.60243" lon="1.96312">
        <ele>134.24</ele>
        <time>2019-12-19T10:01:36Z</time>
      </trkpt>
      <trkpt lat="48.60241" lon="1.96311">
        <ele>133.76</ele>
        <time>2019-12-19T10:01:37Z</time>
      </trkpt>
      <trkpt lat="48.6024" lon="1.9631">
        <ele>134.24</ele>
        <time>2019-12-19T10:01:38Z</time>
      </trkpt>
      <trkpt lat="48.60238" lon="1.9631">
        <ele>134.72</ele>
        <time>2019-12-19T10:01:39Z</time>
      </trkpt>
      <trkpt lat="48.60237" lon="1.96308">
        <ele>135.2</ele>
        <time>2019-12-19T10:01:40Z</time>
      </trkpt>
      <trkpt lat="48.60236" lon="1.96307">
        <ele>134.72</ele>
        <time>2019-12-19T10:01:41Z</time>
      </trkpt>
      <trkpt lat="48.60235" lon="1.96306">
        <ele>134.72</ele>
        <time>2019-12-19T10:01:42Z</time>
      </trkpt>
      <trkpt lat="48.60234" lon="1.96305">
        <ele>134.72</ele>
        <time>2019-12-19T10:01:43Z</time>
      </trkpt>
      <trkpt lat="48.60233" lon="1.96305">
        <ele>134.72</ele>
        <time>2019-12-19T10:01:44Z</time>
      </trkpt>
      <trkpt lat="48.60232" lon="1.96304">
        <ele>134.24</ele>
        <time>2019-12-19T10:01:45Z</time>
      </trkpt>
      <trkpt lat="48.60231" lon="1.96303">
        <ele>134.24</ele>
        <time>2019-12-19T10:01:46Z</time>
      </trkpt>
      <trkpt lat="48.60229" lon="1.96302">
        <ele>134.24</ele>
        <time>2019-12-19T10:01:47Z</time>
      </trkpt>
      <trkpt lat="48.60228" lon="1.96301">
        <ele>134.24</ele>
        <time>2019-12-19T10:01:48Z</time>
      </trkpt>
      <trkpt lat="48.60226" lon="1.963">
        <ele>133.76</ele>
        <time>2019-12-19T10:01:49Z</time>
      </trkpt>
      <trkpt lat="48.60225" lon="1.96298">
        <ele>134.24</ele>
        <time>2019-12-19T10:01:50Z</time>
      </trkpt>
      <trkpt lat="48.60224" lon="1.96296">
        <ele>134.24</ele>
        <time>2019-12-19T10:01:51Z</time>
      </trkpt>
      <trkpt lat="48.60223" lon="1.96294">
        <ele>134.72</ele>
        <time>2019-12-19T10:01:52Z</time>
      </trkpt>
      <trkpt lat="48.60221" lon="1.96293">
        <ele>133.76</ele>
        <time>2019-12-19T10:01:53Z</time>
      </trkpt>
      <trkpt lat="48.6022" lon="1.96292">
        <ele>133.76</ele>
        <time>2019-12-19T10:01:54Z</time>
      </trkpt>
      <trkpt lat="48.60219" lon="1.9629">
        <ele>133.76</ele>
        <time>2019-12-19T10:01:55Z</time>
      </trkpt>
      <trkpt lat="48.60218" lon="1.96288">
        <ele>133.28</ele>
        <time>2019-12-19T10:01:56Z</time>
      </trkpt>
      <trkpt lat="48.60217" lon="1.96287">
        <ele>133.28</ele>
        <time>2019-12-19T10:01:57Z</time>
      </trkpt>
      <trkpt lat="48.60216" lon="1.96287">
        <ele>133.28</ele>
        <time>2019-12-19T10:01:58Z</time>
      </trkpt>
      <trkpt lat="48.60216" lon="1.96286">
        <ele>133.28</ele>
        <time>2019-12-19T10:01:59Z</time>
      </trkpt>
      <trkpt lat="48.60215" lon="1.96286">
        <ele>132.8</ele>
        <time>2019-12-19T10:02:00Z</time>
      </trkpt>
      <trkpt lat="48.60214" lon="1.96285">
        <ele>133.28</ele>
        <time>2019-12-19T10:02:01Z</time>
      </trkpt>
      <trkpt lat="48.60214" lon="1.96285">
        <ele>132.8</ele>
        <time>2019-12-19T10:02:02Z</time>
      </trkpt>
      <trkpt lat="48.60213" lon="1.96285">
        <ele>132.8</ele>
        <time>2019-12-19T10:02:03Z</time>
      </trkpt>
      <trkpt lat="48.60212" lon="1.96284">
        <ele>132.8</ele>
        <time>2019-12-19T10:02:04Z</time>
      </trkpt>
      <trkpt lat="48.60211" lon="1.96283">
        <ele>132.8</ele>
        <time>2019-12-19T10:02:05Z</time>
      </trkpt>
      <trkpt lat="48.6021" lon="1.96282">
        <ele>132.8</ele>
        <time>2019-12-19T10:02:06Z</time>
      </trkpt>
      <trkpt lat="48.6021" lon="1.96281">
        <ele>132.32</ele>
        <time>2019-12-19T10:02:07Z</time>
      </trkpt>
      <trkpt lat="48.60209" lon="1.96281">
        <ele>132.8</ele>
        <time>2019-12-19T10:02:08Z</time>
      </trkpt>
      <trkpt lat="48.60208" lon="1.9628">
        <ele>132.32</ele>
        <time>2019-12-19T10:02:09Z</time>
      </trkpt>
      <trkpt lat="48.60207" lon="1.96278">
        <ele>132.32</ele>
        <time>2019-12-19T10:02:10Z</time>
      </trkpt>
      <trkpt lat="48.60205" lon="1.96278">
        <ele>131.84</ele>
        <time>2019-12-19T10:02:11Z</time>
      </trkpt>
      <trkpt lat="48.60204" lon="1.96278">
        <ele>132.32</ele>
        <time>2019-12-19T10:02:12Z</time>
      </trkpt>
      <trkpt lat="48.60203" lon="1.96277">
        <ele>131.36</ele>
        <time>2019-12-19T10:02:13Z</time>
      </trkpt>
      <trkpt lat="48.60202" lon="1.96276">
        <ele>131.36</ele>
        <time>2019-12-19T10:02:14Z</time>
      </trkpt>
      <trkpt lat="48.60201" lon="1.96274">
        <ele>131.84</ele>
        <time>2019-12-19T10:02:15Z</time>
      </trkpt>
      <trkpt lat="48.60199" lon="1.96273">
        <ele>131.36</ele>
        <time>2019-12-19T10:02:16Z</time>
      </trkpt>
      <trkpt lat="48.60198" lon="1.96273">
        <ele>131.36</ele>
        <time>2019-12-19T10:02:17Z</time>
      </trkpt>
      <trkpt lat="48.60198" lon="1.96273">
        <ele>130.88</ele>
        <time>2019-12-19T10:02:18Z</time>
      </trkpt>
      <trkpt lat="48.60197" lon="1.96273">
        <ele>130.88</ele>
        <time>2019-12-19T10:02:19Z</time>
      </trkpt>
      <trkpt lat="48.60196" lon="1.96272">
        <ele>130.88</ele>
        <time>2019-12-19T10:02:20Z</time>
      </trkpt>
      <trkpt lat="48.60195" lon="1.96271">
        <ele>130.88</ele>
        <time>2019-12-19T10:02:21Z</time>
      </trkpt>
      <trkpt lat="48.60194" lon="1.96269">
        <ele>131.36</ele>
        <time>2019-12-19T10:02:22Z</time>
      </trkpt>
      <trkpt lat="48.60193" lon="1.96267">
        <ele>130.88</ele>
        <time>2019-12-19T10:02:23Z</time>
      </trkpt>
      <trkpt lat="48.60192" lon="1.96266">
        <ele>130.4</ele>
        <time>2019-12-19T10:02:24Z</time>
      </trkpt>
      <trkpt lat="48.60191" lon="1.96264">
        <ele>130.4</ele>
        <time>2019-12-19T10:02:25Z</time>
      </trkpt>
      <trkpt lat="48.60189" lon="1.96261">
        <ele>130.4</ele>
        <time>2019-12-19T10:02:26Z</time>
      </trkpt>
      <trkpt lat="48.60188" lon="1.96259">
        <ele>129.92</ele>
        <time>2019-12-19T10:02:27Z</time>
      </trkpt>
      <trkpt lat="48.60187" lon="1.96257">
        <ele>129.92</ele>
        <time>2019-12-19T10:02:28Z</time>
      </trkpt>
      <trkpt lat="48.60186" lon="1.96255">
        <ele>129.92</ele>
        <time>2019-12-19T10:02:29Z</time>
      </trkpt>
      <trkpt lat="48.60185" lon="1.96254">
        <ele>129.92</ele>
        <time>2019-12-19T10:02:30Z</time>
      </trkpt>
      <trkpt lat="48.60183" lon="1.96253">
        <ele>129.92</ele>
        <time>2019-12-19T10:02:31Z</time>
      </trkpt>
      <trkpt lat="48.60182" lon="1.96253">
        <ele>129.92</ele>
        <time>2019-12-19T10:02:32Z</time>
      </trkpt>
      <trkpt lat="48.60181" lon="1.96252">
        <ele>129.92</ele>
        <time>2019-12-19T10:02:33Z</time>
      </trkpt>
      <trkpt lat="48.60179" lon="1.96251">
        <ele>129.43</ele>
        <time>2019-12-19T10:02:34Z</time>
      </trkpt>
      <trkpt lat="48.60178" lon="1.9625">
        <ele>129.43</ele>
        <time>2019-12-19T10:02:35Z</time>
      </trkpt>
      <trkpt lat="48.60176" lon="1.96248">
        <ele>128.95</ele>
        <time>2019-12-19T10:02:36Z</time>
      </trkpt>
      <trkpt lat="48.60175" lon="1.96247">
        <ele>129.43</ele>
        <time>2019-12-19T10:02:37Z</time>
      </trkpt>
      <trkpt lat="48.60174" lon="1.96246">
        <ele>129.43</ele>
        <time>2019-12-19T10:02:38Z</time>
      </trkpt>
      <trkpt lat="48.60174" lon="1.96246">
        <ele>128.95</ele>
        <time>2019-12-19T10:02:39Z</time>
      </trkpt>
      <trkpt lat="48.60173" lon="1.96246">
        <ele>128.95</ele>
        <time>2019-12-19T10:02:40Z</time>
      </trkpt>
      <trkpt lat="48.60173" lon="1.96246">
        <ele>128.47</ele>
        <time>2019-12-19T10:02:41Z</time>
      </trkpt>
      <trkpt lat="48.60172" lon="1.96245">
        <ele>128.47</ele>
        <time>2019-12-19T10:02:42Z</time>
      </trkpt>
      <trkpt lat="48.60172" lon="1.96244">
        <ele>127.51</ele>
        <time>2019-12-19T10:02:43Z</time>
      </trkpt>
      <trkpt lat="48.60171" lon="1.96244">
        <ele>127.51</ele>
        <time>2019-12-19T10:02:44Z</time>
      </trkpt>
      <trkpt lat="48.6017" lon="1.96243">
        <ele>127.99</ele>
        <time>2019-12-19T10:02:45Z</time>
      </trkpt>
      <trkpt lat="48.60169" lon="1.96243">
        <ele>127.51</ele>
        <time>2019-12-19T10:02:46Z</time>
      </trkpt>
      <trkpt lat="48.60169" lon="1.96243">
        <ele>127.51</ele>
        <time>2019-12-19T10:02:47Z</time>
      </trkpt>
      <trkpt lat="48.60168" lon="1.96242">
        <ele>127.51</ele>
        <time>2019-12-19T10:02:48Z</time>
      </trkpt>
      <trkpt lat="48.60166" lon="1.96241">
        <ele>127.03</ele>
        <time>2019-12-19T10:02:49Z</time>
      </trkpt>
      <trkpt lat="48.60166" lon="1.9624">
        <ele>126.55</ele>
        <time>2019-12-19T10:02:50Z</time>
      </trkpt>
      <trkpt lat="48.60165" lon="1.9624">
        <ele>126.55</ele>
        <time>2019-12-19T10:02:51Z</time>
      </trkpt>
      <trkpt lat="48.60165" lon="1.9624">
        <ele>126.07</ele>
        <time>2019-12-19T10:02:52Z</time>
      </trkpt>
      <trkpt lat="48.60164" lon="1.96238">
        <ele>126.07</ele>
        <time>2019-12-19T10:02:53Z</time>
      </trkpt>
      <trkpt lat="48.60163" lon="1.96237">
        <ele>125.59</ele>
        <time>2019-12-19T10:02:54Z</time>
      </trkpt>
      <trkpt lat="48.60163" lon="1.96237">
        <ele>125.11</ele>
        <time>2019-12-19T10:02:55Z</time>
      </trkpt>
      <trkpt lat="48.60162" lon="1.96235">
        <ele>125.11</ele>
        <time>2019-12-19T10:02:56Z</time>
      </trkpt>
      <trkpt lat="48.60162" lon="1.96235">
        <ele>125.11</ele>
        <time>2019-12-19T10:02:57Z</time>
      </trkpt>
      <trkpt lat="48.60161" lon="1.96233">
        <ele>124.63</ele>
        <time>2019-12-19T10:02:58Z</time>
      </trkpt>
      <trkpt lat="48.6016" lon="1.96232">
        <ele>124.15</ele>
        <time>2019-12-19T10:02:59Z</time>
      </trkpt>
      <trkpt lat="48.60159" lon="1.96231">
        <ele>124.15</ele>
        <time>2019-12-19T10:03:00Z</time>
      </trkpt>
      <trkpt lat="48.60159" lon="1.96231">
        <ele>124.15</ele>
        <time>2019-12-19T10:03:01Z</time>
      </trkpt>
      <trkpt lat="48.60158" lon="1.9623">
        <ele>124.15</ele>
        <time>2019-12-19T10:03:02Z</time>
      </trkpt>
      <trkpt lat="48.60158" lon="1.9623">
        <ele>124.15</ele>
        <time>2019-12-19T10:03:03Z</time>
      </trkpt>
      <trkpt lat="48.60157" lon="1.9623">
        <ele>123.67</ele>
        <time>2019-12-19T10:03:04Z</time>
      </trkpt>
      <trkpt lat="48.60156" lon="1.96231">
        <ele>122.71</ele>
        <time>2019-12-19T10:03:05Z</time>
      </trkpt>
      <trkpt lat="48.60155" lon="1.96231">
        <ele>124.15</ele>
        <time>2019-12-19T10:03:06Z</time>
      </trkpt>
      <trkpt lat="48.60155" lon="1.96232">
        <ele>124.15</ele>
        <time>2019-12-19T10:03:07Z</time>
      </trkpt>
      <trkpt lat="48.60155" lon="1.96233">
        <ele>123.67</ele>
        <time>2019-12-19T10:03:08Z</time>
      </trkpt>
      <trkpt lat="48.60154" lon="1.96234">
        <ele>123.67</ele>
        <time>2019-12-19T10:03:09Z</time>
      </trkpt>
      <trkpt lat="48.60154" lon="1.96235">
        <ele>123.67</ele>
        <time>2019-12-19T10:03:10Z</time>
      </trkpt>
      <trkpt lat="48.60155" lon="1.96237">
        <ele>124.15</ele>
        <time>2019-12-19T10:03:11Z</time>
      </trkpt>
      <trkpt lat="48.60155" lon="1.96238">
        <ele>123.67</ele>
        <time>2019-12-19T10:03:12Z</time>
      </trkpt>
      <trkpt lat="48.60156" lon="1.96239">
        <ele>123.67</ele>
        <time>2019-12-19T10:03:13Z</time>
      </trkpt>
      <trkpt lat="48.60156" lon="1.96241">
        <ele>124.63</ele>
        <time>2019-12-19T10:03:14Z</time>
      </trkpt>
      <trkpt lat="48.60157" lon="1.96242">
        <ele>125.11</ele>
        <time>2019-12-19T10:03:15Z</time>
      </trkpt>
      <trkpt lat="48.60157" lon="1.96244">
        <ele>125.59</ele>
        <time>2019-12-19T10:03:16Z</time>
      </trkpt>
      <trkpt lat="48.60157" lon="1.96245">
        <ele>124.63</ele>
        <time>2019-12-19T10:03:17Z</time>
      </trkpt>
      <trkpt lat="48.60158" lon="1.96246">
        <ele>125.59</ele>
        <time>2019-12-19T10:03:18Z</time>
      </trkpt>
      <trkpt lat="48.60158" lon="1.96247">
        <ele>125.11</ele>
        <time>2019-12-19T10:03:19Z</time>
      </trkpt>
      <trkpt lat="48.60159" lon="1.96248">
        <ele>125.11</ele>
        <time>2019-12-19T10:03:20Z</time>
      </trkpt>
      <trkpt lat="48.6016" lon="1.96248">
        <ele>125.59</ele>
        <time>2019-12-19T10:03:21Z</time>
      </trkpt>
      <trkpt lat="48.6016" lon="1.9625">
        <ele>126.55</ele>
        <time>2019-12-19T10:03:22Z</time>
      </trkpt>
      <trkpt lat="48.60161" lon="1.96251">
        <ele>125.59</ele>
        <time>2019-12-19T10:03:23Z</time>
      </trkpt>
      <trkpt lat="48.60162" lon="1.96253">
        <ele>126.07</ele>
        <time>2019-12-19T10:03:24Z</time>
      </trkpt>
      <trkpt lat="48.60163" lon="1.96254">
        <ele>126.07</ele>
        <time>2019-12-19T10:03:25Z</time>
      </trkpt>
      <trkpt lat="48.60164" lon="1.96256">
        <ele>125.59</ele>
        <time>2019-12-19T10:03:26Z</time>
      </trkpt>
      <trkpt lat="48.60165" lon="1.96258">
        <ele>125.59</ele>
        <time>2019-12-19T10:03:27Z</time>
      </trkpt>
      <trkpt lat="48.60166" lon="1.9626">
        <ele>127.03</ele>
        <time>2019-12-19T10:03:28Z</time>
      </trkpt>
      <trkpt lat="48.60167" lon="1.96261">
        <ele>127.03</ele>
        <time>2019-12-19T10:03:29Z</time>
      </trkpt>
      <trkpt lat="48.60168" lon="1.96262">
        <ele>126.55</ele>
        <time>2019-12-19T10:03:30Z</time>
      </trkpt>
      <trkpt lat="48.60169" lon="1.96263">
        <ele>126.55</ele>
        <time>2019-12-19T10:03:31Z</time>
      </trkpt>
      <trkpt lat="48.6017" lon="1.96265">
        <ele>126.55</ele>
        <time>2019-12-19T10:03:32Z</time>
      </trkpt>
      <trkpt lat="48.60171" lon="1.96267">
        <ele>127.03</ele>
        <time>2019-12-19T10:03:33Z</time>
      </trkpt>
      <trkpt lat="48.60172" lon="1.96269">
        <ele>127.99</ele>
        <time>2019-12-19T10:03:34Z</time>
      </trkpt>
      <trkpt lat="48.60173" lon="1.96271">
        <ele>127.51</ele>
        <time>2019-12-19T10:03:35Z</time>
      </trkpt>
      <trkpt lat="48.60174" lon="1.96271">
        <ele>127.51</ele>
        <time>2019-12-19T10:03:36Z</time>
      </trkpt>
      <trkpt lat="48.60174" lon="1.96272">
        <ele>127.51</ele>
        <time>2019-12-19T10:03:37Z</time>
      </trkpt>
      <trkpt lat="48.60175" lon="1.96272">
        <ele>127.51</ele>
        <time>2019-12-19T10:03:38Z</time>
      </trkpt>
      <trkpt lat="48.60176" lon="1.96273">
        <ele>128.95</ele>
        <time>2019-12-19T10:03:39Z</time>
      </trkpt>
      <trkpt lat="48.60177" lon="1.96274">
        <ele>129.43</ele>
        <time>2019-12-19T10:03:40Z</time>
      </trkpt>
      <trkpt lat="48.60178" lon="1.96275">
        <ele>128.47</ele>
        <time>2019-12-19T10:03:41Z</time>
      </trkpt>
      <trkpt lat="48.60179" lon="1.96276">
        <ele>128.47</ele>
        <time>2019-12-19T10:03:42Z</time>
      </trkpt>
      <trkpt lat="48.6018" lon="1.96277">
        <ele>128.47</ele>
        <time>2019-12-19T10:03:43Z</time>
      </trkpt>
      <trkpt lat="48.60181" lon="1.96278">
        <ele>128.47</ele>
        <time>2019-12-19T10:03:44Z</time>
      </trkpt>
      <trkpt lat="48.60182" lon="1.96279">
        <ele>127.99</ele>
        <time>2019-12-19T10:03:45Z</time>
      </trkpt>
      <trkpt lat="48.60183" lon="1.96281">
        <ele>129.43</ele>
        <time>2019-12-19T10:03:46Z</time>
      </trkpt>
      <trkpt lat="48.60183" lon="1.96282">
        <ele>129.43</ele>
        <time>2019-12-19T10:03:47Z</time>
      </trkpt>
      <trkpt lat="48.60184" lon="1.96284">
        <ele>128.47</ele>
        <time>2019-12-19T10:03:48Z</time>
      </trkpt>
      <trkpt lat="48.60184" lon="1.96285">
        <ele>128.95</ele>
        <time>2019-12-19T10:03:49Z</time>
      </trkpt>
      <trkpt lat="48.60184" lon="1.96286">
        <ele>128.95</ele>
        <time>2019-12-19T10:03:50Z</time>
      </trkpt>
      <trkpt lat="48.60185" lon="1.96288">
        <ele>128.47</ele>
        <time>2019-12-19T10:03:51Z</time>
      </trkpt>
      <trkpt lat="48.60186" lon="1.96288">
        <ele>129.43</ele>
        <time>2019-12-19T10:03:52Z</time>
      </trkpt>
      <trkpt lat="48.60186" lon="1.9629">
        <ele>129.92</ele>
        <time>2019-12-19T10:03:53Z</time>
      </trkpt>
      <trkpt lat="48.60186" lon="1.96293">
        <ele>129.92</ele>
        <time>2019-12-19T10:03:54Z</time>
      </trkpt>
      <trkpt lat="48.60186" lon="1.96295">
        <ele>129.43</ele>
        <time>2019-12-19T10:03:55Z</time>
      </trkpt>
      <trkpt lat="48.60186" lon="1.96297">
        <ele>129.43</ele>
        <time>2019-12-19T10:03:56Z</time>
      </trkpt>
      <trkpt lat="48.60186" lon="1.96299">
        <ele>129.43</ele>
        <time>2019-12-19T10:03:57Z</time>
      </trkpt>
      <trkpt lat="48.60186" lon="1.96301">
        <ele>128.95</ele>
        <time>2019-12-19T10:03:58Z</time>
      </trkpt>
      <trkpt lat="48.60187" lon="1.96303">
        <ele>130.4</ele>
        <time>2019-12-19T10:03:59Z</time>
      </trkpt>
      <trkpt lat="48.60187" lon="1.96306">
        <ele>129.92</ele>
        <time>2019-12-19T10:04:00Z</time>
      </trkpt>
      <trkpt lat="48.60188" lon="1.96307">
        <ele>130.4</ele>
        <time>2019-12-19T10:04:01Z</time>
      </trkpt>
      <trkpt lat="48.60189" lon="1.96309">
        <ele>130.4</ele>
        <time>2019-12-19T10:04:02Z</time>
      </trkpt>
      <trkpt lat="48.60189" lon="1.9631">
        <ele>129.92</ele>
        <time>2019-12-19T10:04:03Z</time>
      </trkpt>
      <trkpt lat="48.60189" lon="1.96312">
        <ele>130.88</ele>
        <time>2019-12-19T10:04:04Z</time>
      </trkpt>
      <trkpt lat="48.60189" lon="1.96314">
        <ele>131.36</ele>
        <time>2019-12-19T10:04:05Z</time>
      </trkpt>
      <trkpt lat="48.60189" lon="1.96316">
        <ele>130.88</ele>
        <time>2019-12-19T10:04:06Z</time>
      </trkpt>
      <trkpt lat="48.60188" lon="1.96318">
        <ele>130.88</ele>
        <time>2019-12-19T10:04:07Z</time>
      </trkpt>
      <trkpt lat="48.60188" lon="1.9632">
        <ele>130.88</ele>
        <time>2019-12-19T10:04:08Z</time>
      </trkpt>
      <trkpt lat="48.60188" lon="1.96323">
        <ele>131.36</ele>
        <time>2019-12-19T10:04:09Z</time>
      </trkpt>
      <trkpt lat="48.60187" lon="1.96326">
        <ele>130.88</ele>
        <time>2019-12-19T10:04:10Z</time>
      </trkpt>
      <trkpt lat="48.60187" lon="1.96327">
        <ele>130.88</ele>
        <time>2019-12-19T10:04:11Z</time>
      </trkpt>
      <trkpt lat="48.60188" lon="1.9633">
        <ele>131.36</ele>
        <time>2019-12-19T10:04:12Z</time>
      </trkpt>
      <trkpt lat="48.60189" lon="1.96332">
        <ele>132.32</ele>
        <time>2019-12-19T10:04:13Z</time>
      </trkpt>
      <trkpt lat="48.60189" lon="1.96334">
        <ele>131.84</ele>
        <time>2019-12-19T10:04:14Z</time>
      </trkpt>
      <trkpt lat="48.6019" lon="1.96336">
        <ele>130.88</ele>
        <time>2019-12-19T10:04:15Z</time>
      </trkpt>
      <trkpt lat="48.6019" lon="1.96338">
        <ele>131.84</ele>
        <time>2019-12-19T10:04:16Z</time>
      </trkpt>
      <trkpt lat="48.6019" lon="1.9634">
        <ele>131.84</ele>
        <time>2019-12-19T10:04:17Z</time>
      </trkpt>
      <trkpt lat="48.60191" lon="1.96341">
        <ele>131.84</ele>
        <time>2019-12-19T10:04:18Z</time>
      </trkpt>
      <trkpt lat="48.60191" lon="1.96344">
        <ele>131.84</ele>
        <time>2019-12-19T10:04:19Z</time>
      </trkpt>
      <trkpt lat="48.60191" lon="1.96345">
        <ele>131.84</ele>
        <time>2019-12-19T10:04:20Z</time>
      </trkpt>
      <trkpt lat="48.60192" lon="1.96347">
        <ele>131.36</ele>
        <time>2019-12-19T10:04:21Z</time>
      </trkpt>
      <trkpt lat="48.60193" lon="1.96349">
        <ele>131.36</ele>
        <time>2019-12-19T10:04:22Z</time>
      </trkpt>
      <trkpt lat="48.60194" lon="1.9635">
        <ele>132.32</ele>
        <time>2019-12-19T10:04:23Z</time>
      </trkpt>
      <trkpt lat="48.60195" lon="1.96352">
        <ele>132.32</ele>
        <time>2019-12-19T10:04:24Z</time>
      </trkpt>
      <trkpt lat="48.60195" lon="1.96354">
        <ele>132.32</ele>
        <time>2019-12-19T10:04:25Z</time>
      </trkpt>
      <trkpt lat="48.60196" lon="1.96356">
        <ele>132.32</ele>
        <time>2019-12-19T10:04:26Z</time>
      </trkpt>
      <trkpt lat="48.60197" lon="1.96356">
        <ele>132.8</ele>
        <time>2019-12-19T10:04:27Z</time>
      </trkpt>
      <trkpt lat="48.60198" lon="1.96358">
        <ele>132.32</ele>
        <time>2019-12-19T10:04:28Z</time>
      </trkpt>
      <trkpt lat="48.60198" lon="1.9636">
        <ele>132.32</ele>
        <time>2019-12-19T10:04:29Z</time>
      </trkpt>
      <trkpt lat="48.60199" lon="1.96362">
        <ele>132.32</ele>
        <time>2019-12-19T10:04:30Z</time>
      </trkpt>
      <trkpt lat="48.602" lon="1.96363">
        <ele>132.32</ele>
        <time>2019-12-19T10:04:31Z</time>
      </trkpt>
      <trkpt lat="48.602" lon="1.96368">
        <ele>132.8</ele>
        <time>2019-12-19T10:04:32Z</time>
      </trkpt>
      <trkpt lat="48.602" lon="1.9637">
        <ele>132.8</ele>
        <time>2019-12-19T10:04:33Z</time>
      </trkpt>
      <trkpt lat="48.602" lon="1.9637">
        <ele>132.32</ele>
        <time>2019-12-19T10:04:34Z</time>
      </trkpt>
      <trkpt lat="48.602" lon="1.96375">
        <ele>131.84</ele>
        <time>2019-12-19T10:04:35Z</time>
      </trkpt>
      <trkpt lat="48.602" lon="1.96378">
        <ele>131.84</ele>
        <time>2019-12-19T10:04:36Z</time>
      </trkpt>
      <trkpt lat="48.602" lon="1.96381">
        <ele>132.32</ele>
        <time>2019-12-19T10:04:37Z</time>
      </trkpt>
      <trkpt lat="48.602" lon="1.96383">
        <ele>131.84</ele>
        <time>2019-12-19T10:04:38Z</time>
      </trkpt>
      <trkpt lat="48.60201" lon="1.96386">
        <ele>132.32</ele>
        <time>2019-12-19T10:04:39Z</time>
      </trkpt>
      <trkpt lat="48.60201" lon="1.96387">
        <ele>131.84</ele>
        <time>2019-12-19T10:04:40Z</time>
      </trkpt>
      <trkpt lat="48.60202" lon="1.96389">
        <ele>131.84</ele>
        <time>2019-12-19T10:04:41Z</time>
      </trkpt>
      <trkpt lat="48.60202" lon="1.96391">
        <ele>131.84</ele>
        <time>2019-12-19T10:04:42Z</time>
      </trkpt>
      <trkpt lat="48.60202" lon="1.96392">
        <ele>131.84</ele>
        <time>2019-12-19T10:04:43Z</time>
      </trkpt>
      <trkpt lat="48.60203" lon="1.96393">
        <ele>131.84</ele>
        <time>2019-12-19T10:04:44Z</time>
      </trkpt>
      <trkpt lat="48.60203" lon="1.96394">
        <ele>131.84</ele>
        <time>2019-12-19T10:04:45Z</time>
      </trkpt>
      <trkpt lat="48.60202" lon="1.96397">
        <ele>131.36</ele>
        <time>2019-12-19T10:04:46Z</time>
      </trkpt>
      <trkpt lat="48.60202" lon="1.96399">
        <ele>131.36</ele>
        <time>2019-12-19T10:04:47Z</time>
      </trkpt>
      <trkpt lat="48.60203" lon="1.96401">
        <ele>131.36</ele>
        <time>2019-12-19T10:04:48Z</time>
      </trkpt>
      <trkpt lat="48.60203" lon="1.96403">
        <ele>131.36</ele>
        <time>2019-12-19T10:04:49Z</time>
      </trkpt>
      <trkpt lat="48.60203" lon="1.96405">
        <ele>130.88</ele>
        <time>2019-12-19T10:04:50Z</time>
      </trkpt>
      <trkpt lat="48.60203" lon="1.96408">
        <ele>130.88</ele>
        <time>2019-12-19T10:04:51Z</time>
      </trkpt>
      <trkpt lat="48.60203" lon="1.9641">
        <ele>131.36</ele>
        <time>2019-12-19T10:04:52Z</time>
      </trkpt>
      <trkpt lat="48.60203" lon="1.96413">
        <ele>131.84</ele>
        <time>2019-12-19T10:04:53Z</time>
      </trkpt>
      <trkpt lat="48.60203" lon="1.96415">
        <ele>131.84</ele>
        <time>2019-12-19T10:04:54Z</time>
      </trkpt>
      <trkpt lat="48.60203" lon="1.96417">
        <ele>131.36</ele>
        <time>2019-12-19T10:04:55Z</time>
      </trkpt>
      <trkpt lat="48.60204" lon="1.96418">
        <ele>131.36</ele>
        <time>2019-12-19T10:04:56Z</time>
      </trkpt>
      <trkpt lat="48.60204" lon="1.96419">
        <ele>131.36</ele>
        <time>2019-12-19T10:04:57Z</time>
      </trkpt>
      <trkpt lat="48.60205" lon="1.9642">
        <ele>131.36</ele>
        <time>2019-12-19T10:04:58Z</time>
      </trkpt>
      <trkpt lat="48.60205" lon="1.96421">
        <ele>131.36</ele>
        <time>2019-12-19T10:04:59Z</time>
      </trkpt>
      <trkpt lat="48.60205" lon="1.96421">
        <ele>130.88</ele>
        <time>2019-12-19T10:05:00Z</time>
      </trkpt>
      <trkpt lat="48.60205" lon="1.96421">
        <ele>130.88</ele>
        <time>2019-12-19T10:05:01Z</time>
      </trkpt>
      <trkpt lat="48.60205" lon="1.96422">
        <ele>130.4</ele>
        <time>2019-12-19T10:05:02Z</time>
      </trkpt>
      <trkpt lat="48.60205" lon="1.96422">
        <ele>130.4</ele>
        <time>2019-12-19T10:05:03Z</time>
      </trkpt>
      <trkpt lat="48.60206" lon="1.96423">
        <ele>130.88</ele>
        <time>2019-12-19T10:05:04Z</time>
      </trkpt>
      <trkpt lat="48.60207" lon="1.96424">
        <ele>130.88</ele>
        <time>2019-12-19T10:05:05Z</time>
      </trkpt>
      <trkpt lat="48.60207" lon="1.96425">
        <ele>130.88</ele>
        <time>2019-12-19T10:05:06Z</time>
      </trkpt>
      <trkpt lat="48.60208" lon="1.96426">
        <ele>130.4</ele>
        <time>2019-12-19T10:05:07Z</time>
      </trkpt>
      <trkpt lat="48.60209" lon="1.96427">
        <ele>130.4</ele>
        <time>2019-12-19T10:05:08Z</time>
      </trkpt>
      <trkpt lat="48.60209" lon="1.96429">
        <ele>130.4</ele>
        <time>2019-12-19T10:05:09Z</time>
      </trkpt>
      <trkpt lat="48.60209" lon="1.9643">
        <ele>130.4</ele>
        <time>2019-12-19T10:05:10Z</time>
      </trkpt>
      <trkpt lat="48.6021" lon="1.96432">
        <ele>130.4</ele>
        <time>2019-12-19T10:05:11Z</time>
      </trkpt>
      <trkpt lat="48.6021" lon="1.96434">
        <ele>129.92</ele>
        <time>2019-12-19T10:05:12Z</time>
      </trkpt>
      <trkpt lat="48.6021" lon="1.96436">
        <ele>129.92</ele>
        <time>2019-12-19T10:05:13Z</time>
      </trkpt>
      <trkpt lat="48.60211" lon="1.96438">
        <ele>129.43</ele>
        <time>2019-12-19T10:05:14Z</time>
      </trkpt>
      <trkpt lat="48.60211" lon="1.9644">
        <ele>129.92</ele>
        <time>2019-12-19T10:05:15Z</time>
      </trkpt>
      <trkpt lat="48.60211" lon="1.96443">
        <ele>129.43</ele>
        <time>2019-12-19T10:05:16Z</time>
      </trkpt>
      <trkpt lat="48.60211" lon="1.96445">
        <ele>129.92</ele>
        <time>2019-12-19T10:05:17Z</time>
      </trkpt>
      <trkpt lat="48.60211" lon="1.96448">
        <ele>130.4</ele>
        <time>2019-12-19T10:05:18Z</time>
      </trkpt>
      <trkpt lat="48.60211" lon="1.96451">
        <ele>130.4</ele>
        <time>2019-12-19T10:05:19Z</time>
      </trkpt>
      <trkpt lat="48.60211" lon="1.96453">
        <ele>129.92</ele>
        <time>2019-12-19T10:05:20Z</time>
      </trkpt>
      <trkpt lat="48.60212" lon="1.96456">
        <ele>129.92</ele>
        <time>2019-12-19T10:05:21Z</time>
      </trkpt>
      <trkpt lat="48.60212" lon="1.96459">
        <ele>129.92</ele>
        <time>2019-12-19T10:05:22Z</time>
      </trkpt>
      <trkpt lat="48.60212" lon="1.9646">
        <ele>129.43</ele>
        <time>2019-12-19T10:05:23Z</time>
      </trkpt>
      <trkpt lat="48.60213" lon="1.96462">
        <ele>129.92</ele>
        <time>2019-12-19T10:05:24Z</time>
      </trkpt>
      <trkpt lat="48.60213" lon="1.96463">
        <ele>129.43</ele>
        <time>2019-12-19T10:05:25Z</time>
      </trkpt>
      <trkpt lat="48.60213" lon="1.96465">
        <ele>128.95</ele>
        <time>2019-12-19T10:05:26Z</time>
      </trkpt>
      <trkpt lat="48.60214" lon="1.96467">
        <ele>129.43</ele>
        <time>2019-12-19T10:05:27Z</time>
      </trkpt>
      <trkpt lat="48.60214" lon="1.96469">
        <ele>128.95</ele>
        <time>2019-12-19T10:05:28Z</time>
      </trkpt>
      <trkpt lat="48.60215" lon="1.96472">
        <ele>128.95</ele>
        <time>2019-12-19T10:05:29Z</time>
      </trkpt>
      <trkpt lat="48.60215" lon="1.96475">
        <ele>128.47</ele>
        <time>2019-12-19T10:05:30Z</time>
      </trkpt>
      <trkpt lat="48.60215" lon="1.96478">
        <ele>128.47</ele>
        <time>2019-12-19T10:05:31Z</time>
      </trkpt>
      <trkpt lat="48.60215" lon="1.9648">
        <ele>128.47</ele>
        <time>2019-12-19T10:05:32Z</time>
      </trkpt>
      <trkpt lat="48.60215" lon="1.96483">
        <ele>128.95</ele>
        <time>2019-12-19T10:05:33Z</time>
      </trkpt>
      <trkpt lat="48.60215" lon="1.96486">
        <ele>128.95</ele>
        <time>2019-12-19T10:05:34Z</time>
      </trkpt>
      <trkpt lat="48.60215" lon="1.96488">
        <ele>128.47</ele>
        <time>2019-12-19T10:05:35Z</time>
      </trkpt>
      <trkpt lat="48.60215" lon="1.9649">
        <ele>128.47</ele>
        <time>2019-12-19T10:05:36Z</time>
      </trkpt>
      <trkpt lat="48.60216" lon="1.96491">
        <ele>128.47</ele>
        <time>2019-12-19T10:05:37Z</time>
      </trkpt>
      <trkpt lat="48.60216" lon="1.96493">
        <ele>127.99</ele>
        <time>2019-12-19T10:05:38Z</time>
      </trkpt>
      <trkpt lat="48.60216" lon="1.96495">
        <ele>127.99</ele>
        <time>2019-12-19T10:05:39Z</time>
      </trkpt>
      <trkpt lat="48.60216" lon="1.96497">
        <ele>127.99</ele>
        <time>2019-12-19T10:05:40Z</time>
      </trkpt>
      <trkpt lat="48.60217" lon="1.96499">
        <ele>128.95</ele>
        <time>2019-12-19T10:05:41Z</time>
      </trkpt>
      <trkpt lat="48.60218" lon="1.96501">
        <ele>127.99</ele>
        <time>2019-12-19T10:05:42Z</time>
      </trkpt>
      <trkpt lat="48.60218" lon="1.96502">
        <ele>127.99</ele>
        <time>2019-12-19T10:05:43Z</time>
      </trkpt>
      <trkpt lat="48.60218" lon="1.96504">
        <ele>127.51</ele>
        <time>2019-12-19T10:05:44Z</time>
      </trkpt>
      <trkpt lat="48.60218" lon="1.96505">
        <ele>127.51</ele>
        <time>2019-12-19T10:05:45Z</time>
      </trkpt>
      <trkpt lat="48.60218" lon="1.96507">
        <ele>127.03</ele>
        <time>2019-12-19T10:05:46Z</time>
      </trkpt>
      <trkpt lat="48.60218" lon="1.96509">
        <ele>127.03</ele>
        <time>2019-12-19T10:05:47Z</time>
      </trkpt>
      <trkpt lat="48.60218" lon="1.96511">
        <ele>127.51</ele>
        <time>2019-12-19T10:05:48Z</time>
      </trkpt>
      <trkpt lat="48.60218" lon="1.96513">
        <ele>127.51</ele>
        <time>2019-12-19T10:05:49Z</time>
      </trkpt>
      <trkpt lat="48.60218" lon="1.96514">
        <ele>127.51</ele>
        <time>2019-12-19T10:05:50Z</time>
      </trkpt>
      <trkpt lat="48.60218" lon="1.96516">
        <ele>127.51</ele>
        <time>2019-12-19T10:05:51Z</time>
      </trkpt>
      <trkpt lat="48.60218" lon="1.96518">
        <ele>127.51</ele>
        <time>2019-12-19T10:05:52Z</time>
      </trkpt>
      <trkpt lat="48.60219" lon="1.96519">
        <ele>127.51</ele>
        <time>2019-12-19T10:05:53Z</time>
      </trkpt>
      <trkpt lat="48.6022" lon="1.96521">
        <ele>127.03</ele>
        <time>2019-12-19T10:05:54Z</time>
      </trkpt>
      <trkpt lat="48.6022" lon="1.96522">
        <ele>127.03</ele>
        <time>2019-12-19T10:05:55Z</time>
      </trkpt>
      <trkpt lat="48.6022" lon="1.96524">
        <ele>127.03</ele>
        <time>2019-12-19T10:05:56Z</time>
      </trkpt>
      <trkpt lat="48.6022" lon="1.96525">
        <ele>126.55</ele>
        <time>2019-12-19T10:05:57Z</time>
      </trkpt>
      <trkpt lat="48.6022" lon="1.96526">
        <ele>126.55</ele>
        <time>2019-12-19T10:05:58Z</time>
      </trkpt>
      <trkpt lat="48.60221" lon="1.96528">
        <ele>126.07</ele>
        <time>2019-12-19T10:05:59Z</time>
      </trkpt>
      <trkpt lat="48.60221" lon="1.96531">
        <ele>126.55</ele>
        <time>2019-12-19T10:06:00Z</time>
      </trkpt>
      <trkpt lat="48.60221" lon="1.96534">
        <ele>126.07</ele>
        <time>2019-12-19T10:06:01Z</time>
      </trkpt>
      <trkpt lat="48.60221" lon="1.96535">
        <ele>126.55</ele>
        <time>2019-12-19T10:06:02Z</time>
      </trkpt>
      <trkpt lat="48.60221" lon="1.96537">
        <ele>126.55</ele>
        <time>2019-12-19T10:06:03Z</time>
      </trkpt>
      <trkpt lat="48.6022" lon="1.96539">
        <ele>126.55</ele>
        <time>2019-12-19T10:06:04Z</time>
      </trkpt>
      <trkpt lat="48.6022" lon="1.9654">
        <ele>126.07</ele>
        <time>2019-12-19T10:06:05Z</time>
      </trkpt>
      <trkpt lat="48.60219" lon="1.96542">
        <ele>126.07</ele>
        <time>2019-12-19T10:06:06Z</time>
      </trkpt>
      <trkpt lat="48.60218" lon="1.96545">
        <ele>126.07</ele>
        <time>2019-12-19T10:06:07Z</time>
      </trkpt>
      <trkpt lat="48.60218" lon="1.96549">
        <ele>126.07</ele>
        <time>2019-12-19T10:06:08Z</time>
      </trkpt>
      <trkpt lat="48.60218" lon="1.96553">
        <ele>125.59</ele>
        <time>2019-12-19T10:06:09Z</time>
      </trkpt>
      <trkpt lat="48.60219" lon="1.96557">
        <ele>125.59</ele>
        <time>2019-12-19T10:06:10Z</time>
      </trkpt>
      <trkpt lat="48.60219" lon="1.9656">
        <ele>125.59</ele>
        <time>2019-12-19T10:06:11Z</time>
      </trkpt>
      <trkpt lat="48.60219" lon="1.96563">
        <ele>126.07</ele>
        <time>2019-12-19T10:06:12Z</time>
      </trkpt>
      <trkpt lat="48.60219" lon="1.96565">
        <ele>126.07</ele>
        <time>2019-12-19T10:06:13Z</time>
      </trkpt>
      <trkpt lat="48.60218" lon="1.96567">
        <ele>126.07</ele>
        <time>2019-12-19T10:06:14Z</time>
      </trkpt>
      <trkpt lat="48.60218" lon="1.96569">
        <ele>125.59</ele>
        <time>2019-12-19T10:06:15Z</time>
      </trkpt>
      <trkpt lat="48.60218" lon="1.96574">
        <ele>125.59</ele>
        <time>2019-12-19T10:06:16Z</time>
      </trkpt>
      <trkpt lat="48.60217" lon="1.96576">
        <ele>125.59</ele>
        <time>2019-12-19T10:06:17Z</time>
      </trkpt>
      <trkpt lat="48.60217" lon="1.9658">
        <ele>125.11</ele>
        <time>2019-12-19T10:06:18Z</time>
      </trkpt>
      <trkpt lat="48.60216" lon="1.96588">
        <ele>125.11</ele>
        <time>2019-12-19T10:06:19Z</time>
      </trkpt>
      <trkpt lat="48.60215" lon="1.96591">
        <ele>125.11</ele>
        <time>2019-12-19T10:06:20Z</time>
      </trkpt>
      <trkpt lat="48.60214" lon="1.96596">
        <ele>125.11</ele>
        <time>2019-12-19T10:06:21Z</time>
      </trkpt>
      <trkpt lat="48.60214" lon="1.96598">
        <ele>125.11</ele>
        <time>2019-12-19T10:06:22Z</time>
      </trkpt>
      <trkpt lat="48.60213" lon="1.96601">
        <ele>124.63</ele>
        <time>2019-12-19T10:06:23Z</time>
      </trkpt>
      <trkpt lat="48.60213" lon="1.96604">
        <ele>125.11</ele>
        <time>2019-12-19T10:06:24Z</time>
      </trkpt>
      <trkpt lat="48.60212" lon="1.96607">
        <ele>124.15</ele>
        <time>2019-12-19T10:06:25Z</time>
      </trkpt>
      <trkpt lat="48.60212" lon="1.9661">
        <ele>125.11</ele>
        <time>2019-12-19T10:06:26Z</time>
      </trkpt>
      <trkpt lat="48.60211" lon="1.96613">
        <ele>125.11</ele>
        <time>2019-12-19T10:06:27Z</time>
      </trkpt>
      <trkpt lat="48.6021" lon="1.96615">
        <ele>124.63</ele>
        <time>2019-12-19T10:06:28Z</time>
      </trkpt>
      <trkpt lat="48.60209" lon="1.96618">
        <ele>124.63</ele>
        <time>2019-12-19T10:06:29Z</time>
      </trkpt>
      <trkpt lat="48.60208" lon="1.9662">
        <ele>124.63</ele>
        <time>2019-12-19T10:06:30Z</time>
      </trkpt>
      <trkpt lat="48.60208" lon="1.96623">
        <ele>124.63</ele>
        <time>2019-12-19T10:06:31Z</time>
      </trkpt>
      <trkpt lat="48.60208" lon="1.96626">
        <ele>124.63</ele>
        <time>2019-12-19T10:06:32Z</time>
      </trkpt>
      <trkpt lat="48.60208" lon="1.96628">
        <ele>124.63</ele>
        <time>2019-12-19T10:06:33Z</time>
      </trkpt>
      <trkpt lat="48.60208" lon="1.96631">
        <ele>124.63</ele>
        <time>2019-12-19T10:06:34Z</time>
      </trkpt>
      <trkpt lat="48.60207" lon="1.96633">
        <ele>124.15</ele>
        <time>2019-12-19T10:06:35Z</time>
      </trkpt>
      <trkpt lat="48.60207" lon="1.96635">
        <ele>124.63</ele>
        <time>2019-12-19T10:06:36Z</time>
      </trkpt>
      <trkpt lat="48.60206" lon="1.96638">
        <ele>124.63</ele>
        <time>2019-12-19T10:06:37Z</time>
      </trkpt>
      <trkpt lat="48.60205" lon="1.96641">
        <ele>124.15</ele>
        <time>2019-12-19T10:06:38Z</time>
      </trkpt>
      <trkpt lat="48.60205" lon="1.96644">
        <ele>124.63</ele>
        <time>2019-12-19T10:06:39Z</time>
      </trkpt>
      <trkpt lat="48.60204" lon="1.96646">
        <ele>124.15</ele>
        <time>2019-12-19T10:06:40Z</time>
      </trkpt>
      <trkpt lat="48.60204" lon="1.9665">
        <ele>124.15</ele>
        <time>2019-12-19T10:06:41Z</time>
      </trkpt>
      <trkpt lat="48.60203" lon="1.96653">
        <ele>124.15</ele>
        <time>2019-12-19T10:06:42Z</time>
      </trkpt>
      <trkpt lat="48.60203" lon="1.96655">
        <ele>123.67</ele>
        <time>2019-12-19T10:06:43Z</time>
      </trkpt>
      <trkpt lat="48.60203" lon="1.96657">
        <ele>123.67</ele>
        <time>2019-12-19T10:06:44Z</time>
      </trkpt>
      <trkpt lat="48.60203" lon="1.9666">
        <ele>123.67</ele>
        <time>2019-12-19T10:06:45Z</time>
      </trkpt>
      <trkpt lat="48.60203" lon="1.96662">
        <ele>123.67</ele>
        <time>2019-12-19T10:06:46Z</time>
      </trkpt>
      <trkpt lat="48.60202" lon="1.96664">
        <ele>123.67</ele>
        <time>2019-12-19T10:06:47Z</time>
      </trkpt>
      <trkpt lat="48.60202" lon="1.96666">
        <ele>123.67</ele>
        <time>2019-12-19T10:06:48Z</time>
      </trkpt>
      <trkpt lat="48.60202" lon="1.96668">
        <ele>123.67</ele>
        <time>2019-12-19T10:06:49Z</time>
      </trkpt>
      <trkpt lat="48.60202" lon="1.9667">
        <ele>123.67</ele>
        <time>2019-12-19T10:06:50Z</time>
      </trkpt>
      <trkpt lat="48.60202" lon="1.96673">
        <ele>123.67</ele>
        <time>2019-12-19T10:06:51Z</time>
      </trkpt>
      <trkpt lat="48.60202" lon="1.96674">
        <ele>123.19</ele>
        <time>2019-12-19T10:06:52Z</time>
      </trkpt>
      <trkpt lat="48.60202" lon="1.96675">
        <ele>123.67</ele>
        <time>2019-12-19T10:06:53Z</time>
      </trkpt>
      <trkpt lat="48.60202" lon="1.96677">
        <ele>123.19</ele>
        <time>2019-12-19T10:06:54Z</time>
      </trkpt>
      <trkpt lat="48.60202" lon="1.96678">
        <ele>123.19</ele>
        <time>2019-12-19T10:06:55Z</time>
      </trkpt>
      <trkpt lat="48.60202" lon="1.96679">
        <ele>123.19</ele>
        <time>2019-12-19T10:06:56Z</time>
      </trkpt>
      <trkpt lat="48.60203" lon="1.9668">
        <ele>123.19</ele>
        <time>2019-12-19T10:06:57Z</time>
      </trkpt>
      <trkpt lat="48.60203" lon="1.96681">
        <ele>123.19</ele>
        <time>2019-12-19T10:06:58Z</time>
      </trkpt>
      <trkpt lat="48.60203" lon="1.96682">
        <ele>123.19</ele>
        <time>2019-12-19T10:06:59Z</time>
      </trkpt>
      <trkpt lat="48.60204" lon="1.96684">
        <ele>122.71</ele>
        <time>2019-12-19T10:07:00Z</time>
      </trkpt>
      <trkpt lat="48.60204" lon="1.96685">
        <ele>123.19</ele>
        <time>2019-12-19T10:07:01Z</time>
      </trkpt>
      <trkpt lat="48.60204" lon="1.96686">
        <ele>122.71</ele>
        <time>2019-12-19T10:07:02Z</time>
      </trkpt>
      <trkpt lat="48.60204" lon="1.96688">
        <ele>122.71</ele>
        <time>2019-12-19T10:07:03Z</time>
      </trkpt>
      <trkpt lat="48.60204" lon="1.96689">
        <ele>122.71</ele>
        <time>2019-12-19T10:07:04Z</time>
      </trkpt>
      <trkpt lat="48.60205" lon="1.96691">
        <ele>123.19</ele>
        <time>2019-12-19T10:07:05Z</time>
      </trkpt>
      <trkpt lat="48.60205" lon="1.96692">
        <ele>123.19</ele>
        <time>2019-12-19T10:07:06Z</time>
      </trkpt>
      <trkpt lat="48.60205" lon="1.96694">
        <ele>123.19</ele>
        <time>2019-12-19T10:07:07Z</time>
      </trkpt>
      <trkpt lat="48.60206" lon="1.96696">
        <ele>122.71</ele>
        <time>2019-12-19T10:07:08Z</time>
      </trkpt>
      <trkpt lat="48.60206" lon="1.96698">
        <ele>123.19</ele>
        <time>2019-12-19T10:07:09Z</time>
      </trkpt>
      <trkpt lat="48.60207" lon="1.967">
        <ele>122.71</ele>
        <time>2019-12-19T10:07:10Z</time>
      </trkpt>
      <trkpt lat="48.60207" lon="1.96702">
        <ele>122.71</ele>
        <time>2019-12-19T10:07:11Z</time>
      </trkpt>
      <trkpt lat="48.60208" lon="1.96704">
        <ele>122.22</ele>
        <time>2019-12-19T10:07:12Z</time>
      </trkpt>
      <trkpt lat="48.60208" lon="1.96707">
        <ele>122.71</ele>
        <time>2019-12-19T10:07:13Z</time>
      </trkpt>
      <trkpt lat="48.60208" lon="1.96709">
        <ele>122.71</ele>
        <time>2019-12-19T10:07:14Z</time>
      </trkpt>
      <trkpt lat="48.60208" lon="1.96712">
        <ele>122.22</ele>
        <time>2019-12-19T10:07:15Z</time>
      </trkpt>
      <trkpt lat="48.60209" lon="1.96714">
        <ele>122.71</ele>
        <time>2019-12-19T10:07:16Z</time>
      </trkpt>
      <trkpt lat="48.60209" lon="1.96716">
        <ele>122.22</ele>
        <time>2019-12-19T10:07:17Z</time>
      </trkpt>
      <trkpt lat="48.6021" lon="1.96718">
        <ele>122.22</ele>
        <time>2019-12-19T10:07:18Z</time>
      </trkpt>
      <trkpt lat="48.6021" lon="1.96719">
        <ele>122.71</ele>
        <time>2019-12-19T10:07:19Z</time>
      </trkpt>
      <trkpt lat="48.60211" lon="1.96721">
        <ele>122.22</ele>
        <time>2019-12-19T10:07:20Z</time>
      </trkpt>
      <trkpt lat="48.60211" lon="1.96722">
        <ele>122.22</ele>
        <time>2019-12-19T10:07:21Z</time>
      </trkpt>
      <trkpt lat="48.60212" lon="1.96724">
        <ele>121.74</ele>
        <time>2019-12-19T10:07:22Z</time>
      </trkpt>
      <trkpt lat="48.60213" lon="1.96725">
        <ele>122.22</ele>
        <time>2019-12-19T10:07:23Z</time>
      </trkpt>
      <trkpt lat="48.60213" lon="1.96727">
        <ele>122.22</ele>
        <time>2019-12-19T10:07:24Z</time>
      </trkpt>
      <trkpt lat="48.60214" lon="1.96729">
        <ele>122.22</ele>
        <time>2019-12-19T10:07:25Z</time>
      </trkpt>
      <trkpt lat="48.60214" lon="1.9673">
        <ele>121.74</ele>
        <time>2019-12-19T10:07:26Z</time>
      </trkpt>
      <trkpt lat="48.60215" lon="1.96732">
        <ele>121.74</ele>
        <time>2019-12-19T10:07:27Z</time>
      </trkpt>
      <trkpt lat="48.60215" lon="1.96734">
        <ele>122.22</ele>
        <time>2019-12-19T10:07:28Z</time>
      </trkpt>
      <trkpt lat="48.60216" lon="1.96735">
        <ele>121.74</ele>
        <time>2019-12-19T10:07:29Z</time>
      </trkpt>
      <trkpt lat="48.60216" lon="1.96737">
        <ele>122.22</ele>
        <time>2019-12-19T10:07:30Z</time>
      </trkpt>
      <trkpt lat="48.60217" lon="1.96738">
        <ele>121.74</ele>
        <time>2019-12-19T10:07:31Z</time>
      </trkpt>
      <trkpt lat="48.60217" lon="1.9674">
        <ele>122.22</ele>
        <time>2019-12-19T10:07:32Z</time>
      </trkpt>
      <trkpt lat="48.60218" lon="1.96741">
        <ele>122.22</ele>
        <time>2019-12-19T10:07:33Z</time>
      </trkpt>
      <trkpt lat="48.60218" lon="1.96742">
        <ele>122.22</ele>
        <time>2019-12-19T10:07:34Z</time>
      </trkpt>
      <trkpt lat="48.60219" lon="1.96744">
        <ele>121.74</ele>
        <time>2019-12-19T10:07:35Z</time>
      </trkpt>
      <trkpt lat="48.60219" lon="1.96746">
        <ele>121.74</ele>
        <time>2019-12-19T10:07:36Z</time>
      </trkpt>
      <trkpt lat="48.6022" lon="1.96747">
        <ele>121.74</ele>
        <time>2019-12-19T10:07:37Z</time>
      </trkpt>
      <trkpt lat="48.60221" lon="1.96749">
        <ele>121.74</ele>
        <time>2019-12-19T10:07:38Z</time>
      </trkpt>
      <trkpt lat="48.60221" lon="1.9675">
        <ele>121.26</ele>
        <time>2019-12-19T10:07:39Z</time>
      </trkpt>
      <trkpt lat="48.60222" lon="1.96752">
        <ele>121.26</ele>
        <time>2019-12-19T10:07:40Z</time>
      </trkpt>
      <trkpt lat="48.60222" lon="1.96754">
        <ele>122.22</ele>
        <time>2019-12-19T10:07:41Z</time>
      </trkpt>
      <trkpt lat="48.60223" lon="1.96755">
        <ele>121.26</ele>
        <time>2019-12-19T10:07:42Z</time>
      </trkpt>
      <trkpt lat="48.60223" lon="1.96757">
        <ele>121.26</ele>
        <time>2019-12-19T10:07:43Z</time>
      </trkpt>
      <trkpt lat="48.60224" lon="1.96758">
        <ele>120.78</ele>
        <time>2019-12-19T10:07:44Z</time>
      </trkpt>
      <trkpt lat="48.60225" lon="1.9676">
        <ele>120.78</ele>
        <time>2019-12-19T10:07:45Z</time>
      </trkpt>
      <trkpt lat="48.60226" lon="1.96761">
        <ele>120.78</ele>
        <time>2019-12-19T10:07:46Z</time>
      </trkpt>
      <trkpt lat="48.60227" lon="1.96762">
        <ele>120.78</ele>
        <time>2019-12-19T10:07:47Z</time>
      </trkpt>
      <trkpt lat="48.60227" lon="1.96763">
        <ele>120.78</ele>
        <time>2019-12-19T10:07:48Z</time>
      </trkpt>
      <trkpt lat="48.60228" lon="1.96765">
        <ele>120.3</ele>
        <time>2019-12-19T10:07:49Z</time>
      </trkpt>
      <trkpt lat="48.60229" lon="1.96769">
        <ele>120.78</ele>
        <time>2019-12-19T10:07:50Z</time>
      </trkpt>
      <trkpt lat="48.60229" lon="1.96772">
        <ele>120.78</ele>
        <time>2019-12-19T10:07:51Z</time>
      </trkpt>
      <trkpt lat="48.6023" lon="1.96774">
        <ele>120.78</ele>
        <time>2019-12-19T10:07:52Z</time>
      </trkpt>
      <trkpt lat="48.6023" lon="1.96777">
        <ele>120.3</ele>
        <time>2019-12-19T10:07:53Z</time>
      </trkpt>
      <trkpt lat="48.60231" lon="1.96779">
        <ele>120.3</ele>
        <time>2019-12-19T10:07:54Z</time>
      </trkpt>
      <trkpt lat="48.60231" lon="1.96782">
        <ele>120.3</ele>
        <time>2019-12-19T10:07:55Z</time>
      </trkpt>
      <trkpt lat="48.60231" lon="1.96783">
        <ele>120.3</ele>
        <time>2019-12-19T10:07:56Z</time>
      </trkpt>
      <trkpt lat="48.60232" lon="1.96784">
        <ele>120.78</ele>
        <time>2019-12-19T10:07:57Z</time>
      </trkpt>
      <trkpt lat="48.60233" lon="1.96786">
        <ele>120.78</ele>
        <time>2019-12-19T10:07:58Z</time>
      </trkpt>
      <trkpt lat="48.60233" lon="1.96788">
        <ele>120.3</ele>
        <time>2019-12-19T10:07:59Z</time>
      </trkpt>
      <trkpt lat="48.60234" lon="1.9679">
        <ele>120.3</ele>
        <time>2019-12-19T10:08:00Z</time>
      </trkpt>
      <trkpt lat="48.60234" lon="1.96793">
        <ele>120.3</ele>
        <time>2019-12-19T10:08:01Z</time>
      </trkpt>
      <trkpt lat="48.60234" lon="1.96796">
        <ele>120.3</ele>
        <time>2019-12-19T10:08:02Z</time>
      </trkpt>
      <trkpt lat="48.60234" lon="1.96798">
        <ele>120.3</ele>
        <time>2019-12-19T10:08:03Z</time>
      </trkpt>
      <trkpt lat="48.60234" lon="1.96801">
        <ele>119.82</ele>
        <time>2019-12-19T10:08:04Z</time>
      </trkpt>
      <trkpt lat="48.60234" lon="1.96804">
        <ele>119.82</ele>
        <time>2019-12-19T10:08:05Z</time>
      </trkpt>
      <trkpt lat="48.60235" lon="1.96806">
        <ele>119.34</ele>
        <time>2019-12-19T10:08:06Z</time>
      </trkpt>
      <trkpt lat="48.60235" lon="1.9681">
        <ele>119.34</ele>
        <time>2019-12-19T10:08:07Z</time>
      </trkpt>
      <trkpt lat="48.60235" lon="1.96812">
        <ele>119.82</ele>
        <time>2019-12-19T10:08:08Z</time>
      </trkpt>
      <trkpt lat="48.60236" lon="1.96813">
        <ele>119.82</ele>
        <time>2019-12-19T10:08:09Z</time>
      </trkpt>
      <trkpt lat="48.60236" lon="1.96815">
        <ele>118.86</ele>
        <time>2019-12-19T10:08:10Z</time>
      </trkpt>
      <trkpt lat="48.60236" lon="1.96818">
        <ele>119.34</ele>
        <time>2019-12-19T10:08:11Z</time>
      </trkpt>
      <trkpt lat="48.60236" lon="1.9682">
        <ele>119.34</ele>
        <time>2019-12-19T10:08:12Z</time>
      </trkpt>
      <trkpt lat="48.60236" lon="1.96822">
        <ele>118.86</ele>
        <time>2019-12-19T10:08:13Z</time>
      </trkpt>
      <trkpt lat="48.60237" lon="1.96823">
        <ele>118.86</ele>
        <time>2019-12-19T10:08:14Z</time>
      </trkpt>
      <trkpt lat="48.60238" lon="1.96825">
        <ele>118.86</ele>
        <time>2019-12-19T10:08:15Z</time>
      </trkpt>
      <trkpt lat="48.60238" lon="1.96827">
        <ele>118.86</ele>
        <time>2019-12-19T10:08:16Z</time>
      </trkpt>
      <trkpt lat="48.60239" lon="1.96828">
        <ele>118.38</ele>
        <time>2019-12-19T10:08:17Z</time>
      </trkpt>
      <trkpt lat="48.6024" lon="1.96829">
        <ele>118.86</ele>
        <time>2019-12-19T10:08:18Z</time>
      </trkpt>
      <trkpt lat="48.60241" lon="1.96831">
        <ele>119.34</ele>
        <time>2019-12-19T10:08:19Z</time>
      </trkpt>
      <trkpt lat="48.60242" lon="1.96832">
        <ele>118.86</ele>
        <time>2019-12-19T10:08:20Z</time>
      </trkpt>
      <trkpt lat="48.60243" lon="1.96833">
        <ele>118.38</ele>
        <time>2019-12-19T10:08:21Z</time>
      </trkpt>
      <trkpt lat="48.60244" lon="1.96834">
        <ele>118.38</ele>
        <time>2019-12-19T10:08:22Z</time>
      </trkpt>
      <trkpt lat="48.60244" lon="1.96836">
        <ele>118.38</ele>
        <time>2019-12-19T10:08:23Z</time>
      </trkpt>
      <trkpt lat="48.60245" lon="1.96837">
        <ele>118.38</ele>
        <time>2019-12-19T10:08:24Z</time>
      </trkpt>
      <trkpt lat="48.60246" lon="1.96838">
        <ele>117.9</ele>
        <time>2019-12-19T10:08:25Z</time>
      </trkpt>
      <trkpt lat="48.60247" lon="1.9684">
        <ele>117.9</ele>
        <time>2019-12-19T10:08:26Z</time>
      </trkpt>
      <trkpt lat="48.60248" lon="1.96842">
        <ele>118.38</ele>
        <time>2019-12-19T10:08:27Z</time>
      </trkpt>
      <trkpt lat="48.60248" lon="1.96845">
        <ele>118.38</ele>
        <time>2019-12-19T10:08:28Z</time>
      </trkpt>
      <trkpt lat="48.60249" lon="1.96846">
        <ele>118.38</ele>
        <time>2019-12-19T10:08:29Z</time>
      </trkpt>
      <trkpt lat="48.60249" lon="1.96848">
        <ele>117.9</ele>
        <time>2019-12-19T10:08:30Z</time>
      </trkpt>
      <trkpt lat="48.6025" lon="1.9685">
        <ele>117.9</ele>
        <time>2019-12-19T10:08:31Z</time>
      </trkpt>
      <trkpt lat="48.60251" lon="1.96851">
        <ele>117.9</ele>
        <time>2019-12-19T10:08:32Z</time>
      </trkpt>
      <trkpt lat="48.60252" lon="1.96852">
        <ele>117.9</ele>
        <time>2019-12-19T10:08:33Z</time>
      </trkpt>
      <trkpt lat="48.60253" lon="1.96853">
        <ele>117.9</ele>
        <time>2019-12-19T10:08:34Z</time>
      </trkpt>
      <trkpt lat="48.60254" lon="1.96855">
        <ele>117.9</ele>
        <time>2019-12-19T10:08:35Z</time>
      </trkpt>
      <trkpt lat="48.60255" lon="1.96856">
        <ele>117.42</ele>
        <time>2019-12-19T10:08:36Z</time>
      </trkpt>
      <trkpt lat="48.60256" lon="1.96858">
        <ele>117.9</ele>
        <time>2019-12-19T10:08:37Z</time>
      </trkpt>
      <trkpt lat="48.60258" lon="1.9686">
        <ele>117.9</ele>
        <time>2019-12-19T10:08:38Z</time>
      </trkpt>
      <trkpt lat="48.60259" lon="1.96863">
        <ele>117.42</ele>
        <time>2019-12-19T10:08:39Z</time>
      </trkpt>
      <trkpt lat="48.60259" lon="1.96865">
        <ele>117.42</ele>
        <time>2019-12-19T10:08:40Z</time>
      </trkpt>
      <trkpt lat="48.6026" lon="1.96868">
        <ele>117.42</ele>
        <time>2019-12-19T10:08:41Z</time>
      </trkpt>
      <trkpt lat="48.60261" lon="1.9687">
        <ele>116.94</ele>
        <time>2019-12-19T10:08:42Z</time>
      </trkpt>
      <trkpt lat="48.60262" lon="1.96873">
        <ele>116.94</ele>
        <time>2019-12-19T10:08:43Z</time>
      </trkpt>
      <trkpt lat="48.60264" lon="1.96875">
        <ele>116.94</ele>
        <time>2019-12-19T10:08:44Z</time>
      </trkpt>
      <trkpt lat="48.60265" lon="1.96876">
        <ele>116.46</ele>
        <time>2019-12-19T10:08:45Z</time>
      </trkpt>
      <trkpt lat="48.60266" lon="1.96877">
        <ele>116.94</ele>
        <time>2019-12-19T10:08:46Z</time>
      </trkpt>
      <trkpt lat="48.60267" lon="1.96878">
        <ele>116.94</ele>
        <time>2019-12-19T10:08:47Z</time>
      </trkpt>
      <trkpt lat="48.60268" lon="1.96879">
        <ele>116.94</ele>
        <time>2019-12-19T10:08:48Z</time>
      </trkpt>
      <trkpt lat="48.60267" lon="1.96883">
        <ele>117.42</ele>
        <time>2019-12-19T10:08:49Z</time>
      </trkpt>
      <trkpt lat="48.60267" lon="1.96885">
        <ele>116.94</ele>
        <time>2019-12-19T10:08:50Z</time>
      </trkpt>
      <trkpt lat="48.60267" lon="1.96888">
        <ele>116.94</ele>
        <time>2019-12-19T10:08:51Z</time>
      </trkpt>
      <trkpt lat="48.60268" lon="1.9689">
        <ele>116.46</ele>
        <time>2019-12-19T10:08:52Z</time>
      </trkpt>
      <trkpt lat="48.60268" lon="1.96892">
        <ele>116.94</ele>
        <time>2019-12-19T10:08:53Z</time>
      </trkpt>
      <trkpt lat="48.60269" lon="1.96894">
        <ele>116.94</ele>
        <time>2019-12-19T10:08:54Z</time>
      </trkpt>
      <trkpt lat="48.60269" lon="1.96896">
        <ele>116.46</ele>
        <time>2019-12-19T10:08:55Z</time>
      </trkpt>
      <trkpt lat="48.6027" lon="1.96898">
        <ele>116.46</ele>
        <time>2019-12-19T10:08:56Z</time>
      </trkpt>
      <trkpt lat="48.60271" lon="1.96899">
        <ele>116.46</ele>
        <time>2019-12-19T10:08:57Z</time>
      </trkpt>
      <trkpt lat="48.60272" lon="1.969">
        <ele>115.98</ele>
        <time>2019-12-19T10:08:58Z</time>
      </trkpt>
      <trkpt lat="48.60273" lon="1.96903">
        <ele>116.46</ele>
        <time>2019-12-19T10:08:59Z</time>
      </trkpt>
      <trkpt lat="48.60273" lon="1.96906">
        <ele>116.94</ele>
        <time>2019-12-19T10:09:00Z</time>
      </trkpt>
      <trkpt lat="48.60274" lon="1.96906">
        <ele>116.46</ele>
        <time>2019-12-19T10:09:01Z</time>
      </trkpt>
      <trkpt lat="48.60276" lon="1.96906">
        <ele>116.46</ele>
        <time>2019-12-19T10:09:02Z</time>
      </trkpt>
      <trkpt lat="48.60277" lon="1.96911">
        <ele>116.46</ele>
        <time>2019-12-19T10:09:03Z</time>
      </trkpt>
      <trkpt lat="48.60278" lon="1.96912">
        <ele>116.46</ele>
        <time>2019-12-19T10:09:04Z</time>
      </trkpt>
      <trkpt lat="48.6028" lon="1.96913">
        <ele>115.98</ele>
        <time>2019-12-19T10:09:05Z</time>
      </trkpt>
      <trkpt lat="48.60281" lon="1.96915">
        <ele>115.98</ele>
        <time>2019-12-19T10:09:06Z</time>
      </trkpt>
      <trkpt lat="48.60283" lon="1.96917">
        <ele>115.98</ele>
        <time>2019-12-19T10:09:07Z</time>
      </trkpt>
      <trkpt lat="48.60284" lon="1.96919">
        <ele>115.98</ele>
        <time>2019-12-19T10:09:08Z</time>
      </trkpt>
      <trkpt lat="48.60285" lon="1.96918">
        <ele>115.98</ele>
        <time>2019-12-19T10:09:09Z</time>
      </trkpt>
      <trkpt lat="48.60287" lon="1.96919">
        <ele>115.98</ele>
        <time>2019-12-19T10:09:10Z</time>
      </trkpt>
      <trkpt lat="48.60288" lon="1.96921">
        <ele>115.98</ele>
        <time>2019-12-19T10:09:11Z</time>
      </trkpt>
      <trkpt lat="48.60289" lon="1.96922">
        <ele>115.5</ele>
        <time>2019-12-19T10:09:12Z</time>
      </trkpt>
      <trkpt lat="48.60288" lon="1.96931">
        <ele>115.5</ele>
        <time>2019-12-19T10:09:13Z</time>
      </trkpt>
      <trkpt lat="48.60287" lon="1.96937">
        <ele>115.5</ele>
        <time>2019-12-19T10:09:14Z</time>
      </trkpt>
      <trkpt lat="48.60288" lon="1.96943">
        <ele>115.98</ele>
        <time>2019-12-19T10:09:15Z</time>
      </trkpt>
      <trkpt lat="48.60289" lon="1.96948">
        <ele>115.01</ele>
        <time>2019-12-19T10:09:16Z</time>
      </trkpt>
      <trkpt lat="48.60289" lon="1.96952">
        <ele>115.01</ele>
        <time>2019-12-19T10:09:17Z</time>
      </trkpt>
      <trkpt lat="48.60289" lon="1.96955">
        <ele>115.01</ele>
        <time>2019-12-19T10:09:18Z</time>
      </trkpt>
      <trkpt lat="48.60289" lon="1.96957">
        <ele>115.01</ele>
        <time>2019-12-19T10:09:19Z</time>
      </trkpt>
      <trkpt lat="48.6029" lon="1.9696">
        <ele>115.01</ele>
        <time>2019-12-19T10:09:20Z</time>
      </trkpt>
      <trkpt lat="48.6029" lon="1.96962">
        <ele>115.01</ele>
        <time>2019-12-19T10:09:21Z</time>
      </trkpt>
      <trkpt lat="48.60292" lon="1.96965">
        <ele>115.5</ele>
        <time>2019-12-19T10:09:22Z</time>
      </trkpt>
      <trkpt lat="48.60293" lon="1.96967">
        <ele>115.01</ele>
        <time>2019-12-19T10:09:23Z</time>
      </trkpt>
      <trkpt lat="48.60294" lon="1.96969">
        <ele>115.01</ele>
        <time>2019-12-19T10:09:24Z</time>
      </trkpt>
      <trkpt lat="48.60294" lon="1.96971">
        <ele>115.01</ele>
        <time>2019-12-19T10:09:25Z</time>
      </trkpt>
      <trkpt lat="48.60295" lon="1.96973">
        <ele>114.53</ele>
        <time>2019-12-19T10:09:26Z</time>
      </trkpt>
      <trkpt lat="48.60295" lon="1.96974">
        <ele>114.53</ele>
        <time>2019-12-19T10:09:27Z</time>
      </trkpt>
      <trkpt lat="48.60296" lon="1.96976">
        <ele>114.53</ele>
        <time>2019-12-19T10:09:28Z</time>
      </trkpt>
      <trkpt lat="48.60298" lon="1.96978">
        <ele>114.53</ele>
        <time>2019-12-19T10:09:29Z</time>
      </trkpt>
      <trkpt lat="48.60298" lon="1.9698">
        <ele>114.53</ele>
        <time>2019-12-19T10:09:30Z</time>
      </trkpt>
      <trkpt lat="48.60299" lon="1.96982">
        <ele>115.01</ele>
        <time>2019-12-19T10:09:31Z</time>
      </trkpt>
      <trkpt lat="48.60299" lon="1.96984">
        <ele>114.53</ele>
        <time>2019-12-19T10:09:32Z</time>
      </trkpt>
      <trkpt lat="48.60299" lon="1.96986">
        <ele>114.53</ele>
        <time>2019-12-19T10:09:33Z</time>
      </trkpt>
      <trkpt lat="48.603" lon="1.96988">
        <ele>114.53</ele>
        <time>2019-12-19T10:09:34Z</time>
      </trkpt>
      <trkpt lat="48.603" lon="1.9699">
        <ele>114.05</ele>
        <time>2019-12-19T10:09:35Z</time>
      </trkpt>
      <trkpt lat="48.60301" lon="1.9699">
        <ele>114.53</ele>
        <time>2019-12-19T10:09:36Z</time>
      </trkpt>
      <trkpt lat="48.60301" lon="1.9699">
        <ele>114.53</ele>
        <time>2019-12-19T10:09:37Z</time>
      </trkpt>
      <trkpt lat="48.60301" lon="1.96991">
        <ele>114.53</ele>
        <time>2019-12-19T10:09:38Z</time>
      </trkpt>
      <trkpt lat="48.60301" lon="1.96991">
        <ele>114.53</ele>
        <time>2019-12-19T10:09:39Z</time>
      </trkpt>
      <trkpt lat="48.60302" lon="1.96992">
        <ele>114.05</ele>
        <time>2019-12-19T10:09:40Z</time>
      </trkpt>
      <trkpt lat="48.60301" lon="1.96992">
        <ele>115.01</ele>
        <time>2019-12-19T10:09:41Z</time>
      </trkpt>
      <trkpt lat="48.603" lon="1.96993">
        <ele>114.05</ele>
        <time>2019-12-19T10:09:45Z</time>
      </trkpt>
      <trkpt lat="48.603" lon="1.96994">
        <ele>114.53</ele>
        <time>2019-12-19T10:09:46Z</time>
      </trkpt>
      <trkpt lat="48.603" lon="1.96995">
        <ele>114.05</ele>
        <time>2019-12-19T10:09:47Z</time>
      </trkpt>
      <trkpt lat="48.603" lon="1.96996">
        <ele>114.53</ele>
        <time>2019-12-19T10:09:48Z</time>
      </trkpt>
      <trkpt lat="48.603" lon="1.96996">
        <ele>114.05</ele>
        <time>2019-12-19T10:09:49Z</time>
      </trkpt>
      <trkpt lat="48.603" lon="1.96996">
        <ele>114.53</ele>
        <time>2019-12-19T10:09:50Z</time>
      </trkpt>
      <trkpt lat="48.603" lon="1.96996">
        <ele>114.05</ele>
        <time>2019-12-19T10:09:51Z</time>
      </trkpt>
      <trkpt lat="48.60301" lon="1.96997">
        <ele>114.05</ele>
        <time>2019-12-19T10:09:52Z</time>
      </trkpt>
      <trkpt lat="48.60301" lon="1.96997">
        <ele>114.05</ele>
        <time>2019-12-19T10:09:53Z</time>
      </trkpt>
      <trkpt lat="48.60302" lon="1.96998">
        <ele>114.53</ele>
        <time>2019-12-19T10:09:54Z</time>
      </trkpt>
      <trkpt lat="48.60302" lon="1.96998">
        <ele>114.05</ele>
        <time>2019-12-19T10:09:55Z</time>
      </trkpt>
      <trkpt lat="48.60302" lon="1.96998">
        <ele>114.05</ele>
        <time>2019-12-19T10:09:56Z</time>
      </trkpt>
      <trkpt lat="48.60302" lon="1.96998">
        <ele>114.05</ele>
        <time>2019-12-19T10:09:57Z</time>
      </trkpt>
      <trkpt lat="48.60301" lon="1.96998">
        <ele>114.05</ele>
        <time>2019-12-19T10:10:00Z</time>
      </trkpt>
      <trkpt lat="48.60301" lon="1.96998">
        <ele>114.05</ele>
        <time>2019-12-19T10:10:01Z</time>
      </trkpt>
      <trkpt lat="48.60301" lon="1.96998">
        <ele>114.05</ele>
        <time>2019-12-19T10:10:02Z</time>
      </trkpt>
      <trkpt lat="48.60301" lon="1.96998">
        <ele>114.05</ele>
        <time>2019-12-19T10:10:03Z</time>
      </trkpt>
      <trkpt lat="48.60301" lon="1.96998">
        <ele>114.05</ele>
        <time>2019-12-19T10:10:04Z</time>
      </trkpt>
      <trkpt lat="48.603" lon="1.96998">
        <ele>114.05</ele>
        <time>2019-12-19T10:10:05Z</time>
      </trkpt>
      <trkpt lat="48.603" lon="1.96998">
        <ele>114.05</ele>
        <time>2019-12-19T10:10:07Z</time>
      </trkpt>
      <trkpt lat="48.603" lon="1.96998">
        <ele>114.05</ele>
        <time>2019-12-19T10:10:08Z</time>
      </trkpt>
      <trkpt lat="48.603" lon="1.96998">
        <ele>114.05</ele>
        <time>2019-12-19T10:10:09Z</time>
      </trkpt>
      <trkpt lat="48.603" lon="1.96998">
        <ele>114.05</ele>
        <time>2019-12-19T10:10:10Z</time>
      </trkpt>
      <trkpt lat="48.60301" lon="1.96996">
        <ele>114.05</ele>
        <time>2019-12-19T10:10:24Z</time>
      </trkpt>
      <trkpt lat="48.60301" lon="1.96996">
        <ele>114.05</ele>
        <time>2019-12-19T10:10:25Z</time>
      </trkpt>
      <trkpt lat="48.60301" lon="1.96996">
        <ele>114.05</ele>
        <time>2019-12-19T10:10:26Z</time>
      </trkpt>
      <trkpt lat="48.60301" lon="1.96996">
        <ele>114.05</ele>
        <time>2019-12-19T10:10:27Z</time>
      </trkpt>
      <trkpt lat="48.60301" lon="1.96998">
        <ele>114.53</ele>
        <time>2019-12-19T10:10:28Z</time>
      </trkpt>
      <trkpt lat="48.60301" lon="1.96999">
        <ele>114.53</ele>
        <time>2019-12-19T10:10:29Z</time>
      </trkpt>
      <trkpt lat="48.60301" lon="1.96999">
        <ele>114.53</ele>
        <time>2019-12-19T10:10:30Z</time>
      </trkpt>
      <trkpt lat="48.60301" lon="1.97001">
        <ele>114.53</ele>
        <time>2019-12-19T10:10:31Z</time>
      </trkpt>
      <trkpt lat="48.603" lon="1.97002">
        <ele>114.53</ele>
        <time>2019-12-19T10:10:32Z</time>
      </trkpt>
      <trkpt lat="48.603" lon="1.97003">
        <ele>114.53</ele>
        <time>2019-12-19T10:10:33Z</time>
      </trkpt>
      <trkpt lat="48.60298" lon="1.97005">
        <ele>114.53</ele>
        <time>2019-12-19T10:10:34Z</time>
      </trkpt>
      <trkpt lat="48.60298" lon="1.97006">
        <ele>114.53</ele>
        <time>2019-12-19T10:10:35Z</time>
      </trkpt>
      <trkpt lat="48.60298" lon="1.97007">
        <ele>114.53</ele>
        <time>2019-12-19T10:10:36Z</time>
      </trkpt>
      <trkpt lat="48.60297" lon="1.97009">
        <ele>114.53</ele>
        <time>2019-12-19T10:10:37Z</time>
      </trkpt>
      <trkpt lat="48.60296" lon="1.97009">
        <ele>114.53</ele>
        <time>2019-12-19T10:10:38Z</time>
      </trkpt>
      <trkpt lat="48.60297" lon="1.9701">
        <ele>114.53</ele>
        <time>2019-12-19T10:10:39Z</time>
      </trkpt>
      <trkpt lat="48.60297" lon="1.97011">
        <ele>114.05</ele>
        <time>2019-12-19T10:10:40Z</time>
      </trkpt>
      <trkpt lat="48.60297" lon="1.97012">
        <ele>114.05</ele>
        <time>2019-12-19T10:10:41Z</time>
      </trkpt>
      <trkpt lat="48.60296" lon="1.97012">
        <ele>114.53</ele>
        <time>2019-12-19T10:10:42Z</time>
      </trkpt>
      <trkpt lat="48.60296" lon="1.97014">
        <ele>114.05</ele>
        <time>2019-12-19T10:10:43Z</time>
      </trkpt>
      <trkpt lat="48.60296" lon="1.97015">
        <ele>114.05</ele>
        <time>2019-12-19T10:10:44Z</time>
      </trkpt>
      <trkpt lat="48.60296" lon="1.97015">
        <ele>114.05</ele>
        <time>2019-12-19T10:10:45Z</time>
      </trkpt>
      <trkpt lat="48.60295" lon="1.97016">
        <ele>114.05</ele>
        <time>2019-12-19T10:10:46Z</time>
      </trkpt>
      <trkpt lat="48.60295" lon="1.97016">
        <ele>113.57</ele>
        <time>2019-12-19T10:10:47Z</time>
      </trkpt>
      <trkpt lat="48.60295" lon="1.97017">
        <ele>114.05</ele>
        <time>2019-12-19T10:10:48Z</time>
      </trkpt>
      <trkpt lat="48.60295" lon="1.97018">
        <ele>114.05</ele>
        <time>2019-12-19T10:10:49Z</time>
      </trkpt>
      <trkpt lat="48.60294" lon="1.97019">
        <ele>114.05</ele>
        <time>2019-12-19T10:10:50Z</time>
      </trkpt>
      <trkpt lat="48.60293" lon="1.9702">
        <ele>114.05</ele>
        <time>2019-12-19T10:10:51Z</time>
      </trkpt>
      <trkpt lat="48.60292" lon="1.9702">
        <ele>114.05</ele>
        <time>2019-12-19T10:10:52Z</time>
      </trkpt>
      <trkpt lat="48.60291" lon="1.97022">
        <ele>114.05</ele>
        <time>2019-12-19T10:10:53Z</time>
      </trkpt>
      <trkpt lat="48.6029" lon="1.97023">
        <ele>114.05</ele>
        <time>2019-12-19T10:10:54Z</time>
      </trkpt>
      <trkpt lat="48.6029" lon="1.97024">
        <ele>114.05</ele>
        <time>2019-12-19T10:10:55Z</time>
      </trkpt>
      <trkpt lat="48.6029" lon="1.97026">
        <ele>114.53</ele>
        <time>2019-12-19T10:10:56Z</time>
      </trkpt>
      <trkpt lat="48.6029" lon="1.97027">
        <ele>114.05</ele>
        <time>2019-12-19T10:10:57Z</time>
      </trkpt>
      <trkpt lat="48.6029" lon="1.97028">
        <ele>114.05</ele>
        <time>2019-12-19T10:10:58Z</time>
      </trkpt>
      <trkpt lat="48.6029" lon="1.97029">
        <ele>114.05</ele>
        <time>2019-12-19T10:10:59Z</time>
      </trkpt>
      <trkpt lat="48.60289" lon="1.9703">
        <ele>114.53</ele>
        <time>2019-12-19T10:11:00Z</time>
      </trkpt>
      <trkpt lat="48.60289" lon="1.97031">
        <ele>114.05</ele>
        <time>2019-12-19T10:11:01Z</time>
      </trkpt>
      <trkpt lat="48.60288" lon="1.97034">
        <ele>114.05</ele>
        <time>2019-12-19T10:11:02Z</time>
      </trkpt>
      <trkpt lat="48.60287" lon="1.97036">
        <ele>114.53</ele>
        <time>2019-12-19T10:11:03Z</time>
      </trkpt>
      <trkpt lat="48.60286" lon="1.97038">
        <ele>114.53</ele>
        <time>2019-12-19T10:11:04Z</time>
      </trkpt>
      <trkpt lat="48.60286" lon="1.9704">
        <ele>114.53</ele>
        <time>2019-12-19T10:11:05Z</time>
      </trkpt>
      <trkpt lat="48.60285" lon="1.97041">
        <ele>115.01</ele>
        <time>2019-12-19T10:11:06Z</time>
      </trkpt>
      <trkpt lat="48.60285" lon="1.97043">
        <ele>115.01</ele>
        <time>2019-12-19T10:11:07Z</time>
      </trkpt>
      <trkpt lat="48.60285" lon="1.97044">
        <ele>115.01</ele>
        <time>2019-12-19T10:11:08Z</time>
      </trkpt>
      <trkpt lat="48.60284" lon="1.97046">
        <ele>115.5</ele>
        <time>2019-12-19T10:11:09Z</time>
      </trkpt>
      <trkpt lat="48.60284" lon="1.97047">
        <ele>115.5</ele>
        <time>2019-12-19T10:11:10Z</time>
      </trkpt>
      <trkpt lat="48.60284" lon="1.97049">
        <ele>115.01</ele>
        <time>2019-12-19T10:11:11Z</time>
      </trkpt>
      <trkpt lat="48.60283" lon="1.9705">
        <ele>115.5</ele>
        <time>2019-12-19T10:11:12Z</time>
      </trkpt>
      <trkpt lat="48.60282" lon="1.97051">
        <ele>115.98</ele>
        <time>2019-12-19T10:11:13Z</time>
      </trkpt>
      <trkpt lat="48.60282" lon="1.97053">
        <ele>115.5</ele>
        <time>2019-12-19T10:11:14Z</time>
      </trkpt>
      <trkpt lat="48.60281" lon="1.97056">
        <ele>115.5</ele>
        <time>2019-12-19T10:11:15Z</time>
      </trkpt>
      <trkpt lat="48.60281" lon="1.97058">
        <ele>115.98</ele>
        <time>2019-12-19T10:11:16Z</time>
      </trkpt>
      <trkpt lat="48.6028" lon="1.97059">
        <ele>115.98</ele>
        <time>2019-12-19T10:11:17Z</time>
      </trkpt>
      <trkpt lat="48.60279" lon="1.9706">
        <ele>115.98</ele>
        <time>2019-12-19T10:11:18Z</time>
      </trkpt>
      <trkpt lat="48.60278" lon="1.97062">
        <ele>115.98</ele>
        <time>2019-12-19T10:11:19Z</time>
      </trkpt>
      <trkpt lat="48.60278" lon="1.97063">
        <ele>116.46</ele>
        <time>2019-12-19T10:11:20Z</time>
      </trkpt>
      <trkpt lat="48.60277" lon="1.97065">
        <ele>115.98</ele>
        <time>2019-12-19T10:11:21Z</time>
      </trkpt>
      <trkpt lat="48.60277" lon="1.97067">
        <ele>116.46</ele>
        <time>2019-12-19T10:11:22Z</time>
      </trkpt>
      <trkpt lat="48.60276" lon="1.97068">
        <ele>116.46</ele>
        <time>2019-12-19T10:11:23Z</time>
      </trkpt>
      <trkpt lat="48.60276" lon="1.9707">
        <ele>116.46</ele>
        <time>2019-12-19T10:11:24Z</time>
      </trkpt>
      <trkpt lat="48.60275" lon="1.97072">
        <ele>116.46</ele>
        <time>2019-12-19T10:11:25Z</time>
      </trkpt>
      <trkpt lat="48.60274" lon="1.97074">
        <ele>116.46</ele>
        <time>2019-12-19T10:11:26Z</time>
      </trkpt>
      <trkpt lat="48.60273" lon="1.97077">
        <ele>116.46</ele>
        <time>2019-12-19T10:11:27Z</time>
      </trkpt>
      <trkpt lat="48.60272" lon="1.97079">
        <ele>116.46</ele>
        <time>2019-12-19T10:11:28Z</time>
      </trkpt>
      <trkpt lat="48.60271" lon="1.97081">
        <ele>116.46</ele>
        <time>2019-12-19T10:11:29Z</time>
      </trkpt>
      <trkpt lat="48.60269" lon="1.97084">
        <ele>116.94</ele>
        <time>2019-12-19T10:11:30Z</time>
      </trkpt>
      <trkpt lat="48.60267" lon="1.97087">
        <ele>117.42</ele>
        <time>2019-12-19T10:11:31Z</time>
      </trkpt>
      <trkpt lat="48.60266" lon="1.97089">
        <ele>116.94</ele>
        <time>2019-12-19T10:11:32Z</time>
      </trkpt>
      <trkpt lat="48.60265" lon="1.97091">
        <ele>116.94</ele>
        <time>2019-12-19T10:11:33Z</time>
      </trkpt>
      <trkpt lat="48.60265" lon="1.97093">
        <ele>116.94</ele>
        <time>2019-12-19T10:11:34Z</time>
      </trkpt>
      <trkpt lat="48.60264" lon="1.97094">
        <ele>116.94</ele>
        <time>2019-12-19T10:11:35Z</time>
      </trkpt>
      <trkpt lat="48.60263" lon="1.97095">
        <ele>117.42</ele>
        <time>2019-12-19T10:11:36Z</time>
      </trkpt>
      <trkpt lat="48.60262" lon="1.97097">
        <ele>117.42</ele>
        <time>2019-12-19T10:11:37Z</time>
      </trkpt>
      <trkpt lat="48.60261" lon="1.97098">
        <ele>117.42</ele>
        <time>2019-12-19T10:11:38Z</time>
      </trkpt>
      <trkpt lat="48.60261" lon="1.971">
        <ele>116.94</ele>
        <time>2019-12-19T10:11:39Z</time>
      </trkpt>
      <trkpt lat="48.6026" lon="1.97102">
        <ele>117.42</ele>
        <time>2019-12-19T10:11:40Z</time>
      </trkpt>
      <trkpt lat="48.6026" lon="1.97103">
        <ele>117.9</ele>
        <time>2019-12-19T10:11:41Z</time>
      </trkpt>
      <trkpt lat="48.60259" lon="1.97105">
        <ele>117.42</ele>
        <time>2019-12-19T10:11:42Z</time>
      </trkpt>
      <trkpt lat="48.60258" lon="1.97107">
        <ele>117.42</ele>
        <time>2019-12-19T10:11:43Z</time>
      </trkpt>
      <trkpt lat="48.60258" lon="1.97109">
        <ele>117.9</ele>
        <time>2019-12-19T10:11:44Z</time>
      </trkpt>
      <trkpt lat="48.60257" lon="1.9711">
        <ele>118.38</ele>
        <time>2019-12-19T10:11:45Z</time>
      </trkpt>
      <trkpt lat="48.60256" lon="1.97112">
        <ele>118.38</ele>
        <time>2019-12-19T10:11:46Z</time>
      </trkpt>
      <trkpt lat="48.60256" lon="1.97113">
        <ele>118.38</ele>
        <time>2019-12-19T10:11:47Z</time>
      </trkpt>
      <trkpt lat="48.60255" lon="1.97115">
        <ele>118.38</ele>
        <time>2019-12-19T10:11:48Z</time>
      </trkpt>
      <trkpt lat="48.60255" lon="1.97117">
        <ele>118.38</ele>
        <time>2019-12-19T10:11:49Z</time>
      </trkpt>
      <trkpt lat="48.60254" lon="1.97118">
        <ele>118.38</ele>
        <time>2019-12-19T10:11:50Z</time>
      </trkpt>
      <trkpt lat="48.60254" lon="1.9712">
        <ele>118.38</ele>
        <time>2019-12-19T10:11:51Z</time>
      </trkpt>
      <trkpt lat="48.60253" lon="1.97121">
        <ele>118.38</ele>
        <time>2019-12-19T10:11:52Z</time>
      </trkpt>
      <trkpt lat="48.60252" lon="1.97122">
        <ele>118.38</ele>
        <time>2019-12-19T10:11:53Z</time>
      </trkpt>
      <trkpt lat="48.60252" lon="1.97123">
        <ele>118.86</ele>
        <time>2019-12-19T10:11:54Z</time>
      </trkpt>
      <trkpt lat="48.60251" lon="1.97125">
        <ele>118.86</ele>
        <time>2019-12-19T10:11:55Z</time>
      </trkpt>
      <trkpt lat="48.6025" lon="1.97126">
        <ele>118.86</ele>
        <time>2019-12-19T10:11:56Z</time>
      </trkpt>
      <trkpt lat="48.60249" lon="1.97128">
        <ele>118.86</ele>
        <time>2019-12-19T10:11:57Z</time>
      </trkpt>
      <trkpt lat="48.60248" lon="1.9713">
        <ele>118.86</ele>
        <time>2019-12-19T10:11:58Z</time>
      </trkpt>
      <trkpt lat="48.60246" lon="1.97132">
        <ele>119.82</ele>
        <time>2019-12-19T10:11:59Z</time>
      </trkpt>
      <trkpt lat="48.60246" lon="1.97133">
        <ele>119.82</ele>
        <time>2019-12-19T10:12:00Z</time>
      </trkpt>
      <trkpt lat="48.60245" lon="1.97136">
        <ele>119.82</ele>
        <time>2019-12-19T10:12:01Z</time>
      </trkpt>
      <trkpt lat="48.60245" lon="1.97138">
        <ele>119.82</ele>
        <time>2019-12-19T10:12:02Z</time>
      </trkpt>
      <trkpt lat="48.60244" lon="1.9714">
        <ele>120.3</ele>
        <time>2019-12-19T10:12:03Z</time>
      </trkpt>
      <trkpt lat="48.60243" lon="1.97141">
        <ele>119.82</ele>
        <time>2019-12-19T10:12:04Z</time>
      </trkpt>
      <trkpt lat="48.60243" lon="1.97143">
        <ele>120.3</ele>
        <time>2019-12-19T10:12:05Z</time>
      </trkpt>
      <trkpt lat="48.60242" lon="1.97144">
        <ele>120.3</ele>
        <time>2019-12-19T10:12:06Z</time>
      </trkpt>
      <trkpt lat="48.60241" lon="1.97146">
        <ele>120.78</ele>
        <time>2019-12-19T10:12:07Z</time>
      </trkpt>
      <trkpt lat="48.6024" lon="1.97148">
        <ele>120.78</ele>
        <time>2019-12-19T10:12:08Z</time>
      </trkpt>
      <trkpt lat="48.60239" lon="1.97149">
        <ele>120.78</ele>
        <time>2019-12-19T10:12:09Z</time>
      </trkpt>
      <trkpt lat="48.60239" lon="1.97151">
        <ele>120.78</ele>
        <time>2019-12-19T10:12:10Z</time>
      </trkpt>
      <trkpt lat="48.60238" lon="1.97153">
        <ele>121.26</ele>
        <time>2019-12-19T10:12:11Z</time>
      </trkpt>
      <trkpt lat="48.60238" lon="1.97154">
        <ele>121.26</ele>
        <time>2019-12-19T10:12:12Z</time>
      </trkpt>
      <trkpt lat="48.60238" lon="1.97155">
        <ele>121.26</ele>
        <time>2019-12-19T10:12:13Z</time>
      </trkpt>
      <trkpt lat="48.60238" lon="1.97156">
        <ele>121.26</ele>
        <time>2019-12-19T10:12:14Z</time>
      </trkpt>
      <trkpt lat="48.60238" lon="1.97156">
        <ele>122.22</ele>
        <time>2019-12-19T10:12:15Z</time>
      </trkpt>
      <trkpt lat="48.60238" lon="1.97157">
        <ele>122.22</ele>
        <time>2019-12-19T10:12:16Z</time>
      </trkpt>
      <trkpt lat="48.60238" lon="1.97158">
        <ele>122.71</ele>
        <time>2019-12-19T10:12:17Z</time>
      </trkpt>
      <trkpt lat="48.60238" lon="1.97159">
        <ele>122.71</ele>
        <time>2019-12-19T10:12:18Z</time>
      </trkpt>
      <trkpt lat="48.60237" lon="1.97161">
        <ele>122.71</ele>
        <time>2019-12-19T10:12:19Z</time>
      </trkpt>
      <trkpt lat="48.60236" lon="1.97163">
        <ele>122.71</ele>
        <time>2019-12-19T10:12:20Z</time>
      </trkpt>
      <trkpt lat="48.60234" lon="1.97165">
        <ele>122.71</ele>
        <time>2019-12-19T10:12:21Z</time>
      </trkpt>
      <trkpt lat="48.60233" lon="1.97166">
        <ele>123.19</ele>
        <time>2019-12-19T10:12:22Z</time>
      </trkpt>
      <trkpt lat="48.60232" lon="1.97167">
        <ele>123.19</ele>
        <time>2019-12-19T10:12:23Z</time>
      </trkpt>
      <trkpt lat="48.60232" lon="1.97168">
        <ele>123.67</ele>
        <time>2019-12-19T10:12:24Z</time>
      </trkpt>
      <trkpt lat="48.60232" lon="1.97168">
        <ele>124.15</ele>
        <time>2019-12-19T10:12:25Z</time>
      </trkpt>
      <trkpt lat="48.60231" lon="1.97169">
        <ele>124.15</ele>
        <time>2019-12-19T10:12:26Z</time>
      </trkpt>
      <trkpt lat="48.60231" lon="1.97169">
        <ele>124.63</ele>
        <time>2019-12-19T10:12:27Z</time>
      </trkpt>
      <trkpt lat="48.60231" lon="1.9717">
        <ele>124.15</ele>
        <time>2019-12-19T10:12:28Z</time>
      </trkpt>
      <trkpt lat="48.6023" lon="1.97171">
        <ele>124.63</ele>
        <time>2019-12-19T10:12:29Z</time>
      </trkpt>
      <trkpt lat="48.6023" lon="1.97171">
        <ele>125.11</ele>
        <time>2019-12-19T10:12:30Z</time>
      </trkpt>
      <trkpt lat="48.60229" lon="1.97173">
        <ele>126.07</ele>
        <time>2019-12-19T10:12:31Z</time>
      </trkpt>
      <trkpt lat="48.60229" lon="1.97175">
        <ele>126.07</ele>
        <time>2019-12-19T10:12:32Z</time>
      </trkpt>
      <trkpt lat="48.60228" lon="1.97177">
        <ele>126.07</ele>
        <time>2019-12-19T10:12:33Z</time>
      </trkpt>
      <trkpt lat="48.60227" lon="1.97179">
        <ele>126.55</ele>
        <time>2019-12-19T10:12:34Z</time>
      </trkpt>
      <trkpt lat="48.60226" lon="1.97181">
        <ele>126.55</ele>
        <time>2019-12-19T10:12:35Z</time>
      </trkpt>
      <trkpt lat="48.60224" lon="1.97182">
        <ele>126.55</ele>
        <time>2019-12-19T10:12:36Z</time>
      </trkpt>
      <trkpt lat="48.60223" lon="1.97184">
        <ele>127.03</ele>
        <time>2019-12-19T10:12:37Z</time>
      </trkpt>
      <trkpt lat="48.60223" lon="1.97185">
        <ele>127.51</ele>
        <time>2019-12-19T10:12:38Z</time>
      </trkpt>
      <trkpt lat="48.60222" lon="1.97187">
        <ele>127.51</ele>
        <time>2019-12-19T10:12:39Z</time>
      </trkpt>
      <trkpt lat="48.60221" lon="1.97189">
        <ele>127.99</ele>
        <time>2019-12-19T10:12:40Z</time>
      </trkpt>
      <trkpt lat="48.6022" lon="1.9719">
        <ele>127.99</ele>
        <time>2019-12-19T10:12:41Z</time>
      </trkpt>
      <trkpt lat="48.6022" lon="1.97192">
        <ele>129.43</ele>
        <time>2019-12-19T10:12:42Z</time>
      </trkpt>
      <trkpt lat="48.6022" lon="1.97193">
        <ele>128.95</ele>
        <time>2019-12-19T10:12:43Z</time>
      </trkpt>
      <trkpt lat="48.60219" lon="1.97195">
        <ele>128.95</ele>
        <time>2019-12-19T10:12:44Z</time>
      </trkpt>
      <trkpt lat="48.60218" lon="1.97196">
        <ele>129.43</ele>
        <time>2019-12-19T10:12:45Z</time>
      </trkpt>
      <trkpt lat="48.60217" lon="1.97198">
        <ele>129.43</ele>
        <time>2019-12-19T10:12:46Z</time>
      </trkpt>
      <trkpt lat="48.60216" lon="1.97199">
        <ele>129.92</ele>
        <time>2019-12-19T10:12:47Z</time>
      </trkpt>
      <trkpt lat="48.60215" lon="1.97201">
        <ele>130.4</ele>
        <time>2019-12-19T10:12:48Z</time>
      </trkpt>
      <trkpt lat="48.60213" lon="1.97203">
        <ele>130.4</ele>
        <time>2019-12-19T10:12:49Z</time>
      </trkpt>
      <trkpt lat="48.60212" lon="1.97205">
        <ele>131.36</ele>
        <time>2019-12-19T10:12:50Z</time>
      </trkpt>
      <trkpt lat="48.6021" lon="1.97208">
        <ele>131.36</ele>
        <time>2019-12-19T10:12:51Z</time>
      </trkpt>
      <trkpt lat="48.60209" lon="1.9721">
        <ele>130.88</ele>
        <time>2019-12-19T10:12:52Z</time>
      </trkpt>
      <trkpt lat="48.60208" lon="1.97212">
        <ele>131.84</ele>
        <time>2019-12-19T10:12:53Z</time>
      </trkpt>
      <trkpt lat="48.60207" lon="1.97214">
        <ele>131.84</ele>
        <time>2019-12-19T10:12:54Z</time>
      </trkpt>
      <trkpt lat="48.60206" lon="1.97215">
        <ele>131.84</ele>
        <time>2019-12-19T10:12:55Z</time>
      </trkpt>
      <trkpt lat="48.60206" lon="1.97216">
        <ele>131.36</ele>
        <time>2019-12-19T10:12:56Z</time>
      </trkpt>
      <trkpt lat="48.60206" lon="1.97216">
        <ele>132.8</ele>
        <time>2019-12-19T10:12:57Z</time>
      </trkpt>
      <trkpt lat="48.60206" lon="1.97217">
        <ele>133.28</ele>
        <time>2019-12-19T10:12:58Z</time>
      </trkpt>
      <trkpt lat="48.60206" lon="1.97217">
        <ele>132.8</ele>
        <time>2019-12-19T10:12:59Z</time>
      </trkpt>
      <trkpt lat="48.60206" lon="1.97217">
        <ele>133.76</ele>
        <time>2019-12-19T10:13:00Z</time>
      </trkpt>
      <trkpt lat="48.60205" lon="1.97219">
        <ele>133.28</ele>
        <time>2019-12-19T10:13:01Z</time>
      </trkpt>
      <trkpt lat="48.60203" lon="1.97221">
        <ele>132.8</ele>
        <time>2019-12-19T10:13:02Z</time>
      </trkpt>
      <trkpt lat="48.60202" lon="1.97222">
        <ele>134.72</ele>
        <time>2019-12-19T10:13:03Z</time>
      </trkpt>
      <trkpt lat="48.60201" lon="1.97223">
        <ele>134.72</ele>
        <time>2019-12-19T10:13:04Z</time>
      </trkpt>
      <trkpt lat="48.60201" lon="1.97225">
        <ele>134.24</ele>
        <time>2019-12-19T10:13:05Z</time>
      </trkpt>
      <trkpt lat="48.602" lon="1.97227">
        <ele>134.72</ele>
        <time>2019-12-19T10:13:06Z</time>
      </trkpt>
      <trkpt lat="48.60198" lon="1.97229">
        <ele>134.24</ele>
        <time>2019-12-19T10:13:07Z</time>
      </trkpt>
      <trkpt lat="48.60197" lon="1.9723">
        <ele>135.68</ele>
        <time>2019-12-19T10:13:08Z</time>
      </trkpt>
      <trkpt lat="48.60196" lon="1.97233">
        <ele>135.68</ele>
        <time>2019-12-19T10:13:09Z</time>
      </trkpt>
      <trkpt lat="48.60196" lon="1.97236">
        <ele>135.68</ele>
        <time>2019-12-19T10:13:10Z</time>
      </trkpt>
      <trkpt lat="48.60195" lon="1.97238">
        <ele>135.68</ele>
        <time>2019-12-19T10:13:11Z</time>
      </trkpt>
      <trkpt lat="48.60194" lon="1.9724">
        <ele>136.16</ele>
        <time>2019-12-19T10:13:12Z</time>
      </trkpt>
      <trkpt lat="48.60193" lon="1.97244">
        <ele>137.13</ele>
        <time>2019-12-19T10:13:13Z</time>
      </trkpt>
      <trkpt lat="48.60192" lon="1.97246">
        <ele>136.64</ele>
        <time>2019-12-19T10:13:14Z</time>
      </trkpt>
      <trkpt lat="48.60191" lon="1.97249">
        <ele>136.64</ele>
        <time>2019-12-19T10:13:15Z</time>
      </trkpt>
      <trkpt lat="48.60191" lon="1.97251">
        <ele>136.64</ele>
        <time>2019-12-19T10:13:16Z</time>
      </trkpt>
      <trkpt lat="48.6019" lon="1.97253">
        <ele>137.13</ele>
        <time>2019-12-19T10:13:17Z</time>
      </trkpt>
      <trkpt lat="48.60189" lon="1.97255">
        <ele>137.13</ele>
        <time>2019-12-19T10:13:18Z</time>
      </trkpt>
      <trkpt lat="48.60188" lon="1.97257">
        <ele>137.13</ele>
        <time>2019-12-19T10:13:19Z</time>
      </trkpt>
      <trkpt lat="48.60187" lon="1.97259">
        <ele>137.13</ele>
        <time>2019-12-19T10:13:20Z</time>
      </trkpt>
      <trkpt lat="48.60186" lon="1.97261">
        <ele>137.13</ele>
        <time>2019-12-19T10:13:21Z</time>
      </trkpt>
      <trkpt lat="48.60185" lon="1.97263">
        <ele>137.13</ele>
        <time>2019-12-19T10:13:22Z</time>
      </trkpt>
      <trkpt lat="48.60185" lon="1.97264">
        <ele>137.61</ele>
        <time>2019-12-19T10:13:23Z</time>
      </trkpt>
      <trkpt lat="48.60184" lon="1.97266">
        <ele>137.61</ele>
        <time>2019-12-19T10:13:24Z</time>
      </trkpt>
      <trkpt lat="48.60183" lon="1.97268">
        <ele>137.61</ele>
        <time>2019-12-19T10:13:25Z</time>
      </trkpt>
      <trkpt lat="48.60183" lon="1.97269">
        <ele>137.13</ele>
        <time>2019-12-19T10:13:26Z</time>
      </trkpt>
      <trkpt lat="48.60182" lon="1.97271">
        <ele>137.13</ele>
        <time>2019-12-19T10:13:27Z</time>
      </trkpt>
      <trkpt lat="48.60181" lon="1.97272">
        <ele>138.57</ele>
        <time>2019-12-19T10:13:28Z</time>
      </trkpt>
      <trkpt lat="48.60181" lon="1.97273">
        <ele>138.09</ele>
        <time>2019-12-19T10:13:29Z</time>
      </trkpt>
      <trkpt lat="48.6018" lon="1.97275">
        <ele>138.09</ele>
        <time>2019-12-19T10:13:30Z</time>
      </trkpt>
      <trkpt lat="48.60179" lon="1.97276">
        <ele>138.09</ele>
        <time>2019-12-19T10:13:31Z</time>
      </trkpt>
      <trkpt lat="48.60179" lon="1.97278">
        <ele>138.09</ele>
        <time>2019-12-19T10:13:32Z</time>
      </trkpt>
      <trkpt lat="48.60178" lon="1.97279">
        <ele>137.61</ele>
        <time>2019-12-19T10:13:33Z</time>
      </trkpt>
      <trkpt lat="48.60178" lon="1.97281">
        <ele>138.09</ele>
        <time>2019-12-19T10:13:34Z</time>
      </trkpt>
      <trkpt lat="48.60177" lon="1.97282">
        <ele>138.57</ele>
        <time>2019-12-19T10:13:35Z</time>
      </trkpt>
      <trkpt lat="48.60177" lon="1.97283">
        <ele>138.57</ele>
        <time>2019-12-19T10:13:36Z</time>
      </trkpt>
      <trkpt lat="48.60176" lon="1.97284">
        <ele>138.57</ele>
        <time>2019-12-19T10:13:37Z</time>
      </trkpt>
      <trkpt lat="48.60175" lon="1.97285">
        <ele>138.57</ele>
        <time>2019-12-19T10:13:38Z</time>
      </trkpt>
      <trkpt lat="48.60175" lon="1.97286">
        <ele>138.57</ele>
        <time>2019-12-19T10:13:39Z</time>
      </trkpt>
      <trkpt lat="48.60174" lon="1.97287">
        <ele>138.57</ele>
        <time>2019-12-19T10:13:40Z</time>
      </trkpt>
      <trkpt lat="48.60174" lon="1.97289">
        <ele>139.05</ele>
        <time>2019-12-19T10:13:41Z</time>
      </trkpt>
      <trkpt lat="48.60173" lon="1.9729">
        <ele>138.57</ele>
        <time>2019-12-19T10:13:42Z</time>
      </trkpt>
      <trkpt lat="48.60172" lon="1.97292">
        <ele>138.57</ele>
        <time>2019-12-19T10:13:43Z</time>
      </trkpt>
      <trkpt lat="48.60171" lon="1.97293">
        <ele>138.57</ele>
        <time>2019-12-19T10:13:44Z</time>
      </trkpt>
      <trkpt lat="48.6017" lon="1.97295">
        <ele>138.57</ele>
        <time>2019-12-19T10:13:45Z</time>
      </trkpt>
      <trkpt lat="48.6017" lon="1.97297">
        <ele>138.57</ele>
        <time>2019-12-19T10:13:46Z</time>
      </trkpt>
      <trkpt lat="48.6017" lon="1.97298">
        <ele>138.09</ele>
        <time>2019-12-19T10:13:47Z</time>
      </trkpt>
      <trkpt lat="48.60169" lon="1.973">
        <ele>138.09</ele>
        <time>2019-12-19T10:13:48Z</time>
      </trkpt>
      <trkpt lat="48.60168" lon="1.97301">
        <ele>138.57</ele>
        <time>2019-12-19T10:13:49Z</time>
      </trkpt>
      <trkpt lat="48.60167" lon="1.97303">
        <ele>138.09</ele>
        <time>2019-12-19T10:13:50Z</time>
      </trkpt>
      <trkpt lat="48.60166" lon="1.97305">
        <ele>138.09</ele>
        <time>2019-12-19T10:13:51Z</time>
      </trkpt>
      <trkpt lat="48.60166" lon="1.97306">
        <ele>138.09</ele>
        <time>2019-12-19T10:13:52Z</time>
      </trkpt>
      <trkpt lat="48.60165" lon="1.97308">
        <ele>138.09</ele>
        <time>2019-12-19T10:13:53Z</time>
      </trkpt>
      <trkpt lat="48.60165" lon="1.97309">
        <ele>138.09</ele>
        <time>2019-12-19T10:13:54Z</time>
      </trkpt>
      <trkpt lat="48.60164" lon="1.97311">
        <ele>138.09</ele>
        <time>2019-12-19T10:13:55Z</time>
      </trkpt>
      <trkpt lat="48.60163" lon="1.97314">
        <ele>138.09</ele>
        <time>2019-12-19T10:13:56Z</time>
      </trkpt>
      <trkpt lat="48.60162" lon="1.97315">
        <ele>138.09</ele>
        <time>2019-12-19T10:13:57Z</time>
      </trkpt>
      <trkpt lat="48.60161" lon="1.97317">
        <ele>138.09</ele>
        <time>2019-12-19T10:13:58Z</time>
      </trkpt>
      <trkpt lat="48.6016" lon="1.97317">
        <ele>138.09</ele>
        <time>2019-12-19T10:13:59Z</time>
      </trkpt>
      <trkpt lat="48.60159" lon="1.97318">
        <ele>138.09</ele>
        <time>2019-12-19T10:14:00Z</time>
      </trkpt>
      <trkpt lat="48.60159" lon="1.97318">
        <ele>137.61</ele>
        <time>2019-12-19T10:14:01Z</time>
      </trkpt>
      <trkpt lat="48.60156" lon="1.97322">
        <ele>137.61</ele>
        <time>2019-12-19T10:14:15Z</time>
      </trkpt>
      <trkpt lat="48.60156" lon="1.97322">
        <ele>138.09</ele>
        <time>2019-12-19T10:14:16Z</time>
      </trkpt>
      <trkpt lat="48.60156" lon="1.97322">
        <ele>138.09</ele>
        <time>2019-12-19T10:14:17Z</time>
      </trkpt>
      <trkpt lat="48.60155" lon="1.97323">
        <ele>138.09</ele>
        <time>2019-12-19T10:14:18Z</time>
      </trkpt>
      <trkpt lat="48.60155" lon="1.97325">
        <ele>138.09</ele>
        <time>2019-12-19T10:14:19Z</time>
      </trkpt>
      <trkpt lat="48.60154" lon="1.97326">
        <ele>138.09</ele>
        <time>2019-12-19T10:14:20Z</time>
      </trkpt>
      <trkpt lat="48.60153" lon="1.97327">
        <ele>137.61</ele>
        <time>2019-12-19T10:14:21Z</time>
      </trkpt>
      <trkpt lat="48.60153" lon="1.97328">
        <ele>137.61</ele>
        <time>2019-12-19T10:14:22Z</time>
      </trkpt>
      <trkpt lat="48.60152" lon="1.97328">
        <ele>137.61</ele>
        <time>2019-12-19T10:14:23Z</time>
      </trkpt>
      <trkpt lat="48.60152" lon="1.97329">
        <ele>137.61</ele>
        <time>2019-12-19T10:14:24Z</time>
      </trkpt>
      <trkpt lat="48.60151" lon="1.97331">
        <ele>137.61</ele>
        <time>2019-12-19T10:14:25Z</time>
      </trkpt>
      <trkpt lat="48.6015" lon="1.97333">
        <ele>137.61</ele>
        <time>2019-12-19T10:14:26Z</time>
      </trkpt>
      <trkpt lat="48.60149" lon="1.97335">
        <ele>137.13</ele>
        <time>2019-12-19T10:14:27Z</time>
      </trkpt>
      <trkpt lat="48.60148" lon="1.97337">
        <ele>137.61</ele>
        <time>2019-12-19T10:14:28Z</time>
      </trkpt>
      <trkpt lat="48.60148" lon="1.97339">
        <ele>137.61</ele>
        <time>2019-12-19T10:14:29Z</time>
      </trkpt>
      <trkpt lat="48.60147" lon="1.9734">
        <ele>137.13</ele>
        <time>2019-12-19T10:14:30Z</time>
      </trkpt>
      <trkpt lat="48.60147" lon="1.97342">
        <ele>137.13</ele>
        <time>2019-12-19T10:14:31Z</time>
      </trkpt>
      <trkpt lat="48.60146" lon="1.97343">
        <ele>137.13</ele>
        <time>2019-12-19T10:14:32Z</time>
      </trkpt>
      <trkpt lat="48.60146" lon="1.97345">
        <ele>137.13</ele>
        <time>2019-12-19T10:14:33Z</time>
      </trkpt>
      <trkpt lat="48.60145" lon="1.97347">
        <ele>136.64</ele>
        <time>2019-12-19T10:14:34Z</time>
      </trkpt>
      <trkpt lat="48.60145" lon="1.97349">
        <ele>137.13</ele>
        <time>2019-12-19T10:14:35Z</time>
      </trkpt>
      <trkpt lat="48.60144" lon="1.97351">
        <ele>137.13</ele>
        <time>2019-12-19T10:14:36Z</time>
      </trkpt>
      <trkpt lat="48.60144" lon="1.97353">
        <ele>137.13</ele>
        <time>2019-12-19T10:14:37Z</time>
      </trkpt>
      <trkpt lat="48.60143" lon="1.97355">
        <ele>136.64</ele>
        <time>2019-12-19T10:14:38Z</time>
      </trkpt>
      <trkpt lat="48.60142" lon="1.97357">
        <ele>136.64</ele>
        <time>2019-12-19T10:14:39Z</time>
      </trkpt>
      <trkpt lat="48.60141" lon="1.97358">
        <ele>136.64</ele>
        <time>2019-12-19T10:14:40Z</time>
      </trkpt>
      <trkpt lat="48.6014" lon="1.9736">
        <ele>136.64</ele>
        <time>2019-12-19T10:14:41Z</time>
      </trkpt>
      <trkpt lat="48.60139" lon="1.97361">
        <ele>136.16</ele>
        <time>2019-12-19T10:14:42Z</time>
      </trkpt>
      <trkpt lat="48.60138" lon="1.97363">
        <ele>136.16</ele>
        <time>2019-12-19T10:14:43Z</time>
      </trkpt>
      <trkpt lat="48.60137" lon="1.97365">
        <ele>135.68</ele>
        <time>2019-12-19T10:14:44Z</time>
      </trkpt>
      <trkpt lat="48.60137" lon="1.97366">
        <ele>136.16</ele>
        <time>2019-12-19T10:14:45Z</time>
      </trkpt>
      <trkpt lat="48.60136" lon="1.97367">
        <ele>135.68</ele>
        <time>2019-12-19T10:14:46Z</time>
      </trkpt>
      <trkpt lat="48.60136" lon="1.97368">
        <ele>135.68</ele>
        <time>2019-12-19T10:14:47Z</time>
      </trkpt>
      <trkpt lat="48.60135" lon="1.9737">
        <ele>135.68</ele>
        <time>2019-12-19T10:14:48Z</time>
      </trkpt>
      <trkpt lat="48.60135" lon="1.97371">
        <ele>135.68</ele>
        <time>2019-12-19T10:14:49Z</time>
      </trkpt>
      <trkpt lat="48.60134" lon="1.97373">
        <ele>135.68</ele>
        <time>2019-12-19T10:14:50Z</time>
      </trkpt>
      <trkpt lat="48.60134" lon="1.97374">
        <ele>135.2</ele>
        <time>2019-12-19T10:14:51Z</time>
      </trkpt>
      <trkpt lat="48.60133" lon="1.97376">
        <ele>135.2</ele>
        <time>2019-12-19T10:14:52Z</time>
      </trkpt>
      <trkpt lat="48.60133" lon="1.97378">
        <ele>134.72</ele>
        <time>2019-12-19T10:14:53Z</time>
      </trkpt>
      <trkpt lat="48.60132" lon="1.9738">
        <ele>134.72</ele>
        <time>2019-12-19T10:14:54Z</time>
      </trkpt>
      <trkpt lat="48.60132" lon="1.97382">
        <ele>134.24</ele>
        <time>2019-12-19T10:14:55Z</time>
      </trkpt>
      <trkpt lat="48.60131" lon="1.97384">
        <ele>133.76</ele>
        <time>2019-12-19T10:14:56Z</time>
      </trkpt>
      <trkpt lat="48.6013" lon="1.97386">
        <ele>133.76</ele>
        <time>2019-12-19T10:14:57Z</time>
      </trkpt>
      <trkpt lat="48.60129" lon="1.97387">
        <ele>133.76</ele>
        <time>2019-12-19T10:14:58Z</time>
      </trkpt>
      <trkpt lat="48.60128" lon="1.97389">
        <ele>133.28</ele>
        <time>2019-12-19T10:14:59Z</time>
      </trkpt>
      <trkpt lat="48.60127" lon="1.97391">
        <ele>133.28</ele>
        <time>2019-12-19T10:15:00Z</time>
      </trkpt>
      <trkpt lat="48.60127" lon="1.97392">
        <ele>133.28</ele>
        <time>2019-12-19T10:15:01Z</time>
      </trkpt>
      <trkpt lat="48.60126" lon="1.97393">
        <ele>132.8</ele>
        <time>2019-12-19T10:15:02Z</time>
      </trkpt>
      <trkpt lat="48.60126" lon="1.97395">
        <ele>132.8</ele>
        <time>2019-12-19T10:15:03Z</time>
      </trkpt>
      <trkpt lat="48.60126" lon="1.97396">
        <ele>132.32</ele>
        <time>2019-12-19T10:15:04Z</time>
      </trkpt>
      <trkpt lat="48.60125" lon="1.97398">
        <ele>132.32</ele>
        <time>2019-12-19T10:15:05Z</time>
      </trkpt>
      <trkpt lat="48.60124" lon="1.97399">
        <ele>131.84</ele>
        <time>2019-12-19T10:15:06Z</time>
      </trkpt>
      <trkpt lat="48.60123" lon="1.97401">
        <ele>131.36</ele>
        <time>2019-12-19T10:15:07Z</time>
      </trkpt>
      <trkpt lat="48.60122" lon="1.97402">
        <ele>131.36</ele>
        <time>2019-12-19T10:15:08Z</time>
      </trkpt>
      <trkpt lat="48.60121" lon="1.97404">
        <ele>130.88</ele>
        <time>2019-12-19T10:15:09Z</time>
      </trkpt>
      <trkpt lat="48.6012" lon="1.97406">
        <ele>130.88</ele>
        <time>2019-12-19T10:15:10Z</time>
      </trkpt>
      <trkpt lat="48.60119" lon="1.97408">
        <ele>130.88</ele>
        <time>2019-12-19T10:15:11Z</time>
      </trkpt>
      <trkpt lat="48.60118" lon="1.97411">
        <ele>130.4</ele>
        <time>2019-12-19T10:15:12Z</time>
      </trkpt>
      <trkpt lat="48.60117" lon="1.97413">
        <ele>130.4</ele>
        <time>2019-12-19T10:15:13Z</time>
      </trkpt>
      <trkpt lat="48.60116" lon="1.97415">
        <ele>129.92</ele>
        <time>2019-12-19T10:15:14Z</time>
      </trkpt>
      <trkpt lat="48.60115" lon="1.97417">
        <ele>129.43</ele>
        <time>2019-12-19T10:15:15Z</time>
      </trkpt>
      <trkpt lat="48.60115" lon="1.97418">
        <ele>129.43</ele>
        <time>2019-12-19T10:15:16Z</time>
      </trkpt>
      <trkpt lat="48.60114" lon="1.9742">
        <ele>128.95</ele>
        <time>2019-12-19T10:15:17Z</time>
      </trkpt>
      <trkpt lat="48.60114" lon="1.97422">
        <ele>128.47</ele>
        <time>2019-12-19T10:15:18Z</time>
      </trkpt>
      <trkpt lat="48.60114" lon="1.97423">
        <ele>127.99</ele>
        <time>2019-12-19T10:15:19Z</time>
      </trkpt>
      <trkpt lat="48.60113" lon="1.97424">
        <ele>127.99</ele>
        <time>2019-12-19T10:15:20Z</time>
      </trkpt>
      <trkpt lat="48.60113" lon="1.97426">
        <ele>127.99</ele>
        <time>2019-12-19T10:15:21Z</time>
      </trkpt>
      <trkpt lat="48.60112" lon="1.97427">
        <ele>127.51</ele>
        <time>2019-12-19T10:15:22Z</time>
      </trkpt>
      <trkpt lat="48.60111" lon="1.97429">
        <ele>127.03</ele>
        <time>2019-12-19T10:15:23Z</time>
      </trkpt>
      <trkpt lat="48.6011" lon="1.97431">
        <ele>127.03</ele>
        <time>2019-12-19T10:15:24Z</time>
      </trkpt>
      <trkpt lat="48.60109" lon="1.97432">
        <ele>127.03</ele>
        <time>2019-12-19T10:15:25Z</time>
      </trkpt>
      <trkpt lat="48.60109" lon="1.97433">
        <ele>126.55</ele>
        <time>2019-12-19T10:15:26Z</time>
      </trkpt>
      <trkpt lat="48.60108" lon="1.97435">
        <ele>126.07</ele>
        <time>2019-12-19T10:15:27Z</time>
      </trkpt>
      <trkpt lat="48.60107" lon="1.97437">
        <ele>125.59</ele>
        <time>2019-12-19T10:15:28Z</time>
      </trkpt>
      <trkpt lat="48.60106" lon="1.97438">
        <ele>125.59</ele>
        <time>2019-12-19T10:15:29Z</time>
      </trkpt>
      <trkpt lat="48.60105" lon="1.97439">
        <ele>125.59</ele>
        <time>2019-12-19T10:15:30Z</time>
      </trkpt>
      <trkpt lat="48.60105" lon="1.97441">
        <ele>125.59</ele>
        <time>2019-12-19T10:15:31Z</time>
      </trkpt>
      <trkpt lat="48.60104" lon="1.97443">
        <ele>125.11</ele>
        <time>2019-12-19T10:15:32Z</time>
      </trkpt>
      <trkpt lat="48.60103" lon="1.97445">
        <ele>124.63</ele>
        <time>2019-12-19T10:15:33Z</time>
      </trkpt>
      <trkpt lat="48.60102" lon="1.97446">
        <ele>124.63</ele>
        <time>2019-12-19T10:15:34Z</time>
      </trkpt>
      <trkpt lat="48.60101" lon="1.97447">
        <ele>124.15</ele>
        <time>2019-12-19T10:15:35Z</time>
      </trkpt>
      <trkpt lat="48.60101" lon="1.97448">
        <ele>124.15</ele>
        <time>2019-12-19T10:15:36Z</time>
      </trkpt>
      <trkpt lat="48.601" lon="1.9745">
        <ele>123.67</ele>
        <time>2019-12-19T10:15:37Z</time>
      </trkpt>
      <trkpt lat="48.60099" lon="1.97452">
        <ele>123.67</ele>
        <time>2019-12-19T10:15:38Z</time>
      </trkpt>
      <trkpt lat="48.60098" lon="1.97454">
        <ele>123.19</ele>
        <time>2019-12-19T10:15:39Z</time>
      </trkpt>
      <trkpt lat="48.60097" lon="1.97456">
        <ele>123.19</ele>
        <time>2019-12-19T10:15:40Z</time>
      </trkpt>
      <trkpt lat="48.60096" lon="1.97458">
        <ele>123.19</ele>
        <time>2019-12-19T10:15:41Z</time>
      </trkpt>
      <trkpt lat="48.60095" lon="1.9746">
        <ele>123.67</ele>
        <time>2019-12-19T10:15:42Z</time>
      </trkpt>
      <trkpt lat="48.60095" lon="1.97462">
        <ele>122.71</ele>
        <time>2019-12-19T10:15:43Z</time>
      </trkpt>
      <trkpt lat="48.60095" lon="1.97464">
        <ele>122.22</ele>
        <time>2019-12-19T10:15:44Z</time>
      </trkpt>
      <trkpt lat="48.60095" lon="1.97466">
        <ele>121.74</ele>
        <time>2019-12-19T10:15:45Z</time>
      </trkpt>
      <trkpt lat="48.60094" lon="1.97468">
        <ele>122.22</ele>
        <time>2019-12-19T10:15:46Z</time>
      </trkpt>
      <trkpt lat="48.60093" lon="1.9747">
        <ele>121.74</ele>
        <time>2019-12-19T10:15:47Z</time>
      </trkpt>
      <trkpt lat="48.60092" lon="1.97472">
        <ele>121.74</ele>
        <time>2019-12-19T10:15:48Z</time>
      </trkpt>
      <trkpt lat="48.60091" lon="1.97474">
        <ele>121.26</ele>
        <time>2019-12-19T10:15:49Z</time>
      </trkpt>
      <trkpt lat="48.6009" lon="1.97476">
        <ele>120.78</ele>
        <time>2019-12-19T10:15:50Z</time>
      </trkpt>
      <trkpt lat="48.6009" lon="1.97478">
        <ele>120.78</ele>
        <time>2019-12-19T10:15:51Z</time>
      </trkpt>
      <trkpt lat="48.60089" lon="1.9748">
        <ele>120.78</ele>
        <time>2019-12-19T10:15:52Z</time>
      </trkpt>
      <trkpt lat="48.60088" lon="1.97481">
        <ele>120.78</ele>
        <time>2019-12-19T10:15:53Z</time>
      </trkpt>
      <trkpt lat="48.60088" lon="1.97483">
        <ele>120.78</ele>
        <time>2019-12-19T10:15:54Z</time>
      </trkpt>
      <trkpt lat="48.60087" lon="1.97485">
        <ele>120.3</ele>
        <time>2019-12-19T10:15:55Z</time>
      </trkpt>
      <trkpt lat="48.60086" lon="1.97487">
        <ele>120.3</ele>
        <time>2019-12-19T10:15:56Z</time>
      </trkpt>
      <trkpt lat="48.60085" lon="1.97488">
        <ele>120.3</ele>
        <time>2019-12-19T10:15:57Z</time>
      </trkpt>
      <trkpt lat="48.60084" lon="1.97489">
        <ele>119.82</ele>
        <time>2019-12-19T10:15:58Z</time>
      </trkpt>
      <trkpt lat="48.60084" lon="1.9749">
        <ele>119.82</ele>
        <time>2019-12-19T10:15:59Z</time>
      </trkpt>
      <trkpt lat="48.60083" lon="1.97492">
        <ele>119.82</ele>
        <time>2019-12-19T10:16:00Z</time>
      </trkpt>
      <trkpt lat="48.60082" lon="1.97494">
        <ele>119.82</ele>
        <time>2019-12-19T10:16:01Z</time>
      </trkpt>
      <trkpt lat="48.60081" lon="1.97496">
        <ele>119.34</ele>
        <time>2019-12-19T10:16:02Z</time>
      </trkpt>
      <trkpt lat="48.6008" lon="1.97499">
        <ele>119.82</ele>
        <time>2019-12-19T10:16:03Z</time>
      </trkpt>
      <trkpt lat="48.60079" lon="1.97501">
        <ele>119.34</ele>
        <time>2019-12-19T10:16:04Z</time>
      </trkpt>
      <trkpt lat="48.60079" lon="1.97504">
        <ele>119.34</ele>
        <time>2019-12-19T10:16:05Z</time>
      </trkpt>
      <trkpt lat="48.60078" lon="1.97506">
        <ele>118.86</ele>
        <time>2019-12-19T10:16:06Z</time>
      </trkpt>
      <trkpt lat="48.60077" lon="1.97508">
        <ele>118.86</ele>
        <time>2019-12-19T10:16:07Z</time>
      </trkpt>
      <trkpt lat="48.60077" lon="1.97509">
        <ele>118.86</ele>
        <time>2019-12-19T10:16:08Z</time>
      </trkpt>
      <trkpt lat="48.60076" lon="1.97511">
        <ele>118.38</ele>
        <time>2019-12-19T10:16:09Z</time>
      </trkpt>
      <trkpt lat="48.60075" lon="1.97513">
        <ele>118.86</ele>
        <time>2019-12-19T10:16:10Z</time>
      </trkpt>
      <trkpt lat="48.60074" lon="1.97514">
        <ele>118.86</ele>
        <time>2019-12-19T10:16:11Z</time>
      </trkpt>
      <trkpt lat="48.60073" lon="1.97516">
        <ele>118.38</ele>
        <time>2019-12-19T10:16:12Z</time>
      </trkpt>
      <trkpt lat="48.60072" lon="1.97517">
        <ele>118.38</ele>
        <time>2019-12-19T10:16:13Z</time>
      </trkpt>
      <trkpt lat="48.60071" lon="1.97518">
        <ele>117.9</ele>
        <time>2019-12-19T10:16:14Z</time>
      </trkpt>
      <trkpt lat="48.60071" lon="1.97519">
        <ele>117.9</ele>
        <time>2019-12-19T10:16:15Z</time>
      </trkpt>
      <trkpt lat="48.6007" lon="1.97522">
        <ele>117.9</ele>
        <time>2019-12-19T10:16:16Z</time>
      </trkpt>
      <trkpt lat="48.60069" lon="1.97524">
        <ele>117.9</ele>
        <time>2019-12-19T10:16:17Z</time>
      </trkpt>
      <trkpt lat="48.60068" lon="1.97527">
        <ele>117.9</ele>
        <time>2019-12-19T10:16:18Z</time>
      </trkpt>
      <trkpt lat="48.60066" lon="1.9753">
        <ele>117.9</ele>
        <time>2019-12-19T10:16:19Z</time>
      </trkpt>
      <trkpt lat="48.60065" lon="1.97533">
        <ele>117.9</ele>
        <time>2019-12-19T10:16:20Z</time>
      </trkpt>
      <trkpt lat="48.60064" lon="1.97535">
        <ele>117.9</ele>
        <time>2019-12-19T10:16:21Z</time>
      </trkpt>
      <trkpt lat="48.60062" lon="1.97538">
        <ele>117.42</ele>
        <time>2019-12-19T10:16:22Z</time>
      </trkpt>
      <trkpt lat="48.60062" lon="1.9754">
        <ele>117.42</ele>
        <time>2019-12-19T10:16:23Z</time>
      </trkpt>
      <trkpt lat="48.60061" lon="1.97542">
        <ele>117.42</ele>
        <time>2019-12-19T10:16:24Z</time>
      </trkpt>
      <trkpt lat="48.6006" lon="1.97543">
        <ele>116.94</ele>
        <time>2019-12-19T10:16:25Z</time>
      </trkpt>
      <trkpt lat="48.60059" lon="1.97544">
        <ele>117.42</ele>
        <time>2019-12-19T10:16:26Z</time>
      </trkpt>
      <trkpt lat="48.60058" lon="1.97545">
        <ele>117.42</ele>
        <time>2019-12-19T10:16:27Z</time>
      </trkpt>
      <trkpt lat="48.60056" lon="1.97547">
        <ele>117.42</ele>
        <time>2019-12-19T10:16:28Z</time>
      </trkpt>
      <trkpt lat="48.60055" lon="1.97549">
        <ele>116.94</ele>
        <time>2019-12-19T10:16:29Z</time>
      </trkpt>
      <trkpt lat="48.60054" lon="1.97551">
        <ele>116.94</ele>
        <time>2019-12-19T10:16:30Z</time>
      </trkpt>
      <trkpt lat="48.60052" lon="1.97552">
        <ele>116.94</ele>
        <time>2019-12-19T10:16:31Z</time>
      </trkpt>
      <trkpt lat="48.60052" lon="1.97554">
        <ele>116.94</ele>
        <time>2019-12-19T10:16:32Z</time>
      </trkpt>
      <trkpt lat="48.60051" lon="1.97556">
        <ele>116.94</ele>
        <time>2019-12-19T10:16:33Z</time>
      </trkpt>
      <trkpt lat="48.60051" lon="1.97557">
        <ele>116.46</ele>
        <time>2019-12-19T10:16:34Z</time>
      </trkpt>
      <trkpt lat="48.60051" lon="1.97559">
        <ele>116.46</ele>
        <time>2019-12-19T10:16:35Z</time>
      </trkpt>
      <trkpt lat="48.6005" lon="1.97561">
        <ele>115.98</ele>
        <time>2019-12-19T10:16:36Z</time>
      </trkpt>
      <trkpt lat="48.60049" lon="1.97562">
        <ele>116.46</ele>
        <time>2019-12-19T10:16:37Z</time>
      </trkpt>
      <trkpt lat="48.60048" lon="1.97563">
        <ele>115.98</ele>
        <time>2019-12-19T10:16:38Z</time>
      </trkpt>
      <trkpt lat="48.60047" lon="1.97565">
        <ele>115.98</ele>
        <time>2019-12-19T10:16:39Z</time>
      </trkpt>
      <trkpt lat="48.60046" lon="1.97566">
        <ele>115.98</ele>
        <time>2019-12-19T10:16:40Z</time>
      </trkpt>
      <trkpt lat="48.60045" lon="1.97568">
        <ele>115.98</ele>
        <time>2019-12-19T10:16:41Z</time>
      </trkpt>
      <trkpt lat="48.60044" lon="1.9757">
        <ele>115.98</ele>
        <time>2019-12-19T10:16:42Z</time>
      </trkpt>
      <trkpt lat="48.60043" lon="1.97571">
        <ele>115.98</ele>
        <time>2019-12-19T10:16:43Z</time>
      </trkpt>
      <trkpt lat="48.60043" lon="1.97573">
        <ele>115.5</ele>
        <time>2019-12-19T10:16:44Z</time>
      </trkpt>
      <trkpt lat="48.60043" lon="1.97574">
        <ele>115.98</ele>
        <time>2019-12-19T10:16:45Z</time>
      </trkpt>
      <trkpt lat="48.60043" lon="1.97575">
        <ele>115.98</ele>
        <time>2019-12-19T10:16:46Z</time>
      </trkpt>
      <trkpt lat="48.60043" lon="1.97577">
        <ele>115.98</ele>
        <time>2019-12-19T10:16:47Z</time>
      </trkpt>
      <trkpt lat="48.60042" lon="1.97578">
        <ele>115.98</ele>
        <time>2019-12-19T10:16:48Z</time>
      </trkpt>
      <trkpt lat="48.60041" lon="1.97581">
        <ele>115.5</ele>
        <time>2019-12-19T10:16:49Z</time>
      </trkpt>
      <trkpt lat="48.60041" lon="1.97583">
        <ele>115.98</ele>
        <time>2019-12-19T10:16:50Z</time>
      </trkpt>
      <trkpt lat="48.6004" lon="1.97585">
        <ele>115.5</ele>
        <time>2019-12-19T10:16:51Z</time>
      </trkpt>
      <trkpt lat="48.60039" lon="1.97587">
        <ele>115.5</ele>
        <time>2019-12-19T10:16:52Z</time>
      </trkpt>
      <trkpt lat="48.60039" lon="1.97588">
        <ele>115.98</ele>
        <time>2019-12-19T10:16:53Z</time>
      </trkpt>
      <trkpt lat="48.60038" lon="1.9759">
        <ele>115.98</ele>
        <time>2019-12-19T10:16:54Z</time>
      </trkpt>
      <trkpt lat="48.60037" lon="1.97592">
        <ele>115.98</ele>
        <time>2019-12-19T10:16:55Z</time>
      </trkpt>
      <trkpt lat="48.60036" lon="1.97594">
        <ele>115.5</ele>
        <time>2019-12-19T10:16:56Z</time>
      </trkpt>
      <trkpt lat="48.60036" lon="1.97596">
        <ele>115.5</ele>
        <time>2019-12-19T10:16:57Z</time>
      </trkpt>
      <trkpt lat="48.60035" lon="1.97597">
        <ele>115.5</ele>
        <time>2019-12-19T10:16:58Z</time>
      </trkpt>
      <trkpt lat="48.60034" lon="1.97599">
        <ele>115.5</ele>
        <time>2019-12-19T10:16:59Z</time>
      </trkpt>
      <trkpt lat="48.60034" lon="1.97601">
        <ele>115.5</ele>
        <time>2019-12-19T10:17:00Z</time>
      </trkpt>
      <trkpt lat="48.60033" lon="1.97602">
        <ele>115.5</ele>
        <time>2019-12-19T10:17:01Z</time>
      </trkpt>
      <trkpt lat="48.60032" lon="1.97603">
        <ele>115.5</ele>
        <time>2019-12-19T10:17:02Z</time>
      </trkpt>
      <trkpt lat="48.60031" lon="1.97605">
        <ele>115.5</ele>
        <time>2019-12-19T10:17:03Z</time>
      </trkpt>
      <trkpt lat="48.6003" lon="1.97606">
        <ele>115.98</ele>
        <time>2019-12-19T10:17:04Z</time>
      </trkpt>
      <trkpt lat="48.60028" lon="1.97607">
        <ele>115.98</ele>
        <time>2019-12-19T10:17:05Z</time>
      </trkpt>
      <trkpt lat="48.60028" lon="1.97609">
        <ele>115.5</ele>
        <time>2019-12-19T10:17:06Z</time>
      </trkpt>
      <trkpt lat="48.60027" lon="1.97611">
        <ele>115.5</ele>
        <time>2019-12-19T10:17:07Z</time>
      </trkpt>
      <trkpt lat="48.60026" lon="1.97613">
        <ele>115.5</ele>
        <time>2019-12-19T10:17:08Z</time>
      </trkpt>
      <trkpt lat="48.60025" lon="1.97615">
        <ele>115.5</ele>
        <time>2019-12-19T10:17:09Z</time>
      </trkpt>
      <trkpt lat="48.60024" lon="1.97617">
        <ele>115.01</ele>
        <time>2019-12-19T10:17:10Z</time>
      </trkpt>
      <trkpt lat="48.60024" lon="1.97619">
        <ele>115.5</ele>
        <time>2019-12-19T10:17:11Z</time>
      </trkpt>
      <trkpt lat="48.60023" lon="1.97621">
        <ele>115.01</ele>
        <time>2019-12-19T10:17:12Z</time>
      </trkpt>
      <trkpt lat="48.60023" lon="1.97622">
        <ele>115.01</ele>
        <time>2019-12-19T10:17:13Z</time>
      </trkpt>
      <trkpt lat="48.60022" lon="1.97623">
        <ele>115.01</ele>
        <time>2019-12-19T10:17:14Z</time>
      </trkpt>
      <trkpt lat="48.6002" lon="1.97625">
        <ele>115.01</ele>
        <time>2019-12-19T10:17:15Z</time>
      </trkpt>
      <trkpt lat="48.60018" lon="1.97627">
        <ele>115.01</ele>
        <time>2019-12-19T10:17:16Z</time>
      </trkpt>
      <trkpt lat="48.60017" lon="1.97628">
        <ele>115.01</ele>
        <time>2019-12-19T10:17:17Z</time>
      </trkpt>
      <trkpt lat="48.60016" lon="1.97631">
        <ele>114.53</ele>
        <time>2019-12-19T10:17:18Z</time>
      </trkpt>
      <trkpt lat="48.60015" lon="1.97633">
        <ele>114.53</ele>
        <time>2019-12-19T10:17:19Z</time>
      </trkpt>
      <trkpt lat="48.60014" lon="1.97634">
        <ele>114.05</ele>
        <time>2019-12-19T10:17:20Z</time>
      </trkpt>
      <trkpt lat="48.60013" lon="1.97636">
        <ele>114.53</ele>
        <time>2019-12-19T10:17:21Z</time>
      </trkpt>
      <trkpt lat="48.60013" lon="1.97638">
        <ele>114.05</ele>
        <time>2019-12-19T10:17:22Z</time>
      </trkpt>
      <trkpt lat="48.60012" lon="1.9764">
        <ele>113.57</ele>
        <time>2019-12-19T10:17:23Z</time>
      </trkpt>
      <trkpt lat="48.60011" lon="1.97643">
        <ele>113.57</ele>
        <time>2019-12-19T10:17:24Z</time>
      </trkpt>
      <trkpt lat="48.6001" lon="1.97645">
        <ele>113.57</ele>
        <time>2019-12-19T10:17:25Z</time>
      </trkpt>
      <trkpt lat="48.60009" lon="1.97648">
        <ele>113.57</ele>
        <time>2019-12-19T10:17:26Z</time>
      </trkpt>
      <trkpt lat="48.60008" lon="1.97651">
        <ele>113.57</ele>
        <time>2019-12-19T10:17:27Z</time>
      </trkpt>
      <trkpt lat="48.60007" lon="1.97654">
        <ele>113.57</ele>
        <time>2019-12-19T10:17:28Z</time>
      </trkpt>
      <trkpt lat="48.60005" lon="1.97656">
        <ele>113.57</ele>
        <time>2019-12-19T10:17:29Z</time>
      </trkpt>
      <trkpt lat="48.60004" lon="1.97658">
        <ele>113.09</ele>
        <time>2019-12-19T10:17:30Z</time>
      </trkpt>
      <trkpt lat="48.60003" lon="1.9766">
        <ele>113.57</ele>
        <time>2019-12-19T10:17:31Z</time>
      </trkpt>
      <trkpt lat="48.60002" lon="1.97663">
        <ele>113.09</ele>
        <time>2019-12-19T10:17:32Z</time>
      </trkpt>
      <trkpt lat="48.60001" lon="1.97665">
        <ele>113.09</ele>
        <time>2019-12-19T10:17:33Z</time>
      </trkpt>
      <trkpt lat="48.6" lon="1.97667">
        <ele>113.09</ele>
        <time>2019-12-19T10:17:34Z</time>
      </trkpt>
      <trkpt lat="48.59999" lon="1.97669">
        <ele>112.61</ele>
        <time>2019-12-19T10:17:35Z</time>
      </trkpt>
      <trkpt lat="48.59998" lon="1.97672">
        <ele>112.61</ele>
        <time>2019-12-19T10:17:36Z</time>
      </trkpt>
      <trkpt lat="48.59996" lon="1.97674">
        <ele>112.61</ele>
        <time>2019-12-19T10:17:37Z</time>
      </trkpt>
      <trkpt lat="48.59995" lon="1.97676">
        <ele>112.13</ele>
        <time>2019-12-19T10:17:38Z</time>
      </trkpt>
      <trkpt lat="48.59994" lon="1.97679">
        <ele>112.13</ele>
        <time>2019-12-19T10:17:39Z</time>
      </trkpt>
      <trkpt lat="48.59993" lon="1.97681">
        <ele>112.13</ele>
        <time>2019-12-19T10:17:40Z</time>
      </trkpt>
      <trkpt lat="48.59992" lon="1.97682">
        <ele>112.13</ele>
        <time>2019-12-19T10:17:41Z</time>
      </trkpt>
      <trkpt lat="48.59991" lon="1.97684">
        <ele>113.09</ele>
        <time>2019-12-19T10:17:42Z</time>
      </trkpt>
      <trkpt lat="48.59991" lon="1.97686">
        <ele>111.65</ele>
        <time>2019-12-19T10:17:43Z</time>
      </trkpt>
      <trkpt lat="48.5999" lon="1.97688">
        <ele>111.65</ele>
        <time>2019-12-19T10:17:44Z</time>
      </trkpt>
      <trkpt lat="48.59989" lon="1.97689">
        <ele>111.65</ele>
        <time>2019-12-19T10:17:45Z</time>
      </trkpt>
      <trkpt lat="48.59989" lon="1.9769">
        <ele>111.65</ele>
        <time>2019-12-19T10:17:46Z</time>
      </trkpt>
      <trkpt lat="48.59988" lon="1.97692">
        <ele>111.17</ele>
        <time>2019-12-19T10:17:47Z</time>
      </trkpt>
      <trkpt lat="48.59987" lon="1.97694">
        <ele>111.17</ele>
        <time>2019-12-19T10:17:48Z</time>
      </trkpt>
      <trkpt lat="48.59986" lon="1.97695">
        <ele>111.17</ele>
        <time>2019-12-19T10:17:49Z</time>
      </trkpt>
      <trkpt lat="48.59985" lon="1.97697">
        <ele>111.17</ele>
        <time>2019-12-19T10:17:50Z</time>
      </trkpt>
      <trkpt lat="48.59984" lon="1.97698">
        <ele>111.17</ele>
        <time>2019-12-19T10:17:51Z</time>
      </trkpt>
      <trkpt lat="48.59983" lon="1.97699">
        <ele>110.69</ele>
        <time>2019-12-19T10:17:52Z</time>
      </trkpt>
      <trkpt lat="48.59982" lon="1.97699">
        <ele>111.17</ele>
        <time>2019-12-19T10:17:53Z</time>
      </trkpt>
      <trkpt lat="48.59981" lon="1.97699">
        <ele>110.69</ele>
        <time>2019-12-19T10:17:54Z</time>
      </trkpt>
      <trkpt lat="48.5998" lon="1.97699">
        <ele>110.69</ele>
        <time>2019-12-19T10:17:55Z</time>
      </trkpt>
      <trkpt lat="48.59978" lon="1.97699">
        <ele>111.17</ele>
        <time>2019-12-19T10:17:56Z</time>
      </trkpt>
      <trkpt lat="48.59977" lon="1.97699">
        <ele>111.17</ele>
        <time>2019-12-19T10:17:57Z</time>
      </trkpt>
      <trkpt lat="48.59975" lon="1.97699">
        <ele>111.17</ele>
        <time>2019-12-19T10:17:58Z</time>
      </trkpt>
      <trkpt lat="48.59973" lon="1.97699">
        <ele>111.17</ele>
        <time>2019-12-19T10:17:59Z</time>
      </trkpt>
      <trkpt lat="48.59972" lon="1.97698">
        <ele>111.17</ele>
        <time>2019-12-19T10:18:00Z</time>
      </trkpt>
      <trkpt lat="48.59971" lon="1.97698">
        <ele>110.69</ele>
        <time>2019-12-19T10:18:01Z</time>
      </trkpt>
      <trkpt lat="48.5997" lon="1.97699">
        <ele>111.17</ele>
        <time>2019-12-19T10:18:02Z</time>
      </trkpt>
      <trkpt lat="48.59969" lon="1.97699">
        <ele>110.69</ele>
        <time>2019-12-19T10:18:03Z</time>
      </trkpt>
      <trkpt lat="48.59968" lon="1.97699">
        <ele>111.65</ele>
        <time>2019-12-19T10:18:04Z</time>
      </trkpt>
      <trkpt lat="48.59967" lon="1.97698">
        <ele>111.17</ele>
        <time>2019-12-19T10:18:05Z</time>
      </trkpt>
      <trkpt lat="48.59966" lon="1.97697">
        <ele>111.17</ele>
        <time>2019-12-19T10:18:06Z</time>
      </trkpt>
      <trkpt lat="48.59965" lon="1.97696">
        <ele>111.17</ele>
        <time>2019-12-19T10:18:07Z</time>
      </trkpt>
      <trkpt lat="48.59964" lon="1.97695">
        <ele>111.17</ele>
        <time>2019-12-19T10:18:08Z</time>
      </trkpt>
      <trkpt lat="48.59963" lon="1.97694">
        <ele>111.17</ele>
        <time>2019-12-19T10:18:09Z</time>
      </trkpt>
      <trkpt lat="48.59962" lon="1.97693">
        <ele>111.65</ele>
        <time>2019-12-19T10:18:10Z</time>
      </trkpt>
      <trkpt lat="48.59961" lon="1.97691">
        <ele>111.17</ele>
        <time>2019-12-19T10:18:11Z</time>
      </trkpt>
      <trkpt lat="48.5996" lon="1.9769">
        <ele>111.17</ele>
        <time>2019-12-19T10:18:12Z</time>
      </trkpt>
      <trkpt lat="48.59959" lon="1.97688">
        <ele>111.17</ele>
        <time>2019-12-19T10:18:13Z</time>
      </trkpt>
      <trkpt lat="48.59958" lon="1.97687">
        <ele>111.17</ele>
        <time>2019-12-19T10:18:14Z</time>
      </trkpt>
      <trkpt lat="48.59957" lon="1.97685">
        <ele>111.65</ele>
        <time>2019-12-19T10:18:15Z</time>
      </trkpt>
      <trkpt lat="48.59956" lon="1.97683">
        <ele>111.17</ele>
        <time>2019-12-19T10:18:16Z</time>
      </trkpt>
      <trkpt lat="48.59954" lon="1.97681">
        <ele>111.17</ele>
        <time>2019-12-19T10:18:17Z</time>
      </trkpt>
      <trkpt lat="48.59953" lon="1.97679">
        <ele>111.17</ele>
        <time>2019-12-19T10:18:18Z</time>
      </trkpt>
      <trkpt lat="48.59952" lon="1.97678">
        <ele>111.17</ele>
        <time>2019-12-19T10:18:19Z</time>
      </trkpt>
      <trkpt lat="48.59951" lon="1.97677">
        <ele>111.65</ele>
        <time>2019-12-19T10:18:20Z</time>
      </trkpt>
      <trkpt lat="48.59951" lon="1.97675">
        <ele>111.65</ele>
        <time>2019-12-19T10:18:21Z</time>
      </trkpt>
      <trkpt lat="48.59951" lon="1.97674">
        <ele>111.17</ele>
        <time>2019-12-19T10:18:22Z</time>
      </trkpt>
      <trkpt lat="48.59951" lon="1.97672">
        <ele>111.65</ele>
        <time>2019-12-19T10:18:23Z</time>
      </trkpt>
      <trkpt lat="48.5995" lon="1.97671">
        <ele>111.65</ele>
        <time>2019-12-19T10:18:24Z</time>
      </trkpt>
      <trkpt lat="48.5995" lon="1.9767">
        <ele>111.65</ele>
        <time>2019-12-19T10:18:25Z</time>
      </trkpt>
      <trkpt lat="48.5995" lon="1.97669">
        <ele>112.13</ele>
        <time>2019-12-19T10:18:26Z</time>
      </trkpt>
      <trkpt lat="48.59949" lon="1.97668">
        <ele>112.13</ele>
        <time>2019-12-19T10:18:27Z</time>
      </trkpt>
      <trkpt lat="48.59948" lon="1.97667">
        <ele>113.57</ele>
        <time>2019-12-19T10:18:28Z</time>
      </trkpt>
      <trkpt lat="48.59947" lon="1.97666">
        <ele>112.61</ele>
        <time>2019-12-19T10:18:29Z</time>
      </trkpt>
      <trkpt lat="48.59946" lon="1.97665">
        <ele>112.61</ele>
        <time>2019-12-19T10:18:30Z</time>
      </trkpt>
      <trkpt lat="48.59945" lon="1.97663">
        <ele>113.09</ele>
        <time>2019-12-19T10:18:31Z</time>
      </trkpt>
      <trkpt lat="48.59943" lon="1.97662">
        <ele>112.61</ele>
        <time>2019-12-19T10:18:32Z</time>
      </trkpt>
      <trkpt lat="48.59943" lon="1.97659">
        <ele>112.61</ele>
        <time>2019-12-19T10:18:33Z</time>
      </trkpt>
      <trkpt lat="48.59942" lon="1.97657">
        <ele>113.09</ele>
        <time>2019-12-19T10:18:34Z</time>
      </trkpt>
      <trkpt lat="48.59941" lon="1.97656">
        <ele>113.57</ele>
        <time>2019-12-19T10:18:35Z</time>
      </trkpt>
      <trkpt lat="48.5994" lon="1.97654">
        <ele>113.57</ele>
        <time>2019-12-19T10:18:36Z</time>
      </trkpt>
      <trkpt lat="48.59939" lon="1.97653">
        <ele>113.09</ele>
        <time>2019-12-19T10:18:37Z</time>
      </trkpt>
      <trkpt lat="48.59938" lon="1.97651">
        <ele>113.57</ele>
        <time>2019-12-19T10:18:38Z</time>
      </trkpt>
      <trkpt lat="48.59937" lon="1.97649">
        <ele>113.57</ele>
        <time>2019-12-19T10:18:39Z</time>
      </trkpt>
      <trkpt lat="48.59936" lon="1.97648">
        <ele>113.57</ele>
        <time>2019-12-19T10:18:40Z</time>
      </trkpt>
      <trkpt lat="48.59935" lon="1.97647">
        <ele>113.57</ele>
        <time>2019-12-19T10:18:41Z</time>
      </trkpt>
      <trkpt lat="48.59934" lon="1.97645">
        <ele>114.05</ele>
        <time>2019-12-19T10:18:42Z</time>
      </trkpt>
      <trkpt lat="48.59934" lon="1.97644">
        <ele>113.57</ele>
        <time>2019-12-19T10:18:43Z</time>
      </trkpt>
      <trkpt lat="48.59933" lon="1.97642">
        <ele>114.53</ele>
        <time>2019-12-19T10:18:44Z</time>
      </trkpt>
      <trkpt lat="48.59932" lon="1.9764">
        <ele>114.53</ele>
        <time>2019-12-19T10:18:45Z</time>
      </trkpt>
      <trkpt lat="48.59932" lon="1.97638">
        <ele>114.05</ele>
        <time>2019-12-19T10:18:46Z</time>
      </trkpt>
      <trkpt lat="48.59931" lon="1.97636">
        <ele>114.05</ele>
        <time>2019-12-19T10:18:47Z</time>
      </trkpt>
      <trkpt lat="48.59931" lon="1.97634">
        <ele>114.05</ele>
        <time>2019-12-19T10:18:48Z</time>
      </trkpt>
      <trkpt lat="48.5993" lon="1.97631">
        <ele>114.05</ele>
        <time>2019-12-19T10:18:49Z</time>
      </trkpt>
      <trkpt lat="48.59929" lon="1.97628">
        <ele>114.53</ele>
        <time>2019-12-19T10:18:50Z</time>
      </trkpt>
      <trkpt lat="48.59927" lon="1.97625">
        <ele>114.53</ele>
        <time>2019-12-19T10:18:51Z</time>
      </trkpt>
      <trkpt lat="48.59926" lon="1.97623">
        <ele>115.01</ele>
        <time>2019-12-19T10:18:52Z</time>
      </trkpt>
      <trkpt lat="48.59924" lon="1.97621">
        <ele>115.01</ele>
        <time>2019-12-19T10:18:53Z</time>
      </trkpt>
      <trkpt lat="48.59923" lon="1.97619">
        <ele>115.01</ele>
        <time>2019-12-19T10:18:54Z</time>
      </trkpt>
      <trkpt lat="48.59922" lon="1.97617">
        <ele>115.01</ele>
        <time>2019-12-19T10:18:55Z</time>
      </trkpt>
      <trkpt lat="48.59921" lon="1.97615">
        <ele>115.01</ele>
        <time>2019-12-19T10:18:56Z</time>
      </trkpt>
      <trkpt lat="48.59921" lon="1.97613">
        <ele>115.01</ele>
        <time>2019-12-19T10:18:57Z</time>
      </trkpt>
      <trkpt lat="48.59921" lon="1.97611">
        <ele>115.5</ele>
        <time>2019-12-19T10:18:58Z</time>
      </trkpt>
      <trkpt lat="48.59921" lon="1.97609">
        <ele>115.98</ele>
        <time>2019-12-19T10:18:59Z</time>
      </trkpt>
      <trkpt lat="48.5992" lon="1.97608">
        <ele>115.5</ele>
        <time>2019-12-19T10:19:00Z</time>
      </trkpt>
      <trkpt lat="48.59919" lon="1.97607">
        <ele>115.5</ele>
        <time>2019-12-19T10:19:01Z</time>
      </trkpt>
      <trkpt lat="48.59919" lon="1.97605">
        <ele>115.5</ele>
        <time>2019-12-19T10:19:02Z</time>
      </trkpt>
      <trkpt lat="48.59919" lon="1.97604">
        <ele>115.01</ele>
        <time>2019-12-19T10:19:03Z</time>
      </trkpt>
      <trkpt lat="48.59918" lon="1.97602">
        <ele>115.5</ele>
        <time>2019-12-19T10:19:04Z</time>
      </trkpt>
      <trkpt lat="48.59918" lon="1.97601">
        <ele>115.5</ele>
        <time>2019-12-19T10:19:05Z</time>
      </trkpt>
      <trkpt lat="48.59917" lon="1.97599">
        <ele>115.98</ele>
        <time>2019-12-19T10:19:06Z</time>
      </trkpt>
      <trkpt lat="48.59917" lon="1.97598">
        <ele>115.98</ele>
        <time>2019-12-19T10:19:07Z</time>
      </trkpt>
      <trkpt lat="48.59917" lon="1.97597">
        <ele>115.98</ele>
        <time>2019-12-19T10:19:08Z</time>
      </trkpt>
      <trkpt lat="48.59916" lon="1.97595">
        <ele>115.5</ele>
        <time>2019-12-19T10:19:09Z</time>
      </trkpt>
      <trkpt lat="48.59915" lon="1.97593">
        <ele>115.5</ele>
        <time>2019-12-19T10:19:10Z</time>
      </trkpt>
      <trkpt lat="48.59913" lon="1.97591">
        <ele>115.5</ele>
        <time>2019-12-19T10:19:11Z</time>
      </trkpt>
      <trkpt lat="48.59912" lon="1.9759">
        <ele>115.5</ele>
        <time>2019-12-19T10:19:12Z</time>
      </trkpt>
      <trkpt lat="48.59911" lon="1.97588">
        <ele>115.5</ele>
        <time>2019-12-19T10:19:13Z</time>
      </trkpt>
      <trkpt lat="48.5991" lon="1.97586">
        <ele>115.98</ele>
        <time>2019-12-19T10:19:14Z</time>
      </trkpt>
      <trkpt lat="48.59909" lon="1.97584">
        <ele>116.46</ele>
        <time>2019-12-19T10:19:15Z</time>
      </trkpt>
      <trkpt lat="48.59907" lon="1.97583">
        <ele>116.46</ele>
        <time>2019-12-19T10:19:16Z</time>
      </trkpt>
      <trkpt lat="48.59906" lon="1.97581">
        <ele>115.98</ele>
        <time>2019-12-19T10:19:17Z</time>
      </trkpt>
      <trkpt lat="48.59905" lon="1.97579">
        <ele>116.46</ele>
        <time>2019-12-19T10:19:18Z</time>
      </trkpt>
      <trkpt lat="48.59904" lon="1.97577">
        <ele>116.46</ele>
        <time>2019-12-19T10:19:19Z</time>
      </trkpt>
      <trkpt lat="48.59903" lon="1.97576">
        <ele>116.46</ele>
        <time>2019-12-19T10:19:20Z</time>
      </trkpt>
      <trkpt lat="48.59902" lon="1.97574">
        <ele>116.46</ele>
        <time>2019-12-19T10:19:21Z</time>
      </trkpt>
      <trkpt lat="48.599" lon="1.97573">
        <ele>116.46</ele>
        <time>2019-12-19T10:19:22Z</time>
      </trkpt>
      <trkpt lat="48.59899" lon="1.97571">
        <ele>116.46</ele>
        <time>2019-12-19T10:19:23Z</time>
      </trkpt>
      <trkpt lat="48.59898" lon="1.9757">
        <ele>116.46</ele>
        <time>2019-12-19T10:19:24Z</time>
      </trkpt>
      <trkpt lat="48.59897" lon="1.97568">
        <ele>116.94</ele>
        <time>2019-12-19T10:19:25Z</time>
      </trkpt>
      <trkpt lat="48.59896" lon="1.97567">
        <ele>116.94</ele>
        <time>2019-12-19T10:19:26Z</time>
      </trkpt>
      <trkpt lat="48.59895" lon="1.97565">
        <ele>116.94</ele>
        <time>2019-12-19T10:19:27Z</time>
      </trkpt>
      <trkpt lat="48.59893" lon="1.97563">
        <ele>116.94</ele>
        <time>2019-12-19T10:19:28Z</time>
      </trkpt>
      <trkpt lat="48.59892" lon="1.97561">
        <ele>116.94</ele>
        <time>2019-12-19T10:19:29Z</time>
      </trkpt>
      <trkpt lat="48.59891" lon="1.97559">
        <ele>117.42</ele>
        <time>2019-12-19T10:19:30Z</time>
      </trkpt>
      <trkpt lat="48.59889" lon="1.97557">
        <ele>116.94</ele>
        <time>2019-12-19T10:19:31Z</time>
      </trkpt>
      <trkpt lat="48.59888" lon="1.97555">
        <ele>116.94</ele>
        <time>2019-12-19T10:19:32Z</time>
      </trkpt>
      <trkpt lat="48.59887" lon="1.97553">
        <ele>116.94</ele>
        <time>2019-12-19T10:19:33Z</time>
      </trkpt>
      <trkpt lat="48.59887" lon="1.97551">
        <ele>117.42</ele>
        <time>2019-12-19T10:19:34Z</time>
      </trkpt>
      <trkpt lat="48.59886" lon="1.9755">
        <ele>117.42</ele>
        <time>2019-12-19T10:19:35Z</time>
      </trkpt>
      <trkpt lat="48.59885" lon="1.97548">
        <ele>117.42</ele>
        <time>2019-12-19T10:19:36Z</time>
      </trkpt>
      <trkpt lat="48.59885" lon="1.97546">
        <ele>117.42</ele>
        <time>2019-12-19T10:19:37Z</time>
      </trkpt>
      <trkpt lat="48.59884" lon="1.97544">
        <ele>117.42</ele>
        <time>2019-12-19T10:19:38Z</time>
      </trkpt>
      <trkpt lat="48.59883" lon="1.97542">
        <ele>117.42</ele>
        <time>2019-12-19T10:19:39Z</time>
      </trkpt>
      <trkpt lat="48.59882" lon="1.97539">
        <ele>116.94</ele>
        <time>2019-12-19T10:19:40Z</time>
      </trkpt>
      <trkpt lat="48.59881" lon="1.97538">
        <ele>116.94</ele>
        <time>2019-12-19T10:19:41Z</time>
      </trkpt>
      <trkpt lat="48.5988" lon="1.97535">
        <ele>118.86</ele>
        <time>2019-12-19T10:19:42Z</time>
      </trkpt>
      <trkpt lat="48.59879" lon="1.97532">
        <ele>117.42</ele>
        <time>2019-12-19T10:19:43Z</time>
      </trkpt>
      <trkpt lat="48.59878" lon="1.97528">
        <ele>117.42</ele>
        <time>2019-12-19T10:19:44Z</time>
      </trkpt>
      <trkpt lat="48.59878" lon="1.97526">
        <ele>117.42</ele>
        <time>2019-12-19T10:19:45Z</time>
      </trkpt>
      <trkpt lat="48.59877" lon="1.97524">
        <ele>117.42</ele>
        <time>2019-12-19T10:19:46Z</time>
      </trkpt>
      <trkpt lat="48.59876" lon="1.97522">
        <ele>117.42</ele>
        <time>2019-12-19T10:19:47Z</time>
      </trkpt>
      <trkpt lat="48.59875" lon="1.97519">
        <ele>117.42</ele>
        <time>2019-12-19T10:19:48Z</time>
      </trkpt>
      <trkpt lat="48.59874" lon="1.97518">
        <ele>117.42</ele>
        <time>2019-12-19T10:19:49Z</time>
      </trkpt>
      <trkpt lat="48.59874" lon="1.97516">
        <ele>117.42</ele>
        <time>2019-12-19T10:19:50Z</time>
      </trkpt>
      <trkpt lat="48.59873" lon="1.97515">
        <ele>117.42</ele>
        <time>2019-12-19T10:19:51Z</time>
      </trkpt>
      <trkpt lat="48.59871" lon="1.97512">
        <ele>117.9</ele>
        <time>2019-12-19T10:19:52Z</time>
      </trkpt>
      <trkpt lat="48.5987" lon="1.9751">
        <ele>117.42</ele>
        <time>2019-12-19T10:19:53Z</time>
      </trkpt>
      <trkpt lat="48.5987" lon="1.97507">
        <ele>117.42</ele>
        <time>2019-12-19T10:19:54Z</time>
      </trkpt>
      <trkpt lat="48.59869" lon="1.97505">
        <ele>117.9</ele>
        <time>2019-12-19T10:19:55Z</time>
      </trkpt>
      <trkpt lat="48.59868" lon="1.97502">
        <ele>117.9</ele>
        <time>2019-12-19T10:19:56Z</time>
      </trkpt>
      <trkpt lat="48.59867" lon="1.975">
        <ele>117.9</ele>
        <time>2019-12-19T10:19:57Z</time>
      </trkpt>
      <trkpt lat="48.59866" lon="1.97497">
        <ele>117.9</ele>
        <time>2019-12-19T10:19:58Z</time>
      </trkpt>
      <trkpt lat="48.59865" lon="1.97495">
        <ele>117.9</ele>
        <time>2019-12-19T10:19:59Z</time>
      </trkpt>
      <trkpt lat="48.59864" lon="1.97494">
        <ele>117.9</ele>
        <time>2019-12-19T10:20:00Z</time>
      </trkpt>
      <trkpt lat="48.59864" lon="1.97493">
        <ele>118.38</ele>
        <time>2019-12-19T10:20:01Z</time>
      </trkpt>
      <trkpt lat="48.59863" lon="1.97491">
        <ele>118.38</ele>
        <time>2019-12-19T10:20:02Z</time>
      </trkpt>
      <trkpt lat="48.59863" lon="1.97488">
        <ele>118.38</ele>
        <time>2019-12-19T10:20:03Z</time>
      </trkpt>
      <trkpt lat="48.59862" lon="1.97486">
        <ele>118.38</ele>
        <time>2019-12-19T10:20:04Z</time>
      </trkpt>
      <trkpt lat="48.59862" lon="1.97485">
        <ele>118.38</ele>
        <time>2019-12-19T10:20:05Z</time>
      </trkpt>
      <trkpt lat="48.59861" lon="1.97482">
        <ele>118.38</ele>
        <time>2019-12-19T10:20:06Z</time>
      </trkpt>
      <trkpt lat="48.5986" lon="1.9748">
        <ele>118.86</ele>
        <time>2019-12-19T10:20:07Z</time>
      </trkpt>
      <trkpt lat="48.5986" lon="1.97478">
        <ele>118.38</ele>
        <time>2019-12-19T10:20:08Z</time>
      </trkpt>
      <trkpt lat="48.5986" lon="1.97475">
        <ele>118.86</ele>
        <time>2019-12-19T10:20:09Z</time>
      </trkpt>
      <trkpt lat="48.59859" lon="1.97473">
        <ele>118.86</ele>
        <time>2019-12-19T10:20:10Z</time>
      </trkpt>
      <trkpt lat="48.59858" lon="1.97472">
        <ele>118.86</ele>
        <time>2019-12-19T10:20:11Z</time>
      </trkpt>
      <trkpt lat="48.59857" lon="1.9747">
        <ele>119.34</ele>
        <time>2019-12-19T10:20:12Z</time>
      </trkpt>
      <trkpt lat="48.59856" lon="1.97468">
        <ele>119.34</ele>
        <time>2019-12-19T10:20:13Z</time>
      </trkpt>
      <trkpt lat="48.59855" lon="1.97467">
        <ele>119.34</ele>
        <time>2019-12-19T10:20:14Z</time>
      </trkpt>
      <trkpt lat="48.59853" lon="1.97466">
        <ele>118.86</ele>
        <time>2019-12-19T10:20:15Z</time>
      </trkpt>
      <trkpt lat="48.59852" lon="1.97465">
        <ele>118.86</ele>
        <time>2019-12-19T10:20:16Z</time>
      </trkpt>
      <trkpt lat="48.59851" lon="1.97464">
        <ele>119.34</ele>
        <time>2019-12-19T10:20:17Z</time>
      </trkpt>
      <trkpt lat="48.5985" lon="1.97462">
        <ele>119.82</ele>
        <time>2019-12-19T10:20:18Z</time>
      </trkpt>
      <trkpt lat="48.59849" lon="1.9746">
        <ele>120.3</ele>
        <time>2019-12-19T10:20:19Z</time>
      </trkpt>
      <trkpt lat="48.59848" lon="1.97457">
        <ele>119.82</ele>
        <time>2019-12-19T10:20:20Z</time>
      </trkpt>
      <trkpt lat="48.59848" lon="1.97456">
        <ele>119.34</ele>
        <time>2019-12-19T10:20:21Z</time>
      </trkpt>
      <trkpt lat="48.59847" lon="1.97454">
        <ele>120.3</ele>
        <time>2019-12-19T10:20:22Z</time>
      </trkpt>
      <trkpt lat="48.59846" lon="1.97453">
        <ele>119.82</ele>
        <time>2019-12-19T10:20:23Z</time>
      </trkpt>
      <trkpt lat="48.59845" lon="1.97452">
        <ele>120.3</ele>
        <time>2019-12-19T10:20:24Z</time>
      </trkpt>
      <trkpt lat="48.59844" lon="1.97451">
        <ele>120.78</ele>
        <time>2019-12-19T10:20:25Z</time>
      </trkpt>
      <trkpt lat="48.59844" lon="1.97449">
        <ele>120.3</ele>
        <time>2019-12-19T10:20:26Z</time>
      </trkpt>
      <trkpt lat="48.59843" lon="1.97447">
        <ele>120.3</ele>
        <time>2019-12-19T10:20:27Z</time>
      </trkpt>
      <trkpt lat="48.59843" lon="1.97446">
        <ele>120.3</ele>
        <time>2019-12-19T10:20:28Z</time>
      </trkpt>
      <trkpt lat="48.59842" lon="1.97444">
        <ele>120.3</ele>
        <time>2019-12-19T10:20:29Z</time>
      </trkpt>
      <trkpt lat="48.59841" lon="1.97442">
        <ele>120.3</ele>
        <time>2019-12-19T10:20:30Z</time>
      </trkpt>
      <trkpt lat="48.59841" lon="1.9744">
        <ele>120.3</ele>
        <time>2019-12-19T10:20:31Z</time>
      </trkpt>
      <trkpt lat="48.5984" lon="1.97438">
        <ele>120.78</ele>
        <time>2019-12-19T10:20:32Z</time>
      </trkpt>
      <trkpt lat="48.5984" lon="1.97437">
        <ele>120.78</ele>
        <time>2019-12-19T10:20:33Z</time>
      </trkpt>
      <trkpt lat="48.59839" lon="1.97435">
        <ele>120.3</ele>
        <time>2019-12-19T10:20:34Z</time>
      </trkpt>
      <trkpt lat="48.59838" lon="1.97434">
        <ele>120.78</ele>
        <time>2019-12-19T10:20:35Z</time>
      </trkpt>
      <trkpt lat="48.59838" lon="1.97433">
        <ele>120.78</ele>
        <time>2019-12-19T10:20:36Z</time>
      </trkpt>
      <trkpt lat="48.59837" lon="1.9743">
        <ele>120.78</ele>
        <time>2019-12-19T10:20:37Z</time>
      </trkpt>
      <trkpt lat="48.59836" lon="1.97428">
        <ele>120.78</ele>
        <time>2019-12-19T10:20:38Z</time>
      </trkpt>
      <trkpt lat="48.59835" lon="1.97426">
        <ele>120.78</ele>
        <time>2019-12-19T10:20:39Z</time>
      </trkpt>
      <trkpt lat="48.59834" lon="1.97424">
        <ele>121.26</ele>
        <time>2019-12-19T10:20:40Z</time>
      </trkpt>
      <trkpt lat="48.59834" lon="1.97422">
        <ele>121.26</ele>
        <time>2019-12-19T10:20:41Z</time>
      </trkpt>
      <trkpt lat="48.59833" lon="1.97421">
        <ele>121.26</ele>
        <time>2019-12-19T10:20:42Z</time>
      </trkpt>
      <trkpt lat="48.59831" lon="1.97418">
        <ele>121.26</ele>
        <time>2019-12-19T10:20:43Z</time>
      </trkpt>
      <trkpt lat="48.5983" lon="1.97415">
        <ele>121.26</ele>
        <time>2019-12-19T10:20:44Z</time>
      </trkpt>
      <trkpt lat="48.59829" lon="1.97413">
        <ele>121.26</ele>
        <time>2019-12-19T10:20:45Z</time>
      </trkpt>
      <trkpt lat="48.59828" lon="1.97411">
        <ele>121.26</ele>
        <time>2019-12-19T10:20:46Z</time>
      </trkpt>
      <trkpt lat="48.59827" lon="1.97409">
        <ele>121.26</ele>
        <time>2019-12-19T10:20:47Z</time>
      </trkpt>
      <trkpt lat="48.59827" lon="1.97406">
        <ele>121.74</ele>
        <time>2019-12-19T10:20:48Z</time>
      </trkpt>
      <trkpt lat="48.59827" lon="1.97402">
        <ele>121.74</ele>
        <time>2019-12-19T10:20:49Z</time>
      </trkpt>
      <trkpt lat="48.59826" lon="1.97399">
        <ele>121.74</ele>
        <time>2019-12-19T10:20:50Z</time>
      </trkpt>
      <trkpt lat="48.59825" lon="1.97398">
        <ele>121.74</ele>
        <time>2019-12-19T10:20:51Z</time>
      </trkpt>
      <trkpt lat="48.59824" lon="1.97396">
        <ele>121.74</ele>
        <time>2019-12-19T10:20:52Z</time>
      </trkpt>
      <trkpt lat="48.59822" lon="1.97394">
        <ele>121.74</ele>
        <time>2019-12-19T10:20:53Z</time>
      </trkpt>
      <trkpt lat="48.59821" lon="1.97391">
        <ele>121.74</ele>
        <time>2019-12-19T10:20:54Z</time>
      </trkpt>
      <trkpt lat="48.5982" lon="1.97388">
        <ele>121.74</ele>
        <time>2019-12-19T10:20:55Z</time>
      </trkpt>
      <trkpt lat="48.59819" lon="1.97386">
        <ele>122.22</ele>
        <time>2019-12-19T10:20:56Z</time>
      </trkpt>
      <trkpt lat="48.59818" lon="1.97384">
        <ele>122.22</ele>
        <time>2019-12-19T10:20:57Z</time>
      </trkpt>
      <trkpt lat="48.59817" lon="1.97382">
        <ele>121.74</ele>
        <time>2019-12-19T10:20:58Z</time>
      </trkpt>
      <trkpt lat="48.59816" lon="1.97381">
        <ele>122.22</ele>
        <time>2019-12-19T10:20:59Z</time>
      </trkpt>
      <trkpt lat="48.59815" lon="1.9738">
        <ele>121.74</ele>
        <time>2019-12-19T10:21:00Z</time>
      </trkpt>
      <trkpt lat="48.59814" lon="1.97378">
        <ele>121.74</ele>
        <time>2019-12-19T10:21:01Z</time>
      </trkpt>
      <trkpt lat="48.59813" lon="1.97377">
        <ele>122.22</ele>
        <time>2019-12-19T10:21:02Z</time>
      </trkpt>
      <trkpt lat="48.59812" lon="1.97376">
        <ele>122.71</ele>
        <time>2019-12-19T10:21:03Z</time>
      </trkpt>
      <trkpt lat="48.59812" lon="1.97375">
        <ele>122.71</ele>
        <time>2019-12-19T10:21:04Z</time>
      </trkpt>
      <trkpt lat="48.59811" lon="1.97374">
        <ele>122.71</ele>
        <time>2019-12-19T10:21:05Z</time>
      </trkpt>
      <trkpt lat="48.59811" lon="1.97373">
        <ele>122.22</ele>
        <time>2019-12-19T10:21:06Z</time>
      </trkpt>
      <trkpt lat="48.5981" lon="1.97372">
        <ele>122.71</ele>
        <time>2019-12-19T10:21:07Z</time>
      </trkpt>
      <trkpt lat="48.5981" lon="1.97371">
        <ele>122.22</ele>
        <time>2019-12-19T10:21:08Z</time>
      </trkpt>
      <trkpt lat="48.59809" lon="1.97369">
        <ele>122.71</ele>
        <time>2019-12-19T10:21:09Z</time>
      </trkpt>
      <trkpt lat="48.59808" lon="1.97367">
        <ele>123.19</ele>
        <time>2019-12-19T10:21:10Z</time>
      </trkpt>
      <trkpt lat="48.59807" lon="1.97365">
        <ele>122.71</ele>
        <time>2019-12-19T10:21:11Z</time>
      </trkpt>
      <trkpt lat="48.59806" lon="1.97363">
        <ele>122.71</ele>
        <time>2019-12-19T10:21:12Z</time>
      </trkpt>
      <trkpt lat="48.59805" lon="1.97362">
        <ele>123.19</ele>
        <time>2019-12-19T10:21:13Z</time>
      </trkpt>
      <trkpt lat="48.59804" lon="1.97361">
        <ele>122.71</ele>
        <time>2019-12-19T10:21:14Z</time>
      </trkpt>
      <trkpt lat="48.59804" lon="1.97359">
        <ele>123.19</ele>
        <time>2019-12-19T10:21:15Z</time>
      </trkpt>
      <trkpt lat="48.59803" lon="1.97358">
        <ele>123.19</ele>
        <time>2019-12-19T10:21:16Z</time>
      </trkpt>
      <trkpt lat="48.59802" lon="1.97357">
        <ele>123.19</ele>
        <time>2019-12-19T10:21:17Z</time>
      </trkpt>
      <trkpt lat="48.59802" lon="1.97356">
        <ele>123.19</ele>
        <time>2019-12-19T10:21:18Z</time>
      </trkpt>
      <trkpt lat="48.59801" lon="1.97354">
        <ele>123.19</ele>
        <time>2019-12-19T10:21:19Z</time>
      </trkpt>
      <trkpt lat="48.598" lon="1.97353">
        <ele>123.19</ele>
        <time>2019-12-19T10:21:20Z</time>
      </trkpt>
      <trkpt lat="48.59799" lon="1.97351">
        <ele>123.19</ele>
        <time>2019-12-19T10:21:21Z</time>
      </trkpt>
      <trkpt lat="48.59798" lon="1.97349">
        <ele>123.67</ele>
        <time>2019-12-19T10:21:22Z</time>
      </trkpt>
      <trkpt lat="48.59797" lon="1.97346">
        <ele>123.19</ele>
        <time>2019-12-19T10:21:23Z</time>
      </trkpt>
      <trkpt lat="48.59796" lon="1.97343">
        <ele>123.19</ele>
        <time>2019-12-19T10:21:24Z</time>
      </trkpt>
      <trkpt lat="48.59794" lon="1.97341">
        <ele>123.67</ele>
        <time>2019-12-19T10:21:25Z</time>
      </trkpt>
      <trkpt lat="48.59793" lon="1.97339">
        <ele>123.19</ele>
        <time>2019-12-19T10:21:26Z</time>
      </trkpt>
      <trkpt lat="48.59792" lon="1.97336">
        <ele>123.19</ele>
        <time>2019-12-19T10:21:27Z</time>
      </trkpt>
      <trkpt lat="48.59792" lon="1.97333">
        <ele>123.67</ele>
        <time>2019-12-19T10:21:28Z</time>
      </trkpt>
      <trkpt lat="48.59792" lon="1.97331">
        <ele>123.67</ele>
        <time>2019-12-19T10:21:29Z</time>
      </trkpt>
      <trkpt lat="48.59791" lon="1.97329">
        <ele>123.67</ele>
        <time>2019-12-19T10:21:30Z</time>
      </trkpt>
      <trkpt lat="48.5979" lon="1.97327">
        <ele>124.15</ele>
        <time>2019-12-19T10:21:31Z</time>
      </trkpt>
      <trkpt lat="48.59789" lon="1.97327">
        <ele>123.67</ele>
        <time>2019-12-19T10:21:32Z</time>
      </trkpt>
      <trkpt lat="48.59788" lon="1.97326">
        <ele>123.67</ele>
        <time>2019-12-19T10:21:33Z</time>
      </trkpt>
      <trkpt lat="48.59787" lon="1.97325">
        <ele>124.15</ele>
        <time>2019-12-19T10:21:34Z</time>
      </trkpt>
      <trkpt lat="48.59786" lon="1.97324">
        <ele>124.15</ele>
        <time>2019-12-19T10:21:35Z</time>
      </trkpt>
      <trkpt lat="48.59785" lon="1.97323">
        <ele>124.15</ele>
        <time>2019-12-19T10:21:36Z</time>
      </trkpt>
      <trkpt lat="48.59785" lon="1.97322">
        <ele>124.15</ele>
        <time>2019-12-19T10:21:37Z</time>
      </trkpt>
      <trkpt lat="48.59784" lon="1.97321">
        <ele>124.63</ele>
        <time>2019-12-19T10:21:38Z</time>
      </trkpt>
      <trkpt lat="48.59783" lon="1.97319">
        <ele>124.63</ele>
        <time>2019-12-19T10:21:39Z</time>
      </trkpt>
      <trkpt lat="48.59782" lon="1.97317">
        <ele>124.63</ele>
        <time>2019-12-19T10:21:40Z</time>
      </trkpt>
      <trkpt lat="48.59781" lon="1.97314">
        <ele>124.15</ele>
        <time>2019-12-19T10:21:41Z</time>
      </trkpt>
      <trkpt lat="48.5978" lon="1.97312">
        <ele>125.11</ele>
        <time>2019-12-19T10:21:42Z</time>
      </trkpt>
      <trkpt lat="48.59779" lon="1.9731">
        <ele>124.63</ele>
        <time>2019-12-19T10:21:43Z</time>
      </trkpt>
      <trkpt lat="48.59778" lon="1.97308">
        <ele>124.63</ele>
        <time>2019-12-19T10:21:44Z</time>
      </trkpt>
      <trkpt lat="48.59777" lon="1.97306">
        <ele>125.11</ele>
        <time>2019-12-19T10:21:45Z</time>
      </trkpt>
      <trkpt lat="48.59776" lon="1.97304">
        <ele>125.11</ele>
        <time>2019-12-19T10:21:46Z</time>
      </trkpt>
      <trkpt lat="48.59775" lon="1.97303">
        <ele>125.59</ele>
        <time>2019-12-19T10:21:47Z</time>
      </trkpt>
      <trkpt lat="48.59774" lon="1.97301">
        <ele>125.59</ele>
        <time>2019-12-19T10:21:48Z</time>
      </trkpt>
      <trkpt lat="48.59773" lon="1.973">
        <ele>125.11</ele>
        <time>2019-12-19T10:21:49Z</time>
      </trkpt>
      <trkpt lat="48.59772" lon="1.97298">
        <ele>125.11</ele>
        <time>2019-12-19T10:21:50Z</time>
      </trkpt>
      <trkpt lat="48.59771" lon="1.97297">
        <ele>125.11</ele>
        <time>2019-12-19T10:21:51Z</time>
      </trkpt>
      <trkpt lat="48.59771" lon="1.97295">
        <ele>125.11</ele>
        <time>2019-12-19T10:21:52Z</time>
      </trkpt>
      <trkpt lat="48.5977" lon="1.97294">
        <ele>125.11</ele>
        <time>2019-12-19T10:21:53Z</time>
      </trkpt>
      <trkpt lat="48.5977" lon="1.97292">
        <ele>125.59</ele>
        <time>2019-12-19T10:21:54Z</time>
      </trkpt>
      <trkpt lat="48.59769" lon="1.9729">
        <ele>125.59</ele>
        <time>2019-12-19T10:21:55Z</time>
      </trkpt>
      <trkpt lat="48.59768" lon="1.97289">
        <ele>126.07</ele>
        <time>2019-12-19T10:21:56Z</time>
      </trkpt>
      <trkpt lat="48.59766" lon="1.97287">
        <ele>125.59</ele>
        <time>2019-12-19T10:21:57Z</time>
      </trkpt>
      <trkpt lat="48.59765" lon="1.97285">
        <ele>125.59</ele>
        <time>2019-12-19T10:21:58Z</time>
      </trkpt>
      <trkpt lat="48.59765" lon="1.97284">
        <ele>125.59</ele>
        <time>2019-12-19T10:21:59Z</time>
      </trkpt>
      <trkpt lat="48.59764" lon="1.97282">
        <ele>126.07</ele>
        <time>2019-12-19T10:22:00Z</time>
      </trkpt>
      <trkpt lat="48.59763" lon="1.9728">
        <ele>126.55</ele>
        <time>2019-12-19T10:22:01Z</time>
      </trkpt>
      <trkpt lat="48.59762" lon="1.97279">
        <ele>126.55</ele>
        <time>2019-12-19T10:22:02Z</time>
      </trkpt>
      <trkpt lat="48.5976" lon="1.97277">
        <ele>126.55</ele>
        <time>2019-12-19T10:22:03Z</time>
      </trkpt>
      <trkpt lat="48.59759" lon="1.97275">
        <ele>126.55</ele>
        <time>2019-12-19T10:22:04Z</time>
      </trkpt>
      <trkpt lat="48.59758" lon="1.97273">
        <ele>126.07</ele>
        <time>2019-12-19T10:22:05Z</time>
      </trkpt>
      <trkpt lat="48.59757" lon="1.97271">
        <ele>126.55</ele>
        <time>2019-12-19T10:22:06Z</time>
      </trkpt>
      <trkpt lat="48.59756" lon="1.9727">
        <ele>126.07</ele>
        <time>2019-12-19T10:22:07Z</time>
      </trkpt>
      <trkpt lat="48.59756" lon="1.97269">
        <ele>126.55</ele>
        <time>2019-12-19T10:22:08Z</time>
      </trkpt>
      <trkpt lat="48.59755" lon="1.97267">
        <ele>126.55</ele>
        <time>2019-12-19T10:22:09Z</time>
      </trkpt>
      <trkpt lat="48.59755" lon="1.97266">
        <ele>126.55</ele>
        <time>2019-12-19T10:22:10Z</time>
      </trkpt>
      <trkpt lat="48.59754" lon="1.97264">
        <ele>126.55</ele>
        <time>2019-12-19T10:22:11Z</time>
      </trkpt>
      <trkpt lat="48.59754" lon="1.97262">
        <ele>126.55</ele>
        <time>2019-12-19T10:22:12Z</time>
      </trkpt>
      <trkpt lat="48.59754" lon="1.9726">
        <ele>126.55</ele>
        <time>2019-12-19T10:22:13Z</time>
      </trkpt>
      <trkpt lat="48.59754" lon="1.97258">
        <ele>126.55</ele>
        <time>2019-12-19T10:22:14Z</time>
      </trkpt>
      <trkpt lat="48.59753" lon="1.97256">
        <ele>126.55</ele>
        <time>2019-12-19T10:22:15Z</time>
      </trkpt>
      <trkpt lat="48.59752" lon="1.97255">
        <ele>126.55</ele>
        <time>2019-12-19T10:22:16Z</time>
      </trkpt>
      <trkpt lat="48.59752" lon="1.97255">
        <ele>126.55</ele>
        <time>2019-12-19T10:22:17Z</time>
      </trkpt>
      <trkpt lat="48.59752" lon="1.97254">
        <ele>126.55</ele>
        <time>2019-12-19T10:22:18Z</time>
      </trkpt>
      <trkpt lat="48.59751" lon="1.97253">
        <ele>127.03</ele>
        <time>2019-12-19T10:22:19Z</time>
      </trkpt>
      <trkpt lat="48.59751" lon="1.97252">
        <ele>126.55</ele>
        <time>2019-12-19T10:22:20Z</time>
      </trkpt>
      <trkpt lat="48.5975" lon="1.97252">
        <ele>126.55</ele>
        <time>2019-12-19T10:22:21Z</time>
      </trkpt>
      <trkpt lat="48.5975" lon="1.97251">
        <ele>126.55</ele>
        <time>2019-12-19T10:22:22Z</time>
      </trkpt>
      <trkpt lat="48.5975" lon="1.97251">
        <ele>127.03</ele>
        <time>2019-12-19T10:22:23Z</time>
      </trkpt>
      <trkpt lat="48.5975" lon="1.9725">
        <ele>127.03</ele>
        <time>2019-12-19T10:22:24Z</time>
      </trkpt>
      <trkpt lat="48.59749" lon="1.97249">
        <ele>127.03</ele>
        <time>2019-12-19T10:22:25Z</time>
      </trkpt>
      <trkpt lat="48.59749" lon="1.97247">
        <ele>126.55</ele>
        <time>2019-12-19T10:22:40Z</time>
      </trkpt>
      <trkpt lat="48.59749" lon="1.97246">
        <ele>127.03</ele>
        <time>2019-12-19T10:22:41Z</time>
      </trkpt>
      <trkpt lat="48.5975" lon="1.97245">
        <ele>127.03</ele>
        <time>2019-12-19T10:22:42Z</time>
      </trkpt>
      <trkpt lat="48.59751" lon="1.97244">
        <ele>127.03</ele>
        <time>2019-12-19T10:22:43Z</time>
      </trkpt>
      <trkpt lat="48.59751" lon="1.97244">
        <ele>127.03</ele>
        <time>2019-12-19T10:22:44Z</time>
      </trkpt>
      <trkpt lat="48.59751" lon="1.97243">
        <ele>127.03</ele>
        <time>2019-12-19T10:22:48Z</time>
      </trkpt>
      <trkpt lat="48.59751" lon="1.97243">
        <ele>127.03</ele>
        <time>2019-12-19T10:22:49Z</time>
      </trkpt>
      <trkpt lat="48.59751" lon="1.97243">
        <ele>127.03</ele>
        <time>2019-12-19T10:22:50Z</time>
      </trkpt>
      <trkpt lat="48.59751" lon="1.97242">
        <ele>127.03</ele>
        <time>2019-12-19T10:22:58Z</time>
      </trkpt>
      <trkpt lat="48.59751" lon="1.97242">
        <ele>127.03</ele>
        <time>2019-12-19T10:22:59Z</time>
      </trkpt>
      <trkpt lat="48.59751" lon="1.97242">
        <ele>127.03</ele>
        <time>2019-12-19T10:23:18Z</time>
      </trkpt>
      <trkpt lat="48.59751" lon="1.97242">
        <ele>127.03</ele>
        <time>2019-12-19T10:23:19Z</time>
      </trkpt>
      <trkpt lat="48.59751" lon="1.97242">
        <ele>127.03</ele>
        <time>2019-12-19T10:23:41Z</time>
      </trkpt>
      <trkpt lat="48.59751" lon="1.97242">
        <ele>127.03</ele>
        <time>2019-12-19T10:23:42Z</time>
      </trkpt>
      <trkpt lat="48.59751" lon="1.97243">
        <ele>127.03</ele>
        <time>2019-12-19T10:24:02Z</time>
      </trkpt>
      <trkpt lat="48.59751" lon="1.97243">
        <ele>127.51</ele>
        <time>2019-12-19T10:24:03Z</time>
      </trkpt>
      <trkpt lat="48.59751" lon="1.97243">
        <ele>127.03</ele>
        <time>2019-12-19T10:24:05Z</time>
      </trkpt>
      <trkpt lat="48.59751" lon="1.97243">
        <ele>127.51</ele>
        <time>2019-12-19T10:24:06Z</time>
      </trkpt>
      <trkpt lat="48.59751" lon="1.97243">
        <ele>126.55</ele>
        <time>2019-12-19T10:24:07Z</time>
      </trkpt>
      <trkpt lat="48.59751" lon="1.97243">
        <ele>127.51</ele>
        <time>2019-12-19T10:24:08Z</time>
      </trkpt>
      <trkpt lat="48.59751" lon="1.97243">
        <ele>127.03</ele>
        <time>2019-12-19T10:24:10Z</time>
      </trkpt>
      <trkpt lat="48.59751" lon="1.97243">
        <ele>127.51</ele>
        <time>2019-12-19T10:24:11Z</time>
      </trkpt>
      <trkpt lat="48.59751" lon="1.97243">
        <ele>127.03</ele>
        <time>2019-12-19T10:24:12Z</time>
      </trkpt>
      <trkpt lat="48.59751" lon="1.97242">
        <ele>127.51</ele>
        <time>2019-12-19T10:24:13Z</time>
      </trkpt>
      <trkpt lat="48.59752" lon="1.97242">
        <ele>127.51</ele>
        <time>2019-12-19T10:24:14Z</time>
      </trkpt>
      <trkpt lat="48.59752" lon="1.97242">
        <ele>127.51</ele>
        <time>2019-12-19T10:24:15Z</time>
      </trkpt>
      <trkpt lat="48.59753" lon="1.97242">
        <ele>127.51</ele>
        <time>2019-12-19T10:24:16Z</time>
      </trkpt>
      <trkpt lat="48.59754" lon="1.97241">
        <ele>127.51</ele>
        <time>2019-12-19T10:24:17Z</time>
      </trkpt>
      <trkpt lat="48.59755" lon="1.9724">
        <ele>127.51</ele>
        <time>2019-12-19T10:24:18Z</time>
      </trkpt>
      <trkpt lat="48.59755" lon="1.9724">
        <ele>127.51</ele>
        <time>2019-12-19T10:24:19Z</time>
      </trkpt>
      <trkpt lat="48.59756" lon="1.97239">
        <ele>127.51</ele>
        <time>2019-12-19T10:24:20Z</time>
      </trkpt>
      <trkpt lat="48.59757" lon="1.97238">
        <ele>127.51</ele>
        <time>2019-12-19T10:24:21Z</time>
      </trkpt>
      <trkpt lat="48.59757" lon="1.97237">
        <ele>127.51</ele>
        <time>2019-12-19T10:24:22Z</time>
      </trkpt>
      <trkpt lat="48.59758" lon="1.97236">
        <ele>127.51</ele>
        <time>2019-12-19T10:24:23Z</time>
      </trkpt>
      <trkpt lat="48.59759" lon="1.97235">
        <ele>127.99</ele>
        <time>2019-12-19T10:24:24Z</time>
      </trkpt>
      <trkpt lat="48.5976" lon="1.97234">
        <ele>127.51</ele>
        <time>2019-12-19T10:24:25Z</time>
      </trkpt>
      <trkpt lat="48.59761" lon="1.97233">
        <ele>127.51</ele>
        <time>2019-12-19T10:24:26Z</time>
      </trkpt>
      <trkpt lat="48.59762" lon="1.97232">
        <ele>127.99</ele>
        <time>2019-12-19T10:24:27Z</time>
      </trkpt>
      <trkpt lat="48.59763" lon="1.97231">
        <ele>127.99</ele>
        <time>2019-12-19T10:24:28Z</time>
      </trkpt>
      <trkpt lat="48.59764" lon="1.9723">
        <ele>127.99</ele>
        <time>2019-12-19T10:24:29Z</time>
      </trkpt>
      <trkpt lat="48.59764" lon="1.97228">
        <ele>127.99</ele>
        <time>2019-12-19T10:24:30Z</time>
      </trkpt>
      <trkpt lat="48.59765" lon="1.97227">
        <ele>127.99</ele>
        <time>2019-12-19T10:24:31Z</time>
      </trkpt>
      <trkpt lat="48.59766" lon="1.97225">
        <ele>127.99</ele>
        <time>2019-12-19T10:24:32Z</time>
      </trkpt>
      <trkpt lat="48.59768" lon="1.97224">
        <ele>128.47</ele>
        <time>2019-12-19T10:24:33Z</time>
      </trkpt>
      <trkpt lat="48.59769" lon="1.97223">
        <ele>128.47</ele>
        <time>2019-12-19T10:24:34Z</time>
      </trkpt>
      <trkpt lat="48.5977" lon="1.97222">
        <ele>128.47</ele>
        <time>2019-12-19T10:24:35Z</time>
      </trkpt>
      <trkpt lat="48.59772" lon="1.97221">
        <ele>128.47</ele>
        <time>2019-12-19T10:24:36Z</time>
      </trkpt>
      <trkpt lat="48.59773" lon="1.97219">
        <ele>128.47</ele>
        <time>2019-12-19T10:24:37Z</time>
      </trkpt>
      <trkpt lat="48.59774" lon="1.97218">
        <ele>128.47</ele>
        <time>2019-12-19T10:24:38Z</time>
      </trkpt>
      <trkpt lat="48.59776" lon="1.97217">
        <ele>128.47</ele>
        <time>2019-12-19T10:24:39Z</time>
      </trkpt>
      <trkpt lat="48.59777" lon="1.97216">
        <ele>127.99</ele>
        <time>2019-12-19T10:24:40Z</time>
      </trkpt>
      <trkpt lat="48.59778" lon="1.97214">
        <ele>128.47</ele>
        <time>2019-12-19T10:24:41Z</time>
      </trkpt>
      <trkpt lat="48.5978" lon="1.97213">
        <ele>128.47</ele>
        <time>2019-12-19T10:24:42Z</time>
      </trkpt>
      <trkpt lat="48.59781" lon="1.97213">
        <ele>128.47</ele>
        <time>2019-12-19T10:24:43Z</time>
      </trkpt>
      <trkpt lat="48.59782" lon="1.97212">
        <ele>127.99</ele>
        <time>2019-12-19T10:24:44Z</time>
      </trkpt>
      <trkpt lat="48.59783" lon="1.97212">
        <ele>128.47</ele>
        <time>2019-12-19T10:24:45Z</time>
      </trkpt>
      <trkpt lat="48.59785" lon="1.97211">
        <ele>127.99</ele>
        <time>2019-12-19T10:24:46Z</time>
      </trkpt>
      <trkpt lat="48.59786" lon="1.97211">
        <ele>127.99</ele>
        <time>2019-12-19T10:24:47Z</time>
      </trkpt>
      <trkpt lat="48.59787" lon="1.9721">
        <ele>127.99</ele>
        <time>2019-12-19T10:24:48Z</time>
      </trkpt>
      <trkpt lat="48.59789" lon="1.9721">
        <ele>127.99</ele>
        <time>2019-12-19T10:24:49Z</time>
      </trkpt>
      <trkpt lat="48.59791" lon="1.97209">
        <ele>127.99</ele>
        <time>2019-12-19T10:24:50Z</time>
      </trkpt>
      <trkpt lat="48.59793" lon="1.97208">
        <ele>127.99</ele>
        <time>2019-12-19T10:24:51Z</time>
      </trkpt>
      <trkpt lat="48.59794" lon="1.97208">
        <ele>127.99</ele>
        <time>2019-12-19T10:24:52Z</time>
      </trkpt>
      <trkpt lat="48.59795" lon="1.97207">
        <ele>127.99</ele>
        <time>2019-12-19T10:24:53Z</time>
      </trkpt>
      <trkpt lat="48.59796" lon="1.97207">
        <ele>127.99</ele>
        <time>2019-12-19T10:24:54Z</time>
      </trkpt>
      <trkpt lat="48.59797" lon="1.97207">
        <ele>127.99</ele>
        <time>2019-12-19T10:24:55Z</time>
      </trkpt>
      <trkpt lat="48.59798" lon="1.97208">
        <ele>127.51</ele>
        <time>2019-12-19T10:24:56Z</time>
      </trkpt>
      <trkpt lat="48.59799" lon="1.97207">
        <ele>127.51</ele>
        <time>2019-12-19T10:24:57Z</time>
      </trkpt>
      <trkpt lat="48.59801" lon="1.97207">
        <ele>127.99</ele>
        <time>2019-12-19T10:24:58Z</time>
      </trkpt>
      <trkpt lat="48.59802" lon="1.97207">
        <ele>127.51</ele>
        <time>2019-12-19T10:24:59Z</time>
      </trkpt>
      <trkpt lat="48.59803" lon="1.97207">
        <ele>127.51</ele>
        <time>2019-12-19T10:25:00Z</time>
      </trkpt>
      <trkpt lat="48.59805" lon="1.97207">
        <ele>127.51</ele>
        <time>2019-12-19T10:25:01Z</time>
      </trkpt>
      <trkpt lat="48.59806" lon="1.97207">
        <ele>127.99</ele>
        <time>2019-12-19T10:25:02Z</time>
      </trkpt>
      <trkpt lat="48.59808" lon="1.97207">
        <ele>127.51</ele>
        <time>2019-12-19T10:25:03Z</time>
      </trkpt>
      <trkpt lat="48.5981" lon="1.97206">
        <ele>127.99</ele>
        <time>2019-12-19T10:25:04Z</time>
      </trkpt>
      <trkpt lat="48.59811" lon="1.97205">
        <ele>127.99</ele>
        <time>2019-12-19T10:25:05Z</time>
      </trkpt>
      <trkpt lat="48.59813" lon="1.97204">
        <ele>127.51</ele>
        <time>2019-12-19T10:25:06Z</time>
      </trkpt>
      <trkpt lat="48.59814" lon="1.97204">
        <ele>127.51</ele>
        <time>2019-12-19T10:25:07Z</time>
      </trkpt>
      <trkpt lat="48.59816" lon="1.97204">
        <ele>127.51</ele>
        <time>2019-12-19T10:25:08Z</time>
      </trkpt>
      <trkpt lat="48.59817" lon="1.97203">
        <ele>127.51</ele>
        <time>2019-12-19T10:25:09Z</time>
      </trkpt>
      <trkpt lat="48.59818" lon="1.97203">
        <ele>127.51</ele>
        <time>2019-12-19T10:25:10Z</time>
      </trkpt>
      <trkpt lat="48.59819" lon="1.97202">
        <ele>127.99</ele>
        <time>2019-12-19T10:25:11Z</time>
      </trkpt>
      <trkpt lat="48.5982" lon="1.97202">
        <ele>127.51</ele>
        <time>2019-12-19T10:25:12Z</time>
      </trkpt>
      <trkpt lat="48.59821" lon="1.97201">
        <ele>127.51</ele>
        <time>2019-12-19T10:25:13Z</time>
      </trkpt>
      <trkpt lat="48.59822" lon="1.97201">
        <ele>127.99</ele>
        <time>2019-12-19T10:25:14Z</time>
      </trkpt>
      <trkpt lat="48.59823" lon="1.97199">
        <ele>127.99</ele>
        <time>2019-12-19T10:25:15Z</time>
      </trkpt>
      <trkpt lat="48.59824" lon="1.97199">
        <ele>127.99</ele>
        <time>2019-12-19T10:25:16Z</time>
      </trkpt>
      <trkpt lat="48.59825" lon="1.97198">
        <ele>127.99</ele>
        <time>2019-12-19T10:25:17Z</time>
      </trkpt>
      <trkpt lat="48.59826" lon="1.97196">
        <ele>127.51</ele>
        <time>2019-12-19T10:25:18Z</time>
      </trkpt>
      <trkpt lat="48.59828" lon="1.97195">
        <ele>127.99</ele>
        <time>2019-12-19T10:25:19Z</time>
      </trkpt>
      <trkpt lat="48.5983" lon="1.97194">
        <ele>127.99</ele>
        <time>2019-12-19T10:25:20Z</time>
      </trkpt>
      <trkpt lat="48.59832" lon="1.97193">
        <ele>127.99</ele>
        <time>2019-12-19T10:25:21Z</time>
      </trkpt>
      <trkpt lat="48.59834" lon="1.97191">
        <ele>127.99</ele>
        <time>2019-12-19T10:25:22Z</time>
      </trkpt>
      <trkpt lat="48.59836" lon="1.97189">
        <ele>127.99</ele>
        <time>2019-12-19T10:25:23Z</time>
      </trkpt>
      <trkpt lat="48.59838" lon="1.97189">
        <ele>127.99</ele>
        <time>2019-12-19T10:25:24Z</time>
      </trkpt>
      <trkpt lat="48.5984" lon="1.97188">
        <ele>127.99</ele>
        <time>2019-12-19T10:25:25Z</time>
      </trkpt>
      <trkpt lat="48.59841" lon="1.97188">
        <ele>128.47</ele>
        <time>2019-12-19T10:25:26Z</time>
      </trkpt>
      <trkpt lat="48.59843" lon="1.97188">
        <ele>127.99</ele>
        <time>2019-12-19T10:25:27Z</time>
      </trkpt>
      <trkpt lat="48.59845" lon="1.97188">
        <ele>127.99</ele>
        <time>2019-12-19T10:25:28Z</time>
      </trkpt>
      <trkpt lat="48.59846" lon="1.97187">
        <ele>127.99</ele>
        <time>2019-12-19T10:25:29Z</time>
      </trkpt>
      <trkpt lat="48.59848" lon="1.97186">
        <ele>127.99</ele>
        <time>2019-12-19T10:25:30Z</time>
      </trkpt>
      <trkpt lat="48.59849" lon="1.97185">
        <ele>127.99</ele>
        <time>2019-12-19T10:25:31Z</time>
      </trkpt>
      <trkpt lat="48.59851" lon="1.97184">
        <ele>128.47</ele>
        <time>2019-12-19T10:25:32Z</time>
      </trkpt>
      <trkpt lat="48.59852" lon="1.97183">
        <ele>128.47</ele>
        <time>2019-12-19T10:25:33Z</time>
      </trkpt>
      <trkpt lat="48.59853" lon="1.97183">
        <ele>128.47</ele>
        <time>2019-12-19T10:25:34Z</time>
      </trkpt>
      <trkpt lat="48.59855" lon="1.97183">
        <ele>128.95</ele>
        <time>2019-12-19T10:25:35Z</time>
      </trkpt>
      <trkpt lat="48.59857" lon="1.97183">
        <ele>128.47</ele>
        <time>2019-12-19T10:25:36Z</time>
      </trkpt>
      <trkpt lat="48.59858" lon="1.97182">
        <ele>128.95</ele>
        <time>2019-12-19T10:25:37Z</time>
      </trkpt>
      <trkpt lat="48.5986" lon="1.97182">
        <ele>128.47</ele>
        <time>2019-12-19T10:25:38Z</time>
      </trkpt>
      <trkpt lat="48.59861" lon="1.97181">
        <ele>128.47</ele>
        <time>2019-12-19T10:25:39Z</time>
      </trkpt>
      <trkpt lat="48.59862" lon="1.97181">
        <ele>128.47</ele>
        <time>2019-12-19T10:25:40Z</time>
      </trkpt>
      <trkpt lat="48.59863" lon="1.9718">
        <ele>128.95</ele>
        <time>2019-12-19T10:25:41Z</time>
      </trkpt>
      <trkpt lat="48.59865" lon="1.97179">
        <ele>128.95</ele>
        <time>2019-12-19T10:25:42Z</time>
      </trkpt>
      <trkpt lat="48.59866" lon="1.97178">
        <ele>129.92</ele>
        <time>2019-12-19T10:25:43Z</time>
      </trkpt>
      <trkpt lat="48.59867" lon="1.97178">
        <ele>128.95</ele>
        <time>2019-12-19T10:25:44Z</time>
      </trkpt>
      <trkpt lat="48.59868" lon="1.97177">
        <ele>128.95</ele>
        <time>2019-12-19T10:25:45Z</time>
      </trkpt>
      <trkpt lat="48.59869" lon="1.97176">
        <ele>128.95</ele>
        <time>2019-12-19T10:25:46Z</time>
      </trkpt>
      <trkpt lat="48.5987" lon="1.97174">
        <ele>128.95</ele>
        <time>2019-12-19T10:25:47Z</time>
      </trkpt>
      <trkpt lat="48.59871" lon="1.97173">
        <ele>128.95</ele>
        <time>2019-12-19T10:25:48Z</time>
      </trkpt>
      <trkpt lat="48.59873" lon="1.97171">
        <ele>129.43</ele>
        <time>2019-12-19T10:25:49Z</time>
      </trkpt>
      <trkpt lat="48.59874" lon="1.9717">
        <ele>128.95</ele>
        <time>2019-12-19T10:25:50Z</time>
      </trkpt>
      <trkpt lat="48.59876" lon="1.9717">
        <ele>129.43</ele>
        <time>2019-12-19T10:25:51Z</time>
      </trkpt>
      <trkpt lat="48.59877" lon="1.9717">
        <ele>129.43</ele>
        <time>2019-12-19T10:25:52Z</time>
      </trkpt>
      <trkpt lat="48.59879" lon="1.9717">
        <ele>129.43</ele>
        <time>2019-12-19T10:25:53Z</time>
      </trkpt>
      <trkpt lat="48.5988" lon="1.9717">
        <ele>128.95</ele>
        <time>2019-12-19T10:25:54Z</time>
      </trkpt>
      <trkpt lat="48.59881" lon="1.97169">
        <ele>129.43</ele>
        <time>2019-12-19T10:25:55Z</time>
      </trkpt>
      <trkpt lat="48.59883" lon="1.97169">
        <ele>128.95</ele>
        <time>2019-12-19T10:25:56Z</time>
      </trkpt>
      <trkpt lat="48.59884" lon="1.97168">
        <ele>128.95</ele>
        <time>2019-12-19T10:25:57Z</time>
      </trkpt>
      <trkpt lat="48.59886" lon="1.97168">
        <ele>129.43</ele>
        <time>2019-12-19T10:25:58Z</time>
      </trkpt>
      <trkpt lat="48.59887" lon="1.97168">
        <ele>129.43</ele>
        <time>2019-12-19T10:25:59Z</time>
      </trkpt>
      <trkpt lat="48.59889" lon="1.97167">
        <ele>129.43</ele>
        <time>2019-12-19T10:26:00Z</time>
      </trkpt>
      <trkpt lat="48.5989" lon="1.97166">
        <ele>129.43</ele>
        <time>2019-12-19T10:26:01Z</time>
      </trkpt>
      <trkpt lat="48.59892" lon="1.97165">
        <ele>129.92</ele>
        <time>2019-12-19T10:26:02Z</time>
      </trkpt>
      <trkpt lat="48.59894" lon="1.97165">
        <ele>129.92</ele>
        <time>2019-12-19T10:26:03Z</time>
      </trkpt>
      <trkpt lat="48.59895" lon="1.97164">
        <ele>129.92</ele>
        <time>2019-12-19T10:26:04Z</time>
      </trkpt>
      <trkpt lat="48.59897" lon="1.97163">
        <ele>129.92</ele>
        <time>2019-12-19T10:26:05Z</time>
      </trkpt>
      <trkpt lat="48.59899" lon="1.97163">
        <ele>129.92</ele>
        <time>2019-12-19T10:26:06Z</time>
      </trkpt>
      <trkpt lat="48.599" lon="1.97162">
        <ele>129.92</ele>
        <time>2019-12-19T10:26:07Z</time>
      </trkpt>
      <trkpt lat="48.59901" lon="1.97162">
        <ele>130.4</ele>
        <time>2019-12-19T10:26:08Z</time>
      </trkpt>
      <trkpt lat="48.59903" lon="1.97161">
        <ele>130.4</ele>
        <time>2019-12-19T10:26:09Z</time>
      </trkpt>
      <trkpt lat="48.59904" lon="1.9716">
        <ele>130.4</ele>
        <time>2019-12-19T10:26:10Z</time>
      </trkpt>
      <trkpt lat="48.59905" lon="1.97159">
        <ele>130.4</ele>
        <time>2019-12-19T10:26:11Z</time>
      </trkpt>
      <trkpt lat="48.59906" lon="1.97159">
        <ele>130.4</ele>
        <time>2019-12-19T10:26:12Z</time>
      </trkpt>
      <trkpt lat="48.59908" lon="1.97158">
        <ele>130.88</ele>
        <time>2019-12-19T10:26:13Z</time>
      </trkpt>
      <trkpt lat="48.5991" lon="1.97156">
        <ele>130.4</ele>
        <time>2019-12-19T10:26:14Z</time>
      </trkpt>
      <trkpt lat="48.59912" lon="1.97155">
        <ele>130.88</ele>
        <time>2019-12-19T10:26:15Z</time>
      </trkpt>
      <trkpt lat="48.59914" lon="1.97155">
        <ele>130.88</ele>
        <time>2019-12-19T10:26:16Z</time>
      </trkpt>
      <trkpt lat="48.59915" lon="1.97155">
        <ele>130.88</ele>
        <time>2019-12-19T10:26:17Z</time>
      </trkpt>
      <trkpt lat="48.59917" lon="1.97154">
        <ele>131.36</ele>
        <time>2019-12-19T10:26:18Z</time>
      </trkpt>
      <trkpt lat="48.59919" lon="1.97153">
        <ele>131.36</ele>
        <time>2019-12-19T10:26:19Z</time>
      </trkpt>
      <trkpt lat="48.59921" lon="1.97153">
        <ele>130.88</ele>
        <time>2019-12-19T10:26:20Z</time>
      </trkpt>
      <trkpt lat="48.59922" lon="1.97153">
        <ele>131.36</ele>
        <time>2019-12-19T10:26:21Z</time>
      </trkpt>
      <trkpt lat="48.59923" lon="1.97152">
        <ele>132.32</ele>
        <time>2019-12-19T10:26:22Z</time>
      </trkpt>
      <trkpt lat="48.59924" lon="1.97151">
        <ele>132.32</ele>
        <time>2019-12-19T10:26:23Z</time>
      </trkpt>
      <trkpt lat="48.59926" lon="1.9715">
        <ele>131.84</ele>
        <time>2019-12-19T10:26:24Z</time>
      </trkpt>
      <trkpt lat="48.59928" lon="1.9715">
        <ele>131.84</ele>
        <time>2019-12-19T10:26:25Z</time>
      </trkpt>
      <trkpt lat="48.5993" lon="1.97149">
        <ele>131.84</ele>
        <time>2019-12-19T10:26:26Z</time>
      </trkpt>
      <trkpt lat="48.59931" lon="1.97148">
        <ele>132.32</ele>
        <time>2019-12-19T10:26:27Z</time>
      </trkpt>
      <trkpt lat="48.59933" lon="1.97148">
        <ele>132.32</ele>
        <time>2019-12-19T10:26:28Z</time>
      </trkpt>
      <trkpt lat="48.59934" lon="1.97147">
        <ele>132.32</ele>
        <time>2019-12-19T10:26:29Z</time>
      </trkpt>
      <trkpt lat="48.59936" lon="1.97146">
        <ele>132.8</ele>
        <time>2019-12-19T10:26:30Z</time>
      </trkpt>
      <trkpt lat="48.59938" lon="1.97145">
        <ele>132.8</ele>
        <time>2019-12-19T10:26:31Z</time>
      </trkpt>
      <trkpt lat="48.59939" lon="1.97144">
        <ele>132.32</ele>
        <time>2019-12-19T10:26:32Z</time>
      </trkpt>
      <trkpt lat="48.59942" lon="1.97145">
        <ele>132.8</ele>
        <time>2019-12-19T10:26:33Z</time>
      </trkpt>
      <trkpt lat="48.59943" lon="1.97145">
        <ele>132.32</ele>
        <time>2019-12-19T10:26:34Z</time>
      </trkpt>
      <trkpt lat="48.59945" lon="1.97146">
        <ele>133.28</ele>
        <time>2019-12-19T10:26:35Z</time>
      </trkpt>
      <trkpt lat="48.59946" lon="1.97146">
        <ele>133.28</ele>
        <time>2019-12-19T10:26:36Z</time>
      </trkpt>
      <trkpt lat="48.59947" lon="1.97146">
        <ele>132.8</ele>
        <time>2019-12-19T10:26:37Z</time>
      </trkpt>
      <trkpt lat="48.59948" lon="1.97145">
        <ele>133.28</ele>
        <time>2019-12-19T10:26:38Z</time>
      </trkpt>
      <trkpt lat="48.59949" lon="1.97144">
        <ele>133.28</ele>
        <time>2019-12-19T10:26:39Z</time>
      </trkpt>
      <trkpt lat="48.59951" lon="1.97144">
        <ele>133.28</ele>
        <time>2019-12-19T10:26:40Z</time>
      </trkpt>
      <trkpt lat="48.59952" lon="1.97142">
        <ele>133.28</ele>
        <time>2019-12-19T10:26:41Z</time>
      </trkpt>
      <trkpt lat="48.59954" lon="1.97141">
        <ele>134.24</ele>
        <time>2019-12-19T10:26:42Z</time>
      </trkpt>
      <trkpt lat="48.59955" lon="1.97139">
        <ele>133.76</ele>
        <time>2019-12-19T10:26:43Z</time>
      </trkpt>
      <trkpt lat="48.59956" lon="1.97138">
        <ele>133.76</ele>
        <time>2019-12-19T10:26:44Z</time>
      </trkpt>
      <trkpt lat="48.59957" lon="1.97137">
        <ele>133.76</ele>
        <time>2019-12-19T10:26:45Z</time>
      </trkpt>
      <trkpt lat="48.59958" lon="1.97136">
        <ele>133.76</ele>
        <time>2019-12-19T10:26:46Z</time>
      </trkpt>
      <trkpt lat="48.59958" lon="1.97135">
        <ele>134.72</ele>
        <time>2019-12-19T10:26:47Z</time>
      </trkpt>
      <trkpt lat="48.59959" lon="1.97135">
        <ele>134.72</ele>
        <time>2019-12-19T10:26:48Z</time>
      </trkpt>
      <trkpt lat="48.59959" lon="1.97135">
        <ele>134.24</ele>
        <time>2019-12-19T10:26:49Z</time>
      </trkpt>
      <trkpt lat="48.59958" lon="1.97134">
        <ele>134.24</ele>
        <time>2019-12-19T10:26:50Z</time>
      </trkpt>
      <trkpt lat="48.59958" lon="1.97133">
        <ele>134.72</ele>
        <time>2019-12-19T10:26:51Z</time>
      </trkpt>
      <trkpt lat="48.59958" lon="1.97132">
        <ele>134.72</ele>
        <time>2019-12-19T10:26:52Z</time>
      </trkpt>
      <trkpt lat="48.59957" lon="1.97131">
        <ele>134.72</ele>
        <time>2019-12-19T10:26:53Z</time>
      </trkpt>
      <trkpt lat="48.59956" lon="1.97131">
        <ele>134.72</ele>
        <time>2019-12-19T10:26:54Z</time>
      </trkpt>
      <trkpt lat="48.59956" lon="1.9713">
        <ele>134.72</ele>
        <time>2019-12-19T10:26:55Z</time>
      </trkpt>
      <trkpt lat="48.59955" lon="1.9713">
        <ele>134.72</ele>
        <time>2019-12-19T10:26:56Z</time>
      </trkpt>
      <trkpt lat="48.59954" lon="1.9713">
        <ele>134.72</ele>
        <time>2019-12-19T10:26:57Z</time>
      </trkpt>
      <trkpt lat="48.59953" lon="1.97129">
        <ele>134.72</ele>
        <time>2019-12-19T10:26:58Z</time>
      </trkpt>
      <trkpt lat="48.59952" lon="1.97128">
        <ele>135.2</ele>
        <time>2019-12-19T10:26:59Z</time>
      </trkpt>
      <trkpt lat="48.59951" lon="1.97128">
        <ele>135.2</ele>
        <time>2019-12-19T10:27:00Z</time>
      </trkpt>
      <trkpt lat="48.59949" lon="1.97127">
        <ele>135.2</ele>
        <time>2019-12-19T10:27:01Z</time>
      </trkpt>
      <trkpt lat="48.59948" lon="1.97126">
        <ele>135.2</ele>
        <time>2019-12-19T10:27:02Z</time>
      </trkpt>
      <trkpt lat="48.59947" lon="1.97125">
        <ele>135.2</ele>
        <time>2019-12-19T10:27:03Z</time>
      </trkpt>
      <trkpt lat="48.59946" lon="1.97124">
        <ele>135.2</ele>
        <time>2019-12-19T10:27:04Z</time>
      </trkpt>
      <trkpt lat="48.59945" lon="1.97123">
        <ele>135.2</ele>
        <time>2019-12-19T10:27:05Z</time>
      </trkpt>
      <trkpt lat="48.59944" lon="1.97122">
        <ele>135.68</ele>
        <time>2019-12-19T10:27:06Z</time>
      </trkpt>
      <trkpt lat="48.59943" lon="1.97121">
        <ele>135.2</ele>
        <time>2019-12-19T10:27:07Z</time>
      </trkpt>
      <trkpt lat="48.59942" lon="1.97119">
        <ele>135.2</ele>
        <time>2019-12-19T10:27:08Z</time>
      </trkpt>
      <trkpt lat="48.5994" lon="1.97117">
        <ele>135.2</ele>
        <time>2019-12-19T10:27:09Z</time>
      </trkpt>
      <trkpt lat="48.59939" lon="1.97116">
        <ele>135.2</ele>
        <time>2019-12-19T10:27:10Z</time>
      </trkpt>
      <trkpt lat="48.59938" lon="1.97115">
        <ele>135.68</ele>
        <time>2019-12-19T10:27:11Z</time>
      </trkpt>
      <trkpt lat="48.59936" lon="1.97113">
        <ele>135.2</ele>
        <time>2019-12-19T10:27:12Z</time>
      </trkpt>
      <trkpt lat="48.59935" lon="1.97113">
        <ele>135.68</ele>
        <time>2019-12-19T10:27:13Z</time>
      </trkpt>
      <trkpt lat="48.59934" lon="1.97112">
        <ele>135.2</ele>
        <time>2019-12-19T10:27:14Z</time>
      </trkpt>
      <trkpt lat="48.59932" lon="1.97111">
        <ele>135.2</ele>
        <time>2019-12-19T10:27:15Z</time>
      </trkpt>
      <trkpt lat="48.59931" lon="1.9711">
        <ele>135.2</ele>
        <time>2019-12-19T10:27:16Z</time>
      </trkpt>
      <trkpt lat="48.59929" lon="1.97109">
        <ele>135.2</ele>
        <time>2019-12-19T10:27:17Z</time>
      </trkpt>
      <trkpt lat="48.59928" lon="1.97108">
        <ele>135.2</ele>
        <time>2019-12-19T10:27:18Z</time>
      </trkpt>
      <trkpt lat="48.59926" lon="1.97107">
        <ele>135.68</ele>
        <time>2019-12-19T10:27:19Z</time>
      </trkpt>
      <trkpt lat="48.59925" lon="1.97106">
        <ele>135.2</ele>
        <time>2019-12-19T10:27:20Z</time>
      </trkpt>
      <trkpt lat="48.59924" lon="1.97104">
        <ele>135.2</ele>
        <time>2019-12-19T10:27:21Z</time>
      </trkpt>
      <trkpt lat="48.59922" lon="1.97104">
        <ele>135.2</ele>
        <time>2019-12-19T10:27:22Z</time>
      </trkpt>
      <trkpt lat="48.59921" lon="1.97103">
        <ele>135.2</ele>
        <time>2019-12-19T10:27:23Z</time>
      </trkpt>
      <trkpt lat="48.5992" lon="1.97102">
        <ele>135.2</ele>
        <time>2019-12-19T10:27:24Z</time>
      </trkpt>
      <trkpt lat="48.59919" lon="1.971">
        <ele>135.68</ele>
        <time>2019-12-19T10:27:25Z</time>
      </trkpt>
      <trkpt lat="48.59918" lon="1.97098">
        <ele>135.68</ele>
        <time>2019-12-19T10:27:26Z</time>
      </trkpt>
      <trkpt lat="48.59917" lon="1.97096">
        <ele>135.68</ele>
        <time>2019-12-19T10:27:27Z</time>
      </trkpt>
      <trkpt lat="48.59916" lon="1.97094">
        <ele>136.16</ele>
        <time>2019-12-19T10:27:28Z</time>
      </trkpt>
      <trkpt lat="48.59915" lon="1.97094">
        <ele>135.68</ele>
        <time>2019-12-19T10:27:29Z</time>
      </trkpt>
      <trkpt lat="48.59914" lon="1.97092">
        <ele>136.16</ele>
        <time>2019-12-19T10:27:30Z</time>
      </trkpt>
      <trkpt lat="48.59913" lon="1.9709">
        <ele>136.16</ele>
        <time>2019-12-19T10:27:31Z</time>
      </trkpt>
      <trkpt lat="48.59911" lon="1.97088">
        <ele>136.16</ele>
        <time>2019-12-19T10:27:32Z</time>
      </trkpt>
      <trkpt lat="48.5991" lon="1.97087">
        <ele>136.16</ele>
        <time>2019-12-19T10:27:33Z</time>
      </trkpt>
      <trkpt lat="48.59909" lon="1.97086">
        <ele>136.16</ele>
        <time>2019-12-19T10:27:34Z</time>
      </trkpt>
      <trkpt lat="48.59907" lon="1.97085">
        <ele>136.16</ele>
        <time>2019-12-19T10:27:35Z</time>
      </trkpt>
      <trkpt lat="48.59906" lon="1.97083">
        <ele>136.64</ele>
        <time>2019-12-19T10:27:36Z</time>
      </trkpt>
      <trkpt lat="48.59904" lon="1.97082">
        <ele>136.64</ele>
        <time>2019-12-19T10:27:37Z</time>
      </trkpt>
      <trkpt lat="48.59903" lon="1.9708">
        <ele>136.16</ele>
        <time>2019-12-19T10:27:38Z</time>
      </trkpt>
      <trkpt lat="48.59902" lon="1.97079">
        <ele>137.13</ele>
        <time>2019-12-19T10:27:39Z</time>
      </trkpt>
      <trkpt lat="48.59901" lon="1.97078">
        <ele>136.64</ele>
        <time>2019-12-19T10:27:40Z</time>
      </trkpt>
      <trkpt lat="48.59899" lon="1.97076">
        <ele>136.16</ele>
        <time>2019-12-19T10:27:41Z</time>
      </trkpt>
      <trkpt lat="48.59898" lon="1.97075">
        <ele>136.64</ele>
        <time>2019-12-19T10:27:42Z</time>
      </trkpt>
      <trkpt lat="48.59897" lon="1.97073">
        <ele>137.13</ele>
        <time>2019-12-19T10:27:43Z</time>
      </trkpt>
      <trkpt lat="48.59896" lon="1.97072">
        <ele>136.64</ele>
        <time>2019-12-19T10:27:44Z</time>
      </trkpt>
      <trkpt lat="48.59895" lon="1.97071">
        <ele>136.16</ele>
        <time>2019-12-19T10:27:45Z</time>
      </trkpt>
      <trkpt lat="48.59894" lon="1.9707">
        <ele>136.16</ele>
        <time>2019-12-19T10:27:46Z</time>
      </trkpt>
      <trkpt lat="48.59892" lon="1.9707">
        <ele>136.16</ele>
        <time>2019-12-19T10:27:47Z</time>
      </trkpt>
      <trkpt lat="48.59891" lon="1.97069">
        <ele>136.16</ele>
        <time>2019-12-19T10:27:48Z</time>
      </trkpt>
      <trkpt lat="48.5989" lon="1.97068">
        <ele>136.16</ele>
        <time>2019-12-19T10:27:49Z</time>
      </trkpt>
      <trkpt lat="48.59889" lon="1.97067">
        <ele>136.16</ele>
        <time>2019-12-19T10:27:50Z</time>
      </trkpt>
      <trkpt lat="48.59888" lon="1.97065">
        <ele>136.16</ele>
        <time>2019-12-19T10:27:51Z</time>
      </trkpt>
      <trkpt lat="48.59886" lon="1.97064">
        <ele>136.16</ele>
        <time>2019-12-19T10:27:52Z</time>
      </trkpt>
      <trkpt lat="48.59884" lon="1.97063">
        <ele>136.16</ele>
        <time>2019-12-19T10:27:53Z</time>
      </trkpt>
      <trkpt lat="48.59883" lon="1.97061">
        <ele>136.16</ele>
        <time>2019-12-19T10:27:54Z</time>
      </trkpt>
      <trkpt lat="48.59881" lon="1.9706">
        <ele>136.64</ele>
        <time>2019-12-19T10:27:55Z</time>
      </trkpt>
      <trkpt lat="48.5988" lon="1.9706">
        <ele>136.16</ele>
        <time>2019-12-19T10:27:56Z</time>
      </trkpt>
      <trkpt lat="48.59878" lon="1.97061">
        <ele>136.64</ele>
        <time>2019-12-19T10:27:57Z</time>
      </trkpt>
      <trkpt lat="48.59876" lon="1.9706">
        <ele>136.16</ele>
        <time>2019-12-19T10:27:58Z</time>
      </trkpt>
      <trkpt lat="48.59875" lon="1.97059">
        <ele>136.64</ele>
        <time>2019-12-19T10:27:59Z</time>
      </trkpt>
      <trkpt lat="48.59874" lon="1.97058">
        <ele>136.64</ele>
        <time>2019-12-19T10:28:00Z</time>
      </trkpt>
      <trkpt lat="48.59872" lon="1.97056">
        <ele>136.64</ele>
        <time>2019-12-19T10:28:01Z</time>
      </trkpt>
      <trkpt lat="48.59871" lon="1.97054">
        <ele>136.64</ele>
        <time>2019-12-19T10:28:02Z</time>
      </trkpt>
      <trkpt lat="48.59869" lon="1.97052">
        <ele>136.64</ele>
        <time>2019-12-19T10:28:03Z</time>
      </trkpt>
      <trkpt lat="48.59868" lon="1.97051">
        <ele>136.64</ele>
        <time>2019-12-19T10:28:04Z</time>
      </trkpt>
      <trkpt lat="48.59866" lon="1.9705">
        <ele>136.64</ele>
        <time>2019-12-19T10:28:05Z</time>
      </trkpt>
      <trkpt lat="48.59865" lon="1.97048">
        <ele>137.13</ele>
        <time>2019-12-19T10:28:06Z</time>
      </trkpt>
      <trkpt lat="48.59863" lon="1.97048">
        <ele>137.13</ele>
        <time>2019-12-19T10:28:07Z</time>
      </trkpt>
      <trkpt lat="48.59862" lon="1.97048">
        <ele>136.64</ele>
        <time>2019-12-19T10:28:08Z</time>
      </trkpt>
      <trkpt lat="48.59861" lon="1.97047">
        <ele>137.13</ele>
        <time>2019-12-19T10:28:09Z</time>
      </trkpt>
      <trkpt lat="48.5986" lon="1.97045">
        <ele>136.64</ele>
        <time>2019-12-19T10:28:10Z</time>
      </trkpt>
      <trkpt lat="48.59859" lon="1.97043">
        <ele>136.64</ele>
        <time>2019-12-19T10:28:11Z</time>
      </trkpt>
      <trkpt lat="48.59858" lon="1.97041">
        <ele>137.13</ele>
        <time>2019-12-19T10:28:12Z</time>
      </trkpt>
      <trkpt lat="48.59857" lon="1.97039">
        <ele>137.13</ele>
        <time>2019-12-19T10:28:13Z</time>
      </trkpt>
      <trkpt lat="48.59856" lon="1.97038">
        <ele>136.64</ele>
        <time>2019-12-19T10:28:14Z</time>
      </trkpt>
      <trkpt lat="48.59854" lon="1.97038">
        <ele>137.13</ele>
        <time>2019-12-19T10:28:15Z</time>
      </trkpt>
      <trkpt lat="48.59853" lon="1.97037">
        <ele>137.13</ele>
        <time>2019-12-19T10:28:16Z</time>
      </trkpt>
      <trkpt lat="48.59852" lon="1.97035">
        <ele>137.13</ele>
        <time>2019-12-19T10:28:17Z</time>
      </trkpt>
      <trkpt lat="48.59851" lon="1.97033">
        <ele>137.13</ele>
        <time>2019-12-19T10:28:18Z</time>
      </trkpt>
      <trkpt lat="48.5985" lon="1.97031">
        <ele>137.61</ele>
        <time>2019-12-19T10:28:19Z</time>
      </trkpt>
      <trkpt lat="48.59848" lon="1.97029">
        <ele>137.13</ele>
        <time>2019-12-19T10:28:20Z</time>
      </trkpt>
      <trkpt lat="48.59847" lon="1.97028">
        <ele>137.61</ele>
        <time>2019-12-19T10:28:21Z</time>
      </trkpt>
      <trkpt lat="48.59846" lon="1.97026">
        <ele>137.61</ele>
        <time>2019-12-19T10:28:22Z</time>
      </trkpt>
      <trkpt lat="48.59845" lon="1.97024">
        <ele>137.13</ele>
        <time>2019-12-19T10:28:23Z</time>
      </trkpt>
      <trkpt lat="48.59844" lon="1.97023">
        <ele>137.13</ele>
        <time>2019-12-19T10:28:24Z</time>
      </trkpt>
      <trkpt lat="48.59843" lon="1.97022">
        <ele>137.13</ele>
        <time>2019-12-19T10:28:25Z</time>
      </trkpt>
      <trkpt lat="48.59842" lon="1.97021">
        <ele>137.61</ele>
        <time>2019-12-19T10:28:26Z</time>
      </trkpt>
      <trkpt lat="48.5984" lon="1.97021">
        <ele>137.61</ele>
        <time>2019-12-19T10:28:27Z</time>
      </trkpt>
      <trkpt lat="48.59838" lon="1.97019">
        <ele>137.13</ele>
        <time>2019-12-19T10:28:28Z</time>
      </trkpt>
      <trkpt lat="48.59837" lon="1.97017">
        <ele>137.61</ele>
        <time>2019-12-19T10:28:29Z</time>
      </trkpt>
      <trkpt lat="48.59835" lon="1.97015">
        <ele>137.61</ele>
        <time>2019-12-19T10:28:30Z</time>
      </trkpt>
      <trkpt lat="48.59833" lon="1.97013">
        <ele>137.13</ele>
        <time>2019-12-19T10:28:31Z</time>
      </trkpt>
      <trkpt lat="48.59831" lon="1.97013">
        <ele>137.13</ele>
        <time>2019-12-19T10:28:32Z</time>
      </trkpt>
      <trkpt lat="48.59829" lon="1.97012">
        <ele>137.13</ele>
        <time>2019-12-19T10:28:33Z</time>
      </trkpt>
      <trkpt lat="48.59826" lon="1.97011">
        <ele>137.13</ele>
        <time>2019-12-19T10:28:34Z</time>
      </trkpt>
      <trkpt lat="48.59824" lon="1.97009">
        <ele>137.13</ele>
        <time>2019-12-19T10:28:35Z</time>
      </trkpt>
      <trkpt lat="48.59823" lon="1.97005">
        <ele>137.13</ele>
        <time>2019-12-19T10:28:36Z</time>
      </trkpt>
      <trkpt lat="48.59822" lon="1.97003">
        <ele>136.64</ele>
        <time>2019-12-19T10:28:37Z</time>
      </trkpt>
      <trkpt lat="48.59821" lon="1.97001">
        <ele>136.64</ele>
        <time>2019-12-19T10:28:38Z</time>
      </trkpt>
      <trkpt lat="48.59819" lon="1.96999">
        <ele>137.13</ele>
        <time>2019-12-19T10:28:39Z</time>
      </trkpt>
      <trkpt lat="48.59817" lon="1.96997">
        <ele>137.13</ele>
        <time>2019-12-19T10:28:40Z</time>
      </trkpt>
      <trkpt lat="48.59816" lon="1.96995">
        <ele>137.13</ele>
        <time>2019-12-19T10:28:41Z</time>
      </trkpt>
      <trkpt lat="48.59814" lon="1.96994">
        <ele>137.13</ele>
        <time>2019-12-19T10:28:42Z</time>
      </trkpt>
      <trkpt lat="48.59812" lon="1.96993">
        <ele>137.13</ele>
        <time>2019-12-19T10:28:43Z</time>
      </trkpt>
      <trkpt lat="48.59811" lon="1.96992">
        <ele>136.64</ele>
        <time>2019-12-19T10:28:44Z</time>
      </trkpt>
      <trkpt lat="48.5981" lon="1.9699">
        <ele>137.13</ele>
        <time>2019-12-19T10:28:45Z</time>
      </trkpt>
      <trkpt lat="48.59809" lon="1.96989">
        <ele>137.13</ele>
        <time>2019-12-19T10:28:46Z</time>
      </trkpt>
      <trkpt lat="48.59808" lon="1.96988">
        <ele>137.61</ele>
        <time>2019-12-19T10:28:47Z</time>
      </trkpt>
      <trkpt lat="48.59807" lon="1.96988">
        <ele>137.61</ele>
        <time>2019-12-19T10:28:48Z</time>
      </trkpt>
      <trkpt lat="48.59805" lon="1.96987">
        <ele>137.61</ele>
        <time>2019-12-19T10:28:49Z</time>
      </trkpt>
      <trkpt lat="48.59804" lon="1.96986">
        <ele>137.61</ele>
        <time>2019-12-19T10:28:50Z</time>
      </trkpt>
      <trkpt lat="48.59802" lon="1.96985">
        <ele>137.61</ele>
        <time>2019-12-19T10:28:51Z</time>
      </trkpt>
      <trkpt lat="48.59801" lon="1.96983">
        <ele>137.61</ele>
        <time>2019-12-19T10:28:52Z</time>
      </trkpt>
      <trkpt lat="48.598" lon="1.96982">
        <ele>137.61</ele>
        <time>2019-12-19T10:28:53Z</time>
      </trkpt>
      <trkpt lat="48.59799" lon="1.9698">
        <ele>137.61</ele>
        <time>2019-12-19T10:28:54Z</time>
      </trkpt>
      <trkpt lat="48.59797" lon="1.96979">
        <ele>137.61</ele>
        <time>2019-12-19T10:28:55Z</time>
      </trkpt>
      <trkpt lat="48.59796" lon="1.96977">
        <ele>138.09</ele>
        <time>2019-12-19T10:28:56Z</time>
      </trkpt>
      <trkpt lat="48.59795" lon="1.96976">
        <ele>138.09</ele>
        <time>2019-12-19T10:28:57Z</time>
      </trkpt>
      <trkpt lat="48.59794" lon="1.96974">
        <ele>138.09</ele>
        <time>2019-12-19T10:28:58Z</time>
      </trkpt>
      <trkpt lat="48.59793" lon="1.96973">
        <ele>138.09</ele>
        <time>2019-12-19T10:28:59Z</time>
      </trkpt>
      <trkpt lat="48.59792" lon="1.96972">
        <ele>138.09</ele>
        <time>2019-12-19T10:29:00Z</time>
      </trkpt>
      <trkpt lat="48.5979" lon="1.96971">
        <ele>138.09</ele>
        <time>2019-12-19T10:29:01Z</time>
      </trkpt>
      <trkpt lat="48.59789" lon="1.96969">
        <ele>138.57</ele>
        <time>2019-12-19T10:29:02Z</time>
      </trkpt>
      <trkpt lat="48.59788" lon="1.96968">
        <ele>138.57</ele>
        <time>2019-12-19T10:29:03Z</time>
      </trkpt>
      <trkpt lat="48.59786" lon="1.96966">
        <ele>138.57</ele>
        <time>2019-12-19T10:29:04Z</time>
      </trkpt>
      <trkpt lat="48.59785" lon="1.96965">
        <ele>138.57</ele>
        <time>2019-12-19T10:29:05Z</time>
      </trkpt>
      <trkpt lat="48.59784" lon="1.96965">
        <ele>139.05</ele>
        <time>2019-12-19T10:29:06Z</time>
      </trkpt>
      <trkpt lat="48.59783" lon="1.96965">
        <ele>138.09</ele>
        <time>2019-12-19T10:29:07Z</time>
      </trkpt>
      <trkpt lat="48.59782" lon="1.96965">
        <ele>138.57</ele>
        <time>2019-12-19T10:29:08Z</time>
      </trkpt>
      <trkpt lat="48.59781" lon="1.96966">
        <ele>138.57</ele>
        <time>2019-12-19T10:29:09Z</time>
      </trkpt>
      <trkpt lat="48.5978" lon="1.96966">
        <ele>138.57</ele>
        <time>2019-12-19T10:29:10Z</time>
      </trkpt>
      <trkpt lat="48.59779" lon="1.96965">
        <ele>138.57</ele>
        <time>2019-12-19T10:29:11Z</time>
      </trkpt>
      <trkpt lat="48.59778" lon="1.96964">
        <ele>139.05</ele>
        <time>2019-12-19T10:29:12Z</time>
      </trkpt>
      <trkpt lat="48.59777" lon="1.96962">
        <ele>138.57</ele>
        <time>2019-12-19T10:29:13Z</time>
      </trkpt>
      <trkpt lat="48.59776" lon="1.9696">
        <ele>139.05</ele>
        <time>2019-12-19T10:29:14Z</time>
      </trkpt>
      <trkpt lat="48.59775" lon="1.96958">
        <ele>138.57</ele>
        <time>2019-12-19T10:29:15Z</time>
      </trkpt>
      <trkpt lat="48.59774" lon="1.96956">
        <ele>139.05</ele>
        <time>2019-12-19T10:29:16Z</time>
      </trkpt>
      <trkpt lat="48.59773" lon="1.96954">
        <ele>139.05</ele>
        <time>2019-12-19T10:29:17Z</time>
      </trkpt>
      <trkpt lat="48.59772" lon="1.96952">
        <ele>139.05</ele>
        <time>2019-12-19T10:29:18Z</time>
      </trkpt>
      <trkpt lat="48.59771" lon="1.9695">
        <ele>139.05</ele>
        <time>2019-12-19T10:29:19Z</time>
      </trkpt>
      <trkpt lat="48.59769" lon="1.96948">
        <ele>139.53</ele>
        <time>2019-12-19T10:29:20Z</time>
      </trkpt>
      <trkpt lat="48.59768" lon="1.96946">
        <ele>139.53</ele>
        <time>2019-12-19T10:29:21Z</time>
      </trkpt>
      <trkpt lat="48.59767" lon="1.96943">
        <ele>139.53</ele>
        <time>2019-12-19T10:29:22Z</time>
      </trkpt>
      <trkpt lat="48.59765" lon="1.96941">
        <ele>139.53</ele>
        <time>2019-12-19T10:29:23Z</time>
      </trkpt>
      <trkpt lat="48.59764" lon="1.96939">
        <ele>139.53</ele>
        <time>2019-12-19T10:29:24Z</time>
      </trkpt>
      <trkpt lat="48.59762" lon="1.96938">
        <ele>139.53</ele>
        <time>2019-12-19T10:29:25Z</time>
      </trkpt>
      <trkpt lat="48.5976" lon="1.96937">
        <ele>139.53</ele>
        <time>2019-12-19T10:29:26Z</time>
      </trkpt>
      <trkpt lat="48.59758" lon="1.96936">
        <ele>139.53</ele>
        <time>2019-12-19T10:29:27Z</time>
      </trkpt>
      <trkpt lat="48.59757" lon="1.96935">
        <ele>139.53</ele>
        <time>2019-12-19T10:29:28Z</time>
      </trkpt>
      <trkpt lat="48.59754" lon="1.96935">
        <ele>140.01</ele>
        <time>2019-12-19T10:29:29Z</time>
      </trkpt>
      <trkpt lat="48.59752" lon="1.96935">
        <ele>139.53</ele>
        <time>2019-12-19T10:29:30Z</time>
      </trkpt>
      <trkpt lat="48.59751" lon="1.96935">
        <ele>139.53</ele>
        <time>2019-12-19T10:29:31Z</time>
      </trkpt>
      <trkpt lat="48.59749" lon="1.96934">
        <ele>139.53</ele>
        <time>2019-12-19T10:29:32Z</time>
      </trkpt>
      <trkpt lat="48.59747" lon="1.96934">
        <ele>139.05</ele>
        <time>2019-12-19T10:29:33Z</time>
      </trkpt>
      <trkpt lat="48.59745" lon="1.96934">
        <ele>139.53</ele>
        <time>2019-12-19T10:29:34Z</time>
      </trkpt>
      <trkpt lat="48.59744" lon="1.96933">
        <ele>139.05</ele>
        <time>2019-12-19T10:29:35Z</time>
      </trkpt>
      <trkpt lat="48.59742" lon="1.96932">
        <ele>139.05</ele>
        <time>2019-12-19T10:29:36Z</time>
      </trkpt>
      <trkpt lat="48.59741" lon="1.96931">
        <ele>139.05</ele>
        <time>2019-12-19T10:29:37Z</time>
      </trkpt>
      <trkpt lat="48.59741" lon="1.96929">
        <ele>139.05</ele>
        <time>2019-12-19T10:29:38Z</time>
      </trkpt>
      <trkpt lat="48.5974" lon="1.96927">
        <ele>139.05</ele>
        <time>2019-12-19T10:29:39Z</time>
      </trkpt>
      <trkpt lat="48.5974" lon="1.96925">
        <ele>139.05</ele>
        <time>2019-12-19T10:29:40Z</time>
      </trkpt>
      <trkpt lat="48.5974" lon="1.96923">
        <ele>139.05</ele>
        <time>2019-12-19T10:29:41Z</time>
      </trkpt>
      <trkpt lat="48.5974" lon="1.96921">
        <ele>139.05</ele>
        <time>2019-12-19T10:29:42Z</time>
      </trkpt>
      <trkpt lat="48.59739" lon="1.9692">
        <ele>140.01</ele>
        <time>2019-12-19T10:29:43Z</time>
      </trkpt>
      <trkpt lat="48.59739" lon="1.9692">
        <ele>139.05</ele>
        <time>2019-12-19T10:29:44Z</time>
      </trkpt>
      <trkpt lat="48.59739" lon="1.96919">
        <ele>139.05</ele>
        <time>2019-12-19T10:29:45Z</time>
      </trkpt>
      <trkpt lat="48.59739" lon="1.96916">
        <ele>139.05</ele>
        <time>2019-12-19T10:29:46Z</time>
      </trkpt>
      <trkpt lat="48.59739" lon="1.96914">
        <ele>139.05</ele>
        <time>2019-12-19T10:29:47Z</time>
      </trkpt>
      <trkpt lat="48.59738" lon="1.96912">
        <ele>139.53</ele>
        <time>2019-12-19T10:29:48Z</time>
      </trkpt>
      <trkpt lat="48.59739" lon="1.96911">
        <ele>139.53</ele>
        <time>2019-12-19T10:29:49Z</time>
      </trkpt>
      <trkpt lat="48.59738" lon="1.96908">
        <ele>139.53</ele>
        <time>2019-12-19T10:29:54Z</time>
      </trkpt>
      <trkpt lat="48.59738" lon="1.96907">
        <ele>139.05</ele>
        <time>2019-12-19T10:29:55Z</time>
      </trkpt>
      <trkpt lat="48.59738" lon="1.96907">
        <ele>139.05</ele>
        <time>2019-12-19T10:29:56Z</time>
      </trkpt>
      <trkpt lat="48.59738" lon="1.96907">
        <ele>139.53</ele>
        <time>2019-12-19T10:29:57Z</time>
      </trkpt>
      <trkpt lat="48.59737" lon="1.96907">
        <ele>139.53</ele>
        <time>2019-12-19T10:29:58Z</time>
      </trkpt>
      <trkpt lat="48.59737" lon="1.96907">
        <ele>139.53</ele>
        <time>2019-12-19T10:29:59Z</time>
      </trkpt>
      <trkpt lat="48.59737" lon="1.96907">
        <ele>139.53</ele>
        <time>2019-12-19T10:30:00Z</time>
      </trkpt>
      <trkpt lat="48.59737" lon="1.96906">
        <ele>139.05</ele>
        <time>2019-12-19T10:30:01Z</time>
      </trkpt>
      <trkpt lat="48.59737" lon="1.96906">
        <ele>139.05</ele>
        <time>2019-12-19T10:30:02Z</time>
      </trkpt>
      <trkpt lat="48.59737" lon="1.96905">
        <ele>139.05</ele>
        <time>2019-12-19T10:30:03Z</time>
      </trkpt>
      <trkpt lat="48.59737" lon="1.96905">
        <ele>139.05</ele>
        <time>2019-12-19T10:30:04Z</time>
      </trkpt>
      <trkpt lat="48.59737" lon="1.96905">
        <ele>139.53</ele>
        <time>2019-12-19T10:30:05Z</time>
      </trkpt>
      <trkpt lat="48.59738" lon="1.96906">
        <ele>139.05</ele>
        <time>2019-12-19T10:30:12Z</time>
      </trkpt>
      <trkpt lat="48.59738" lon="1.96906">
        <ele>139.05</ele>
        <time>2019-12-19T10:30:13Z</time>
      </trkpt>
      <trkpt lat="48.59738" lon="1.96906">
        <ele>139.53</ele>
        <time>2019-12-19T10:30:14Z</time>
      </trkpt>
      <trkpt lat="48.59738" lon="1.96905">
        <ele>139.05</ele>
        <time>2019-12-19T10:30:15Z</time>
      </trkpt>
      <trkpt lat="48.59738" lon="1.96905">
        <ele>139.53</ele>
        <time>2019-12-19T10:30:16Z</time>
      </trkpt>
      <trkpt lat="48.59738" lon="1.96905">
        <ele>139.53</ele>
        <time>2019-12-19T10:30:17Z</time>
      </trkpt>
      <trkpt lat="48.59738" lon="1.96905">
        <ele>139.53</ele>
        <time>2019-12-19T10:30:18Z</time>
      </trkpt>
      <trkpt lat="48.59738" lon="1.96905">
        <ele>139.53</ele>
        <time>2019-12-19T10:30:19Z</time>
      </trkpt>
      <trkpt lat="48.59738" lon="1.96905">
        <ele>139.53</ele>
        <time>2019-12-19T10:30:20Z</time>
      </trkpt>
      <trkpt lat="48.59738" lon="1.96904">
        <ele>139.53</ele>
        <time>2019-12-19T10:30:21Z</time>
      </trkpt>
      <trkpt lat="48.59738" lon="1.96904">
        <ele>139.53</ele>
        <time>2019-12-19T10:30:22Z</time>
      </trkpt>
      <trkpt lat="48.59738" lon="1.96903">
        <ele>139.53</ele>
        <time>2019-12-19T10:30:23Z</time>
      </trkpt>
      <trkpt lat="48.59739" lon="1.96901">
        <ele>140.01</ele>
        <time>2019-12-19T10:30:24Z</time>
      </trkpt>
      <trkpt lat="48.5974" lon="1.969">
        <ele>140.49</ele>
        <time>2019-12-19T10:30:25Z</time>
      </trkpt>
      <trkpt lat="48.5974" lon="1.96898">
        <ele>140.49</ele>
        <time>2019-12-19T10:30:26Z</time>
      </trkpt>
      <trkpt lat="48.59741" lon="1.96897">
        <ele>140.49</ele>
        <time>2019-12-19T10:30:27Z</time>
      </trkpt>
      <trkpt lat="48.59742" lon="1.96895">
        <ele>140.97</ele>
        <time>2019-12-19T10:30:28Z</time>
      </trkpt>
      <trkpt lat="48.59743" lon="1.96894">
        <ele>140.97</ele>
        <time>2019-12-19T10:30:29Z</time>
      </trkpt>
      <trkpt lat="48.59743" lon="1.96893">
        <ele>141.45</ele>
        <time>2019-12-19T10:30:30Z</time>
      </trkpt>
      <trkpt lat="48.59744" lon="1.96892">
        <ele>141.45</ele>
        <time>2019-12-19T10:30:31Z</time>
      </trkpt>
      <trkpt lat="48.59744" lon="1.9689">
        <ele>141.93</ele>
        <time>2019-12-19T10:30:32Z</time>
      </trkpt>
      <trkpt lat="48.59745" lon="1.96889">
        <ele>141.45</ele>
        <time>2019-12-19T10:30:33Z</time>
      </trkpt>
      <trkpt lat="48.59746" lon="1.96887">
        <ele>141.93</ele>
        <time>2019-12-19T10:30:34Z</time>
      </trkpt>
      <trkpt lat="48.59746" lon="1.96885">
        <ele>142.41</ele>
        <time>2019-12-19T10:30:35Z</time>
      </trkpt>
      <trkpt lat="48.59747" lon="1.96884">
        <ele>141.93</ele>
        <time>2019-12-19T10:30:36Z</time>
      </trkpt>
      <trkpt lat="48.59747" lon="1.96883">
        <ele>141.93</ele>
        <time>2019-12-19T10:30:37Z</time>
      </trkpt>
      <trkpt lat="48.59748" lon="1.96881">
        <ele>141.93</ele>
        <time>2019-12-19T10:30:38Z</time>
      </trkpt>
      <trkpt lat="48.59748" lon="1.96878">
        <ele>142.41</ele>
        <time>2019-12-19T10:30:39Z</time>
      </trkpt>
      <trkpt lat="48.59749" lon="1.96876">
        <ele>142.89</ele>
        <time>2019-12-19T10:30:40Z</time>
      </trkpt>
      <trkpt lat="48.59749" lon="1.96874">
        <ele>142.89</ele>
        <time>2019-12-19T10:30:41Z</time>
      </trkpt>
      <trkpt lat="48.5975" lon="1.96872">
        <ele>142.89</ele>
        <time>2019-12-19T10:30:42Z</time>
      </trkpt>
      <trkpt lat="48.59751" lon="1.9687">
        <ele>143.37</ele>
        <time>2019-12-19T10:30:43Z</time>
      </trkpt>
      <trkpt lat="48.59752" lon="1.96868">
        <ele>142.41</ele>
        <time>2019-12-19T10:30:44Z</time>
      </trkpt>
      <trkpt lat="48.59753" lon="1.96866">
        <ele>143.37</ele>
        <time>2019-12-19T10:30:45Z</time>
      </trkpt>
      <trkpt lat="48.59754" lon="1.96864">
        <ele>143.37</ele>
        <time>2019-12-19T10:30:46Z</time>
      </trkpt>
      <trkpt lat="48.59754" lon="1.96862">
        <ele>143.85</ele>
        <time>2019-12-19T10:30:47Z</time>
      </trkpt>
      <trkpt lat="48.59755" lon="1.96861">
        <ele>143.85</ele>
        <time>2019-12-19T10:30:48Z</time>
      </trkpt>
      <trkpt lat="48.59755" lon="1.96859">
        <ele>143.85</ele>
        <time>2019-12-19T10:30:49Z</time>
      </trkpt>
      <trkpt lat="48.59756" lon="1.96857">
        <ele>143.85</ele>
        <time>2019-12-19T10:30:50Z</time>
      </trkpt>
      <trkpt lat="48.59756" lon="1.96856">
        <ele>143.85</ele>
        <time>2019-12-19T10:30:51Z</time>
      </trkpt>
      <trkpt lat="48.59757" lon="1.96854">
        <ele>144.34</ele>
        <time>2019-12-19T10:30:52Z</time>
      </trkpt>
      <trkpt lat="48.59758" lon="1.96852">
        <ele>144.82</ele>
        <time>2019-12-19T10:30:53Z</time>
      </trkpt>
      <trkpt lat="48.59758" lon="1.96851">
        <ele>144.34</ele>
        <time>2019-12-19T10:30:54Z</time>
      </trkpt>
      <trkpt lat="48.59759" lon="1.96849">
        <ele>144.82</ele>
        <time>2019-12-19T10:30:55Z</time>
      </trkpt>
      <trkpt lat="48.5976" lon="1.96848">
        <ele>144.82</ele>
        <time>2019-12-19T10:30:56Z</time>
      </trkpt>
      <trkpt lat="48.59761" lon="1.96847">
        <ele>144.82</ele>
        <time>2019-12-19T10:30:57Z</time>
      </trkpt>
      <trkpt lat="48.59761" lon="1.96845">
        <ele>145.3</ele>
        <time>2019-12-19T10:30:58Z</time>
      </trkpt>
      <trkpt lat="48.59762" lon="1.96842">
        <ele>145.78</ele>
        <time>2019-12-19T10:30:59Z</time>
      </trkpt>
      <trkpt lat="48.59763" lon="1.9684">
        <ele>145.3</ele>
        <time>2019-12-19T10:31:00Z</time>
      </trkpt>
      <trkpt lat="48.59764" lon="1.96836">
        <ele>145.78</ele>
        <time>2019-12-19T10:31:01Z</time>
      </trkpt>
      <trkpt lat="48.59765" lon="1.96832">
        <ele>145.78</ele>
        <time>2019-12-19T10:31:02Z</time>
      </trkpt>
      <trkpt lat="48.59765" lon="1.96829">
        <ele>146.26</ele>
        <time>2019-12-19T10:31:03Z</time>
      </trkpt>
      <trkpt lat="48.59766" lon="1.96827">
        <ele>146.74</ele>
        <time>2019-12-19T10:31:04Z</time>
      </trkpt>
      <trkpt lat="48.59767" lon="1.96825">
        <ele>146.74</ele>
        <time>2019-12-19T10:31:05Z</time>
      </trkpt>
      <trkpt lat="48.59768" lon="1.96822">
        <ele>146.74</ele>
        <time>2019-12-19T10:31:06Z</time>
      </trkpt>
      <trkpt lat="48.59768" lon="1.9682">
        <ele>146.74</ele>
        <time>2019-12-19T10:31:07Z</time>
      </trkpt>
      <trkpt lat="48.59769" lon="1.96819">
        <ele>147.22</ele>
        <time>2019-12-19T10:31:08Z</time>
      </trkpt>
      <trkpt lat="48.5977" lon="1.96817">
        <ele>147.22</ele>
        <time>2019-12-19T10:31:09Z</time>
      </trkpt>
      <trkpt lat="48.59772" lon="1.96816">
        <ele>147.7</ele>
        <time>2019-12-19T10:31:10Z</time>
      </trkpt>
      <trkpt lat="48.59773" lon="1.96814">
        <ele>147.22</ele>
        <time>2019-12-19T10:31:11Z</time>
      </trkpt>
      <trkpt lat="48.59774" lon="1.96813">
        <ele>148.18</ele>
        <time>2019-12-19T10:31:12Z</time>
      </trkpt>
      <trkpt lat="48.59774" lon="1.96813">
        <ele>148.18</ele>
        <time>2019-12-19T10:31:13Z</time>
      </trkpt>
      <trkpt lat="48.59775" lon="1.96812">
        <ele>149.14</ele>
        <time>2019-12-19T10:31:14Z</time>
      </trkpt>
      <trkpt lat="48.59776" lon="1.96811">
        <ele>148.66</ele>
        <time>2019-12-19T10:31:15Z</time>
      </trkpt>
      <trkpt lat="48.59777" lon="1.96809">
        <ele>148.66</ele>
        <time>2019-12-19T10:31:16Z</time>
      </trkpt>
      <trkpt lat="48.59777" lon="1.96808">
        <ele>149.14</ele>
        <time>2019-12-19T10:31:17Z</time>
      </trkpt>
      <trkpt lat="48.59777" lon="1.96807">
        <ele>149.62</ele>
        <time>2019-12-19T10:31:18Z</time>
      </trkpt>
      <trkpt lat="48.59778" lon="1.96806">
        <ele>149.62</ele>
        <time>2019-12-19T10:31:19Z</time>
      </trkpt>
      <trkpt lat="48.59779" lon="1.96805">
        <ele>149.62</ele>
        <time>2019-12-19T10:31:20Z</time>
      </trkpt>
      <trkpt lat="48.5978" lon="1.96802">
        <ele>150.58</ele>
        <time>2019-12-19T10:31:21Z</time>
      </trkpt>
      <trkpt lat="48.59781" lon="1.96799">
        <ele>150.58</ele>
        <time>2019-12-19T10:31:22Z</time>
      </trkpt>
      <trkpt lat="48.59781" lon="1.96797">
        <ele>150.58</ele>
        <time>2019-12-19T10:31:23Z</time>
      </trkpt>
      <trkpt lat="48.59782" lon="1.96795">
        <ele>150.58</ele>
        <time>2019-12-19T10:31:24Z</time>
      </trkpt>
      <trkpt lat="48.59783" lon="1.96793">
        <ele>150.58</ele>
        <time>2019-12-19T10:31:25Z</time>
      </trkpt>
      <trkpt lat="48.59784" lon="1.96791">
        <ele>151.06</ele>
        <time>2019-12-19T10:31:26Z</time>
      </trkpt>
      <trkpt lat="48.59785" lon="1.96789">
        <ele>151.06</ele>
        <time>2019-12-19T10:31:27Z</time>
      </trkpt>
      <trkpt lat="48.59786" lon="1.96788">
        <ele>151.06</ele>
        <time>2019-12-19T10:31:28Z</time>
      </trkpt>
      <trkpt lat="48.59787" lon="1.96787">
        <ele>151.06</ele>
        <time>2019-12-19T10:31:29Z</time>
      </trkpt>
      <trkpt lat="48.59788" lon="1.96785">
        <ele>152.03</ele>
        <time>2019-12-19T10:31:30Z</time>
      </trkpt>
      <trkpt lat="48.59788" lon="1.96784">
        <ele>152.03</ele>
        <time>2019-12-19T10:31:31Z</time>
      </trkpt>
      <trkpt lat="48.59789" lon="1.96782">
        <ele>152.03</ele>
        <time>2019-12-19T10:31:32Z</time>
      </trkpt>
      <trkpt lat="48.5979" lon="1.96781">
        <ele>152.03</ele>
        <time>2019-12-19T10:31:33Z</time>
      </trkpt>
      <trkpt lat="48.59791" lon="1.96779">
        <ele>152.51</ele>
        <time>2019-12-19T10:31:34Z</time>
      </trkpt>
      <trkpt lat="48.59791" lon="1.96777">
        <ele>152.03</ele>
        <time>2019-12-19T10:31:35Z</time>
      </trkpt>
      <trkpt lat="48.59792" lon="1.96776">
        <ele>152.51</ele>
        <time>2019-12-19T10:31:36Z</time>
      </trkpt>
      <trkpt lat="48.59793" lon="1.96774">
        <ele>152.51</ele>
        <time>2019-12-19T10:31:37Z</time>
      </trkpt>
      <trkpt lat="48.59794" lon="1.96772">
        <ele>152.51</ele>
        <time>2019-12-19T10:31:38Z</time>
      </trkpt>
      <trkpt lat="48.59795" lon="1.96771">
        <ele>152.99</ele>
        <time>2019-12-19T10:31:39Z</time>
      </trkpt>
      <trkpt lat="48.59796" lon="1.96769">
        <ele>152.99</ele>
        <time>2019-12-19T10:31:40Z</time>
      </trkpt>
      <trkpt lat="48.59797" lon="1.96768">
        <ele>152.99</ele>
        <time>2019-12-19T10:31:41Z</time>
      </trkpt>
      <trkpt lat="48.59797" lon="1.96767">
        <ele>152.99</ele>
        <time>2019-12-19T10:31:42Z</time>
      </trkpt>
      <trkpt lat="48.59798" lon="1.96765">
        <ele>152.99</ele>
        <time>2019-12-19T10:31:43Z</time>
      </trkpt>
      <trkpt lat="48.59798" lon="1.96763">
        <ele>153.47</ele>
        <time>2019-12-19T10:31:44Z</time>
      </trkpt>
      <trkpt lat="48.59799" lon="1.96761">
        <ele>152.99</ele>
        <time>2019-12-19T10:31:45Z</time>
      </trkpt>
      <trkpt lat="48.59799" lon="1.96759">
        <ele>152.99</ele>
        <time>2019-12-19T10:31:46Z</time>
      </trkpt>
      <trkpt lat="48.598" lon="1.96757">
        <ele>153.47</ele>
        <time>2019-12-19T10:31:47Z</time>
      </trkpt>
      <trkpt lat="48.59801" lon="1.96756">
        <ele>152.99</ele>
        <time>2019-12-19T10:31:48Z</time>
      </trkpt>
      <trkpt lat="48.59802" lon="1.96754">
        <ele>153.47</ele>
        <time>2019-12-19T10:31:49Z</time>
      </trkpt>
      <trkpt lat="48.59802" lon="1.96751">
        <ele>153.47</ele>
        <time>2019-12-19T10:31:50Z</time>
      </trkpt>
      <trkpt lat="48.59803" lon="1.96749">
        <ele>153.47</ele>
        <time>2019-12-19T10:31:51Z</time>
      </trkpt>
      <trkpt lat="48.59804" lon="1.96747">
        <ele>153.47</ele>
        <time>2019-12-19T10:31:52Z</time>
      </trkpt>
      <trkpt lat="48.59805" lon="1.96745">
        <ele>153.47</ele>
        <time>2019-12-19T10:31:53Z</time>
      </trkpt>
      <trkpt lat="48.59805" lon="1.96743">
        <ele>153.95</ele>
        <time>2019-12-19T10:31:54Z</time>
      </trkpt>
      <trkpt lat="48.59806" lon="1.96742">
        <ele>153.47</ele>
        <time>2019-12-19T10:31:55Z</time>
      </trkpt>
      <trkpt lat="48.59807" lon="1.9674">
        <ele>153.47</ele>
        <time>2019-12-19T10:31:56Z</time>
      </trkpt>
      <trkpt lat="48.59808" lon="1.96738">
        <ele>153.47</ele>
        <time>2019-12-19T10:31:57Z</time>
      </trkpt>
      <trkpt lat="48.59809" lon="1.96736">
        <ele>153.95</ele>
        <time>2019-12-19T10:31:58Z</time>
      </trkpt>
      <trkpt lat="48.5981" lon="1.96734">
        <ele>153.95</ele>
        <time>2019-12-19T10:31:59Z</time>
      </trkpt>
      <trkpt lat="48.59812" lon="1.96733">
        <ele>153.95</ele>
        <time>2019-12-19T10:32:00Z</time>
      </trkpt>
      <trkpt lat="48.59813" lon="1.96731">
        <ele>153.95</ele>
        <time>2019-12-19T10:32:01Z</time>
      </trkpt>
      <trkpt lat="48.59814" lon="1.96729">
        <ele>153.47</ele>
        <time>2019-12-19T10:32:02Z</time>
      </trkpt>
      <trkpt lat="48.59815" lon="1.96727">
        <ele>153.95</ele>
        <time>2019-12-19T10:32:03Z</time>
      </trkpt>
      <trkpt lat="48.59815" lon="1.96725">
        <ele>153.95</ele>
        <time>2019-12-19T10:32:04Z</time>
      </trkpt>
      <trkpt lat="48.59816" lon="1.96723">
        <ele>153.95</ele>
        <time>2019-12-19T10:32:05Z</time>
      </trkpt>
      <trkpt lat="48.59817" lon="1.96719">
        <ele>154.43</ele>
        <time>2019-12-19T10:32:06Z</time>
      </trkpt>
      <trkpt lat="48.59818" lon="1.96717">
        <ele>153.95</ele>
        <time>2019-12-19T10:32:07Z</time>
      </trkpt>
      <trkpt lat="48.59818" lon="1.96715">
        <ele>153.95</ele>
        <time>2019-12-19T10:32:08Z</time>
      </trkpt>
      <trkpt lat="48.59819" lon="1.96713">
        <ele>153.95</ele>
        <time>2019-12-19T10:32:09Z</time>
      </trkpt>
      <trkpt lat="48.5982" lon="1.96712">
        <ele>153.95</ele>
        <time>2019-12-19T10:32:10Z</time>
      </trkpt>
      <trkpt lat="48.5982" lon="1.9671">
        <ele>153.95</ele>
        <time>2019-12-19T10:32:11Z</time>
      </trkpt>
      <trkpt lat="48.59821" lon="1.96708">
        <ele>153.95</ele>
        <time>2019-12-19T10:32:12Z</time>
      </trkpt>
      <trkpt lat="48.59822" lon="1.96707">
        <ele>153.95</ele>
        <time>2019-12-19T10:32:13Z</time>
      </trkpt>
      <trkpt lat="48.59822" lon="1.96705">
        <ele>154.43</ele>
        <time>2019-12-19T10:32:14Z</time>
      </trkpt>
      <trkpt lat="48.59823" lon="1.96703">
        <ele>154.43</ele>
        <time>2019-12-19T10:32:15Z</time>
      </trkpt>
      <trkpt lat="48.59824" lon="1.96701">
        <ele>154.43</ele>
        <time>2019-12-19T10:32:16Z</time>
      </trkpt>
      <trkpt lat="48.59825" lon="1.96699">
        <ele>153.95</ele>
        <time>2019-12-19T10:32:17Z</time>
      </trkpt>
      <trkpt lat="48.59826" lon="1.96698">
        <ele>153.95</ele>
        <time>2019-12-19T10:32:18Z</time>
      </trkpt>
      <trkpt lat="48.59827" lon="1.96696">
        <ele>153.95</ele>
        <time>2019-12-19T10:32:19Z</time>
      </trkpt>
      <trkpt lat="48.59828" lon="1.96694">
        <ele>153.95</ele>
        <time>2019-12-19T10:32:20Z</time>
      </trkpt>
      <trkpt lat="48.59829" lon="1.96692">
        <ele>153.95</ele>
        <time>2019-12-19T10:32:21Z</time>
      </trkpt>
      <trkpt lat="48.5983" lon="1.9669">
        <ele>154.43</ele>
        <time>2019-12-19T10:32:22Z</time>
      </trkpt>
      <trkpt lat="48.59831" lon="1.96688">
        <ele>154.43</ele>
        <time>2019-12-19T10:32:23Z</time>
      </trkpt>
      <trkpt lat="48.59832" lon="1.96686">
        <ele>154.43</ele>
        <time>2019-12-19T10:32:24Z</time>
      </trkpt>
      <trkpt lat="48.59834" lon="1.96685">
        <ele>153.95</ele>
        <time>2019-12-19T10:32:25Z</time>
      </trkpt>
      <trkpt lat="48.59835" lon="1.96683">
        <ele>153.95</ele>
        <time>2019-12-19T10:32:26Z</time>
      </trkpt>
      <trkpt lat="48.59836" lon="1.9668">
        <ele>153.95</ele>
        <time>2019-12-19T10:32:27Z</time>
      </trkpt>
      <trkpt lat="48.59837" lon="1.96678">
        <ele>153.95</ele>
        <time>2019-12-19T10:32:28Z</time>
      </trkpt>
      <trkpt lat="48.59839" lon="1.96677">
        <ele>153.95</ele>
        <time>2019-12-19T10:32:29Z</time>
      </trkpt>
      <trkpt lat="48.5984" lon="1.96675">
        <ele>153.95</ele>
        <time>2019-12-19T10:32:30Z</time>
      </trkpt>
      <trkpt lat="48.59842" lon="1.96673">
        <ele>153.95</ele>
        <time>2019-12-19T10:32:31Z</time>
      </trkpt>
      <trkpt lat="48.59843" lon="1.9667">
        <ele>154.43</ele>
        <time>2019-12-19T10:32:32Z</time>
      </trkpt>
      <trkpt lat="48.59844" lon="1.96668">
        <ele>153.95</ele>
        <time>2019-12-19T10:32:33Z</time>
      </trkpt>
      <trkpt lat="48.59845" lon="1.96666">
        <ele>153.95</ele>
        <time>2019-12-19T10:32:34Z</time>
      </trkpt>
      <trkpt lat="48.59846" lon="1.96664">
        <ele>153.95</ele>
        <time>2019-12-19T10:32:35Z</time>
      </trkpt>
      <trkpt lat="48.59847" lon="1.96663">
        <ele>153.95</ele>
        <time>2019-12-19T10:32:36Z</time>
      </trkpt>
      <trkpt lat="48.59848" lon="1.96661">
        <ele>153.95</ele>
        <time>2019-12-19T10:32:37Z</time>
      </trkpt>
      <trkpt lat="48.59849" lon="1.9666">
        <ele>153.95</ele>
        <time>2019-12-19T10:32:38Z</time>
      </trkpt>
      <trkpt lat="48.5985" lon="1.96658">
        <ele>153.95</ele>
        <time>2019-12-19T10:32:39Z</time>
      </trkpt>
      <trkpt lat="48.59851" lon="1.96656">
        <ele>153.95</ele>
        <time>2019-12-19T10:32:40Z</time>
      </trkpt>
      <trkpt lat="48.59852" lon="1.96654">
        <ele>153.95</ele>
        <time>2019-12-19T10:32:41Z</time>
      </trkpt>
      <trkpt lat="48.59853" lon="1.96653">
        <ele>153.95</ele>
        <time>2019-12-19T10:32:42Z</time>
      </trkpt>
      <trkpt lat="48.59853" lon="1.96652">
        <ele>153.95</ele>
        <time>2019-12-19T10:32:43Z</time>
      </trkpt>
      <trkpt lat="48.59854" lon="1.9665">
        <ele>153.95</ele>
        <time>2019-12-19T10:32:44Z</time>
      </trkpt>
      <trkpt lat="48.59855" lon="1.96649">
        <ele>153.95</ele>
        <time>2019-12-19T10:32:45Z</time>
      </trkpt>
      <trkpt lat="48.59856" lon="1.96647">
        <ele>153.95</ele>
        <time>2019-12-19T10:32:46Z</time>
      </trkpt>
      <trkpt lat="48.59857" lon="1.96646">
        <ele>153.47</ele>
        <time>2019-12-19T10:32:47Z</time>
      </trkpt>
      <trkpt lat="48.59858" lon="1.96644">
        <ele>153.95</ele>
        <time>2019-12-19T10:32:48Z</time>
      </trkpt>
      <trkpt lat="48.59859" lon="1.96643">
        <ele>153.47</ele>
        <time>2019-12-19T10:32:49Z</time>
      </trkpt>
      <trkpt lat="48.5986" lon="1.96642">
        <ele>153.95</ele>
        <time>2019-12-19T10:32:50Z</time>
      </trkpt>
      <trkpt lat="48.5986" lon="1.96641">
        <ele>153.47</ele>
        <time>2019-12-19T10:32:51Z</time>
      </trkpt>
      <trkpt lat="48.59861" lon="1.96639">
        <ele>153.47</ele>
        <time>2019-12-19T10:32:52Z</time>
      </trkpt>
      <trkpt lat="48.59862" lon="1.96637">
        <ele>153.47</ele>
        <time>2019-12-19T10:32:53Z</time>
      </trkpt>
      <trkpt lat="48.59863" lon="1.96636">
        <ele>153.47</ele>
        <time>2019-12-19T10:32:54Z</time>
      </trkpt>
      <trkpt lat="48.59864" lon="1.96635">
        <ele>153.47</ele>
        <time>2019-12-19T10:32:55Z</time>
      </trkpt>
      <trkpt lat="48.59865" lon="1.96633">
        <ele>153.47</ele>
        <time>2019-12-19T10:32:56Z</time>
      </trkpt>
      <trkpt lat="48.59866" lon="1.96632">
        <ele>153.47</ele>
        <time>2019-12-19T10:32:57Z</time>
      </trkpt>
      <trkpt lat="48.59867" lon="1.9663">
        <ele>153.47</ele>
        <time>2019-12-19T10:32:58Z</time>
      </trkpt>
      <trkpt lat="48.59868" lon="1.96629">
        <ele>153.47</ele>
        <time>2019-12-19T10:32:59Z</time>
      </trkpt>
      <trkpt lat="48.5987" lon="1.96627">
        <ele>153.47</ele>
        <time>2019-12-19T10:33:00Z</time>
      </trkpt>
      <trkpt lat="48.5987" lon="1.96626">
        <ele>153.47</ele>
        <time>2019-12-19T10:33:01Z</time>
      </trkpt>
      <trkpt lat="48.59871" lon="1.96625">
        <ele>153.47</ele>
        <time>2019-12-19T10:33:02Z</time>
      </trkpt>
      <trkpt lat="48.59871" lon="1.96623">
        <ele>152.99</ele>
        <time>2019-12-19T10:33:03Z</time>
      </trkpt>
      <trkpt lat="48.59872" lon="1.96622">
        <ele>152.99</ele>
        <time>2019-12-19T10:33:04Z</time>
      </trkpt>
      <trkpt lat="48.59873" lon="1.96621">
        <ele>152.99</ele>
        <time>2019-12-19T10:33:05Z</time>
      </trkpt>
      <trkpt lat="48.59873" lon="1.9662">
        <ele>152.99</ele>
        <time>2019-12-19T10:33:06Z</time>
      </trkpt>
      <trkpt lat="48.59874" lon="1.96619">
        <ele>153.47</ele>
        <time>2019-12-19T10:33:07Z</time>
      </trkpt>
      <trkpt lat="48.59875" lon="1.96617">
        <ele>152.99</ele>
        <time>2019-12-19T10:33:08Z</time>
      </trkpt>
      <trkpt lat="48.59876" lon="1.96615">
        <ele>152.99</ele>
        <time>2019-12-19T10:33:09Z</time>
      </trkpt>
      <trkpt lat="48.59877" lon="1.96613">
        <ele>152.51</ele>
        <time>2019-12-19T10:33:10Z</time>
      </trkpt>
      <trkpt lat="48.59878" lon="1.96611">
        <ele>152.51</ele>
        <time>2019-12-19T10:33:11Z</time>
      </trkpt>
      <trkpt lat="48.59878" lon="1.9661">
        <ele>152.51</ele>
        <time>2019-12-19T10:33:12Z</time>
      </trkpt>
      <trkpt lat="48.59879" lon="1.96608">
        <ele>152.51</ele>
        <time>2019-12-19T10:33:13Z</time>
      </trkpt>
      <trkpt lat="48.59879" lon="1.96606">
        <ele>152.51</ele>
        <time>2019-12-19T10:33:14Z</time>
      </trkpt>
      <trkpt lat="48.5988" lon="1.96604">
        <ele>152.51</ele>
        <time>2019-12-19T10:33:15Z</time>
      </trkpt>
      <trkpt lat="48.59879" lon="1.96602">
        <ele>152.51</ele>
        <time>2019-12-19T10:33:16Z</time>
      </trkpt>
      <trkpt lat="48.59879" lon="1.966">
        <ele>152.51</ele>
        <time>2019-12-19T10:33:17Z</time>
      </trkpt>
      <trkpt lat="48.59879" lon="1.96598">
        <ele>152.51</ele>
        <time>2019-12-19T10:33:18Z</time>
      </trkpt>
      <trkpt lat="48.59879" lon="1.96596">
        <ele>152.51</ele>
        <time>2019-12-19T10:33:19Z</time>
      </trkpt>
      <trkpt lat="48.59879" lon="1.96595">
        <ele>152.51</ele>
        <time>2019-12-19T10:33:20Z</time>
      </trkpt>
      <trkpt lat="48.59879" lon="1.96593">
        <ele>152.51</ele>
        <time>2019-12-19T10:33:21Z</time>
      </trkpt>
      <trkpt lat="48.59878" lon="1.96592">
        <ele>152.99</ele>
        <time>2019-12-19T10:33:22Z</time>
      </trkpt>
      <trkpt lat="48.59878" lon="1.9659">
        <ele>152.51</ele>
        <time>2019-12-19T10:33:23Z</time>
      </trkpt>
      <trkpt lat="48.59877" lon="1.96589">
        <ele>152.51</ele>
        <time>2019-12-19T10:33:24Z</time>
      </trkpt>
      <trkpt lat="48.59876" lon="1.96588">
        <ele>152.99</ele>
        <time>2019-12-19T10:33:25Z</time>
      </trkpt>
      <trkpt lat="48.59875" lon="1.96587">
        <ele>152.99</ele>
        <time>2019-12-19T10:33:26Z</time>
      </trkpt>
      <trkpt lat="48.59874" lon="1.96586">
        <ele>152.99</ele>
        <time>2019-12-19T10:33:27Z</time>
      </trkpt>
      <trkpt lat="48.59873" lon="1.96584">
        <ele>152.99</ele>
        <time>2019-12-19T10:33:28Z</time>
      </trkpt>
      <trkpt lat="48.59873" lon="1.96582">
        <ele>153.47</ele>
        <time>2019-12-19T10:33:29Z</time>
      </trkpt>
      <trkpt lat="48.59872" lon="1.96581">
        <ele>152.99</ele>
        <time>2019-12-19T10:33:30Z</time>
      </trkpt>
      <trkpt lat="48.59871" lon="1.9658">
        <ele>153.47</ele>
        <time>2019-12-19T10:33:31Z</time>
      </trkpt>
      <trkpt lat="48.5987" lon="1.96579">
        <ele>153.47</ele>
        <time>2019-12-19T10:33:32Z</time>
      </trkpt>
      <trkpt lat="48.5987" lon="1.96578">
        <ele>153.95</ele>
        <time>2019-12-19T10:33:33Z</time>
      </trkpt>
      <trkpt lat="48.59868" lon="1.96577">
        <ele>153.95</ele>
        <time>2019-12-19T10:33:34Z</time>
      </trkpt>
      <trkpt lat="48.59868" lon="1.96576">
        <ele>153.47</ele>
        <time>2019-12-19T10:33:35Z</time>
      </trkpt>
      <trkpt lat="48.59867" lon="1.96575">
        <ele>153.95</ele>
        <time>2019-12-19T10:33:36Z</time>
      </trkpt>
      <trkpt lat="48.59866" lon="1.96574">
        <ele>153.95</ele>
        <time>2019-12-19T10:33:37Z</time>
      </trkpt>
      <trkpt lat="48.59865" lon="1.96573">
        <ele>153.95</ele>
        <time>2019-12-19T10:33:38Z</time>
      </trkpt>
      <trkpt lat="48.59864" lon="1.96572">
        <ele>153.95</ele>
        <time>2019-12-19T10:33:39Z</time>
      </trkpt>
      <trkpt lat="48.59862" lon="1.96569">
        <ele>153.95</ele>
        <time>2019-12-19T10:33:40Z</time>
      </trkpt>
      <trkpt lat="48.59861" lon="1.96567">
        <ele>153.95</ele>
        <time>2019-12-19T10:33:41Z</time>
      </trkpt>
      <trkpt lat="48.5986" lon="1.96565">
        <ele>154.43</ele>
        <time>2019-12-19T10:33:42Z</time>
      </trkpt>
      <trkpt lat="48.59859" lon="1.96563">
        <ele>154.91</ele>
        <time>2019-12-19T10:33:43Z</time>
      </trkpt>
      <trkpt lat="48.59858" lon="1.96561">
        <ele>155.39</ele>
        <time>2019-12-19T10:33:44Z</time>
      </trkpt>
      <trkpt lat="48.59857" lon="1.96559">
        <ele>154.91</ele>
        <time>2019-12-19T10:33:45Z</time>
      </trkpt>
      <trkpt lat="48.59856" lon="1.96558">
        <ele>154.91</ele>
        <time>2019-12-19T10:33:46Z</time>
      </trkpt>
      <trkpt lat="48.59855" lon="1.96556">
        <ele>154.91</ele>
        <time>2019-12-19T10:33:47Z</time>
      </trkpt>
      <trkpt lat="48.59854" lon="1.96554">
        <ele>154.91</ele>
        <time>2019-12-19T10:33:48Z</time>
      </trkpt>
      <trkpt lat="48.59853" lon="1.96553">
        <ele>154.91</ele>
        <time>2019-12-19T10:33:49Z</time>
      </trkpt>
      <trkpt lat="48.59852" lon="1.96553">
        <ele>154.91</ele>
        <time>2019-12-19T10:33:50Z</time>
      </trkpt>
      <trkpt lat="48.59852" lon="1.96552">
        <ele>154.91</ele>
        <time>2019-12-19T10:33:51Z</time>
      </trkpt>
      <trkpt lat="48.59851" lon="1.96551">
        <ele>154.91</ele>
        <time>2019-12-19T10:33:52Z</time>
      </trkpt>
      <trkpt lat="48.5985" lon="1.9655">
        <ele>154.91</ele>
        <time>2019-12-19T10:33:53Z</time>
      </trkpt>
      <trkpt lat="48.59849" lon="1.96549">
        <ele>155.39</ele>
        <time>2019-12-19T10:33:54Z</time>
      </trkpt>
      <trkpt lat="48.59848" lon="1.96547">
        <ele>155.39</ele>
        <time>2019-12-19T10:33:55Z</time>
      </trkpt>
      <trkpt lat="48.59847" lon="1.96546">
        <ele>155.39</ele>
        <time>2019-12-19T10:33:56Z</time>
      </trkpt>
      <trkpt lat="48.59846" lon="1.96545">
        <ele>155.39</ele>
        <time>2019-12-19T10:33:57Z</time>
      </trkpt>
      <trkpt lat="48.59845" lon="1.96544">
        <ele>155.87</ele>
        <time>2019-12-19T10:33:58Z</time>
      </trkpt>
      <trkpt lat="48.59844" lon="1.96543">
        <ele>155.87</ele>
        <time>2019-12-19T10:33:59Z</time>
      </trkpt>
      <trkpt lat="48.59842" lon="1.96543">
        <ele>155.39</ele>
        <time>2019-12-19T10:34:00Z</time>
      </trkpt>
      <trkpt lat="48.59841" lon="1.96542">
        <ele>155.87</ele>
        <time>2019-12-19T10:34:01Z</time>
      </trkpt>
      <trkpt lat="48.5984" lon="1.96541">
        <ele>155.39</ele>
        <time>2019-12-19T10:34:02Z</time>
      </trkpt>
      <trkpt lat="48.59839" lon="1.9654">
        <ele>155.39</ele>
        <time>2019-12-19T10:34:03Z</time>
      </trkpt>
      <trkpt lat="48.59838" lon="1.96539">
        <ele>155.87</ele>
        <time>2019-12-19T10:34:04Z</time>
      </trkpt>
      <trkpt lat="48.59837" lon="1.96539">
        <ele>155.87</ele>
        <time>2019-12-19T10:34:05Z</time>
      </trkpt>
      <trkpt lat="48.59835" lon="1.96537">
        <ele>155.87</ele>
        <time>2019-12-19T10:34:06Z</time>
      </trkpt>
      <trkpt lat="48.59834" lon="1.96535">
        <ele>155.87</ele>
        <time>2019-12-19T10:34:07Z</time>
      </trkpt>
      <trkpt lat="48.59833" lon="1.96533">
        <ele>155.87</ele>
        <time>2019-12-19T10:34:08Z</time>
      </trkpt>
      <trkpt lat="48.59831" lon="1.96532">
        <ele>155.87</ele>
        <time>2019-12-19T10:34:09Z</time>
      </trkpt>
      <trkpt lat="48.5983" lon="1.9653">
        <ele>155.87</ele>
        <time>2019-12-19T10:34:10Z</time>
      </trkpt>
      <trkpt lat="48.59828" lon="1.96528">
        <ele>155.87</ele>
        <time>2019-12-19T10:34:11Z</time>
      </trkpt>
      <trkpt lat="48.59826" lon="1.96526">
        <ele>155.87</ele>
        <time>2019-12-19T10:34:12Z</time>
      </trkpt>
      <trkpt lat="48.59824" lon="1.96524">
        <ele>155.87</ele>
        <time>2019-12-19T10:34:13Z</time>
      </trkpt>
      <trkpt lat="48.59823" lon="1.9652">
        <ele>155.87</ele>
        <time>2019-12-19T10:34:14Z</time>
      </trkpt>
      <trkpt lat="48.59823" lon="1.96517">
        <ele>156.35</ele>
        <time>2019-12-19T10:34:15Z</time>
      </trkpt>
      <trkpt lat="48.59822" lon="1.96514">
        <ele>156.83</ele>
        <time>2019-12-19T10:34:16Z</time>
      </trkpt>
      <trkpt lat="48.59822" lon="1.96511">
        <ele>156.35</ele>
        <time>2019-12-19T10:34:17Z</time>
      </trkpt>
      <trkpt lat="48.59822" lon="1.96507">
        <ele>156.35</ele>
        <time>2019-12-19T10:34:18Z</time>
      </trkpt>
      <trkpt lat="48.59821" lon="1.96504">
        <ele>156.35</ele>
        <time>2019-12-19T10:34:19Z</time>
      </trkpt>
      <trkpt lat="48.5982" lon="1.96503">
        <ele>155.87</ele>
        <time>2019-12-19T10:34:20Z</time>
      </trkpt>
      <trkpt lat="48.59819" lon="1.96501">
        <ele>156.35</ele>
        <time>2019-12-19T10:34:21Z</time>
      </trkpt>
      <trkpt lat="48.59818" lon="1.96499">
        <ele>156.35</ele>
        <time>2019-12-19T10:34:22Z</time>
      </trkpt>
      <trkpt lat="48.59816" lon="1.96498">
        <ele>156.35</ele>
        <time>2019-12-19T10:34:23Z</time>
      </trkpt>
      <trkpt lat="48.59814" lon="1.96497">
        <ele>156.35</ele>
        <time>2019-12-19T10:34:24Z</time>
      </trkpt>
      <trkpt lat="48.59813" lon="1.96495">
        <ele>156.35</ele>
        <time>2019-12-19T10:34:25Z</time>
      </trkpt>
      <trkpt lat="48.59811" lon="1.96494">
        <ele>156.83</ele>
        <time>2019-12-19T10:34:26Z</time>
      </trkpt>
      <trkpt lat="48.5981" lon="1.96492">
        <ele>156.83</ele>
        <time>2019-12-19T10:34:27Z</time>
      </trkpt>
      <trkpt lat="48.59808" lon="1.96491">
        <ele>156.35</ele>
        <time>2019-12-19T10:34:28Z</time>
      </trkpt>
      <trkpt lat="48.59807" lon="1.96489">
        <ele>156.35</ele>
        <time>2019-12-19T10:34:29Z</time>
      </trkpt>
      <trkpt lat="48.59805" lon="1.96488">
        <ele>156.35</ele>
        <time>2019-12-19T10:34:30Z</time>
      </trkpt>
      <trkpt lat="48.59803" lon="1.96487">
        <ele>156.83</ele>
        <time>2019-12-19T10:34:31Z</time>
      </trkpt>
      <trkpt lat="48.59801" lon="1.96487">
        <ele>156.83</ele>
        <time>2019-12-19T10:34:32Z</time>
      </trkpt>
      <trkpt lat="48.59799" lon="1.96486">
        <ele>156.83</ele>
        <time>2019-12-19T10:34:33Z</time>
      </trkpt>
      <trkpt lat="48.59798" lon="1.96484">
        <ele>156.83</ele>
        <time>2019-12-19T10:34:34Z</time>
      </trkpt>
      <trkpt lat="48.59796" lon="1.96484">
        <ele>157.31</ele>
        <time>2019-12-19T10:34:35Z</time>
      </trkpt>
      <trkpt lat="48.59795" lon="1.96483">
        <ele>157.31</ele>
        <time>2019-12-19T10:34:36Z</time>
      </trkpt>
      <trkpt lat="48.59794" lon="1.96482">
        <ele>157.31</ele>
        <time>2019-12-19T10:34:37Z</time>
      </trkpt>
      <trkpt lat="48.59792" lon="1.96482">
        <ele>157.31</ele>
        <time>2019-12-19T10:34:38Z</time>
      </trkpt>
      <trkpt lat="48.59791" lon="1.96481">
        <ele>156.83</ele>
        <time>2019-12-19T10:34:39Z</time>
      </trkpt>
      <trkpt lat="48.59789" lon="1.9648">
        <ele>156.83</ele>
        <time>2019-12-19T10:34:40Z</time>
      </trkpt>
      <trkpt lat="48.59788" lon="1.96479">
        <ele>156.83</ele>
        <time>2019-12-19T10:34:41Z</time>
      </trkpt>
      <trkpt lat="48.59787" lon="1.96478">
        <ele>157.31</ele>
        <time>2019-12-19T10:34:42Z</time>
      </trkpt>
      <trkpt lat="48.59785" lon="1.96477">
        <ele>156.83</ele>
        <time>2019-12-19T10:34:43Z</time>
      </trkpt>
      <trkpt lat="48.59784" lon="1.96475">
        <ele>156.83</ele>
        <time>2019-12-19T10:34:44Z</time>
      </trkpt>
      <trkpt lat="48.59783" lon="1.96475">
        <ele>157.31</ele>
        <time>2019-12-19T10:34:45Z</time>
      </trkpt>
      <trkpt lat="48.59782" lon="1.96474">
        <ele>157.31</ele>
        <time>2019-12-19T10:34:46Z</time>
      </trkpt>
      <trkpt lat="48.5978" lon="1.96473">
        <ele>157.31</ele>
        <time>2019-12-19T10:34:47Z</time>
      </trkpt>
      <trkpt lat="48.59779" lon="1.96471">
        <ele>157.31</ele>
        <time>2019-12-19T10:34:48Z</time>
      </trkpt>
      <trkpt lat="48.59777" lon="1.9647">
        <ele>157.31</ele>
        <time>2019-12-19T10:34:49Z</time>
      </trkpt>
      <trkpt lat="48.59776" lon="1.96469">
        <ele>157.31</ele>
        <time>2019-12-19T10:34:50Z</time>
      </trkpt>
      <trkpt lat="48.59775" lon="1.96467">
        <ele>157.31</ele>
        <time>2019-12-19T10:34:51Z</time>
      </trkpt>
      <trkpt lat="48.59773" lon="1.96466">
        <ele>157.31</ele>
        <time>2019-12-19T10:34:52Z</time>
      </trkpt>
      <trkpt lat="48.59772" lon="1.96464">
        <ele>157.31</ele>
        <time>2019-12-19T10:34:53Z</time>
      </trkpt>
      <trkpt lat="48.59771" lon="1.96463">
        <ele>157.31</ele>
        <time>2019-12-19T10:34:54Z</time>
      </trkpt>
      <trkpt lat="48.5977" lon="1.96463">
        <ele>157.31</ele>
        <time>2019-12-19T10:34:55Z</time>
      </trkpt>
      <trkpt lat="48.59768" lon="1.96462">
        <ele>157.31</ele>
        <time>2019-12-19T10:34:56Z</time>
      </trkpt>
      <trkpt lat="48.59767" lon="1.96461">
        <ele>157.79</ele>
        <time>2019-12-19T10:34:57Z</time>
      </trkpt>
      <trkpt lat="48.59764" lon="1.9646">
        <ele>157.79</ele>
        <time>2019-12-19T10:34:58Z</time>
      </trkpt>
      <trkpt lat="48.59762" lon="1.96459">
        <ele>157.79</ele>
        <time>2019-12-19T10:34:59Z</time>
      </trkpt>
      <trkpt lat="48.59761" lon="1.96458">
        <ele>157.79</ele>
        <time>2019-12-19T10:35:00Z</time>
      </trkpt>
      <trkpt lat="48.59759" lon="1.96456">
        <ele>157.31</ele>
        <time>2019-12-19T10:35:01Z</time>
      </trkpt>
      <trkpt lat="48.59757" lon="1.96455">
        <ele>157.79</ele>
        <time>2019-12-19T10:35:02Z</time>
      </trkpt>
      <trkpt lat="48.59756" lon="1.96454">
        <ele>157.31</ele>
        <time>2019-12-19T10:35:03Z</time>
      </trkpt>
      <trkpt lat="48.59755" lon="1.96452">
        <ele>157.79</ele>
        <time>2019-12-19T10:35:04Z</time>
      </trkpt>
      <trkpt lat="48.59754" lon="1.96451">
        <ele>157.31</ele>
        <time>2019-12-19T10:35:05Z</time>
      </trkpt>
      <trkpt lat="48.59753" lon="1.96451">
        <ele>157.79</ele>
        <time>2019-12-19T10:35:06Z</time>
      </trkpt>
      <trkpt lat="48.59753" lon="1.9645">
        <ele>157.79</ele>
        <time>2019-12-19T10:35:07Z</time>
      </trkpt>
      <trkpt lat="48.59752" lon="1.9645">
        <ele>157.79</ele>
        <time>2019-12-19T10:35:08Z</time>
      </trkpt>
      <trkpt lat="48.59751" lon="1.9645">
        <ele>158.27</ele>
        <time>2019-12-19T10:35:09Z</time>
      </trkpt>
      <trkpt lat="48.59749" lon="1.9645">
        <ele>158.27</ele>
        <time>2019-12-19T10:35:10Z</time>
      </trkpt>
      <trkpt lat="48.59748" lon="1.9645">
        <ele>157.79</ele>
        <time>2019-12-19T10:35:11Z</time>
      </trkpt>
      <trkpt lat="48.59746" lon="1.96451">
        <ele>158.27</ele>
        <time>2019-12-19T10:35:12Z</time>
      </trkpt>
      <trkpt lat="48.59745" lon="1.96451">
        <ele>158.27</ele>
        <time>2019-12-19T10:35:13Z</time>
      </trkpt>
      <trkpt lat="48.59744" lon="1.96452">
        <ele>157.79</ele>
        <time>2019-12-19T10:35:14Z</time>
      </trkpt>
      <trkpt lat="48.59744" lon="1.96452">
        <ele>157.79</ele>
        <time>2019-12-19T10:35:15Z</time>
      </trkpt>
      <trkpt lat="48.59743" lon="1.96453">
        <ele>157.79</ele>
        <time>2019-12-19T10:35:16Z</time>
      </trkpt>
      <trkpt lat="48.59743" lon="1.96454">
        <ele>158.75</ele>
        <time>2019-12-19T10:35:17Z</time>
      </trkpt>
      <trkpt lat="48.59742" lon="1.96455">
        <ele>158.27</ele>
        <time>2019-12-19T10:35:18Z</time>
      </trkpt>
      <trkpt lat="48.59742" lon="1.96455">
        <ele>158.75</ele>
        <time>2019-12-19T10:35:19Z</time>
      </trkpt>
      <trkpt lat="48.59742" lon="1.96456">
        <ele>158.75</ele>
        <time>2019-12-19T10:35:20Z</time>
      </trkpt>
      <trkpt lat="48.59742" lon="1.96456">
        <ele>158.27</ele>
        <time>2019-12-19T10:35:21Z</time>
      </trkpt>
      <trkpt lat="48.59741" lon="1.96457">
        <ele>158.27</ele>
        <time>2019-12-19T10:35:22Z</time>
      </trkpt>
      <trkpt lat="48.59741" lon="1.96457">
        <ele>157.79</ele>
        <time>2019-12-19T10:35:23Z</time>
      </trkpt>
      <trkpt lat="48.5974" lon="1.96458">
        <ele>158.27</ele>
        <time>2019-12-19T10:35:24Z</time>
      </trkpt>
      <trkpt lat="48.5974" lon="1.96459">
        <ele>158.75</ele>
        <time>2019-12-19T10:35:25Z</time>
      </trkpt>
      <trkpt lat="48.59739" lon="1.9646">
        <ele>158.75</ele>
        <time>2019-12-19T10:35:26Z</time>
      </trkpt>
      <trkpt lat="48.59739" lon="1.96462">
        <ele>158.27</ele>
        <time>2019-12-19T10:35:27Z</time>
      </trkpt>
      <trkpt lat="48.59738" lon="1.96463">
        <ele>158.27</ele>
        <time>2019-12-19T10:35:28Z</time>
      </trkpt>
      <trkpt lat="48.59738" lon="1.96463">
        <ele>158.27</ele>
        <time>2019-12-19T10:35:29Z</time>
      </trkpt>
      <trkpt lat="48.59738" lon="1.96464">
        <ele>158.27</ele>
        <time>2019-12-19T10:35:30Z</time>
      </trkpt>
      <trkpt lat="48.59738" lon="1.96465">
        <ele>158.27</ele>
        <time>2019-12-19T10:35:31Z</time>
      </trkpt>
      <trkpt lat="48.59737" lon="1.96466">
        <ele>158.27</ele>
        <time>2019-12-19T10:35:32Z</time>
      </trkpt>
      <trkpt lat="48.59736" lon="1.96467">
        <ele>158.27</ele>
        <time>2019-12-19T10:35:33Z</time>
      </trkpt>
      <trkpt lat="48.59736" lon="1.96469">
        <ele>158.75</ele>
        <time>2019-12-19T10:35:34Z</time>
      </trkpt>
      <trkpt lat="48.59735" lon="1.9647">
        <ele>158.27</ele>
        <time>2019-12-19T10:35:35Z</time>
      </trkpt>
      <trkpt lat="48.59734" lon="1.96472">
        <ele>158.27</ele>
        <time>2019-12-19T10:35:36Z</time>
      </trkpt>
      <trkpt lat="48.59734" lon="1.96473">
        <ele>158.27</ele>
        <time>2019-12-19T10:35:37Z</time>
      </trkpt>
      <trkpt lat="48.59733" lon="1.96475">
        <ele>158.27</ele>
        <time>2019-12-19T10:35:38Z</time>
      </trkpt>
      <trkpt lat="48.59732" lon="1.96477">
        <ele>158.27</ele>
        <time>2019-12-19T10:35:39Z</time>
      </trkpt>
      <trkpt lat="48.59731" lon="1.96479">
        <ele>158.27</ele>
        <time>2019-12-19T10:35:40Z</time>
      </trkpt>
      <trkpt lat="48.5973" lon="1.96481">
        <ele>158.27</ele>
        <time>2019-12-19T10:35:41Z</time>
      </trkpt>
      <trkpt lat="48.59729" lon="1.96483">
        <ele>158.27</ele>
        <time>2019-12-19T10:35:42Z</time>
      </trkpt>
      <trkpt lat="48.59728" lon="1.96485">
        <ele>158.27</ele>
        <time>2019-12-19T10:35:43Z</time>
      </trkpt>
      <trkpt lat="48.59727" lon="1.96488">
        <ele>159.72</ele>
        <time>2019-12-19T10:35:44Z</time>
      </trkpt>
      <trkpt lat="48.59726" lon="1.9649">
        <ele>158.27</ele>
        <time>2019-12-19T10:35:45Z</time>
      </trkpt>
      <trkpt lat="48.59725" lon="1.96492">
        <ele>158.27</ele>
        <time>2019-12-19T10:35:46Z</time>
      </trkpt>
      <trkpt lat="48.59724" lon="1.96493">
        <ele>158.27</ele>
        <time>2019-12-19T10:35:47Z</time>
      </trkpt>
      <trkpt lat="48.59723" lon="1.96495">
        <ele>158.27</ele>
        <time>2019-12-19T10:35:48Z</time>
      </trkpt>
      <trkpt lat="48.59722" lon="1.96497">
        <ele>158.27</ele>
        <time>2019-12-19T10:35:49Z</time>
      </trkpt>
      <trkpt lat="48.59721" lon="1.96499">
        <ele>158.27</ele>
        <time>2019-12-19T10:35:50Z</time>
      </trkpt>
      <trkpt lat="48.59721" lon="1.965">
        <ele>158.27</ele>
        <time>2019-12-19T10:35:51Z</time>
      </trkpt>
      <trkpt lat="48.5972" lon="1.96502">
        <ele>158.27</ele>
        <time>2019-12-19T10:35:52Z</time>
      </trkpt>
      <trkpt lat="48.59719" lon="1.96503">
        <ele>158.27</ele>
        <time>2019-12-19T10:35:53Z</time>
      </trkpt>
      <trkpt lat="48.59719" lon="1.96504">
        <ele>158.27</ele>
        <time>2019-12-19T10:35:54Z</time>
      </trkpt>
      <trkpt lat="48.59718" lon="1.96506">
        <ele>158.27</ele>
        <time>2019-12-19T10:35:55Z</time>
      </trkpt>
      <trkpt lat="48.59717" lon="1.96507">
        <ele>158.27</ele>
        <time>2019-12-19T10:35:56Z</time>
      </trkpt>
      <trkpt lat="48.59717" lon="1.96509">
        <ele>158.27</ele>
        <time>2019-12-19T10:35:57Z</time>
      </trkpt>
      <trkpt lat="48.59716" lon="1.9651">
        <ele>158.27</ele>
        <time>2019-12-19T10:35:58Z</time>
      </trkpt>
      <trkpt lat="48.59715" lon="1.96512">
        <ele>158.27</ele>
        <time>2019-12-19T10:35:59Z</time>
      </trkpt>
      <trkpt lat="48.59715" lon="1.96514">
        <ele>158.27</ele>
        <time>2019-12-19T10:36:00Z</time>
      </trkpt>
      <trkpt lat="48.59714" lon="1.96516">
        <ele>158.27</ele>
        <time>2019-12-19T10:36:01Z</time>
      </trkpt>
      <trkpt lat="48.59714" lon="1.96518">
        <ele>158.27</ele>
        <time>2019-12-19T10:36:02Z</time>
      </trkpt>
      <trkpt lat="48.59713" lon="1.96519">
        <ele>158.27</ele>
        <time>2019-12-19T10:36:03Z</time>
      </trkpt>
      <trkpt lat="48.59713" lon="1.96521">
        <ele>158.27</ele>
        <time>2019-12-19T10:36:04Z</time>
      </trkpt>
      <trkpt lat="48.59713" lon="1.96522">
        <ele>158.27</ele>
        <time>2019-12-19T10:36:05Z</time>
      </trkpt>
      <trkpt lat="48.59712" lon="1.96524">
        <ele>158.27</ele>
        <time>2019-12-19T10:36:06Z</time>
      </trkpt>
      <trkpt lat="48.59712" lon="1.96525">
        <ele>158.27</ele>
        <time>2019-12-19T10:36:07Z</time>
      </trkpt>
      <trkpt lat="48.59711" lon="1.96527">
        <ele>158.27</ele>
        <time>2019-12-19T10:36:08Z</time>
      </trkpt>
      <trkpt lat="48.5971" lon="1.96528">
        <ele>158.27</ele>
        <time>2019-12-19T10:36:09Z</time>
      </trkpt>
      <trkpt lat="48.5971" lon="1.96529">
        <ele>158.27</ele>
        <time>2019-12-19T10:36:10Z</time>
      </trkpt>
      <trkpt lat="48.59709" lon="1.96531">
        <ele>158.27</ele>
        <time>2019-12-19T10:36:11Z</time>
      </trkpt>
      <trkpt lat="48.59709" lon="1.96533">
        <ele>158.27</ele>
        <time>2019-12-19T10:36:12Z</time>
      </trkpt>
      <trkpt lat="48.59708" lon="1.96535">
        <ele>158.27</ele>
        <time>2019-12-19T10:36:13Z</time>
      </trkpt>
      <trkpt lat="48.59707" lon="1.96537">
        <ele>158.27</ele>
        <time>2019-12-19T10:36:14Z</time>
      </trkpt>
      <trkpt lat="48.59707" lon="1.96538">
        <ele>158.27</ele>
        <time>2019-12-19T10:36:15Z</time>
      </trkpt>
      <trkpt lat="48.59706" lon="1.9654">
        <ele>158.27</ele>
        <time>2019-12-19T10:36:16Z</time>
      </trkpt>
      <trkpt lat="48.59705" lon="1.96541">
        <ele>158.27</ele>
        <time>2019-12-19T10:36:17Z</time>
      </trkpt>
      <trkpt lat="48.59704" lon="1.96542">
        <ele>158.27</ele>
        <time>2019-12-19T10:36:18Z</time>
      </trkpt>
      <trkpt lat="48.59703" lon="1.96544">
        <ele>157.79</ele>
        <time>2019-12-19T10:36:19Z</time>
      </trkpt>
      <trkpt lat="48.59702" lon="1.96545">
        <ele>158.27</ele>
        <time>2019-12-19T10:36:20Z</time>
      </trkpt>
      <trkpt lat="48.59701" lon="1.96547">
        <ele>158.27</ele>
        <time>2019-12-19T10:36:21Z</time>
      </trkpt>
      <trkpt lat="48.597" lon="1.96548">
        <ele>158.27</ele>
        <time>2019-12-19T10:36:22Z</time>
      </trkpt>
      <trkpt lat="48.59699" lon="1.9655">
        <ele>158.27</ele>
        <time>2019-12-19T10:36:23Z</time>
      </trkpt>
      <trkpt lat="48.59698" lon="1.96551">
        <ele>158.27</ele>
        <time>2019-12-19T10:36:24Z</time>
      </trkpt>
      <trkpt lat="48.59698" lon="1.96551">
        <ele>158.27</ele>
        <time>2019-12-19T10:36:25Z</time>
      </trkpt>
      <trkpt lat="48.59697" lon="1.96553">
        <ele>158.27</ele>
        <time>2019-12-19T10:36:26Z</time>
      </trkpt>
      <trkpt lat="48.59696" lon="1.96554">
        <ele>158.27</ele>
        <time>2019-12-19T10:36:27Z</time>
      </trkpt>
      <trkpt lat="48.59695" lon="1.96556">
        <ele>158.27</ele>
        <time>2019-12-19T10:36:28Z</time>
      </trkpt>
      <trkpt lat="48.59694" lon="1.96558">
        <ele>158.27</ele>
        <time>2019-12-19T10:36:29Z</time>
      </trkpt>
      <trkpt lat="48.59692" lon="1.9656">
        <ele>158.27</ele>
        <time>2019-12-19T10:36:30Z</time>
      </trkpt>
      <trkpt lat="48.59692" lon="1.96562">
        <ele>157.79</ele>
        <time>2019-12-19T10:36:31Z</time>
      </trkpt>
      <trkpt lat="48.59691" lon="1.96563">
        <ele>158.27</ele>
        <time>2019-12-19T10:36:32Z</time>
      </trkpt>
      <trkpt lat="48.5969" lon="1.96565">
        <ele>158.27</ele>
        <time>2019-12-19T10:36:33Z</time>
      </trkpt>
      <trkpt lat="48.59689" lon="1.96566">
        <ele>158.27</ele>
        <time>2019-12-19T10:36:34Z</time>
      </trkpt>
      <trkpt lat="48.59689" lon="1.96567">
        <ele>157.79</ele>
        <time>2019-12-19T10:36:35Z</time>
      </trkpt>
      <trkpt lat="48.59685" lon="1.96574">
        <ele>157.79</ele>
        <time>2019-12-19T10:36:46Z</time>
      </trkpt>
      <trkpt lat="48.59685" lon="1.96574">
        <ele>157.79</ele>
        <time>2019-12-19T10:36:47Z</time>
      </trkpt>
      <trkpt lat="48.59683" lon="1.96577">
        <ele>158.27</ele>
        <time>2019-12-19T10:37:22Z</time>
      </trkpt>
      <trkpt lat="48.59683" lon="1.96577">
        <ele>158.27</ele>
        <time>2019-12-19T10:37:23Z</time>
      </trkpt>
      <trkpt lat="48.59683" lon="1.96578">
        <ele>158.27</ele>
        <time>2019-12-19T10:37:27Z</time>
      </trkpt>
      <trkpt lat="48.59683" lon="1.96578">
        <ele>158.27</ele>
        <time>2019-12-19T10:37:28Z</time>
      </trkpt>
      <trkpt lat="48.59683" lon="1.96578">
        <ele>158.75</ele>
        <time>2019-12-19T10:37:29Z</time>
      </trkpt>
      <trkpt lat="48.59683" lon="1.96578">
        <ele>158.27</ele>
        <time>2019-12-19T10:37:30Z</time>
      </trkpt>
      <trkpt lat="48.59682" lon="1.96578">
        <ele>158.27</ele>
        <time>2019-12-19T10:37:31Z</time>
      </trkpt>
      <trkpt lat="48.59682" lon="1.96578">
        <ele>158.27</ele>
        <time>2019-12-19T10:37:33Z</time>
      </trkpt>
      <trkpt lat="48.59682" lon="1.96578">
        <ele>158.27</ele>
        <time>2019-12-19T10:37:34Z</time>
      </trkpt>
      <trkpt lat="48.59682" lon="1.96579">
        <ele>158.75</ele>
        <time>2019-12-19T10:37:40Z</time>
      </trkpt>
      <trkpt lat="48.59682" lon="1.96579">
        <ele>158.27</ele>
        <time>2019-12-19T10:37:41Z</time>
      </trkpt>
      <trkpt lat="48.59682" lon="1.96579">
        <ele>158.27</ele>
        <time>2019-12-19T10:37:43Z</time>
      </trkpt>
      <trkpt lat="48.59682" lon="1.96579">
        <ele>159.24</ele>
        <time>2019-12-19T10:37:44Z</time>
      </trkpt>
      <trkpt lat="48.59682" lon="1.96579">
        <ele>158.27</ele>
        <time>2019-12-19T10:37:46Z</time>
      </trkpt>
      <trkpt lat="48.59682" lon="1.96579">
        <ele>158.27</ele>
        <time>2019-12-19T10:37:47Z</time>
      </trkpt>
      <trkpt lat="48.59682" lon="1.96579">
        <ele>158.27</ele>
        <time>2019-12-19T10:37:48Z</time>
      </trkpt>
      <trkpt lat="48.59682" lon="1.96579">
        <ele>158.27</ele>
        <time>2019-12-19T10:37:49Z</time>
      </trkpt>
      <trkpt lat="48.59682" lon="1.96579">
        <ele>158.75</ele>
        <time>2019-12-19T10:37:50Z</time>
      </trkpt>
      <trkpt lat="48.59682" lon="1.96579">
        <ele>158.75</ele>
        <time>2019-12-19T10:37:51Z</time>
      </trkpt>
      <trkpt lat="48.59682" lon="1.96579">
        <ele>158.75</ele>
        <time>2019-12-19T10:37:52Z</time>
      </trkpt>
      <trkpt lat="48.59682" lon="1.96579">
        <ele>158.75</ele>
        <time>2019-12-19T10:37:53Z</time>
      </trkpt>
      <trkpt lat="48.59682" lon="1.96579">
        <ele>158.27</ele>
        <time>2019-12-19T10:37:54Z</time>
      </trkpt>
      <trkpt lat="48.59682" lon="1.96579">
        <ele>158.75</ele>
        <time>2019-12-19T10:37:55Z</time>
      </trkpt>
      <trkpt lat="48.59682" lon="1.96578">
        <ele>158.27</ele>
        <time>2019-12-19T10:37:56Z</time>
      </trkpt>
      <trkpt lat="48.59682" lon="1.96578">
        <ele>158.75</ele>
        <time>2019-12-19T10:37:57Z</time>
      </trkpt>
      <trkpt lat="48.59682" lon="1.96578">
        <ele>158.75</ele>
        <time>2019-12-19T10:37:58Z</time>
      </trkpt>
      <trkpt lat="48.59682" lon="1.96578">
        <ele>158.27</ele>
        <time>2019-12-19T10:37:59Z</time>
      </trkpt>
      <trkpt lat="48.59682" lon="1.96578">
        <ele>158.75</ele>
        <time>2019-12-19T10:38:00Z</time>
      </trkpt>
      <trkpt lat="48.59682" lon="1.96578">
        <ele>158.27</ele>
        <time>2019-12-19T10:38:01Z</time>
      </trkpt>
      <trkpt lat="48.59683" lon="1.96577">
        <ele>158.75</ele>
        <time>2019-12-19T10:38:02Z</time>
      </trkpt>
      <trkpt lat="48.59684" lon="1.96577">
        <ele>158.75</ele>
        <time>2019-12-19T10:38:03Z</time>
      </trkpt>
      <trkpt lat="48.59684" lon="1.96576">
        <ele>158.27</ele>
        <time>2019-12-19T10:38:04Z</time>
      </trkpt>
      <trkpt lat="48.59685" lon="1.96575">
        <ele>158.27</ele>
        <time>2019-12-19T10:38:05Z</time>
      </trkpt>
      <trkpt lat="48.59686" lon="1.96574">
        <ele>158.75</ele>
        <time>2019-12-19T10:38:06Z</time>
      </trkpt>
      <trkpt lat="48.59687" lon="1.96573">
        <ele>158.75</ele>
        <time>2019-12-19T10:38:07Z</time>
      </trkpt>
      <trkpt lat="48.59687" lon="1.96572">
        <ele>158.75</ele>
        <time>2019-12-19T10:38:08Z</time>
      </trkpt>
      <trkpt lat="48.59688" lon="1.96571">
        <ele>158.75</ele>
        <time>2019-12-19T10:38:09Z</time>
      </trkpt>
      <trkpt lat="48.59689" lon="1.9657">
        <ele>158.75</ele>
        <time>2019-12-19T10:38:10Z</time>
      </trkpt>
      <trkpt lat="48.59689" lon="1.96569">
        <ele>158.75</ele>
        <time>2019-12-19T10:38:11Z</time>
      </trkpt>
      <trkpt lat="48.5969" lon="1.96568">
        <ele>158.75</ele>
        <time>2019-12-19T10:38:12Z</time>
      </trkpt>
      <trkpt lat="48.59691" lon="1.96567">
        <ele>158.75</ele>
        <time>2019-12-19T10:38:13Z</time>
      </trkpt>
      <trkpt lat="48.59692" lon="1.96565">
        <ele>159.24</ele>
        <time>2019-12-19T10:38:14Z</time>
      </trkpt>
      <trkpt lat="48.59692" lon="1.96564">
        <ele>159.24</ele>
        <time>2019-12-19T10:38:15Z</time>
      </trkpt>
      <trkpt lat="48.59693" lon="1.96563">
        <ele>159.24</ele>
        <time>2019-12-19T10:38:16Z</time>
      </trkpt>
      <trkpt lat="48.59693" lon="1.96562">
        <ele>158.75</ele>
        <time>2019-12-19T10:38:17Z</time>
      </trkpt>
      <trkpt lat="48.59694" lon="1.96561">
        <ele>159.24</ele>
        <time>2019-12-19T10:38:18Z</time>
      </trkpt>
      <trkpt lat="48.59694" lon="1.9656">
        <ele>159.24</ele>
        <time>2019-12-19T10:38:19Z</time>
      </trkpt>
      <trkpt lat="48.59695" lon="1.96559">
        <ele>159.24</ele>
        <time>2019-12-19T10:38:20Z</time>
      </trkpt>
      <trkpt lat="48.59695" lon="1.96558">
        <ele>159.24</ele>
        <time>2019-12-19T10:38:21Z</time>
      </trkpt>
      <trkpt lat="48.59696" lon="1.96556">
        <ele>159.24</ele>
        <time>2019-12-19T10:38:22Z</time>
      </trkpt>
      <trkpt lat="48.59697" lon="1.96554">
        <ele>159.24</ele>
        <time>2019-12-19T10:38:23Z</time>
      </trkpt>
      <trkpt lat="48.59698" lon="1.96552">
        <ele>159.24</ele>
        <time>2019-12-19T10:38:24Z</time>
      </trkpt>
      <trkpt lat="48.59699" lon="1.9655">
        <ele>159.24</ele>
        <time>2019-12-19T10:38:25Z</time>
      </trkpt>
      <trkpt lat="48.59699" lon="1.96548">
        <ele>159.24</ele>
        <time>2019-12-19T10:38:26Z</time>
      </trkpt>
      <trkpt lat="48.597" lon="1.96546">
        <ele>159.24</ele>
        <time>2019-12-19T10:38:27Z</time>
      </trkpt>
      <trkpt lat="48.59701" lon="1.96545">
        <ele>159.72</ele>
        <time>2019-12-19T10:38:28Z</time>
      </trkpt>
      <trkpt lat="48.59702" lon="1.96543">
        <ele>159.24</ele>
        <time>2019-12-19T10:38:29Z</time>
      </trkpt>
      <trkpt lat="48.59703" lon="1.96541">
        <ele>159.24</ele>
        <time>2019-12-19T10:38:30Z</time>
      </trkpt>
      <trkpt lat="48.59704" lon="1.96539">
        <ele>159.24</ele>
        <time>2019-12-19T10:38:31Z</time>
      </trkpt>
      <trkpt lat="48.59705" lon="1.96538">
        <ele>159.72</ele>
        <time>2019-12-19T10:38:32Z</time>
      </trkpt>
      <trkpt lat="48.59706" lon="1.96536">
        <ele>159.24</ele>
        <time>2019-12-19T10:38:33Z</time>
      </trkpt>
      <trkpt lat="48.59707" lon="1.96534">
        <ele>159.72</ele>
        <time>2019-12-19T10:38:34Z</time>
      </trkpt>
      <trkpt lat="48.59707" lon="1.96532">
        <ele>159.72</ele>
        <time>2019-12-19T10:38:35Z</time>
      </trkpt>
      <trkpt lat="48.59708" lon="1.9653">
        <ele>159.24</ele>
        <time>2019-12-19T10:38:36Z</time>
      </trkpt>
      <trkpt lat="48.59709" lon="1.96528">
        <ele>159.72</ele>
        <time>2019-12-19T10:38:37Z</time>
      </trkpt>
      <trkpt lat="48.59709" lon="1.96526">
        <ele>159.72</ele>
        <time>2019-12-19T10:38:38Z</time>
      </trkpt>
      <trkpt lat="48.5971" lon="1.96524">
        <ele>159.72</ele>
        <time>2019-12-19T10:38:39Z</time>
      </trkpt>
      <trkpt lat="48.5971" lon="1.96522">
        <ele>159.72</ele>
        <time>2019-12-19T10:38:40Z</time>
      </trkpt>
      <trkpt lat="48.59711" lon="1.96521">
        <ele>159.72</ele>
        <time>2019-12-19T10:38:41Z</time>
      </trkpt>
      <trkpt lat="48.59712" lon="1.96519">
        <ele>159.72</ele>
        <time>2019-12-19T10:38:42Z</time>
      </trkpt>
      <trkpt lat="48.59713" lon="1.96518">
        <ele>159.72</ele>
        <time>2019-12-19T10:38:43Z</time>
      </trkpt>
      <trkpt lat="48.59713" lon="1.96516">
        <ele>159.72</ele>
        <time>2019-12-19T10:38:44Z</time>
      </trkpt>
      <trkpt lat="48.59714" lon="1.96514">
        <ele>159.72</ele>
        <time>2019-12-19T10:38:45Z</time>
      </trkpt>
      <trkpt lat="48.59715" lon="1.96512">
        <ele>159.72</ele>
        <time>2019-12-19T10:38:46Z</time>
      </trkpt>
      <trkpt lat="48.59716" lon="1.96511">
        <ele>159.72</ele>
        <time>2019-12-19T10:38:47Z</time>
      </trkpt>
      <trkpt lat="48.59716" lon="1.96508">
        <ele>159.72</ele>
        <time>2019-12-19T10:38:48Z</time>
      </trkpt>
      <trkpt lat="48.59717" lon="1.96506">
        <ele>159.72</ele>
        <time>2019-12-19T10:38:49Z</time>
      </trkpt>
      <trkpt lat="48.59718" lon="1.96504">
        <ele>159.72</ele>
        <time>2019-12-19T10:38:50Z</time>
      </trkpt>
      <trkpt lat="48.59719" lon="1.96501">
        <ele>159.72</ele>
        <time>2019-12-19T10:38:51Z</time>
      </trkpt>
      <trkpt lat="48.5972" lon="1.96498">
        <ele>159.72</ele>
        <time>2019-12-19T10:38:52Z</time>
      </trkpt>
      <trkpt lat="48.59721" lon="1.96495">
        <ele>159.72</ele>
        <time>2019-12-19T10:38:53Z</time>
      </trkpt>
      <trkpt lat="48.59722" lon="1.96493">
        <ele>159.72</ele>
        <time>2019-12-19T10:38:54Z</time>
      </trkpt>
      <trkpt lat="48.59723" lon="1.96491">
        <ele>159.72</ele>
        <time>2019-12-19T10:38:55Z</time>
      </trkpt>
      <trkpt lat="48.59724" lon="1.9649">
        <ele>159.72</ele>
        <time>2019-12-19T10:38:56Z</time>
      </trkpt>
      <trkpt lat="48.59725" lon="1.96488">
        <ele>159.72</ele>
        <time>2019-12-19T10:38:57Z</time>
      </trkpt>
      <trkpt lat="48.59726" lon="1.96487">
        <ele>159.72</ele>
        <time>2019-12-19T10:38:58Z</time>
      </trkpt>
      <trkpt lat="48.59727" lon="1.96485">
        <ele>159.72</ele>
        <time>2019-12-19T10:38:59Z</time>
      </trkpt>
      <trkpt lat="48.59728" lon="1.96484">
        <ele>159.72</ele>
        <time>2019-12-19T10:39:00Z</time>
      </trkpt>
      <trkpt lat="48.59729" lon="1.96483">
        <ele>160.2</ele>
        <time>2019-12-19T10:39:01Z</time>
      </trkpt>
      <trkpt lat="48.5973" lon="1.96481">
        <ele>159.72</ele>
        <time>2019-12-19T10:39:02Z</time>
      </trkpt>
      <trkpt lat="48.5973" lon="1.96479">
        <ele>159.72</ele>
        <time>2019-12-19T10:39:03Z</time>
      </trkpt>
      <trkpt lat="48.59731" lon="1.96478">
        <ele>159.72</ele>
        <time>2019-12-19T10:39:04Z</time>
      </trkpt>
      <trkpt lat="48.59732" lon="1.96476">
        <ele>159.72</ele>
        <time>2019-12-19T10:39:05Z</time>
      </trkpt>
      <trkpt lat="48.59733" lon="1.96474">
        <ele>159.72</ele>
        <time>2019-12-19T10:39:06Z</time>
      </trkpt>
      <trkpt lat="48.59734" lon="1.96472">
        <ele>159.72</ele>
        <time>2019-12-19T10:39:07Z</time>
      </trkpt>
      <trkpt lat="48.59734" lon="1.9647">
        <ele>159.24</ele>
        <time>2019-12-19T10:39:08Z</time>
      </trkpt>
      <trkpt lat="48.59735" lon="1.96468">
        <ele>159.72</ele>
        <time>2019-12-19T10:39:09Z</time>
      </trkpt>
      <trkpt lat="48.59736" lon="1.96466">
        <ele>159.72</ele>
        <time>2019-12-19T10:39:10Z</time>
      </trkpt>
      <trkpt lat="48.59737" lon="1.96464">
        <ele>159.72</ele>
        <time>2019-12-19T10:39:11Z</time>
      </trkpt>
      <trkpt lat="48.59738" lon="1.96463">
        <ele>159.72</ele>
        <time>2019-12-19T10:39:12Z</time>
      </trkpt>
      <trkpt lat="48.59739" lon="1.96462">
        <ele>159.72</ele>
        <time>2019-12-19T10:39:13Z</time>
      </trkpt>
      <trkpt lat="48.59739" lon="1.9646">
        <ele>159.72</ele>
        <time>2019-12-19T10:39:14Z</time>
      </trkpt>
      <trkpt lat="48.5974" lon="1.96459">
        <ele>159.72</ele>
        <time>2019-12-19T10:39:15Z</time>
      </trkpt>
      <trkpt lat="48.5974" lon="1.96457">
        <ele>159.72</ele>
        <time>2019-12-19T10:39:16Z</time>
      </trkpt>
      <trkpt lat="48.59739" lon="1.96455">
        <ele>160.2</ele>
        <time>2019-12-19T10:39:17Z</time>
      </trkpt>
      <trkpt lat="48.59739" lon="1.96453">
        <ele>160.2</ele>
        <time>2019-12-19T10:39:18Z</time>
      </trkpt>
      <trkpt lat="48.59738" lon="1.96451">
        <ele>159.72</ele>
        <time>2019-12-19T10:39:19Z</time>
      </trkpt>
      <trkpt lat="48.59737" lon="1.9645">
        <ele>160.2</ele>
        <time>2019-12-19T10:39:20Z</time>
      </trkpt>
      <trkpt lat="48.59736" lon="1.96448">
        <ele>159.72</ele>
        <time>2019-12-19T10:39:21Z</time>
      </trkpt>
      <trkpt lat="48.59735" lon="1.96446">
        <ele>160.2</ele>
        <time>2019-12-19T10:39:22Z</time>
      </trkpt>
      <trkpt lat="48.59734" lon="1.96444">
        <ele>160.2</ele>
        <time>2019-12-19T10:39:23Z</time>
      </trkpt>
      <trkpt lat="48.59733" lon="1.96442">
        <ele>160.2</ele>
        <time>2019-12-19T10:39:24Z</time>
      </trkpt>
      <trkpt lat="48.59732" lon="1.9644">
        <ele>160.2</ele>
        <time>2019-12-19T10:39:25Z</time>
      </trkpt>
      <trkpt lat="48.59731" lon="1.96439">
        <ele>160.2</ele>
        <time>2019-12-19T10:39:26Z</time>
      </trkpt>
      <trkpt lat="48.5973" lon="1.96438">
        <ele>160.2</ele>
        <time>2019-12-19T10:39:27Z</time>
      </trkpt>
      <trkpt lat="48.59729" lon="1.96436">
        <ele>160.68</ele>
        <time>2019-12-19T10:39:28Z</time>
      </trkpt>
      <trkpt lat="48.59729" lon="1.96435">
        <ele>160.2</ele>
        <time>2019-12-19T10:39:29Z</time>
      </trkpt>
      <trkpt lat="48.59728" lon="1.96434">
        <ele>160.2</ele>
        <time>2019-12-19T10:39:30Z</time>
      </trkpt>
      <trkpt lat="48.59727" lon="1.96433">
        <ele>160.2</ele>
        <time>2019-12-19T10:39:31Z</time>
      </trkpt>
      <trkpt lat="48.59727" lon="1.96432">
        <ele>160.2</ele>
        <time>2019-12-19T10:39:32Z</time>
      </trkpt>
      <trkpt lat="48.59726" lon="1.96431">
        <ele>160.2</ele>
        <time>2019-12-19T10:39:33Z</time>
      </trkpt>
      <trkpt lat="48.59725" lon="1.96429">
        <ele>160.2</ele>
        <time>2019-12-19T10:39:34Z</time>
      </trkpt>
      <trkpt lat="48.59724" lon="1.96428">
        <ele>160.2</ele>
        <time>2019-12-19T10:39:35Z</time>
      </trkpt>
      <trkpt lat="48.59723" lon="1.96427">
        <ele>160.2</ele>
        <time>2019-12-19T10:39:36Z</time>
      </trkpt>
      <trkpt lat="48.59722" lon="1.96426">
        <ele>160.2</ele>
        <time>2019-12-19T10:39:37Z</time>
      </trkpt>
      <trkpt lat="48.59721" lon="1.96425">
        <ele>160.68</ele>
        <time>2019-12-19T10:39:38Z</time>
      </trkpt>
      <trkpt lat="48.5972" lon="1.96424">
        <ele>160.2</ele>
        <time>2019-12-19T10:39:39Z</time>
      </trkpt>
      <trkpt lat="48.59718" lon="1.96423">
        <ele>160.68</ele>
        <time>2019-12-19T10:39:40Z</time>
      </trkpt>
      <trkpt lat="48.59717" lon="1.96421">
        <ele>160.68</ele>
        <time>2019-12-19T10:39:41Z</time>
      </trkpt>
      <trkpt lat="48.59716" lon="1.9642">
        <ele>160.2</ele>
        <time>2019-12-19T10:39:42Z</time>
      </trkpt>
      <trkpt lat="48.59714" lon="1.96419">
        <ele>160.2</ele>
        <time>2019-12-19T10:39:43Z</time>
      </trkpt>
      <trkpt lat="48.59713" lon="1.96418">
        <ele>160.2</ele>
        <time>2019-12-19T10:39:44Z</time>
      </trkpt>
      <trkpt lat="48.59713" lon="1.96417">
        <ele>161.64</ele>
        <time>2019-12-19T10:39:45Z</time>
      </trkpt>
      <trkpt lat="48.59712" lon="1.96415">
        <ele>160.2</ele>
        <time>2019-12-19T10:39:46Z</time>
      </trkpt>
      <trkpt lat="48.59711" lon="1.96414">
        <ele>160.2</ele>
        <time>2019-12-19T10:39:47Z</time>
      </trkpt>
      <trkpt lat="48.5971" lon="1.96412">
        <ele>160.2</ele>
        <time>2019-12-19T10:39:48Z</time>
      </trkpt>
      <trkpt lat="48.59708" lon="1.96411">
        <ele>160.2</ele>
        <time>2019-12-19T10:39:49Z</time>
      </trkpt>
      <trkpt lat="48.59707" lon="1.9641">
        <ele>160.2</ele>
        <time>2019-12-19T10:39:50Z</time>
      </trkpt>
      <trkpt lat="48.59706" lon="1.96409">
        <ele>160.2</ele>
        <time>2019-12-19T10:39:51Z</time>
      </trkpt>
      <trkpt lat="48.59705" lon="1.96408">
        <ele>160.2</ele>
        <time>2019-12-19T10:39:52Z</time>
      </trkpt>
      <trkpt lat="48.59704" lon="1.96406">
        <ele>160.2</ele>
        <time>2019-12-19T10:39:53Z</time>
      </trkpt>
      <trkpt lat="48.59703" lon="1.96405">
        <ele>160.2</ele>
        <time>2019-12-19T10:39:54Z</time>
      </trkpt>
      <trkpt lat="48.59702" lon="1.96404">
        <ele>160.2</ele>
        <time>2019-12-19T10:39:55Z</time>
      </trkpt>
      <trkpt lat="48.59701" lon="1.96404">
        <ele>160.68</ele>
        <time>2019-12-19T10:39:56Z</time>
      </trkpt>
      <trkpt lat="48.597" lon="1.96402">
        <ele>160.2</ele>
        <time>2019-12-19T10:39:57Z</time>
      </trkpt>
      <trkpt lat="48.59698" lon="1.96401">
        <ele>160.68</ele>
        <time>2019-12-19T10:39:58Z</time>
      </trkpt>
      <trkpt lat="48.59697" lon="1.96399">
        <ele>160.2</ele>
        <time>2019-12-19T10:39:59Z</time>
      </trkpt>
      <trkpt lat="48.59696" lon="1.96398">
        <ele>160.2</ele>
        <time>2019-12-19T10:40:00Z</time>
      </trkpt>
      <trkpt lat="48.59695" lon="1.96396">
        <ele>160.68</ele>
        <time>2019-12-19T10:40:01Z</time>
      </trkpt>
      <trkpt lat="48.59694" lon="1.96394">
        <ele>160.68</ele>
        <time>2019-12-19T10:40:02Z</time>
      </trkpt>
      <trkpt lat="48.59693" lon="1.96392">
        <ele>160.68</ele>
        <time>2019-12-19T10:40:03Z</time>
      </trkpt>
      <trkpt lat="48.59691" lon="1.96391">
        <ele>160.68</ele>
        <time>2019-12-19T10:40:04Z</time>
      </trkpt>
      <trkpt lat="48.5969" lon="1.96389">
        <ele>161.16</ele>
        <time>2019-12-19T10:40:05Z</time>
      </trkpt>
      <trkpt lat="48.59689" lon="1.96387">
        <ele>161.16</ele>
        <time>2019-12-19T10:40:06Z</time>
      </trkpt>
      <trkpt lat="48.59688" lon="1.96386">
        <ele>161.16</ele>
        <time>2019-12-19T10:40:07Z</time>
      </trkpt>
      <trkpt lat="48.59687" lon="1.96385">
        <ele>161.16</ele>
        <time>2019-12-19T10:40:08Z</time>
      </trkpt>
      <trkpt lat="48.59686" lon="1.96383">
        <ele>160.68</ele>
        <time>2019-12-19T10:40:09Z</time>
      </trkpt>
      <trkpt lat="48.59686" lon="1.96381">
        <ele>160.2</ele>
        <time>2019-12-19T10:40:10Z</time>
      </trkpt>
      <trkpt lat="48.59684" lon="1.96379">
        <ele>160.2</ele>
        <time>2019-12-19T10:40:11Z</time>
      </trkpt>
      <trkpt lat="48.59682" lon="1.96378">
        <ele>160.2</ele>
        <time>2019-12-19T10:40:12Z</time>
      </trkpt>
      <trkpt lat="48.59681" lon="1.96376">
        <ele>160.2</ele>
        <time>2019-12-19T10:40:13Z</time>
      </trkpt>
      <trkpt lat="48.5968" lon="1.96374">
        <ele>160.2</ele>
        <time>2019-12-19T10:40:14Z</time>
      </trkpt>
      <trkpt lat="48.59678" lon="1.96373">
        <ele>160.2</ele>
        <time>2019-12-19T10:40:15Z</time>
      </trkpt>
      <trkpt lat="48.59677" lon="1.96371">
        <ele>160.68</ele>
        <time>2019-12-19T10:40:16Z</time>
      </trkpt>
      <trkpt lat="48.59676" lon="1.96369">
        <ele>160.68</ele>
        <time>2019-12-19T10:40:17Z</time>
      </trkpt>
      <trkpt lat="48.59675" lon="1.96367">
        <ele>160.2</ele>
        <time>2019-12-19T10:40:18Z</time>
      </trkpt>
      <trkpt lat="48.59673" lon="1.96366">
        <ele>160.2</ele>
        <time>2019-12-19T10:40:19Z</time>
      </trkpt>
      <trkpt lat="48.59672" lon="1.96364">
        <ele>160.2</ele>
        <time>2019-12-19T10:40:20Z</time>
      </trkpt>
      <trkpt lat="48.5967" lon="1.96362">
        <ele>160.2</ele>
        <time>2019-12-19T10:40:21Z</time>
      </trkpt>
      <trkpt lat="48.59669" lon="1.9636">
        <ele>160.68</ele>
        <time>2019-12-19T10:40:22Z</time>
      </trkpt>
      <trkpt lat="48.59667" lon="1.96358">
        <ele>160.68</ele>
        <time>2019-12-19T10:40:23Z</time>
      </trkpt>
      <trkpt lat="48.59665" lon="1.96357">
        <ele>160.2</ele>
        <time>2019-12-19T10:40:24Z</time>
      </trkpt>
      <trkpt lat="48.59664" lon="1.96355">
        <ele>160.2</ele>
        <time>2019-12-19T10:40:25Z</time>
      </trkpt>
      <trkpt lat="48.59663" lon="1.96354">
        <ele>160.68</ele>
        <time>2019-12-19T10:40:26Z</time>
      </trkpt>
      <trkpt lat="48.59662" lon="1.96352">
        <ele>160.2</ele>
        <time>2019-12-19T10:40:27Z</time>
      </trkpt>
      <trkpt lat="48.59661" lon="1.96351">
        <ele>160.68</ele>
        <time>2019-12-19T10:40:28Z</time>
      </trkpt>
      <trkpt lat="48.5966" lon="1.9635">
        <ele>160.68</ele>
        <time>2019-12-19T10:40:29Z</time>
      </trkpt>
      <trkpt lat="48.59658" lon="1.96349">
        <ele>160.68</ele>
        <time>2019-12-19T10:40:30Z</time>
      </trkpt>
      <trkpt lat="48.59657" lon="1.96348">
        <ele>160.68</ele>
        <time>2019-12-19T10:40:31Z</time>
      </trkpt>
      <trkpt lat="48.59656" lon="1.96348">
        <ele>160.2</ele>
        <time>2019-12-19T10:40:32Z</time>
      </trkpt>
      <trkpt lat="48.59655" lon="1.96347">
        <ele>160.2</ele>
        <time>2019-12-19T10:40:33Z</time>
      </trkpt>
      <trkpt lat="48.59654" lon="1.96346">
        <ele>160.2</ele>
        <time>2019-12-19T10:40:34Z</time>
      </trkpt>
      <trkpt lat="48.59653" lon="1.96345">
        <ele>160.68</ele>
        <time>2019-12-19T10:40:35Z</time>
      </trkpt>
      <trkpt lat="48.59651" lon="1.96345">
        <ele>160.2</ele>
        <time>2019-12-19T10:40:36Z</time>
      </trkpt>
      <trkpt lat="48.5965" lon="1.96344">
        <ele>160.2</ele>
        <time>2019-12-19T10:40:37Z</time>
      </trkpt>
      <trkpt lat="48.59648" lon="1.96343">
        <ele>159.72</ele>
        <time>2019-12-19T10:40:38Z</time>
      </trkpt>
      <trkpt lat="48.59646" lon="1.96342">
        <ele>159.72</ele>
        <time>2019-12-19T10:40:39Z</time>
      </trkpt>
      <trkpt lat="48.59645" lon="1.96341">
        <ele>159.72</ele>
        <time>2019-12-19T10:40:40Z</time>
      </trkpt>
      <trkpt lat="48.59644" lon="1.96339">
        <ele>159.72</ele>
        <time>2019-12-19T10:40:41Z</time>
      </trkpt>
      <trkpt lat="48.59642" lon="1.96338">
        <ele>160.2</ele>
        <time>2019-12-19T10:40:42Z</time>
      </trkpt>
      <trkpt lat="48.59641" lon="1.96336">
        <ele>159.72</ele>
        <time>2019-12-19T10:40:43Z</time>
      </trkpt>
      <trkpt lat="48.5964" lon="1.96335">
        <ele>159.72</ele>
        <time>2019-12-19T10:40:44Z</time>
      </trkpt>
      <trkpt lat="48.59638" lon="1.96333">
        <ele>159.72</ele>
        <time>2019-12-19T10:40:45Z</time>
      </trkpt>
      <trkpt lat="48.59637" lon="1.96331">
        <ele>159.72</ele>
        <time>2019-12-19T10:40:46Z</time>
      </trkpt>
      <trkpt lat="48.59636" lon="1.96329">
        <ele>159.72</ele>
        <time>2019-12-19T10:40:47Z</time>
      </trkpt>
      <trkpt lat="48.59634" lon="1.96327">
        <ele>159.72</ele>
        <time>2019-12-19T10:40:48Z</time>
      </trkpt>
      <trkpt lat="48.59633" lon="1.96326">
        <ele>159.72</ele>
        <time>2019-12-19T10:40:49Z</time>
      </trkpt>
      <trkpt lat="48.59631" lon="1.96324">
        <ele>159.72</ele>
        <time>2019-12-19T10:40:50Z</time>
      </trkpt>
      <trkpt lat="48.5963" lon="1.96322">
        <ele>159.24</ele>
        <time>2019-12-19T10:40:51Z</time>
      </trkpt>
      <trkpt lat="48.59629" lon="1.9632">
        <ele>159.72</ele>
        <time>2019-12-19T10:40:52Z</time>
      </trkpt>
      <trkpt lat="48.59628" lon="1.96319">
        <ele>159.72</ele>
        <time>2019-12-19T10:40:53Z</time>
      </trkpt>
      <trkpt lat="48.59626" lon="1.96318">
        <ele>159.24</ele>
        <time>2019-12-19T10:40:54Z</time>
      </trkpt>
      <trkpt lat="48.59625" lon="1.96317">
        <ele>159.72</ele>
        <time>2019-12-19T10:40:55Z</time>
      </trkpt>
      <trkpt lat="48.59624" lon="1.96316">
        <ele>159.72</ele>
        <time>2019-12-19T10:40:56Z</time>
      </trkpt>
      <trkpt lat="48.59623" lon="1.96315">
        <ele>159.24</ele>
        <time>2019-12-19T10:40:57Z</time>
      </trkpt>
      <trkpt lat="48.59622" lon="1.96314">
        <ele>159.24</ele>
        <time>2019-12-19T10:40:58Z</time>
      </trkpt>
      <trkpt lat="48.59621" lon="1.96312">
        <ele>159.24</ele>
        <time>2019-12-19T10:40:59Z</time>
      </trkpt>
      <trkpt lat="48.5962" lon="1.96312">
        <ele>159.24</ele>
        <time>2019-12-19T10:41:00Z</time>
      </trkpt>
      <trkpt lat="48.59619" lon="1.96311">
        <ele>159.24</ele>
        <time>2019-12-19T10:41:01Z</time>
      </trkpt>
      <trkpt lat="48.59617" lon="1.96309">
        <ele>159.24</ele>
        <time>2019-12-19T10:41:02Z</time>
      </trkpt>
      <trkpt lat="48.59616" lon="1.96308">
        <ele>159.72</ele>
        <time>2019-12-19T10:41:03Z</time>
      </trkpt>
      <trkpt lat="48.59615" lon="1.96308">
        <ele>159.24</ele>
        <time>2019-12-19T10:41:04Z</time>
      </trkpt>
      <trkpt lat="48.59614" lon="1.96307">
        <ele>159.24</ele>
        <time>2019-12-19T10:41:05Z</time>
      </trkpt>
      <trkpt lat="48.59614" lon="1.96305">
        <ele>159.24</ele>
        <time>2019-12-19T10:41:06Z</time>
      </trkpt>
      <trkpt lat="48.59613" lon="1.96304">
        <ele>158.75</ele>
        <time>2019-12-19T10:41:07Z</time>
      </trkpt>
      <trkpt lat="48.59612" lon="1.96303">
        <ele>158.75</ele>
        <time>2019-12-19T10:41:08Z</time>
      </trkpt>
      <trkpt lat="48.59611" lon="1.96302">
        <ele>158.27</ele>
        <time>2019-12-19T10:41:09Z</time>
      </trkpt>
      <trkpt lat="48.5961" lon="1.96301">
        <ele>158.27</ele>
        <time>2019-12-19T10:41:10Z</time>
      </trkpt>
      <trkpt lat="48.59608" lon="1.96301">
        <ele>158.27</ele>
        <time>2019-12-19T10:41:11Z</time>
      </trkpt>
      <trkpt lat="48.59608" lon="1.96299">
        <ele>158.27</ele>
        <time>2019-12-19T10:41:12Z</time>
      </trkpt>
      <trkpt lat="48.59607" lon="1.96299">
        <ele>157.31</ele>
        <time>2019-12-19T10:41:13Z</time>
      </trkpt>
      <trkpt lat="48.59606" lon="1.96298">
        <ele>157.79</ele>
        <time>2019-12-19T10:41:14Z</time>
      </trkpt>
      <trkpt lat="48.59606" lon="1.96297">
        <ele>157.31</ele>
        <time>2019-12-19T10:41:15Z</time>
      </trkpt>
      <trkpt lat="48.59605" lon="1.96297">
        <ele>157.31</ele>
        <time>2019-12-19T10:41:16Z</time>
      </trkpt>
      <trkpt lat="48.59604" lon="1.96296">
        <ele>157.31</ele>
        <time>2019-12-19T10:41:17Z</time>
      </trkpt>
      <trkpt lat="48.59603" lon="1.96296">
        <ele>156.83</ele>
        <time>2019-12-19T10:41:18Z</time>
      </trkpt>
      <trkpt lat="48.59603" lon="1.96295">
        <ele>156.83</ele>
        <time>2019-12-19T10:41:19Z</time>
      </trkpt>
      <trkpt lat="48.59602" lon="1.96294">
        <ele>156.83</ele>
        <time>2019-12-19T10:41:20Z</time>
      </trkpt>
      <trkpt lat="48.59601" lon="1.96293">
        <ele>156.35</ele>
        <time>2019-12-19T10:41:21Z</time>
      </trkpt>
      <trkpt lat="48.59601" lon="1.96293">
        <ele>156.35</ele>
        <time>2019-12-19T10:41:22Z</time>
      </trkpt>
      <trkpt lat="48.596" lon="1.96292">
        <ele>155.87</ele>
        <time>2019-12-19T10:41:23Z</time>
      </trkpt>
      <trkpt lat="48.59599" lon="1.96291">
        <ele>156.35</ele>
        <time>2019-12-19T10:41:24Z</time>
      </trkpt>
      <trkpt lat="48.59598" lon="1.96291">
        <ele>156.35</ele>
        <time>2019-12-19T10:41:25Z</time>
      </trkpt>
      <trkpt lat="48.59597" lon="1.96291">
        <ele>155.87</ele>
        <time>2019-12-19T10:41:26Z</time>
      </trkpt>
      <trkpt lat="48.59596" lon="1.96291">
        <ele>155.87</ele>
        <time>2019-12-19T10:41:27Z</time>
      </trkpt>
      <trkpt lat="48.59595" lon="1.96291">
        <ele>155.39</ele>
        <time>2019-12-19T10:41:28Z</time>
      </trkpt>
      <trkpt lat="48.59594" lon="1.96291">
        <ele>155.39</ele>
        <time>2019-12-19T10:41:29Z</time>
      </trkpt>
      <trkpt lat="48.59593" lon="1.96291">
        <ele>154.91</ele>
        <time>2019-12-19T10:41:30Z</time>
      </trkpt>
      <trkpt lat="48.59593" lon="1.96291">
        <ele>154.91</ele>
        <time>2019-12-19T10:41:31Z</time>
      </trkpt>
      <trkpt lat="48.59592" lon="1.96291">
        <ele>155.39</ele>
        <time>2019-12-19T10:41:32Z</time>
      </trkpt>
      <trkpt lat="48.59591" lon="1.96292">
        <ele>154.91</ele>
        <time>2019-12-19T10:41:33Z</time>
      </trkpt>
      <trkpt lat="48.5959" lon="1.96292">
        <ele>154.91</ele>
        <time>2019-12-19T10:41:34Z</time>
      </trkpt>
      <trkpt lat="48.59589" lon="1.96293">
        <ele>154.91</ele>
        <time>2019-12-19T10:41:35Z</time>
      </trkpt>
      <trkpt lat="48.59589" lon="1.96293">
        <ele>154.91</ele>
        <time>2019-12-19T10:41:36Z</time>
      </trkpt>
      <trkpt lat="48.59589" lon="1.96293">
        <ele>154.43</ele>
        <time>2019-12-19T10:41:37Z</time>
      </trkpt>
      <trkpt lat="48.59589" lon="1.96294">
        <ele>154.91</ele>
        <time>2019-12-19T10:41:38Z</time>
      </trkpt>
      <trkpt lat="48.59589" lon="1.96295">
        <ele>154.91</ele>
        <time>2019-12-19T10:41:39Z</time>
      </trkpt>
      <trkpt lat="48.59588" lon="1.96296">
        <ele>155.39</ele>
        <time>2019-12-19T10:41:40Z</time>
      </trkpt>
      <trkpt lat="48.59588" lon="1.96298">
        <ele>155.39</ele>
        <time>2019-12-19T10:41:41Z</time>
      </trkpt>
      <trkpt lat="48.59588" lon="1.96299">
        <ele>155.87</ele>
        <time>2019-12-19T10:41:42Z</time>
      </trkpt>
      <trkpt lat="48.59587" lon="1.963">
        <ele>155.87</ele>
        <time>2019-12-19T10:41:43Z</time>
      </trkpt>
      <trkpt lat="48.59586" lon="1.96301">
        <ele>155.39</ele>
        <time>2019-12-19T10:41:44Z</time>
      </trkpt>
      <trkpt lat="48.59586" lon="1.96301">
        <ele>156.35</ele>
        <time>2019-12-19T10:41:45Z</time>
      </trkpt>
      <trkpt lat="48.59586" lon="1.96301">
        <ele>155.39</ele>
        <time>2019-12-19T10:41:46Z</time>
      </trkpt>
      <trkpt lat="48.59586" lon="1.96301">
        <ele>155.87</ele>
        <time>2019-12-19T10:41:47Z</time>
      </trkpt>
      <trkpt lat="48.59585" lon="1.96301">
        <ele>155.87</ele>
        <time>2019-12-19T10:41:48Z</time>
      </trkpt>
      <trkpt lat="48.59584" lon="1.96303">
        <ele>155.87</ele>
        <time>2019-12-19T10:41:49Z</time>
      </trkpt>
      <trkpt lat="48.59584" lon="1.96304">
        <ele>155.87</ele>
        <time>2019-12-19T10:41:50Z</time>
      </trkpt>
      <trkpt lat="48.59584" lon="1.96306">
        <ele>155.87</ele>
        <time>2019-12-19T10:41:51Z</time>
      </trkpt>
      <trkpt lat="48.59583" lon="1.96307">
        <ele>156.35</ele>
        <time>2019-12-19T10:41:52Z</time>
      </trkpt>
      <trkpt lat="48.59582" lon="1.96309">
        <ele>155.87</ele>
        <time>2019-12-19T10:41:53Z</time>
      </trkpt>
      <trkpt lat="48.59581" lon="1.9631">
        <ele>155.87</ele>
        <time>2019-12-19T10:41:54Z</time>
      </trkpt>
      <trkpt lat="48.5958" lon="1.96312">
        <ele>155.87</ele>
        <time>2019-12-19T10:41:55Z</time>
      </trkpt>
      <trkpt lat="48.59579" lon="1.96313">
        <ele>155.39</ele>
        <time>2019-12-19T10:41:56Z</time>
      </trkpt>
      <trkpt lat="48.59578" lon="1.96314">
        <ele>155.87</ele>
        <time>2019-12-19T10:41:57Z</time>
      </trkpt>
      <trkpt lat="48.59578" lon="1.96316">
        <ele>155.39</ele>
        <time>2019-12-19T10:41:58Z</time>
      </trkpt>
      <trkpt lat="48.59577" lon="1.96318">
        <ele>155.39</ele>
        <time>2019-12-19T10:41:59Z</time>
      </trkpt>
      <trkpt lat="48.59576" lon="1.96319">
        <ele>155.39</ele>
        <time>2019-12-19T10:42:00Z</time>
      </trkpt>
      <trkpt lat="48.59576" lon="1.96321">
        <ele>155.39</ele>
        <time>2019-12-19T10:42:01Z</time>
      </trkpt>
      <trkpt lat="48.59575" lon="1.96323">
        <ele>155.87</ele>
        <time>2019-12-19T10:42:02Z</time>
      </trkpt>
      <trkpt lat="48.59574" lon="1.96325">
        <ele>155.87</ele>
        <time>2019-12-19T10:42:03Z</time>
      </trkpt>
      <trkpt lat="48.59573" lon="1.96326">
        <ele>155.87</ele>
        <time>2019-12-19T10:42:04Z</time>
      </trkpt>
      <trkpt lat="48.59572" lon="1.96328">
        <ele>155.87</ele>
        <time>2019-12-19T10:42:05Z</time>
      </trkpt>
      <trkpt lat="48.59571" lon="1.96329">
        <ele>155.87</ele>
        <time>2019-12-19T10:42:06Z</time>
      </trkpt>
      <trkpt lat="48.5957" lon="1.9633">
        <ele>155.87</ele>
        <time>2019-12-19T10:42:07Z</time>
      </trkpt>
      <trkpt lat="48.5957" lon="1.96332">
        <ele>155.39</ele>
        <time>2019-12-19T10:42:08Z</time>
      </trkpt>
      <trkpt lat="48.59569" lon="1.96333">
        <ele>155.39</ele>
        <time>2019-12-19T10:42:09Z</time>
      </trkpt>
      <trkpt lat="48.59568" lon="1.96335">
        <ele>155.87</ele>
        <time>2019-12-19T10:42:10Z</time>
      </trkpt>
      <trkpt lat="48.59568" lon="1.96337">
        <ele>155.87</ele>
        <time>2019-12-19T10:42:11Z</time>
      </trkpt>
      <trkpt lat="48.59567" lon="1.96338">
        <ele>155.39</ele>
        <time>2019-12-19T10:42:12Z</time>
      </trkpt>
      <trkpt lat="48.59566" lon="1.9634">
        <ele>155.87</ele>
        <time>2019-12-19T10:42:13Z</time>
      </trkpt>
      <trkpt lat="48.59566" lon="1.96342">
        <ele>155.39</ele>
        <time>2019-12-19T10:42:14Z</time>
      </trkpt>
      <trkpt lat="48.59565" lon="1.96343">
        <ele>155.87</ele>
        <time>2019-12-19T10:42:15Z</time>
      </trkpt>
      <trkpt lat="48.59564" lon="1.96345">
        <ele>155.39</ele>
        <time>2019-12-19T10:42:16Z</time>
      </trkpt>
      <trkpt lat="48.59564" lon="1.96346">
        <ele>155.39</ele>
        <time>2019-12-19T10:42:17Z</time>
      </trkpt>
      <trkpt lat="48.59563" lon="1.96348">
        <ele>155.39</ele>
        <time>2019-12-19T10:42:18Z</time>
      </trkpt>
      <trkpt lat="48.59562" lon="1.96349">
        <ele>155.39</ele>
        <time>2019-12-19T10:42:19Z</time>
      </trkpt>
      <trkpt lat="48.59561" lon="1.96351">
        <ele>155.39</ele>
        <time>2019-12-19T10:42:20Z</time>
      </trkpt>
      <trkpt lat="48.59561" lon="1.96352">
        <ele>154.91</ele>
        <time>2019-12-19T10:42:21Z</time>
      </trkpt>
      <trkpt lat="48.5956" lon="1.96354">
        <ele>154.43</ele>
        <time>2019-12-19T10:42:22Z</time>
      </trkpt>
      <trkpt lat="48.59559" lon="1.96355">
        <ele>154.43</ele>
        <time>2019-12-19T10:42:23Z</time>
      </trkpt>
      <trkpt lat="48.59558" lon="1.96356">
        <ele>154.43</ele>
        <time>2019-12-19T10:42:24Z</time>
      </trkpt>
      <trkpt lat="48.59558" lon="1.96357">
        <ele>154.91</ele>
        <time>2019-12-19T10:42:25Z</time>
      </trkpt>
      <trkpt lat="48.59557" lon="1.96358">
        <ele>154.91</ele>
        <time>2019-12-19T10:42:26Z</time>
      </trkpt>
      <trkpt lat="48.59556" lon="1.9636">
        <ele>154.91</ele>
        <time>2019-12-19T10:42:27Z</time>
      </trkpt>
      <trkpt lat="48.59556" lon="1.96361">
        <ele>154.91</ele>
        <time>2019-12-19T10:42:28Z</time>
      </trkpt>
      <trkpt lat="48.59555" lon="1.96363">
        <ele>154.43</ele>
        <time>2019-12-19T10:42:29Z</time>
      </trkpt>
      <trkpt lat="48.59553" lon="1.96366">
        <ele>154.91</ele>
        <time>2019-12-19T10:42:30Z</time>
      </trkpt>
      <trkpt lat="48.59552" lon="1.96368">
        <ele>154.91</ele>
        <time>2019-12-19T10:42:31Z</time>
      </trkpt>
      <trkpt lat="48.59551" lon="1.96371">
        <ele>154.91</ele>
        <time>2019-12-19T10:42:32Z</time>
      </trkpt>
      <trkpt lat="48.5955" lon="1.96373">
        <ele>154.43</ele>
        <time>2019-12-19T10:42:33Z</time>
      </trkpt>
      <trkpt lat="48.59549" lon="1.96375">
        <ele>153.95</ele>
        <time>2019-12-19T10:42:34Z</time>
      </trkpt>
      <trkpt lat="48.59548" lon="1.96377">
        <ele>153.95</ele>
        <time>2019-12-19T10:42:35Z</time>
      </trkpt>
      <trkpt lat="48.59546" lon="1.9638">
        <ele>153.95</ele>
        <time>2019-12-19T10:42:36Z</time>
      </trkpt>
      <trkpt lat="48.59546" lon="1.96383">
        <ele>153.95</ele>
        <time>2019-12-19T10:42:37Z</time>
      </trkpt>
      <trkpt lat="48.59545" lon="1.96385">
        <ele>153.47</ele>
        <time>2019-12-19T10:42:38Z</time>
      </trkpt>
      <trkpt lat="48.59544" lon="1.96387">
        <ele>153.47</ele>
        <time>2019-12-19T10:42:39Z</time>
      </trkpt>
      <trkpt lat="48.59543" lon="1.96389">
        <ele>153.47</ele>
        <time>2019-12-19T10:42:40Z</time>
      </trkpt>
      <trkpt lat="48.59542" lon="1.96391">
        <ele>152.99</ele>
        <time>2019-12-19T10:42:41Z</time>
      </trkpt>
      <trkpt lat="48.59541" lon="1.96392">
        <ele>152.99</ele>
        <time>2019-12-19T10:42:42Z</time>
      </trkpt>
      <trkpt lat="48.5954" lon="1.96393">
        <ele>153.47</ele>
        <time>2019-12-19T10:42:43Z</time>
      </trkpt>
      <trkpt lat="48.59539" lon="1.96395">
        <ele>152.99</ele>
        <time>2019-12-19T10:42:44Z</time>
      </trkpt>
      <trkpt lat="48.59538" lon="1.96396">
        <ele>152.99</ele>
        <time>2019-12-19T10:42:45Z</time>
      </trkpt>
      <trkpt lat="48.59537" lon="1.96398">
        <ele>152.51</ele>
        <time>2019-12-19T10:42:46Z</time>
      </trkpt>
      <trkpt lat="48.59536" lon="1.964">
        <ele>152.51</ele>
        <time>2019-12-19T10:42:47Z</time>
      </trkpt>
      <trkpt lat="48.59535" lon="1.96402">
        <ele>152.03</ele>
        <time>2019-12-19T10:42:48Z</time>
      </trkpt>
      <trkpt lat="48.59534" lon="1.96405">
        <ele>152.03</ele>
        <time>2019-12-19T10:42:49Z</time>
      </trkpt>
      <trkpt lat="48.59534" lon="1.96407">
        <ele>151.54</ele>
        <time>2019-12-19T10:42:50Z</time>
      </trkpt>
      <trkpt lat="48.59533" lon="1.96409">
        <ele>152.03</ele>
        <time>2019-12-19T10:42:51Z</time>
      </trkpt>
      <trkpt lat="48.59532" lon="1.9641">
        <ele>151.54</ele>
        <time>2019-12-19T10:42:52Z</time>
      </trkpt>
      <trkpt lat="48.59531" lon="1.96413">
        <ele>151.54</ele>
        <time>2019-12-19T10:42:53Z</time>
      </trkpt>
      <trkpt lat="48.5953" lon="1.96414">
        <ele>152.03</ele>
        <time>2019-12-19T10:42:54Z</time>
      </trkpt>
      <trkpt lat="48.59529" lon="1.96416">
        <ele>151.54</ele>
        <time>2019-12-19T10:42:55Z</time>
      </trkpt>
      <trkpt lat="48.59528" lon="1.96418">
        <ele>152.03</ele>
        <time>2019-12-19T10:42:56Z</time>
      </trkpt>
      <trkpt lat="48.59527" lon="1.9642">
        <ele>151.54</ele>
        <time>2019-12-19T10:42:57Z</time>
      </trkpt>
      <trkpt lat="48.59526" lon="1.96421">
        <ele>151.54</ele>
        <time>2019-12-19T10:42:58Z</time>
      </trkpt>
      <trkpt lat="48.59526" lon="1.96423">
        <ele>151.54</ele>
        <time>2019-12-19T10:42:59Z</time>
      </trkpt>
      <trkpt lat="48.59525" lon="1.96424">
        <ele>151.54</ele>
        <time>2019-12-19T10:43:00Z</time>
      </trkpt>
      <trkpt lat="48.59524" lon="1.96425">
        <ele>151.54</ele>
        <time>2019-12-19T10:43:01Z</time>
      </trkpt>
      <trkpt lat="48.59524" lon="1.96427">
        <ele>151.06</ele>
        <time>2019-12-19T10:43:02Z</time>
      </trkpt>
      <trkpt lat="48.59523" lon="1.96428">
        <ele>150.58</ele>
        <time>2019-12-19T10:43:03Z</time>
      </trkpt>
      <trkpt lat="48.59522" lon="1.9643">
        <ele>150.1</ele>
        <time>2019-12-19T10:43:04Z</time>
      </trkpt>
      <trkpt lat="48.59522" lon="1.96432">
        <ele>150.1</ele>
        <time>2019-12-19T10:43:05Z</time>
      </trkpt>
      <trkpt lat="48.59521" lon="1.96434">
        <ele>150.1</ele>
        <time>2019-12-19T10:43:06Z</time>
      </trkpt>
      <trkpt lat="48.5952" lon="1.96436">
        <ele>150.1</ele>
        <time>2019-12-19T10:43:07Z</time>
      </trkpt>
      <trkpt lat="48.59518" lon="1.96439">
        <ele>150.1</ele>
        <time>2019-12-19T10:43:08Z</time>
      </trkpt>
      <trkpt lat="48.59517" lon="1.96441">
        <ele>150.1</ele>
        <time>2019-12-19T10:43:09Z</time>
      </trkpt>
      <trkpt lat="48.59516" lon="1.96444">
        <ele>149.62</ele>
        <time>2019-12-19T10:43:10Z</time>
      </trkpt>
      <trkpt lat="48.59515" lon="1.96446">
        <ele>150.1</ele>
        <time>2019-12-19T10:43:11Z</time>
      </trkpt>
      <trkpt lat="48.59514" lon="1.96448">
        <ele>149.62</ele>
        <time>2019-12-19T10:43:12Z</time>
      </trkpt>
      <trkpt lat="48.59514" lon="1.96451">
        <ele>149.14</ele>
        <time>2019-12-19T10:43:13Z</time>
      </trkpt>
      <trkpt lat="48.59513" lon="1.96452">
        <ele>148.66</ele>
        <time>2019-12-19T10:43:14Z</time>
      </trkpt>
      <trkpt lat="48.59513" lon="1.96454">
        <ele>148.66</ele>
        <time>2019-12-19T10:43:15Z</time>
      </trkpt>
      <trkpt lat="48.59512" lon="1.96456">
        <ele>148.66</ele>
        <time>2019-12-19T10:43:16Z</time>
      </trkpt>
      <trkpt lat="48.5951" lon="1.96458">
        <ele>148.66</ele>
        <time>2019-12-19T10:43:17Z</time>
      </trkpt>
      <trkpt lat="48.59509" lon="1.9646">
        <ele>148.18</ele>
        <time>2019-12-19T10:43:18Z</time>
      </trkpt>
      <trkpt lat="48.59508" lon="1.96462">
        <ele>148.66</ele>
        <time>2019-12-19T10:43:19Z</time>
      </trkpt>
      <trkpt lat="48.59507" lon="1.96463">
        <ele>148.18</ele>
        <time>2019-12-19T10:43:20Z</time>
      </trkpt>
      <trkpt lat="48.59506" lon="1.96465">
        <ele>148.18</ele>
        <time>2019-12-19T10:43:21Z</time>
      </trkpt>
      <trkpt lat="48.59505" lon="1.96467">
        <ele>148.18</ele>
        <time>2019-12-19T10:43:22Z</time>
      </trkpt>
      <trkpt lat="48.59504" lon="1.96469">
        <ele>148.18</ele>
        <time>2019-12-19T10:43:23Z</time>
      </trkpt>
      <trkpt lat="48.59503" lon="1.9647">
        <ele>148.18</ele>
        <time>2019-12-19T10:43:24Z</time>
      </trkpt>
      <trkpt lat="48.59502" lon="1.96472">
        <ele>148.66</ele>
        <time>2019-12-19T10:43:25Z</time>
      </trkpt>
      <trkpt lat="48.59501" lon="1.96474">
        <ele>148.18</ele>
        <time>2019-12-19T10:43:26Z</time>
      </trkpt>
      <trkpt lat="48.59499" lon="1.96476">
        <ele>148.18</ele>
        <time>2019-12-19T10:43:27Z</time>
      </trkpt>
      <trkpt lat="48.59498" lon="1.96478">
        <ele>148.18</ele>
        <time>2019-12-19T10:43:28Z</time>
      </trkpt>
      <trkpt lat="48.59498" lon="1.9648">
        <ele>147.7</ele>
        <time>2019-12-19T10:43:29Z</time>
      </trkpt>
      <trkpt lat="48.59497" lon="1.96482">
        <ele>147.7</ele>
        <time>2019-12-19T10:43:30Z</time>
      </trkpt>
      <trkpt lat="48.59496" lon="1.96484">
        <ele>147.7</ele>
        <time>2019-12-19T10:43:31Z</time>
      </trkpt>
      <trkpt lat="48.59495" lon="1.96486">
        <ele>147.22</ele>
        <time>2019-12-19T10:43:32Z</time>
      </trkpt>
      <trkpt lat="48.59494" lon="1.96488">
        <ele>147.22</ele>
        <time>2019-12-19T10:43:33Z</time>
      </trkpt>
      <trkpt lat="48.59493" lon="1.9649">
        <ele>146.74</ele>
        <time>2019-12-19T10:43:34Z</time>
      </trkpt>
      <trkpt lat="48.59493" lon="1.96492">
        <ele>146.74</ele>
        <time>2019-12-19T10:43:35Z</time>
      </trkpt>
      <trkpt lat="48.59492" lon="1.96494">
        <ele>146.74</ele>
        <time>2019-12-19T10:43:36Z</time>
      </trkpt>
      <trkpt lat="48.59491" lon="1.96496">
        <ele>146.74</ele>
        <time>2019-12-19T10:43:37Z</time>
      </trkpt>
      <trkpt lat="48.59489" lon="1.96498">
        <ele>146.26</ele>
        <time>2019-12-19T10:43:38Z</time>
      </trkpt>
      <trkpt lat="48.59488" lon="1.965">
        <ele>146.74</ele>
        <time>2019-12-19T10:43:39Z</time>
      </trkpt>
      <trkpt lat="48.59488" lon="1.96501">
        <ele>146.26</ele>
        <time>2019-12-19T10:43:40Z</time>
      </trkpt>
      <trkpt lat="48.59487" lon="1.96503">
        <ele>145.78</ele>
        <time>2019-12-19T10:43:41Z</time>
      </trkpt>
      <trkpt lat="48.59486" lon="1.96505">
        <ele>145.78</ele>
        <time>2019-12-19T10:43:42Z</time>
      </trkpt>
      <trkpt lat="48.59485" lon="1.96507">
        <ele>145.3</ele>
        <time>2019-12-19T10:43:43Z</time>
      </trkpt>
      <trkpt lat="48.59484" lon="1.96509">
        <ele>144.82</ele>
        <time>2019-12-19T10:43:44Z</time>
      </trkpt>
      <trkpt lat="48.59483" lon="1.96511">
        <ele>146.26</ele>
        <time>2019-12-19T10:43:45Z</time>
      </trkpt>
      <trkpt lat="48.59482" lon="1.96513">
        <ele>144.82</ele>
        <time>2019-12-19T10:43:46Z</time>
      </trkpt>
      <trkpt lat="48.59482" lon="1.96514">
        <ele>144.82</ele>
        <time>2019-12-19T10:43:47Z</time>
      </trkpt>
      <trkpt lat="48.59481" lon="1.96516">
        <ele>144.34</ele>
        <time>2019-12-19T10:43:48Z</time>
      </trkpt>
      <trkpt lat="48.5948" lon="1.96518">
        <ele>144.34</ele>
        <time>2019-12-19T10:43:49Z</time>
      </trkpt>
      <trkpt lat="48.59479" lon="1.96521">
        <ele>144.34</ele>
        <time>2019-12-19T10:43:50Z</time>
      </trkpt>
      <trkpt lat="48.59478" lon="1.96523">
        <ele>144.34</ele>
        <time>2019-12-19T10:43:51Z</time>
      </trkpt>
      <trkpt lat="48.59477" lon="1.96525">
        <ele>144.34</ele>
        <time>2019-12-19T10:43:52Z</time>
      </trkpt>
      <trkpt lat="48.59476" lon="1.96528">
        <ele>144.34</ele>
        <time>2019-12-19T10:43:53Z</time>
      </trkpt>
      <trkpt lat="48.59476" lon="1.96529">
        <ele>144.34</ele>
        <time>2019-12-19T10:43:54Z</time>
      </trkpt>
      <trkpt lat="48.59475" lon="1.96531">
        <ele>143.85</ele>
        <time>2019-12-19T10:43:55Z</time>
      </trkpt>
      <trkpt lat="48.59474" lon="1.96533">
        <ele>143.85</ele>
        <time>2019-12-19T10:43:56Z</time>
      </trkpt>
      <trkpt lat="48.59473" lon="1.96535">
        <ele>143.85</ele>
        <time>2019-12-19T10:43:57Z</time>
      </trkpt>
      <trkpt lat="48.59472" lon="1.96537">
        <ele>143.37</ele>
        <time>2019-12-19T10:43:58Z</time>
      </trkpt>
      <trkpt lat="48.59471" lon="1.96539">
        <ele>143.85</ele>
        <time>2019-12-19T10:43:59Z</time>
      </trkpt>
      <trkpt lat="48.59471" lon="1.96541">
        <ele>143.37</ele>
        <time>2019-12-19T10:44:00Z</time>
      </trkpt>
      <trkpt lat="48.5947" lon="1.96542">
        <ele>143.37</ele>
        <time>2019-12-19T10:44:01Z</time>
      </trkpt>
      <trkpt lat="48.59469" lon="1.96544">
        <ele>143.37</ele>
        <time>2019-12-19T10:44:02Z</time>
      </trkpt>
      <trkpt lat="48.59468" lon="1.96547">
        <ele>143.37</ele>
        <time>2019-12-19T10:44:03Z</time>
      </trkpt>
      <trkpt lat="48.59467" lon="1.96549">
        <ele>143.37</ele>
        <time>2019-12-19T10:44:04Z</time>
      </trkpt>
      <trkpt lat="48.59466" lon="1.96551">
        <ele>143.37</ele>
        <time>2019-12-19T10:44:05Z</time>
      </trkpt>
      <trkpt lat="48.59465" lon="1.96553">
        <ele>143.37</ele>
        <time>2019-12-19T10:44:06Z</time>
      </trkpt>
      <trkpt lat="48.59464" lon="1.96555">
        <ele>142.89</ele>
        <time>2019-12-19T10:44:07Z</time>
      </trkpt>
      <trkpt lat="48.59463" lon="1.96557">
        <ele>142.89</ele>
        <time>2019-12-19T10:44:08Z</time>
      </trkpt>
      <trkpt lat="48.59462" lon="1.96559">
        <ele>142.89</ele>
        <time>2019-12-19T10:44:09Z</time>
      </trkpt>
      <trkpt lat="48.59461" lon="1.96561">
        <ele>142.89</ele>
        <time>2019-12-19T10:44:10Z</time>
      </trkpt>
      <trkpt lat="48.59461" lon="1.96563">
        <ele>142.89</ele>
        <time>2019-12-19T10:44:11Z</time>
      </trkpt>
      <trkpt lat="48.5946" lon="1.96564">
        <ele>142.89</ele>
        <time>2019-12-19T10:44:12Z</time>
      </trkpt>
      <trkpt lat="48.5946" lon="1.96566">
        <ele>142.89</ele>
        <time>2019-12-19T10:44:13Z</time>
      </trkpt>
      <trkpt lat="48.59459" lon="1.96568">
        <ele>142.89</ele>
        <time>2019-12-19T10:44:14Z</time>
      </trkpt>
      <trkpt lat="48.59458" lon="1.9657">
        <ele>142.89</ele>
        <time>2019-12-19T10:44:15Z</time>
      </trkpt>
      <trkpt lat="48.59457" lon="1.96571">
        <ele>142.89</ele>
        <time>2019-12-19T10:44:16Z</time>
      </trkpt>
      <trkpt lat="48.59456" lon="1.96573">
        <ele>142.41</ele>
        <time>2019-12-19T10:44:17Z</time>
      </trkpt>
      <trkpt lat="48.59455" lon="1.96575">
        <ele>142.41</ele>
        <time>2019-12-19T10:44:18Z</time>
      </trkpt>
      <trkpt lat="48.59454" lon="1.96577">
        <ele>142.41</ele>
        <time>2019-12-19T10:44:19Z</time>
      </trkpt>
      <trkpt lat="48.59453" lon="1.96579">
        <ele>142.89</ele>
        <time>2019-12-19T10:44:20Z</time>
      </trkpt>
      <trkpt lat="48.59452" lon="1.9658">
        <ele>142.89</ele>
        <time>2019-12-19T10:44:21Z</time>
      </trkpt>
      <trkpt lat="48.59451" lon="1.96582">
        <ele>142.89</ele>
        <time>2019-12-19T10:44:22Z</time>
      </trkpt>
      <trkpt lat="48.59451" lon="1.96584">
        <ele>143.37</ele>
        <time>2019-12-19T10:44:23Z</time>
      </trkpt>
      <trkpt lat="48.5945" lon="1.96586">
        <ele>143.37</ele>
        <time>2019-12-19T10:44:24Z</time>
      </trkpt>
      <trkpt lat="48.59449" lon="1.96588">
        <ele>143.37</ele>
        <time>2019-12-19T10:44:25Z</time>
      </trkpt>
      <trkpt lat="48.59448" lon="1.9659">
        <ele>143.37</ele>
        <time>2019-12-19T10:44:26Z</time>
      </trkpt>
      <trkpt lat="48.59447" lon="1.96591">
        <ele>143.85</ele>
        <time>2019-12-19T10:44:27Z</time>
      </trkpt>
      <trkpt lat="48.59447" lon="1.96593">
        <ele>143.85</ele>
        <time>2019-12-19T10:44:28Z</time>
      </trkpt>
      <trkpt lat="48.59446" lon="1.96595">
        <ele>143.85</ele>
        <time>2019-12-19T10:44:29Z</time>
      </trkpt>
      <trkpt lat="48.59445" lon="1.96596">
        <ele>143.37</ele>
        <time>2019-12-19T10:44:30Z</time>
      </trkpt>
      <trkpt lat="48.59445" lon="1.96598">
        <ele>143.85</ele>
        <time>2019-12-19T10:44:31Z</time>
      </trkpt>
      <trkpt lat="48.59444" lon="1.96599">
        <ele>143.37</ele>
        <time>2019-12-19T10:44:32Z</time>
      </trkpt>
      <trkpt lat="48.59443" lon="1.96601">
        <ele>144.34</ele>
        <time>2019-12-19T10:44:33Z</time>
      </trkpt>
      <trkpt lat="48.59443" lon="1.96603">
        <ele>143.85</ele>
        <time>2019-12-19T10:44:34Z</time>
      </trkpt>
      <trkpt lat="48.59442" lon="1.96605">
        <ele>143.37</ele>
        <time>2019-12-19T10:44:35Z</time>
      </trkpt>
      <trkpt lat="48.59441" lon="1.96607">
        <ele>143.37</ele>
        <time>2019-12-19T10:44:36Z</time>
      </trkpt>
      <trkpt lat="48.5944" lon="1.96609">
        <ele>143.37</ele>
        <time>2019-12-19T10:44:37Z</time>
      </trkpt>
      <trkpt lat="48.59439" lon="1.96611">
        <ele>143.37</ele>
        <time>2019-12-19T10:44:38Z</time>
      </trkpt>
      <trkpt lat="48.59439" lon="1.96613">
        <ele>142.89</ele>
        <time>2019-12-19T10:44:39Z</time>
      </trkpt>
      <trkpt lat="48.59439" lon="1.96615">
        <ele>143.37</ele>
        <time>2019-12-19T10:44:40Z</time>
      </trkpt>
      <trkpt lat="48.59438" lon="1.96618">
        <ele>142.89</ele>
        <time>2019-12-19T10:44:41Z</time>
      </trkpt>
      <trkpt lat="48.59437" lon="1.9662">
        <ele>142.41</ele>
        <time>2019-12-19T10:44:42Z</time>
      </trkpt>
      <trkpt lat="48.59437" lon="1.96623">
        <ele>142.41</ele>
        <time>2019-12-19T10:44:43Z</time>
      </trkpt>
      <trkpt lat="48.59436" lon="1.96625">
        <ele>142.41</ele>
        <time>2019-12-19T10:44:44Z</time>
      </trkpt>
      <trkpt lat="48.59435" lon="1.96627">
        <ele>142.41</ele>
        <time>2019-12-19T10:44:45Z</time>
      </trkpt>
      <trkpt lat="48.59434" lon="1.96629">
        <ele>141.93</ele>
        <time>2019-12-19T10:44:46Z</time>
      </trkpt>
      <trkpt lat="48.59434" lon="1.96631">
        <ele>141.93</ele>
        <time>2019-12-19T10:44:47Z</time>
      </trkpt>
      <trkpt lat="48.59433" lon="1.96633">
        <ele>142.41</ele>
        <time>2019-12-19T10:44:48Z</time>
      </trkpt>
      <trkpt lat="48.59433" lon="1.96635">
        <ele>142.41</ele>
        <time>2019-12-19T10:44:49Z</time>
      </trkpt>
      <trkpt lat="48.59432" lon="1.96637">
        <ele>141.93</ele>
        <time>2019-12-19T10:44:50Z</time>
      </trkpt>
      <trkpt lat="48.59432" lon="1.96639">
        <ele>142.41</ele>
        <time>2019-12-19T10:44:51Z</time>
      </trkpt>
      <trkpt lat="48.5943" lon="1.96641">
        <ele>142.41</ele>
        <time>2019-12-19T10:44:52Z</time>
      </trkpt>
      <trkpt lat="48.59429" lon="1.96642">
        <ele>142.41</ele>
        <time>2019-12-19T10:44:53Z</time>
      </trkpt>
      <trkpt lat="48.59428" lon="1.96644">
        <ele>141.93</ele>
        <time>2019-12-19T10:44:54Z</time>
      </trkpt>
      <trkpt lat="48.59427" lon="1.96647">
        <ele>142.41</ele>
        <time>2019-12-19T10:44:55Z</time>
      </trkpt>
      <trkpt lat="48.59425" lon="1.96649">
        <ele>142.41</ele>
        <time>2019-12-19T10:44:56Z</time>
      </trkpt>
      <trkpt lat="48.59424" lon="1.9665">
        <ele>142.41</ele>
        <time>2019-12-19T10:44:57Z</time>
      </trkpt>
      <trkpt lat="48.59423" lon="1.96652">
        <ele>142.41</ele>
        <time>2019-12-19T10:44:58Z</time>
      </trkpt>
      <trkpt lat="48.59422" lon="1.96655">
        <ele>142.41</ele>
        <time>2019-12-19T10:44:59Z</time>
      </trkpt>
      <trkpt lat="48.59421" lon="1.96657">
        <ele>142.41</ele>
        <time>2019-12-19T10:45:00Z</time>
      </trkpt>
      <trkpt lat="48.5942" lon="1.96659">
        <ele>142.41</ele>
        <time>2019-12-19T10:45:01Z</time>
      </trkpt>
      <trkpt lat="48.59419" lon="1.96661">
        <ele>142.89</ele>
        <time>2019-12-19T10:45:02Z</time>
      </trkpt>
      <trkpt lat="48.59418" lon="1.96663">
        <ele>142.89</ele>
        <time>2019-12-19T10:45:03Z</time>
      </trkpt>
      <trkpt lat="48.59417" lon="1.96665">
        <ele>142.89</ele>
        <time>2019-12-19T10:45:04Z</time>
      </trkpt>
      <trkpt lat="48.59417" lon="1.96666">
        <ele>142.89</ele>
        <time>2019-12-19T10:45:05Z</time>
      </trkpt>
      <trkpt lat="48.59416" lon="1.96668">
        <ele>142.89</ele>
        <time>2019-12-19T10:45:06Z</time>
      </trkpt>
      <trkpt lat="48.59415" lon="1.96669">
        <ele>142.89</ele>
        <time>2019-12-19T10:45:07Z</time>
      </trkpt>
      <trkpt lat="48.59414" lon="1.9667">
        <ele>142.89</ele>
        <time>2019-12-19T10:45:08Z</time>
      </trkpt>
      <trkpt lat="48.59413" lon="1.96672">
        <ele>142.89</ele>
        <time>2019-12-19T10:45:09Z</time>
      </trkpt>
      <trkpt lat="48.59412" lon="1.96674">
        <ele>142.89</ele>
        <time>2019-12-19T10:45:10Z</time>
      </trkpt>
      <trkpt lat="48.5941" lon="1.96677">
        <ele>142.41</ele>
        <time>2019-12-19T10:45:11Z</time>
      </trkpt>
      <trkpt lat="48.59409" lon="1.96679">
        <ele>142.41</ele>
        <time>2019-12-19T10:45:12Z</time>
      </trkpt>
      <trkpt lat="48.59408" lon="1.96681">
        <ele>142.41</ele>
        <time>2019-12-19T10:45:13Z</time>
      </trkpt>
      <trkpt lat="48.59406" lon="1.96682">
        <ele>142.41</ele>
        <time>2019-12-19T10:45:14Z</time>
      </trkpt>
      <trkpt lat="48.59405" lon="1.96683">
        <ele>142.41</ele>
        <time>2019-12-19T10:45:15Z</time>
      </trkpt>
      <trkpt lat="48.59403" lon="1.96683">
        <ele>142.89</ele>
        <time>2019-12-19T10:45:16Z</time>
      </trkpt>
      <trkpt lat="48.59401" lon="1.96683">
        <ele>141.93</ele>
        <time>2019-12-19T10:45:17Z</time>
      </trkpt>
      <trkpt lat="48.594" lon="1.96682">
        <ele>142.41</ele>
        <time>2019-12-19T10:45:18Z</time>
      </trkpt>
      <trkpt lat="48.59398" lon="1.96682">
        <ele>141.93</ele>
        <time>2019-12-19T10:45:19Z</time>
      </trkpt>
      <trkpt lat="48.59397" lon="1.96682">
        <ele>141.93</ele>
        <time>2019-12-19T10:45:20Z</time>
      </trkpt>
      <trkpt lat="48.59396" lon="1.96681">
        <ele>141.93</ele>
        <time>2019-12-19T10:45:21Z</time>
      </trkpt>
      <trkpt lat="48.59394" lon="1.96681">
        <ele>141.93</ele>
        <time>2019-12-19T10:45:22Z</time>
      </trkpt>
      <trkpt lat="48.59393" lon="1.9668">
        <ele>141.93</ele>
        <time>2019-12-19T10:45:23Z</time>
      </trkpt>
      <trkpt lat="48.59392" lon="1.96679">
        <ele>141.93</ele>
        <time>2019-12-19T10:45:24Z</time>
      </trkpt>
      <trkpt lat="48.59391" lon="1.96678">
        <ele>142.41</ele>
        <time>2019-12-19T10:45:25Z</time>
      </trkpt>
      <trkpt lat="48.5939" lon="1.96677">
        <ele>141.93</ele>
        <time>2019-12-19T10:45:26Z</time>
      </trkpt>
      <trkpt lat="48.59389" lon="1.96677">
        <ele>141.93</ele>
        <time>2019-12-19T10:45:27Z</time>
      </trkpt>
      <trkpt lat="48.59387" lon="1.96676">
        <ele>141.93</ele>
        <time>2019-12-19T10:45:28Z</time>
      </trkpt>
      <trkpt lat="48.59385" lon="1.96676">
        <ele>142.41</ele>
        <time>2019-12-19T10:45:29Z</time>
      </trkpt>
      <trkpt lat="48.59384" lon="1.96676">
        <ele>141.93</ele>
        <time>2019-12-19T10:45:30Z</time>
      </trkpt>
      <trkpt lat="48.59382" lon="1.96676">
        <ele>141.93</ele>
        <time>2019-12-19T10:45:31Z</time>
      </trkpt>
      <trkpt lat="48.59381" lon="1.96675">
        <ele>141.45</ele>
        <time>2019-12-19T10:45:32Z</time>
      </trkpt>
      <trkpt lat="48.5938" lon="1.96675">
        <ele>141.45</ele>
        <time>2019-12-19T10:45:33Z</time>
      </trkpt>
      <trkpt lat="48.59378" lon="1.96674">
        <ele>141.45</ele>
        <time>2019-12-19T10:45:34Z</time>
      </trkpt>
      <trkpt lat="48.59376" lon="1.96674">
        <ele>141.45</ele>
        <time>2019-12-19T10:45:35Z</time>
      </trkpt>
      <trkpt lat="48.59375" lon="1.96674">
        <ele>140.97</ele>
        <time>2019-12-19T10:45:36Z</time>
      </trkpt>
      <trkpt lat="48.59373" lon="1.96674">
        <ele>140.97</ele>
        <time>2019-12-19T10:45:37Z</time>
      </trkpt>
      <trkpt lat="48.59372" lon="1.96674">
        <ele>140.97</ele>
        <time>2019-12-19T10:45:38Z</time>
      </trkpt>
      <trkpt lat="48.5937" lon="1.96673">
        <ele>140.97</ele>
        <time>2019-12-19T10:45:39Z</time>
      </trkpt>
      <trkpt lat="48.59369" lon="1.96673">
        <ele>140.49</ele>
        <time>2019-12-19T10:45:40Z</time>
      </trkpt>
      <trkpt lat="48.59368" lon="1.96673">
        <ele>140.49</ele>
        <time>2019-12-19T10:45:41Z</time>
      </trkpt>
      <trkpt lat="48.59367" lon="1.96673">
        <ele>140.01</ele>
        <time>2019-12-19T10:45:42Z</time>
      </trkpt>
      <trkpt lat="48.59366" lon="1.96673">
        <ele>140.01</ele>
        <time>2019-12-19T10:45:43Z</time>
      </trkpt>
      <trkpt lat="48.59365" lon="1.96673">
        <ele>140.01</ele>
        <time>2019-12-19T10:45:44Z</time>
      </trkpt>
      <trkpt lat="48.59364" lon="1.96673">
        <ele>139.53</ele>
        <time>2019-12-19T10:45:45Z</time>
      </trkpt>
      <trkpt lat="48.59363" lon="1.96672">
        <ele>140.49</ele>
        <time>2019-12-19T10:45:46Z</time>
      </trkpt>
      <trkpt lat="48.59363" lon="1.96672">
        <ele>139.05</ele>
        <time>2019-12-19T10:45:47Z</time>
      </trkpt>
      <trkpt lat="48.59362" lon="1.96671">
        <ele>139.05</ele>
        <time>2019-12-19T10:45:48Z</time>
      </trkpt>
      <trkpt lat="48.59361" lon="1.9667">
        <ele>138.57</ele>
        <time>2019-12-19T10:45:49Z</time>
      </trkpt>
      <trkpt lat="48.59361" lon="1.96669">
        <ele>138.09</ele>
        <time>2019-12-19T10:45:50Z</time>
      </trkpt>
      <trkpt lat="48.5936" lon="1.96668">
        <ele>137.61</ele>
        <time>2019-12-19T10:45:51Z</time>
      </trkpt>
      <trkpt lat="48.59359" lon="1.96668">
        <ele>137.61</ele>
        <time>2019-12-19T10:45:52Z</time>
      </trkpt>
      <trkpt lat="48.59358" lon="1.96668">
        <ele>137.13</ele>
        <time>2019-12-19T10:45:53Z</time>
      </trkpt>
      <trkpt lat="48.59358" lon="1.96668">
        <ele>137.13</ele>
        <time>2019-12-19T10:45:54Z</time>
      </trkpt>
      <trkpt lat="48.59358" lon="1.96668">
        <ele>136.64</ele>
        <time>2019-12-19T10:45:55Z</time>
      </trkpt>
      <trkpt lat="48.59357" lon="1.96668">
        <ele>136.16</ele>
        <time>2019-12-19T10:45:56Z</time>
      </trkpt>
      <trkpt lat="48.59356" lon="1.96668">
        <ele>136.64</ele>
        <time>2019-12-19T10:45:57Z</time>
      </trkpt>
      <trkpt lat="48.59355" lon="1.96668">
        <ele>136.16</ele>
        <time>2019-12-19T10:45:58Z</time>
      </trkpt>
      <trkpt lat="48.59355" lon="1.96668">
        <ele>136.16</ele>
        <time>2019-12-19T10:45:59Z</time>
      </trkpt>
      <trkpt lat="48.59354" lon="1.96668">
        <ele>135.68</ele>
        <time>2019-12-19T10:46:00Z</time>
      </trkpt>
      <trkpt lat="48.59353" lon="1.96668">
        <ele>135.2</ele>
        <time>2019-12-19T10:46:01Z</time>
      </trkpt>
      <trkpt lat="48.59353" lon="1.96667">
        <ele>135.2</ele>
        <time>2019-12-19T10:46:02Z</time>
      </trkpt>
      <trkpt lat="48.59352" lon="1.96667">
        <ele>134.72</ele>
        <time>2019-12-19T10:46:03Z</time>
      </trkpt>
      <trkpt lat="48.59351" lon="1.96667">
        <ele>134.72</ele>
        <time>2019-12-19T10:46:04Z</time>
      </trkpt>
      <trkpt lat="48.5935" lon="1.96666">
        <ele>134.24</ele>
        <time>2019-12-19T10:46:05Z</time>
      </trkpt>
      <trkpt lat="48.5935" lon="1.96666">
        <ele>134.24</ele>
        <time>2019-12-19T10:46:06Z</time>
      </trkpt>
      <trkpt lat="48.59349" lon="1.96665">
        <ele>134.24</ele>
        <time>2019-12-19T10:46:07Z</time>
      </trkpt>
      <trkpt lat="48.59348" lon="1.96665">
        <ele>133.76</ele>
        <time>2019-12-19T10:46:08Z</time>
      </trkpt>
      <trkpt lat="48.59347" lon="1.96664">
        <ele>133.76</ele>
        <time>2019-12-19T10:46:09Z</time>
      </trkpt>
      <trkpt lat="48.59346" lon="1.96664">
        <ele>133.28</ele>
        <time>2019-12-19T10:46:10Z</time>
      </trkpt>
      <trkpt lat="48.59345" lon="1.96664">
        <ele>133.28</ele>
        <time>2019-12-19T10:46:11Z</time>
      </trkpt>
      <trkpt lat="48.59344" lon="1.96663">
        <ele>133.28</ele>
        <time>2019-12-19T10:46:12Z</time>
      </trkpt>
      <trkpt lat="48.59344" lon="1.96662">
        <ele>132.8</ele>
        <time>2019-12-19T10:46:13Z</time>
      </trkpt>
      <trkpt lat="48.59343" lon="1.96661">
        <ele>132.32</ele>
        <time>2019-12-19T10:46:14Z</time>
      </trkpt>
      <trkpt lat="48.59342" lon="1.9666">
        <ele>131.84</ele>
        <time>2019-12-19T10:46:15Z</time>
      </trkpt>
      <trkpt lat="48.59341" lon="1.96659">
        <ele>131.84</ele>
        <time>2019-12-19T10:46:16Z</time>
      </trkpt>
      <trkpt lat="48.5934" lon="1.96658">
        <ele>131.84</ele>
        <time>2019-12-19T10:46:17Z</time>
      </trkpt>
      <trkpt lat="48.59339" lon="1.96657">
        <ele>131.36</ele>
        <time>2019-12-19T10:46:18Z</time>
      </trkpt>
      <trkpt lat="48.59338" lon="1.96656">
        <ele>131.36</ele>
        <time>2019-12-19T10:46:19Z</time>
      </trkpt>
      <trkpt lat="48.59337" lon="1.96655">
        <ele>131.36</ele>
        <time>2019-12-19T10:46:20Z</time>
      </trkpt>
      <trkpt lat="48.59336" lon="1.96654">
        <ele>130.88</ele>
        <time>2019-12-19T10:46:21Z</time>
      </trkpt>
      <trkpt lat="48.59334" lon="1.96653">
        <ele>130.88</ele>
        <time>2019-12-19T10:46:22Z</time>
      </trkpt>
      <trkpt lat="48.59333" lon="1.96652">
        <ele>130.88</ele>
        <time>2019-12-19T10:46:23Z</time>
      </trkpt>
      <trkpt lat="48.59331" lon="1.96652">
        <ele>130.4</ele>
        <time>2019-12-19T10:46:24Z</time>
      </trkpt>
      <trkpt lat="48.5933" lon="1.96652">
        <ele>130.4</ele>
        <time>2019-12-19T10:46:25Z</time>
      </trkpt>
      <trkpt lat="48.59328" lon="1.96652">
        <ele>130.4</ele>
        <time>2019-12-19T10:46:26Z</time>
      </trkpt>
      <trkpt lat="48.59326" lon="1.96651">
        <ele>129.92</ele>
        <time>2019-12-19T10:46:27Z</time>
      </trkpt>
      <trkpt lat="48.59324" lon="1.96651">
        <ele>129.92</ele>
        <time>2019-12-19T10:46:28Z</time>
      </trkpt>
      <trkpt lat="48.59323" lon="1.9665">
        <ele>129.43</ele>
        <time>2019-12-19T10:46:29Z</time>
      </trkpt>
      <trkpt lat="48.59321" lon="1.96651">
        <ele>129.43</ele>
        <time>2019-12-19T10:46:30Z</time>
      </trkpt>
      <trkpt lat="48.5932" lon="1.9665">
        <ele>129.43</ele>
        <time>2019-12-19T10:46:31Z</time>
      </trkpt>
      <trkpt lat="48.59318" lon="1.9665">
        <ele>129.43</ele>
        <time>2019-12-19T10:46:32Z</time>
      </trkpt>
      <trkpt lat="48.59317" lon="1.96649">
        <ele>128.95</ele>
        <time>2019-12-19T10:46:33Z</time>
      </trkpt>
      <trkpt lat="48.59316" lon="1.96649">
        <ele>128.95</ele>
        <time>2019-12-19T10:46:34Z</time>
      </trkpt>
      <trkpt lat="48.59315" lon="1.96648">
        <ele>128.95</ele>
        <time>2019-12-19T10:46:35Z</time>
      </trkpt>
      <trkpt lat="48.59314" lon="1.96648">
        <ele>128.95</ele>
        <time>2019-12-19T10:46:36Z</time>
      </trkpt>
      <trkpt lat="48.59313" lon="1.96647">
        <ele>128.47</ele>
        <time>2019-12-19T10:46:37Z</time>
      </trkpt>
      <trkpt lat="48.59313" lon="1.96647">
        <ele>127.99</ele>
        <time>2019-12-19T10:46:38Z</time>
      </trkpt>
      <trkpt lat="48.59312" lon="1.96646">
        <ele>127.99</ele>
        <time>2019-12-19T10:46:39Z</time>
      </trkpt>
      <trkpt lat="48.59311" lon="1.96645">
        <ele>127.99</ele>
        <time>2019-12-19T10:46:40Z</time>
      </trkpt>
      <trkpt lat="48.5931" lon="1.96646">
        <ele>127.51</ele>
        <time>2019-12-19T10:46:41Z</time>
      </trkpt>
      <trkpt lat="48.59309" lon="1.96645">
        <ele>127.51</ele>
        <time>2019-12-19T10:46:42Z</time>
      </trkpt>
      <trkpt lat="48.59308" lon="1.96645">
        <ele>127.03</ele>
        <time>2019-12-19T10:46:43Z</time>
      </trkpt>
      <trkpt lat="48.59307" lon="1.96645">
        <ele>127.03</ele>
        <time>2019-12-19T10:46:44Z</time>
      </trkpt>
      <trkpt lat="48.59306" lon="1.96644">
        <ele>127.03</ele>
        <time>2019-12-19T10:46:45Z</time>
      </trkpt>
      <trkpt lat="48.59305" lon="1.96643">
        <ele>127.03</ele>
        <time>2019-12-19T10:46:46Z</time>
      </trkpt>
      <trkpt lat="48.59303" lon="1.96643">
        <ele>127.03</ele>
        <time>2019-12-19T10:46:47Z</time>
      </trkpt>
      <trkpt lat="48.59302" lon="1.96642">
        <ele>126.55</ele>
        <time>2019-12-19T10:46:48Z</time>
      </trkpt>
      <trkpt lat="48.59301" lon="1.96642">
        <ele>126.55</ele>
        <time>2019-12-19T10:46:49Z</time>
      </trkpt>
      <trkpt lat="48.59299" lon="1.96641">
        <ele>126.55</ele>
        <time>2019-12-19T10:46:50Z</time>
      </trkpt>
      <trkpt lat="48.59298" lon="1.96641">
        <ele>126.55</ele>
        <time>2019-12-19T10:46:51Z</time>
      </trkpt>
      <trkpt lat="48.59297" lon="1.96641">
        <ele>126.55</ele>
        <time>2019-12-19T10:46:52Z</time>
      </trkpt>
      <trkpt lat="48.59296" lon="1.9664">
        <ele>126.07</ele>
        <time>2019-12-19T10:46:53Z</time>
      </trkpt>
      <trkpt lat="48.59294" lon="1.9664">
        <ele>125.59</ele>
        <time>2019-12-19T10:46:54Z</time>
      </trkpt>
      <trkpt lat="48.59293" lon="1.96639">
        <ele>125.59</ele>
        <time>2019-12-19T10:46:55Z</time>
      </trkpt>
      <trkpt lat="48.59291" lon="1.96639">
        <ele>125.59</ele>
        <time>2019-12-19T10:46:56Z</time>
      </trkpt>
      <trkpt lat="48.5929" lon="1.96638">
        <ele>125.59</ele>
        <time>2019-12-19T10:46:57Z</time>
      </trkpt>
      <trkpt lat="48.59289" lon="1.96637">
        <ele>125.11</ele>
        <time>2019-12-19T10:46:58Z</time>
      </trkpt>
      <trkpt lat="48.59287" lon="1.96637">
        <ele>125.11</ele>
        <time>2019-12-19T10:46:59Z</time>
      </trkpt>
      <trkpt lat="48.59286" lon="1.96637">
        <ele>125.11</ele>
        <time>2019-12-19T10:47:00Z</time>
      </trkpt>
      <trkpt lat="48.59284" lon="1.96637">
        <ele>125.11</ele>
        <time>2019-12-19T10:47:01Z</time>
      </trkpt>
      <trkpt lat="48.59282" lon="1.96636">
        <ele>124.63</ele>
        <time>2019-12-19T10:47:02Z</time>
      </trkpt>
      <trkpt lat="48.59281" lon="1.96635">
        <ele>124.63</ele>
        <time>2019-12-19T10:47:03Z</time>
      </trkpt>
      <trkpt lat="48.59279" lon="1.96634">
        <ele>124.63</ele>
        <time>2019-12-19T10:47:04Z</time>
      </trkpt>
      <trkpt lat="48.59278" lon="1.96633">
        <ele>124.15</ele>
        <time>2019-12-19T10:47:05Z</time>
      </trkpt>
      <trkpt lat="48.59277" lon="1.96633">
        <ele>124.15</ele>
        <time>2019-12-19T10:47:06Z</time>
      </trkpt>
      <trkpt lat="48.59277" lon="1.96632">
        <ele>123.67</ele>
        <time>2019-12-19T10:47:07Z</time>
      </trkpt>
      <trkpt lat="48.59276" lon="1.96631">
        <ele>123.67</ele>
        <time>2019-12-19T10:47:08Z</time>
      </trkpt>
      <trkpt lat="48.59275" lon="1.96631">
        <ele>123.67</ele>
        <time>2019-12-19T10:47:09Z</time>
      </trkpt>
      <trkpt lat="48.59274" lon="1.96631">
        <ele>123.19</ele>
        <time>2019-12-19T10:47:10Z</time>
      </trkpt>
      <trkpt lat="48.59273" lon="1.9663">
        <ele>123.19</ele>
        <time>2019-12-19T10:47:11Z</time>
      </trkpt>
      <trkpt lat="48.59272" lon="1.9663">
        <ele>123.19</ele>
        <time>2019-12-19T10:47:12Z</time>
      </trkpt>
      <trkpt lat="48.59271" lon="1.9663">
        <ele>123.19</ele>
        <time>2019-12-19T10:47:13Z</time>
      </trkpt>
      <trkpt lat="48.59269" lon="1.96629">
        <ele>122.71</ele>
        <time>2019-12-19T10:47:14Z</time>
      </trkpt>
      <trkpt lat="48.59268" lon="1.96628">
        <ele>122.71</ele>
        <time>2019-12-19T10:47:15Z</time>
      </trkpt>
      <trkpt lat="48.59266" lon="1.96627">
        <ele>122.71</ele>
        <time>2019-12-19T10:47:16Z</time>
      </trkpt>
      <trkpt lat="48.59265" lon="1.96626">
        <ele>122.22</ele>
        <time>2019-12-19T10:47:17Z</time>
      </trkpt>
      <trkpt lat="48.59264" lon="1.96626">
        <ele>122.22</ele>
        <time>2019-12-19T10:47:18Z</time>
      </trkpt>
      <trkpt lat="48.59262" lon="1.96625">
        <ele>122.22</ele>
        <time>2019-12-19T10:47:19Z</time>
      </trkpt>
      <trkpt lat="48.59261" lon="1.96624">
        <ele>121.74</ele>
        <time>2019-12-19T10:47:20Z</time>
      </trkpt>
      <trkpt lat="48.59259" lon="1.96622">
        <ele>121.74</ele>
        <time>2019-12-19T10:47:21Z</time>
      </trkpt>
      <trkpt lat="48.59258" lon="1.96621">
        <ele>121.26</ele>
        <time>2019-12-19T10:47:22Z</time>
      </trkpt>
      <trkpt lat="48.59256" lon="1.9662">
        <ele>121.26</ele>
        <time>2019-12-19T10:47:23Z</time>
      </trkpt>
      <trkpt lat="48.59255" lon="1.96619">
        <ele>121.26</ele>
        <time>2019-12-19T10:47:24Z</time>
      </trkpt>
      <trkpt lat="48.59254" lon="1.96619">
        <ele>121.26</ele>
        <time>2019-12-19T10:47:25Z</time>
      </trkpt>
      <trkpt lat="48.59253" lon="1.96618">
        <ele>121.26</ele>
        <time>2019-12-19T10:47:26Z</time>
      </trkpt>
      <trkpt lat="48.59253" lon="1.96617">
        <ele>121.26</ele>
        <time>2019-12-19T10:47:27Z</time>
      </trkpt>
      <trkpt lat="48.59252" lon="1.96617">
        <ele>121.26</ele>
        <time>2019-12-19T10:47:28Z</time>
      </trkpt>
      <trkpt lat="48.59251" lon="1.96616">
        <ele>120.78</ele>
        <time>2019-12-19T10:47:29Z</time>
      </trkpt>
      <trkpt lat="48.5925" lon="1.96615">
        <ele>120.3</ele>
        <time>2019-12-19T10:47:30Z</time>
      </trkpt>
      <trkpt lat="48.59249" lon="1.96614">
        <ele>120.78</ele>
        <time>2019-12-19T10:47:31Z</time>
      </trkpt>
      <trkpt lat="48.59249" lon="1.96613">
        <ele>120.3</ele>
        <time>2019-12-19T10:47:32Z</time>
      </trkpt>
      <trkpt lat="48.59247" lon="1.96612">
        <ele>120.3</ele>
        <time>2019-12-19T10:47:33Z</time>
      </trkpt>
      <trkpt lat="48.59247" lon="1.96611">
        <ele>120.3</ele>
        <time>2019-12-19T10:47:34Z</time>
      </trkpt>
      <trkpt lat="48.59246" lon="1.9661">
        <ele>120.3</ele>
        <time>2019-12-19T10:47:35Z</time>
      </trkpt>
      <trkpt lat="48.59245" lon="1.96609">
        <ele>120.3</ele>
        <time>2019-12-19T10:47:36Z</time>
      </trkpt>
      <trkpt lat="48.59244" lon="1.96608">
        <ele>120.3</ele>
        <time>2019-12-19T10:47:37Z</time>
      </trkpt>
      <trkpt lat="48.59243" lon="1.96607">
        <ele>119.82</ele>
        <time>2019-12-19T10:47:38Z</time>
      </trkpt>
      <trkpt lat="48.59243" lon="1.96606">
        <ele>119.82</ele>
        <time>2019-12-19T10:47:39Z</time>
      </trkpt>
      <trkpt lat="48.59241" lon="1.96605">
        <ele>119.82</ele>
        <time>2019-12-19T10:47:40Z</time>
      </trkpt>
      <trkpt lat="48.5924" lon="1.96603">
        <ele>119.82</ele>
        <time>2019-12-19T10:47:41Z</time>
      </trkpt>
      <trkpt lat="48.59239" lon="1.96602">
        <ele>119.34</ele>
        <time>2019-12-19T10:47:42Z</time>
      </trkpt>
      <trkpt lat="48.59237" lon="1.96602">
        <ele>119.34</ele>
        <time>2019-12-19T10:47:43Z</time>
      </trkpt>
      <trkpt lat="48.59235" lon="1.966">
        <ele>118.86</ele>
        <time>2019-12-19T10:47:44Z</time>
      </trkpt>
      <trkpt lat="48.59234" lon="1.96599">
        <ele>118.86</ele>
        <time>2019-12-19T10:47:45Z</time>
      </trkpt>
      <trkpt lat="48.59233" lon="1.96599">
        <ele>120.3</ele>
        <time>2019-12-19T10:47:46Z</time>
      </trkpt>
      <trkpt lat="48.59232" lon="1.96599">
        <ele>118.86</ele>
        <time>2019-12-19T10:47:47Z</time>
      </trkpt>
      <trkpt lat="48.59231" lon="1.96599">
        <ele>118.86</ele>
        <time>2019-12-19T10:47:48Z</time>
      </trkpt>
      <trkpt lat="48.5923" lon="1.96598">
        <ele>118.38</ele>
        <time>2019-12-19T10:47:49Z</time>
      </trkpt>
      <trkpt lat="48.59229" lon="1.96598">
        <ele>118.38</ele>
        <time>2019-12-19T10:47:50Z</time>
      </trkpt>
      <trkpt lat="48.59228" lon="1.96597">
        <ele>118.38</ele>
        <time>2019-12-19T10:47:51Z</time>
      </trkpt>
      <trkpt lat="48.59227" lon="1.96597">
        <ele>117.9</ele>
        <time>2019-12-19T10:47:52Z</time>
      </trkpt>
      <trkpt lat="48.59226" lon="1.96598">
        <ele>117.9</ele>
        <time>2019-12-19T10:47:53Z</time>
      </trkpt>
      <trkpt lat="48.59225" lon="1.96598">
        <ele>117.9</ele>
        <time>2019-12-19T10:47:54Z</time>
      </trkpt>
      <trkpt lat="48.59224" lon="1.96597">
        <ele>117.9</ele>
        <time>2019-12-19T10:47:55Z</time>
      </trkpt>
      <trkpt lat="48.59222" lon="1.96597">
        <ele>117.42</ele>
        <time>2019-12-19T10:47:56Z</time>
      </trkpt>
      <trkpt lat="48.59222" lon="1.96597">
        <ele>117.42</ele>
        <time>2019-12-19T10:47:57Z</time>
      </trkpt>
      <trkpt lat="48.59221" lon="1.96597">
        <ele>117.42</ele>
        <time>2019-12-19T10:47:58Z</time>
      </trkpt>
      <trkpt lat="48.59219" lon="1.96597">
        <ele>116.94</ele>
        <time>2019-12-19T10:47:59Z</time>
      </trkpt>
      <trkpt lat="48.59218" lon="1.96597">
        <ele>117.42</ele>
        <time>2019-12-19T10:48:00Z</time>
      </trkpt>
      <trkpt lat="48.59216" lon="1.96596">
        <ele>116.94</ele>
        <time>2019-12-19T10:48:01Z</time>
      </trkpt>
      <trkpt lat="48.59214" lon="1.96597">
        <ele>116.94</ele>
        <time>2019-12-19T10:48:02Z</time>
      </trkpt>
      <trkpt lat="48.59212" lon="1.96598">
        <ele>116.94</ele>
        <time>2019-12-19T10:48:03Z</time>
      </trkpt>
      <trkpt lat="48.5921" lon="1.96598">
        <ele>116.94</ele>
        <time>2019-12-19T10:48:04Z</time>
      </trkpt>
      <trkpt lat="48.59208" lon="1.96598">
        <ele>116.46</ele>
        <time>2019-12-19T10:48:05Z</time>
      </trkpt>
      <trkpt lat="48.59207" lon="1.96598">
        <ele>116.46</ele>
        <time>2019-12-19T10:48:06Z</time>
      </trkpt>
      <trkpt lat="48.59206" lon="1.96598">
        <ele>116.46</ele>
        <time>2019-12-19T10:48:07Z</time>
      </trkpt>
      <trkpt lat="48.59205" lon="1.96597">
        <ele>116.46</ele>
        <time>2019-12-19T10:48:08Z</time>
      </trkpt>
      <trkpt lat="48.59205" lon="1.96597">
        <ele>116.46</ele>
        <time>2019-12-19T10:48:09Z</time>
      </trkpt>
      <trkpt lat="48.59205" lon="1.96597">
        <ele>115.98</ele>
        <time>2019-12-19T10:48:10Z</time>
      </trkpt>
      <trkpt lat="48.59204" lon="1.96597">
        <ele>115.98</ele>
        <time>2019-12-19T10:48:11Z</time>
      </trkpt>
      <trkpt lat="48.59203" lon="1.96597">
        <ele>115.5</ele>
        <time>2019-12-19T10:48:12Z</time>
      </trkpt>
      <trkpt lat="48.59202" lon="1.96598">
        <ele>115.98</ele>
        <time>2019-12-19T10:48:13Z</time>
      </trkpt>
      <trkpt lat="48.59201" lon="1.96597">
        <ele>115.5</ele>
        <time>2019-12-19T10:48:14Z</time>
      </trkpt>
      <trkpt lat="48.59199" lon="1.96598">
        <ele>115.5</ele>
        <time>2019-12-19T10:48:15Z</time>
      </trkpt>
      <trkpt lat="48.59198" lon="1.96598">
        <ele>115.5</ele>
        <time>2019-12-19T10:48:16Z</time>
      </trkpt>
      <trkpt lat="48.59197" lon="1.96597">
        <ele>115.01</ele>
        <time>2019-12-19T10:48:17Z</time>
      </trkpt>
      <trkpt lat="48.59196" lon="1.96596">
        <ele>115.01</ele>
        <time>2019-12-19T10:48:18Z</time>
      </trkpt>
      <trkpt lat="48.59195" lon="1.96595">
        <ele>115.5</ele>
        <time>2019-12-19T10:48:19Z</time>
      </trkpt>
      <trkpt lat="48.59194" lon="1.96595">
        <ele>115.01</ele>
        <time>2019-12-19T10:48:20Z</time>
      </trkpt>
      <trkpt lat="48.59193" lon="1.96595">
        <ele>115.5</ele>
        <time>2019-12-19T10:48:22Z</time>
      </trkpt>
      <trkpt lat="48.59193" lon="1.96595">
        <ele>115.5</ele>
        <time>2019-12-19T10:48:23Z</time>
      </trkpt>
      <trkpt lat="48.59192" lon="1.96595">
        <ele>115.5</ele>
        <time>2019-12-19T10:48:24Z</time>
      </trkpt>
      <trkpt lat="48.59191" lon="1.96596">
        <ele>115.5</ele>
        <time>2019-12-19T10:48:25Z</time>
      </trkpt>
      <trkpt lat="48.5919" lon="1.96598">
        <ele>115.5</ele>
        <time>2019-12-19T10:48:26Z</time>
      </trkpt>
      <trkpt lat="48.5919" lon="1.966">
        <ele>115.5</ele>
        <time>2019-12-19T10:48:27Z</time>
      </trkpt>
      <trkpt lat="48.59189" lon="1.96601">
        <ele>115.5</ele>
        <time>2019-12-19T10:48:28Z</time>
      </trkpt>
      <trkpt lat="48.59189" lon="1.96601">
        <ele>115.5</ele>
        <time>2019-12-19T10:48:29Z</time>
      </trkpt>
      <trkpt lat="48.59189" lon="1.96601">
        <ele>115.5</ele>
        <time>2019-12-19T10:48:35Z</time>
      </trkpt>
      <trkpt lat="48.5919" lon="1.96601">
        <ele>115.01</ele>
        <time>2019-12-19T10:48:36Z</time>
      </trkpt>
      <trkpt lat="48.5919" lon="1.96601">
        <ele>115.01</ele>
        <time>2019-12-19T10:48:37Z</time>
      </trkpt>
      <trkpt lat="48.59189" lon="1.966">
        <ele>115.5</ele>
        <time>2019-12-19T10:48:43Z</time>
      </trkpt>
      <trkpt lat="48.59189" lon="1.96599">
        <ele>115.5</ele>
        <time>2019-12-19T10:48:44Z</time>
      </trkpt>
      <trkpt lat="48.59189" lon="1.966">
        <ele>115.01</ele>
        <time>2019-12-19T10:48:47Z</time>
      </trkpt>
      <trkpt lat="48.59189" lon="1.966">
        <ele>115.01</ele>
        <time>2019-12-19T10:48:48Z</time>
      </trkpt>
      <trkpt lat="48.59188" lon="1.966">
        <ele>115.01</ele>
        <time>2019-12-19T10:48:49Z</time>
      </trkpt>
      <trkpt lat="48.59186" lon="1.96601">
        <ele>115.01</ele>
        <time>2019-12-19T10:48:55Z</time>
      </trkpt>
      <trkpt lat="48.59186" lon="1.96602">
        <ele>115.01</ele>
        <time>2019-12-19T10:48:56Z</time>
      </trkpt>
      <trkpt lat="48.59185" lon="1.96603">
        <ele>115.01</ele>
        <time>2019-12-19T10:48:57Z</time>
      </trkpt>
      <trkpt lat="48.59185" lon="1.96604">
        <ele>115.5</ele>
        <time>2019-12-19T10:48:58Z</time>
      </trkpt>
      <trkpt lat="48.59186" lon="1.96603">
        <ele>115.98</ele>
        <time>2019-12-19T10:49:14Z</time>
      </trkpt>
      <trkpt lat="48.59186" lon="1.96603">
        <ele>115.98</ele>
        <time>2019-12-19T10:49:15Z</time>
      </trkpt>
    </trkseg>
  </trk>
</gpx>